<?xml version="1.0" encoding="UTF-8" standalone="no" ?>
<gpx xmlns="http://www.topografix.com/GPX/1/1" xmlns:xsi="http://www.w3.org/2001/XMLSchema-instance" xsi:schemaLocation="http://www.topografix.com/GPX/1/1 http://www.topografix.com/GPX/1/1/gpx.xsd" version="1.1" creator="VisuGPX - https://www.visugpx.com">
  <metadata>
    <name>From Montenois</name>
    <desc><![CDATA[Virée automnale sous une meteo idéale]]></desc>
  </metadata>
  <wpt lat="47.4987" lon="6.66486">
    <ele>387</ele>
    <name><![CDATA[Point de cheminement 1]]></name>
    <desc><![CDATA[]]></desc>
  </wpt>
  <wpt lat="47.48434" lon="6.68917">
    <ele>354</ele>
    <name><![CDATA[Point de cheminement 2]]></name>
    <desc><![CDATA[]]></desc>
  </wpt>
  <wpt lat="47.46955" lon="6.69916">
    <ele>324</ele>
    <name><![CDATA[Point de cheminement 3]]></name>
    <desc><![CDATA[]]></desc>
  </wpt>
  <wpt lat="47.45395" lon="6.70168">
    <ele>395</ele>
    <name><![CDATA[Point de cheminement 4]]></name>
    <desc><![CDATA[]]></desc>
  </wpt>
  <wpt lat="47.45468" lon="6.72305">
    <ele>440</ele>
    <name><![CDATA[Point de cheminement 5]]></name>
    <desc><![CDATA[]]></desc>
  </wpt>
  <wpt lat="47.4674" lon="6.74701">
    <ele>356</ele>
    <name><![CDATA[Point de cheminement 6]]></name>
    <desc><![CDATA[]]></desc>
  </wpt>
  <wpt lat="47.48581" lon="6.77784">
    <ele>312</ele>
    <name><![CDATA[Point de cheminement 7]]></name>
    <desc><![CDATA[]]></desc>
  </wpt>
  <wpt lat="47.48652" lon="6.77375">
    <ele>332</ele>
    <name><![CDATA[Point de cheminement 8]]></name>
    <desc><![CDATA[]]></desc>
  </wpt>
  <wpt lat="47.49044" lon="6.76798">
    <ele>312</ele>
    <name><![CDATA[Point de cheminement 9]]></name>
    <desc><![CDATA[]]></desc>
  </wpt>
  <wpt lat="47.48911" lon="6.73632">
    <ele>380</ele>
    <name><![CDATA[Point de cheminement 10]]></name>
    <desc><![CDATA[]]></desc>
  </wpt>
  <wpt lat="47.49107" lon="6.70671">
    <ele>449</ele>
    <name><![CDATA[Point de cheminement 11]]></name>
    <desc><![CDATA[]]></desc>
  </wpt>
  <wpt lat="47.49106" lon="6.66823">
    <ele>388</ele>
    <name><![CDATA[Point de cheminement 12]]></name>
    <desc><![CDATA[]]></desc>
  </wpt>
  <trk>
    <name><![CDATA[D298]]></name>
    <desc><![CDATA[]]></desc>
    <trkseg>
      <trkpt lat="47.49873" lon="6.66495">
        <ele>387</ele>
        <time>2015-11-15T07:32:44.122Z</time>
      </trkpt>
      <trkpt lat="47.49868" lon="6.66485">
        <ele>388</ele>
        <time>2015-11-15T07:32:45.000Z</time>
      </trkpt>
      <trkpt lat="47.49864" lon="6.66484">
        <ele>388</ele>
        <time>2015-11-15T07:33:48.000Z</time>
      </trkpt>
      <trkpt lat="47.49863" lon="6.66484">
        <ele>388</ele>
        <time>2015-11-15T07:33:49.000Z</time>
      </trkpt>
      <trkpt lat="47.49866" lon="6.66479">
        <ele>388</ele>
        <time>2015-11-15T07:34:38.000Z</time>
      </trkpt>
      <trkpt lat="47.49866" lon="6.66478">
        <ele>388</ele>
        <time>2015-11-15T07:34:39.000Z</time>
      </trkpt>
      <trkpt lat="47.49862" lon="6.66477">
        <ele>388</ele>
        <time>2015-11-15T07:36:44.000Z</time>
      </trkpt>
      <trkpt lat="47.49861" lon="6.66477">
        <ele>388</ele>
        <time>2015-11-15T07:36:45.000Z</time>
      </trkpt>
      <trkpt lat="47.49865" lon="6.66479">
        <ele>388</ele>
        <time>2015-11-15T07:37:11.000Z</time>
      </trkpt>
      <trkpt lat="47.49865" lon="6.6648">
        <ele>388</ele>
        <time>2015-11-15T07:37:12.000Z</time>
      </trkpt>
      <trkpt lat="47.49868" lon="6.66484">
        <ele>388</ele>
        <time>2015-11-15T07:39:09.000Z</time>
      </trkpt>
      <trkpt lat="47.49868" lon="6.66485">
        <ele>388</ele>
        <time>2015-11-15T07:39:10.000Z</time>
      </trkpt>
      <trkpt lat="47.49868" lon="6.66491">
        <ele>388</ele>
        <time>2015-11-15T07:41:21.000Z</time>
      </trkpt>
      <trkpt lat="47.49868" lon="6.66492">
        <ele>388</ele>
        <time>2015-11-15T07:41:22.000Z</time>
      </trkpt>
      <trkpt lat="47.4987" lon="6.66486">
        <ele>387</ele>
        <time>2015-11-15T07:42:14.000Z</time>
      </trkpt>
      <trkpt lat="47.4987" lon="6.66486">
        <ele>387</ele>
        <time>2015-11-15T07:42:15.000Z</time>
      </trkpt>
      <trkpt lat="47.49866" lon="6.66484">
        <ele>388</ele>
        <time>2015-11-15T07:48:47.000Z</time>
      </trkpt>
      <trkpt lat="47.49865" lon="6.66483">
        <ele>388</ele>
        <time>2015-11-15T07:48:48.000Z</time>
      </trkpt>
      <trkpt lat="47.49869" lon="6.66482">
        <ele>388</ele>
        <time>2015-11-15T07:52:15.000Z</time>
      </trkpt>
      <trkpt lat="47.49869" lon="6.6648">
        <ele>388</ele>
        <time>2015-11-15T07:52:16.000Z</time>
      </trkpt>
      <trkpt lat="47.49868" lon="6.66475">
        <ele>388</ele>
        <time>2015-11-15T07:52:18.000Z</time>
      </trkpt>
      <trkpt lat="47.49866" lon="6.66474">
        <ele>388</ele>
        <time>2015-11-15T07:52:19.000Z</time>
      </trkpt>
      <trkpt lat="47.49863" lon="6.66475">
        <ele>388</ele>
        <time>2015-11-15T07:52:20.000Z</time>
      </trkpt>
      <trkpt lat="47.49861" lon="6.66477">
        <ele>388</ele>
        <time>2015-11-15T07:52:21.000Z</time>
      </trkpt>
      <trkpt lat="47.49858" lon="6.66479">
        <ele>388</ele>
        <time>2015-11-15T07:52:22.000Z</time>
      </trkpt>
      <trkpt lat="47.49855" lon="6.66481">
        <ele>389</ele>
        <time>2015-11-15T07:52:23.000Z</time>
      </trkpt>
      <trkpt lat="47.49852" lon="6.66483">
        <ele>389</ele>
        <time>2015-11-15T07:52:24.000Z</time>
      </trkpt>
      <trkpt lat="47.4985" lon="6.66484">
        <ele>389</ele>
        <time>2015-11-15T07:52:25.000Z</time>
      </trkpt>
      <trkpt lat="47.49847" lon="6.66485">
        <ele>389</ele>
        <time>2015-11-15T07:52:26.000Z</time>
      </trkpt>
      <trkpt lat="47.49844" lon="6.66486">
        <ele>389</ele>
        <time>2015-11-15T07:52:27.000Z</time>
      </trkpt>
      <trkpt lat="47.4984" lon="6.66487">
        <ele>390</ele>
        <time>2015-11-15T07:52:29.000Z</time>
      </trkpt>
      <trkpt lat="47.49838" lon="6.66488">
        <ele>390</ele>
        <time>2015-11-15T07:52:30.000Z</time>
      </trkpt>
      <trkpt lat="47.49834" lon="6.6649">
        <ele>390</ele>
        <time>2015-11-15T07:52:32.000Z</time>
      </trkpt>
      <trkpt lat="47.49832" lon="6.66491">
        <ele>392</ele>
        <time>2015-11-15T07:52:33.000Z</time>
      </trkpt>
      <trkpt lat="47.49828" lon="6.66492">
        <ele>392</ele>
        <time>2015-11-15T07:52:35.000Z</time>
      </trkpt>
      <trkpt lat="47.49826" lon="6.66493">
        <ele>393</ele>
        <time>2015-11-15T07:52:36.000Z</time>
      </trkpt>
      <trkpt lat="47.49821" lon="6.66495">
        <ele>393</ele>
        <time>2015-11-15T07:52:38.000Z</time>
      </trkpt>
      <trkpt lat="47.49819" lon="6.66495">
        <ele>393</ele>
        <time>2015-11-15T07:52:39.000Z</time>
      </trkpt>
      <trkpt lat="47.49815" lon="6.66497">
        <ele>393</ele>
        <time>2015-11-15T07:52:41.000Z</time>
      </trkpt>
      <trkpt lat="47.49813" lon="6.66498">
        <ele>393</ele>
        <time>2015-11-15T07:52:42.000Z</time>
      </trkpt>
      <trkpt lat="47.49811" lon="6.66499">
        <ele>394</ele>
        <time>2015-11-15T07:52:43.000Z</time>
      </trkpt>
      <trkpt lat="47.49809" lon="6.665">
        <ele>394</ele>
        <time>2015-11-15T07:52:44.000Z</time>
      </trkpt>
      <trkpt lat="47.49806" lon="6.66501">
        <ele>391</ele>
        <time>2015-11-15T07:52:45.000Z</time>
      </trkpt>
      <trkpt lat="47.49804" lon="6.66502">
        <ele>391</ele>
        <time>2015-11-15T07:52:46.000Z</time>
      </trkpt>
      <trkpt lat="47.498" lon="6.66504">
        <ele>391</ele>
        <time>2015-11-15T07:52:48.000Z</time>
      </trkpt>
      <trkpt lat="47.49798" lon="6.66504">
        <ele>391</ele>
        <time>2015-11-15T07:52:49.000Z</time>
      </trkpt>
      <trkpt lat="47.49794" lon="6.66506">
        <ele>391</ele>
        <time>2015-11-15T07:52:50.999Z</time>
      </trkpt>
      <trkpt lat="47.49791" lon="6.66506">
        <ele>391</ele>
        <time>2015-11-15T07:52:52.000Z</time>
      </trkpt>
      <trkpt lat="47.49789" lon="6.66507">
        <ele>391</ele>
        <time>2015-11-15T07:52:53.000Z</time>
      </trkpt>
      <trkpt lat="47.49787" lon="6.66508">
        <ele>391</ele>
        <time>2015-11-15T07:52:53.999Z</time>
      </trkpt>
      <trkpt lat="47.49784" lon="6.66509">
        <ele>391</ele>
        <time>2015-11-15T07:52:55.000Z</time>
      </trkpt>
      <trkpt lat="47.49781" lon="6.6651">
        <ele>391</ele>
        <time>2015-11-15T07:52:56.000Z</time>
      </trkpt>
      <trkpt lat="47.49779" lon="6.66511">
        <ele>391</ele>
        <time>2015-11-15T07:52:57.000Z</time>
      </trkpt>
      <trkpt lat="47.49776" lon="6.66512">
        <ele>391</ele>
        <time>2015-11-15T07:52:58.000Z</time>
      </trkpt>
      <trkpt lat="47.49774" lon="6.66512">
        <ele>392</ele>
        <time>2015-11-15T07:52:59.000Z</time>
      </trkpt>
      <trkpt lat="47.49771" lon="6.66513">
        <ele>392</ele>
        <time>2015-11-15T07:53:00.000Z</time>
      </trkpt>
      <trkpt lat="47.49768" lon="6.66514">
        <ele>392</ele>
        <time>2015-11-15T07:53:01.000Z</time>
      </trkpt>
      <trkpt lat="47.49766" lon="6.66515">
        <ele>392</ele>
        <time>2015-11-15T07:53:02.000Z</time>
      </trkpt>
      <trkpt lat="47.49763" lon="6.66516">
        <ele>392</ele>
        <time>2015-11-15T07:53:03.000Z</time>
      </trkpt>
      <trkpt lat="47.4976" lon="6.66517">
        <ele>392</ele>
        <time>2015-11-15T07:53:04.000Z</time>
      </trkpt>
      <trkpt lat="47.49757" lon="6.66518">
        <ele>392</ele>
        <time>2015-11-15T07:53:05.000Z</time>
      </trkpt>
      <trkpt lat="47.49755" lon="6.66519">
        <ele>392</ele>
        <time>2015-11-15T07:53:06.000Z</time>
      </trkpt>
      <trkpt lat="47.49752" lon="6.6652">
        <ele>392</ele>
        <time>2015-11-15T07:53:07.000Z</time>
      </trkpt>
      <trkpt lat="47.49749" lon="6.6652">
        <ele>394</ele>
        <time>2015-11-15T07:53:08.001Z</time>
      </trkpt>
      <trkpt lat="47.49746" lon="6.66521">
        <ele>394</ele>
        <time>2015-11-15T07:53:09.000Z</time>
      </trkpt>
      <trkpt lat="47.49744" lon="6.66522">
        <ele>394</ele>
        <time>2015-11-15T07:53:10.000Z</time>
      </trkpt>
      <trkpt lat="47.49741" lon="6.66523">
        <ele>394</ele>
        <time>2015-11-15T07:53:11.000Z</time>
      </trkpt>
      <trkpt lat="47.49738" lon="6.66523">
        <ele>394</ele>
        <time>2015-11-15T07:53:11.998Z</time>
      </trkpt>
      <trkpt lat="47.49735" lon="6.66524">
        <ele>394</ele>
        <time>2015-11-15T07:53:13.000Z</time>
      </trkpt>
      <trkpt lat="47.49732" lon="6.66525">
        <ele>394</ele>
        <time>2015-11-15T07:53:14.000Z</time>
      </trkpt>
      <trkpt lat="47.49728" lon="6.66527">
        <ele>394</ele>
        <time>2015-11-15T07:53:15.000Z</time>
      </trkpt>
      <trkpt lat="47.49725" lon="6.66528">
        <ele>394</ele>
        <time>2015-11-15T07:53:16.000Z</time>
      </trkpt>
      <trkpt lat="47.49722" lon="6.6653">
        <ele>394</ele>
        <time>2015-11-15T07:53:17.000Z</time>
      </trkpt>
      <trkpt lat="47.49719" lon="6.66531">
        <ele>394</ele>
        <time>2015-11-15T07:53:18.001Z</time>
      </trkpt>
      <trkpt lat="47.49716" lon="6.66532">
        <ele>394</ele>
        <time>2015-11-15T07:53:19.000Z</time>
      </trkpt>
      <trkpt lat="47.49713" lon="6.66532">
        <ele>394</ele>
        <time>2015-11-15T07:53:20.000Z</time>
      </trkpt>
      <trkpt lat="47.49709" lon="6.66532">
        <ele>395</ele>
        <time>2015-11-15T07:53:21.000Z</time>
      </trkpt>
      <trkpt lat="47.49706" lon="6.66533">
        <ele>395</ele>
        <time>2015-11-15T07:53:22.000Z</time>
      </trkpt>
      <trkpt lat="47.49703" lon="6.66534">
        <ele>395</ele>
        <time>2015-11-15T07:53:23.000Z</time>
      </trkpt>
      <trkpt lat="47.497" lon="6.66535">
        <ele>395</ele>
        <time>2015-11-15T07:53:24.001Z</time>
      </trkpt>
      <trkpt lat="47.49697" lon="6.66536">
        <ele>395</ele>
        <time>2015-11-15T07:53:25.000Z</time>
      </trkpt>
      <trkpt lat="47.49694" lon="6.66537">
        <ele>395</ele>
        <time>2015-11-15T07:53:26.000Z</time>
      </trkpt>
      <trkpt lat="47.49691" lon="6.66538">
        <ele>395</ele>
        <time>2015-11-15T07:53:27.000Z</time>
      </trkpt>
      <trkpt lat="47.49689" lon="6.66538">
        <ele>395</ele>
        <time>2015-11-15T07:53:28.000Z</time>
      </trkpt>
      <trkpt lat="47.49686" lon="6.66539">
        <ele>395</ele>
        <time>2015-11-15T07:53:29.000Z</time>
      </trkpt>
      <trkpt lat="47.49684" lon="6.66539">
        <ele>395</ele>
        <time>2015-11-15T07:53:30.000Z</time>
      </trkpt>
      <trkpt lat="47.49681" lon="6.66539">
        <ele>395</ele>
        <time>2015-11-15T07:53:30.999Z</time>
      </trkpt>
      <trkpt lat="47.49677" lon="6.6654">
        <ele>395</ele>
        <time>2015-11-15T07:53:32.000Z</time>
      </trkpt>
      <trkpt lat="47.49674" lon="6.66541">
        <ele>395</ele>
        <time>2015-11-15T07:53:33.000Z</time>
      </trkpt>
      <trkpt lat="47.4967" lon="6.66542">
        <ele>395</ele>
        <time>2015-11-15T07:53:34.000Z</time>
      </trkpt>
      <trkpt lat="47.49667" lon="6.66543">
        <ele>395</ele>
        <time>2015-11-15T07:53:35.001Z</time>
      </trkpt>
      <trkpt lat="47.49664" lon="6.66544">
        <ele>398</ele>
        <time>2015-11-15T07:53:36.000Z</time>
      </trkpt>
      <trkpt lat="47.4966" lon="6.66546">
        <ele>398</ele>
        <time>2015-11-15T07:53:37.000Z</time>
      </trkpt>
      <trkpt lat="47.49657" lon="6.66547">
        <ele>398</ele>
        <time>2015-11-15T07:53:38.000Z</time>
      </trkpt>
      <trkpt lat="47.49654" lon="6.66549">
        <ele>398</ele>
        <time>2015-11-15T07:53:39.000Z</time>
      </trkpt>
      <trkpt lat="47.4965" lon="6.66551">
        <ele>398</ele>
        <time>2015-11-15T07:53:40.000Z</time>
      </trkpt>
      <trkpt lat="47.49647" lon="6.66553">
        <ele>398</ele>
        <time>2015-11-15T07:53:41.000Z</time>
      </trkpt>
      <trkpt lat="47.49644" lon="6.66554">
        <ele>398</ele>
        <time>2015-11-15T07:53:42.000Z</time>
      </trkpt>
      <trkpt lat="47.4964" lon="6.66555">
        <ele>398</ele>
        <time>2015-11-15T07:53:42.999Z</time>
      </trkpt>
      <trkpt lat="47.49637" lon="6.66557">
        <ele>398</ele>
        <time>2015-11-15T07:53:44.000Z</time>
      </trkpt>
      <trkpt lat="47.49634" lon="6.66558">
        <ele>399</ele>
        <time>2015-11-15T07:53:45.000Z</time>
      </trkpt>
      <trkpt lat="47.4963" lon="6.66559">
        <ele>399</ele>
        <time>2015-11-15T07:53:46.000Z</time>
      </trkpt>
      <trkpt lat="47.49627" lon="6.6656">
        <ele>399</ele>
        <time>2015-11-15T07:53:47.000Z</time>
      </trkpt>
      <trkpt lat="47.49623" lon="6.66561">
        <ele>399</ele>
        <time>2015-11-15T07:53:48.000Z</time>
      </trkpt>
      <trkpt lat="47.4962" lon="6.66563">
        <ele>399</ele>
        <time>2015-11-15T07:53:49.000Z</time>
      </trkpt>
      <trkpt lat="47.49616" lon="6.66564">
        <ele>399</ele>
        <time>2015-11-15T07:53:50.000Z</time>
      </trkpt>
      <trkpt lat="47.49612" lon="6.66565">
        <ele>399</ele>
        <time>2015-11-15T07:53:50.999Z</time>
      </trkpt>
      <trkpt lat="47.49609" lon="6.66565">
        <ele>399</ele>
        <time>2015-11-15T07:53:52.000Z</time>
      </trkpt>
      <trkpt lat="47.49605" lon="6.66566">
        <ele>399</ele>
        <time>2015-11-15T07:53:53.000Z</time>
      </trkpt>
      <trkpt lat="47.49601" lon="6.66566">
        <ele>399</ele>
        <time>2015-11-15T07:53:54.000Z</time>
      </trkpt>
      <trkpt lat="47.49597" lon="6.66567">
        <ele>399</ele>
        <time>2015-11-15T07:53:55.000Z</time>
      </trkpt>
      <trkpt lat="47.49594" lon="6.66567">
        <ele>399</ele>
        <time>2015-11-15T07:53:56.000Z</time>
      </trkpt>
      <trkpt lat="47.4959" lon="6.66567">
        <ele>399</ele>
        <time>2015-11-15T07:53:57.000Z</time>
      </trkpt>
      <trkpt lat="47.49586" lon="6.66568">
        <ele>399</ele>
        <time>2015-11-15T07:53:58.000Z</time>
      </trkpt>
      <trkpt lat="47.49582" lon="6.66568">
        <ele>401</ele>
        <time>2015-11-15T07:53:59.000Z</time>
      </trkpt>
      <trkpt lat="47.49578" lon="6.66569">
        <ele>401</ele>
        <time>2015-11-15T07:54:00.000Z</time>
      </trkpt>
      <trkpt lat="47.49575" lon="6.66569">
        <ele>401</ele>
        <time>2015-11-15T07:54:01.000Z</time>
      </trkpt>
      <trkpt lat="47.49572" lon="6.66569">
        <ele>401</ele>
        <time>2015-11-15T07:54:02.000Z</time>
      </trkpt>
      <trkpt lat="47.49568" lon="6.6657">
        <ele>401</ele>
        <time>2015-11-15T07:54:03.001Z</time>
      </trkpt>
      <trkpt lat="47.49565" lon="6.6657">
        <ele>402</ele>
        <time>2015-11-15T07:54:04.000Z</time>
      </trkpt>
      <trkpt lat="47.49562" lon="6.6657">
        <ele>402</ele>
        <time>2015-11-15T07:54:05.000Z</time>
      </trkpt>
      <trkpt lat="47.49558" lon="6.6657">
        <ele>402</ele>
        <time>2015-11-15T07:54:06.000Z</time>
      </trkpt>
      <trkpt lat="47.49555" lon="6.6657">
        <ele>402</ele>
        <time>2015-11-15T07:54:07.000Z</time>
      </trkpt>
      <trkpt lat="47.49552" lon="6.6657">
        <ele>402</ele>
        <time>2015-11-15T07:54:08.000Z</time>
      </trkpt>
      <trkpt lat="47.49549" lon="6.6657">
        <ele>402</ele>
        <time>2015-11-15T07:54:09.000Z</time>
      </trkpt>
      <trkpt lat="47.49546" lon="6.66569">
        <ele>403</ele>
        <time>2015-11-15T07:54:10.000Z</time>
      </trkpt>
      <trkpt lat="47.49542" lon="6.66569">
        <ele>403</ele>
        <time>2015-11-15T07:54:11.000Z</time>
      </trkpt>
      <trkpt lat="47.49539" lon="6.66569">
        <ele>403</ele>
        <time>2015-11-15T07:54:12.000Z</time>
      </trkpt>
      <trkpt lat="47.49535" lon="6.66569">
        <ele>403</ele>
        <time>2015-11-15T07:54:13.000Z</time>
      </trkpt>
      <trkpt lat="47.49532" lon="6.6657">
        <ele>403</ele>
        <time>2015-11-15T07:54:14.000Z</time>
      </trkpt>
      <trkpt lat="47.49528" lon="6.66571">
        <ele>403</ele>
        <time>2015-11-15T07:54:15.000Z</time>
      </trkpt>
      <trkpt lat="47.49524" lon="6.66572">
        <ele>403</ele>
        <time>2015-11-15T07:54:16.000Z</time>
      </trkpt>
      <trkpt lat="47.49521" lon="6.66572">
        <ele>403</ele>
        <time>2015-11-15T07:54:17.000Z</time>
      </trkpt>
      <trkpt lat="47.49518" lon="6.66572">
        <ele>403</ele>
        <time>2015-11-15T07:54:18.000Z</time>
      </trkpt>
      <trkpt lat="47.49514" lon="6.66572">
        <ele>403</ele>
        <time>2015-11-15T07:54:19.000Z</time>
      </trkpt>
      <trkpt lat="47.49511" lon="6.66572">
        <ele>402</ele>
        <time>2015-11-15T07:54:20.000Z</time>
      </trkpt>
      <trkpt lat="47.49508" lon="6.66572">
        <ele>402</ele>
        <time>2015-11-15T07:54:21.000Z</time>
      </trkpt>
      <trkpt lat="47.49505" lon="6.66572">
        <ele>402</ele>
        <time>2015-11-15T07:54:22.000Z</time>
      </trkpt>
      <trkpt lat="47.49502" lon="6.66572">
        <ele>402</ele>
        <time>2015-11-15T07:54:23.000Z</time>
      </trkpt>
      <trkpt lat="47.49499" lon="6.66572">
        <ele>403</ele>
        <time>2015-11-15T07:54:24.000Z</time>
      </trkpt>
      <trkpt lat="47.49496" lon="6.66573">
        <ele>403</ele>
        <time>2015-11-15T07:54:25.000Z</time>
      </trkpt>
      <trkpt lat="47.49492" lon="6.66573">
        <ele>404</ele>
        <time>2015-11-15T07:54:26.000Z</time>
      </trkpt>
      <trkpt lat="47.49489" lon="6.66574">
        <ele>404</ele>
        <time>2015-11-15T07:54:27.000Z</time>
      </trkpt>
      <trkpt lat="47.49485" lon="6.66575">
        <ele>404</ele>
        <time>2015-11-15T07:54:28.000Z</time>
      </trkpt>
      <trkpt lat="47.49482" lon="6.66576">
        <ele>404</ele>
        <time>2015-11-15T07:54:29.000Z</time>
      </trkpt>
      <trkpt lat="47.49478" lon="6.66577">
        <ele>405</ele>
        <time>2015-11-15T07:54:30.000Z</time>
      </trkpt>
      <trkpt lat="47.49475" lon="6.66579">
        <ele>405</ele>
        <time>2015-11-15T07:54:31.000Z</time>
      </trkpt>
      <trkpt lat="47.49471" lon="6.6658">
        <ele>405</ele>
        <time>2015-11-15T07:54:32.000Z</time>
      </trkpt>
      <trkpt lat="47.49467" lon="6.66582">
        <ele>405</ele>
        <time>2015-11-15T07:54:33.000Z</time>
      </trkpt>
      <trkpt lat="47.49463" lon="6.66584">
        <ele>401</ele>
        <time>2015-11-15T07:54:34.000Z</time>
      </trkpt>
      <trkpt lat="47.49459" lon="6.66586">
        <ele>401</ele>
        <time>2015-11-15T07:54:35.000Z</time>
      </trkpt>
      <trkpt lat="47.49454" lon="6.66587">
        <ele>401</ele>
        <time>2015-11-15T07:54:36.000Z</time>
      </trkpt>
      <trkpt lat="47.4945" lon="6.66589">
        <ele>401</ele>
        <time>2015-11-15T07:54:37.000Z</time>
      </trkpt>
      <trkpt lat="47.49446" lon="6.66592">
        <ele>401</ele>
        <time>2015-11-15T07:54:38.000Z</time>
      </trkpt>
      <trkpt lat="47.49442" lon="6.66596">
        <ele>401</ele>
        <time>2015-11-15T07:54:39.000Z</time>
      </trkpt>
      <trkpt lat="47.49438" lon="6.666">
        <ele>401</ele>
        <time>2015-11-15T07:54:40.000Z</time>
      </trkpt>
      <trkpt lat="47.49433" lon="6.66604">
        <ele>401</ele>
        <time>2015-11-15T07:54:41.000Z</time>
      </trkpt>
      <trkpt lat="47.49428" lon="6.66608">
        <ele>401</ele>
        <time>2015-11-15T07:54:42.000Z</time>
      </trkpt>
      <trkpt lat="47.49423" lon="6.66611">
        <ele>401</ele>
        <time>2015-11-15T07:54:43.000Z</time>
      </trkpt>
      <trkpt lat="47.4942" lon="6.66615">
        <ele>401</ele>
        <time>2015-11-15T07:54:44.000Z</time>
      </trkpt>
      <trkpt lat="47.49416" lon="6.66619">
        <ele>404</ele>
        <time>2015-11-15T07:54:45.000Z</time>
      </trkpt>
      <trkpt lat="47.49411" lon="6.66624">
        <ele>404</ele>
        <time>2015-11-15T07:54:46.000Z</time>
      </trkpt>
      <trkpt lat="47.49407" lon="6.66629">
        <ele>403</ele>
        <time>2015-11-15T07:54:47.000Z</time>
      </trkpt>
      <trkpt lat="47.49403" lon="6.66634">
        <ele>403</ele>
        <time>2015-11-15T07:54:48.000Z</time>
      </trkpt>
      <trkpt lat="47.494" lon="6.66639">
        <ele>403</ele>
        <time>2015-11-15T07:54:49.000Z</time>
      </trkpt>
      <trkpt lat="47.49396" lon="6.66643">
        <ele>403</ele>
        <time>2015-11-15T07:54:50.000Z</time>
      </trkpt>
      <trkpt lat="47.49392" lon="6.66646">
        <ele>403</ele>
        <time>2015-11-15T07:54:51.000Z</time>
      </trkpt>
      <trkpt lat="47.49388" lon="6.6665">
        <ele>403</ele>
        <time>2015-11-15T07:54:52.000Z</time>
      </trkpt>
      <trkpt lat="47.49385" lon="6.66654">
        <ele>403</ele>
        <time>2015-11-15T07:54:53.000Z</time>
      </trkpt>
      <trkpt lat="47.49381" lon="6.66657">
        <ele>403</ele>
        <time>2015-11-15T07:54:54.000Z</time>
      </trkpt>
      <trkpt lat="47.49377" lon="6.66661">
        <ele>403</ele>
        <time>2015-11-15T07:54:55.000Z</time>
      </trkpt>
      <trkpt lat="47.49374" lon="6.66665">
        <ele>404</ele>
        <time>2015-11-15T07:54:56.000Z</time>
      </trkpt>
      <trkpt lat="47.4937" lon="6.66668">
        <ele>399</ele>
        <time>2015-11-15T07:54:57.000Z</time>
      </trkpt>
      <trkpt lat="47.49366" lon="6.66672">
        <ele>399</ele>
        <time>2015-11-15T07:54:58.000Z</time>
      </trkpt>
      <trkpt lat="47.49361" lon="6.66674">
        <ele>400</ele>
        <time>2015-11-15T07:54:59.000Z</time>
      </trkpt>
      <trkpt lat="47.49358" lon="6.66675">
        <ele>400</ele>
        <time>2015-11-15T07:55:00.000Z</time>
      </trkpt>
      <trkpt lat="47.49354" lon="6.66676">
        <ele>400</ele>
        <time>2015-11-15T07:55:01.000Z</time>
      </trkpt>
      <trkpt lat="47.49349" lon="6.66676">
        <ele>401</ele>
        <time>2015-11-15T07:55:02.000Z</time>
      </trkpt>
      <trkpt lat="47.49345" lon="6.66676">
        <ele>401</ele>
        <time>2015-11-15T07:55:03.000Z</time>
      </trkpt>
      <trkpt lat="47.49342" lon="6.66677">
        <ele>402</ele>
        <time>2015-11-15T07:55:04.000Z</time>
      </trkpt>
      <trkpt lat="47.49338" lon="6.66679">
        <ele>402</ele>
        <time>2015-11-15T07:55:05.000Z</time>
      </trkpt>
      <trkpt lat="47.49334" lon="6.66681">
        <ele>402</ele>
        <time>2015-11-15T07:55:06.000Z</time>
      </trkpt>
      <trkpt lat="47.49332" lon="6.66693">
        <ele>401</ele>
        <time>2015-11-15T07:55:07.000Z</time>
      </trkpt>
      <trkpt lat="47.49327" lon="6.667">
        <ele>401</ele>
        <time>2015-11-15T07:55:08.000Z</time>
      </trkpt>
      <trkpt lat="47.4932" lon="6.66705">
        <ele>400</ele>
        <time>2015-11-15T07:55:09.000Z</time>
      </trkpt>
      <trkpt lat="47.49314" lon="6.66707">
        <ele>400</ele>
        <time>2015-11-15T07:55:10.000Z</time>
      </trkpt>
      <trkpt lat="47.49308" lon="6.66709">
        <ele>400</ele>
        <time>2015-11-15T07:55:11.000Z</time>
      </trkpt>
      <trkpt lat="47.49304" lon="6.66711">
        <ele>400</ele>
        <time>2015-11-15T07:55:12.000Z</time>
      </trkpt>
      <trkpt lat="47.49301" lon="6.66715">
        <ele>399</ele>
        <time>2015-11-15T07:55:13.000Z</time>
      </trkpt>
      <trkpt lat="47.49293" lon="6.66716">
        <ele>399</ele>
        <time>2015-11-15T07:55:14.000Z</time>
      </trkpt>
      <trkpt lat="47.49287" lon="6.66717">
        <ele>399</ele>
        <time>2015-11-15T07:55:15.000Z</time>
      </trkpt>
      <trkpt lat="47.49281" lon="6.66719">
        <ele>399</ele>
        <time>2015-11-15T07:55:16.000Z</time>
      </trkpt>
      <trkpt lat="47.49275" lon="6.66722">
        <ele>399</ele>
        <time>2015-11-15T07:55:17.000Z</time>
      </trkpt>
      <trkpt lat="47.49269" lon="6.66725">
        <ele>399</ele>
        <time>2015-11-15T07:55:18.000Z</time>
      </trkpt>
      <trkpt lat="47.49263" lon="6.66728">
        <ele>398</ele>
        <time>2015-11-15T07:55:19.000Z</time>
      </trkpt>
      <trkpt lat="47.49256" lon="6.66732">
        <ele>398</ele>
        <time>2015-11-15T07:55:20.000Z</time>
      </trkpt>
      <trkpt lat="47.49249" lon="6.66737">
        <ele>397</ele>
        <time>2015-11-15T07:55:21.000Z</time>
      </trkpt>
      <trkpt lat="47.49242" lon="6.66741">
        <ele>397</ele>
        <time>2015-11-15T07:55:22.000Z</time>
      </trkpt>
      <trkpt lat="47.49234" lon="6.66747">
        <ele>397</ele>
        <time>2015-11-15T07:55:23.000Z</time>
      </trkpt>
      <trkpt lat="47.49227" lon="6.66751">
        <ele>392</ele>
        <time>2015-11-15T07:55:24.000Z</time>
      </trkpt>
      <trkpt lat="47.49219" lon="6.66755">
        <ele>392</ele>
        <time>2015-11-15T07:55:25.000Z</time>
      </trkpt>
      <trkpt lat="47.49212" lon="6.6676">
        <ele>392</ele>
        <time>2015-11-15T07:55:26.000Z</time>
      </trkpt>
      <trkpt lat="47.49204" lon="6.66763">
        <ele>392</ele>
        <time>2015-11-15T07:55:27.000Z</time>
      </trkpt>
      <trkpt lat="47.49196" lon="6.66768">
        <ele>392</ele>
        <time>2015-11-15T07:55:28.000Z</time>
      </trkpt>
      <trkpt lat="47.49188" lon="6.66772">
        <ele>392</ele>
        <time>2015-11-15T07:55:29.000Z</time>
      </trkpt>
      <trkpt lat="47.49179" lon="6.66776">
        <ele>391</ele>
        <time>2015-11-15T07:55:30.000Z</time>
      </trkpt>
      <trkpt lat="47.49171" lon="6.6678">
        <ele>391</ele>
        <time>2015-11-15T07:55:31.000Z</time>
      </trkpt>
      <trkpt lat="47.49163" lon="6.66783">
        <ele>391</ele>
        <time>2015-11-15T07:55:32.000Z</time>
      </trkpt>
      <trkpt lat="47.49155" lon="6.66787">
        <ele>390</ele>
        <time>2015-11-15T07:55:33.000Z</time>
      </trkpt>
      <trkpt lat="47.49147" lon="6.6679">
        <ele>390</ele>
        <time>2015-11-15T07:55:34.000Z</time>
      </trkpt>
      <trkpt lat="47.49139" lon="6.66793">
        <ele>390</ele>
        <time>2015-11-15T07:55:35.000Z</time>
      </trkpt>
      <trkpt lat="47.49132" lon="6.66798">
        <ele>389</ele>
        <time>2015-11-15T07:55:36.000Z</time>
      </trkpt>
      <trkpt lat="47.49126" lon="6.66802">
        <ele>389</ele>
        <time>2015-11-15T07:55:37.000Z</time>
      </trkpt>
      <trkpt lat="47.49119" lon="6.66808">
        <ele>389</ele>
        <time>2015-11-15T07:55:38.000Z</time>
      </trkpt>
      <trkpt lat="47.49112" lon="6.66817">
        <ele>388</ele>
        <time>2015-11-15T07:55:39.000Z</time>
      </trkpt>
      <trkpt lat="47.49105" lon="6.66825">
        <ele>388</ele>
        <time>2015-11-15T07:55:40.000Z</time>
      </trkpt>
      <trkpt lat="47.49098" lon="6.66833">
        <ele>387</ele>
        <time>2015-11-15T07:55:41.000Z</time>
      </trkpt>
      <trkpt lat="47.4909" lon="6.66842">
        <ele>384</ele>
        <time>2015-11-15T07:55:42.000Z</time>
      </trkpt>
      <trkpt lat="47.49081" lon="6.6685">
        <ele>383</ele>
        <time>2015-11-15T07:55:43.000Z</time>
      </trkpt>
      <trkpt lat="47.49072" lon="6.66857">
        <ele>382</ele>
        <time>2015-11-15T07:55:44.000Z</time>
      </trkpt>
      <trkpt lat="47.49062" lon="6.66864">
        <ele>381</ele>
        <time>2015-11-15T07:55:45.000Z</time>
      </trkpt>
      <trkpt lat="47.49053" lon="6.66867">
        <ele>381</ele>
        <time>2015-11-15T07:55:46.000Z</time>
      </trkpt>
      <trkpt lat="47.49046" lon="6.6687">
        <ele>381</ele>
        <time>2015-11-15T07:55:47.000Z</time>
      </trkpt>
      <trkpt lat="47.49041" lon="6.66873">
        <ele>381</ele>
        <time>2015-11-15T07:55:48.000Z</time>
      </trkpt>
      <trkpt lat="47.49038" lon="6.66876">
        <ele>381</ele>
        <time>2015-11-15T07:55:49.000Z</time>
      </trkpt>
      <trkpt lat="47.49037" lon="6.66882">
        <ele>381</ele>
        <time>2015-11-15T07:55:50.000Z</time>
      </trkpt>
      <trkpt lat="47.49039" lon="6.66889">
        <ele>380</ele>
        <time>2015-11-15T07:55:51.000Z</time>
      </trkpt>
      <trkpt lat="47.49041" lon="6.66895">
        <ele>380</ele>
        <time>2015-11-15T07:55:52.000Z</time>
      </trkpt>
      <trkpt lat="47.49046" lon="6.66901">
        <ele>380</ele>
        <time>2015-11-15T07:55:53.000Z</time>
      </trkpt>
      <trkpt lat="47.49052" lon="6.66909">
        <ele>380</ele>
        <time>2015-11-15T07:55:54.000Z</time>
      </trkpt>
      <trkpt lat="47.49057" lon="6.66917">
        <ele>377</ele>
        <time>2015-11-15T07:55:55.000Z</time>
      </trkpt>
      <trkpt lat="47.49064" lon="6.66925">
        <ele>377</ele>
        <time>2015-11-15T07:55:56.000Z</time>
      </trkpt>
      <trkpt lat="47.4907" lon="6.66932">
        <ele>376</ele>
        <time>2015-11-15T07:55:57.000Z</time>
      </trkpt>
      <trkpt lat="47.49076" lon="6.6694">
        <ele>376</ele>
        <time>2015-11-15T07:55:58.000Z</time>
      </trkpt>
      <trkpt lat="47.49083" lon="6.66949">
        <ele>375</ele>
        <time>2015-11-15T07:55:59.000Z</time>
      </trkpt>
      <trkpt lat="47.49088" lon="6.66959">
        <ele>374</ele>
        <time>2015-11-15T07:56:00.000Z</time>
      </trkpt>
      <trkpt lat="47.49091" lon="6.66971">
        <ele>374</ele>
        <time>2015-11-15T07:56:01.000Z</time>
      </trkpt>
      <trkpt lat="47.49094" lon="6.66984">
        <ele>373</ele>
        <time>2015-11-15T07:56:02.000Z</time>
      </trkpt>
      <trkpt lat="47.49096" lon="6.66997">
        <ele>373</ele>
        <time>2015-11-15T07:56:03.000Z</time>
      </trkpt>
      <trkpt lat="47.49099" lon="6.6701">
        <ele>370</ele>
        <time>2015-11-15T07:56:04.000Z</time>
      </trkpt>
      <trkpt lat="47.49102" lon="6.67023">
        <ele>370</ele>
        <time>2015-11-15T07:56:05.000Z</time>
      </trkpt>
      <trkpt lat="47.49105" lon="6.67036">
        <ele>369</ele>
        <time>2015-11-15T07:56:06.000Z</time>
      </trkpt>
      <trkpt lat="47.49107" lon="6.67049">
        <ele>369</ele>
        <time>2015-11-15T07:56:07.000Z</time>
      </trkpt>
      <trkpt lat="47.4911" lon="6.67062">
        <ele>368</ele>
        <time>2015-11-15T07:56:08.000Z</time>
      </trkpt>
      <trkpt lat="47.49111" lon="6.67075">
        <ele>368</ele>
        <time>2015-11-15T07:56:09.000Z</time>
      </trkpt>
      <trkpt lat="47.49111" lon="6.67088">
        <ele>365</ele>
        <time>2015-11-15T07:56:10.000Z</time>
      </trkpt>
      <trkpt lat="47.49112" lon="6.671">
        <ele>365</ele>
        <time>2015-11-15T07:56:11.000Z</time>
      </trkpt>
      <trkpt lat="47.49113" lon="6.67113">
        <ele>364</ele>
        <time>2015-11-15T07:56:12.000Z</time>
      </trkpt>
      <trkpt lat="47.49114" lon="6.67127">
        <ele>364</ele>
        <time>2015-11-15T07:56:13.000Z</time>
      </trkpt>
      <trkpt lat="47.49114" lon="6.67141">
        <ele>363</ele>
        <time>2015-11-15T07:56:14.000Z</time>
      </trkpt>
      <trkpt lat="47.49115" lon="6.67155">
        <ele>363</ele>
        <time>2015-11-15T07:56:15.000Z</time>
      </trkpt>
      <trkpt lat="47.49115" lon="6.6717">
        <ele>360</ele>
        <time>2015-11-15T07:56:16.000Z</time>
      </trkpt>
      <trkpt lat="47.49114" lon="6.67184">
        <ele>360</ele>
        <time>2015-11-15T07:56:17.000Z</time>
      </trkpt>
      <trkpt lat="47.49114" lon="6.67199">
        <ele>360</ele>
        <time>2015-11-15T07:56:18.000Z</time>
      </trkpt>
      <trkpt lat="47.49115" lon="6.67213">
        <ele>359</ele>
        <time>2015-11-15T07:56:19.000Z</time>
      </trkpt>
      <trkpt lat="47.49113" lon="6.67228">
        <ele>359</ele>
        <time>2015-11-15T07:56:20.000Z</time>
      </trkpt>
      <trkpt lat="47.49109" lon="6.67241">
        <ele>358</ele>
        <time>2015-11-15T07:56:21.000Z</time>
      </trkpt>
      <trkpt lat="47.49106" lon="6.67254">
        <ele>356</ele>
        <time>2015-11-15T07:56:22.000Z</time>
      </trkpt>
      <trkpt lat="47.49102" lon="6.67266">
        <ele>356</ele>
        <time>2015-11-15T07:56:23.000Z</time>
      </trkpt>
      <trkpt lat="47.49099" lon="6.67279">
        <ele>356</ele>
        <time>2015-11-15T07:56:24.000Z</time>
      </trkpt>
      <trkpt lat="47.49096" lon="6.67292">
        <ele>356</ele>
        <time>2015-11-15T07:56:25.000Z</time>
      </trkpt>
      <trkpt lat="47.49093" lon="6.67305">
        <ele>356</ele>
        <time>2015-11-15T07:56:26.000Z</time>
      </trkpt>
      <trkpt lat="47.4909" lon="6.67319">
        <ele>355</ele>
        <time>2015-11-15T07:56:27.000Z</time>
      </trkpt>
      <trkpt lat="47.49088" lon="6.67333">
        <ele>354</ele>
        <time>2015-11-15T07:56:28.000Z</time>
      </trkpt>
      <trkpt lat="47.49086" lon="6.67347">
        <ele>355</ele>
        <time>2015-11-15T07:56:29.000Z</time>
      </trkpt>
      <trkpt lat="47.49082" lon="6.6736">
        <ele>355</ele>
        <time>2015-11-15T07:56:30.000Z</time>
      </trkpt>
      <trkpt lat="47.49079" lon="6.67372">
        <ele>355</ele>
        <time>2015-11-15T07:56:31.000Z</time>
      </trkpt>
      <trkpt lat="47.49077" lon="6.67385">
        <ele>356</ele>
        <time>2015-11-15T07:56:32.000Z</time>
      </trkpt>
      <trkpt lat="47.49075" lon="6.67397">
        <ele>356</ele>
        <time>2015-11-15T07:56:33.000Z</time>
      </trkpt>
      <trkpt lat="47.49072" lon="6.6741">
        <ele>356</ele>
        <time>2015-11-15T07:56:34.000Z</time>
      </trkpt>
      <trkpt lat="47.49069" lon="6.67422">
        <ele>357</ele>
        <time>2015-11-15T07:56:35.000Z</time>
      </trkpt>
      <trkpt lat="47.49068" lon="6.67434">
        <ele>358</ele>
        <time>2015-11-15T07:56:36.000Z</time>
      </trkpt>
      <trkpt lat="47.49066" lon="6.67445">
        <ele>358</ele>
        <time>2015-11-15T07:56:37.000Z</time>
      </trkpt>
      <trkpt lat="47.49064" lon="6.67456">
        <ele>359</ele>
        <time>2015-11-15T07:56:38.000Z</time>
      </trkpt>
      <trkpt lat="47.49064" lon="6.67466">
        <ele>359</ele>
        <time>2015-11-15T07:56:39.000Z</time>
      </trkpt>
      <trkpt lat="47.49064" lon="6.67475">
        <ele>359</ele>
        <time>2015-11-15T07:56:40.000Z</time>
      </trkpt>
      <trkpt lat="47.49067" lon="6.67483">
        <ele>359</ele>
        <time>2015-11-15T07:56:41.000Z</time>
      </trkpt>
      <trkpt lat="47.49071" lon="6.67489">
        <ele>360</ele>
        <time>2015-11-15T07:56:42.000Z</time>
      </trkpt>
      <trkpt lat="47.49074" lon="6.67494">
        <ele>360</ele>
        <time>2015-11-15T07:56:43.000Z</time>
      </trkpt>
      <trkpt lat="47.49077" lon="6.67499">
        <ele>360</ele>
        <time>2015-11-15T07:56:44.000Z</time>
      </trkpt>
      <trkpt lat="47.49081" lon="6.67502">
        <ele>360</ele>
        <time>2015-11-15T07:56:45.000Z</time>
      </trkpt>
      <trkpt lat="47.49085" lon="6.67506">
        <ele>360</ele>
        <time>2015-11-15T07:56:46.000Z</time>
      </trkpt>
      <trkpt lat="47.49089" lon="6.67509">
        <ele>360</ele>
        <time>2015-11-15T07:56:47.000Z</time>
      </trkpt>
      <trkpt lat="47.49093" lon="6.67513">
        <ele>360</ele>
        <time>2015-11-15T07:56:48.000Z</time>
      </trkpt>
      <trkpt lat="47.49096" lon="6.67518">
        <ele>360</ele>
        <time>2015-11-15T07:56:49.000Z</time>
      </trkpt>
      <trkpt lat="47.49099" lon="6.67524">
        <ele>360</ele>
        <time>2015-11-15T07:56:50.000Z</time>
      </trkpt>
      <trkpt lat="47.491" lon="6.6753">
        <ele>361</ele>
        <time>2015-11-15T07:56:51.000Z</time>
      </trkpt>
      <trkpt lat="47.49102" lon="6.67537">
        <ele>361</ele>
        <time>2015-11-15T07:56:52.000Z</time>
      </trkpt>
      <trkpt lat="47.49103" lon="6.67543">
        <ele>361</ele>
        <time>2015-11-15T07:56:53.000Z</time>
      </trkpt>
      <trkpt lat="47.49102" lon="6.6755">
        <ele>361</ele>
        <time>2015-11-15T07:56:54.000Z</time>
      </trkpt>
      <trkpt lat="47.49103" lon="6.67556">
        <ele>361</ele>
        <time>2015-11-15T07:56:55.000Z</time>
      </trkpt>
      <trkpt lat="47.49103" lon="6.67562">
        <ele>361</ele>
        <time>2015-11-15T07:56:56.000Z</time>
      </trkpt>
      <trkpt lat="47.49103" lon="6.67568">
        <ele>361</ele>
        <time>2015-11-15T07:56:57.000Z</time>
      </trkpt>
      <trkpt lat="47.49102" lon="6.67573">
        <ele>362</ele>
        <time>2015-11-15T07:56:58.000Z</time>
      </trkpt>
      <trkpt lat="47.49102" lon="6.67579">
        <ele>362</ele>
        <time>2015-11-15T07:56:59.000Z</time>
      </trkpt>
      <trkpt lat="47.49102" lon="6.67585">
        <ele>362</ele>
        <time>2015-11-15T07:57:00.000Z</time>
      </trkpt>
      <trkpt lat="47.49102" lon="6.67591">
        <ele>362</ele>
        <time>2015-11-15T07:57:01.000Z</time>
      </trkpt>
      <trkpt lat="47.49103" lon="6.67597">
        <ele>362</ele>
        <time>2015-11-15T07:57:02.000Z</time>
      </trkpt>
      <trkpt lat="47.49104" lon="6.67604">
        <ele>361</ele>
        <time>2015-11-15T07:57:03.000Z</time>
      </trkpt>
      <trkpt lat="47.49104" lon="6.67612">
        <ele>361</ele>
        <time>2015-11-15T07:57:04.000Z</time>
      </trkpt>
      <trkpt lat="47.49105" lon="6.67619">
        <ele>361</ele>
        <time>2015-11-15T07:57:05.000Z</time>
      </trkpt>
      <trkpt lat="47.49105" lon="6.67629">
        <ele>361</ele>
        <time>2015-11-15T07:57:06.000Z</time>
      </trkpt>
      <trkpt lat="47.49105" lon="6.67637">
        <ele>361</ele>
        <time>2015-11-15T07:57:07.000Z</time>
      </trkpt>
      <trkpt lat="47.49104" lon="6.67646">
        <ele>361</ele>
        <time>2015-11-15T07:57:08.000Z</time>
      </trkpt>
      <trkpt lat="47.49104" lon="6.67655">
        <ele>361</ele>
        <time>2015-11-15T07:57:09.000Z</time>
      </trkpt>
      <trkpt lat="47.49104" lon="6.67665">
        <ele>361</ele>
        <time>2015-11-15T07:57:10.000Z</time>
      </trkpt>
      <trkpt lat="47.49103" lon="6.67674">
        <ele>360</ele>
        <time>2015-11-15T07:57:11.000Z</time>
      </trkpt>
      <trkpt lat="47.49102" lon="6.67685">
        <ele>359</ele>
        <time>2015-11-15T07:57:12.000Z</time>
      </trkpt>
      <trkpt lat="47.49102" lon="6.67694">
        <ele>359</ele>
        <time>2015-11-15T07:57:13.000Z</time>
      </trkpt>
      <trkpt lat="47.49101" lon="6.67705">
        <ele>358</ele>
        <time>2015-11-15T07:57:14.000Z</time>
      </trkpt>
      <trkpt lat="47.491" lon="6.67715">
        <ele>358</ele>
        <time>2015-11-15T07:57:15.000Z</time>
      </trkpt>
      <trkpt lat="47.49098" lon="6.67726">
        <ele>358</ele>
        <time>2015-11-15T07:57:16.000Z</time>
      </trkpt>
      <trkpt lat="47.49094" lon="6.67736">
        <ele>357</ele>
        <time>2015-11-15T07:57:17.000Z</time>
      </trkpt>
      <trkpt lat="47.49089" lon="6.67745">
        <ele>357</ele>
        <time>2015-11-15T07:57:18.000Z</time>
      </trkpt>
      <trkpt lat="47.49085" lon="6.67755">
        <ele>356</ele>
        <time>2015-11-15T07:57:19.000Z</time>
      </trkpt>
      <trkpt lat="47.4908" lon="6.67764">
        <ele>358</ele>
        <time>2015-11-15T07:57:20.000Z</time>
      </trkpt>
      <trkpt lat="47.49075" lon="6.67774">
        <ele>358</ele>
        <time>2015-11-15T07:57:21.000Z</time>
      </trkpt>
      <trkpt lat="47.4907" lon="6.67784">
        <ele>358</ele>
        <time>2015-11-15T07:57:22.000Z</time>
      </trkpt>
      <trkpt lat="47.49065" lon="6.67794">
        <ele>358</ele>
        <time>2015-11-15T07:57:23.000Z</time>
      </trkpt>
      <trkpt lat="47.4906" lon="6.67803">
        <ele>358</ele>
        <time>2015-11-15T07:57:24.000Z</time>
      </trkpt>
      <trkpt lat="47.49055" lon="6.67813">
        <ele>358</ele>
        <time>2015-11-15T07:57:25.000Z</time>
      </trkpt>
      <trkpt lat="47.4905" lon="6.67822">
        <ele>358</ele>
        <time>2015-11-15T07:57:26.000Z</time>
      </trkpt>
      <trkpt lat="47.49046" lon="6.6783">
        <ele>358</ele>
        <time>2015-11-15T07:57:27.000Z</time>
      </trkpt>
      <trkpt lat="47.49042" lon="6.67838">
        <ele>356</ele>
        <time>2015-11-15T07:57:28.000Z</time>
      </trkpt>
      <trkpt lat="47.49038" lon="6.67846">
        <ele>356</ele>
        <time>2015-11-15T07:57:29.000Z</time>
      </trkpt>
      <trkpt lat="47.49033" lon="6.67854">
        <ele>357</ele>
        <time>2015-11-15T07:57:30.000Z</time>
      </trkpt>
      <trkpt lat="47.49029" lon="6.67862">
        <ele>357</ele>
        <time>2015-11-15T07:57:31.000Z</time>
      </trkpt>
      <trkpt lat="47.49025" lon="6.6787">
        <ele>357</ele>
        <time>2015-11-15T07:57:32.000Z</time>
      </trkpt>
      <trkpt lat="47.4902" lon="6.67878">
        <ele>357</ele>
        <time>2015-11-15T07:57:33.000Z</time>
      </trkpt>
      <trkpt lat="47.49016" lon="6.67886">
        <ele>356</ele>
        <time>2015-11-15T07:57:34.000Z</time>
      </trkpt>
      <trkpt lat="47.49013" lon="6.67893">
        <ele>357</ele>
        <time>2015-11-15T07:57:35.000Z</time>
      </trkpt>
      <trkpt lat="47.49008" lon="6.67901">
        <ele>357</ele>
        <time>2015-11-15T07:57:36.000Z</time>
      </trkpt>
      <trkpt lat="47.49006" lon="6.6791">
        <ele>357</ele>
        <time>2015-11-15T07:57:37.000Z</time>
      </trkpt>
      <trkpt lat="47.49002" lon="6.67917">
        <ele>358</ele>
        <time>2015-11-15T07:57:38.000Z</time>
      </trkpt>
      <trkpt lat="47.48995" lon="6.67923">
        <ele>359</ele>
        <time>2015-11-15T07:57:39.000Z</time>
      </trkpt>
      <trkpt lat="47.48991" lon="6.67931">
        <ele>360</ele>
        <time>2015-11-15T07:57:40.000Z</time>
      </trkpt>
      <trkpt lat="47.48987" lon="6.67938">
        <ele>361</ele>
        <time>2015-11-15T07:57:41.000Z</time>
      </trkpt>
      <trkpt lat="47.48984" lon="6.67945">
        <ele>361</ele>
        <time>2015-11-15T07:57:42.000Z</time>
      </trkpt>
      <trkpt lat="47.4898" lon="6.6795">
        <ele>361</ele>
        <time>2015-11-15T07:57:43.000Z</time>
      </trkpt>
      <trkpt lat="47.48977" lon="6.67957">
        <ele>361</ele>
        <time>2015-11-15T07:57:44.000Z</time>
      </trkpt>
      <trkpt lat="47.48972" lon="6.67962">
        <ele>361</ele>
        <time>2015-11-15T07:57:45.000Z</time>
      </trkpt>
      <trkpt lat="47.4897" lon="6.67968">
        <ele>361</ele>
        <time>2015-11-15T07:57:46.000Z</time>
      </trkpt>
      <trkpt lat="47.48966" lon="6.67973">
        <ele>361</ele>
        <time>2015-11-15T07:57:47.000Z</time>
      </trkpt>
      <trkpt lat="47.48963" lon="6.67978">
        <ele>362</ele>
        <time>2015-11-15T07:57:48.000Z</time>
      </trkpt>
      <trkpt lat="47.4896" lon="6.67981">
        <ele>362</ele>
        <time>2015-11-15T07:57:49.000Z</time>
      </trkpt>
      <trkpt lat="47.48958" lon="6.67987">
        <ele>362</ele>
        <time>2015-11-15T07:57:50.000Z</time>
      </trkpt>
      <trkpt lat="47.48955" lon="6.67991">
        <ele>362</ele>
        <time>2015-11-15T07:57:51.000Z</time>
      </trkpt>
      <trkpt lat="47.48952" lon="6.67997">
        <ele>362</ele>
        <time>2015-11-15T07:57:52.000Z</time>
      </trkpt>
      <trkpt lat="47.4895" lon="6.68004">
        <ele>361</ele>
        <time>2015-11-15T07:57:53.000Z</time>
      </trkpt>
      <trkpt lat="47.48946" lon="6.68011">
        <ele>361</ele>
        <time>2015-11-15T07:57:54.000Z</time>
      </trkpt>
      <trkpt lat="47.48943" lon="6.68018">
        <ele>361</ele>
        <time>2015-11-15T07:57:55.000Z</time>
      </trkpt>
      <trkpt lat="47.4894" lon="6.68026">
        <ele>361</ele>
        <time>2015-11-15T07:57:56.000Z</time>
      </trkpt>
      <trkpt lat="47.48935" lon="6.68035">
        <ele>361</ele>
        <time>2015-11-15T07:57:57.000Z</time>
      </trkpt>
      <trkpt lat="47.48931" lon="6.68043">
        <ele>361</ele>
        <time>2015-11-15T07:57:58.000Z</time>
      </trkpt>
      <trkpt lat="47.48928" lon="6.68051">
        <ele>361</ele>
        <time>2015-11-15T07:57:59.000Z</time>
      </trkpt>
      <trkpt lat="47.48927" lon="6.68058">
        <ele>361</ele>
        <time>2015-11-15T07:58:00.000Z</time>
      </trkpt>
      <trkpt lat="47.48924" lon="6.68064">
        <ele>361</ele>
        <time>2015-11-15T07:58:01.000Z</time>
      </trkpt>
      <trkpt lat="47.4892" lon="6.6807">
        <ele>361</ele>
        <time>2015-11-15T07:58:02.000Z</time>
      </trkpt>
      <trkpt lat="47.48918" lon="6.68077">
        <ele>362</ele>
        <time>2015-11-15T07:58:03.000Z</time>
      </trkpt>
      <trkpt lat="47.48915" lon="6.68083">
        <ele>362</ele>
        <time>2015-11-15T07:58:04.000Z</time>
      </trkpt>
      <trkpt lat="47.48913" lon="6.68089">
        <ele>362</ele>
        <time>2015-11-15T07:58:05.000Z</time>
      </trkpt>
      <trkpt lat="47.48911" lon="6.68094">
        <ele>362</ele>
        <time>2015-11-15T07:58:06.000Z</time>
      </trkpt>
      <trkpt lat="47.48909" lon="6.681">
        <ele>362</ele>
        <time>2015-11-15T07:58:07.000Z</time>
      </trkpt>
      <trkpt lat="47.48907" lon="6.68105">
        <ele>362</ele>
        <time>2015-11-15T07:58:08.000Z</time>
      </trkpt>
      <trkpt lat="47.48905" lon="6.68111">
        <ele>362</ele>
        <time>2015-11-15T07:58:09.000Z</time>
      </trkpt>
      <trkpt lat="47.48902" lon="6.68117">
        <ele>362</ele>
        <time>2015-11-15T07:58:10.000Z</time>
      </trkpt>
      <trkpt lat="47.48899" lon="6.68122">
        <ele>362</ele>
        <time>2015-11-15T07:58:11.000Z</time>
      </trkpt>
      <trkpt lat="47.48897" lon="6.68128">
        <ele>362</ele>
        <time>2015-11-15T07:58:12.000Z</time>
      </trkpt>
      <trkpt lat="47.48894" lon="6.68134">
        <ele>362</ele>
        <time>2015-11-15T07:58:13.000Z</time>
      </trkpt>
      <trkpt lat="47.48891" lon="6.6814">
        <ele>362</ele>
        <time>2015-11-15T07:58:14.000Z</time>
      </trkpt>
      <trkpt lat="47.48889" lon="6.68145">
        <ele>361</ele>
        <time>2015-11-15T07:58:15.000Z</time>
      </trkpt>
      <trkpt lat="47.48886" lon="6.68151">
        <ele>361</ele>
        <time>2015-11-15T07:58:16.000Z</time>
      </trkpt>
      <trkpt lat="47.48884" lon="6.68156">
        <ele>361</ele>
        <time>2015-11-15T07:58:17.000Z</time>
      </trkpt>
      <trkpt lat="47.48881" lon="6.68162">
        <ele>361</ele>
        <time>2015-11-15T07:58:18.000Z</time>
      </trkpt>
      <trkpt lat="47.48878" lon="6.68168">
        <ele>359</ele>
        <time>2015-11-15T07:58:19.000Z</time>
      </trkpt>
      <trkpt lat="47.48875" lon="6.68175">
        <ele>360</ele>
        <time>2015-11-15T07:58:20.000Z</time>
      </trkpt>
      <trkpt lat="47.48871" lon="6.68182">
        <ele>360</ele>
        <time>2015-11-15T07:58:21.000Z</time>
      </trkpt>
      <trkpt lat="47.48868" lon="6.68189">
        <ele>359</ele>
        <time>2015-11-15T07:58:22.000Z</time>
      </trkpt>
      <trkpt lat="47.48864" lon="6.68196">
        <ele>359</ele>
        <time>2015-11-15T07:58:23.000Z</time>
      </trkpt>
      <trkpt lat="47.4886" lon="6.68203">
        <ele>359</ele>
        <time>2015-11-15T07:58:24.000Z</time>
      </trkpt>
      <trkpt lat="47.48855" lon="6.68211">
        <ele>359</ele>
        <time>2015-11-15T07:58:25.000Z</time>
      </trkpt>
      <trkpt lat="47.48851" lon="6.68219">
        <ele>359</ele>
        <time>2015-11-15T07:58:26.000Z</time>
      </trkpt>
      <trkpt lat="47.48847" lon="6.68229">
        <ele>359</ele>
        <time>2015-11-15T07:58:27.000Z</time>
      </trkpt>
      <trkpt lat="47.48844" lon="6.68239">
        <ele>359</ele>
        <time>2015-11-15T07:58:28.000Z</time>
      </trkpt>
      <trkpt lat="47.48841" lon="6.68248">
        <ele>358</ele>
        <time>2015-11-15T07:58:29.000Z</time>
      </trkpt>
      <trkpt lat="47.48837" lon="6.68258">
        <ele>357</ele>
        <time>2015-11-15T07:58:30.000Z</time>
      </trkpt>
      <trkpt lat="47.48834" lon="6.68268">
        <ele>357</ele>
        <time>2015-11-15T07:58:31.000Z</time>
      </trkpt>
      <trkpt lat="47.48831" lon="6.68278">
        <ele>357</ele>
        <time>2015-11-15T07:58:32.000Z</time>
      </trkpt>
      <trkpt lat="47.48827" lon="6.68286">
        <ele>356</ele>
        <time>2015-11-15T07:58:33.000Z</time>
      </trkpt>
      <trkpt lat="47.48824" lon="6.68295">
        <ele>356</ele>
        <time>2015-11-15T07:58:34.000Z</time>
      </trkpt>
      <trkpt lat="47.48819" lon="6.68302">
        <ele>356</ele>
        <time>2015-11-15T07:58:35.000Z</time>
      </trkpt>
      <trkpt lat="47.48814" lon="6.68308">
        <ele>356</ele>
        <time>2015-11-15T07:58:36.000Z</time>
      </trkpt>
      <trkpt lat="47.48808" lon="6.68312">
        <ele>355</ele>
        <time>2015-11-15T07:58:37.000Z</time>
      </trkpt>
      <trkpt lat="47.48802" lon="6.68317">
        <ele>355</ele>
        <time>2015-11-15T07:58:38.000Z</time>
      </trkpt>
      <trkpt lat="47.48794" lon="6.6832">
        <ele>355</ele>
        <time>2015-11-15T07:58:39.000Z</time>
      </trkpt>
      <trkpt lat="47.48788" lon="6.68324">
        <ele>355</ele>
        <time>2015-11-15T07:58:40.000Z</time>
      </trkpt>
      <trkpt lat="47.48782" lon="6.68326">
        <ele>355</ele>
        <time>2015-11-15T07:58:41.000Z</time>
      </trkpt>
      <trkpt lat="47.48775" lon="6.68327">
        <ele>355</ele>
        <time>2015-11-15T07:58:42.000Z</time>
      </trkpt>
      <trkpt lat="47.4877" lon="6.68327">
        <ele>355</ele>
        <time>2015-11-15T07:58:43.000Z</time>
      </trkpt>
      <trkpt lat="47.48763" lon="6.68327">
        <ele>355</ele>
        <time>2015-11-15T07:58:44.000Z</time>
      </trkpt>
      <trkpt lat="47.48757" lon="6.68326">
        <ele>355</ele>
        <time>2015-11-15T07:58:45.000Z</time>
      </trkpt>
      <trkpt lat="47.48751" lon="6.68326">
        <ele>355</ele>
        <time>2015-11-15T07:58:46.000Z</time>
      </trkpt>
      <trkpt lat="47.48745" lon="6.68327">
        <ele>354</ele>
        <time>2015-11-15T07:58:47.000Z</time>
      </trkpt>
      <trkpt lat="47.48738" lon="6.68327">
        <ele>354</ele>
        <time>2015-11-15T07:58:48.000Z</time>
      </trkpt>
      <trkpt lat="47.48732" lon="6.68326">
        <ele>354</ele>
        <time>2015-11-15T07:58:49.000Z</time>
      </trkpt>
      <trkpt lat="47.48724" lon="6.68332">
        <ele>353</ele>
        <time>2015-11-15T07:58:50.000Z</time>
      </trkpt>
      <trkpt lat="47.48718" lon="6.68338">
        <ele>351</ele>
        <time>2015-11-15T07:58:51.000Z</time>
      </trkpt>
      <trkpt lat="47.48713" lon="6.68345">
        <ele>351</ele>
        <time>2015-11-15T07:58:52.000Z</time>
      </trkpt>
      <trkpt lat="47.48707" lon="6.68354">
        <ele>351</ele>
        <time>2015-11-15T07:58:53.000Z</time>
      </trkpt>
      <trkpt lat="47.48701" lon="6.68362">
        <ele>351</ele>
        <time>2015-11-15T07:58:54.000Z</time>
      </trkpt>
      <trkpt lat="47.48695" lon="6.68368">
        <ele>350</ele>
        <time>2015-11-15T07:58:55.000Z</time>
      </trkpt>
      <trkpt lat="47.48688" lon="6.68371">
        <ele>350</ele>
        <time>2015-11-15T07:58:56.000Z</time>
      </trkpt>
      <trkpt lat="47.48681" lon="6.6837">
        <ele>350</ele>
        <time>2015-11-15T07:58:57.000Z</time>
      </trkpt>
      <trkpt lat="47.48675" lon="6.68366">
        <ele>350</ele>
        <time>2015-11-15T07:58:58.000Z</time>
      </trkpt>
      <trkpt lat="47.48671" lon="6.68359">
        <ele>350</ele>
        <time>2015-11-15T07:58:59.000Z</time>
      </trkpt>
      <trkpt lat="47.48667" lon="6.68352">
        <ele>350</ele>
        <time>2015-11-15T07:59:00.000Z</time>
      </trkpt>
      <trkpt lat="47.48664" lon="6.68345">
        <ele>348</ele>
        <time>2015-11-15T07:59:01.000Z</time>
      </trkpt>
      <trkpt lat="47.48661" lon="6.68339">
        <ele>348</ele>
        <time>2015-11-15T07:59:02.000Z</time>
      </trkpt>
      <trkpt lat="47.48657" lon="6.68332">
        <ele>349</ele>
        <time>2015-11-15T07:59:03.000Z</time>
      </trkpt>
      <trkpt lat="47.48654" lon="6.68326">
        <ele>349</ele>
        <time>2015-11-15T07:59:04.000Z</time>
      </trkpt>
      <trkpt lat="47.48651" lon="6.6832">
        <ele>349</ele>
        <time>2015-11-15T07:59:05.000Z</time>
      </trkpt>
      <trkpt lat="47.48645" lon="6.68318">
        <ele>349</ele>
        <time>2015-11-15T07:59:06.000Z</time>
      </trkpt>
      <trkpt lat="47.48639" lon="6.68319">
        <ele>349</ele>
        <time>2015-11-15T07:59:07.000Z</time>
      </trkpt>
      <trkpt lat="47.48633" lon="6.68331">
        <ele>348</ele>
        <time>2015-11-15T07:59:08.000Z</time>
      </trkpt>
      <trkpt lat="47.4863" lon="6.68339">
        <ele>347</ele>
        <time>2015-11-15T07:59:09.000Z</time>
      </trkpt>
      <trkpt lat="47.48629" lon="6.68347">
        <ele>347</ele>
        <time>2015-11-15T07:59:10.000Z</time>
      </trkpt>
      <trkpt lat="47.48626" lon="6.68355">
        <ele>347</ele>
        <time>2015-11-15T07:59:11.000Z</time>
      </trkpt>
      <trkpt lat="47.48625" lon="6.68364">
        <ele>347</ele>
        <time>2015-11-15T07:59:12.000Z</time>
      </trkpt>
      <trkpt lat="47.48623" lon="6.68372">
        <ele>347</ele>
        <time>2015-11-15T07:59:13.000Z</time>
      </trkpt>
      <trkpt lat="47.4862" lon="6.68382">
        <ele>347</ele>
        <time>2015-11-15T07:59:14.000Z</time>
      </trkpt>
      <trkpt lat="47.48618" lon="6.68391">
        <ele>347</ele>
        <time>2015-11-15T07:59:15.000Z</time>
      </trkpt>
      <trkpt lat="47.48616" lon="6.68399">
        <ele>347</ele>
        <time>2015-11-15T07:59:16.000Z</time>
      </trkpt>
      <trkpt lat="47.48614" lon="6.68407">
        <ele>347</ele>
        <time>2015-11-15T07:59:17.000Z</time>
      </trkpt>
      <trkpt lat="47.48612" lon="6.68416">
        <ele>347</ele>
        <time>2015-11-15T07:59:18.000Z</time>
      </trkpt>
      <trkpt lat="47.4861" lon="6.68426">
        <ele>347</ele>
        <time>2015-11-15T07:59:19.000Z</time>
      </trkpt>
      <trkpt lat="47.48609" lon="6.68434">
        <ele>347</ele>
        <time>2015-11-15T07:59:20.000Z</time>
      </trkpt>
      <trkpt lat="47.48609" lon="6.68442">
        <ele>348</ele>
        <time>2015-11-15T07:59:21.000Z</time>
      </trkpt>
      <trkpt lat="47.48608" lon="6.6845">
        <ele>348</ele>
        <time>2015-11-15T07:59:22.000Z</time>
      </trkpt>
      <trkpt lat="47.48608" lon="6.68459">
        <ele>348</ele>
        <time>2015-11-15T07:59:23.000Z</time>
      </trkpt>
      <trkpt lat="47.48607" lon="6.68467">
        <ele>348</ele>
        <time>2015-11-15T07:59:24.000Z</time>
      </trkpt>
      <trkpt lat="47.48602" lon="6.68475">
        <ele>348</ele>
        <time>2015-11-15T07:59:25.000Z</time>
      </trkpt>
      <trkpt lat="47.486" lon="6.68483">
        <ele>348</ele>
        <time>2015-11-15T07:59:26.000Z</time>
      </trkpt>
      <trkpt lat="47.48598" lon="6.68489">
        <ele>348</ele>
        <time>2015-11-15T07:59:27.000Z</time>
      </trkpt>
      <trkpt lat="47.48596" lon="6.68494">
        <ele>349</ele>
        <time>2015-11-15T07:59:28.000Z</time>
      </trkpt>
      <trkpt lat="47.48596" lon="6.68501">
        <ele>349</ele>
        <time>2015-11-15T07:59:29.000Z</time>
      </trkpt>
      <trkpt lat="47.48595" lon="6.68508">
        <ele>349</ele>
        <time>2015-11-15T07:59:30.000Z</time>
      </trkpt>
      <trkpt lat="47.48596" lon="6.68516">
        <ele>348</ele>
        <time>2015-11-15T07:59:31.000Z</time>
      </trkpt>
      <trkpt lat="47.48597" lon="6.68526">
        <ele>348</ele>
        <time>2015-11-15T07:59:32.000Z</time>
      </trkpt>
      <trkpt lat="47.48597" lon="6.68534">
        <ele>348</ele>
        <time>2015-11-15T07:59:33.000Z</time>
      </trkpt>
      <trkpt lat="47.48598" lon="6.68543">
        <ele>348</ele>
        <time>2015-11-15T07:59:34.000Z</time>
      </trkpt>
      <trkpt lat="47.486" lon="6.68551">
        <ele>348</ele>
        <time>2015-11-15T07:59:35.000Z</time>
      </trkpt>
      <trkpt lat="47.48601" lon="6.68561">
        <ele>347</ele>
        <time>2015-11-15T07:59:36.000Z</time>
      </trkpt>
      <trkpt lat="47.48602" lon="6.68571">
        <ele>347</ele>
        <time>2015-11-15T07:59:37.000Z</time>
      </trkpt>
      <trkpt lat="47.48603" lon="6.68583">
        <ele>347</ele>
        <time>2015-11-15T07:59:38.000Z</time>
      </trkpt>
      <trkpt lat="47.48602" lon="6.68593">
        <ele>346</ele>
        <time>2015-11-15T07:59:39.000Z</time>
      </trkpt>
      <trkpt lat="47.48599" lon="6.68603">
        <ele>346</ele>
        <time>2015-11-15T07:59:40.000Z</time>
      </trkpt>
      <trkpt lat="47.48593" lon="6.68616">
        <ele>346</ele>
        <time>2015-11-15T07:59:41.000Z</time>
      </trkpt>
      <trkpt lat="47.48586" lon="6.68627">
        <ele>346</ele>
        <time>2015-11-15T07:59:42.000Z</time>
      </trkpt>
      <trkpt lat="47.48582" lon="6.68636">
        <ele>343</ele>
        <time>2015-11-15T07:59:43.000Z</time>
      </trkpt>
      <trkpt lat="47.48579" lon="6.68646">
        <ele>343</ele>
        <time>2015-11-15T07:59:44.000Z</time>
      </trkpt>
      <trkpt lat="47.48574" lon="6.68655">
        <ele>343</ele>
        <time>2015-11-15T07:59:45.000Z</time>
      </trkpt>
      <trkpt lat="47.48572" lon="6.68663">
        <ele>343</ele>
        <time>2015-11-15T07:59:46.000Z</time>
      </trkpt>
      <trkpt lat="47.48572" lon="6.68672">
        <ele>342</ele>
        <time>2015-11-15T07:59:47.000Z</time>
      </trkpt>
      <trkpt lat="47.48571" lon="6.68681">
        <ele>342</ele>
        <time>2015-11-15T07:59:48.000Z</time>
      </trkpt>
      <trkpt lat="47.48572" lon="6.68687">
        <ele>342</ele>
        <time>2015-11-15T07:59:49.000Z</time>
      </trkpt>
      <trkpt lat="47.48574" lon="6.68693">
        <ele>342</ele>
        <time>2015-11-15T07:59:50.000Z</time>
      </trkpt>
      <trkpt lat="47.48576" lon="6.68699">
        <ele>342</ele>
        <time>2015-11-15T07:59:51.000Z</time>
      </trkpt>
      <trkpt lat="47.48578" lon="6.68705">
        <ele>342</ele>
        <time>2015-11-15T07:59:52.000Z</time>
      </trkpt>
      <trkpt lat="47.48581" lon="6.68713">
        <ele>342</ele>
        <time>2015-11-15T07:59:53.000Z</time>
      </trkpt>
      <trkpt lat="47.48584" lon="6.6872">
        <ele>344</ele>
        <time>2015-11-15T07:59:54.000Z</time>
      </trkpt>
      <trkpt lat="47.48586" lon="6.68729">
        <ele>344</ele>
        <time>2015-11-15T07:59:55.000Z</time>
      </trkpt>
      <trkpt lat="47.48588" lon="6.68736">
        <ele>344</ele>
        <time>2015-11-15T07:59:56.000Z</time>
      </trkpt>
      <trkpt lat="47.48591" lon="6.68744">
        <ele>344</ele>
        <time>2015-11-15T07:59:57.000Z</time>
      </trkpt>
      <trkpt lat="47.48592" lon="6.68751">
        <ele>343</ele>
        <time>2015-11-15T07:59:58.000Z</time>
      </trkpt>
      <trkpt lat="47.48593" lon="6.68758">
        <ele>344</ele>
        <time>2015-11-15T07:59:59.000Z</time>
      </trkpt>
      <trkpt lat="47.48596" lon="6.68764">
        <ele>344</ele>
        <time>2015-11-15T08:00:00.000Z</time>
      </trkpt>
      <trkpt lat="47.48599" lon="6.68769">
        <ele>344</ele>
        <time>2015-11-15T08:00:01.000Z</time>
      </trkpt>
      <trkpt lat="47.48601" lon="6.68774">
        <ele>344</ele>
        <time>2015-11-15T08:00:02.000Z</time>
      </trkpt>
      <trkpt lat="47.48604" lon="6.68779">
        <ele>344</ele>
        <time>2015-11-15T08:00:03.000Z</time>
      </trkpt>
      <trkpt lat="47.48609" lon="6.68785">
        <ele>344</ele>
        <time>2015-11-15T08:00:04.000Z</time>
      </trkpt>
      <trkpt lat="47.48614" lon="6.68792">
        <ele>345</ele>
        <time>2015-11-15T08:00:05.000Z</time>
      </trkpt>
      <trkpt lat="47.48619" lon="6.68798">
        <ele>345</ele>
        <time>2015-11-15T08:00:06.000Z</time>
      </trkpt>
      <trkpt lat="47.48624" lon="6.68804">
        <ele>345</ele>
        <time>2015-11-15T08:00:07.000Z</time>
      </trkpt>
      <trkpt lat="47.48629" lon="6.68808">
        <ele>345</ele>
        <time>2015-11-15T08:00:08.000Z</time>
      </trkpt>
      <trkpt lat="47.48633" lon="6.68814">
        <ele>345</ele>
        <time>2015-11-15T08:00:09.000Z</time>
      </trkpt>
      <trkpt lat="47.48637" lon="6.6882">
        <ele>345</ele>
        <time>2015-11-15T08:00:10.000Z</time>
      </trkpt>
      <trkpt lat="47.48644" lon="6.68828">
        <ele>344</ele>
        <time>2015-11-15T08:00:11.000Z</time>
      </trkpt>
      <trkpt lat="47.48649" lon="6.68834">
        <ele>345</ele>
        <time>2015-11-15T08:00:12.000Z</time>
      </trkpt>
      <trkpt lat="47.48652" lon="6.68838">
        <ele>345</ele>
        <time>2015-11-15T08:00:13.000Z</time>
      </trkpt>
      <trkpt lat="47.48656" lon="6.68842">
        <ele>345</ele>
        <time>2015-11-15T08:00:14.000Z</time>
      </trkpt>
      <trkpt lat="47.4866" lon="6.68847">
        <ele>345</ele>
        <time>2015-11-15T08:00:15.000Z</time>
      </trkpt>
      <trkpt lat="47.48664" lon="6.68851">
        <ele>345</ele>
        <time>2015-11-15T08:00:16.000Z</time>
      </trkpt>
      <trkpt lat="47.48668" lon="6.68855">
        <ele>345</ele>
        <time>2015-11-15T08:00:17.000Z</time>
      </trkpt>
      <trkpt lat="47.48671" lon="6.6886">
        <ele>345</ele>
        <time>2015-11-15T08:00:18.000Z</time>
      </trkpt>
      <trkpt lat="47.48677" lon="6.68865">
        <ele>345</ele>
        <time>2015-11-15T08:00:19.000Z</time>
      </trkpt>
      <trkpt lat="47.48681" lon="6.68874">
        <ele>345</ele>
        <time>2015-11-15T08:00:20.000Z</time>
      </trkpt>
      <trkpt lat="47.48685" lon="6.68879">
        <ele>345</ele>
        <time>2015-11-15T08:00:21.000Z</time>
      </trkpt>
      <trkpt lat="47.48687" lon="6.68884">
        <ele>345</ele>
        <time>2015-11-15T08:00:22.000Z</time>
      </trkpt>
      <trkpt lat="47.48689" lon="6.68889">
        <ele>344</ele>
        <time>2015-11-15T08:00:23.000Z</time>
      </trkpt>
      <trkpt lat="47.48694" lon="6.68894">
        <ele>344</ele>
        <time>2015-11-15T08:00:24.000Z</time>
      </trkpt>
      <trkpt lat="47.48696" lon="6.689">
        <ele>344</ele>
        <time>2015-11-15T08:00:25.000Z</time>
      </trkpt>
      <trkpt lat="47.48699" lon="6.68905">
        <ele>344</ele>
        <time>2015-11-15T08:00:26.000Z</time>
      </trkpt>
      <trkpt lat="47.48701" lon="6.6891">
        <ele>344</ele>
        <time>2015-11-15T08:00:27.000Z</time>
      </trkpt>
      <trkpt lat="47.48703" lon="6.68914">
        <ele>344</ele>
        <time>2015-11-15T08:00:28.000Z</time>
      </trkpt>
      <trkpt lat="47.48705" lon="6.6892">
        <ele>342</ele>
        <time>2015-11-15T08:00:29.000Z</time>
      </trkpt>
      <trkpt lat="47.48705" lon="6.68926">
        <ele>342</ele>
        <time>2015-11-15T08:00:30.000Z</time>
      </trkpt>
      <trkpt lat="47.48703" lon="6.68929">
        <ele>342</ele>
        <time>2015-11-15T08:00:31.000Z</time>
      </trkpt>
      <trkpt lat="47.48701" lon="6.68932">
        <ele>342</ele>
        <time>2015-11-15T08:00:32.000Z</time>
      </trkpt>
      <trkpt lat="47.48698" lon="6.68934">
        <ele>342</ele>
        <time>2015-11-15T08:00:33.000Z</time>
      </trkpt>
      <trkpt lat="47.48696" lon="6.68937">
        <ele>342</ele>
        <time>2015-11-15T08:00:34.000Z</time>
      </trkpt>
      <trkpt lat="47.48694" lon="6.68939">
        <ele>342</ele>
        <time>2015-11-15T08:00:35.000Z</time>
      </trkpt>
      <trkpt lat="47.48689" lon="6.6894">
        <ele>342</ele>
        <time>2015-11-15T08:00:36.000Z</time>
      </trkpt>
      <trkpt lat="47.48685" lon="6.6894">
        <ele>342</ele>
        <time>2015-11-15T08:00:37.000Z</time>
      </trkpt>
      <trkpt lat="47.48681" lon="6.68938">
        <ele>342</ele>
        <time>2015-11-15T08:00:38.000Z</time>
      </trkpt>
      <trkpt lat="47.48677" lon="6.68935">
        <ele>342</ele>
        <time>2015-11-15T08:00:39.000Z</time>
      </trkpt>
      <trkpt lat="47.48674" lon="6.68932">
        <ele>342</ele>
        <time>2015-11-15T08:00:40.000Z</time>
      </trkpt>
      <trkpt lat="47.48671" lon="6.68929">
        <ele>342</ele>
        <time>2015-11-15T08:00:41.000Z</time>
      </trkpt>
      <trkpt lat="47.48667" lon="6.68926">
        <ele>343</ele>
        <time>2015-11-15T08:00:42.000Z</time>
      </trkpt>
      <trkpt lat="47.48664" lon="6.68924">
        <ele>344</ele>
        <time>2015-11-15T08:00:43.000Z</time>
      </trkpt>
      <trkpt lat="47.48661" lon="6.68921">
        <ele>344</ele>
        <time>2015-11-15T08:00:44.000Z</time>
      </trkpt>
      <trkpt lat="47.48658" lon="6.68918">
        <ele>344</ele>
        <time>2015-11-15T08:00:45.000Z</time>
      </trkpt>
      <trkpt lat="47.48655" lon="6.68915">
        <ele>344</ele>
        <time>2015-11-15T08:00:46.000Z</time>
      </trkpt>
      <trkpt lat="47.48652" lon="6.68912">
        <ele>344</ele>
        <time>2015-11-15T08:00:47.000Z</time>
      </trkpt>
      <trkpt lat="47.48649" lon="6.68909">
        <ele>345</ele>
        <time>2015-11-15T08:00:48.000Z</time>
      </trkpt>
      <trkpt lat="47.48646" lon="6.68906">
        <ele>345</ele>
        <time>2015-11-15T08:00:49.000Z</time>
      </trkpt>
      <trkpt lat="47.48644" lon="6.68903">
        <ele>345</ele>
        <time>2015-11-15T08:00:50.000Z</time>
      </trkpt>
      <trkpt lat="47.48641" lon="6.68901">
        <ele>345</ele>
        <time>2015-11-15T08:00:51.000Z</time>
      </trkpt>
      <trkpt lat="47.48638" lon="6.68899">
        <ele>345</ele>
        <time>2015-11-15T08:00:52.000Z</time>
      </trkpt>
      <trkpt lat="47.48635" lon="6.68898">
        <ele>345</ele>
        <time>2015-11-15T08:00:53.000Z</time>
      </trkpt>
      <trkpt lat="47.48632" lon="6.68897">
        <ele>346</ele>
        <time>2015-11-15T08:00:54.000Z</time>
      </trkpt>
      <trkpt lat="47.48629" lon="6.68896">
        <ele>346</ele>
        <time>2015-11-15T08:00:55.000Z</time>
      </trkpt>
      <trkpt lat="47.48626" lon="6.68893">
        <ele>346</ele>
        <time>2015-11-15T08:00:56.000Z</time>
      </trkpt>
      <trkpt lat="47.48622" lon="6.68891">
        <ele>346</ele>
        <time>2015-11-15T08:00:57.000Z</time>
      </trkpt>
      <trkpt lat="47.48619" lon="6.68888">
        <ele>346</ele>
        <time>2015-11-15T08:00:58.000Z</time>
      </trkpt>
      <trkpt lat="47.48615" lon="6.68885">
        <ele>346</ele>
        <time>2015-11-15T08:00:59.000Z</time>
      </trkpt>
      <trkpt lat="47.48612" lon="6.68883">
        <ele>346</ele>
        <time>2015-11-15T08:01:00.000Z</time>
      </trkpt>
      <trkpt lat="47.48609" lon="6.68881">
        <ele>346</ele>
        <time>2015-11-15T08:01:01.000Z</time>
      </trkpt>
      <trkpt lat="47.48606" lon="6.68878">
        <ele>346</ele>
        <time>2015-11-15T08:01:02.000Z</time>
      </trkpt>
      <trkpt lat="47.48604" lon="6.68876">
        <ele>346</ele>
        <time>2015-11-15T08:01:03.000Z</time>
      </trkpt>
      <trkpt lat="47.486" lon="6.68873">
        <ele>346</ele>
        <time>2015-11-15T08:01:04.000Z</time>
      </trkpt>
      <trkpt lat="47.48597" lon="6.68871">
        <ele>346</ele>
        <time>2015-11-15T08:01:05.000Z</time>
      </trkpt>
      <trkpt lat="47.48594" lon="6.68869">
        <ele>346</ele>
        <time>2015-11-15T08:01:06.000Z</time>
      </trkpt>
      <trkpt lat="47.4859" lon="6.68865">
        <ele>346</ele>
        <time>2015-11-15T08:01:07.000Z</time>
      </trkpt>
      <trkpt lat="47.48587" lon="6.68862">
        <ele>346</ele>
        <time>2015-11-15T08:01:08.000Z</time>
      </trkpt>
      <trkpt lat="47.48583" lon="6.68859">
        <ele>348</ele>
        <time>2015-11-15T08:01:09.000Z</time>
      </trkpt>
      <trkpt lat="47.4858" lon="6.68855">
        <ele>348</ele>
        <time>2015-11-15T08:01:10.000Z</time>
      </trkpt>
      <trkpt lat="47.48577" lon="6.68852">
        <ele>348</ele>
        <time>2015-11-15T08:01:11.000Z</time>
      </trkpt>
      <trkpt lat="47.48573" lon="6.68849">
        <ele>348</ele>
        <time>2015-11-15T08:01:12.000Z</time>
      </trkpt>
      <trkpt lat="47.4857" lon="6.68847">
        <ele>348</ele>
        <time>2015-11-15T08:01:13.000Z</time>
      </trkpt>
      <trkpt lat="47.48567" lon="6.68844">
        <ele>348</ele>
        <time>2015-11-15T08:01:14.000Z</time>
      </trkpt>
      <trkpt lat="47.48563" lon="6.68842">
        <ele>348</ele>
        <time>2015-11-15T08:01:15.000Z</time>
      </trkpt>
      <trkpt lat="47.4856" lon="6.68839">
        <ele>348</ele>
        <time>2015-11-15T08:01:16.000Z</time>
      </trkpt>
      <trkpt lat="47.48558" lon="6.68837">
        <ele>348</ele>
        <time>2015-11-15T08:01:17.000Z</time>
      </trkpt>
      <trkpt lat="47.48555" lon="6.68834">
        <ele>348</ele>
        <time>2015-11-15T08:01:18.000Z</time>
      </trkpt>
      <trkpt lat="47.48554" lon="6.68832">
        <ele>346</ele>
        <time>2015-11-15T08:01:19.000Z</time>
      </trkpt>
      <trkpt lat="47.4855" lon="6.6883">
        <ele>346</ele>
        <time>2015-11-15T08:01:21.000Z</time>
      </trkpt>
      <trkpt lat="47.48548" lon="6.68828">
        <ele>346</ele>
        <time>2015-11-15T08:01:22.000Z</time>
      </trkpt>
      <trkpt lat="47.48547" lon="6.68827">
        <ele>346</ele>
        <time>2015-11-15T08:01:23.000Z</time>
      </trkpt>
      <trkpt lat="47.48544" lon="6.68825">
        <ele>346</ele>
        <time>2015-11-15T08:01:24.000Z</time>
      </trkpt>
      <trkpt lat="47.48541" lon="6.68822">
        <ele>346</ele>
        <time>2015-11-15T08:01:25.000Z</time>
      </trkpt>
      <trkpt lat="47.48538" lon="6.68819">
        <ele>346</ele>
        <time>2015-11-15T08:01:26.000Z</time>
      </trkpt>
      <trkpt lat="47.48535" lon="6.68815">
        <ele>346</ele>
        <time>2015-11-15T08:01:27.000Z</time>
      </trkpt>
      <trkpt lat="47.48531" lon="6.68812">
        <ele>346</ele>
        <time>2015-11-15T08:01:28.000Z</time>
      </trkpt>
      <trkpt lat="47.48528" lon="6.6881">
        <ele>346</ele>
        <time>2015-11-15T08:01:29.000Z</time>
      </trkpt>
      <trkpt lat="47.48525" lon="6.68807">
        <ele>346</ele>
        <time>2015-11-15T08:01:30.000Z</time>
      </trkpt>
      <trkpt lat="47.48522" lon="6.68805">
        <ele>346</ele>
        <time>2015-11-15T08:01:31.000Z</time>
      </trkpt>
      <trkpt lat="47.48519" lon="6.68802">
        <ele>346</ele>
        <time>2015-11-15T08:01:32.000Z</time>
      </trkpt>
      <trkpt lat="47.48516" lon="6.68799">
        <ele>346</ele>
        <time>2015-11-15T08:01:33.000Z</time>
      </trkpt>
      <trkpt lat="47.48513" lon="6.68796">
        <ele>346</ele>
        <time>2015-11-15T08:01:34.000Z</time>
      </trkpt>
      <trkpt lat="47.4851" lon="6.68794">
        <ele>346</ele>
        <time>2015-11-15T08:01:35.000Z</time>
      </trkpt>
      <trkpt lat="47.48507" lon="6.68792">
        <ele>346</ele>
        <time>2015-11-15T08:01:36.000Z</time>
      </trkpt>
      <trkpt lat="47.48505" lon="6.68788">
        <ele>346</ele>
        <time>2015-11-15T08:01:37.000Z</time>
      </trkpt>
      <trkpt lat="47.48503" lon="6.68785">
        <ele>346</ele>
        <time>2015-11-15T08:01:38.000Z</time>
      </trkpt>
      <trkpt lat="47.48499" lon="6.68777">
        <ele>346</ele>
        <time>2015-11-15T08:01:40.000Z</time>
      </trkpt>
      <trkpt lat="47.48497" lon="6.68775">
        <ele>346</ele>
        <time>2015-11-15T08:01:41.000Z</time>
      </trkpt>
      <trkpt lat="47.48495" lon="6.68772">
        <ele>346</ele>
        <time>2015-11-15T08:01:42.000Z</time>
      </trkpt>
      <trkpt lat="47.48492" lon="6.6877">
        <ele>346</ele>
        <time>2015-11-15T08:01:43.000Z</time>
      </trkpt>
      <trkpt lat="47.48489" lon="6.68769">
        <ele>346</ele>
        <time>2015-11-15T08:01:44.000Z</time>
      </trkpt>
      <trkpt lat="47.48486" lon="6.68768">
        <ele>346</ele>
        <time>2015-11-15T08:01:45.000Z</time>
      </trkpt>
      <trkpt lat="47.48484" lon="6.68769">
        <ele>346</ele>
        <time>2015-11-15T08:01:46.000Z</time>
      </trkpt>
      <trkpt lat="47.48481" lon="6.68771">
        <ele>346</ele>
        <time>2015-11-15T08:01:48.000Z</time>
      </trkpt>
      <trkpt lat="47.48479" lon="6.68772">
        <ele>346</ele>
        <time>2015-11-15T08:01:49.000Z</time>
      </trkpt>
      <trkpt lat="47.48477" lon="6.68776">
        <ele>346</ele>
        <time>2015-11-15T08:01:53.000Z</time>
      </trkpt>
      <trkpt lat="47.48476" lon="6.68778">
        <ele>346</ele>
        <time>2015-11-15T08:01:54.000Z</time>
      </trkpt>
      <trkpt lat="47.48476" lon="6.68784">
        <ele>347</ele>
        <time>2015-11-15T08:01:56.000Z</time>
      </trkpt>
      <trkpt lat="47.48475" lon="6.68786">
        <ele>347</ele>
        <time>2015-11-15T08:01:57.000Z</time>
      </trkpt>
      <trkpt lat="47.48474" lon="6.68792">
        <ele>347</ele>
        <time>2015-11-15T08:01:59.000Z</time>
      </trkpt>
      <trkpt lat="47.48474" lon="6.68794">
        <ele>347</ele>
        <time>2015-11-15T08:02:00.000Z</time>
      </trkpt>
      <trkpt lat="47.48473" lon="6.688">
        <ele>347</ele>
        <time>2015-11-15T08:02:02.000Z</time>
      </trkpt>
      <trkpt lat="47.48472" lon="6.68803">
        <ele>347</ele>
        <time>2015-11-15T08:02:03.000Z</time>
      </trkpt>
      <trkpt lat="47.48472" lon="6.68808">
        <ele>347</ele>
        <time>2015-11-15T08:02:05.000Z</time>
      </trkpt>
      <trkpt lat="47.48471" lon="6.68811">
        <ele>348</ele>
        <time>2015-11-15T08:02:06.000Z</time>
      </trkpt>
      <trkpt lat="47.48471" lon="6.68815">
        <ele>348</ele>
        <time>2015-11-15T08:02:07.000Z</time>
      </trkpt>
      <trkpt lat="47.48471" lon="6.68818">
        <ele>348</ele>
        <time>2015-11-15T08:02:08.000Z</time>
      </trkpt>
      <trkpt lat="47.48471" lon="6.68822">
        <ele>348</ele>
        <time>2015-11-15T08:02:09.000Z</time>
      </trkpt>
      <trkpt lat="47.4847" lon="6.68825">
        <ele>348</ele>
        <time>2015-11-15T08:02:10.000Z</time>
      </trkpt>
      <trkpt lat="47.4847" lon="6.68828">
        <ele>348</ele>
        <time>2015-11-15T08:02:11.000Z</time>
      </trkpt>
      <trkpt lat="47.48469" lon="6.68832">
        <ele>348</ele>
        <time>2015-11-15T08:02:12.000Z</time>
      </trkpt>
      <trkpt lat="47.48469" lon="6.68836">
        <ele>350</ele>
        <time>2015-11-15T08:02:13.000Z</time>
      </trkpt>
      <trkpt lat="47.48468" lon="6.6884">
        <ele>350</ele>
        <time>2015-11-15T08:02:14.000Z</time>
      </trkpt>
      <trkpt lat="47.48467" lon="6.68843">
        <ele>350</ele>
        <time>2015-11-15T08:02:15.000Z</time>
      </trkpt>
      <trkpt lat="47.48466" lon="6.68846">
        <ele>350</ele>
        <time>2015-11-15T08:02:16.000Z</time>
      </trkpt>
      <trkpt lat="47.48464" lon="6.6885">
        <ele>350</ele>
        <time>2015-11-15T08:02:17.000Z</time>
      </trkpt>
      <trkpt lat="47.48463" lon="6.68853">
        <ele>350</ele>
        <time>2015-11-15T08:02:18.000Z</time>
      </trkpt>
      <trkpt lat="47.48462" lon="6.68856">
        <ele>350</ele>
        <time>2015-11-15T08:02:19.000Z</time>
      </trkpt>
      <trkpt lat="47.4846" lon="6.68859">
        <ele>350</ele>
        <time>2015-11-15T08:02:20.000Z</time>
      </trkpt>
      <trkpt lat="47.48458" lon="6.68862">
        <ele>350</ele>
        <time>2015-11-15T08:02:21.000Z</time>
      </trkpt>
      <trkpt lat="47.48456" lon="6.68866">
        <ele>350</ele>
        <time>2015-11-15T08:02:22.000Z</time>
      </trkpt>
      <trkpt lat="47.48455" lon="6.68869">
        <ele>350</ele>
        <time>2015-11-15T08:02:23.000Z</time>
      </trkpt>
      <trkpt lat="47.48453" lon="6.68873">
        <ele>351</ele>
        <time>2015-11-15T08:02:24.000Z</time>
      </trkpt>
      <trkpt lat="47.48452" lon="6.68876">
        <ele>351</ele>
        <time>2015-11-15T08:02:25.000Z</time>
      </trkpt>
      <trkpt lat="47.48451" lon="6.68879">
        <ele>351</ele>
        <time>2015-11-15T08:02:26.000Z</time>
      </trkpt>
      <trkpt lat="47.48449" lon="6.68883">
        <ele>351</ele>
        <time>2015-11-15T08:02:27.000Z</time>
      </trkpt>
      <trkpt lat="47.48448" lon="6.68886">
        <ele>351</ele>
        <time>2015-11-15T08:02:28.000Z</time>
      </trkpt>
      <trkpt lat="47.48447" lon="6.6889">
        <ele>351</ele>
        <time>2015-11-15T08:02:29.000Z</time>
      </trkpt>
      <trkpt lat="47.48446" lon="6.68893">
        <ele>351</ele>
        <time>2015-11-15T08:02:30.000Z</time>
      </trkpt>
      <trkpt lat="47.48444" lon="6.68897">
        <ele>351</ele>
        <time>2015-11-15T08:02:31.000Z</time>
      </trkpt>
      <trkpt lat="47.48442" lon="6.68901">
        <ele>351</ele>
        <time>2015-11-15T08:02:32.000Z</time>
      </trkpt>
      <trkpt lat="47.48441" lon="6.68904">
        <ele>351</ele>
        <time>2015-11-15T08:02:33.000Z</time>
      </trkpt>
      <trkpt lat="47.48439" lon="6.68907">
        <ele>351</ele>
        <time>2015-11-15T08:02:34.000Z</time>
      </trkpt>
      <trkpt lat="47.48437" lon="6.68911">
        <ele>351</ele>
        <time>2015-11-15T08:02:35.000Z</time>
      </trkpt>
      <trkpt lat="47.48435" lon="6.68914">
        <ele>351</ele>
        <time>2015-11-15T08:02:36.000Z</time>
      </trkpt>
      <trkpt lat="47.48434" lon="6.68917">
        <ele>354</ele>
        <time>2015-11-15T08:02:37.000Z</time>
      </trkpt>
      <trkpt lat="47.48432" lon="6.68921">
        <ele>354</ele>
        <time>2015-11-15T08:02:38.000Z</time>
      </trkpt>
      <trkpt lat="47.48429" lon="6.68928">
        <ele>354</ele>
        <time>2015-11-15T08:02:40.000Z</time>
      </trkpt>
      <trkpt lat="47.48427" lon="6.68932">
        <ele>354</ele>
        <time>2015-11-15T08:02:41.000Z</time>
      </trkpt>
      <trkpt lat="47.48425" lon="6.68935">
        <ele>354</ele>
        <time>2015-11-15T08:02:42.000Z</time>
      </trkpt>
      <trkpt lat="47.48423" lon="6.68939">
        <ele>355</ele>
        <time>2015-11-15T08:02:43.000Z</time>
      </trkpt>
      <trkpt lat="47.48421" lon="6.68943">
        <ele>355</ele>
        <time>2015-11-15T08:02:44.000Z</time>
      </trkpt>
      <trkpt lat="47.4842" lon="6.68947">
        <ele>355</ele>
        <time>2015-11-15T08:02:45.000Z</time>
      </trkpt>
      <trkpt lat="47.48418" lon="6.68951">
        <ele>355</ele>
        <time>2015-11-15T08:02:46.000Z</time>
      </trkpt>
      <trkpt lat="47.48416" lon="6.68955">
        <ele>355</ele>
        <time>2015-11-15T08:02:47.000Z</time>
      </trkpt>
      <trkpt lat="47.48415" lon="6.68959">
        <ele>355</ele>
        <time>2015-11-15T08:02:48.000Z</time>
      </trkpt>
      <trkpt lat="47.48413" lon="6.68963">
        <ele>355</ele>
        <time>2015-11-15T08:02:49.000Z</time>
      </trkpt>
      <trkpt lat="47.48411" lon="6.68967">
        <ele>356</ele>
        <time>2015-11-15T08:02:50.000Z</time>
      </trkpt>
      <trkpt lat="47.4841" lon="6.68971">
        <ele>356</ele>
        <time>2015-11-15T08:02:51.000Z</time>
      </trkpt>
      <trkpt lat="47.48408" lon="6.68975">
        <ele>356</ele>
        <time>2015-11-15T08:02:52.000Z</time>
      </trkpt>
      <trkpt lat="47.48407" lon="6.68979">
        <ele>357</ele>
        <time>2015-11-15T08:02:53.000Z</time>
      </trkpt>
      <trkpt lat="47.48405" lon="6.68982">
        <ele>357</ele>
        <time>2015-11-15T08:02:54.000Z</time>
      </trkpt>
      <trkpt lat="47.48403" lon="6.68986">
        <ele>357</ele>
        <time>2015-11-15T08:02:55.000Z</time>
      </trkpt>
      <trkpt lat="47.48401" lon="6.6899">
        <ele>357</ele>
        <time>2015-11-15T08:02:56.000Z</time>
      </trkpt>
      <trkpt lat="47.48399" lon="6.68994">
        <ele>357</ele>
        <time>2015-11-15T08:02:57.000Z</time>
      </trkpt>
      <trkpt lat="47.48397" lon="6.68998">
        <ele>357</ele>
        <time>2015-11-15T08:02:58.000Z</time>
      </trkpt>
      <trkpt lat="47.48394" lon="6.69002">
        <ele>361</ele>
        <time>2015-11-15T08:02:59.000Z</time>
      </trkpt>
      <trkpt lat="47.48392" lon="6.69005">
        <ele>361</ele>
        <time>2015-11-15T08:03:00.000Z</time>
      </trkpt>
      <trkpt lat="47.48389" lon="6.69009">
        <ele>361</ele>
        <time>2015-11-15T08:03:01.000Z</time>
      </trkpt>
      <trkpt lat="47.48386" lon="6.69013">
        <ele>361</ele>
        <time>2015-11-15T08:03:02.000Z</time>
      </trkpt>
      <trkpt lat="47.48383" lon="6.69016">
        <ele>361</ele>
        <time>2015-11-15T08:03:03.000Z</time>
      </trkpt>
      <trkpt lat="47.48379" lon="6.69019">
        <ele>361</ele>
        <time>2015-11-15T08:03:04.000Z</time>
      </trkpt>
      <trkpt lat="47.48375" lon="6.69021">
        <ele>361</ele>
        <time>2015-11-15T08:03:05.000Z</time>
      </trkpt>
      <trkpt lat="47.48372" lon="6.69022">
        <ele>361</ele>
        <time>2015-11-15T08:03:06.000Z</time>
      </trkpt>
      <trkpt lat="47.48368" lon="6.69023">
        <ele>360</ele>
        <time>2015-11-15T08:03:07.000Z</time>
      </trkpt>
      <trkpt lat="47.48364" lon="6.69023">
        <ele>360</ele>
        <time>2015-11-15T08:03:08.000Z</time>
      </trkpt>
      <trkpt lat="47.48361" lon="6.69023">
        <ele>360</ele>
        <time>2015-11-15T08:03:09.000Z</time>
      </trkpt>
      <trkpt lat="47.48357" lon="6.69022">
        <ele>360</ele>
        <time>2015-11-15T08:03:10.000Z</time>
      </trkpt>
      <trkpt lat="47.4835" lon="6.6902">
        <ele>359</ele>
        <time>2015-11-15T08:03:11.000Z</time>
      </trkpt>
      <trkpt lat="47.48345" lon="6.69019">
        <ele>359</ele>
        <time>2015-11-15T08:03:12.000Z</time>
      </trkpt>
      <trkpt lat="47.4834" lon="6.69019">
        <ele>359</ele>
        <time>2015-11-15T08:03:13.000Z</time>
      </trkpt>
      <trkpt lat="47.48336" lon="6.69018">
        <ele>358</ele>
        <time>2015-11-15T08:03:14.000Z</time>
      </trkpt>
      <trkpt lat="47.48331" lon="6.69017">
        <ele>356</ele>
        <time>2015-11-15T08:03:15.000Z</time>
      </trkpt>
      <trkpt lat="47.48326" lon="6.69016">
        <ele>356</ele>
        <time>2015-11-15T08:03:16.000Z</time>
      </trkpt>
      <trkpt lat="47.48321" lon="6.69015">
        <ele>357</ele>
        <time>2015-11-15T08:03:17.000Z</time>
      </trkpt>
      <trkpt lat="47.48316" lon="6.69014">
        <ele>357</ele>
        <time>2015-11-15T08:03:18.000Z</time>
      </trkpt>
      <trkpt lat="47.48311" lon="6.69013">
        <ele>357</ele>
        <time>2015-11-15T08:03:19.000Z</time>
      </trkpt>
      <trkpt lat="47.48306" lon="6.69012">
        <ele>357</ele>
        <time>2015-11-15T08:03:20.000Z</time>
      </trkpt>
      <trkpt lat="47.48301" lon="6.69011">
        <ele>357</ele>
        <time>2015-11-15T08:03:21.000Z</time>
      </trkpt>
      <trkpt lat="47.48294" lon="6.6901">
        <ele>357</ele>
        <time>2015-11-15T08:03:22.000Z</time>
      </trkpt>
      <trkpt lat="47.4829" lon="6.69008">
        <ele>357</ele>
        <time>2015-11-15T08:03:23.000Z</time>
      </trkpt>
      <trkpt lat="47.48284" lon="6.69009">
        <ele>357</ele>
        <time>2015-11-15T08:03:24.000Z</time>
      </trkpt>
      <trkpt lat="47.48278" lon="6.69008">
        <ele>357</ele>
        <time>2015-11-15T08:03:25.000Z</time>
      </trkpt>
      <trkpt lat="47.48273" lon="6.69007">
        <ele>357</ele>
        <time>2015-11-15T08:03:26.000Z</time>
      </trkpt>
      <trkpt lat="47.48269" lon="6.69007">
        <ele>357</ele>
        <time>2015-11-15T08:03:27.000Z</time>
      </trkpt>
      <trkpt lat="47.48266" lon="6.6901">
        <ele>357</ele>
        <time>2015-11-15T08:03:28.000Z</time>
      </trkpt>
      <trkpt lat="47.48263" lon="6.69013">
        <ele>357</ele>
        <time>2015-11-15T08:03:29.000Z</time>
      </trkpt>
      <trkpt lat="47.48259" lon="6.69023">
        <ele>357</ele>
        <time>2015-11-15T08:03:30.000Z</time>
      </trkpt>
      <trkpt lat="47.48256" lon="6.69028">
        <ele>357</ele>
        <time>2015-11-15T08:03:31.000Z</time>
      </trkpt>
      <trkpt lat="47.48252" lon="6.69032">
        <ele>357</ele>
        <time>2015-11-15T08:03:32.000Z</time>
      </trkpt>
      <trkpt lat="47.48247" lon="6.69039">
        <ele>355</ele>
        <time>2015-11-15T08:03:33.000Z</time>
      </trkpt>
      <trkpt lat="47.48243" lon="6.69044">
        <ele>355</ele>
        <time>2015-11-15T08:03:34.000Z</time>
      </trkpt>
      <trkpt lat="47.48237" lon="6.69049">
        <ele>355</ele>
        <time>2015-11-15T08:03:35.000Z</time>
      </trkpt>
      <trkpt lat="47.48234" lon="6.69053">
        <ele>355</ele>
        <time>2015-11-15T08:03:36.000Z</time>
      </trkpt>
      <trkpt lat="47.48231" lon="6.69058">
        <ele>355</ele>
        <time>2015-11-15T08:03:37.000Z</time>
      </trkpt>
      <trkpt lat="47.4823" lon="6.69067">
        <ele>355</ele>
        <time>2015-11-15T08:03:38.000Z</time>
      </trkpt>
      <trkpt lat="47.48228" lon="6.69074">
        <ele>355</ele>
        <time>2015-11-15T08:03:39.000Z</time>
      </trkpt>
      <trkpt lat="47.48226" lon="6.69083">
        <ele>355</ele>
        <time>2015-11-15T08:03:40.000Z</time>
      </trkpt>
      <trkpt lat="47.48225" lon="6.69092">
        <ele>355</ele>
        <time>2015-11-15T08:03:41.000Z</time>
      </trkpt>
      <trkpt lat="47.48227" lon="6.691">
        <ele>354</ele>
        <time>2015-11-15T08:03:42.000Z</time>
      </trkpt>
      <trkpt lat="47.48229" lon="6.69107">
        <ele>354</ele>
        <time>2015-11-15T08:03:43.000Z</time>
      </trkpt>
      <trkpt lat="47.48232" lon="6.69112">
        <ele>354</ele>
        <time>2015-11-15T08:03:44.000Z</time>
      </trkpt>
      <trkpt lat="47.48234" lon="6.69118">
        <ele>354</ele>
        <time>2015-11-15T08:03:45.000Z</time>
      </trkpt>
      <trkpt lat="47.48236" lon="6.69123">
        <ele>354</ele>
        <time>2015-11-15T08:03:46.000Z</time>
      </trkpt>
      <trkpt lat="47.48238" lon="6.69128">
        <ele>354</ele>
        <time>2015-11-15T08:03:47.000Z</time>
      </trkpt>
      <trkpt lat="47.48239" lon="6.69132">
        <ele>354</ele>
        <time>2015-11-15T08:03:48.000Z</time>
      </trkpt>
      <trkpt lat="47.48242" lon="6.69137">
        <ele>354</ele>
        <time>2015-11-15T08:03:49.000Z</time>
      </trkpt>
      <trkpt lat="47.48244" lon="6.69143">
        <ele>354</ele>
        <time>2015-11-15T08:03:50.000Z</time>
      </trkpt>
      <trkpt lat="47.48246" lon="6.69148">
        <ele>354</ele>
        <time>2015-11-15T08:03:51.000Z</time>
      </trkpt>
      <trkpt lat="47.48247" lon="6.69154">
        <ele>355</ele>
        <time>2015-11-15T08:03:52.000Z</time>
      </trkpt>
      <trkpt lat="47.4825" lon="6.6916">
        <ele>355</ele>
        <time>2015-11-15T08:03:53.000Z</time>
      </trkpt>
      <trkpt lat="47.48252" lon="6.69166">
        <ele>355</ele>
        <time>2015-11-15T08:03:54.000Z</time>
      </trkpt>
      <trkpt lat="47.48253" lon="6.69171">
        <ele>356</ele>
        <time>2015-11-15T08:03:55.000Z</time>
      </trkpt>
      <trkpt lat="47.48254" lon="6.69174">
        <ele>357</ele>
        <time>2015-11-15T08:03:56.000Z</time>
      </trkpt>
      <trkpt lat="47.48255" lon="6.69179">
        <ele>357</ele>
        <time>2015-11-15T08:03:57.000Z</time>
      </trkpt>
      <trkpt lat="47.48256" lon="6.69184">
        <ele>358</ele>
        <time>2015-11-15T08:03:58.000Z</time>
      </trkpt>
      <trkpt lat="47.48258" lon="6.69189">
        <ele>358</ele>
        <time>2015-11-15T08:03:59.000Z</time>
      </trkpt>
      <trkpt lat="47.48259" lon="6.69195">
        <ele>359</ele>
        <time>2015-11-15T08:04:00.000Z</time>
      </trkpt>
      <trkpt lat="47.48261" lon="6.692">
        <ele>359</ele>
        <time>2015-11-15T08:04:01.000Z</time>
      </trkpt>
      <trkpt lat="47.48262" lon="6.69205">
        <ele>359</ele>
        <time>2015-11-15T08:04:02.000Z</time>
      </trkpt>
      <trkpt lat="47.48264" lon="6.6921">
        <ele>359</ele>
        <time>2015-11-15T08:04:03.000Z</time>
      </trkpt>
      <trkpt lat="47.48266" lon="6.69215">
        <ele>359</ele>
        <time>2015-11-15T08:04:04.000Z</time>
      </trkpt>
      <trkpt lat="47.48268" lon="6.69219">
        <ele>360</ele>
        <time>2015-11-15T08:04:05.000Z</time>
      </trkpt>
      <trkpt lat="47.48269" lon="6.69224">
        <ele>360</ele>
        <time>2015-11-15T08:04:06.000Z</time>
      </trkpt>
      <trkpt lat="47.48271" lon="6.69229">
        <ele>360</ele>
        <time>2015-11-15T08:04:07.000Z</time>
      </trkpt>
      <trkpt lat="47.48273" lon="6.69233">
        <ele>360</ele>
        <time>2015-11-15T08:04:08.000Z</time>
      </trkpt>
      <trkpt lat="47.48274" lon="6.69238">
        <ele>360</ele>
        <time>2015-11-15T08:04:09.000Z</time>
      </trkpt>
      <trkpt lat="47.48276" lon="6.69242">
        <ele>360</ele>
        <time>2015-11-15T08:04:10.000Z</time>
      </trkpt>
      <trkpt lat="47.48278" lon="6.69246">
        <ele>360</ele>
        <time>2015-11-15T08:04:11.000Z</time>
      </trkpt>
      <trkpt lat="47.4828" lon="6.6925">
        <ele>362</ele>
        <time>2015-11-15T08:04:12.000Z</time>
      </trkpt>
      <trkpt lat="47.48282" lon="6.69254">
        <ele>362</ele>
        <time>2015-11-15T08:04:13.000Z</time>
      </trkpt>
      <trkpt lat="47.48284" lon="6.69258">
        <ele>362</ele>
        <time>2015-11-15T08:04:14.000Z</time>
      </trkpt>
      <trkpt lat="47.48287" lon="6.69263">
        <ele>363</ele>
        <time>2015-11-15T08:04:15.000Z</time>
      </trkpt>
      <trkpt lat="47.48288" lon="6.69267">
        <ele>363</ele>
        <time>2015-11-15T08:04:16.000Z</time>
      </trkpt>
      <trkpt lat="47.4829" lon="6.69271">
        <ele>363</ele>
        <time>2015-11-15T08:04:17.000Z</time>
      </trkpt>
      <trkpt lat="47.48292" lon="6.69274">
        <ele>363</ele>
        <time>2015-11-15T08:04:18.000Z</time>
      </trkpt>
      <trkpt lat="47.48294" lon="6.69276">
        <ele>364</ele>
        <time>2015-11-15T08:04:19.000Z</time>
      </trkpt>
      <trkpt lat="47.48298" lon="6.69277">
        <ele>364</ele>
        <time>2015-11-15T08:04:21.000Z</time>
      </trkpt>
      <trkpt lat="47.483" lon="6.69277">
        <ele>364</ele>
        <time>2015-11-15T08:04:22.000Z</time>
      </trkpt>
      <trkpt lat="47.48302" lon="6.69278">
        <ele>364</ele>
        <time>2015-11-15T08:04:23.000Z</time>
      </trkpt>
      <trkpt lat="47.48305" lon="6.6928">
        <ele>364</ele>
        <time>2015-11-15T08:04:24.000Z</time>
      </trkpt>
      <trkpt lat="47.48307" lon="6.69281">
        <ele>365</ele>
        <time>2015-11-15T08:04:25.000Z</time>
      </trkpt>
      <trkpt lat="47.4831" lon="6.69283">
        <ele>365</ele>
        <time>2015-11-15T08:04:26.000Z</time>
      </trkpt>
      <trkpt lat="47.48312" lon="6.69284">
        <ele>365</ele>
        <time>2015-11-15T08:04:27.000Z</time>
      </trkpt>
      <trkpt lat="47.48315" lon="6.69285">
        <ele>365</ele>
        <time>2015-11-15T08:04:28.000Z</time>
      </trkpt>
      <trkpt lat="47.48317" lon="6.69287">
        <ele>365</ele>
        <time>2015-11-15T08:04:29.000Z</time>
      </trkpt>
      <trkpt lat="47.48319" lon="6.69289">
        <ele>365</ele>
        <time>2015-11-15T08:04:30.000Z</time>
      </trkpt>
      <trkpt lat="47.48322" lon="6.69295">
        <ele>365</ele>
        <time>2015-11-15T08:04:32.000Z</time>
      </trkpt>
      <trkpt lat="47.48323" lon="6.69297">
        <ele>365</ele>
        <time>2015-11-15T08:04:33.000Z</time>
      </trkpt>
      <trkpt lat="47.48324" lon="6.69303">
        <ele>366</ele>
        <time>2015-11-15T08:04:35.000Z</time>
      </trkpt>
      <trkpt lat="47.48324" lon="6.69308">
        <ele>366</ele>
        <time>2015-11-15T08:04:36.000Z</time>
      </trkpt>
      <trkpt lat="47.48324" lon="6.69313">
        <ele>366</ele>
        <time>2015-11-15T08:04:37.000Z</time>
      </trkpt>
      <trkpt lat="47.48325" lon="6.69319">
        <ele>367</ele>
        <time>2015-11-15T08:04:38.000Z</time>
      </trkpt>
      <trkpt lat="47.48326" lon="6.69326">
        <ele>367</ele>
        <time>2015-11-15T08:04:39.000Z</time>
      </trkpt>
      <trkpt lat="47.48328" lon="6.69332">
        <ele>368</ele>
        <time>2015-11-15T08:04:40.000Z</time>
      </trkpt>
      <trkpt lat="47.48329" lon="6.69337">
        <ele>369</ele>
        <time>2015-11-15T08:04:41.000Z</time>
      </trkpt>
      <trkpt lat="47.48331" lon="6.69343">
        <ele>370</ele>
        <time>2015-11-15T08:04:42.000Z</time>
      </trkpt>
      <trkpt lat="47.48332" lon="6.69349">
        <ele>370</ele>
        <time>2015-11-15T08:04:43.000Z</time>
      </trkpt>
      <trkpt lat="47.48334" lon="6.69355">
        <ele>371</ele>
        <time>2015-11-15T08:04:44.000Z</time>
      </trkpt>
      <trkpt lat="47.48335" lon="6.69361">
        <ele>371</ele>
        <time>2015-11-15T08:04:45.000Z</time>
      </trkpt>
      <trkpt lat="47.48336" lon="6.69368">
        <ele>372</ele>
        <time>2015-11-15T08:04:46.000Z</time>
      </trkpt>
      <trkpt lat="47.48338" lon="6.69373">
        <ele>372</ele>
        <time>2015-11-15T08:04:47.000Z</time>
      </trkpt>
      <trkpt lat="47.48339" lon="6.69378">
        <ele>372</ele>
        <time>2015-11-15T08:04:48.000Z</time>
      </trkpt>
      <trkpt lat="47.4834" lon="6.69383">
        <ele>372</ele>
        <time>2015-11-15T08:04:49.000Z</time>
      </trkpt>
      <trkpt lat="47.48341" lon="6.69387">
        <ele>373</ele>
        <time>2015-11-15T08:04:50.000Z</time>
      </trkpt>
      <trkpt lat="47.48342" lon="6.69391">
        <ele>373</ele>
        <time>2015-11-15T08:04:51.000Z</time>
      </trkpt>
      <trkpt lat="47.48343" lon="6.69394">
        <ele>373</ele>
        <time>2015-11-15T08:04:52.000Z</time>
      </trkpt>
      <trkpt lat="47.48344" lon="6.694">
        <ele>373</ele>
        <time>2015-11-15T08:04:54.000Z</time>
      </trkpt>
      <trkpt lat="47.48345" lon="6.69403">
        <ele>373</ele>
        <time>2015-11-15T08:04:55.000Z</time>
      </trkpt>
      <trkpt lat="47.48345" lon="6.69407">
        <ele>373</ele>
        <time>2015-11-15T08:04:56.000Z</time>
      </trkpt>
      <trkpt lat="47.48345" lon="6.69411">
        <ele>373</ele>
        <time>2015-11-15T08:04:57.000Z</time>
      </trkpt>
      <trkpt lat="47.48346" lon="6.69416">
        <ele>373</ele>
        <time>2015-11-15T08:04:58.000Z</time>
      </trkpt>
      <trkpt lat="47.48347" lon="6.69421">
        <ele>375</ele>
        <time>2015-11-15T08:04:59.000Z</time>
      </trkpt>
      <trkpt lat="47.48347" lon="6.69427">
        <ele>375</ele>
        <time>2015-11-15T08:05:00.000Z</time>
      </trkpt>
      <trkpt lat="47.48348" lon="6.69432">
        <ele>375</ele>
        <time>2015-11-15T08:05:01.000Z</time>
      </trkpt>
      <trkpt lat="47.48349" lon="6.69437">
        <ele>375</ele>
        <time>2015-11-15T08:05:02.000Z</time>
      </trkpt>
      <trkpt lat="47.4835" lon="6.69442">
        <ele>375</ele>
        <time>2015-11-15T08:05:03.000Z</time>
      </trkpt>
      <trkpt lat="47.48351" lon="6.69447">
        <ele>376</ele>
        <time>2015-11-15T08:05:04.000Z</time>
      </trkpt>
      <trkpt lat="47.48352" lon="6.69451">
        <ele>376</ele>
        <time>2015-11-15T08:05:05.000Z</time>
      </trkpt>
      <trkpt lat="47.48353" lon="6.69455">
        <ele>376</ele>
        <time>2015-11-15T08:05:06.000Z</time>
      </trkpt>
      <trkpt lat="47.48355" lon="6.69458">
        <ele>376</ele>
        <time>2015-11-15T08:05:07.000Z</time>
      </trkpt>
      <trkpt lat="47.48356" lon="6.69461">
        <ele>376</ele>
        <time>2015-11-15T08:05:08.000Z</time>
      </trkpt>
      <trkpt lat="47.48358" lon="6.69464">
        <ele>376</ele>
        <time>2015-11-15T08:05:09.000Z</time>
      </trkpt>
      <trkpt lat="47.48359" lon="6.69467">
        <ele>376</ele>
        <time>2015-11-15T08:05:10.000Z</time>
      </trkpt>
      <trkpt lat="47.4836" lon="6.6947">
        <ele>376</ele>
        <time>2015-11-15T08:05:11.000Z</time>
      </trkpt>
      <trkpt lat="47.48361" lon="6.69473">
        <ele>376</ele>
        <time>2015-11-15T08:05:12.000Z</time>
      </trkpt>
      <trkpt lat="47.48363" lon="6.69476">
        <ele>376</ele>
        <time>2015-11-15T08:05:13.000Z</time>
      </trkpt>
      <trkpt lat="47.48364" lon="6.69479">
        <ele>376</ele>
        <time>2015-11-15T08:05:14.000Z</time>
      </trkpt>
      <trkpt lat="47.48365" lon="6.69482">
        <ele>376</ele>
        <time>2015-11-15T08:05:15.000Z</time>
      </trkpt>
      <trkpt lat="47.48367" lon="6.69487">
        <ele>376</ele>
        <time>2015-11-15T08:05:17.000Z</time>
      </trkpt>
      <trkpt lat="47.48368" lon="6.6949">
        <ele>376</ele>
        <time>2015-11-15T08:05:18.000Z</time>
      </trkpt>
      <trkpt lat="47.48368" lon="6.69495">
        <ele>376</ele>
        <time>2015-11-15T08:05:20.000Z</time>
      </trkpt>
      <trkpt lat="47.48369" lon="6.69498">
        <ele>376</ele>
        <time>2015-11-15T08:05:21.000Z</time>
      </trkpt>
      <trkpt lat="47.48369" lon="6.69502">
        <ele>378</ele>
        <time>2015-11-15T08:05:23.000Z</time>
      </trkpt>
      <trkpt lat="47.4837" lon="6.69505">
        <ele>378</ele>
        <time>2015-11-15T08:05:24.000Z</time>
      </trkpt>
      <trkpt lat="47.4837" lon="6.69508">
        <ele>378</ele>
        <time>2015-11-15T08:05:25.000Z</time>
      </trkpt>
      <trkpt lat="47.48371" lon="6.69511">
        <ele>378</ele>
        <time>2015-11-15T08:05:26.000Z</time>
      </trkpt>
      <trkpt lat="47.48371" lon="6.69515">
        <ele>378</ele>
        <time>2015-11-15T08:05:27.000Z</time>
      </trkpt>
      <trkpt lat="47.48372" lon="6.69518">
        <ele>378</ele>
        <time>2015-11-15T08:05:28.000Z</time>
      </trkpt>
      <trkpt lat="47.48373" lon="6.69521">
        <ele>378</ele>
        <time>2015-11-15T08:05:29.000Z</time>
      </trkpt>
      <trkpt lat="47.48374" lon="6.69524">
        <ele>378</ele>
        <time>2015-11-15T08:05:30.000Z</time>
      </trkpt>
      <trkpt lat="47.48376" lon="6.69527">
        <ele>378</ele>
        <time>2015-11-15T08:05:31.000Z</time>
      </trkpt>
      <trkpt lat="47.48377" lon="6.6953">
        <ele>378</ele>
        <time>2015-11-15T08:05:32.000Z</time>
      </trkpt>
      <trkpt lat="47.48379" lon="6.69533">
        <ele>378</ele>
        <time>2015-11-15T08:05:33.000Z</time>
      </trkpt>
      <trkpt lat="47.4838" lon="6.69537">
        <ele>378</ele>
        <time>2015-11-15T08:05:34.000Z</time>
      </trkpt>
      <trkpt lat="47.48382" lon="6.69541">
        <ele>378</ele>
        <time>2015-11-15T08:05:35.000Z</time>
      </trkpt>
      <trkpt lat="47.48383" lon="6.69544">
        <ele>378</ele>
        <time>2015-11-15T08:05:36.000Z</time>
      </trkpt>
      <trkpt lat="47.48384" lon="6.69548">
        <ele>378</ele>
        <time>2015-11-15T08:05:37.000Z</time>
      </trkpt>
      <trkpt lat="47.48386" lon="6.69551">
        <ele>378</ele>
        <time>2015-11-15T08:05:38.000Z</time>
      </trkpt>
      <trkpt lat="47.48388" lon="6.69556">
        <ele>378</ele>
        <time>2015-11-15T08:05:40.000Z</time>
      </trkpt>
      <trkpt lat="47.48389" lon="6.69558">
        <ele>378</ele>
        <time>2015-11-15T08:05:41.000Z</time>
      </trkpt>
      <trkpt lat="47.4839" lon="6.69562">
        <ele>378</ele>
        <time>2015-11-15T08:05:42.000Z</time>
      </trkpt>
      <trkpt lat="47.48391" lon="6.69565">
        <ele>378</ele>
        <time>2015-11-15T08:05:43.000Z</time>
      </trkpt>
      <trkpt lat="47.48392" lon="6.69568">
        <ele>378</ele>
        <time>2015-11-15T08:05:44.000Z</time>
      </trkpt>
      <trkpt lat="47.48394" lon="6.69571">
        <ele>378</ele>
        <time>2015-11-15T08:05:45.000Z</time>
      </trkpt>
      <trkpt lat="47.48396" lon="6.69575">
        <ele>378</ele>
        <time>2015-11-15T08:05:46.000Z</time>
      </trkpt>
      <trkpt lat="47.48398" lon="6.69578">
        <ele>378</ele>
        <time>2015-11-15T08:05:47.000Z</time>
      </trkpt>
      <trkpt lat="47.484" lon="6.69583">
        <ele>379</ele>
        <time>2015-11-15T08:05:48.000Z</time>
      </trkpt>
      <trkpt lat="47.48402" lon="6.69589">
        <ele>379</ele>
        <time>2015-11-15T08:05:49.000Z</time>
      </trkpt>
      <trkpt lat="47.48403" lon="6.69596">
        <ele>379</ele>
        <time>2015-11-15T08:05:50.000Z</time>
      </trkpt>
      <trkpt lat="47.48405" lon="6.69603">
        <ele>379</ele>
        <time>2015-11-15T08:05:51.000Z</time>
      </trkpt>
      <trkpt lat="47.48406" lon="6.69609">
        <ele>379</ele>
        <time>2015-11-15T08:05:52.000Z</time>
      </trkpt>
      <trkpt lat="47.48406" lon="6.69616">
        <ele>379</ele>
        <time>2015-11-15T08:05:53.000Z</time>
      </trkpt>
      <trkpt lat="47.48407" lon="6.69622">
        <ele>379</ele>
        <time>2015-11-15T08:05:54.000Z</time>
      </trkpt>
      <trkpt lat="47.48408" lon="6.69628">
        <ele>379</ele>
        <time>2015-11-15T08:05:55.000Z</time>
      </trkpt>
      <trkpt lat="47.48408" lon="6.69633">
        <ele>379</ele>
        <time>2015-11-15T08:05:56.000Z</time>
      </trkpt>
      <trkpt lat="47.48409" lon="6.69639">
        <ele>380</ele>
        <time>2015-11-15T08:05:57.000Z</time>
      </trkpt>
      <trkpt lat="47.4841" lon="6.69644">
        <ele>380</ele>
        <time>2015-11-15T08:05:58.000Z</time>
      </trkpt>
      <trkpt lat="47.48411" lon="6.6965">
        <ele>380</ele>
        <time>2015-11-15T08:05:59.000Z</time>
      </trkpt>
      <trkpt lat="47.48413" lon="6.69656">
        <ele>380</ele>
        <time>2015-11-15T08:06:00.000Z</time>
      </trkpt>
      <trkpt lat="47.48414" lon="6.69661">
        <ele>381</ele>
        <time>2015-11-15T08:06:01.000Z</time>
      </trkpt>
      <trkpt lat="47.48415" lon="6.69668">
        <ele>381</ele>
        <time>2015-11-15T08:06:02.000Z</time>
      </trkpt>
      <trkpt lat="47.48417" lon="6.69674">
        <ele>380</ele>
        <time>2015-11-15T08:06:03.000Z</time>
      </trkpt>
      <trkpt lat="47.48418" lon="6.6968">
        <ele>382</ele>
        <time>2015-11-15T08:06:04.000Z</time>
      </trkpt>
      <trkpt lat="47.48419" lon="6.69686">
        <ele>382</ele>
        <time>2015-11-15T08:06:05.000Z</time>
      </trkpt>
      <trkpt lat="47.48421" lon="6.69691">
        <ele>382</ele>
        <time>2015-11-15T08:06:06.000Z</time>
      </trkpt>
      <trkpt lat="47.48422" lon="6.69696">
        <ele>382</ele>
        <time>2015-11-15T08:06:07.000Z</time>
      </trkpt>
      <trkpt lat="47.48424" lon="6.69701">
        <ele>382</ele>
        <time>2015-11-15T08:06:08.000Z</time>
      </trkpt>
      <trkpt lat="47.48426" lon="6.69707">
        <ele>382</ele>
        <time>2015-11-15T08:06:09.000Z</time>
      </trkpt>
      <trkpt lat="47.48428" lon="6.69714">
        <ele>382</ele>
        <time>2015-11-15T08:06:10.000Z</time>
      </trkpt>
      <trkpt lat="47.48431" lon="6.6972">
        <ele>382</ele>
        <time>2015-11-15T08:06:11.000Z</time>
      </trkpt>
      <trkpt lat="47.48433" lon="6.69726">
        <ele>382</ele>
        <time>2015-11-15T08:06:12.000Z</time>
      </trkpt>
      <trkpt lat="47.48434" lon="6.69733">
        <ele>382</ele>
        <time>2015-11-15T08:06:13.000Z</time>
      </trkpt>
      <trkpt lat="47.48436" lon="6.69739">
        <ele>382</ele>
        <time>2015-11-15T08:06:14.000Z</time>
      </trkpt>
      <trkpt lat="47.48436" lon="6.69745">
        <ele>382</ele>
        <time>2015-11-15T08:06:15.000Z</time>
      </trkpt>
      <trkpt lat="47.48435" lon="6.69751">
        <ele>380</ele>
        <time>2015-11-15T08:06:16.000Z</time>
      </trkpt>
      <trkpt lat="47.48433" lon="6.69756">
        <ele>380</ele>
        <time>2015-11-15T08:06:17.000Z</time>
      </trkpt>
      <trkpt lat="47.48431" lon="6.69761">
        <ele>380</ele>
        <time>2015-11-15T08:06:18.000Z</time>
      </trkpt>
      <trkpt lat="47.48427" lon="6.69763">
        <ele>380</ele>
        <time>2015-11-15T08:06:19.000Z</time>
      </trkpt>
      <trkpt lat="47.48423" lon="6.69765">
        <ele>380</ele>
        <time>2015-11-15T08:06:20.000Z</time>
      </trkpt>
      <trkpt lat="47.48419" lon="6.69765">
        <ele>380</ele>
        <time>2015-11-15T08:06:21.000Z</time>
      </trkpt>
      <trkpt lat="47.48408" lon="6.69766">
        <ele>378</ele>
        <time>2015-11-15T08:06:22.000Z</time>
      </trkpt>
      <trkpt lat="47.48404" lon="6.69767">
        <ele>377</ele>
        <time>2015-11-15T08:06:23.000Z</time>
      </trkpt>
      <trkpt lat="47.48401" lon="6.69769">
        <ele>377</ele>
        <time>2015-11-15T08:06:24.000Z</time>
      </trkpt>
      <trkpt lat="47.48397" lon="6.69772">
        <ele>377</ele>
        <time>2015-11-15T08:06:25.000Z</time>
      </trkpt>
      <trkpt lat="47.48393" lon="6.69774">
        <ele>377</ele>
        <time>2015-11-15T08:06:26.000Z</time>
      </trkpt>
      <trkpt lat="47.4839" lon="6.69777">
        <ele>376</ele>
        <time>2015-11-15T08:06:27.000Z</time>
      </trkpt>
      <trkpt lat="47.48387" lon="6.69783">
        <ele>376</ele>
        <time>2015-11-15T08:06:28.000Z</time>
      </trkpt>
      <trkpt lat="47.48385" lon="6.69791">
        <ele>376</ele>
        <time>2015-11-15T08:06:29.000Z</time>
      </trkpt>
      <trkpt lat="47.4838" lon="6.69798">
        <ele>375</ele>
        <time>2015-11-15T08:06:30.000Z</time>
      </trkpt>
      <trkpt lat="47.48377" lon="6.69805">
        <ele>375</ele>
        <time>2015-11-15T08:06:31.000Z</time>
      </trkpt>
      <trkpt lat="47.48376" lon="6.69809">
        <ele>375</ele>
        <time>2015-11-15T08:06:32.000Z</time>
      </trkpt>
      <trkpt lat="47.48376" lon="6.69812">
        <ele>375</ele>
        <time>2015-11-15T08:06:33.000Z</time>
      </trkpt>
      <trkpt lat="47.48373" lon="6.69816">
        <ele>375</ele>
        <time>2015-11-15T08:06:35.000Z</time>
      </trkpt>
      <trkpt lat="47.48372" lon="6.69817">
        <ele>375</ele>
        <time>2015-11-15T08:06:36.000Z</time>
      </trkpt>
      <trkpt lat="47.4837" lon="6.69818">
        <ele>375</ele>
        <time>2015-11-15T08:06:37.000Z</time>
      </trkpt>
      <trkpt lat="47.48367" lon="6.69818">
        <ele>375</ele>
        <time>2015-11-15T08:06:38.000Z</time>
      </trkpt>
      <trkpt lat="47.48363" lon="6.69818">
        <ele>375</ele>
        <time>2015-11-15T08:06:40.000Z</time>
      </trkpt>
      <trkpt lat="47.48361" lon="6.69818">
        <ele>375</ele>
        <time>2015-11-15T08:06:41.000Z</time>
      </trkpt>
      <trkpt lat="47.48357" lon="6.69819">
        <ele>374</ele>
        <time>2015-11-15T08:06:46.000Z</time>
      </trkpt>
      <trkpt lat="47.48357" lon="6.69819">
        <ele>374</ele>
        <time>2015-11-15T08:06:47.000Z</time>
      </trkpt>
      <trkpt lat="47.48353" lon="6.69822">
        <ele>374</ele>
        <time>2015-11-15T08:08:30.000Z</time>
      </trkpt>
      <trkpt lat="47.48352" lon="6.69824">
        <ele>374</ele>
        <time>2015-11-15T08:08:31.000Z</time>
      </trkpt>
      <trkpt lat="47.4835" lon="6.69827">
        <ele>374</ele>
        <time>2015-11-15T08:08:32.000Z</time>
      </trkpt>
      <trkpt lat="47.48347" lon="6.69831">
        <ele>374</ele>
        <time>2015-11-15T08:08:33.000Z</time>
      </trkpt>
      <trkpt lat="47.48345" lon="6.69834">
        <ele>372</ele>
        <time>2015-11-15T08:08:34.000Z</time>
      </trkpt>
      <trkpt lat="47.48342" lon="6.69838">
        <ele>372</ele>
        <time>2015-11-15T08:08:35.000Z</time>
      </trkpt>
      <trkpt lat="47.48339" lon="6.69841">
        <ele>372</ele>
        <time>2015-11-15T08:08:36.000Z</time>
      </trkpt>
      <trkpt lat="47.48335" lon="6.69844">
        <ele>372</ele>
        <time>2015-11-15T08:08:37.000Z</time>
      </trkpt>
      <trkpt lat="47.48325" lon="6.69853">
        <ele>371</ele>
        <time>2015-11-15T08:08:38.000Z</time>
      </trkpt>
      <trkpt lat="47.4832" lon="6.69857">
        <ele>370</ele>
        <time>2015-11-15T08:08:39.000Z</time>
      </trkpt>
      <trkpt lat="47.48315" lon="6.6986">
        <ele>370</ele>
        <time>2015-11-15T08:08:40.000Z</time>
      </trkpt>
      <trkpt lat="47.48312" lon="6.69859">
        <ele>370</ele>
        <time>2015-11-15T08:08:41.000Z</time>
      </trkpt>
      <trkpt lat="47.48306" lon="6.69857">
        <ele>370</ele>
        <time>2015-11-15T08:08:42.000Z</time>
      </trkpt>
      <trkpt lat="47.48301" lon="6.69857">
        <ele>370</ele>
        <time>2015-11-15T08:08:43.000Z</time>
      </trkpt>
      <trkpt lat="47.48298" lon="6.69856">
        <ele>369</ele>
        <time>2015-11-15T08:08:44.000Z</time>
      </trkpt>
      <trkpt lat="47.48295" lon="6.69855">
        <ele>369</ele>
        <time>2015-11-15T08:08:45.000Z</time>
      </trkpt>
      <trkpt lat="47.48293" lon="6.69857">
        <ele>369</ele>
        <time>2015-11-15T08:08:46.000Z</time>
      </trkpt>
      <trkpt lat="47.48289" lon="6.69859">
        <ele>369</ele>
        <time>2015-11-15T08:08:51.000Z</time>
      </trkpt>
      <trkpt lat="47.48288" lon="6.6986">
        <ele>369</ele>
        <time>2015-11-15T08:08:52.000Z</time>
      </trkpt>
      <trkpt lat="47.48286" lon="6.69862">
        <ele>369</ele>
        <time>2015-11-15T08:08:55.000Z</time>
      </trkpt>
      <trkpt lat="47.48284" lon="6.69864">
        <ele>369</ele>
        <time>2015-11-15T08:08:56.000Z</time>
      </trkpt>
      <trkpt lat="47.4828" lon="6.69865">
        <ele>369</ele>
        <time>2015-11-15T08:09:01.000Z</time>
      </trkpt>
      <trkpt lat="47.48278" lon="6.69866">
        <ele>369</ele>
        <time>2015-11-15T08:09:02.000Z</time>
      </trkpt>
      <trkpt lat="47.48274" lon="6.69866">
        <ele>368</ele>
        <time>2015-11-15T08:09:04.000Z</time>
      </trkpt>
      <trkpt lat="47.48271" lon="6.69867">
        <ele>368</ele>
        <time>2015-11-15T08:09:05.000Z</time>
      </trkpt>
      <trkpt lat="47.48269" lon="6.69869">
        <ele>368</ele>
        <time>2015-11-15T08:09:06.000Z</time>
      </trkpt>
      <trkpt lat="47.48266" lon="6.6987">
        <ele>368</ele>
        <time>2015-11-15T08:09:07.000Z</time>
      </trkpt>
      <trkpt lat="47.48263" lon="6.69872">
        <ele>368</ele>
        <time>2015-11-15T08:09:08.000Z</time>
      </trkpt>
      <trkpt lat="47.4826" lon="6.69874">
        <ele>368</ele>
        <time>2015-11-15T08:09:09.000Z</time>
      </trkpt>
      <trkpt lat="47.48256" lon="6.69876">
        <ele>368</ele>
        <time>2015-11-15T08:09:10.000Z</time>
      </trkpt>
      <trkpt lat="47.48253" lon="6.69878">
        <ele>368</ele>
        <time>2015-11-15T08:09:11.000Z</time>
      </trkpt>
      <trkpt lat="47.4825" lon="6.69881">
        <ele>364</ele>
        <time>2015-11-15T08:09:12.000Z</time>
      </trkpt>
      <trkpt lat="47.48247" lon="6.69884">
        <ele>364</ele>
        <time>2015-11-15T08:09:13.000Z</time>
      </trkpt>
      <trkpt lat="47.48244" lon="6.69888">
        <ele>364</ele>
        <time>2015-11-15T08:09:14.000Z</time>
      </trkpt>
      <trkpt lat="47.48241" lon="6.69892">
        <ele>364</ele>
        <time>2015-11-15T08:09:15.000Z</time>
      </trkpt>
      <trkpt lat="47.48238" lon="6.69896">
        <ele>364</ele>
        <time>2015-11-15T08:09:16.000Z</time>
      </trkpt>
      <trkpt lat="47.48235" lon="6.69899">
        <ele>364</ele>
        <time>2015-11-15T08:09:17.000Z</time>
      </trkpt>
      <trkpt lat="47.48231" lon="6.69901">
        <ele>364</ele>
        <time>2015-11-15T08:09:18.000Z</time>
      </trkpt>
      <trkpt lat="47.48226" lon="6.69902">
        <ele>363</ele>
        <time>2015-11-15T08:09:19.000Z</time>
      </trkpt>
      <trkpt lat="47.48222" lon="6.69902">
        <ele>363</ele>
        <time>2015-11-15T08:09:20.000Z</time>
      </trkpt>
      <trkpt lat="47.48219" lon="6.69901">
        <ele>363</ele>
        <time>2015-11-15T08:09:21.000Z</time>
      </trkpt>
      <trkpt lat="47.48216" lon="6.69898">
        <ele>362</ele>
        <time>2015-11-15T08:09:24.000Z</time>
      </trkpt>
      <trkpt lat="47.48215" lon="6.69897">
        <ele>362</ele>
        <time>2015-11-15T08:09:25.000Z</time>
      </trkpt>
      <trkpt lat="47.48211" lon="6.69895">
        <ele>362</ele>
        <time>2015-11-15T08:09:43.000Z</time>
      </trkpt>
      <trkpt lat="47.4821" lon="6.69896">
        <ele>362</ele>
        <time>2015-11-15T08:09:44.000Z</time>
      </trkpt>
      <trkpt lat="47.48207" lon="6.69898">
        <ele>362</ele>
        <time>2015-11-15T08:09:48.000Z</time>
      </trkpt>
      <trkpt lat="47.48206" lon="6.69899">
        <ele>361</ele>
        <time>2015-11-15T08:09:49.000Z</time>
      </trkpt>
      <trkpt lat="47.48203" lon="6.69902">
        <ele>361</ele>
        <time>2015-11-15T08:09:51.000Z</time>
      </trkpt>
      <trkpt lat="47.48202" lon="6.69904">
        <ele>361</ele>
        <time>2015-11-15T08:09:52.000Z</time>
      </trkpt>
      <trkpt lat="47.48199" lon="6.69908">
        <ele>361</ele>
        <time>2015-11-15T08:09:54.000Z</time>
      </trkpt>
      <trkpt lat="47.48198" lon="6.6991">
        <ele>361</ele>
        <time>2015-11-15T08:09:55.000Z</time>
      </trkpt>
      <trkpt lat="47.48197" lon="6.69916">
        <ele>361</ele>
        <time>2015-11-15T08:09:57.000Z</time>
      </trkpt>
      <trkpt lat="47.48196" lon="6.6992">
        <ele>360</ele>
        <time>2015-11-15T08:09:58.000Z</time>
      </trkpt>
      <trkpt lat="47.48196" lon="6.69924">
        <ele>360</ele>
        <time>2015-11-15T08:09:59.000Z</time>
      </trkpt>
      <trkpt lat="47.48195" lon="6.69929">
        <ele>360</ele>
        <time>2015-11-15T08:10:00.000Z</time>
      </trkpt>
      <trkpt lat="47.48194" lon="6.69934">
        <ele>360</ele>
        <time>2015-11-15T08:10:01.000Z</time>
      </trkpt>
      <trkpt lat="47.48193" lon="6.69939">
        <ele>360</ele>
        <time>2015-11-15T08:10:02.000Z</time>
      </trkpt>
      <trkpt lat="47.4819" lon="6.69943">
        <ele>360</ele>
        <time>2015-11-15T08:10:03.000Z</time>
      </trkpt>
      <trkpt lat="47.48187" lon="6.69946">
        <ele>359</ele>
        <time>2015-11-15T08:10:04.000Z</time>
      </trkpt>
      <trkpt lat="47.48183" lon="6.69948">
        <ele>359</ele>
        <time>2015-11-15T08:10:05.000Z</time>
      </trkpt>
      <trkpt lat="47.48179" lon="6.69949">
        <ele>359</ele>
        <time>2015-11-15T08:10:06.000Z</time>
      </trkpt>
      <trkpt lat="47.48175" lon="6.69951">
        <ele>359</ele>
        <time>2015-11-15T08:10:07.000Z</time>
      </trkpt>
      <trkpt lat="47.48171" lon="6.69952">
        <ele>359</ele>
        <time>2015-11-15T08:10:08.000Z</time>
      </trkpt>
      <trkpt lat="47.48167" lon="6.69953">
        <ele>359</ele>
        <time>2015-11-15T08:10:09.000Z</time>
      </trkpt>
      <trkpt lat="47.48163" lon="6.69952">
        <ele>352</ele>
        <time>2015-11-15T08:10:10.000Z</time>
      </trkpt>
      <trkpt lat="47.4816" lon="6.69952">
        <ele>352</ele>
        <time>2015-11-15T08:10:11.000Z</time>
      </trkpt>
      <trkpt lat="47.48157" lon="6.69951">
        <ele>352</ele>
        <time>2015-11-15T08:10:12.000Z</time>
      </trkpt>
      <trkpt lat="47.48153" lon="6.69953">
        <ele>351</ele>
        <time>2015-11-15T08:10:14.000Z</time>
      </trkpt>
      <trkpt lat="47.48152" lon="6.69955">
        <ele>351</ele>
        <time>2015-11-15T08:10:15.000Z</time>
      </trkpt>
      <trkpt lat="47.48149" lon="6.69959">
        <ele>351</ele>
        <time>2015-11-15T08:10:17.000Z</time>
      </trkpt>
      <trkpt lat="47.48148" lon="6.6996">
        <ele>351</ele>
        <time>2015-11-15T08:10:18.000Z</time>
      </trkpt>
      <trkpt lat="47.48145" lon="6.69962">
        <ele>351</ele>
        <time>2015-11-15T08:10:20.000Z</time>
      </trkpt>
      <trkpt lat="47.48143" lon="6.69963">
        <ele>351</ele>
        <time>2015-11-15T08:10:21.000Z</time>
      </trkpt>
      <trkpt lat="47.48141" lon="6.69963">
        <ele>351</ele>
        <time>2015-11-15T08:10:22.000Z</time>
      </trkpt>
      <trkpt lat="47.48138" lon="6.69964">
        <ele>350</ele>
        <time>2015-11-15T08:10:23.000Z</time>
      </trkpt>
      <trkpt lat="47.48135" lon="6.69966">
        <ele>350</ele>
        <time>2015-11-15T08:10:24.000Z</time>
      </trkpt>
      <trkpt lat="47.48132" lon="6.69968">
        <ele>350</ele>
        <time>2015-11-15T08:10:25.000Z</time>
      </trkpt>
      <trkpt lat="47.48128" lon="6.6997">
        <ele>350</ele>
        <time>2015-11-15T08:10:26.000Z</time>
      </trkpt>
      <trkpt lat="47.48124" lon="6.69972">
        <ele>349</ele>
        <time>2015-11-15T08:10:27.000Z</time>
      </trkpt>
      <trkpt lat="47.48121" lon="6.69975">
        <ele>349</ele>
        <time>2015-11-15T08:10:28.000Z</time>
      </trkpt>
      <trkpt lat="47.48117" lon="6.69978">
        <ele>349</ele>
        <time>2015-11-15T08:10:29.000Z</time>
      </trkpt>
      <trkpt lat="47.48114" lon="6.6998">
        <ele>348</ele>
        <time>2015-11-15T08:10:30.000Z</time>
      </trkpt>
      <trkpt lat="47.48111" lon="6.69982">
        <ele>348</ele>
        <time>2015-11-15T08:10:31.000Z</time>
      </trkpt>
      <trkpt lat="47.48108" lon="6.69984">
        <ele>347</ele>
        <time>2015-11-15T08:10:32.000Z</time>
      </trkpt>
      <trkpt lat="47.48105" lon="6.69986">
        <ele>347</ele>
        <time>2015-11-15T08:10:33.000Z</time>
      </trkpt>
      <trkpt lat="47.48102" lon="6.69987">
        <ele>347</ele>
        <time>2015-11-15T08:10:34.000Z</time>
      </trkpt>
      <trkpt lat="47.48099" lon="6.6999">
        <ele>346</ele>
        <time>2015-11-15T08:10:35.000Z</time>
      </trkpt>
      <trkpt lat="47.48095" lon="6.69992">
        <ele>345</ele>
        <time>2015-11-15T08:10:36.000Z</time>
      </trkpt>
      <trkpt lat="47.48086" lon="6.69999">
        <ele>343</ele>
        <time>2015-11-15T08:10:37.000Z</time>
      </trkpt>
      <trkpt lat="47.4808" lon="6.70001">
        <ele>341</ele>
        <time>2015-11-15T08:10:38.000Z</time>
      </trkpt>
      <trkpt lat="47.48075" lon="6.70001">
        <ele>341</ele>
        <time>2015-11-15T08:10:39.000Z</time>
      </trkpt>
      <trkpt lat="47.4807" lon="6.70002">
        <ele>340</ele>
        <time>2015-11-15T08:10:40.000Z</time>
      </trkpt>
      <trkpt lat="47.48063" lon="6.70005">
        <ele>339</ele>
        <time>2015-11-15T08:10:41.000Z</time>
      </trkpt>
      <trkpt lat="47.48058" lon="6.70009">
        <ele>339</ele>
        <time>2015-11-15T08:10:42.000Z</time>
      </trkpt>
      <trkpt lat="47.48053" lon="6.70011">
        <ele>339</ele>
        <time>2015-11-15T08:10:43.000Z</time>
      </trkpt>
      <trkpt lat="47.48049" lon="6.70015">
        <ele>338</ele>
        <time>2015-11-15T08:10:44.000Z</time>
      </trkpt>
      <trkpt lat="47.48044" lon="6.70018">
        <ele>338</ele>
        <time>2015-11-15T08:10:45.000Z</time>
      </trkpt>
      <trkpt lat="47.4804" lon="6.70022">
        <ele>338</ele>
        <time>2015-11-15T08:10:46.000Z</time>
      </trkpt>
      <trkpt lat="47.48035" lon="6.70024">
        <ele>337</ele>
        <time>2015-11-15T08:10:47.000Z</time>
      </trkpt>
      <trkpt lat="47.48029" lon="6.7003">
        <ele>337</ele>
        <time>2015-11-15T08:10:48.000Z</time>
      </trkpt>
      <trkpt lat="47.48022" lon="6.70032">
        <ele>337</ele>
        <time>2015-11-15T08:10:49.000Z</time>
      </trkpt>
      <trkpt lat="47.48017" lon="6.70034">
        <ele>337</ele>
        <time>2015-11-15T08:10:50.000Z</time>
      </trkpt>
      <trkpt lat="47.48012" lon="6.70036">
        <ele>337</ele>
        <time>2015-11-15T08:10:51.000Z</time>
      </trkpt>
      <trkpt lat="47.48007" lon="6.70038">
        <ele>337</ele>
        <time>2015-11-15T08:10:52.000Z</time>
      </trkpt>
      <trkpt lat="47.48002" lon="6.70038">
        <ele>336</ele>
        <time>2015-11-15T08:10:53.000Z</time>
      </trkpt>
      <trkpt lat="47.47997" lon="6.70039">
        <ele>335</ele>
        <time>2015-11-15T08:10:54.000Z</time>
      </trkpt>
      <trkpt lat="47.47993" lon="6.70038">
        <ele>335</ele>
        <time>2015-11-15T08:10:55.000Z</time>
      </trkpt>
      <trkpt lat="47.47988" lon="6.70039">
        <ele>335</ele>
        <time>2015-11-15T08:10:56.000Z</time>
      </trkpt>
      <trkpt lat="47.47985" lon="6.7004">
        <ele>335</ele>
        <time>2015-11-15T08:10:57.000Z</time>
      </trkpt>
      <trkpt lat="47.4798" lon="6.70042">
        <ele>334</ele>
        <time>2015-11-15T08:11:01.000Z</time>
      </trkpt>
      <trkpt lat="47.4798" lon="6.70042">
        <ele>335</ele>
        <time>2015-11-15T08:11:02.000Z</time>
      </trkpt>
      <trkpt lat="47.47976" lon="6.70041">
        <ele>335</ele>
        <time>2015-11-15T08:11:11.000Z</time>
      </trkpt>
      <trkpt lat="47.47975" lon="6.70041">
        <ele>335</ele>
        <time>2015-11-15T08:11:12.000Z</time>
      </trkpt>
      <trkpt lat="47.47971" lon="6.70043">
        <ele>334</ele>
        <time>2015-11-15T08:11:50.000Z</time>
      </trkpt>
      <trkpt lat="47.47971" lon="6.70043">
        <ele>334</ele>
        <time>2015-11-15T08:11:51.000Z</time>
      </trkpt>
      <trkpt lat="47.47967" lon="6.70045">
        <ele>334</ele>
        <time>2015-11-15T08:11:55.000Z</time>
      </trkpt>
      <trkpt lat="47.47965" lon="6.70047">
        <ele>334</ele>
        <time>2015-11-15T08:11:56.000Z</time>
      </trkpt>
      <trkpt lat="47.47963" lon="6.7005">
        <ele>334</ele>
        <time>2015-11-15T08:11:57.000Z</time>
      </trkpt>
      <trkpt lat="47.47962" lon="6.70053">
        <ele>334</ele>
        <time>2015-11-15T08:11:58.000Z</time>
      </trkpt>
      <trkpt lat="47.4796" lon="6.70055">
        <ele>334</ele>
        <time>2015-11-15T08:11:59.000Z</time>
      </trkpt>
      <trkpt lat="47.47959" lon="6.70059">
        <ele>334</ele>
        <time>2015-11-15T08:12:00.000Z</time>
      </trkpt>
      <trkpt lat="47.47957" lon="6.70063">
        <ele>334</ele>
        <time>2015-11-15T08:12:01.000Z</time>
      </trkpt>
      <trkpt lat="47.47956" lon="6.70067">
        <ele>334</ele>
        <time>2015-11-15T08:12:02.000Z</time>
      </trkpt>
      <trkpt lat="47.47955" lon="6.70072">
        <ele>334</ele>
        <time>2015-11-15T08:12:03.000Z</time>
      </trkpt>
      <trkpt lat="47.47954" lon="6.70077">
        <ele>334</ele>
        <time>2015-11-15T08:12:04.000Z</time>
      </trkpt>
      <trkpt lat="47.47952" lon="6.70081">
        <ele>334</ele>
        <time>2015-11-15T08:12:05.000Z</time>
      </trkpt>
      <trkpt lat="47.47949" lon="6.70085">
        <ele>334</ele>
        <time>2015-11-15T08:12:06.000Z</time>
      </trkpt>
      <trkpt lat="47.47946" lon="6.70088">
        <ele>334</ele>
        <time>2015-11-15T08:12:07.000Z</time>
      </trkpt>
      <trkpt lat="47.47943" lon="6.7009">
        <ele>334</ele>
        <time>2015-11-15T08:12:08.000Z</time>
      </trkpt>
      <trkpt lat="47.4794" lon="6.70093">
        <ele>334</ele>
        <time>2015-11-15T08:12:09.000Z</time>
      </trkpt>
      <trkpt lat="47.47937" lon="6.70095">
        <ele>334</ele>
        <time>2015-11-15T08:12:10.000Z</time>
      </trkpt>
      <trkpt lat="47.47934" lon="6.70097">
        <ele>334</ele>
        <time>2015-11-15T08:12:11.000Z</time>
      </trkpt>
      <trkpt lat="47.47931" lon="6.70099">
        <ele>334</ele>
        <time>2015-11-15T08:12:12.000Z</time>
      </trkpt>
      <trkpt lat="47.47928" lon="6.701">
        <ele>334</ele>
        <time>2015-11-15T08:12:13.000Z</time>
      </trkpt>
      <trkpt lat="47.47925" lon="6.70101">
        <ele>334</ele>
        <time>2015-11-15T08:12:14.000Z</time>
      </trkpt>
      <trkpt lat="47.47922" lon="6.70102">
        <ele>334</ele>
        <time>2015-11-15T08:12:15.000Z</time>
      </trkpt>
      <trkpt lat="47.47918" lon="6.70103">
        <ele>334</ele>
        <time>2015-11-15T08:12:16.000Z</time>
      </trkpt>
      <trkpt lat="47.47914" lon="6.70106">
        <ele>334</ele>
        <time>2015-11-15T08:12:17.000Z</time>
      </trkpt>
      <trkpt lat="47.4791" lon="6.70109">
        <ele>334</ele>
        <time>2015-11-15T08:12:18.000Z</time>
      </trkpt>
      <trkpt lat="47.47907" lon="6.70113">
        <ele>334</ele>
        <time>2015-11-15T08:12:19.000Z</time>
      </trkpt>
      <trkpt lat="47.47904" lon="6.70116">
        <ele>334</ele>
        <time>2015-11-15T08:12:20.000Z</time>
      </trkpt>
      <trkpt lat="47.47901" lon="6.7012">
        <ele>334</ele>
        <time>2015-11-15T08:12:21.000Z</time>
      </trkpt>
      <trkpt lat="47.47898" lon="6.70123">
        <ele>334</ele>
        <time>2015-11-15T08:12:22.000Z</time>
      </trkpt>
      <trkpt lat="47.47895" lon="6.70127">
        <ele>334</ele>
        <time>2015-11-15T08:12:23.000Z</time>
      </trkpt>
      <trkpt lat="47.47893" lon="6.7013">
        <ele>334</ele>
        <time>2015-11-15T08:12:24.000Z</time>
      </trkpt>
      <trkpt lat="47.4789" lon="6.70133">
        <ele>334</ele>
        <time>2015-11-15T08:12:25.000Z</time>
      </trkpt>
      <trkpt lat="47.47888" lon="6.70136">
        <ele>334</ele>
        <time>2015-11-15T08:12:26.000Z</time>
      </trkpt>
      <trkpt lat="47.47887" lon="6.70138">
        <ele>334</ele>
        <time>2015-11-15T08:12:27.000Z</time>
      </trkpt>
      <trkpt lat="47.47885" lon="6.70141">
        <ele>334</ele>
        <time>2015-11-15T08:12:28.000Z</time>
      </trkpt>
      <trkpt lat="47.47883" lon="6.70143">
        <ele>334</ele>
        <time>2015-11-15T08:12:29.000Z</time>
      </trkpt>
      <trkpt lat="47.4788" lon="6.70146">
        <ele>334</ele>
        <time>2015-11-15T08:12:30.000Z</time>
      </trkpt>
      <trkpt lat="47.47876" lon="6.70149">
        <ele>334</ele>
        <time>2015-11-15T08:12:31.000Z</time>
      </trkpt>
      <trkpt lat="47.47872" lon="6.70152">
        <ele>334</ele>
        <time>2015-11-15T08:12:32.000Z</time>
      </trkpt>
      <trkpt lat="47.47867" lon="6.70155">
        <ele>334</ele>
        <time>2015-11-15T08:12:33.000Z</time>
      </trkpt>
      <trkpt lat="47.47863" lon="6.70158">
        <ele>334</ele>
        <time>2015-11-15T08:12:34.000Z</time>
      </trkpt>
      <trkpt lat="47.47858" lon="6.70162">
        <ele>334</ele>
        <time>2015-11-15T08:12:35.000Z</time>
      </trkpt>
      <trkpt lat="47.47854" lon="6.70166">
        <ele>335</ele>
        <time>2015-11-15T08:12:36.000Z</time>
      </trkpt>
      <trkpt lat="47.47851" lon="6.70171">
        <ele>334</ele>
        <time>2015-11-15T08:12:37.000Z</time>
      </trkpt>
      <trkpt lat="47.47847" lon="6.70175">
        <ele>334</ele>
        <time>2015-11-15T08:12:38.000Z</time>
      </trkpt>
      <trkpt lat="47.47843" lon="6.70179">
        <ele>334</ele>
        <time>2015-11-15T08:12:39.000Z</time>
      </trkpt>
      <trkpt lat="47.4784" lon="6.70183">
        <ele>334</ele>
        <time>2015-11-15T08:12:40.000Z</time>
      </trkpt>
      <trkpt lat="47.47836" lon="6.70186">
        <ele>334</ele>
        <time>2015-11-15T08:12:41.000Z</time>
      </trkpt>
      <trkpt lat="47.47833" lon="6.7019">
        <ele>334</ele>
        <time>2015-11-15T08:12:42.000Z</time>
      </trkpt>
      <trkpt lat="47.47829" lon="6.70193">
        <ele>334</ele>
        <time>2015-11-15T08:12:43.000Z</time>
      </trkpt>
      <trkpt lat="47.47826" lon="6.70198">
        <ele>333</ele>
        <time>2015-11-15T08:12:44.000Z</time>
      </trkpt>
      <trkpt lat="47.47823" lon="6.70204">
        <ele>333</ele>
        <time>2015-11-15T08:12:45.000Z</time>
      </trkpt>
      <trkpt lat="47.4782" lon="6.7021">
        <ele>333</ele>
        <time>2015-11-15T08:12:46.000Z</time>
      </trkpt>
      <trkpt lat="47.47817" lon="6.70217">
        <ele>333</ele>
        <time>2015-11-15T08:12:47.000Z</time>
      </trkpt>
      <trkpt lat="47.47813" lon="6.70222">
        <ele>333</ele>
        <time>2015-11-15T08:12:48.000Z</time>
      </trkpt>
      <trkpt lat="47.47808" lon="6.70226">
        <ele>333</ele>
        <time>2015-11-15T08:12:49.000Z</time>
      </trkpt>
      <trkpt lat="47.47803" lon="6.7023">
        <ele>333</ele>
        <time>2015-11-15T08:12:50.000Z</time>
      </trkpt>
      <trkpt lat="47.47797" lon="6.70232">
        <ele>333</ele>
        <time>2015-11-15T08:12:51.000Z</time>
      </trkpt>
      <trkpt lat="47.47784" lon="6.70235">
        <ele>332</ele>
        <time>2015-11-15T08:12:52.000Z</time>
      </trkpt>
      <trkpt lat="47.47777" lon="6.70236">
        <ele>332</ele>
        <time>2015-11-15T08:12:53.000Z</time>
      </trkpt>
      <trkpt lat="47.47771" lon="6.70237">
        <ele>332</ele>
        <time>2015-11-15T08:12:54.000Z</time>
      </trkpt>
      <trkpt lat="47.47765" lon="6.70239">
        <ele>332</ele>
        <time>2015-11-15T08:12:55.000Z</time>
      </trkpt>
      <trkpt lat="47.47761" lon="6.7024">
        <ele>332</ele>
        <time>2015-11-15T08:12:56.000Z</time>
      </trkpt>
      <trkpt lat="47.47756" lon="6.70242">
        <ele>332</ele>
        <time>2015-11-15T08:12:57.000Z</time>
      </trkpt>
      <trkpt lat="47.47754" lon="6.70246">
        <ele>331</ele>
        <time>2015-11-15T08:12:58.000Z</time>
      </trkpt>
      <trkpt lat="47.47751" lon="6.70248">
        <ele>331</ele>
        <time>2015-11-15T08:12:59.000Z</time>
      </trkpt>
      <trkpt lat="47.47749" lon="6.70253">
        <ele>331</ele>
        <time>2015-11-15T08:13:00.000Z</time>
      </trkpt>
      <trkpt lat="47.47747" lon="6.70258">
        <ele>331</ele>
        <time>2015-11-15T08:13:01.000Z</time>
      </trkpt>
      <trkpt lat="47.47746" lon="6.70265">
        <ele>331</ele>
        <time>2015-11-15T08:13:02.000Z</time>
      </trkpt>
      <trkpt lat="47.47746" lon="6.70272">
        <ele>331</ele>
        <time>2015-11-15T08:13:03.000Z</time>
      </trkpt>
      <trkpt lat="47.47745" lon="6.70279">
        <ele>331</ele>
        <time>2015-11-15T08:13:04.000Z</time>
      </trkpt>
      <trkpt lat="47.47745" lon="6.70286">
        <ele>331</ele>
        <time>2015-11-15T08:13:05.000Z</time>
      </trkpt>
      <trkpt lat="47.47745" lon="6.70293">
        <ele>331</ele>
        <time>2015-11-15T08:13:06.000Z</time>
      </trkpt>
      <trkpt lat="47.47745" lon="6.703">
        <ele>330</ele>
        <time>2015-11-15T08:13:07.000Z</time>
      </trkpt>
      <trkpt lat="47.47742" lon="6.70304">
        <ele>330</ele>
        <time>2015-11-15T08:13:08.000Z</time>
      </trkpt>
      <trkpt lat="47.47738" lon="6.70305">
        <ele>330</ele>
        <time>2015-11-15T08:13:09.000Z</time>
      </trkpt>
      <trkpt lat="47.47734" lon="6.70306">
        <ele>330</ele>
        <time>2015-11-15T08:13:10.000Z</time>
      </trkpt>
      <trkpt lat="47.4773" lon="6.70305">
        <ele>331</ele>
        <time>2015-11-15T08:13:11.000Z</time>
      </trkpt>
      <trkpt lat="47.47726" lon="6.70303">
        <ele>331</ele>
        <time>2015-11-15T08:13:12.000Z</time>
      </trkpt>
      <trkpt lat="47.47722" lon="6.70301">
        <ele>331</ele>
        <time>2015-11-15T08:13:13.000Z</time>
      </trkpt>
      <trkpt lat="47.4772" lon="6.70298">
        <ele>331</ele>
        <time>2015-11-15T08:13:14.000Z</time>
      </trkpt>
      <trkpt lat="47.47717" lon="6.70295">
        <ele>331</ele>
        <time>2015-11-15T08:13:15.000Z</time>
      </trkpt>
      <trkpt lat="47.47714" lon="6.70293">
        <ele>331</ele>
        <time>2015-11-15T08:13:16.000Z</time>
      </trkpt>
      <trkpt lat="47.47712" lon="6.7029">
        <ele>331</ele>
        <time>2015-11-15T08:13:17.000Z</time>
      </trkpt>
      <trkpt lat="47.47708" lon="6.70288">
        <ele>331</ele>
        <time>2015-11-15T08:13:18.000Z</time>
      </trkpt>
      <trkpt lat="47.47705" lon="6.70285">
        <ele>331</ele>
        <time>2015-11-15T08:13:19.000Z</time>
      </trkpt>
      <trkpt lat="47.47701" lon="6.70283">
        <ele>331</ele>
        <time>2015-11-15T08:13:20.000Z</time>
      </trkpt>
      <trkpt lat="47.47697" lon="6.7028">
        <ele>331</ele>
        <time>2015-11-15T08:13:21.000Z</time>
      </trkpt>
      <trkpt lat="47.47692" lon="6.70278">
        <ele>331</ele>
        <time>2015-11-15T08:13:22.000Z</time>
      </trkpt>
      <trkpt lat="47.47684" lon="6.70271">
        <ele>332</ele>
        <time>2015-11-15T08:13:23.000Z</time>
      </trkpt>
      <trkpt lat="47.4768" lon="6.70267">
        <ele>332</ele>
        <time>2015-11-15T08:13:24.000Z</time>
      </trkpt>
      <trkpt lat="47.47675" lon="6.70264">
        <ele>332</ele>
        <time>2015-11-15T08:13:25.000Z</time>
      </trkpt>
      <trkpt lat="47.4767" lon="6.70261">
        <ele>332</ele>
        <time>2015-11-15T08:13:26.000Z</time>
      </trkpt>
      <trkpt lat="47.47667" lon="6.70258">
        <ele>333</ele>
        <time>2015-11-15T08:13:27.000Z</time>
      </trkpt>
      <trkpt lat="47.47663" lon="6.70255">
        <ele>333</ele>
        <time>2015-11-15T08:13:28.000Z</time>
      </trkpt>
      <trkpt lat="47.4766" lon="6.70253">
        <ele>333</ele>
        <time>2015-11-15T08:13:29.000Z</time>
      </trkpt>
      <trkpt lat="47.47656" lon="6.70249">
        <ele>333</ele>
        <time>2015-11-15T08:13:30.000Z</time>
      </trkpt>
      <trkpt lat="47.47652" lon="6.70247">
        <ele>333</ele>
        <time>2015-11-15T08:13:31.000Z</time>
      </trkpt>
      <trkpt lat="47.47648" lon="6.70245">
        <ele>333</ele>
        <time>2015-11-15T08:13:32.000Z</time>
      </trkpt>
      <trkpt lat="47.47644" lon="6.70242">
        <ele>334</ele>
        <time>2015-11-15T08:13:33.000Z</time>
      </trkpt>
      <trkpt lat="47.4764" lon="6.70237">
        <ele>334</ele>
        <time>2015-11-15T08:13:34.000Z</time>
      </trkpt>
      <trkpt lat="47.47637" lon="6.70234">
        <ele>334</ele>
        <time>2015-11-15T08:13:35.000Z</time>
      </trkpt>
      <trkpt lat="47.47633" lon="6.7023">
        <ele>334</ele>
        <time>2015-11-15T08:13:36.000Z</time>
      </trkpt>
      <trkpt lat="47.4763" lon="6.70226">
        <ele>334</ele>
        <time>2015-11-15T08:13:37.000Z</time>
      </trkpt>
      <trkpt lat="47.47626" lon="6.70222">
        <ele>334</ele>
        <time>2015-11-15T08:13:38.000Z</time>
      </trkpt>
      <trkpt lat="47.47623" lon="6.70219">
        <ele>334</ele>
        <time>2015-11-15T08:13:39.000Z</time>
      </trkpt>
      <trkpt lat="47.4762" lon="6.70216">
        <ele>334</ele>
        <time>2015-11-15T08:13:40.000Z</time>
      </trkpt>
      <trkpt lat="47.47615" lon="6.70209">
        <ele>334</ele>
        <time>2015-11-15T08:13:41.000Z</time>
      </trkpt>
      <trkpt lat="47.47609" lon="6.70202">
        <ele>334</ele>
        <time>2015-11-15T08:13:42.000Z</time>
      </trkpt>
      <trkpt lat="47.47604" lon="6.70198">
        <ele>334</ele>
        <time>2015-11-15T08:13:43.000Z</time>
      </trkpt>
      <trkpt lat="47.476" lon="6.70193">
        <ele>334</ele>
        <time>2015-11-15T08:13:44.000Z</time>
      </trkpt>
      <trkpt lat="47.47597" lon="6.70189">
        <ele>334</ele>
        <time>2015-11-15T08:13:45.000Z</time>
      </trkpt>
      <trkpt lat="47.47593" lon="6.70185">
        <ele>334</ele>
        <time>2015-11-15T08:13:46.000Z</time>
      </trkpt>
      <trkpt lat="47.47589" lon="6.7018">
        <ele>334</ele>
        <time>2015-11-15T08:13:47.000Z</time>
      </trkpt>
      <trkpt lat="47.47585" lon="6.70175">
        <ele>334</ele>
        <time>2015-11-15T08:13:48.000Z</time>
      </trkpt>
      <trkpt lat="47.47581" lon="6.70169">
        <ele>334</ele>
        <time>2015-11-15T08:13:49.000Z</time>
      </trkpt>
      <trkpt lat="47.47577" lon="6.70164">
        <ele>334</ele>
        <time>2015-11-15T08:13:50.000Z</time>
      </trkpt>
      <trkpt lat="47.47572" lon="6.70159">
        <ele>335</ele>
        <time>2015-11-15T08:13:51.000Z</time>
      </trkpt>
      <trkpt lat="47.47569" lon="6.70153">
        <ele>335</ele>
        <time>2015-11-15T08:13:52.000Z</time>
      </trkpt>
      <trkpt lat="47.47565" lon="6.70147">
        <ele>335</ele>
        <time>2015-11-15T08:13:53.000Z</time>
      </trkpt>
      <trkpt lat="47.47562" lon="6.70142">
        <ele>335</ele>
        <time>2015-11-15T08:13:54.000Z</time>
      </trkpt>
      <trkpt lat="47.47561" lon="6.7013">
        <ele>335</ele>
        <time>2015-11-15T08:13:55.000Z</time>
      </trkpt>
      <trkpt lat="47.47559" lon="6.70123">
        <ele>335</ele>
        <time>2015-11-15T08:13:56.000Z</time>
      </trkpt>
      <trkpt lat="47.47557" lon="6.70118">
        <ele>335</ele>
        <time>2015-11-15T08:13:57.000Z</time>
      </trkpt>
      <trkpt lat="47.47555" lon="6.70112">
        <ele>335</ele>
        <time>2015-11-15T08:13:58.000Z</time>
      </trkpt>
      <trkpt lat="47.47553" lon="6.70107">
        <ele>335</ele>
        <time>2015-11-15T08:13:59.000Z</time>
      </trkpt>
      <trkpt lat="47.47552" lon="6.70101">
        <ele>335</ele>
        <time>2015-11-15T08:14:00.000Z</time>
      </trkpt>
      <trkpt lat="47.47551" lon="6.70096">
        <ele>335</ele>
        <time>2015-11-15T08:14:01.000Z</time>
      </trkpt>
      <trkpt lat="47.4755" lon="6.70091">
        <ele>335</ele>
        <time>2015-11-15T08:14:02.000Z</time>
      </trkpt>
      <trkpt lat="47.4755" lon="6.70087">
        <ele>335</ele>
        <time>2015-11-15T08:14:03.000Z</time>
      </trkpt>
      <trkpt lat="47.4755" lon="6.70082">
        <ele>335</ele>
        <time>2015-11-15T08:14:04.000Z</time>
      </trkpt>
      <trkpt lat="47.47549" lon="6.70078">
        <ele>335</ele>
        <time>2015-11-15T08:14:05.000Z</time>
      </trkpt>
      <trkpt lat="47.47547" lon="6.70074">
        <ele>335</ele>
        <time>2015-11-15T08:14:06.000Z</time>
      </trkpt>
      <trkpt lat="47.47546" lon="6.7007">
        <ele>335</ele>
        <time>2015-11-15T08:14:07.000Z</time>
      </trkpt>
      <trkpt lat="47.47545" lon="6.70065">
        <ele>335</ele>
        <time>2015-11-15T08:14:08.000Z</time>
      </trkpt>
      <trkpt lat="47.47544" lon="6.7006">
        <ele>335</ele>
        <time>2015-11-15T08:14:09.000Z</time>
      </trkpt>
      <trkpt lat="47.47543" lon="6.70054">
        <ele>335</ele>
        <time>2015-11-15T08:14:10.000Z</time>
      </trkpt>
      <trkpt lat="47.47543" lon="6.70049">
        <ele>335</ele>
        <time>2015-11-15T08:14:11.000Z</time>
      </trkpt>
      <trkpt lat="47.47542" lon="6.70044">
        <ele>335</ele>
        <time>2015-11-15T08:14:12.000Z</time>
      </trkpt>
      <trkpt lat="47.47541" lon="6.70039">
        <ele>335</ele>
        <time>2015-11-15T08:14:13.000Z</time>
      </trkpt>
      <trkpt lat="47.47541" lon="6.70034">
        <ele>335</ele>
        <time>2015-11-15T08:14:14.000Z</time>
      </trkpt>
      <trkpt lat="47.4754" lon="6.7003">
        <ele>335</ele>
        <time>2015-11-15T08:14:15.000Z</time>
      </trkpt>
      <trkpt lat="47.47539" lon="6.70026">
        <ele>335</ele>
        <time>2015-11-15T08:14:16.000Z</time>
      </trkpt>
      <trkpt lat="47.47538" lon="6.70023">
        <ele>335</ele>
        <time>2015-11-15T08:14:17.000Z</time>
      </trkpt>
      <trkpt lat="47.47537" lon="6.70019">
        <ele>336</ele>
        <time>2015-11-15T08:14:18.000Z</time>
      </trkpt>
      <trkpt lat="47.47536" lon="6.70014">
        <ele>336</ele>
        <time>2015-11-15T08:14:20.000Z</time>
      </trkpt>
      <trkpt lat="47.47535" lon="6.70013">
        <ele>336</ele>
        <time>2015-11-15T08:14:21.000Z</time>
      </trkpt>
      <trkpt lat="47.47531" lon="6.70012">
        <ele>336</ele>
        <time>2015-11-15T08:14:23.000Z</time>
      </trkpt>
      <trkpt lat="47.47529" lon="6.70012">
        <ele>336</ele>
        <time>2015-11-15T08:14:24.000Z</time>
      </trkpt>
      <trkpt lat="47.47527" lon="6.70013">
        <ele>336</ele>
        <time>2015-11-15T08:14:25.000Z</time>
      </trkpt>
      <trkpt lat="47.47524" lon="6.70014">
        <ele>336</ele>
        <time>2015-11-15T08:14:26.000Z</time>
      </trkpt>
      <trkpt lat="47.47521" lon="6.70015">
        <ele>336</ele>
        <time>2015-11-15T08:14:27.000Z</time>
      </trkpt>
      <trkpt lat="47.47519" lon="6.70016">
        <ele>337</ele>
        <time>2015-11-15T08:14:28.000Z</time>
      </trkpt>
      <trkpt lat="47.47516" lon="6.70016">
        <ele>337</ele>
        <time>2015-11-15T08:14:29.000Z</time>
      </trkpt>
      <trkpt lat="47.47514" lon="6.70016">
        <ele>337</ele>
        <time>2015-11-15T08:14:30.000Z</time>
      </trkpt>
      <trkpt lat="47.4751" lon="6.70013">
        <ele>337</ele>
        <time>2015-11-15T08:14:32.000Z</time>
      </trkpt>
      <trkpt lat="47.47509" lon="6.7001">
        <ele>337</ele>
        <time>2015-11-15T08:14:33.000Z</time>
      </trkpt>
      <trkpt lat="47.47507" lon="6.70006">
        <ele>338</ele>
        <time>2015-11-15T08:14:34.000Z</time>
      </trkpt>
      <trkpt lat="47.47506" lon="6.70003">
        <ele>338</ele>
        <time>2015-11-15T08:14:35.000Z</time>
      </trkpt>
      <trkpt lat="47.47505" lon="6.69999">
        <ele>338</ele>
        <time>2015-11-15T08:14:36.000Z</time>
      </trkpt>
      <trkpt lat="47.47505" lon="6.69996">
        <ele>338</ele>
        <time>2015-11-15T08:14:37.000Z</time>
      </trkpt>
      <trkpt lat="47.47504" lon="6.6999">
        <ele>338</ele>
        <time>2015-11-15T08:14:39.000Z</time>
      </trkpt>
      <trkpt lat="47.47503" lon="6.69988">
        <ele>338</ele>
        <time>2015-11-15T08:14:40.000Z</time>
      </trkpt>
      <trkpt lat="47.475" lon="6.69988">
        <ele>338</ele>
        <time>2015-11-15T08:14:42.000Z</time>
      </trkpt>
      <trkpt lat="47.47498" lon="6.69988">
        <ele>339</ele>
        <time>2015-11-15T08:14:43.000Z</time>
      </trkpt>
      <trkpt lat="47.47496" lon="6.69987">
        <ele>339</ele>
        <time>2015-11-15T08:14:44.000Z</time>
      </trkpt>
      <trkpt lat="47.47493" lon="6.69987">
        <ele>339</ele>
        <time>2015-11-15T08:14:45.000Z</time>
      </trkpt>
      <trkpt lat="47.47491" lon="6.69986">
        <ele>339</ele>
        <time>2015-11-15T08:14:46.000Z</time>
      </trkpt>
      <trkpt lat="47.47488" lon="6.69985">
        <ele>339</ele>
        <time>2015-11-15T08:14:47.000Z</time>
      </trkpt>
      <trkpt lat="47.47486" lon="6.69983">
        <ele>339</ele>
        <time>2015-11-15T08:14:48.000Z</time>
      </trkpt>
      <trkpt lat="47.47483" lon="6.69981">
        <ele>339</ele>
        <time>2015-11-15T08:14:49.000Z</time>
      </trkpt>
      <trkpt lat="47.47481" lon="6.69979">
        <ele>339</ele>
        <time>2015-11-15T08:14:50.000Z</time>
      </trkpt>
      <trkpt lat="47.47478" lon="6.69979">
        <ele>339</ele>
        <time>2015-11-15T08:14:51.000Z</time>
      </trkpt>
      <trkpt lat="47.47476" lon="6.69978">
        <ele>339</ele>
        <time>2015-11-15T08:14:52.000Z</time>
      </trkpt>
      <trkpt lat="47.47472" lon="6.69979">
        <ele>339</ele>
        <time>2015-11-15T08:14:53.000Z</time>
      </trkpt>
      <trkpt lat="47.47469" lon="6.69979">
        <ele>339</ele>
        <time>2015-11-15T08:14:54.000Z</time>
      </trkpt>
      <trkpt lat="47.47465" lon="6.69979">
        <ele>339</ele>
        <time>2015-11-15T08:14:55.000Z</time>
      </trkpt>
      <trkpt lat="47.47462" lon="6.69979">
        <ele>339</ele>
        <time>2015-11-15T08:14:56.000Z</time>
      </trkpt>
      <trkpt lat="47.47459" lon="6.69979">
        <ele>339</ele>
        <time>2015-11-15T08:14:57.000Z</time>
      </trkpt>
      <trkpt lat="47.47457" lon="6.6998">
        <ele>339</ele>
        <time>2015-11-15T08:14:58.000Z</time>
      </trkpt>
      <trkpt lat="47.47454" lon="6.69981">
        <ele>338</ele>
        <time>2015-11-15T08:14:59.000Z</time>
      </trkpt>
      <trkpt lat="47.47451" lon="6.69983">
        <ele>338</ele>
        <time>2015-11-15T08:15:01.000Z</time>
      </trkpt>
      <trkpt lat="47.47449" lon="6.69986">
        <ele>338</ele>
        <time>2015-11-15T08:15:02.000Z</time>
      </trkpt>
      <trkpt lat="47.47448" lon="6.69989">
        <ele>338</ele>
        <time>2015-11-15T08:15:03.000Z</time>
      </trkpt>
      <trkpt lat="47.47446" lon="6.69993">
        <ele>338</ele>
        <time>2015-11-15T08:15:04.000Z</time>
      </trkpt>
      <trkpt lat="47.47445" lon="6.69997">
        <ele>338</ele>
        <time>2015-11-15T08:15:05.000Z</time>
      </trkpt>
      <trkpt lat="47.47443" lon="6.7">
        <ele>337</ele>
        <time>2015-11-15T08:15:06.000Z</time>
      </trkpt>
      <trkpt lat="47.4744" lon="6.70002">
        <ele>337</ele>
        <time>2015-11-15T08:15:07.000Z</time>
      </trkpt>
      <trkpt lat="47.47437" lon="6.70003">
        <ele>337</ele>
        <time>2015-11-15T08:15:08.000Z</time>
      </trkpt>
      <trkpt lat="47.47433" lon="6.70003">
        <ele>337</ele>
        <time>2015-11-15T08:15:09.000Z</time>
      </trkpt>
      <trkpt lat="47.47429" lon="6.70002">
        <ele>337</ele>
        <time>2015-11-15T08:15:10.000Z</time>
      </trkpt>
      <trkpt lat="47.47424" lon="6.70001">
        <ele>337</ele>
        <time>2015-11-15T08:15:11.000Z</time>
      </trkpt>
      <trkpt lat="47.47421" lon="6.70001">
        <ele>337</ele>
        <time>2015-11-15T08:15:12.000Z</time>
      </trkpt>
      <trkpt lat="47.47417" lon="6.70001">
        <ele>337</ele>
        <time>2015-11-15T08:15:13.000Z</time>
      </trkpt>
      <trkpt lat="47.47414" lon="6.70002">
        <ele>337</ele>
        <time>2015-11-15T08:15:14.000Z</time>
      </trkpt>
      <trkpt lat="47.4741" lon="6.70012">
        <ele>337</ele>
        <time>2015-11-15T08:15:15.000Z</time>
      </trkpt>
      <trkpt lat="47.47408" lon="6.70016">
        <ele>337</ele>
        <time>2015-11-15T08:15:16.000Z</time>
      </trkpt>
      <trkpt lat="47.47407" lon="6.70019">
        <ele>336</ele>
        <time>2015-11-15T08:15:17.000Z</time>
      </trkpt>
      <trkpt lat="47.47407" lon="6.70024">
        <ele>336</ele>
        <time>2015-11-15T08:15:18.000Z</time>
      </trkpt>
      <trkpt lat="47.47406" lon="6.7003">
        <ele>336</ele>
        <time>2015-11-15T08:15:19.000Z</time>
      </trkpt>
      <trkpt lat="47.47405" lon="6.70035">
        <ele>336</ele>
        <time>2015-11-15T08:15:20.000Z</time>
      </trkpt>
      <trkpt lat="47.47404" lon="6.7004">
        <ele>336</ele>
        <time>2015-11-15T08:15:21.000Z</time>
      </trkpt>
      <trkpt lat="47.47404" lon="6.70045">
        <ele>336</ele>
        <time>2015-11-15T08:15:22.000Z</time>
      </trkpt>
      <trkpt lat="47.47404" lon="6.70052">
        <ele>336</ele>
        <time>2015-11-15T08:15:23.000Z</time>
      </trkpt>
      <trkpt lat="47.47404" lon="6.70057">
        <ele>336</ele>
        <time>2015-11-15T08:15:24.000Z</time>
      </trkpt>
      <trkpt lat="47.47404" lon="6.70063">
        <ele>335</ele>
        <time>2015-11-15T08:15:25.000Z</time>
      </trkpt>
      <trkpt lat="47.47404" lon="6.70068">
        <ele>335</ele>
        <time>2015-11-15T08:15:26.000Z</time>
      </trkpt>
      <trkpt lat="47.47404" lon="6.70072">
        <ele>335</ele>
        <time>2015-11-15T08:15:27.000Z</time>
      </trkpt>
      <trkpt lat="47.47405" lon="6.70076">
        <ele>335</ele>
        <time>2015-11-15T08:15:28.000Z</time>
      </trkpt>
      <trkpt lat="47.47406" lon="6.70079">
        <ele>335</ele>
        <time>2015-11-15T08:15:29.000Z</time>
      </trkpt>
      <trkpt lat="47.47407" lon="6.70083">
        <ele>335</ele>
        <time>2015-11-15T08:15:30.000Z</time>
      </trkpt>
      <trkpt lat="47.47409" lon="6.70087">
        <ele>334</ele>
        <time>2015-11-15T08:15:31.000Z</time>
      </trkpt>
      <trkpt lat="47.47411" lon="6.70093">
        <ele>334</ele>
        <time>2015-11-15T08:15:32.000Z</time>
      </trkpt>
      <trkpt lat="47.47414" lon="6.70106">
        <ele>334</ele>
        <time>2015-11-15T08:15:33.000Z</time>
      </trkpt>
      <trkpt lat="47.47415" lon="6.70116">
        <ele>333</ele>
        <time>2015-11-15T08:15:34.000Z</time>
      </trkpt>
      <trkpt lat="47.47416" lon="6.70124">
        <ele>333</ele>
        <time>2015-11-15T08:15:35.000Z</time>
      </trkpt>
      <trkpt lat="47.47419" lon="6.70137">
        <ele>334</ele>
        <time>2015-11-15T08:15:36.000Z</time>
      </trkpt>
      <trkpt lat="47.47419" lon="6.70147">
        <ele>334</ele>
        <time>2015-11-15T08:15:37.000Z</time>
      </trkpt>
      <trkpt lat="47.47416" lon="6.70153">
        <ele>332</ele>
        <time>2015-11-15T08:15:38.000Z</time>
      </trkpt>
      <trkpt lat="47.47409" lon="6.70154">
        <ele>333</ele>
        <time>2015-11-15T08:15:39.000Z</time>
      </trkpt>
      <trkpt lat="47.47404" lon="6.70154">
        <ele>333</ele>
        <time>2015-11-15T08:15:40.000Z</time>
      </trkpt>
      <trkpt lat="47.47401" lon="6.70156">
        <ele>333</ele>
        <time>2015-11-15T08:15:41.000Z</time>
      </trkpt>
      <trkpt lat="47.47397" lon="6.70158">
        <ele>333</ele>
        <time>2015-11-15T08:15:42.000Z</time>
      </trkpt>
      <trkpt lat="47.47393" lon="6.70159">
        <ele>333</ele>
        <time>2015-11-15T08:15:43.000Z</time>
      </trkpt>
      <trkpt lat="47.47388" lon="6.70162">
        <ele>333</ele>
        <time>2015-11-15T08:15:44.000Z</time>
      </trkpt>
      <trkpt lat="47.47382" lon="6.70163">
        <ele>333</ele>
        <time>2015-11-15T08:15:45.000Z</time>
      </trkpt>
      <trkpt lat="47.47376" lon="6.70163">
        <ele>333</ele>
        <time>2015-11-15T08:15:46.000Z</time>
      </trkpt>
      <trkpt lat="47.47372" lon="6.70163">
        <ele>333</ele>
        <time>2015-11-15T08:15:47.000Z</time>
      </trkpt>
      <trkpt lat="47.47368" lon="6.70164">
        <ele>333</ele>
        <time>2015-11-15T08:15:48.000Z</time>
      </trkpt>
      <trkpt lat="47.47365" lon="6.70167">
        <ele>331</ele>
        <time>2015-11-15T08:15:49.000Z</time>
      </trkpt>
      <trkpt lat="47.47361" lon="6.70168">
        <ele>331</ele>
        <time>2015-11-15T08:15:50.000Z</time>
      </trkpt>
      <trkpt lat="47.47359" lon="6.70171">
        <ele>331</ele>
        <time>2015-11-15T08:15:51.000Z</time>
      </trkpt>
      <trkpt lat="47.47357" lon="6.70174">
        <ele>331</ele>
        <time>2015-11-15T08:15:52.000Z</time>
      </trkpt>
      <trkpt lat="47.47354" lon="6.70177">
        <ele>331</ele>
        <time>2015-11-15T08:15:53.000Z</time>
      </trkpt>
      <trkpt lat="47.47352" lon="6.70183">
        <ele>331</ele>
        <time>2015-11-15T08:15:54.000Z</time>
      </trkpt>
      <trkpt lat="47.47349" lon="6.70186">
        <ele>331</ele>
        <time>2015-11-15T08:15:55.000Z</time>
      </trkpt>
      <trkpt lat="47.47347" lon="6.7019">
        <ele>331</ele>
        <time>2015-11-15T08:15:56.000Z</time>
      </trkpt>
      <trkpt lat="47.47345" lon="6.70193">
        <ele>331</ele>
        <time>2015-11-15T08:15:57.000Z</time>
      </trkpt>
      <trkpt lat="47.47343" lon="6.70197">
        <ele>331</ele>
        <time>2015-11-15T08:15:58.000Z</time>
      </trkpt>
      <trkpt lat="47.47341" lon="6.70202">
        <ele>331</ele>
        <time>2015-11-15T08:15:59.000Z</time>
      </trkpt>
      <trkpt lat="47.47336" lon="6.70209">
        <ele>331</ele>
        <time>2015-11-15T08:16:00.000Z</time>
      </trkpt>
      <trkpt lat="47.47333" lon="6.70215">
        <ele>328</ele>
        <time>2015-11-15T08:16:01.000Z</time>
      </trkpt>
      <trkpt lat="47.4733" lon="6.70221">
        <ele>328</ele>
        <time>2015-11-15T08:16:02.000Z</time>
      </trkpt>
      <trkpt lat="47.47326" lon="6.70226">
        <ele>328</ele>
        <time>2015-11-15T08:16:03.000Z</time>
      </trkpt>
      <trkpt lat="47.47323" lon="6.7023">
        <ele>328</ele>
        <time>2015-11-15T08:16:04.000Z</time>
      </trkpt>
      <trkpt lat="47.47321" lon="6.70233">
        <ele>328</ele>
        <time>2015-11-15T08:16:05.000Z</time>
      </trkpt>
      <trkpt lat="47.47319" lon="6.70237">
        <ele>328</ele>
        <time>2015-11-15T08:16:06.000Z</time>
      </trkpt>
      <trkpt lat="47.47317" lon="6.7024">
        <ele>328</ele>
        <time>2015-11-15T08:16:07.000Z</time>
      </trkpt>
      <trkpt lat="47.47316" lon="6.70244">
        <ele>328</ele>
        <time>2015-11-15T08:16:08.000Z</time>
      </trkpt>
      <trkpt lat="47.47314" lon="6.70249">
        <ele>328</ele>
        <time>2015-11-15T08:16:09.000Z</time>
      </trkpt>
      <trkpt lat="47.47312" lon="6.70253">
        <ele>326</ele>
        <time>2015-11-15T08:16:10.000Z</time>
      </trkpt>
      <trkpt lat="47.47311" lon="6.70257">
        <ele>326</ele>
        <time>2015-11-15T08:16:11.000Z</time>
      </trkpt>
      <trkpt lat="47.47309" lon="6.70261">
        <ele>326</ele>
        <time>2015-11-15T08:16:12.000Z</time>
      </trkpt>
      <trkpt lat="47.47307" lon="6.70264">
        <ele>325</ele>
        <time>2015-11-15T08:16:13.000Z</time>
      </trkpt>
      <trkpt lat="47.47305" lon="6.70268">
        <ele>325</ele>
        <time>2015-11-15T08:16:14.000Z</time>
      </trkpt>
      <trkpt lat="47.47303" lon="6.70272">
        <ele>325</ele>
        <time>2015-11-15T08:16:15.000Z</time>
      </trkpt>
      <trkpt lat="47.473" lon="6.70275">
        <ele>325</ele>
        <time>2015-11-15T08:16:16.000Z</time>
      </trkpt>
      <trkpt lat="47.47295" lon="6.70275">
        <ele>325</ele>
        <time>2015-11-15T08:16:17.000Z</time>
      </trkpt>
      <trkpt lat="47.47289" lon="6.70274">
        <ele>325</ele>
        <time>2015-11-15T08:16:18.000Z</time>
      </trkpt>
      <trkpt lat="47.47283" lon="6.70271">
        <ele>324</ele>
        <time>2015-11-15T08:16:19.000Z</time>
      </trkpt>
      <trkpt lat="47.47277" lon="6.70268">
        <ele>324</ele>
        <time>2015-11-15T08:16:20.000Z</time>
      </trkpt>
      <trkpt lat="47.47272" lon="6.70265">
        <ele>324</ele>
        <time>2015-11-15T08:16:21.000Z</time>
      </trkpt>
      <trkpt lat="47.47266" lon="6.70261">
        <ele>324</ele>
        <time>2015-11-15T08:16:22.000Z</time>
      </trkpt>
      <trkpt lat="47.47261" lon="6.70256">
        <ele>324</ele>
        <time>2015-11-15T08:16:23.000Z</time>
      </trkpt>
      <trkpt lat="47.47256" lon="6.70251">
        <ele>323</ele>
        <time>2015-11-15T08:16:24.000Z</time>
      </trkpt>
      <trkpt lat="47.47251" lon="6.70246">
        <ele>324</ele>
        <time>2015-11-15T08:16:25.000Z</time>
      </trkpt>
      <trkpt lat="47.47247" lon="6.70242">
        <ele>323</ele>
        <time>2015-11-15T08:16:26.000Z</time>
      </trkpt>
      <trkpt lat="47.47243" lon="6.70237">
        <ele>323</ele>
        <time>2015-11-15T08:16:27.000Z</time>
      </trkpt>
      <trkpt lat="47.47239" lon="6.70233">
        <ele>323</ele>
        <time>2015-11-15T08:16:28.000Z</time>
      </trkpt>
      <trkpt lat="47.47234" lon="6.70228">
        <ele>323</ele>
        <time>2015-11-15T08:16:29.000Z</time>
      </trkpt>
      <trkpt lat="47.4723" lon="6.70224">
        <ele>324</ele>
        <time>2015-11-15T08:16:30.000Z</time>
      </trkpt>
      <trkpt lat="47.47226" lon="6.70219">
        <ele>324</ele>
        <time>2015-11-15T08:16:31.000Z</time>
      </trkpt>
      <trkpt lat="47.47222" lon="6.70215">
        <ele>324</ele>
        <time>2015-11-15T08:16:32.000Z</time>
      </trkpt>
      <trkpt lat="47.47218" lon="6.70211">
        <ele>324</ele>
        <time>2015-11-15T08:16:33.000Z</time>
      </trkpt>
      <trkpt lat="47.47214" lon="6.70207">
        <ele>324</ele>
        <time>2015-11-15T08:16:34.000Z</time>
      </trkpt>
      <trkpt lat="47.47211" lon="6.70203">
        <ele>324</ele>
        <time>2015-11-15T08:16:35.000Z</time>
      </trkpt>
      <trkpt lat="47.47207" lon="6.70198">
        <ele>324</ele>
        <time>2015-11-15T08:16:36.000Z</time>
      </trkpt>
      <trkpt lat="47.47203" lon="6.70194">
        <ele>324</ele>
        <time>2015-11-15T08:16:37.000Z</time>
      </trkpt>
      <trkpt lat="47.472" lon="6.70189">
        <ele>324</ele>
        <time>2015-11-15T08:16:38.000Z</time>
      </trkpt>
      <trkpt lat="47.47197" lon="6.70185">
        <ele>324</ele>
        <time>2015-11-15T08:16:39.000Z</time>
      </trkpt>
      <trkpt lat="47.47193" lon="6.7018">
        <ele>324</ele>
        <time>2015-11-15T08:16:40.000Z</time>
      </trkpt>
      <trkpt lat="47.47186" lon="6.70176">
        <ele>323</ele>
        <time>2015-11-15T08:16:41.000Z</time>
      </trkpt>
      <trkpt lat="47.47181" lon="6.70171">
        <ele>323</ele>
        <time>2015-11-15T08:16:42.000Z</time>
      </trkpt>
      <trkpt lat="47.47177" lon="6.70165">
        <ele>325</ele>
        <time>2015-11-15T08:16:43.000Z</time>
      </trkpt>
      <trkpt lat="47.47172" lon="6.7016">
        <ele>324</ele>
        <time>2015-11-15T08:16:44.000Z</time>
      </trkpt>
      <trkpt lat="47.47167" lon="6.70156">
        <ele>325</ele>
        <time>2015-11-15T08:16:45.000Z</time>
      </trkpt>
      <trkpt lat="47.47162" lon="6.70152">
        <ele>324</ele>
        <time>2015-11-15T08:16:46.000Z</time>
      </trkpt>
      <trkpt lat="47.47158" lon="6.70149">
        <ele>324</ele>
        <time>2015-11-15T08:16:47.000Z</time>
      </trkpt>
      <trkpt lat="47.47153" lon="6.70145">
        <ele>324</ele>
        <time>2015-11-15T08:16:48.000Z</time>
      </trkpt>
      <trkpt lat="47.4715" lon="6.7014">
        <ele>324</ele>
        <time>2015-11-15T08:16:49.000Z</time>
      </trkpt>
      <trkpt lat="47.47146" lon="6.70136">
        <ele>324</ele>
        <time>2015-11-15T08:16:50.000Z</time>
      </trkpt>
      <trkpt lat="47.47143" lon="6.70132">
        <ele>324</ele>
        <time>2015-11-15T08:16:51.000Z</time>
      </trkpt>
      <trkpt lat="47.4714" lon="6.70129">
        <ele>324</ele>
        <time>2015-11-15T08:16:52.000Z</time>
      </trkpt>
      <trkpt lat="47.47136" lon="6.70125">
        <ele>324</ele>
        <time>2015-11-15T08:16:53.000Z</time>
      </trkpt>
      <trkpt lat="47.47133" lon="6.70122">
        <ele>324</ele>
        <time>2015-11-15T08:16:54.000Z</time>
      </trkpt>
      <trkpt lat="47.47131" lon="6.70118">
        <ele>324</ele>
        <time>2015-11-15T08:16:55.000Z</time>
      </trkpt>
      <trkpt lat="47.47128" lon="6.70114">
        <ele>324</ele>
        <time>2015-11-15T08:16:56.000Z</time>
      </trkpt>
      <trkpt lat="47.47125" lon="6.70111">
        <ele>324</ele>
        <time>2015-11-15T08:16:57.000Z</time>
      </trkpt>
      <trkpt lat="47.47122" lon="6.70107">
        <ele>324</ele>
        <time>2015-11-15T08:16:58.000Z</time>
      </trkpt>
      <trkpt lat="47.47119" lon="6.70105">
        <ele>324</ele>
        <time>2015-11-15T08:16:59.000Z</time>
      </trkpt>
      <trkpt lat="47.47116" lon="6.70102">
        <ele>324</ele>
        <time>2015-11-15T08:17:00.000Z</time>
      </trkpt>
      <trkpt lat="47.47113" lon="6.70099">
        <ele>324</ele>
        <time>2015-11-15T08:17:01.000Z</time>
      </trkpt>
      <trkpt lat="47.4711" lon="6.70096">
        <ele>324</ele>
        <time>2015-11-15T08:17:02.000Z</time>
      </trkpt>
      <trkpt lat="47.47107" lon="6.70093">
        <ele>324</ele>
        <time>2015-11-15T08:17:03.000Z</time>
      </trkpt>
      <trkpt lat="47.47104" lon="6.70089">
        <ele>324</ele>
        <time>2015-11-15T08:17:04.000Z</time>
      </trkpt>
      <trkpt lat="47.471" lon="6.70085">
        <ele>324</ele>
        <time>2015-11-15T08:17:05.000Z</time>
      </trkpt>
      <trkpt lat="47.47096" lon="6.70081">
        <ele>325</ele>
        <time>2015-11-15T08:17:06.000Z</time>
      </trkpt>
      <trkpt lat="47.47089" lon="6.70076">
        <ele>325</ele>
        <time>2015-11-15T08:17:07.000Z</time>
      </trkpt>
      <trkpt lat="47.47086" lon="6.70072">
        <ele>325</ele>
        <time>2015-11-15T08:17:08.000Z</time>
      </trkpt>
      <trkpt lat="47.47082" lon="6.70068">
        <ele>324</ele>
        <time>2015-11-15T08:17:09.000Z</time>
      </trkpt>
      <trkpt lat="47.47078" lon="6.70064">
        <ele>324</ele>
        <time>2015-11-15T08:17:10.000Z</time>
      </trkpt>
      <trkpt lat="47.47074" lon="6.70059">
        <ele>324</ele>
        <time>2015-11-15T08:17:11.000Z</time>
      </trkpt>
      <trkpt lat="47.4707" lon="6.70055">
        <ele>324</ele>
        <time>2015-11-15T08:17:12.000Z</time>
      </trkpt>
      <trkpt lat="47.47064" lon="6.70052">
        <ele>323</ele>
        <time>2015-11-15T08:17:13.000Z</time>
      </trkpt>
      <trkpt lat="47.4706" lon="6.70046">
        <ele>323</ele>
        <time>2015-11-15T08:17:14.000Z</time>
      </trkpt>
      <trkpt lat="47.47055" lon="6.70039">
        <ele>324</ele>
        <time>2015-11-15T08:17:15.000Z</time>
      </trkpt>
      <trkpt lat="47.47051" lon="6.70033">
        <ele>324</ele>
        <time>2015-11-15T08:17:16.000Z</time>
      </trkpt>
      <trkpt lat="47.47047" lon="6.70027">
        <ele>324</ele>
        <time>2015-11-15T08:17:17.000Z</time>
      </trkpt>
      <trkpt lat="47.47041" lon="6.70021">
        <ele>323</ele>
        <time>2015-11-15T08:17:18.000Z</time>
      </trkpt>
      <trkpt lat="47.47037" lon="6.70013">
        <ele>323</ele>
        <time>2015-11-15T08:17:19.000Z</time>
      </trkpt>
      <trkpt lat="47.47031" lon="6.70007">
        <ele>323</ele>
        <time>2015-11-15T08:17:20.000Z</time>
      </trkpt>
      <trkpt lat="47.47027" lon="6.70001">
        <ele>323</ele>
        <time>2015-11-15T08:17:21.000Z</time>
      </trkpt>
      <trkpt lat="47.47022" lon="6.69997">
        <ele>325</ele>
        <time>2015-11-15T08:17:22.000Z</time>
      </trkpt>
      <trkpt lat="47.47018" lon="6.69992">
        <ele>325</ele>
        <time>2015-11-15T08:17:23.000Z</time>
      </trkpt>
      <trkpt lat="47.47014" lon="6.69986">
        <ele>325</ele>
        <time>2015-11-15T08:17:24.000Z</time>
      </trkpt>
      <trkpt lat="47.47009" lon="6.69981">
        <ele>325</ele>
        <time>2015-11-15T08:17:25.000Z</time>
      </trkpt>
      <trkpt lat="47.47004" lon="6.69976">
        <ele>325</ele>
        <time>2015-11-15T08:17:26.000Z</time>
      </trkpt>
      <trkpt lat="47.47" lon="6.69971">
        <ele>322</ele>
        <time>2015-11-15T08:17:27.000Z</time>
      </trkpt>
      <trkpt lat="47.46996" lon="6.69967">
        <ele>322</ele>
        <time>2015-11-15T08:17:28.000Z</time>
      </trkpt>
      <trkpt lat="47.46991" lon="6.69963">
        <ele>322</ele>
        <time>2015-11-15T08:17:29.000Z</time>
      </trkpt>
      <trkpt lat="47.46987" lon="6.69958">
        <ele>322</ele>
        <time>2015-11-15T08:17:30.000Z</time>
      </trkpt>
      <trkpt lat="47.46982" lon="6.69954">
        <ele>322</ele>
        <time>2015-11-15T08:17:31.000Z</time>
      </trkpt>
      <trkpt lat="47.46977" lon="6.6995">
        <ele>322</ele>
        <time>2015-11-15T08:17:32.000Z</time>
      </trkpt>
      <trkpt lat="47.46973" lon="6.69943">
        <ele>322</ele>
        <time>2015-11-15T08:17:33.000Z</time>
      </trkpt>
      <trkpt lat="47.46968" lon="6.69936">
        <ele>322</ele>
        <time>2015-11-15T08:17:34.000Z</time>
      </trkpt>
      <trkpt lat="47.46965" lon="6.69932">
        <ele>322</ele>
        <time>2015-11-15T08:17:35.000Z</time>
      </trkpt>
      <trkpt lat="47.46961" lon="6.69927">
        <ele>322</ele>
        <time>2015-11-15T08:17:36.000Z</time>
      </trkpt>
      <trkpt lat="47.46959" lon="6.69922">
        <ele>322</ele>
        <time>2015-11-15T08:17:37.000Z</time>
      </trkpt>
      <trkpt lat="47.46955" lon="6.69916">
        <ele>324</ele>
        <time>2015-11-15T08:17:38.000Z</time>
      </trkpt>
      <trkpt lat="47.46951" lon="6.6991">
        <ele>323</ele>
        <time>2015-11-15T08:17:39.000Z</time>
      </trkpt>
      <trkpt lat="47.46947" lon="6.69904">
        <ele>323</ele>
        <time>2015-11-15T08:17:40.000Z</time>
      </trkpt>
      <trkpt lat="47.46943" lon="6.699">
        <ele>323</ele>
        <time>2015-11-15T08:17:41.000Z</time>
      </trkpt>
      <trkpt lat="47.4694" lon="6.69895">
        <ele>323</ele>
        <time>2015-11-15T08:17:42.000Z</time>
      </trkpt>
      <trkpt lat="47.46936" lon="6.6989">
        <ele>323</ele>
        <time>2015-11-15T08:17:43.000Z</time>
      </trkpt>
      <trkpt lat="47.46932" lon="6.69884">
        <ele>323</ele>
        <time>2015-11-15T08:17:44.000Z</time>
      </trkpt>
      <trkpt lat="47.46927" lon="6.69874">
        <ele>323</ele>
        <time>2015-11-15T08:17:45.000Z</time>
      </trkpt>
      <trkpt lat="47.46921" lon="6.69868">
        <ele>323</ele>
        <time>2015-11-15T08:17:46.000Z</time>
      </trkpt>
      <trkpt lat="47.46916" lon="6.69863">
        <ele>320</ele>
        <time>2015-11-15T08:17:47.000Z</time>
      </trkpt>
      <trkpt lat="47.46913" lon="6.69859">
        <ele>321</ele>
        <time>2015-11-15T08:17:48.000Z</time>
      </trkpt>
      <trkpt lat="47.46909" lon="6.69856">
        <ele>321</ele>
        <time>2015-11-15T08:17:49.000Z</time>
      </trkpt>
      <trkpt lat="47.46905" lon="6.69852">
        <ele>321</ele>
        <time>2015-11-15T08:17:50.000Z</time>
      </trkpt>
      <trkpt lat="47.469" lon="6.69848">
        <ele>321</ele>
        <time>2015-11-15T08:17:51.000Z</time>
      </trkpt>
      <trkpt lat="47.46893" lon="6.69844">
        <ele>320</ele>
        <time>2015-11-15T08:17:52.000Z</time>
      </trkpt>
      <trkpt lat="47.46888" lon="6.69841">
        <ele>320</ele>
        <time>2015-11-15T08:17:53.000Z</time>
      </trkpt>
      <trkpt lat="47.46882" lon="6.69837">
        <ele>320</ele>
        <time>2015-11-15T08:17:54.000Z</time>
      </trkpt>
      <trkpt lat="47.46876" lon="6.69835">
        <ele>320</ele>
        <time>2015-11-15T08:17:55.000Z</time>
      </trkpt>
      <trkpt lat="47.46869" lon="6.69835">
        <ele>319</ele>
        <time>2015-11-15T08:17:56.000Z</time>
      </trkpt>
      <trkpt lat="47.46864" lon="6.69834">
        <ele>319</ele>
        <time>2015-11-15T08:17:57.000Z</time>
      </trkpt>
      <trkpt lat="47.4686" lon="6.69832">
        <ele>319</ele>
        <time>2015-11-15T08:17:58.000Z</time>
      </trkpt>
      <trkpt lat="47.46855" lon="6.69832">
        <ele>318</ele>
        <time>2015-11-15T08:17:59.000Z</time>
      </trkpt>
      <trkpt lat="47.46851" lon="6.69834">
        <ele>319</ele>
        <time>2015-11-15T08:18:00.000Z</time>
      </trkpt>
      <trkpt lat="47.46846" lon="6.69835">
        <ele>319</ele>
        <time>2015-11-15T08:18:01.000Z</time>
      </trkpt>
      <trkpt lat="47.46841" lon="6.69837">
        <ele>318</ele>
        <time>2015-11-15T08:18:02.000Z</time>
      </trkpt>
      <trkpt lat="47.46836" lon="6.69839">
        <ele>318</ele>
        <time>2015-11-15T08:18:03.000Z</time>
      </trkpt>
      <trkpt lat="47.46831" lon="6.6984">
        <ele>317</ele>
        <time>2015-11-15T08:18:04.000Z</time>
      </trkpt>
      <trkpt lat="47.46826" lon="6.69843">
        <ele>316</ele>
        <time>2015-11-15T08:18:05.000Z</time>
      </trkpt>
      <trkpt lat="47.46821" lon="6.69844">
        <ele>316</ele>
        <time>2015-11-15T08:18:06.000Z</time>
      </trkpt>
      <trkpt lat="47.46815" lon="6.69846">
        <ele>315</ele>
        <time>2015-11-15T08:18:07.000Z</time>
      </trkpt>
      <trkpt lat="47.46808" lon="6.6985">
        <ele>315</ele>
        <time>2015-11-15T08:18:08.000Z</time>
      </trkpt>
      <trkpt lat="47.46801" lon="6.69852">
        <ele>314</ele>
        <time>2015-11-15T08:18:09.000Z</time>
      </trkpt>
      <trkpt lat="47.46796" lon="6.69855">
        <ele>314</ele>
        <time>2015-11-15T08:18:10.000Z</time>
      </trkpt>
      <trkpt lat="47.46791" lon="6.69857">
        <ele>314</ele>
        <time>2015-11-15T08:18:11.000Z</time>
      </trkpt>
      <trkpt lat="47.46786" lon="6.6986">
        <ele>314</ele>
        <time>2015-11-15T08:18:12.000Z</time>
      </trkpt>
      <trkpt lat="47.46782" lon="6.69864">
        <ele>313</ele>
        <time>2015-11-15T08:18:13.000Z</time>
      </trkpt>
      <trkpt lat="47.46776" lon="6.69868">
        <ele>313</ele>
        <time>2015-11-15T08:18:14.000Z</time>
      </trkpt>
      <trkpt lat="47.46769" lon="6.69869">
        <ele>313</ele>
        <time>2015-11-15T08:18:15.000Z</time>
      </trkpt>
      <trkpt lat="47.46763" lon="6.69865">
        <ele>313</ele>
        <time>2015-11-15T08:18:16.000Z</time>
      </trkpt>
      <trkpt lat="47.46759" lon="6.6986">
        <ele>313</ele>
        <time>2015-11-15T08:18:17.000Z</time>
      </trkpt>
      <trkpt lat="47.46756" lon="6.69855">
        <ele>312</ele>
        <time>2015-11-15T08:18:18.000Z</time>
      </trkpt>
      <trkpt lat="47.46754" lon="6.69849">
        <ele>312</ele>
        <time>2015-11-15T08:18:19.000Z</time>
      </trkpt>
      <trkpt lat="47.46752" lon="6.69843">
        <ele>312</ele>
        <time>2015-11-15T08:18:20.000Z</time>
      </trkpt>
      <trkpt lat="47.46749" lon="6.69837">
        <ele>310</ele>
        <time>2015-11-15T08:18:21.000Z</time>
      </trkpt>
      <trkpt lat="47.46746" lon="6.69831">
        <ele>310</ele>
        <time>2015-11-15T08:18:22.000Z</time>
      </trkpt>
      <trkpt lat="47.46743" lon="6.69826">
        <ele>310</ele>
        <time>2015-11-15T08:18:23.000Z</time>
      </trkpt>
      <trkpt lat="47.46739" lon="6.6982">
        <ele>309</ele>
        <time>2015-11-15T08:18:24.000Z</time>
      </trkpt>
      <trkpt lat="47.46737" lon="6.69814">
        <ele>309</ele>
        <time>2015-11-15T08:18:25.000Z</time>
      </trkpt>
      <trkpt lat="47.46734" lon="6.69808">
        <ele>308</ele>
        <time>2015-11-15T08:18:26.000Z</time>
      </trkpt>
      <trkpt lat="47.46732" lon="6.69802">
        <ele>308</ele>
        <time>2015-11-15T08:18:27.000Z</time>
      </trkpt>
      <trkpt lat="47.46729" lon="6.69796">
        <ele>308</ele>
        <time>2015-11-15T08:18:28.000Z</time>
      </trkpt>
      <trkpt lat="47.46726" lon="6.6979">
        <ele>308</ele>
        <time>2015-11-15T08:18:29.000Z</time>
      </trkpt>
      <trkpt lat="47.46723" lon="6.69784">
        <ele>308</ele>
        <time>2015-11-15T08:18:30.000Z</time>
      </trkpt>
      <trkpt lat="47.4672" lon="6.69778">
        <ele>307</ele>
        <time>2015-11-15T08:18:31.000Z</time>
      </trkpt>
      <trkpt lat="47.46717" lon="6.69773">
        <ele>307</ele>
        <time>2015-11-15T08:18:32.000Z</time>
      </trkpt>
      <trkpt lat="47.46714" lon="6.69767">
        <ele>307</ele>
        <time>2015-11-15T08:18:33.000Z</time>
      </trkpt>
      <trkpt lat="47.46711" lon="6.69761">
        <ele>307</ele>
        <time>2015-11-15T08:18:34.000Z</time>
      </trkpt>
      <trkpt lat="47.46708" lon="6.69755">
        <ele>307</ele>
        <time>2015-11-15T08:18:35.000Z</time>
      </trkpt>
      <trkpt lat="47.46706" lon="6.69749">
        <ele>308</ele>
        <time>2015-11-15T08:18:36.000Z</time>
      </trkpt>
      <trkpt lat="47.46704" lon="6.69743">
        <ele>308</ele>
        <time>2015-11-15T08:18:37.000Z</time>
      </trkpt>
      <trkpt lat="47.46702" lon="6.69738">
        <ele>308</ele>
        <time>2015-11-15T08:18:38.000Z</time>
      </trkpt>
      <trkpt lat="47.46699" lon="6.69736">
        <ele>308</ele>
        <time>2015-11-15T08:18:39.000Z</time>
      </trkpt>
      <trkpt lat="47.46696" lon="6.69734">
        <ele>307</ele>
        <time>2015-11-15T08:18:40.000Z</time>
      </trkpt>
      <trkpt lat="47.46691" lon="6.69733">
        <ele>307</ele>
        <time>2015-11-15T08:18:41.000Z</time>
      </trkpt>
      <trkpt lat="47.46686" lon="6.69733">
        <ele>307</ele>
        <time>2015-11-15T08:18:42.000Z</time>
      </trkpt>
      <trkpt lat="47.4668" lon="6.69732">
        <ele>307</ele>
        <time>2015-11-15T08:18:43.000Z</time>
      </trkpt>
      <trkpt lat="47.46674" lon="6.69733">
        <ele>306</ele>
        <time>2015-11-15T08:18:44.000Z</time>
      </trkpt>
      <trkpt lat="47.46669" lon="6.69734">
        <ele>306</ele>
        <time>2015-11-15T08:18:45.000Z</time>
      </trkpt>
      <trkpt lat="47.46664" lon="6.69738">
        <ele>305</ele>
        <time>2015-11-15T08:18:46.000Z</time>
      </trkpt>
      <trkpt lat="47.46658" lon="6.69743">
        <ele>305</ele>
        <time>2015-11-15T08:18:47.000Z</time>
      </trkpt>
      <trkpt lat="47.46655" lon="6.69747">
        <ele>305</ele>
        <time>2015-11-15T08:18:48.000Z</time>
      </trkpt>
      <trkpt lat="47.46652" lon="6.69749">
        <ele>305</ele>
        <time>2015-11-15T08:18:49.000Z</time>
      </trkpt>
      <trkpt lat="47.46649" lon="6.69752">
        <ele>304</ele>
        <time>2015-11-15T08:18:50.000Z</time>
      </trkpt>
      <trkpt lat="47.46647" lon="6.69752">
        <ele>304</ele>
        <time>2015-11-15T08:18:51.000Z</time>
      </trkpt>
      <trkpt lat="47.46642" lon="6.69753">
        <ele>305</ele>
        <time>2015-11-15T08:18:59.000Z</time>
      </trkpt>
      <trkpt lat="47.46642" lon="6.69753">
        <ele>305</ele>
        <time>2015-11-15T08:19:00.000Z</time>
      </trkpt>
      <trkpt lat="47.46638" lon="6.69754">
        <ele>305</ele>
        <time>2015-11-15T08:19:05.000Z</time>
      </trkpt>
      <trkpt lat="47.46637" lon="6.69754">
        <ele>305</ele>
        <time>2015-11-15T08:19:06.000Z</time>
      </trkpt>
      <trkpt lat="47.46633" lon="6.69754">
        <ele>305</ele>
        <time>2015-11-15T08:19:09.000Z</time>
      </trkpt>
      <trkpt lat="47.46631" lon="6.69753">
        <ele>305</ele>
        <time>2015-11-15T08:19:10.000Z</time>
      </trkpt>
      <trkpt lat="47.46627" lon="6.69753">
        <ele>305</ele>
        <time>2015-11-15T08:19:11.000Z</time>
      </trkpt>
      <trkpt lat="47.46624" lon="6.69753">
        <ele>305</ele>
        <time>2015-11-15T08:19:12.000Z</time>
      </trkpt>
      <trkpt lat="47.4662" lon="6.69752">
        <ele>305</ele>
        <time>2015-11-15T08:19:13.000Z</time>
      </trkpt>
      <trkpt lat="47.46616" lon="6.69752">
        <ele>305</ele>
        <time>2015-11-15T08:19:14.000Z</time>
      </trkpt>
      <trkpt lat="47.46612" lon="6.69752">
        <ele>305</ele>
        <time>2015-11-15T08:19:15.000Z</time>
      </trkpt>
      <trkpt lat="47.46608" lon="6.69752">
        <ele>305</ele>
        <time>2015-11-15T08:19:16.000Z</time>
      </trkpt>
      <trkpt lat="47.46604" lon="6.69751">
        <ele>305</ele>
        <time>2015-11-15T08:19:17.000Z</time>
      </trkpt>
      <trkpt lat="47.466" lon="6.69751">
        <ele>305</ele>
        <time>2015-11-15T08:19:18.000Z</time>
      </trkpt>
      <trkpt lat="47.46596" lon="6.69751">
        <ele>306</ele>
        <time>2015-11-15T08:19:19.000Z</time>
      </trkpt>
      <trkpt lat="47.46592" lon="6.69751">
        <ele>306</ele>
        <time>2015-11-15T08:19:20.000Z</time>
      </trkpt>
      <trkpt lat="47.46588" lon="6.69751">
        <ele>306</ele>
        <time>2015-11-15T08:19:21.000Z</time>
      </trkpt>
      <trkpt lat="47.46585" lon="6.69751">
        <ele>306</ele>
        <time>2015-11-15T08:19:22.000Z</time>
      </trkpt>
      <trkpt lat="47.46582" lon="6.69751">
        <ele>306</ele>
        <time>2015-11-15T08:19:23.000Z</time>
      </trkpt>
      <trkpt lat="47.4658" lon="6.69751">
        <ele>306</ele>
        <time>2015-11-15T08:19:24.000Z</time>
      </trkpt>
      <trkpt lat="47.46578" lon="6.69753">
        <ele>306</ele>
        <time>2015-11-15T08:19:25.000Z</time>
      </trkpt>
      <trkpt lat="47.46576" lon="6.69756">
        <ele>306</ele>
        <time>2015-11-15T08:19:26.000Z</time>
      </trkpt>
      <trkpt lat="47.46573" lon="6.69759">
        <ele>306</ele>
        <time>2015-11-15T08:19:27.000Z</time>
      </trkpt>
      <trkpt lat="47.46571" lon="6.69762">
        <ele>306</ele>
        <time>2015-11-15T08:19:28.000Z</time>
      </trkpt>
      <trkpt lat="47.46568" lon="6.69766">
        <ele>306</ele>
        <time>2015-11-15T08:19:29.000Z</time>
      </trkpt>
      <trkpt lat="47.46566" lon="6.69769">
        <ele>306</ele>
        <time>2015-11-15T08:19:30.000Z</time>
      </trkpt>
      <trkpt lat="47.46563" lon="6.69773">
        <ele>306</ele>
        <time>2015-11-15T08:19:31.000Z</time>
      </trkpt>
      <trkpt lat="47.4656" lon="6.69776">
        <ele>306</ele>
        <time>2015-11-15T08:19:32.000Z</time>
      </trkpt>
      <trkpt lat="47.46556" lon="6.6978">
        <ele>306</ele>
        <time>2015-11-15T08:19:33.000Z</time>
      </trkpt>
      <trkpt lat="47.46553" lon="6.69783">
        <ele>306</ele>
        <time>2015-11-15T08:19:34.000Z</time>
      </trkpt>
      <trkpt lat="47.4655" lon="6.69787">
        <ele>306</ele>
        <time>2015-11-15T08:19:35.000Z</time>
      </trkpt>
      <trkpt lat="47.46547" lon="6.69791">
        <ele>306</ele>
        <time>2015-11-15T08:19:36.000Z</time>
      </trkpt>
      <trkpt lat="47.46544" lon="6.69795">
        <ele>305</ele>
        <time>2015-11-15T08:19:37.000Z</time>
      </trkpt>
      <trkpt lat="47.46541" lon="6.69798">
        <ele>305</ele>
        <time>2015-11-15T08:19:38.000Z</time>
      </trkpt>
      <trkpt lat="47.46537" lon="6.69802">
        <ele>305</ele>
        <time>2015-11-15T08:19:39.000Z</time>
      </trkpt>
      <trkpt lat="47.46534" lon="6.69806">
        <ele>305</ele>
        <time>2015-11-15T08:19:40.000Z</time>
      </trkpt>
      <trkpt lat="47.4653" lon="6.6981">
        <ele>305</ele>
        <time>2015-11-15T08:19:41.000Z</time>
      </trkpt>
      <trkpt lat="47.46526" lon="6.69814">
        <ele>305</ele>
        <time>2015-11-15T08:19:42.000Z</time>
      </trkpt>
      <trkpt lat="47.46522" lon="6.69818">
        <ele>305</ele>
        <time>2015-11-15T08:19:43.000Z</time>
      </trkpt>
      <trkpt lat="47.46519" lon="6.69822">
        <ele>305</ele>
        <time>2015-11-15T08:19:44.000Z</time>
      </trkpt>
      <trkpt lat="47.46515" lon="6.69827">
        <ele>304</ele>
        <time>2015-11-15T08:19:45.000Z</time>
      </trkpt>
      <trkpt lat="47.46511" lon="6.69831">
        <ele>304</ele>
        <time>2015-11-15T08:19:46.000Z</time>
      </trkpt>
      <trkpt lat="47.46508" lon="6.69835">
        <ele>304</ele>
        <time>2015-11-15T08:19:47.000Z</time>
      </trkpt>
      <trkpt lat="47.46505" lon="6.69838">
        <ele>303</ele>
        <time>2015-11-15T08:19:48.000Z</time>
      </trkpt>
      <trkpt lat="47.46501" lon="6.69842">
        <ele>304</ele>
        <time>2015-11-15T08:19:49.000Z</time>
      </trkpt>
      <trkpt lat="47.46498" lon="6.69846">
        <ele>303</ele>
        <time>2015-11-15T08:19:50.000Z</time>
      </trkpt>
      <trkpt lat="47.46494" lon="6.69849">
        <ele>303</ele>
        <time>2015-11-15T08:19:51.000Z</time>
      </trkpt>
      <trkpt lat="47.46491" lon="6.69853">
        <ele>303</ele>
        <time>2015-11-15T08:19:52.000Z</time>
      </trkpt>
      <trkpt lat="47.46488" lon="6.69857">
        <ele>303</ele>
        <time>2015-11-15T08:19:53.000Z</time>
      </trkpt>
      <trkpt lat="47.46484" lon="6.6986">
        <ele>303</ele>
        <time>2015-11-15T08:19:54.000Z</time>
      </trkpt>
      <trkpt lat="47.46482" lon="6.69863">
        <ele>303</ele>
        <time>2015-11-15T08:19:55.000Z</time>
      </trkpt>
      <trkpt lat="47.46479" lon="6.69866">
        <ele>303</ele>
        <time>2015-11-15T08:20:05.000Z</time>
      </trkpt>
      <trkpt lat="47.46478" lon="6.69867">
        <ele>303</ele>
        <time>2015-11-15T08:20:06.000Z</time>
      </trkpt>
      <trkpt lat="47.46474" lon="6.6987">
        <ele>303</ele>
        <time>2015-11-15T08:20:08.000Z</time>
      </trkpt>
      <trkpt lat="47.46471" lon="6.69873">
        <ele>303</ele>
        <time>2015-11-15T08:20:09.000Z</time>
      </trkpt>
      <trkpt lat="47.46467" lon="6.69875">
        <ele>303</ele>
        <time>2015-11-15T08:20:10.000Z</time>
      </trkpt>
      <trkpt lat="47.46463" lon="6.69875">
        <ele>303</ele>
        <time>2015-11-15T08:20:11.000Z</time>
      </trkpt>
      <trkpt lat="47.4646" lon="6.69874">
        <ele>303</ele>
        <time>2015-11-15T08:20:12.000Z</time>
      </trkpt>
      <trkpt lat="47.46456" lon="6.69872">
        <ele>303</ele>
        <time>2015-11-15T08:20:13.000Z</time>
      </trkpt>
      <trkpt lat="47.46453" lon="6.69869">
        <ele>303</ele>
        <time>2015-11-15T08:20:14.000Z</time>
      </trkpt>
      <trkpt lat="47.46451" lon="6.69867">
        <ele>303</ele>
        <time>2015-11-15T08:20:15.000Z</time>
      </trkpt>
      <trkpt lat="47.46448" lon="6.69864">
        <ele>303</ele>
        <time>2015-11-15T08:20:16.000Z</time>
      </trkpt>
      <trkpt lat="47.46445" lon="6.69862">
        <ele>303</ele>
        <time>2015-11-15T08:20:17.000Z</time>
      </trkpt>
      <trkpt lat="47.46443" lon="6.6986">
        <ele>303</ele>
        <time>2015-11-15T08:20:18.000Z</time>
      </trkpt>
      <trkpt lat="47.4644" lon="6.69858">
        <ele>303</ele>
        <time>2015-11-15T08:20:19.000Z</time>
      </trkpt>
      <trkpt lat="47.46437" lon="6.69856">
        <ele>303</ele>
        <time>2015-11-15T08:20:20.000Z</time>
      </trkpt>
      <trkpt lat="47.46434" lon="6.69853">
        <ele>303</ele>
        <time>2015-11-15T08:20:21.000Z</time>
      </trkpt>
      <trkpt lat="47.46431" lon="6.69851">
        <ele>303</ele>
        <time>2015-11-15T08:20:22.000Z</time>
      </trkpt>
      <trkpt lat="47.46428" lon="6.69849">
        <ele>303</ele>
        <time>2015-11-15T08:20:23.000Z</time>
      </trkpt>
      <trkpt lat="47.46425" lon="6.69847">
        <ele>303</ele>
        <time>2015-11-15T08:20:24.000Z</time>
      </trkpt>
      <trkpt lat="47.46422" lon="6.69844">
        <ele>303</ele>
        <time>2015-11-15T08:20:25.000Z</time>
      </trkpt>
      <trkpt lat="47.46419" lon="6.69843">
        <ele>303</ele>
        <time>2015-11-15T08:20:26.000Z</time>
      </trkpt>
      <trkpt lat="47.46417" lon="6.69841">
        <ele>303</ele>
        <time>2015-11-15T08:20:27.000Z</time>
      </trkpt>
      <trkpt lat="47.46414" lon="6.6984">
        <ele>303</ele>
        <time>2015-11-15T08:20:28.000Z</time>
      </trkpt>
      <trkpt lat="47.46411" lon="6.69838">
        <ele>303</ele>
        <time>2015-11-15T08:20:29.000Z</time>
      </trkpt>
      <trkpt lat="47.46408" lon="6.69835">
        <ele>303</ele>
        <time>2015-11-15T08:20:30.000Z</time>
      </trkpt>
      <trkpt lat="47.46405" lon="6.69833">
        <ele>303</ele>
        <time>2015-11-15T08:20:31.000Z</time>
      </trkpt>
      <trkpt lat="47.46402" lon="6.69831">
        <ele>303</ele>
        <time>2015-11-15T08:20:32.000Z</time>
      </trkpt>
      <trkpt lat="47.46399" lon="6.69829">
        <ele>303</ele>
        <time>2015-11-15T08:20:33.000Z</time>
      </trkpt>
      <trkpt lat="47.46396" lon="6.69827">
        <ele>303</ele>
        <time>2015-11-15T08:20:34.000Z</time>
      </trkpt>
      <trkpt lat="47.46393" lon="6.69825">
        <ele>303</ele>
        <time>2015-11-15T08:20:35.000Z</time>
      </trkpt>
      <trkpt lat="47.46391" lon="6.69823">
        <ele>303</ele>
        <time>2015-11-15T08:20:36.000Z</time>
      </trkpt>
      <trkpt lat="47.46387" lon="6.69821">
        <ele>303</ele>
        <time>2015-11-15T08:20:37.000Z</time>
      </trkpt>
      <trkpt lat="47.46384" lon="6.69819">
        <ele>303</ele>
        <time>2015-11-15T08:20:38.000Z</time>
      </trkpt>
      <trkpt lat="47.46381" lon="6.69817">
        <ele>303</ele>
        <time>2015-11-15T08:20:39.000Z</time>
      </trkpt>
      <trkpt lat="47.46378" lon="6.69815">
        <ele>303</ele>
        <time>2015-11-15T08:20:40.000Z</time>
      </trkpt>
      <trkpt lat="47.46375" lon="6.69813">
        <ele>303</ele>
        <time>2015-11-15T08:20:41.000Z</time>
      </trkpt>
      <trkpt lat="47.46372" lon="6.69811">
        <ele>303</ele>
        <time>2015-11-15T08:20:42.000Z</time>
      </trkpt>
      <trkpt lat="47.46369" lon="6.69808">
        <ele>303</ele>
        <time>2015-11-15T08:20:43.000Z</time>
      </trkpt>
      <trkpt lat="47.46366" lon="6.69805">
        <ele>303</ele>
        <time>2015-11-15T08:20:44.000Z</time>
      </trkpt>
      <trkpt lat="47.46363" lon="6.69802">
        <ele>303</ele>
        <time>2015-11-15T08:20:45.000Z</time>
      </trkpt>
      <trkpt lat="47.4636" lon="6.698">
        <ele>303</ele>
        <time>2015-11-15T08:20:46.000Z</time>
      </trkpt>
      <trkpt lat="47.46357" lon="6.69797">
        <ele>303</ele>
        <time>2015-11-15T08:20:47.000Z</time>
      </trkpt>
      <trkpt lat="47.46354" lon="6.69795">
        <ele>303</ele>
        <time>2015-11-15T08:20:48.000Z</time>
      </trkpt>
      <trkpt lat="47.4635" lon="6.69793">
        <ele>303</ele>
        <time>2015-11-15T08:20:49.000Z</time>
      </trkpt>
      <trkpt lat="47.46347" lon="6.69791">
        <ele>303</ele>
        <time>2015-11-15T08:20:50.000Z</time>
      </trkpt>
      <trkpt lat="47.46344" lon="6.69788">
        <ele>303</ele>
        <time>2015-11-15T08:20:51.000Z</time>
      </trkpt>
      <trkpt lat="47.4634" lon="6.69785">
        <ele>303</ele>
        <time>2015-11-15T08:20:52.000Z</time>
      </trkpt>
      <trkpt lat="47.46337" lon="6.69781">
        <ele>303</ele>
        <time>2015-11-15T08:20:53.000Z</time>
      </trkpt>
      <trkpt lat="47.46334" lon="6.69777">
        <ele>303</ele>
        <time>2015-11-15T08:20:54.000Z</time>
      </trkpt>
      <trkpt lat="47.4633" lon="6.69774">
        <ele>303</ele>
        <time>2015-11-15T08:20:55.000Z</time>
      </trkpt>
      <trkpt lat="47.46327" lon="6.6977">
        <ele>303</ele>
        <time>2015-11-15T08:20:56.000Z</time>
      </trkpt>
      <trkpt lat="47.46323" lon="6.69766">
        <ele>303</ele>
        <time>2015-11-15T08:20:57.000Z</time>
      </trkpt>
      <trkpt lat="47.4632" lon="6.69762">
        <ele>303</ele>
        <time>2015-11-15T08:20:58.000Z</time>
      </trkpt>
      <trkpt lat="47.46317" lon="6.69758">
        <ele>303</ele>
        <time>2015-11-15T08:20:59.000Z</time>
      </trkpt>
      <trkpt lat="47.46313" lon="6.69754">
        <ele>303</ele>
        <time>2015-11-15T08:21:00.000Z</time>
      </trkpt>
      <trkpt lat="47.4631" lon="6.69749">
        <ele>303</ele>
        <time>2015-11-15T08:21:01.000Z</time>
      </trkpt>
      <trkpt lat="47.46307" lon="6.69745">
        <ele>303</ele>
        <time>2015-11-15T08:21:02.000Z</time>
      </trkpt>
      <trkpt lat="47.46303" lon="6.69739">
        <ele>303</ele>
        <time>2015-11-15T08:21:03.000Z</time>
      </trkpt>
      <trkpt lat="47.463" lon="6.69735">
        <ele>303</ele>
        <time>2015-11-15T08:21:04.000Z</time>
      </trkpt>
      <trkpt lat="47.46297" lon="6.6973">
        <ele>303</ele>
        <time>2015-11-15T08:21:05.000Z</time>
      </trkpt>
      <trkpt lat="47.46294" lon="6.69724">
        <ele>303</ele>
        <time>2015-11-15T08:21:06.000Z</time>
      </trkpt>
      <trkpt lat="47.46291" lon="6.69719">
        <ele>303</ele>
        <time>2015-11-15T08:21:07.000Z</time>
      </trkpt>
      <trkpt lat="47.46288" lon="6.69714">
        <ele>303</ele>
        <time>2015-11-15T08:21:08.000Z</time>
      </trkpt>
      <trkpt lat="47.46285" lon="6.69709">
        <ele>303</ele>
        <time>2015-11-15T08:21:09.000Z</time>
      </trkpt>
      <trkpt lat="47.46282" lon="6.69704">
        <ele>303</ele>
        <time>2015-11-15T08:21:10.000Z</time>
      </trkpt>
      <trkpt lat="47.46279" lon="6.69699">
        <ele>303</ele>
        <time>2015-11-15T08:21:11.000Z</time>
      </trkpt>
      <trkpt lat="47.46276" lon="6.69694">
        <ele>303</ele>
        <time>2015-11-15T08:21:12.000Z</time>
      </trkpt>
      <trkpt lat="47.46273" lon="6.69688">
        <ele>303</ele>
        <time>2015-11-15T08:21:13.000Z</time>
      </trkpt>
      <trkpt lat="47.4627" lon="6.69682">
        <ele>303</ele>
        <time>2015-11-15T08:21:14.000Z</time>
      </trkpt>
      <trkpt lat="47.46267" lon="6.69676">
        <ele>303</ele>
        <time>2015-11-15T08:21:15.000Z</time>
      </trkpt>
      <trkpt lat="47.46264" lon="6.69671">
        <ele>303</ele>
        <time>2015-11-15T08:21:16.000Z</time>
      </trkpt>
      <trkpt lat="47.46261" lon="6.69665">
        <ele>303</ele>
        <time>2015-11-15T08:21:17.000Z</time>
      </trkpt>
      <trkpt lat="47.46258" lon="6.69659">
        <ele>303</ele>
        <time>2015-11-15T08:21:18.000Z</time>
      </trkpt>
      <trkpt lat="47.46255" lon="6.69654">
        <ele>303</ele>
        <time>2015-11-15T08:21:19.000Z</time>
      </trkpt>
      <trkpt lat="47.46252" lon="6.69648">
        <ele>303</ele>
        <time>2015-11-15T08:21:20.000Z</time>
      </trkpt>
      <trkpt lat="47.46249" lon="6.69643">
        <ele>305</ele>
        <time>2015-11-15T08:21:21.000Z</time>
      </trkpt>
      <trkpt lat="47.46246" lon="6.69637">
        <ele>305</ele>
        <time>2015-11-15T08:21:21.999Z</time>
      </trkpt>
      <trkpt lat="47.46242" lon="6.69631">
        <ele>305</ele>
        <time>2015-11-15T08:21:23.000Z</time>
      </trkpt>
      <trkpt lat="47.46239" lon="6.69626">
        <ele>305</ele>
        <time>2015-11-15T08:21:24.000Z</time>
      </trkpt>
      <trkpt lat="47.46236" lon="6.6962">
        <ele>305</ele>
        <time>2015-11-15T08:21:25.000Z</time>
      </trkpt>
      <trkpt lat="47.46233" lon="6.69614">
        <ele>305</ele>
        <time>2015-11-15T08:21:26.000Z</time>
      </trkpt>
      <trkpt lat="47.4623" lon="6.69608">
        <ele>305</ele>
        <time>2015-11-15T08:21:27.000Z</time>
      </trkpt>
      <trkpt lat="47.46228" lon="6.69603">
        <ele>305</ele>
        <time>2015-11-15T08:21:28.000Z</time>
      </trkpt>
      <trkpt lat="47.46225" lon="6.69597">
        <ele>305</ele>
        <time>2015-11-15T08:21:29.000Z</time>
      </trkpt>
      <trkpt lat="47.46221" lon="6.69592">
        <ele>305</ele>
        <time>2015-11-15T08:21:30.000Z</time>
      </trkpt>
      <trkpt lat="47.46218" lon="6.69588">
        <ele>305</ele>
        <time>2015-11-15T08:21:31.000Z</time>
      </trkpt>
      <trkpt lat="47.46215" lon="6.69583">
        <ele>304</ele>
        <time>2015-11-15T08:21:32.000Z</time>
      </trkpt>
      <trkpt lat="47.46212" lon="6.69578">
        <ele>304</ele>
        <time>2015-11-15T08:21:33.000Z</time>
      </trkpt>
      <trkpt lat="47.46208" lon="6.69574">
        <ele>305</ele>
        <time>2015-11-15T08:21:34.000Z</time>
      </trkpt>
      <trkpt lat="47.46205" lon="6.69568">
        <ele>305</ele>
        <time>2015-11-15T08:21:35.000Z</time>
      </trkpt>
      <trkpt lat="47.46202" lon="6.69563">
        <ele>305</ele>
        <time>2015-11-15T08:21:36.000Z</time>
      </trkpt>
      <trkpt lat="47.462" lon="6.69559">
        <ele>305</ele>
        <time>2015-11-15T08:21:37.000Z</time>
      </trkpt>
      <trkpt lat="47.46197" lon="6.69556">
        <ele>304</ele>
        <time>2015-11-15T08:21:38.000Z</time>
      </trkpt>
      <trkpt lat="47.46194" lon="6.69554">
        <ele>304</ele>
        <time>2015-11-15T08:21:39.000Z</time>
      </trkpt>
      <trkpt lat="47.46191" lon="6.69552">
        <ele>304</ele>
        <time>2015-11-15T08:21:40.000Z</time>
      </trkpt>
      <trkpt lat="47.46189" lon="6.69549">
        <ele>304</ele>
        <time>2015-11-15T08:21:41.000Z</time>
      </trkpt>
      <trkpt lat="47.46187" lon="6.69547">
        <ele>304</ele>
        <time>2015-11-15T08:21:42.000Z</time>
      </trkpt>
      <trkpt lat="47.46184" lon="6.69545">
        <ele>304</ele>
        <time>2015-11-15T08:21:43.000Z</time>
      </trkpt>
      <trkpt lat="47.46181" lon="6.69542">
        <ele>304</ele>
        <time>2015-11-15T08:21:47.000Z</time>
      </trkpt>
      <trkpt lat="47.4618" lon="6.69542">
        <ele>304</ele>
        <time>2015-11-15T08:21:48.000Z</time>
      </trkpt>
      <trkpt lat="47.46178" lon="6.69546">
        <ele>304</ele>
        <time>2015-11-15T08:22:13.000Z</time>
      </trkpt>
      <trkpt lat="47.46177" lon="6.69547">
        <ele>304</ele>
        <time>2015-11-15T08:22:14.000Z</time>
      </trkpt>
      <trkpt lat="47.46176" lon="6.6955">
        <ele>304</ele>
        <time>2015-11-15T08:22:15.000Z</time>
      </trkpt>
      <trkpt lat="47.46175" lon="6.69554">
        <ele>304</ele>
        <time>2015-11-15T08:22:16.000Z</time>
      </trkpt>
      <trkpt lat="47.46175" lon="6.69559">
        <ele>305</ele>
        <time>2015-11-15T08:22:17.000Z</time>
      </trkpt>
      <trkpt lat="47.46176" lon="6.69565">
        <ele>305</ele>
        <time>2015-11-15T08:22:18.000Z</time>
      </trkpt>
      <trkpt lat="47.46177" lon="6.6957">
        <ele>305</ele>
        <time>2015-11-15T08:22:19.000Z</time>
      </trkpt>
      <trkpt lat="47.46179" lon="6.69576">
        <ele>305</ele>
        <time>2015-11-15T08:22:20.000Z</time>
      </trkpt>
      <trkpt lat="47.4618" lon="6.69582">
        <ele>305</ele>
        <time>2015-11-15T08:22:21.000Z</time>
      </trkpt>
      <trkpt lat="47.46182" lon="6.69588">
        <ele>305</ele>
        <time>2015-11-15T08:22:22.000Z</time>
      </trkpt>
      <trkpt lat="47.46184" lon="6.69593">
        <ele>305</ele>
        <time>2015-11-15T08:22:23.000Z</time>
      </trkpt>
      <trkpt lat="47.46185" lon="6.69599">
        <ele>306</ele>
        <time>2015-11-15T08:22:24.000Z</time>
      </trkpt>
      <trkpt lat="47.46187" lon="6.69604">
        <ele>306</ele>
        <time>2015-11-15T08:22:25.000Z</time>
      </trkpt>
      <trkpt lat="47.46189" lon="6.6961">
        <ele>306</ele>
        <time>2015-11-15T08:22:26.000Z</time>
      </trkpt>
      <trkpt lat="47.46191" lon="6.69616">
        <ele>306</ele>
        <time>2015-11-15T08:22:27.000Z</time>
      </trkpt>
      <trkpt lat="47.46194" lon="6.69621">
        <ele>306</ele>
        <time>2015-11-15T08:22:28.000Z</time>
      </trkpt>
      <trkpt lat="47.46196" lon="6.69627">
        <ele>306</ele>
        <time>2015-11-15T08:22:29.000Z</time>
      </trkpt>
      <trkpt lat="47.46197" lon="6.69631">
        <ele>306</ele>
        <time>2015-11-15T08:22:30.000Z</time>
      </trkpt>
      <trkpt lat="47.46195" lon="6.69634">
        <ele>306</ele>
        <time>2015-11-15T08:22:31.000Z</time>
      </trkpt>
      <trkpt lat="47.46192" lon="6.69634">
        <ele>306</ele>
        <time>2015-11-15T08:22:32.000Z</time>
      </trkpt>
      <trkpt lat="47.46189" lon="6.69631">
        <ele>306</ele>
        <time>2015-11-15T08:22:33.000Z</time>
      </trkpt>
      <trkpt lat="47.46185" lon="6.69626">
        <ele>306</ele>
        <time>2015-11-15T08:22:34.000Z</time>
      </trkpt>
      <trkpt lat="47.46183" lon="6.6962">
        <ele>306</ele>
        <time>2015-11-15T08:22:35.000Z</time>
      </trkpt>
      <trkpt lat="47.46179" lon="6.69606">
        <ele>306</ele>
        <time>2015-11-15T08:22:36.000Z</time>
      </trkpt>
      <trkpt lat="47.46176" lon="6.69599">
        <ele>306</ele>
        <time>2015-11-15T08:22:37.000Z</time>
      </trkpt>
      <trkpt lat="47.46174" lon="6.69592">
        <ele>305</ele>
        <time>2015-11-15T08:22:38.000Z</time>
      </trkpt>
      <trkpt lat="47.4617" lon="6.69586">
        <ele>305</ele>
        <time>2015-11-15T08:22:39.000Z</time>
      </trkpt>
      <trkpt lat="47.46167" lon="6.69579">
        <ele>305</ele>
        <time>2015-11-15T08:22:40.000Z</time>
      </trkpt>
      <trkpt lat="47.46163" lon="6.69571">
        <ele>305</ele>
        <time>2015-11-15T08:22:41.000Z</time>
      </trkpt>
      <trkpt lat="47.46159" lon="6.69564">
        <ele>305</ele>
        <time>2015-11-15T08:22:42.000Z</time>
      </trkpt>
      <trkpt lat="47.46155" lon="6.69558">
        <ele>305</ele>
        <time>2015-11-15T08:22:43.000Z</time>
      </trkpt>
      <trkpt lat="47.4615" lon="6.69552">
        <ele>305</ele>
        <time>2015-11-15T08:22:44.000Z</time>
      </trkpt>
      <trkpt lat="47.46146" lon="6.69547">
        <ele>305</ele>
        <time>2015-11-15T08:22:45.000Z</time>
      </trkpt>
      <trkpt lat="47.46141" lon="6.6954">
        <ele>305</ele>
        <time>2015-11-15T08:22:46.000Z</time>
      </trkpt>
      <trkpt lat="47.46136" lon="6.69535">
        <ele>305</ele>
        <time>2015-11-15T08:22:47.000Z</time>
      </trkpt>
      <trkpt lat="47.46132" lon="6.69529">
        <ele>305</ele>
        <time>2015-11-15T08:22:48.000Z</time>
      </trkpt>
      <trkpt lat="47.46127" lon="6.69524">
        <ele>305</ele>
        <time>2015-11-15T08:22:49.000Z</time>
      </trkpt>
      <trkpt lat="47.46122" lon="6.69519">
        <ele>305</ele>
        <time>2015-11-15T08:22:50.000Z</time>
      </trkpt>
      <trkpt lat="47.46118" lon="6.69514">
        <ele>305</ele>
        <time>2015-11-15T08:22:51.000Z</time>
      </trkpt>
      <trkpt lat="47.46114" lon="6.69509">
        <ele>305</ele>
        <time>2015-11-15T08:22:52.000Z</time>
      </trkpt>
      <trkpt lat="47.46109" lon="6.69505">
        <ele>305</ele>
        <time>2015-11-15T08:22:53.000Z</time>
      </trkpt>
      <trkpt lat="47.46105" lon="6.695">
        <ele>303</ele>
        <time>2015-11-15T08:22:54.000Z</time>
      </trkpt>
      <trkpt lat="47.46101" lon="6.69495">
        <ele>303</ele>
        <time>2015-11-15T08:22:55.000Z</time>
      </trkpt>
      <trkpt lat="47.46096" lon="6.6949">
        <ele>304</ele>
        <time>2015-11-15T08:22:56.000Z</time>
      </trkpt>
      <trkpt lat="47.46091" lon="6.69485">
        <ele>304</ele>
        <time>2015-11-15T08:22:57.000Z</time>
      </trkpt>
      <trkpt lat="47.46087" lon="6.6948">
        <ele>303</ele>
        <time>2015-11-15T08:22:58.000Z</time>
      </trkpt>
      <trkpt lat="47.46081" lon="6.69475">
        <ele>304</ele>
        <time>2015-11-15T08:22:59.000Z</time>
      </trkpt>
      <trkpt lat="47.46077" lon="6.6947">
        <ele>303</ele>
        <time>2015-11-15T08:23:00.000Z</time>
      </trkpt>
      <trkpt lat="47.46072" lon="6.69465">
        <ele>303</ele>
        <time>2015-11-15T08:23:01.000Z</time>
      </trkpt>
      <trkpt lat="47.46067" lon="6.6946">
        <ele>303</ele>
        <time>2015-11-15T08:23:02.000Z</time>
      </trkpt>
      <trkpt lat="47.46062" lon="6.69455">
        <ele>303</ele>
        <time>2015-11-15T08:23:03.000Z</time>
      </trkpt>
      <trkpt lat="47.46057" lon="6.6945">
        <ele>303</ele>
        <time>2015-11-15T08:23:04.000Z</time>
      </trkpt>
      <trkpt lat="47.46052" lon="6.69444">
        <ele>303</ele>
        <time>2015-11-15T08:23:05.000Z</time>
      </trkpt>
      <trkpt lat="47.46048" lon="6.69439">
        <ele>303</ele>
        <time>2015-11-15T08:23:06.000Z</time>
      </trkpt>
      <trkpt lat="47.46043" lon="6.69434">
        <ele>303</ele>
        <time>2015-11-15T08:23:07.000Z</time>
      </trkpt>
      <trkpt lat="47.46038" lon="6.69429">
        <ele>303</ele>
        <time>2015-11-15T08:23:08.000Z</time>
      </trkpt>
      <trkpt lat="47.46033" lon="6.69424">
        <ele>303</ele>
        <time>2015-11-15T08:23:09.000Z</time>
      </trkpt>
      <trkpt lat="47.46029" lon="6.69418">
        <ele>303</ele>
        <time>2015-11-15T08:23:10.000Z</time>
      </trkpt>
      <trkpt lat="47.46025" lon="6.69413">
        <ele>302</ele>
        <time>2015-11-15T08:23:11.000Z</time>
      </trkpt>
      <trkpt lat="47.4602" lon="6.69407">
        <ele>302</ele>
        <time>2015-11-15T08:23:12.000Z</time>
      </trkpt>
      <trkpt lat="47.46015" lon="6.69403">
        <ele>302</ele>
        <time>2015-11-15T08:23:13.000Z</time>
      </trkpt>
      <trkpt lat="47.4601" lon="6.69399">
        <ele>302</ele>
        <time>2015-11-15T08:23:14.000Z</time>
      </trkpt>
      <trkpt lat="47.46006" lon="6.69394">
        <ele>302</ele>
        <time>2015-11-15T08:23:15.000Z</time>
      </trkpt>
      <trkpt lat="47.46001" lon="6.69389">
        <ele>302</ele>
        <time>2015-11-15T08:23:16.000Z</time>
      </trkpt>
      <trkpt lat="47.45996" lon="6.69384">
        <ele>302</ele>
        <time>2015-11-15T08:23:17.000Z</time>
      </trkpt>
      <trkpt lat="47.45992" lon="6.69378">
        <ele>302</ele>
        <time>2015-11-15T08:23:18.000Z</time>
      </trkpt>
      <trkpt lat="47.45987" lon="6.69374">
        <ele>302</ele>
        <time>2015-11-15T08:23:19.000Z</time>
      </trkpt>
      <trkpt lat="47.45982" lon="6.69369">
        <ele>302</ele>
        <time>2015-11-15T08:23:20.000Z</time>
      </trkpt>
      <trkpt lat="47.45978" lon="6.69363">
        <ele>302</ele>
        <time>2015-11-15T08:23:21.000Z</time>
      </trkpt>
      <trkpt lat="47.45973" lon="6.69358">
        <ele>302</ele>
        <time>2015-11-15T08:23:22.000Z</time>
      </trkpt>
      <trkpt lat="47.45969" lon="6.69354">
        <ele>302</ele>
        <time>2015-11-15T08:23:23.000Z</time>
      </trkpt>
      <trkpt lat="47.45964" lon="6.69348">
        <ele>302</ele>
        <time>2015-11-15T08:23:24.000Z</time>
      </trkpt>
      <trkpt lat="47.45959" lon="6.69343">
        <ele>302</ele>
        <time>2015-11-15T08:23:25.000Z</time>
      </trkpt>
      <trkpt lat="47.45955" lon="6.69338">
        <ele>302</ele>
        <time>2015-11-15T08:23:26.000Z</time>
      </trkpt>
      <trkpt lat="47.4595" lon="6.69333">
        <ele>301</ele>
        <time>2015-11-15T08:23:27.000Z</time>
      </trkpt>
      <trkpt lat="47.45946" lon="6.69328">
        <ele>301</ele>
        <time>2015-11-15T08:23:28.000Z</time>
      </trkpt>
      <trkpt lat="47.45941" lon="6.69323">
        <ele>301</ele>
        <time>2015-11-15T08:23:29.000Z</time>
      </trkpt>
      <trkpt lat="47.45937" lon="6.69318">
        <ele>301</ele>
        <time>2015-11-15T08:23:30.000Z</time>
      </trkpt>
      <trkpt lat="47.45933" lon="6.69313">
        <ele>301</ele>
        <time>2015-11-15T08:23:31.000Z</time>
      </trkpt>
      <trkpt lat="47.45928" lon="6.69309">
        <ele>301</ele>
        <time>2015-11-15T08:23:32.000Z</time>
      </trkpt>
      <trkpt lat="47.45924" lon="6.69303">
        <ele>301</ele>
        <time>2015-11-15T08:23:33.000Z</time>
      </trkpt>
      <trkpt lat="47.45919" lon="6.69298">
        <ele>301</ele>
        <time>2015-11-15T08:23:34.000Z</time>
      </trkpt>
      <trkpt lat="47.45915" lon="6.69293">
        <ele>302</ele>
        <time>2015-11-15T08:23:35.000Z</time>
      </trkpt>
      <trkpt lat="47.4591" lon="6.69288">
        <ele>302</ele>
        <time>2015-11-15T08:23:36.000Z</time>
      </trkpt>
      <trkpt lat="47.45906" lon="6.69283">
        <ele>302</ele>
        <time>2015-11-15T08:23:37.000Z</time>
      </trkpt>
      <trkpt lat="47.45901" lon="6.69277">
        <ele>302</ele>
        <time>2015-11-15T08:23:38.000Z</time>
      </trkpt>
      <trkpt lat="47.45897" lon="6.69272">
        <ele>302</ele>
        <time>2015-11-15T08:23:39.000Z</time>
      </trkpt>
      <trkpt lat="47.45892" lon="6.69267">
        <ele>302</ele>
        <time>2015-11-15T08:23:40.000Z</time>
      </trkpt>
      <trkpt lat="47.45888" lon="6.69263">
        <ele>302</ele>
        <time>2015-11-15T08:23:41.000Z</time>
      </trkpt>
      <trkpt lat="47.45884" lon="6.69258">
        <ele>302</ele>
        <time>2015-11-15T08:23:42.000Z</time>
      </trkpt>
      <trkpt lat="47.45879" lon="6.69253">
        <ele>302</ele>
        <time>2015-11-15T08:23:43.000Z</time>
      </trkpt>
      <trkpt lat="47.45875" lon="6.69248">
        <ele>302</ele>
        <time>2015-11-15T08:23:44.000Z</time>
      </trkpt>
      <trkpt lat="47.4587" lon="6.69243">
        <ele>302</ele>
        <time>2015-11-15T08:23:45.000Z</time>
      </trkpt>
      <trkpt lat="47.45866" lon="6.69238">
        <ele>302</ele>
        <time>2015-11-15T08:23:46.000Z</time>
      </trkpt>
      <trkpt lat="47.45862" lon="6.69234">
        <ele>302</ele>
        <time>2015-11-15T08:23:47.000Z</time>
      </trkpt>
      <trkpt lat="47.45857" lon="6.69229">
        <ele>302</ele>
        <time>2015-11-15T08:23:48.000Z</time>
      </trkpt>
      <trkpt lat="47.45853" lon="6.69225">
        <ele>302</ele>
        <time>2015-11-15T08:23:49.000Z</time>
      </trkpt>
      <trkpt lat="47.45849" lon="6.6922">
        <ele>302</ele>
        <time>2015-11-15T08:23:50.000Z</time>
      </trkpt>
      <trkpt lat="47.45844" lon="6.69215">
        <ele>302</ele>
        <time>2015-11-15T08:23:51.000Z</time>
      </trkpt>
      <trkpt lat="47.4584" lon="6.6921">
        <ele>302</ele>
        <time>2015-11-15T08:23:52.000Z</time>
      </trkpt>
      <trkpt lat="47.45836" lon="6.69204">
        <ele>302</ele>
        <time>2015-11-15T08:23:53.000Z</time>
      </trkpt>
      <trkpt lat="47.45831" lon="6.69199">
        <ele>303</ele>
        <time>2015-11-15T08:23:54.000Z</time>
      </trkpt>
      <trkpt lat="47.45827" lon="6.69195">
        <ele>303</ele>
        <time>2015-11-15T08:23:55.000Z</time>
      </trkpt>
      <trkpt lat="47.45823" lon="6.69191">
        <ele>303</ele>
        <time>2015-11-15T08:23:56.000Z</time>
      </trkpt>
      <trkpt lat="47.45818" lon="6.69187">
        <ele>303</ele>
        <time>2015-11-15T08:23:57.000Z</time>
      </trkpt>
      <trkpt lat="47.45814" lon="6.69182">
        <ele>302</ele>
        <time>2015-11-15T08:23:58.000Z</time>
      </trkpt>
      <trkpt lat="47.4581" lon="6.69177">
        <ele>303</ele>
        <time>2015-11-15T08:23:59.000Z</time>
      </trkpt>
      <trkpt lat="47.45806" lon="6.69172">
        <ele>303</ele>
        <time>2015-11-15T08:24:00.000Z</time>
      </trkpt>
      <trkpt lat="47.45802" lon="6.69167">
        <ele>303</ele>
        <time>2015-11-15T08:24:01.000Z</time>
      </trkpt>
      <trkpt lat="47.45798" lon="6.69162">
        <ele>302</ele>
        <time>2015-11-15T08:24:02.000Z</time>
      </trkpt>
      <trkpt lat="47.45793" lon="6.69157">
        <ele>302</ele>
        <time>2015-11-15T08:24:03.000Z</time>
      </trkpt>
      <trkpt lat="47.45789" lon="6.69152">
        <ele>303</ele>
        <time>2015-11-15T08:24:04.000Z</time>
      </trkpt>
      <trkpt lat="47.45784" lon="6.69147">
        <ele>303</ele>
        <time>2015-11-15T08:24:05.000Z</time>
      </trkpt>
      <trkpt lat="47.4578" lon="6.69142">
        <ele>303</ele>
        <time>2015-11-15T08:24:06.000Z</time>
      </trkpt>
      <trkpt lat="47.45775" lon="6.69138">
        <ele>303</ele>
        <time>2015-11-15T08:24:07.000Z</time>
      </trkpt>
      <trkpt lat="47.45771" lon="6.69133">
        <ele>303</ele>
        <time>2015-11-15T08:24:08.000Z</time>
      </trkpt>
      <trkpt lat="47.45767" lon="6.69128">
        <ele>303</ele>
        <time>2015-11-15T08:24:09.000Z</time>
      </trkpt>
      <trkpt lat="47.45762" lon="6.69124">
        <ele>303</ele>
        <time>2015-11-15T08:24:10.000Z</time>
      </trkpt>
      <trkpt lat="47.45758" lon="6.69119">
        <ele>303</ele>
        <time>2015-11-15T08:24:11.000Z</time>
      </trkpt>
      <trkpt lat="47.45753" lon="6.69115">
        <ele>303</ele>
        <time>2015-11-15T08:24:12.000Z</time>
      </trkpt>
      <trkpt lat="47.45749" lon="6.69111">
        <ele>303</ele>
        <time>2015-11-15T08:24:13.000Z</time>
      </trkpt>
      <trkpt lat="47.45744" lon="6.69106">
        <ele>303</ele>
        <time>2015-11-15T08:24:14.000Z</time>
      </trkpt>
      <trkpt lat="47.4574" lon="6.69101">
        <ele>303</ele>
        <time>2015-11-15T08:24:15.000Z</time>
      </trkpt>
      <trkpt lat="47.45736" lon="6.69097">
        <ele>303</ele>
        <time>2015-11-15T08:24:16.000Z</time>
      </trkpt>
      <trkpt lat="47.45732" lon="6.69091">
        <ele>303</ele>
        <time>2015-11-15T08:24:17.000Z</time>
      </trkpt>
      <trkpt lat="47.45727" lon="6.69086">
        <ele>303</ele>
        <time>2015-11-15T08:24:18.000Z</time>
      </trkpt>
      <trkpt lat="47.45723" lon="6.69082">
        <ele>303</ele>
        <time>2015-11-15T08:24:19.000Z</time>
      </trkpt>
      <trkpt lat="47.45719" lon="6.69077">
        <ele>303</ele>
        <time>2015-11-15T08:24:20.000Z</time>
      </trkpt>
      <trkpt lat="47.45714" lon="6.69073">
        <ele>303</ele>
        <time>2015-11-15T08:24:21.000Z</time>
      </trkpt>
      <trkpt lat="47.45709" lon="6.69068">
        <ele>303</ele>
        <time>2015-11-15T08:24:22.000Z</time>
      </trkpt>
      <trkpt lat="47.45705" lon="6.69063">
        <ele>303</ele>
        <time>2015-11-15T08:24:23.000Z</time>
      </trkpt>
      <trkpt lat="47.45701" lon="6.69059">
        <ele>303</ele>
        <time>2015-11-15T08:24:24.000Z</time>
      </trkpt>
      <trkpt lat="47.45696" lon="6.69055">
        <ele>303</ele>
        <time>2015-11-15T08:24:25.000Z</time>
      </trkpt>
      <trkpt lat="47.45692" lon="6.6905">
        <ele>303</ele>
        <time>2015-11-15T08:24:26.000Z</time>
      </trkpt>
      <trkpt lat="47.45688" lon="6.69046">
        <ele>303</ele>
        <time>2015-11-15T08:24:27.000Z</time>
      </trkpt>
      <trkpt lat="47.45683" lon="6.69041">
        <ele>303</ele>
        <time>2015-11-15T08:24:28.000Z</time>
      </trkpt>
      <trkpt lat="47.45679" lon="6.69036">
        <ele>303</ele>
        <time>2015-11-15T08:24:29.000Z</time>
      </trkpt>
      <trkpt lat="47.45675" lon="6.69031">
        <ele>303</ele>
        <time>2015-11-15T08:24:30.000Z</time>
      </trkpt>
      <trkpt lat="47.45671" lon="6.69027">
        <ele>303</ele>
        <time>2015-11-15T08:24:31.000Z</time>
      </trkpt>
      <trkpt lat="47.45666" lon="6.69022">
        <ele>303</ele>
        <time>2015-11-15T08:24:32.000Z</time>
      </trkpt>
      <trkpt lat="47.45662" lon="6.69018">
        <ele>303</ele>
        <time>2015-11-15T08:24:33.000Z</time>
      </trkpt>
      <trkpt lat="47.45657" lon="6.69013">
        <ele>303</ele>
        <time>2015-11-15T08:24:34.000Z</time>
      </trkpt>
      <trkpt lat="47.45653" lon="6.69008">
        <ele>303</ele>
        <time>2015-11-15T08:24:35.000Z</time>
      </trkpt>
      <trkpt lat="47.45649" lon="6.69002">
        <ele>303</ele>
        <time>2015-11-15T08:24:36.000Z</time>
      </trkpt>
      <trkpt lat="47.45645" lon="6.68997">
        <ele>303</ele>
        <time>2015-11-15T08:24:37.000Z</time>
      </trkpt>
      <trkpt lat="47.4564" lon="6.68993">
        <ele>303</ele>
        <time>2015-11-15T08:24:38.000Z</time>
      </trkpt>
      <trkpt lat="47.45637" lon="6.68989">
        <ele>303</ele>
        <time>2015-11-15T08:24:39.000Z</time>
      </trkpt>
      <trkpt lat="47.45632" lon="6.68984">
        <ele>303</ele>
        <time>2015-11-15T08:24:40.000Z</time>
      </trkpt>
      <trkpt lat="47.45628" lon="6.68979">
        <ele>303</ele>
        <time>2015-11-15T08:24:41.000Z</time>
      </trkpt>
      <trkpt lat="47.45624" lon="6.68975">
        <ele>302</ele>
        <time>2015-11-15T08:24:42.000Z</time>
      </trkpt>
      <trkpt lat="47.4562" lon="6.6897">
        <ele>302</ele>
        <time>2015-11-15T08:24:43.000Z</time>
      </trkpt>
      <trkpt lat="47.45616" lon="6.68965">
        <ele>302</ele>
        <time>2015-11-15T08:24:44.000Z</time>
      </trkpt>
      <trkpt lat="47.45611" lon="6.6896">
        <ele>302</ele>
        <time>2015-11-15T08:24:45.000Z</time>
      </trkpt>
      <trkpt lat="47.45607" lon="6.68956">
        <ele>302</ele>
        <time>2015-11-15T08:24:46.000Z</time>
      </trkpt>
      <trkpt lat="47.45602" lon="6.68951">
        <ele>302</ele>
        <time>2015-11-15T08:24:47.000Z</time>
      </trkpt>
      <trkpt lat="47.45598" lon="6.68947">
        <ele>302</ele>
        <time>2015-11-15T08:24:48.000Z</time>
      </trkpt>
      <trkpt lat="47.45593" lon="6.68941">
        <ele>302</ele>
        <time>2015-11-15T08:24:49.000Z</time>
      </trkpt>
      <trkpt lat="47.45589" lon="6.68936">
        <ele>302</ele>
        <time>2015-11-15T08:24:50.000Z</time>
      </trkpt>
      <trkpt lat="47.45584" lon="6.68932">
        <ele>302</ele>
        <time>2015-11-15T08:24:51.000Z</time>
      </trkpt>
      <trkpt lat="47.4558" lon="6.68927">
        <ele>302</ele>
        <time>2015-11-15T08:24:52.000Z</time>
      </trkpt>
      <trkpt lat="47.45576" lon="6.68922">
        <ele>302</ele>
        <time>2015-11-15T08:24:53.000Z</time>
      </trkpt>
      <trkpt lat="47.45571" lon="6.68918">
        <ele>302</ele>
        <time>2015-11-15T08:24:54.000Z</time>
      </trkpt>
      <trkpt lat="47.45567" lon="6.68913">
        <ele>303</ele>
        <time>2015-11-15T08:24:55.000Z</time>
      </trkpt>
      <trkpt lat="47.45563" lon="6.68908">
        <ele>303</ele>
        <time>2015-11-15T08:24:56.000Z</time>
      </trkpt>
      <trkpt lat="47.45559" lon="6.68903">
        <ele>303</ele>
        <time>2015-11-15T08:24:57.000Z</time>
      </trkpt>
      <trkpt lat="47.45555" lon="6.68898">
        <ele>303</ele>
        <time>2015-11-15T08:24:58.000Z</time>
      </trkpt>
      <trkpt lat="47.4555" lon="6.68894">
        <ele>303</ele>
        <time>2015-11-15T08:24:59.000Z</time>
      </trkpt>
      <trkpt lat="47.45546" lon="6.6889">
        <ele>303</ele>
        <time>2015-11-15T08:25:00.000Z</time>
      </trkpt>
      <trkpt lat="47.45542" lon="6.68884">
        <ele>303</ele>
        <time>2015-11-15T08:25:01.000Z</time>
      </trkpt>
      <trkpt lat="47.45539" lon="6.6888">
        <ele>303</ele>
        <time>2015-11-15T08:25:02.000Z</time>
      </trkpt>
      <trkpt lat="47.45535" lon="6.68876">
        <ele>303</ele>
        <time>2015-11-15T08:25:03.000Z</time>
      </trkpt>
      <trkpt lat="47.45531" lon="6.68873">
        <ele>303</ele>
        <time>2015-11-15T08:25:04.000Z</time>
      </trkpt>
      <trkpt lat="47.45528" lon="6.6887">
        <ele>303</ele>
        <time>2015-11-15T08:25:05.000Z</time>
      </trkpt>
      <trkpt lat="47.45525" lon="6.68867">
        <ele>303</ele>
        <time>2015-11-15T08:25:06.000Z</time>
      </trkpt>
      <trkpt lat="47.45522" lon="6.68865">
        <ele>303</ele>
        <time>2015-11-15T08:25:07.000Z</time>
      </trkpt>
      <trkpt lat="47.45518" lon="6.68864">
        <ele>303</ele>
        <time>2015-11-15T08:25:08.000Z</time>
      </trkpt>
      <trkpt lat="47.45515" lon="6.68866">
        <ele>303</ele>
        <time>2015-11-15T08:25:09.000Z</time>
      </trkpt>
      <trkpt lat="47.45512" lon="6.68869">
        <ele>303</ele>
        <time>2015-11-15T08:25:10.000Z</time>
      </trkpt>
      <trkpt lat="47.4551" lon="6.68872">
        <ele>303</ele>
        <time>2015-11-15T08:25:11.000Z</time>
      </trkpt>
      <trkpt lat="47.45507" lon="6.68876">
        <ele>303</ele>
        <time>2015-11-15T08:25:12.000Z</time>
      </trkpt>
      <trkpt lat="47.45504" lon="6.68879">
        <ele>303</ele>
        <time>2015-11-15T08:25:13.000Z</time>
      </trkpt>
      <trkpt lat="47.45502" lon="6.68882">
        <ele>303</ele>
        <time>2015-11-15T08:25:14.000Z</time>
      </trkpt>
      <trkpt lat="47.45498" lon="6.68885">
        <ele>303</ele>
        <time>2015-11-15T08:25:15.000Z</time>
      </trkpt>
      <trkpt lat="47.45495" lon="6.68889">
        <ele>303</ele>
        <time>2015-11-15T08:25:16.000Z</time>
      </trkpt>
      <trkpt lat="47.45491" lon="6.68892">
        <ele>303</ele>
        <time>2015-11-15T08:25:17.000Z</time>
      </trkpt>
      <trkpt lat="47.45486" lon="6.68896">
        <ele>303</ele>
        <time>2015-11-15T08:25:18.000Z</time>
      </trkpt>
      <trkpt lat="47.45481" lon="6.68898">
        <ele>303</ele>
        <time>2015-11-15T08:25:19.000Z</time>
      </trkpt>
      <trkpt lat="47.45477" lon="6.68899">
        <ele>303</ele>
        <time>2015-11-15T08:25:20.000Z</time>
      </trkpt>
      <trkpt lat="47.45472" lon="6.68901">
        <ele>303</ele>
        <time>2015-11-15T08:25:21.000Z</time>
      </trkpt>
      <trkpt lat="47.45468" lon="6.68904">
        <ele>303</ele>
        <time>2015-11-15T08:25:22.000Z</time>
      </trkpt>
      <trkpt lat="47.45464" lon="6.68905">
        <ele>303</ele>
        <time>2015-11-15T08:25:23.000Z</time>
      </trkpt>
      <trkpt lat="47.4546" lon="6.68908">
        <ele>303</ele>
        <time>2015-11-15T08:25:24.000Z</time>
      </trkpt>
      <trkpt lat="47.45456" lon="6.68911">
        <ele>303</ele>
        <time>2015-11-15T08:25:25.000Z</time>
      </trkpt>
      <trkpt lat="47.45452" lon="6.68914">
        <ele>303</ele>
        <time>2015-11-15T08:25:26.000Z</time>
      </trkpt>
      <trkpt lat="47.45448" lon="6.68919">
        <ele>303</ele>
        <time>2015-11-15T08:25:27.000Z</time>
      </trkpt>
      <trkpt lat="47.45444" lon="6.68922">
        <ele>303</ele>
        <time>2015-11-15T08:25:28.000Z</time>
      </trkpt>
      <trkpt lat="47.45439" lon="6.68925">
        <ele>303</ele>
        <time>2015-11-15T08:25:29.000Z</time>
      </trkpt>
      <trkpt lat="47.45435" lon="6.68928">
        <ele>303</ele>
        <time>2015-11-15T08:25:30.000Z</time>
      </trkpt>
      <trkpt lat="47.45432" lon="6.68932">
        <ele>303</ele>
        <time>2015-11-15T08:25:31.000Z</time>
      </trkpt>
      <trkpt lat="47.45428" lon="6.68935">
        <ele>303</ele>
        <time>2015-11-15T08:25:32.000Z</time>
      </trkpt>
      <trkpt lat="47.45424" lon="6.68938">
        <ele>303</ele>
        <time>2015-11-15T08:25:33.000Z</time>
      </trkpt>
      <trkpt lat="47.4542" lon="6.68941">
        <ele>303</ele>
        <time>2015-11-15T08:25:34.000Z</time>
      </trkpt>
      <trkpt lat="47.45416" lon="6.68944">
        <ele>303</ele>
        <time>2015-11-15T08:25:35.000Z</time>
      </trkpt>
      <trkpt lat="47.45412" lon="6.68947">
        <ele>303</ele>
        <time>2015-11-15T08:25:36.000Z</time>
      </trkpt>
      <trkpt lat="47.45409" lon="6.68952">
        <ele>303</ele>
        <time>2015-11-15T08:25:37.000Z</time>
      </trkpt>
      <trkpt lat="47.45405" lon="6.68955">
        <ele>303</ele>
        <time>2015-11-15T08:25:38.000Z</time>
      </trkpt>
      <trkpt lat="47.45401" lon="6.68958">
        <ele>303</ele>
        <time>2015-11-15T08:25:39.000Z</time>
      </trkpt>
      <trkpt lat="47.45397" lon="6.68962">
        <ele>303</ele>
        <time>2015-11-15T08:25:40.000Z</time>
      </trkpt>
      <trkpt lat="47.45393" lon="6.68966">
        <ele>303</ele>
        <time>2015-11-15T08:25:41.000Z</time>
      </trkpt>
      <trkpt lat="47.45389" lon="6.6897">
        <ele>303</ele>
        <time>2015-11-15T08:25:42.000Z</time>
      </trkpt>
      <trkpt lat="47.45385" lon="6.68974">
        <ele>303</ele>
        <time>2015-11-15T08:25:43.000Z</time>
      </trkpt>
      <trkpt lat="47.4538" lon="6.68978">
        <ele>303</ele>
        <time>2015-11-15T08:25:44.000Z</time>
      </trkpt>
      <trkpt lat="47.45376" lon="6.68981">
        <ele>303</ele>
        <time>2015-11-15T08:25:45.000Z</time>
      </trkpt>
      <trkpt lat="47.45372" lon="6.68985">
        <ele>303</ele>
        <time>2015-11-15T08:25:46.000Z</time>
      </trkpt>
      <trkpt lat="47.45368" lon="6.68989">
        <ele>303</ele>
        <time>2015-11-15T08:25:47.000Z</time>
      </trkpt>
      <trkpt lat="47.45363" lon="6.68993">
        <ele>304</ele>
        <time>2015-11-15T08:25:48.000Z</time>
      </trkpt>
      <trkpt lat="47.4536" lon="6.68997">
        <ele>304</ele>
        <time>2015-11-15T08:25:49.000Z</time>
      </trkpt>
      <trkpt lat="47.45355" lon="6.69002">
        <ele>304</ele>
        <time>2015-11-15T08:25:50.000Z</time>
      </trkpt>
      <trkpt lat="47.45351" lon="6.69005">
        <ele>304</ele>
        <time>2015-11-15T08:25:51.000Z</time>
      </trkpt>
      <trkpt lat="47.45348" lon="6.69008">
        <ele>304</ele>
        <time>2015-11-15T08:25:52.000Z</time>
      </trkpt>
      <trkpt lat="47.45343" lon="6.69011">
        <ele>304</ele>
        <time>2015-11-15T08:25:53.000Z</time>
      </trkpt>
      <trkpt lat="47.45338" lon="6.69014">
        <ele>304</ele>
        <time>2015-11-15T08:25:54.000Z</time>
      </trkpt>
      <trkpt lat="47.45333" lon="6.69016">
        <ele>304</ele>
        <time>2015-11-15T08:25:55.000Z</time>
      </trkpt>
      <trkpt lat="47.45328" lon="6.69018">
        <ele>304</ele>
        <time>2015-11-15T08:25:56.000Z</time>
      </trkpt>
      <trkpt lat="47.45323" lon="6.6902">
        <ele>304</ele>
        <time>2015-11-15T08:25:57.000Z</time>
      </trkpt>
      <trkpt lat="47.45319" lon="6.69021">
        <ele>304</ele>
        <time>2015-11-15T08:25:58.000Z</time>
      </trkpt>
      <trkpt lat="47.45314" lon="6.69022">
        <ele>304</ele>
        <time>2015-11-15T08:25:59.000Z</time>
      </trkpt>
      <trkpt lat="47.45309" lon="6.69024">
        <ele>304</ele>
        <time>2015-11-15T08:26:00.000Z</time>
      </trkpt>
      <trkpt lat="47.45305" lon="6.69026">
        <ele>304</ele>
        <time>2015-11-15T08:26:01.000Z</time>
      </trkpt>
      <trkpt lat="47.45301" lon="6.69029">
        <ele>304</ele>
        <time>2015-11-15T08:26:02.000Z</time>
      </trkpt>
      <trkpt lat="47.45295" lon="6.69031">
        <ele>304</ele>
        <time>2015-11-15T08:26:03.000Z</time>
      </trkpt>
      <trkpt lat="47.45291" lon="6.69032">
        <ele>304</ele>
        <time>2015-11-15T08:26:04.000Z</time>
      </trkpt>
      <trkpt lat="47.45287" lon="6.69034">
        <ele>304</ele>
        <time>2015-11-15T08:26:05.000Z</time>
      </trkpt>
      <trkpt lat="47.45282" lon="6.69037">
        <ele>304</ele>
        <time>2015-11-15T08:26:06.000Z</time>
      </trkpt>
      <trkpt lat="47.45277" lon="6.69038">
        <ele>304</ele>
        <time>2015-11-15T08:26:07.000Z</time>
      </trkpt>
      <trkpt lat="47.45272" lon="6.69039">
        <ele>304</ele>
        <time>2015-11-15T08:26:08.000Z</time>
      </trkpt>
      <trkpt lat="47.45267" lon="6.69041">
        <ele>304</ele>
        <time>2015-11-15T08:26:09.000Z</time>
      </trkpt>
      <trkpt lat="47.45263" lon="6.69045">
        <ele>304</ele>
        <time>2015-11-15T08:26:10.000Z</time>
      </trkpt>
      <trkpt lat="47.4526" lon="6.69049">
        <ele>304</ele>
        <time>2015-11-15T08:26:11.000Z</time>
      </trkpt>
      <trkpt lat="47.45255" lon="6.69054">
        <ele>304</ele>
        <time>2015-11-15T08:26:12.000Z</time>
      </trkpt>
      <trkpt lat="47.45251" lon="6.69058">
        <ele>304</ele>
        <time>2015-11-15T08:26:13.000Z</time>
      </trkpt>
      <trkpt lat="47.45247" lon="6.69063">
        <ele>304</ele>
        <time>2015-11-15T08:26:14.000Z</time>
      </trkpt>
      <trkpt lat="47.45244" lon="6.69066">
        <ele>304</ele>
        <time>2015-11-15T08:26:15.000Z</time>
      </trkpt>
      <trkpt lat="47.4524" lon="6.69069">
        <ele>304</ele>
        <time>2015-11-15T08:26:16.000Z</time>
      </trkpt>
      <trkpt lat="47.45236" lon="6.69074">
        <ele>304</ele>
        <time>2015-11-15T08:26:17.000Z</time>
      </trkpt>
      <trkpt lat="47.45232" lon="6.69078">
        <ele>304</ele>
        <time>2015-11-15T08:26:18.000Z</time>
      </trkpt>
      <trkpt lat="47.45228" lon="6.69083">
        <ele>304</ele>
        <time>2015-11-15T08:26:19.000Z</time>
      </trkpt>
      <trkpt lat="47.45223" lon="6.69088">
        <ele>305</ele>
        <time>2015-11-15T08:26:20.000Z</time>
      </trkpt>
      <trkpt lat="47.45219" lon="6.69092">
        <ele>305</ele>
        <time>2015-11-15T08:26:21.000Z</time>
      </trkpt>
      <trkpt lat="47.45216" lon="6.69097">
        <ele>305</ele>
        <time>2015-11-15T08:26:22.000Z</time>
      </trkpt>
      <trkpt lat="47.45214" lon="6.69101">
        <ele>305</ele>
        <time>2015-11-15T08:26:23.000Z</time>
      </trkpt>
      <trkpt lat="47.45209" lon="6.69105">
        <ele>305</ele>
        <time>2015-11-15T08:26:24.000Z</time>
      </trkpt>
      <trkpt lat="47.45205" lon="6.6911">
        <ele>305</ele>
        <time>2015-11-15T08:26:25.000Z</time>
      </trkpt>
      <trkpt lat="47.45201" lon="6.69114">
        <ele>305</ele>
        <time>2015-11-15T08:26:26.000Z</time>
      </trkpt>
      <trkpt lat="47.45197" lon="6.69117">
        <ele>306</ele>
        <time>2015-11-15T08:26:27.000Z</time>
      </trkpt>
      <trkpt lat="47.45193" lon="6.69121">
        <ele>306</ele>
        <time>2015-11-15T08:26:28.000Z</time>
      </trkpt>
      <trkpt lat="47.45189" lon="6.69125">
        <ele>306</ele>
        <time>2015-11-15T08:26:29.000Z</time>
      </trkpt>
      <trkpt lat="47.45186" lon="6.6913">
        <ele>306</ele>
        <time>2015-11-15T08:26:30.000Z</time>
      </trkpt>
      <trkpt lat="47.45187" lon="6.69136">
        <ele>306</ele>
        <time>2015-11-15T08:26:31.000Z</time>
      </trkpt>
      <trkpt lat="47.45188" lon="6.69142">
        <ele>306</ele>
        <time>2015-11-15T08:26:32.000Z</time>
      </trkpt>
      <trkpt lat="47.4519" lon="6.69147">
        <ele>306</ele>
        <time>2015-11-15T08:26:33.000Z</time>
      </trkpt>
      <trkpt lat="47.45193" lon="6.69152">
        <ele>306</ele>
        <time>2015-11-15T08:26:34.000Z</time>
      </trkpt>
      <trkpt lat="47.45195" lon="6.69157">
        <ele>306</ele>
        <time>2015-11-15T08:26:35.000Z</time>
      </trkpt>
      <trkpt lat="47.45198" lon="6.69162">
        <ele>306</ele>
        <time>2015-11-15T08:26:36.000Z</time>
      </trkpt>
      <trkpt lat="47.45199" lon="6.69167">
        <ele>308</ele>
        <time>2015-11-15T08:26:37.000Z</time>
      </trkpt>
      <trkpt lat="47.45201" lon="6.69171">
        <ele>308</ele>
        <time>2015-11-15T08:26:38.000Z</time>
      </trkpt>
      <trkpt lat="47.45203" lon="6.69176">
        <ele>308</ele>
        <time>2015-11-15T08:26:39.000Z</time>
      </trkpt>
      <trkpt lat="47.45205" lon="6.69181">
        <ele>308</ele>
        <time>2015-11-15T08:26:40.000Z</time>
      </trkpt>
      <trkpt lat="47.45207" lon="6.69185">
        <ele>308</ele>
        <time>2015-11-15T08:26:41.000Z</time>
      </trkpt>
      <trkpt lat="47.45209" lon="6.69189">
        <ele>308</ele>
        <time>2015-11-15T08:26:42.000Z</time>
      </trkpt>
      <trkpt lat="47.45211" lon="6.69193">
        <ele>308</ele>
        <time>2015-11-15T08:26:43.000Z</time>
      </trkpt>
      <trkpt lat="47.45212" lon="6.69198">
        <ele>308</ele>
        <time>2015-11-15T08:26:44.000Z</time>
      </trkpt>
      <trkpt lat="47.45214" lon="6.69202">
        <ele>308</ele>
        <time>2015-11-15T08:26:45.000Z</time>
      </trkpt>
      <trkpt lat="47.45216" lon="6.69206">
        <ele>308</ele>
        <time>2015-11-15T08:26:46.000Z</time>
      </trkpt>
      <trkpt lat="47.45217" lon="6.6921">
        <ele>308</ele>
        <time>2015-11-15T08:26:47.000Z</time>
      </trkpt>
      <trkpt lat="47.45219" lon="6.69215">
        <ele>308</ele>
        <time>2015-11-15T08:26:48.000Z</time>
      </trkpt>
      <trkpt lat="47.4522" lon="6.69219">
        <ele>308</ele>
        <time>2015-11-15T08:26:49.000Z</time>
      </trkpt>
      <trkpt lat="47.45221" lon="6.69223">
        <ele>308</ele>
        <time>2015-11-15T08:26:50.000Z</time>
      </trkpt>
      <trkpt lat="47.45222" lon="6.69228">
        <ele>308</ele>
        <time>2015-11-15T08:26:51.000Z</time>
      </trkpt>
      <trkpt lat="47.45222" lon="6.69232">
        <ele>308</ele>
        <time>2015-11-15T08:26:52.000Z</time>
      </trkpt>
      <trkpt lat="47.45222" lon="6.69237">
        <ele>308</ele>
        <time>2015-11-15T08:26:52.999Z</time>
      </trkpt>
      <trkpt lat="47.4522" lon="6.69241">
        <ele>308</ele>
        <time>2015-11-15T08:26:54.000Z</time>
      </trkpt>
      <trkpt lat="47.45218" lon="6.69245">
        <ele>309</ele>
        <time>2015-11-15T08:26:55.000Z</time>
      </trkpt>
      <trkpt lat="47.45216" lon="6.69249">
        <ele>309</ele>
        <time>2015-11-15T08:26:56.000Z</time>
      </trkpt>
      <trkpt lat="47.45214" lon="6.69253">
        <ele>311</ele>
        <time>2015-11-15T08:26:57.000Z</time>
      </trkpt>
      <trkpt lat="47.45211" lon="6.69256">
        <ele>311</ele>
        <time>2015-11-15T08:26:58.000Z</time>
      </trkpt>
      <trkpt lat="47.45208" lon="6.69259">
        <ele>311</ele>
        <time>2015-11-15T08:26:59.000Z</time>
      </trkpt>
      <trkpt lat="47.45206" lon="6.69262">
        <ele>311</ele>
        <time>2015-11-15T08:27:00.000Z</time>
      </trkpt>
      <trkpt lat="47.45203" lon="6.69265">
        <ele>312</ele>
        <time>2015-11-15T08:27:01.000Z</time>
      </trkpt>
      <trkpt lat="47.45201" lon="6.69267">
        <ele>312</ele>
        <time>2015-11-15T08:27:02.000Z</time>
      </trkpt>
      <trkpt lat="47.45198" lon="6.6927">
        <ele>312</ele>
        <time>2015-11-15T08:27:03.000Z</time>
      </trkpt>
      <trkpt lat="47.45196" lon="6.69273">
        <ele>312</ele>
        <time>2015-11-15T08:27:04.000Z</time>
      </trkpt>
      <trkpt lat="47.45194" lon="6.69275">
        <ele>312</ele>
        <time>2015-11-15T08:27:05.000Z</time>
      </trkpt>
      <trkpt lat="47.45192" lon="6.69278">
        <ele>312</ele>
        <time>2015-11-15T08:27:06.000Z</time>
      </trkpt>
      <trkpt lat="47.45189" lon="6.6928">
        <ele>312</ele>
        <time>2015-11-15T08:27:07.000Z</time>
      </trkpt>
      <trkpt lat="47.45187" lon="6.69282">
        <ele>312</ele>
        <time>2015-11-15T08:27:08.000Z</time>
      </trkpt>
      <trkpt lat="47.45185" lon="6.69285">
        <ele>313</ele>
        <time>2015-11-15T08:27:09.000Z</time>
      </trkpt>
      <trkpt lat="47.45182" lon="6.69287">
        <ele>313</ele>
        <time>2015-11-15T08:27:10.000Z</time>
      </trkpt>
      <trkpt lat="47.4518" lon="6.6929">
        <ele>313</ele>
        <time>2015-11-15T08:27:11.000Z</time>
      </trkpt>
      <trkpt lat="47.45178" lon="6.69292">
        <ele>313</ele>
        <time>2015-11-15T08:27:12.000Z</time>
      </trkpt>
      <trkpt lat="47.45175" lon="6.69294">
        <ele>313</ele>
        <time>2015-11-15T08:27:13.000Z</time>
      </trkpt>
      <trkpt lat="47.45173" lon="6.69296">
        <ele>313</ele>
        <time>2015-11-15T08:27:14.000Z</time>
      </trkpt>
      <trkpt lat="47.45171" lon="6.69299">
        <ele>313</ele>
        <time>2015-11-15T08:27:15.046Z</time>
      </trkpt>
      <trkpt lat="47.45169" lon="6.693">
        <ele>314</ele>
        <time>2015-11-15T08:27:16.000Z</time>
      </trkpt>
      <trkpt lat="47.45166" lon="6.69302">
        <ele>323</ele>
        <time>2015-11-15T08:27:17.000Z</time>
      </trkpt>
      <trkpt lat="47.45164" lon="6.69304">
        <ele>323</ele>
        <time>2015-11-15T08:27:18.000Z</time>
      </trkpt>
      <trkpt lat="47.45163" lon="6.69307">
        <ele>323</ele>
        <time>2015-11-15T08:27:19.000Z</time>
      </trkpt>
      <trkpt lat="47.45161" lon="6.69309">
        <ele>323</ele>
        <time>2015-11-15T08:27:20.000Z</time>
      </trkpt>
      <trkpt lat="47.45159" lon="6.69312">
        <ele>323</ele>
        <time>2015-11-15T08:27:21.000Z</time>
      </trkpt>
      <trkpt lat="47.45157" lon="6.69314">
        <ele>323</ele>
        <time>2015-11-15T08:27:22.000Z</time>
      </trkpt>
      <trkpt lat="47.45156" lon="6.69317">
        <ele>323</ele>
        <time>2015-11-15T08:27:23.000Z</time>
      </trkpt>
      <trkpt lat="47.45154" lon="6.69319">
        <ele>323</ele>
        <time>2015-11-15T08:27:24.000Z</time>
      </trkpt>
      <trkpt lat="47.45152" lon="6.69321">
        <ele>323</ele>
        <time>2015-11-15T08:27:25.000Z</time>
      </trkpt>
      <trkpt lat="47.4515" lon="6.69323">
        <ele>323</ele>
        <time>2015-11-15T08:27:26.000Z</time>
      </trkpt>
      <trkpt lat="47.45147" lon="6.69325">
        <ele>324</ele>
        <time>2015-11-15T08:27:27.000Z</time>
      </trkpt>
      <trkpt lat="47.45145" lon="6.69327">
        <ele>324</ele>
        <time>2015-11-15T08:27:28.000Z</time>
      </trkpt>
      <trkpt lat="47.45144" lon="6.69329">
        <ele>324</ele>
        <time>2015-11-15T08:27:29.000Z</time>
      </trkpt>
      <trkpt lat="47.4514" lon="6.69333">
        <ele>325</ele>
        <time>2015-11-15T08:27:31.000Z</time>
      </trkpt>
      <trkpt lat="47.45139" lon="6.69335">
        <ele>330</ele>
        <time>2015-11-15T08:27:32.000Z</time>
      </trkpt>
      <trkpt lat="47.45135" lon="6.69339">
        <ele>331</ele>
        <time>2015-11-15T08:27:34.000Z</time>
      </trkpt>
      <trkpt lat="47.45133" lon="6.69341">
        <ele>331</ele>
        <time>2015-11-15T08:27:35.000Z</time>
      </trkpt>
      <trkpt lat="47.4513" lon="6.69345">
        <ele>332</ele>
        <time>2015-11-15T08:27:37.000Z</time>
      </trkpt>
      <trkpt lat="47.45128" lon="6.69347">
        <ele>333</ele>
        <time>2015-11-15T08:27:38.000Z</time>
      </trkpt>
      <trkpt lat="47.45126" lon="6.69349">
        <ele>333</ele>
        <time>2015-11-15T08:27:39.000Z</time>
      </trkpt>
      <trkpt lat="47.45124" lon="6.69352">
        <ele>334</ele>
        <time>2015-11-15T08:27:40.000Z</time>
      </trkpt>
      <trkpt lat="47.45123" lon="6.69355">
        <ele>334</ele>
        <time>2015-11-15T08:27:41.000Z</time>
      </trkpt>
      <trkpt lat="47.45122" lon="6.69358">
        <ele>334</ele>
        <time>2015-11-15T08:27:42.000Z</time>
      </trkpt>
      <trkpt lat="47.4512" lon="6.69363">
        <ele>335</ele>
        <time>2015-11-15T08:27:44.000Z</time>
      </trkpt>
      <trkpt lat="47.45119" lon="6.69366">
        <ele>335</ele>
        <time>2015-11-15T08:27:45.000Z</time>
      </trkpt>
      <trkpt lat="47.45117" lon="6.69372">
        <ele>336</ele>
        <time>2015-11-15T08:27:47.000Z</time>
      </trkpt>
      <trkpt lat="47.45116" lon="6.69375">
        <ele>336</ele>
        <time>2015-11-15T08:27:48.000Z</time>
      </trkpt>
      <trkpt lat="47.45115" lon="6.69381">
        <ele>336</ele>
        <time>2015-11-15T08:27:50.000Z</time>
      </trkpt>
      <trkpt lat="47.45114" lon="6.69384">
        <ele>337</ele>
        <time>2015-11-15T08:27:51.000Z</time>
      </trkpt>
      <trkpt lat="47.45114" lon="6.69388">
        <ele>337</ele>
        <time>2015-11-15T08:27:52.000Z</time>
      </trkpt>
      <trkpt lat="47.45113" lon="6.69391">
        <ele>337</ele>
        <time>2015-11-15T08:27:53.000Z</time>
      </trkpt>
      <trkpt lat="47.45112" lon="6.69394">
        <ele>338</ele>
        <time>2015-11-15T08:27:54.000Z</time>
      </trkpt>
      <trkpt lat="47.45111" lon="6.69397">
        <ele>338</ele>
        <time>2015-11-15T08:27:55.000Z</time>
      </trkpt>
      <trkpt lat="47.4511" lon="6.69403">
        <ele>339</ele>
        <time>2015-11-15T08:27:57.000Z</time>
      </trkpt>
      <trkpt lat="47.4511" lon="6.69407">
        <ele>339</ele>
        <time>2015-11-15T08:27:58.000Z</time>
      </trkpt>
      <trkpt lat="47.4511" lon="6.69413">
        <ele>340</ele>
        <time>2015-11-15T08:28:00.000Z</time>
      </trkpt>
      <trkpt lat="47.45109" lon="6.69416">
        <ele>340</ele>
        <time>2015-11-15T08:28:01.000Z</time>
      </trkpt>
      <trkpt lat="47.45108" lon="6.69422">
        <ele>344</ele>
        <time>2015-11-15T08:28:03.000Z</time>
      </trkpt>
      <trkpt lat="47.45108" lon="6.69425">
        <ele>344</ele>
        <time>2015-11-15T08:28:04.000Z</time>
      </trkpt>
      <trkpt lat="47.45107" lon="6.69432">
        <ele>344</ele>
        <time>2015-11-15T08:28:06.000Z</time>
      </trkpt>
      <trkpt lat="47.45106" lon="6.69435">
        <ele>344</ele>
        <time>2015-11-15T08:28:07.000Z</time>
      </trkpt>
      <trkpt lat="47.45106" lon="6.69441">
        <ele>344</ele>
        <time>2015-11-15T08:28:09.000Z</time>
      </trkpt>
      <trkpt lat="47.45106" lon="6.69444">
        <ele>344</ele>
        <time>2015-11-15T08:28:10.000Z</time>
      </trkpt>
      <trkpt lat="47.45106" lon="6.69451">
        <ele>344</ele>
        <time>2015-11-15T08:28:12.000Z</time>
      </trkpt>
      <trkpt lat="47.45106" lon="6.69454">
        <ele>344</ele>
        <time>2015-11-15T08:28:13.000Z</time>
      </trkpt>
      <trkpt lat="47.45106" lon="6.69457">
        <ele>344</ele>
        <time>2015-11-15T08:28:14.000Z</time>
      </trkpt>
      <trkpt lat="47.45107" lon="6.69461">
        <ele>344</ele>
        <time>2015-11-15T08:28:15.000Z</time>
      </trkpt>
      <trkpt lat="47.45107" lon="6.69464">
        <ele>344</ele>
        <time>2015-11-15T08:28:16.000Z</time>
      </trkpt>
      <trkpt lat="47.45108" lon="6.69468">
        <ele>344</ele>
        <time>2015-11-15T08:28:17.000Z</time>
      </trkpt>
      <trkpt lat="47.45109" lon="6.69471">
        <ele>344</ele>
        <time>2015-11-15T08:28:18.000Z</time>
      </trkpt>
      <trkpt lat="47.45109" lon="6.69474">
        <ele>344</ele>
        <time>2015-11-15T08:28:19.000Z</time>
      </trkpt>
      <trkpt lat="47.4511" lon="6.69477">
        <ele>344</ele>
        <time>2015-11-15T08:28:20.000Z</time>
      </trkpt>
      <trkpt lat="47.45111" lon="6.69481">
        <ele>344</ele>
        <time>2015-11-15T08:28:21.000Z</time>
      </trkpt>
      <trkpt lat="47.45112" lon="6.69484">
        <ele>345</ele>
        <time>2015-11-15T08:28:22.000Z</time>
      </trkpt>
      <trkpt lat="47.45113" lon="6.69487">
        <ele>345</ele>
        <time>2015-11-15T08:28:23.000Z</time>
      </trkpt>
      <trkpt lat="47.45113" lon="6.69491">
        <ele>345</ele>
        <time>2015-11-15T08:28:24.000Z</time>
      </trkpt>
      <trkpt lat="47.45114" lon="6.69494">
        <ele>345</ele>
        <time>2015-11-15T08:28:25.000Z</time>
      </trkpt>
      <trkpt lat="47.45114" lon="6.69497">
        <ele>345</ele>
        <time>2015-11-15T08:28:26.000Z</time>
      </trkpt>
      <trkpt lat="47.45115" lon="6.69501">
        <ele>349</ele>
        <time>2015-11-15T08:28:27.000Z</time>
      </trkpt>
      <trkpt lat="47.45115" lon="6.69504">
        <ele>349</ele>
        <time>2015-11-15T08:28:28.000Z</time>
      </trkpt>
      <trkpt lat="47.45116" lon="6.69507">
        <ele>349</ele>
        <time>2015-11-15T08:28:29.000Z</time>
      </trkpt>
      <trkpt lat="47.45117" lon="6.69511">
        <ele>349</ele>
        <time>2015-11-15T08:28:30.000Z</time>
      </trkpt>
      <trkpt lat="47.45117" lon="6.69514">
        <ele>348</ele>
        <time>2015-11-15T08:28:31.000Z</time>
      </trkpt>
      <trkpt lat="47.45118" lon="6.69517">
        <ele>348</ele>
        <time>2015-11-15T08:28:32.000Z</time>
      </trkpt>
      <trkpt lat="47.45119" lon="6.6952">
        <ele>348</ele>
        <time>2015-11-15T08:28:33.000Z</time>
      </trkpt>
      <trkpt lat="47.4512" lon="6.69523">
        <ele>348</ele>
        <time>2015-11-15T08:28:34.000Z</time>
      </trkpt>
      <trkpt lat="47.45121" lon="6.69526">
        <ele>348</ele>
        <time>2015-11-15T08:28:35.000Z</time>
      </trkpt>
      <trkpt lat="47.45122" lon="6.69529">
        <ele>348</ele>
        <time>2015-11-15T08:28:36.000Z</time>
      </trkpt>
      <trkpt lat="47.45123" lon="6.69533">
        <ele>348</ele>
        <time>2015-11-15T08:28:37.000Z</time>
      </trkpt>
      <trkpt lat="47.45124" lon="6.69536">
        <ele>348</ele>
        <time>2015-11-15T08:28:38.000Z</time>
      </trkpt>
      <trkpt lat="47.45124" lon="6.69539">
        <ele>348</ele>
        <time>2015-11-15T08:28:39.000Z</time>
      </trkpt>
      <trkpt lat="47.45125" lon="6.69542">
        <ele>348</ele>
        <time>2015-11-15T08:28:40.000Z</time>
      </trkpt>
      <trkpt lat="47.45126" lon="6.69546">
        <ele>348</ele>
        <time>2015-11-15T08:28:41.000Z</time>
      </trkpt>
      <trkpt lat="47.45127" lon="6.69549">
        <ele>348</ele>
        <time>2015-11-15T08:28:42.000Z</time>
      </trkpt>
      <trkpt lat="47.45128" lon="6.69552">
        <ele>348</ele>
        <time>2015-11-15T08:28:43.000Z</time>
      </trkpt>
      <trkpt lat="47.45129" lon="6.69556">
        <ele>348</ele>
        <time>2015-11-15T08:28:44.000Z</time>
      </trkpt>
      <trkpt lat="47.4513" lon="6.69559">
        <ele>348</ele>
        <time>2015-11-15T08:28:45.000Z</time>
      </trkpt>
      <trkpt lat="47.45131" lon="6.69562">
        <ele>348</ele>
        <time>2015-11-15T08:28:46.000Z</time>
      </trkpt>
      <trkpt lat="47.45132" lon="6.69565">
        <ele>347</ele>
        <time>2015-11-15T08:28:47.000Z</time>
      </trkpt>
      <trkpt lat="47.45133" lon="6.69568">
        <ele>347</ele>
        <time>2015-11-15T08:28:48.000Z</time>
      </trkpt>
      <trkpt lat="47.45134" lon="6.69571">
        <ele>347</ele>
        <time>2015-11-15T08:28:49.000Z</time>
      </trkpt>
      <trkpt lat="47.45135" lon="6.69575">
        <ele>346</ele>
        <time>2015-11-15T08:28:50.000Z</time>
      </trkpt>
      <trkpt lat="47.45136" lon="6.69578">
        <ele>346</ele>
        <time>2015-11-15T08:28:51.000Z</time>
      </trkpt>
      <trkpt lat="47.45137" lon="6.69582">
        <ele>346</ele>
        <time>2015-11-15T08:28:52.000Z</time>
      </trkpt>
      <trkpt lat="47.45137" lon="6.69585">
        <ele>353</ele>
        <time>2015-11-15T08:28:53.000Z</time>
      </trkpt>
      <trkpt lat="47.45138" lon="6.69588">
        <ele>353</ele>
        <time>2015-11-15T08:28:54.000Z</time>
      </trkpt>
      <trkpt lat="47.45139" lon="6.69591">
        <ele>352</ele>
        <time>2015-11-15T08:28:55.000Z</time>
      </trkpt>
      <trkpt lat="47.45139" lon="6.69594">
        <ele>353</ele>
        <time>2015-11-15T08:28:56.000Z</time>
      </trkpt>
      <trkpt lat="47.4514" lon="6.69597">
        <ele>353</ele>
        <time>2015-11-15T08:28:57.000Z</time>
      </trkpt>
      <trkpt lat="47.45141" lon="6.69601">
        <ele>353</ele>
        <time>2015-11-15T08:28:58.000Z</time>
      </trkpt>
      <trkpt lat="47.45142" lon="6.69604">
        <ele>353</ele>
        <time>2015-11-15T08:28:59.000Z</time>
      </trkpt>
      <trkpt lat="47.45143" lon="6.69607">
        <ele>353</ele>
        <time>2015-11-15T08:29:00.000Z</time>
      </trkpt>
      <trkpt lat="47.45144" lon="6.6961">
        <ele>354</ele>
        <time>2015-11-15T08:29:01.000Z</time>
      </trkpt>
      <trkpt lat="47.45145" lon="6.69613">
        <ele>354</ele>
        <time>2015-11-15T08:29:02.000Z</time>
      </trkpt>
      <trkpt lat="47.45146" lon="6.69617">
        <ele>354</ele>
        <time>2015-11-15T08:29:03.000Z</time>
      </trkpt>
      <trkpt lat="47.45146" lon="6.6962">
        <ele>354</ele>
        <time>2015-11-15T08:29:04.000Z</time>
      </trkpt>
      <trkpt lat="47.45147" lon="6.69623">
        <ele>355</ele>
        <time>2015-11-15T08:29:05.000Z</time>
      </trkpt>
      <trkpt lat="47.45148" lon="6.69627">
        <ele>355</ele>
        <time>2015-11-15T08:29:06.000Z</time>
      </trkpt>
      <trkpt lat="47.45149" lon="6.6963">
        <ele>355</ele>
        <time>2015-11-15T08:29:07.000Z</time>
      </trkpt>
      <trkpt lat="47.4515" lon="6.69633">
        <ele>355</ele>
        <time>2015-11-15T08:29:08.000Z</time>
      </trkpt>
      <trkpt lat="47.45151" lon="6.69636">
        <ele>355</ele>
        <time>2015-11-15T08:29:09.000Z</time>
      </trkpt>
      <trkpt lat="47.45152" lon="6.69639">
        <ele>354</ele>
        <time>2015-11-15T08:29:10.000Z</time>
      </trkpt>
      <trkpt lat="47.45153" lon="6.69643">
        <ele>354</ele>
        <time>2015-11-15T08:29:11.000Z</time>
      </trkpt>
      <trkpt lat="47.45153" lon="6.69646">
        <ele>354</ele>
        <time>2015-11-15T08:29:12.000Z</time>
      </trkpt>
      <trkpt lat="47.45154" lon="6.69649">
        <ele>353</ele>
        <time>2015-11-15T08:29:13.000Z</time>
      </trkpt>
      <trkpt lat="47.45155" lon="6.69653">
        <ele>353</ele>
        <time>2015-11-15T08:29:14.000Z</time>
      </trkpt>
      <trkpt lat="47.45156" lon="6.69656">
        <ele>352</ele>
        <time>2015-11-15T08:29:15.000Z</time>
      </trkpt>
      <trkpt lat="47.45156" lon="6.69659">
        <ele>351</ele>
        <time>2015-11-15T08:29:16.000Z</time>
      </trkpt>
      <trkpt lat="47.45157" lon="6.69663">
        <ele>350</ele>
        <time>2015-11-15T08:29:17.000Z</time>
      </trkpt>
      <trkpt lat="47.45157" lon="6.69666">
        <ele>350</ele>
        <time>2015-11-15T08:29:18.000Z</time>
      </trkpt>
      <trkpt lat="47.45158" lon="6.69669">
        <ele>354</ele>
        <time>2015-11-15T08:29:19.000Z</time>
      </trkpt>
      <trkpt lat="47.45159" lon="6.69673">
        <ele>354</ele>
        <time>2015-11-15T08:29:20.000Z</time>
      </trkpt>
      <trkpt lat="47.4516" lon="6.69676">
        <ele>355</ele>
        <time>2015-11-15T08:29:21.000Z</time>
      </trkpt>
      <trkpt lat="47.45161" lon="6.69679">
        <ele>357</ele>
        <time>2015-11-15T08:29:22.000Z</time>
      </trkpt>
      <trkpt lat="47.45162" lon="6.69682">
        <ele>358</ele>
        <time>2015-11-15T08:29:23.000Z</time>
      </trkpt>
      <trkpt lat="47.45163" lon="6.69688">
        <ele>361</ele>
        <time>2015-11-15T08:29:25.000Z</time>
      </trkpt>
      <trkpt lat="47.45163" lon="6.69691">
        <ele>362</ele>
        <time>2015-11-15T08:29:26.000Z</time>
      </trkpt>
      <trkpt lat="47.45164" lon="6.69697">
        <ele>364</ele>
        <time>2015-11-15T08:29:28.000Z</time>
      </trkpt>
      <trkpt lat="47.45165" lon="6.697">
        <ele>365</ele>
        <time>2015-11-15T08:29:29.000Z</time>
      </trkpt>
      <trkpt lat="47.45165" lon="6.69703">
        <ele>365</ele>
        <time>2015-11-15T08:29:30.000Z</time>
      </trkpt>
      <trkpt lat="47.45165" lon="6.69707">
        <ele>366</ele>
        <time>2015-11-15T08:29:31.000Z</time>
      </trkpt>
      <trkpt lat="47.45166" lon="6.6971">
        <ele>366</ele>
        <time>2015-11-15T08:29:32.000Z</time>
      </trkpt>
      <trkpt lat="47.45166" lon="6.69713">
        <ele>367</ele>
        <time>2015-11-15T08:29:33.000Z</time>
      </trkpt>
      <trkpt lat="47.45168" lon="6.69717">
        <ele>349</ele>
        <time>2015-11-15T08:29:34.000Z</time>
      </trkpt>
      <trkpt lat="47.45169" lon="6.6972">
        <ele>349</ele>
        <time>2015-11-15T08:29:35.000Z</time>
      </trkpt>
      <trkpt lat="47.4517" lon="6.69723">
        <ele>350</ele>
        <time>2015-11-15T08:29:36.000Z</time>
      </trkpt>
      <trkpt lat="47.45171" lon="6.69726">
        <ele>350</ele>
        <time>2015-11-15T08:29:37.000Z</time>
      </trkpt>
      <trkpt lat="47.45172" lon="6.6973">
        <ele>351</ele>
        <time>2015-11-15T08:29:38.000Z</time>
      </trkpt>
      <trkpt lat="47.45173" lon="6.69733">
        <ele>352</ele>
        <time>2015-11-15T08:29:39.000Z</time>
      </trkpt>
      <trkpt lat="47.45174" lon="6.69736">
        <ele>353</ele>
        <time>2015-11-15T08:29:40.000Z</time>
      </trkpt>
      <trkpt lat="47.45175" lon="6.69739">
        <ele>353</ele>
        <time>2015-11-15T08:29:41.000Z</time>
      </trkpt>
      <trkpt lat="47.45176" lon="6.69743">
        <ele>354</ele>
        <time>2015-11-15T08:29:42.000Z</time>
      </trkpt>
      <trkpt lat="47.45176" lon="6.69746">
        <ele>355</ele>
        <time>2015-11-15T08:29:43.000Z</time>
      </trkpt>
      <trkpt lat="47.45177" lon="6.69749">
        <ele>355</ele>
        <time>2015-11-15T08:29:44.000Z</time>
      </trkpt>
      <trkpt lat="47.45178" lon="6.69753">
        <ele>359</ele>
        <time>2015-11-15T08:29:45.000Z</time>
      </trkpt>
      <trkpt lat="47.45179" lon="6.69756">
        <ele>359</ele>
        <time>2015-11-15T08:29:46.000Z</time>
      </trkpt>
      <trkpt lat="47.4518" lon="6.69759">
        <ele>359</ele>
        <time>2015-11-15T08:29:47.000Z</time>
      </trkpt>
      <trkpt lat="47.45181" lon="6.69762">
        <ele>359</ele>
        <time>2015-11-15T08:29:48.000Z</time>
      </trkpt>
      <trkpt lat="47.45182" lon="6.69765">
        <ele>359</ele>
        <time>2015-11-15T08:29:49.000Z</time>
      </trkpt>
      <trkpt lat="47.45183" lon="6.69768">
        <ele>359</ele>
        <time>2015-11-15T08:29:50.000Z</time>
      </trkpt>
      <trkpt lat="47.45184" lon="6.69771">
        <ele>359</ele>
        <time>2015-11-15T08:29:51.000Z</time>
      </trkpt>
      <trkpt lat="47.45185" lon="6.69775">
        <ele>359</ele>
        <time>2015-11-15T08:29:52.000Z</time>
      </trkpt>
      <trkpt lat="47.45186" lon="6.69778">
        <ele>359</ele>
        <time>2015-11-15T08:29:53.000Z</time>
      </trkpt>
      <trkpt lat="47.45186" lon="6.69781">
        <ele>359</ele>
        <time>2015-11-15T08:29:54.000Z</time>
      </trkpt>
      <trkpt lat="47.45187" lon="6.69785">
        <ele>360</ele>
        <time>2015-11-15T08:29:55.000Z</time>
      </trkpt>
      <trkpt lat="47.45189" lon="6.69788">
        <ele>360</ele>
        <time>2015-11-15T08:29:56.000Z</time>
      </trkpt>
      <trkpt lat="47.4519" lon="6.69792">
        <ele>360</ele>
        <time>2015-11-15T08:29:57.000Z</time>
      </trkpt>
      <trkpt lat="47.4519" lon="6.69796">
        <ele>361</ele>
        <time>2015-11-15T08:29:58.000Z</time>
      </trkpt>
      <trkpt lat="47.45191" lon="6.69799">
        <ele>361</ele>
        <time>2015-11-15T08:29:59.000Z</time>
      </trkpt>
      <trkpt lat="47.45192" lon="6.69802">
        <ele>361</ele>
        <time>2015-11-15T08:30:00.000Z</time>
      </trkpt>
      <trkpt lat="47.45193" lon="6.69805">
        <ele>361</ele>
        <time>2015-11-15T08:30:01.000Z</time>
      </trkpt>
      <trkpt lat="47.45194" lon="6.69808">
        <ele>362</ele>
        <time>2015-11-15T08:30:02.000Z</time>
      </trkpt>
      <trkpt lat="47.45195" lon="6.69811">
        <ele>362</ele>
        <time>2015-11-15T08:30:03.000Z</time>
      </trkpt>
      <trkpt lat="47.45196" lon="6.69814">
        <ele>362</ele>
        <time>2015-11-15T08:30:04.000Z</time>
      </trkpt>
      <trkpt lat="47.45197" lon="6.69817">
        <ele>362</ele>
        <time>2015-11-15T08:30:05.000Z</time>
      </trkpt>
      <trkpt lat="47.45198" lon="6.6982">
        <ele>362</ele>
        <time>2015-11-15T08:30:06.000Z</time>
      </trkpt>
      <trkpt lat="47.452" lon="6.69823">
        <ele>362</ele>
        <time>2015-11-15T08:30:07.000Z</time>
      </trkpt>
      <trkpt lat="47.45201" lon="6.69826">
        <ele>362</ele>
        <time>2015-11-15T08:30:08.000Z</time>
      </trkpt>
      <trkpt lat="47.45203" lon="6.69828">
        <ele>362</ele>
        <time>2015-11-15T08:30:09.000Z</time>
      </trkpt>
      <trkpt lat="47.45204" lon="6.69831">
        <ele>361</ele>
        <time>2015-11-15T08:30:10.000Z</time>
      </trkpt>
      <trkpt lat="47.45206" lon="6.69833">
        <ele>361</ele>
        <time>2015-11-15T08:30:11.000Z</time>
      </trkpt>
      <trkpt lat="47.45208" lon="6.69839">
        <ele>372</ele>
        <time>2015-11-15T08:30:13.000Z</time>
      </trkpt>
      <trkpt lat="47.45209" lon="6.69842">
        <ele>371</ele>
        <time>2015-11-15T08:30:14.000Z</time>
      </trkpt>
      <trkpt lat="47.45211" lon="6.69847">
        <ele>371</ele>
        <time>2015-11-15T08:30:16.000Z</time>
      </trkpt>
      <trkpt lat="47.45212" lon="6.6985">
        <ele>371</ele>
        <time>2015-11-15T08:30:17.000Z</time>
      </trkpt>
      <trkpt lat="47.45214" lon="6.69855">
        <ele>372</ele>
        <time>2015-11-15T08:30:19.000Z</time>
      </trkpt>
      <trkpt lat="47.45215" lon="6.69858">
        <ele>372</ele>
        <time>2015-11-15T08:30:20.000Z</time>
      </trkpt>
      <trkpt lat="47.45216" lon="6.69861">
        <ele>372</ele>
        <time>2015-11-15T08:30:21.000Z</time>
      </trkpt>
      <trkpt lat="47.45218" lon="6.69864">
        <ele>372</ele>
        <time>2015-11-15T08:30:22.000Z</time>
      </trkpt>
      <trkpt lat="47.45219" lon="6.69868">
        <ele>372</ele>
        <time>2015-11-15T08:30:23.000Z</time>
      </trkpt>
      <trkpt lat="47.4522" lon="6.69871">
        <ele>373</ele>
        <time>2015-11-15T08:30:24.000Z</time>
      </trkpt>
      <trkpt lat="47.45221" lon="6.69876">
        <ele>373</ele>
        <time>2015-11-15T08:30:26.000Z</time>
      </trkpt>
      <trkpt lat="47.45222" lon="6.69879">
        <ele>373</ele>
        <time>2015-11-15T08:30:27.000Z</time>
      </trkpt>
      <trkpt lat="47.45224" lon="6.69884">
        <ele>373</ele>
        <time>2015-11-15T08:30:29.000Z</time>
      </trkpt>
      <trkpt lat="47.45225" lon="6.69886">
        <ele>373</ele>
        <time>2015-11-15T08:30:30.000Z</time>
      </trkpt>
      <trkpt lat="47.45228" lon="6.69891">
        <ele>373</ele>
        <time>2015-11-15T08:30:32.000Z</time>
      </trkpt>
      <trkpt lat="47.4523" lon="6.69893">
        <ele>373</ele>
        <time>2015-11-15T08:30:33.000Z</time>
      </trkpt>
      <trkpt lat="47.45232" lon="6.69898">
        <ele>373</ele>
        <time>2015-11-15T08:30:35.000Z</time>
      </trkpt>
      <trkpt lat="47.45233" lon="6.69901">
        <ele>373</ele>
        <time>2015-11-15T08:30:36.000Z</time>
      </trkpt>
      <trkpt lat="47.45234" lon="6.69906">
        <ele>373</ele>
        <time>2015-11-15T08:30:38.000Z</time>
      </trkpt>
      <trkpt lat="47.45235" lon="6.69908">
        <ele>373</ele>
        <time>2015-11-15T08:30:39.000Z</time>
      </trkpt>
      <trkpt lat="47.45237" lon="6.69912">
        <ele>373</ele>
        <time>2015-11-15T08:30:41.000Z</time>
      </trkpt>
      <trkpt lat="47.45237" lon="6.69914">
        <ele>373</ele>
        <time>2015-11-15T08:30:42.000Z</time>
      </trkpt>
      <trkpt lat="47.45239" lon="6.69918">
        <ele>379</ele>
        <time>2015-11-15T08:30:44.000Z</time>
      </trkpt>
      <trkpt lat="47.4524" lon="6.6992">
        <ele>379</ele>
        <time>2015-11-15T08:30:45.000Z</time>
      </trkpt>
      <trkpt lat="47.45243" lon="6.69925">
        <ele>379</ele>
        <time>2015-11-15T08:30:47.000Z</time>
      </trkpt>
      <trkpt lat="47.45244" lon="6.69927">
        <ele>380</ele>
        <time>2015-11-15T08:30:48.000Z</time>
      </trkpt>
      <trkpt lat="47.45246" lon="6.69931">
        <ele>381</ele>
        <time>2015-11-15T08:30:50.000Z</time>
      </trkpt>
      <trkpt lat="47.45248" lon="6.69933">
        <ele>382</ele>
        <time>2015-11-15T08:30:51.000Z</time>
      </trkpt>
      <trkpt lat="47.45251" lon="6.69936">
        <ele>372</ele>
        <time>2015-11-15T08:30:54.000Z</time>
      </trkpt>
      <trkpt lat="47.45252" lon="6.69937">
        <ele>373</ele>
        <time>2015-11-15T08:30:55.000Z</time>
      </trkpt>
      <trkpt lat="47.45255" lon="6.69939">
        <ele>373</ele>
        <time>2015-11-15T08:30:57.000Z</time>
      </trkpt>
      <trkpt lat="47.45256" lon="6.6994">
        <ele>373</ele>
        <time>2015-11-15T08:30:58.000Z</time>
      </trkpt>
      <trkpt lat="47.45259" lon="6.69943">
        <ele>373</ele>
        <time>2015-11-15T08:31:00.000Z</time>
      </trkpt>
      <trkpt lat="47.45261" lon="6.69945">
        <ele>374</ele>
        <time>2015-11-15T08:31:01.000Z</time>
      </trkpt>
      <trkpt lat="47.45263" lon="6.69947">
        <ele>374</ele>
        <time>2015-11-15T08:31:02.000Z</time>
      </trkpt>
      <trkpt lat="47.45265" lon="6.6995">
        <ele>374</ele>
        <time>2015-11-15T08:31:03.000Z</time>
      </trkpt>
      <trkpt lat="47.45267" lon="6.69952">
        <ele>374</ele>
        <time>2015-11-15T08:31:04.000Z</time>
      </trkpt>
      <trkpt lat="47.45269" lon="6.69954">
        <ele>374</ele>
        <time>2015-11-15T08:31:05.000Z</time>
      </trkpt>
      <trkpt lat="47.45272" lon="6.69957">
        <ele>375</ele>
        <time>2015-11-15T08:31:07.000Z</time>
      </trkpt>
      <trkpt lat="47.45273" lon="6.69959">
        <ele>375</ele>
        <time>2015-11-15T08:31:08.000Z</time>
      </trkpt>
      <trkpt lat="47.45276" lon="6.69964">
        <ele>375</ele>
        <time>2015-11-15T08:31:10.000Z</time>
      </trkpt>
      <trkpt lat="47.45278" lon="6.69966">
        <ele>376</ele>
        <time>2015-11-15T08:31:11.000Z</time>
      </trkpt>
      <trkpt lat="47.4528" lon="6.69971">
        <ele>376</ele>
        <time>2015-11-15T08:31:13.000Z</time>
      </trkpt>
      <trkpt lat="47.45281" lon="6.69974">
        <ele>376</ele>
        <time>2015-11-15T08:31:14.000Z</time>
      </trkpt>
      <trkpt lat="47.45282" lon="6.69978">
        <ele>377</ele>
        <time>2015-11-15T08:31:15.000Z</time>
      </trkpt>
      <trkpt lat="47.45284" lon="6.69981">
        <ele>377</ele>
        <time>2015-11-15T08:31:16.000Z</time>
      </trkpt>
      <trkpt lat="47.45285" lon="6.69985">
        <ele>377</ele>
        <time>2015-11-15T08:31:17.000Z</time>
      </trkpt>
      <trkpt lat="47.45286" lon="6.69988">
        <ele>377</ele>
        <time>2015-11-15T08:31:18.000Z</time>
      </trkpt>
      <trkpt lat="47.45288" lon="6.69991">
        <ele>377</ele>
        <time>2015-11-15T08:31:19.000Z</time>
      </trkpt>
      <trkpt lat="47.4529" lon="6.69994">
        <ele>377</ele>
        <time>2015-11-15T08:31:20.000Z</time>
      </trkpt>
      <trkpt lat="47.45292" lon="6.7">
        <ele>377</ele>
        <time>2015-11-15T08:31:22.000Z</time>
      </trkpt>
      <trkpt lat="47.45293" lon="6.70002">
        <ele>389</ele>
        <time>2015-11-15T08:31:23.000Z</time>
      </trkpt>
      <trkpt lat="47.45294" lon="6.70008">
        <ele>389</ele>
        <time>2015-11-15T08:31:25.000Z</time>
      </trkpt>
      <trkpt lat="47.45295" lon="6.7001">
        <ele>389</ele>
        <time>2015-11-15T08:31:26.000Z</time>
      </trkpt>
      <trkpt lat="47.45297" lon="6.70015">
        <ele>389</ele>
        <time>2015-11-15T08:31:28.000Z</time>
      </trkpt>
      <trkpt lat="47.45298" lon="6.70018">
        <ele>389</ele>
        <time>2015-11-15T08:31:29.000Z</time>
      </trkpt>
      <trkpt lat="47.45299" lon="6.7002">
        <ele>389</ele>
        <time>2015-11-15T08:31:30.000Z</time>
      </trkpt>
      <trkpt lat="47.453" lon="6.70023">
        <ele>389</ele>
        <time>2015-11-15T08:31:31.000Z</time>
      </trkpt>
      <trkpt lat="47.45301" lon="6.70027">
        <ele>389</ele>
        <time>2015-11-15T08:31:32.000Z</time>
      </trkpt>
      <trkpt lat="47.45303" lon="6.70029">
        <ele>390</ele>
        <time>2015-11-15T08:31:33.000Z</time>
      </trkpt>
      <trkpt lat="47.45304" lon="6.70032">
        <ele>390</ele>
        <time>2015-11-15T08:31:34.000Z</time>
      </trkpt>
      <trkpt lat="47.45306" lon="6.70035">
        <ele>390</ele>
        <time>2015-11-15T08:31:35.000Z</time>
      </trkpt>
      <trkpt lat="47.45308" lon="6.70039">
        <ele>390</ele>
        <time>2015-11-15T08:31:37.000Z</time>
      </trkpt>
      <trkpt lat="47.45309" lon="6.70041">
        <ele>390</ele>
        <time>2015-11-15T08:31:38.000Z</time>
      </trkpt>
      <trkpt lat="47.45311" lon="6.70043">
        <ele>390</ele>
        <time>2015-11-15T08:31:39.000Z</time>
      </trkpt>
      <trkpt lat="47.45314" lon="6.70048">
        <ele>391</ele>
        <time>2015-11-15T08:31:41.000Z</time>
      </trkpt>
      <trkpt lat="47.45316" lon="6.70052">
        <ele>391</ele>
        <time>2015-11-15T08:31:43.000Z</time>
      </trkpt>
      <trkpt lat="47.45317" lon="6.70054">
        <ele>391</ele>
        <time>2015-11-15T08:31:44.000Z</time>
      </trkpt>
      <trkpt lat="47.4532" lon="6.70057">
        <ele>391</ele>
        <time>2015-11-15T08:31:49.000Z</time>
      </trkpt>
      <trkpt lat="47.45321" lon="6.70057">
        <ele>391</ele>
        <time>2015-11-15T08:31:50.000Z</time>
      </trkpt>
      <trkpt lat="47.45324" lon="6.7006">
        <ele>391</ele>
        <time>2015-11-15T08:31:52.000Z</time>
      </trkpt>
      <trkpt lat="47.45326" lon="6.70063">
        <ele>391</ele>
        <time>2015-11-15T08:31:53.000Z</time>
      </trkpt>
      <trkpt lat="47.45328" lon="6.70068">
        <ele>391</ele>
        <time>2015-11-15T08:31:55.000Z</time>
      </trkpt>
      <trkpt lat="47.4533" lon="6.7007">
        <ele>391</ele>
        <time>2015-11-15T08:31:56.000Z</time>
      </trkpt>
      <trkpt lat="47.45331" lon="6.70073">
        <ele>391</ele>
        <time>2015-11-15T08:31:57.000Z</time>
      </trkpt>
      <trkpt lat="47.45333" lon="6.70075">
        <ele>391</ele>
        <time>2015-11-15T08:31:58.000Z</time>
      </trkpt>
      <trkpt lat="47.45335" lon="6.70077">
        <ele>387</ele>
        <time>2015-11-15T08:31:59.000Z</time>
      </trkpt>
      <trkpt lat="47.45337" lon="6.70079">
        <ele>388</ele>
        <time>2015-11-15T08:32:00.000Z</time>
      </trkpt>
      <trkpt lat="47.4534" lon="6.70083">
        <ele>387</ele>
        <time>2015-11-15T08:32:02.000Z</time>
      </trkpt>
      <trkpt lat="47.45342" lon="6.70085">
        <ele>391</ele>
        <time>2015-11-15T08:32:03.000Z</time>
      </trkpt>
      <trkpt lat="47.45345" lon="6.70088">
        <ele>391</ele>
        <time>2015-11-15T08:32:05.000Z</time>
      </trkpt>
      <trkpt lat="47.45347" lon="6.7009">
        <ele>390</ele>
        <time>2015-11-15T08:32:06.000Z</time>
      </trkpt>
      <trkpt lat="47.45351" lon="6.70093">
        <ele>390</ele>
        <time>2015-11-15T08:32:08.000Z</time>
      </trkpt>
      <trkpt lat="47.45353" lon="6.70096">
        <ele>390</ele>
        <time>2015-11-15T08:32:09.000Z</time>
      </trkpt>
      <trkpt lat="47.45355" lon="6.70098">
        <ele>390</ele>
        <time>2015-11-15T08:32:10.000Z</time>
      </trkpt>
      <trkpt lat="47.45357" lon="6.701">
        <ele>390</ele>
        <time>2015-11-15T08:32:11.000Z</time>
      </trkpt>
      <trkpt lat="47.45359" lon="6.70102">
        <ele>390</ele>
        <time>2015-11-15T08:32:12.000Z</time>
      </trkpt>
      <trkpt lat="47.45361" lon="6.70105">
        <ele>390</ele>
        <time>2015-11-15T08:32:13.000Z</time>
      </trkpt>
      <trkpt lat="47.45363" lon="6.70107">
        <ele>390</ele>
        <time>2015-11-15T08:32:14.000Z</time>
      </trkpt>
      <trkpt lat="47.45365" lon="6.7011">
        <ele>390</ele>
        <time>2015-11-15T08:32:15.000Z</time>
      </trkpt>
      <trkpt lat="47.45368" lon="6.70113">
        <ele>390</ele>
        <time>2015-11-15T08:32:17.000Z</time>
      </trkpt>
      <trkpt lat="47.45369" lon="6.70115">
        <ele>390</ele>
        <time>2015-11-15T08:32:18.000Z</time>
      </trkpt>
      <trkpt lat="47.45371" lon="6.70118">
        <ele>390</ele>
        <time>2015-11-15T08:32:20.000Z</time>
      </trkpt>
      <trkpt lat="47.45372" lon="6.7012">
        <ele>390</ele>
        <time>2015-11-15T08:32:21.000Z</time>
      </trkpt>
      <trkpt lat="47.45375" lon="6.70124">
        <ele>390</ele>
        <time>2015-11-15T08:32:23.000Z</time>
      </trkpt>
      <trkpt lat="47.45377" lon="6.70127">
        <ele>390</ele>
        <time>2015-11-15T08:32:24.000Z</time>
      </trkpt>
      <trkpt lat="47.4538" lon="6.70129">
        <ele>390</ele>
        <time>2015-11-15T08:32:25.000Z</time>
      </trkpt>
      <trkpt lat="47.45382" lon="6.70132">
        <ele>390</ele>
        <time>2015-11-15T08:32:26.000Z</time>
      </trkpt>
      <trkpt lat="47.45383" lon="6.70135">
        <ele>390</ele>
        <time>2015-11-15T08:32:27.000Z</time>
      </trkpt>
      <trkpt lat="47.45384" lon="6.70139">
        <ele>390</ele>
        <time>2015-11-15T08:32:28.000Z</time>
      </trkpt>
      <trkpt lat="47.45385" lon="6.70143">
        <ele>391</ele>
        <time>2015-11-15T08:32:29.000Z</time>
      </trkpt>
      <trkpt lat="47.45386" lon="6.70147">
        <ele>391</ele>
        <time>2015-11-15T08:32:30.000Z</time>
      </trkpt>
      <trkpt lat="47.45387" lon="6.70151">
        <ele>391</ele>
        <time>2015-11-15T08:32:31.000Z</time>
      </trkpt>
      <trkpt lat="47.45389" lon="6.70154">
        <ele>391</ele>
        <time>2015-11-15T08:32:32.000Z</time>
      </trkpt>
      <trkpt lat="47.4539" lon="6.70157">
        <ele>391</ele>
        <time>2015-11-15T08:32:33.000Z</time>
      </trkpt>
      <trkpt lat="47.45391" lon="6.7016">
        <ele>391</ele>
        <time>2015-11-15T08:32:34.000Z</time>
      </trkpt>
      <trkpt lat="47.45394" lon="6.70165">
        <ele>391</ele>
        <time>2015-11-15T08:32:36.000Z</time>
      </trkpt>
      <trkpt lat="47.45395" lon="6.70168">
        <ele>395</ele>
        <time>2015-11-15T08:32:37.000Z</time>
      </trkpt>
      <trkpt lat="47.45396" lon="6.70171">
        <ele>395</ele>
        <time>2015-11-15T08:32:38.000Z</time>
      </trkpt>
      <trkpt lat="47.45397" lon="6.70174">
        <ele>395</ele>
        <time>2015-11-15T08:32:39.000Z</time>
      </trkpt>
      <trkpt lat="47.45398" lon="6.70178">
        <ele>395</ele>
        <time>2015-11-15T08:32:40.000Z</time>
      </trkpt>
      <trkpt lat="47.45399" lon="6.70182">
        <ele>395</ele>
        <time>2015-11-15T08:32:41.000Z</time>
      </trkpt>
      <trkpt lat="47.45399" lon="6.70186">
        <ele>396</ele>
        <time>2015-11-15T08:32:42.000Z</time>
      </trkpt>
      <trkpt lat="47.454" lon="6.7019">
        <ele>396</ele>
        <time>2015-11-15T08:32:43.000Z</time>
      </trkpt>
      <trkpt lat="47.45401" lon="6.70194">
        <ele>396</ele>
        <time>2015-11-15T08:32:44.000Z</time>
      </trkpt>
      <trkpt lat="47.45401" lon="6.70198">
        <ele>396</ele>
        <time>2015-11-15T08:32:45.000Z</time>
      </trkpt>
      <trkpt lat="47.45402" lon="6.70202">
        <ele>397</ele>
        <time>2015-11-15T08:32:46.000Z</time>
      </trkpt>
      <trkpt lat="47.45402" lon="6.70206">
        <ele>397</ele>
        <time>2015-11-15T08:32:47.000Z</time>
      </trkpt>
      <trkpt lat="47.45401" lon="6.7021">
        <ele>397</ele>
        <time>2015-11-15T08:32:48.000Z</time>
      </trkpt>
      <trkpt lat="47.45401" lon="6.70214">
        <ele>397</ele>
        <time>2015-11-15T08:32:49.000Z</time>
      </trkpt>
      <trkpt lat="47.45401" lon="6.70218">
        <ele>398</ele>
        <time>2015-11-15T08:32:50.000Z</time>
      </trkpt>
      <trkpt lat="47.454" lon="6.70221">
        <ele>398</ele>
        <time>2015-11-15T08:32:51.000Z</time>
      </trkpt>
      <trkpt lat="47.454" lon="6.70225">
        <ele>398</ele>
        <time>2015-11-15T08:32:52.000Z</time>
      </trkpt>
      <trkpt lat="47.45399" lon="6.70228">
        <ele>398</ele>
        <time>2015-11-15T08:32:53.000Z</time>
      </trkpt>
      <trkpt lat="47.45397" lon="6.70234">
        <ele>398</ele>
        <time>2015-11-15T08:32:55.000Z</time>
      </trkpt>
      <trkpt lat="47.45396" lon="6.70237">
        <ele>398</ele>
        <time>2015-11-15T08:32:56.000Z</time>
      </trkpt>
      <trkpt lat="47.45393" lon="6.70241">
        <ele>398</ele>
        <time>2015-11-15T08:32:58.000Z</time>
      </trkpt>
      <trkpt lat="47.45391" lon="6.70243">
        <ele>398</ele>
        <time>2015-11-15T08:32:59.000Z</time>
      </trkpt>
      <trkpt lat="47.45388" lon="6.70245">
        <ele>399</ele>
        <time>2015-11-15T08:33:01.000Z</time>
      </trkpt>
      <trkpt lat="47.45387" lon="6.70247">
        <ele>399</ele>
        <time>2015-11-15T08:33:02.000Z</time>
      </trkpt>
      <trkpt lat="47.45383" lon="6.70248">
        <ele>399</ele>
        <time>2015-11-15T08:33:04.000Z</time>
      </trkpt>
      <trkpt lat="47.4538" lon="6.70248">
        <ele>399</ele>
        <time>2015-11-15T08:33:05.000Z</time>
      </trkpt>
      <trkpt lat="47.45376" lon="6.7025">
        <ele>400</ele>
        <time>2015-11-15T08:33:07.000Z</time>
      </trkpt>
      <trkpt lat="47.45375" lon="6.70253">
        <ele>400</ele>
        <time>2015-11-15T08:33:08.000Z</time>
      </trkpt>
      <trkpt lat="47.45374" lon="6.70258">
        <ele>400</ele>
        <time>2015-11-15T08:33:10.000Z</time>
      </trkpt>
      <trkpt lat="47.45374" lon="6.7026">
        <ele>400</ele>
        <time>2015-11-15T08:33:11.000Z</time>
      </trkpt>
      <trkpt lat="47.45371" lon="6.70266">
        <ele>401</ele>
        <time>2015-11-15T08:33:13.000Z</time>
      </trkpt>
      <trkpt lat="47.4537" lon="6.70268">
        <ele>401</ele>
        <time>2015-11-15T08:33:14.000Z</time>
      </trkpt>
      <trkpt lat="47.45368" lon="6.70271">
        <ele>401</ele>
        <time>2015-11-15T08:33:15.000Z</time>
      </trkpt>
      <trkpt lat="47.45366" lon="6.70274">
        <ele>401</ele>
        <time>2015-11-15T08:33:16.000Z</time>
      </trkpt>
      <trkpt lat="47.45365" lon="6.70278">
        <ele>401</ele>
        <time>2015-11-15T08:33:17.000Z</time>
      </trkpt>
      <trkpt lat="47.45363" lon="6.70281">
        <ele>401</ele>
        <time>2015-11-15T08:33:18.000Z</time>
      </trkpt>
      <trkpt lat="47.45363" lon="6.70285">
        <ele>401</ele>
        <time>2015-11-15T08:33:19.000Z</time>
      </trkpt>
      <trkpt lat="47.45362" lon="6.70289">
        <ele>401</ele>
        <time>2015-11-15T08:33:20.000Z</time>
      </trkpt>
      <trkpt lat="47.45361" lon="6.70293">
        <ele>401</ele>
        <time>2015-11-15T08:33:21.000Z</time>
      </trkpt>
      <trkpt lat="47.45361" lon="6.70296">
        <ele>401</ele>
        <time>2015-11-15T08:33:22.000Z</time>
      </trkpt>
      <trkpt lat="47.45361" lon="6.70301">
        <ele>401</ele>
        <time>2015-11-15T08:33:24.000Z</time>
      </trkpt>
      <trkpt lat="47.45361" lon="6.70304">
        <ele>401</ele>
        <time>2015-11-15T08:33:25.000Z</time>
      </trkpt>
      <trkpt lat="47.45362" lon="6.70306">
        <ele>401</ele>
        <time>2015-11-15T08:33:26.000Z</time>
      </trkpt>
      <trkpt lat="47.45363" lon="6.7031">
        <ele>401</ele>
        <time>2015-11-15T08:33:27.000Z</time>
      </trkpt>
      <trkpt lat="47.45363" lon="6.70315">
        <ele>401</ele>
        <time>2015-11-15T08:33:28.000Z</time>
      </trkpt>
      <trkpt lat="47.45364" lon="6.70319">
        <ele>401</ele>
        <time>2015-11-15T08:33:29.000Z</time>
      </trkpt>
      <trkpt lat="47.45365" lon="6.70324">
        <ele>401</ele>
        <time>2015-11-15T08:33:30.000Z</time>
      </trkpt>
      <trkpt lat="47.45367" lon="6.70329">
        <ele>401</ele>
        <time>2015-11-15T08:33:31.000Z</time>
      </trkpt>
      <trkpt lat="47.45368" lon="6.70335">
        <ele>403</ele>
        <time>2015-11-15T08:33:32.000Z</time>
      </trkpt>
      <trkpt lat="47.45369" lon="6.7034">
        <ele>402</ele>
        <time>2015-11-15T08:33:33.000Z</time>
      </trkpt>
      <trkpt lat="47.4537" lon="6.70346">
        <ele>402</ele>
        <time>2015-11-15T08:33:34.000Z</time>
      </trkpt>
      <trkpt lat="47.4537" lon="6.70351">
        <ele>403</ele>
        <time>2015-11-15T08:33:35.000Z</time>
      </trkpt>
      <trkpt lat="47.45371" lon="6.70357">
        <ele>403</ele>
        <time>2015-11-15T08:33:36.000Z</time>
      </trkpt>
      <trkpt lat="47.45373" lon="6.70363">
        <ele>403</ele>
        <time>2015-11-15T08:33:37.000Z</time>
      </trkpt>
      <trkpt lat="47.45374" lon="6.70368">
        <ele>403</ele>
        <time>2015-11-15T08:33:38.000Z</time>
      </trkpt>
      <trkpt lat="47.45375" lon="6.70374">
        <ele>403</ele>
        <time>2015-11-15T08:33:39.000Z</time>
      </trkpt>
      <trkpt lat="47.45377" lon="6.70381">
        <ele>403</ele>
        <time>2015-11-15T08:33:40.000Z</time>
      </trkpt>
      <trkpt lat="47.4538" lon="6.70389">
        <ele>403</ele>
        <time>2015-11-15T08:33:41.000Z</time>
      </trkpt>
      <trkpt lat="47.45382" lon="6.70395">
        <ele>403</ele>
        <time>2015-11-15T08:33:42.000Z</time>
      </trkpt>
      <trkpt lat="47.45384" lon="6.70402">
        <ele>403</ele>
        <time>2015-11-15T08:33:43.000Z</time>
      </trkpt>
      <trkpt lat="47.45386" lon="6.70407">
        <ele>403</ele>
        <time>2015-11-15T08:33:44.000Z</time>
      </trkpt>
      <trkpt lat="47.45388" lon="6.70413">
        <ele>403</ele>
        <time>2015-11-15T08:33:45.000Z</time>
      </trkpt>
      <trkpt lat="47.45388" lon="6.70419">
        <ele>408</ele>
        <time>2015-11-15T08:33:47.000Z</time>
      </trkpt>
      <trkpt lat="47.45391" lon="6.70424">
        <ele>408</ele>
        <time>2015-11-15T08:33:48.000Z</time>
      </trkpt>
      <trkpt lat="47.45393" lon="6.70426">
        <ele>407</ele>
        <time>2015-11-15T08:33:49.000Z</time>
      </trkpt>
      <trkpt lat="47.45396" lon="6.70428">
        <ele>407</ele>
        <time>2015-11-15T08:33:50.000Z</time>
      </trkpt>
      <trkpt lat="47.45399" lon="6.70433">
        <ele>407</ele>
        <time>2015-11-15T08:33:51.000Z</time>
      </trkpt>
      <trkpt lat="47.45402" lon="6.70436">
        <ele>407</ele>
        <time>2015-11-15T08:33:52.000Z</time>
      </trkpt>
      <trkpt lat="47.45406" lon="6.7044">
        <ele>407</ele>
        <time>2015-11-15T08:33:53.000Z</time>
      </trkpt>
      <trkpt lat="47.4541" lon="6.70443">
        <ele>407</ele>
        <time>2015-11-15T08:33:54.000Z</time>
      </trkpt>
      <trkpt lat="47.45413" lon="6.70446">
        <ele>408</ele>
        <time>2015-11-15T08:33:55.000Z</time>
      </trkpt>
      <trkpt lat="47.45415" lon="6.70448">
        <ele>408</ele>
        <time>2015-11-15T08:33:56.000Z</time>
      </trkpt>
      <trkpt lat="47.45419" lon="6.7045">
        <ele>401</ele>
        <time>2015-11-15T08:33:57.000Z</time>
      </trkpt>
      <trkpt lat="47.45423" lon="6.70453">
        <ele>401</ele>
        <time>2015-11-15T08:33:58.000Z</time>
      </trkpt>
      <trkpt lat="47.45427" lon="6.70456">
        <ele>401</ele>
        <time>2015-11-15T08:33:59.000Z</time>
      </trkpt>
      <trkpt lat="47.4543" lon="6.70461">
        <ele>402</ele>
        <time>2015-11-15T08:34:00.000Z</time>
      </trkpt>
      <trkpt lat="47.45435" lon="6.70463">
        <ele>402</ele>
        <time>2015-11-15T08:34:01.000Z</time>
      </trkpt>
      <trkpt lat="47.45439" lon="6.70465">
        <ele>402</ele>
        <time>2015-11-15T08:34:02.000Z</time>
      </trkpt>
      <trkpt lat="47.45443" lon="6.70466">
        <ele>402</ele>
        <time>2015-11-15T08:34:03.000Z</time>
      </trkpt>
      <trkpt lat="47.45449" lon="6.70467">
        <ele>401</ele>
        <time>2015-11-15T08:34:04.000Z</time>
      </trkpt>
      <trkpt lat="47.45454" lon="6.7047">
        <ele>401</ele>
        <time>2015-11-15T08:34:05.000Z</time>
      </trkpt>
      <trkpt lat="47.45458" lon="6.70473">
        <ele>401</ele>
        <time>2015-11-15T08:34:06.000Z</time>
      </trkpt>
      <trkpt lat="47.45463" lon="6.70475">
        <ele>401</ele>
        <time>2015-11-15T08:34:07.000Z</time>
      </trkpt>
      <trkpt lat="47.45467" lon="6.70477">
        <ele>401</ele>
        <time>2015-11-15T08:34:08.000Z</time>
      </trkpt>
      <trkpt lat="47.45472" lon="6.70481">
        <ele>401</ele>
        <time>2015-11-15T08:34:09.000Z</time>
      </trkpt>
      <trkpt lat="47.45476" lon="6.70483">
        <ele>400</ele>
        <time>2015-11-15T08:34:10.000Z</time>
      </trkpt>
      <trkpt lat="47.4548" lon="6.70484">
        <ele>400</ele>
        <time>2015-11-15T08:34:11.000Z</time>
      </trkpt>
      <trkpt lat="47.45485" lon="6.70487">
        <ele>400</ele>
        <time>2015-11-15T08:34:12.000Z</time>
      </trkpt>
      <trkpt lat="47.45489" lon="6.70488">
        <ele>400</ele>
        <time>2015-11-15T08:34:13.000Z</time>
      </trkpt>
      <trkpt lat="47.45494" lon="6.70492">
        <ele>401</ele>
        <time>2015-11-15T08:34:14.000Z</time>
      </trkpt>
      <trkpt lat="47.45498" lon="6.70495">
        <ele>401</ele>
        <time>2015-11-15T08:34:15.000Z</time>
      </trkpt>
      <trkpt lat="47.45501" lon="6.70497">
        <ele>400</ele>
        <time>2015-11-15T08:34:16.000Z</time>
      </trkpt>
      <trkpt lat="47.45504" lon="6.70499">
        <ele>399</ele>
        <time>2015-11-15T08:34:17.000Z</time>
      </trkpt>
      <trkpt lat="47.45506" lon="6.70502">
        <ele>401</ele>
        <time>2015-11-15T08:34:18.000Z</time>
      </trkpt>
      <trkpt lat="47.45509" lon="6.70505">
        <ele>402</ele>
        <time>2015-11-15T08:34:19.000Z</time>
      </trkpt>
      <trkpt lat="47.45511" lon="6.70508">
        <ele>402</ele>
        <time>2015-11-15T08:34:20.000Z</time>
      </trkpt>
      <trkpt lat="47.45515" lon="6.70512">
        <ele>402</ele>
        <time>2015-11-15T08:34:21.000Z</time>
      </trkpt>
      <trkpt lat="47.45519" lon="6.70516">
        <ele>402</ele>
        <time>2015-11-15T08:34:22.000Z</time>
      </trkpt>
      <trkpt lat="47.45523" lon="6.70519">
        <ele>402</ele>
        <time>2015-11-15T08:34:23.000Z</time>
      </trkpt>
      <trkpt lat="47.45526" lon="6.70521">
        <ele>402</ele>
        <time>2015-11-15T08:34:24.000Z</time>
      </trkpt>
      <trkpt lat="47.45528" lon="6.70524">
        <ele>403</ele>
        <time>2015-11-15T08:34:25.000Z</time>
      </trkpt>
      <trkpt lat="47.45531" lon="6.70526">
        <ele>403</ele>
        <time>2015-11-15T08:34:26.000Z</time>
      </trkpt>
      <trkpt lat="47.45534" lon="6.70528">
        <ele>403</ele>
        <time>2015-11-15T08:34:27.000Z</time>
      </trkpt>
      <trkpt lat="47.45537" lon="6.7053">
        <ele>403</ele>
        <time>2015-11-15T08:34:28.000Z</time>
      </trkpt>
      <trkpt lat="47.4554" lon="6.70533">
        <ele>403</ele>
        <time>2015-11-15T08:34:29.000Z</time>
      </trkpt>
      <trkpt lat="47.45543" lon="6.70536">
        <ele>403</ele>
        <time>2015-11-15T08:34:30.000Z</time>
      </trkpt>
      <trkpt lat="47.45546" lon="6.70538">
        <ele>403</ele>
        <time>2015-11-15T08:34:31.000Z</time>
      </trkpt>
      <trkpt lat="47.45549" lon="6.7054">
        <ele>403</ele>
        <time>2015-11-15T08:34:32.000Z</time>
      </trkpt>
      <trkpt lat="47.45552" lon="6.70542">
        <ele>403</ele>
        <time>2015-11-15T08:34:33.000Z</time>
      </trkpt>
      <trkpt lat="47.45556" lon="6.70544">
        <ele>403</ele>
        <time>2015-11-15T08:34:34.000Z</time>
      </trkpt>
      <trkpt lat="47.45559" lon="6.70546">
        <ele>403</ele>
        <time>2015-11-15T08:34:35.000Z</time>
      </trkpt>
      <trkpt lat="47.45563" lon="6.70548">
        <ele>403</ele>
        <time>2015-11-15T08:34:36.000Z</time>
      </trkpt>
      <trkpt lat="47.45566" lon="6.70551">
        <ele>403</ele>
        <time>2015-11-15T08:34:37.000Z</time>
      </trkpt>
      <trkpt lat="47.45568" lon="6.70553">
        <ele>403</ele>
        <time>2015-11-15T08:34:38.000Z</time>
      </trkpt>
      <trkpt lat="47.45571" lon="6.70555">
        <ele>403</ele>
        <time>2015-11-15T08:34:39.000Z</time>
      </trkpt>
      <trkpt lat="47.45573" lon="6.70558">
        <ele>403</ele>
        <time>2015-11-15T08:34:40.000Z</time>
      </trkpt>
      <trkpt lat="47.45575" lon="6.7056">
        <ele>403</ele>
        <time>2015-11-15T08:34:41.000Z</time>
      </trkpt>
      <trkpt lat="47.45577" lon="6.70562">
        <ele>403</ele>
        <time>2015-11-15T08:34:42.000Z</time>
      </trkpt>
      <trkpt lat="47.4558" lon="6.70564">
        <ele>404</ele>
        <time>2015-11-15T08:34:43.000Z</time>
      </trkpt>
      <trkpt lat="47.45583" lon="6.70566">
        <ele>404</ele>
        <time>2015-11-15T08:34:44.000Z</time>
      </trkpt>
      <trkpt lat="47.45585" lon="6.70567">
        <ele>401</ele>
        <time>2015-11-15T08:34:45.000Z</time>
      </trkpt>
      <trkpt lat="47.45589" lon="6.70569">
        <ele>401</ele>
        <time>2015-11-15T08:34:47.000Z</time>
      </trkpt>
      <trkpt lat="47.45591" lon="6.70569">
        <ele>400</ele>
        <time>2015-11-15T08:34:48.000Z</time>
      </trkpt>
      <trkpt lat="47.45594" lon="6.70569">
        <ele>400</ele>
        <time>2015-11-15T08:34:49.000Z</time>
      </trkpt>
      <trkpt lat="47.45596" lon="6.70569">
        <ele>400</ele>
        <time>2015-11-15T08:34:50.000Z</time>
      </trkpt>
      <trkpt lat="47.45598" lon="6.70571">
        <ele>400</ele>
        <time>2015-11-15T08:34:51.000Z</time>
      </trkpt>
      <trkpt lat="47.456" lon="6.70574">
        <ele>400</ele>
        <time>2015-11-15T08:34:52.000Z</time>
      </trkpt>
      <trkpt lat="47.45602" lon="6.70577">
        <ele>400</ele>
        <time>2015-11-15T08:34:53.000Z</time>
      </trkpt>
      <trkpt lat="47.45604" lon="6.70581">
        <ele>400</ele>
        <time>2015-11-15T08:34:54.000Z</time>
      </trkpt>
      <trkpt lat="47.45607" lon="6.70583">
        <ele>400</ele>
        <time>2015-11-15T08:34:55.000Z</time>
      </trkpt>
      <trkpt lat="47.4561" lon="6.70584">
        <ele>406</ele>
        <time>2015-11-15T08:34:56.000Z</time>
      </trkpt>
      <trkpt lat="47.45613" lon="6.70585">
        <ele>406</ele>
        <time>2015-11-15T08:34:57.000Z</time>
      </trkpt>
      <trkpt lat="47.45616" lon="6.70584">
        <ele>406</ele>
        <time>2015-11-15T08:34:58.000Z</time>
      </trkpt>
      <trkpt lat="47.45618" lon="6.70583">
        <ele>399</ele>
        <time>2015-11-15T08:34:59.000Z</time>
      </trkpt>
      <trkpt lat="47.45621" lon="6.70581">
        <ele>399</ele>
        <time>2015-11-15T08:35:00.000Z</time>
      </trkpt>
      <trkpt lat="47.45624" lon="6.70579">
        <ele>399</ele>
        <time>2015-11-15T08:35:01.000Z</time>
      </trkpt>
      <trkpt lat="47.45627" lon="6.70577">
        <ele>398</ele>
        <time>2015-11-15T08:35:02.000Z</time>
      </trkpt>
      <trkpt lat="47.4563" lon="6.70576">
        <ele>398</ele>
        <time>2015-11-15T08:35:03.000Z</time>
      </trkpt>
      <trkpt lat="47.45632" lon="6.70576">
        <ele>398</ele>
        <time>2015-11-15T08:35:04.000Z</time>
      </trkpt>
      <trkpt lat="47.45636" lon="6.70578">
        <ele>398</ele>
        <time>2015-11-15T08:35:06.000Z</time>
      </trkpt>
      <trkpt lat="47.45638" lon="6.7058">
        <ele>398</ele>
        <time>2015-11-15T08:35:07.000Z</time>
      </trkpt>
      <trkpt lat="47.45642" lon="6.70584">
        <ele>405</ele>
        <time>2015-11-15T08:35:09.000Z</time>
      </trkpt>
      <trkpt lat="47.45643" lon="6.70586">
        <ele>405</ele>
        <time>2015-11-15T08:35:10.000Z</time>
      </trkpt>
      <trkpt lat="47.45647" lon="6.70586">
        <ele>405</ele>
        <time>2015-11-15T08:35:12.000Z</time>
      </trkpt>
      <trkpt lat="47.45648" lon="6.70587">
        <ele>404</ele>
        <time>2015-11-15T08:35:13.000Z</time>
      </trkpt>
      <trkpt lat="47.4565" lon="6.70588">
        <ele>404</ele>
        <time>2015-11-15T08:35:14.000Z</time>
      </trkpt>
      <trkpt lat="47.45652" lon="6.70591">
        <ele>404</ele>
        <time>2015-11-15T08:35:15.000Z</time>
      </trkpt>
      <trkpt lat="47.45654" lon="6.70595">
        <ele>404</ele>
        <time>2015-11-15T08:35:16.000Z</time>
      </trkpt>
      <trkpt lat="47.45657" lon="6.70599">
        <ele>405</ele>
        <time>2015-11-15T08:35:17.000Z</time>
      </trkpt>
      <trkpt lat="47.45661" lon="6.70602">
        <ele>405</ele>
        <time>2015-11-15T08:35:18.000Z</time>
      </trkpt>
      <trkpt lat="47.45664" lon="6.70605">
        <ele>405</ele>
        <time>2015-11-15T08:35:19.000Z</time>
      </trkpt>
      <trkpt lat="47.45667" lon="6.70607">
        <ele>402</ele>
        <time>2015-11-15T08:35:20.000Z</time>
      </trkpt>
      <trkpt lat="47.45671" lon="6.7061">
        <ele>402</ele>
        <time>2015-11-15T08:35:21.000Z</time>
      </trkpt>
      <trkpt lat="47.45674" lon="6.70614">
        <ele>402</ele>
        <time>2015-11-15T08:35:22.000Z</time>
      </trkpt>
      <trkpt lat="47.45676" lon="6.70618">
        <ele>402</ele>
        <time>2015-11-15T08:35:23.000Z</time>
      </trkpt>
      <trkpt lat="47.45679" lon="6.70623">
        <ele>403</ele>
        <time>2015-11-15T08:35:24.000Z</time>
      </trkpt>
      <trkpt lat="47.45681" lon="6.70628">
        <ele>403</ele>
        <time>2015-11-15T08:35:25.000Z</time>
      </trkpt>
      <trkpt lat="47.45684" lon="6.70632">
        <ele>403</ele>
        <time>2015-11-15T08:35:26.000Z</time>
      </trkpt>
      <trkpt lat="47.45686" lon="6.70636">
        <ele>404</ele>
        <time>2015-11-15T08:35:27.000Z</time>
      </trkpt>
      <trkpt lat="47.45688" lon="6.70641">
        <ele>404</ele>
        <time>2015-11-15T08:35:28.000Z</time>
      </trkpt>
      <trkpt lat="47.4569" lon="6.70646">
        <ele>404</ele>
        <time>2015-11-15T08:35:29.000Z</time>
      </trkpt>
      <trkpt lat="47.45691" lon="6.70651">
        <ele>404</ele>
        <time>2015-11-15T08:35:30.000Z</time>
      </trkpt>
      <trkpt lat="47.45692" lon="6.70656">
        <ele>405</ele>
        <time>2015-11-15T08:35:31.000Z</time>
      </trkpt>
      <trkpt lat="47.45693" lon="6.70661">
        <ele>405</ele>
        <time>2015-11-15T08:35:32.000Z</time>
      </trkpt>
      <trkpt lat="47.45695" lon="6.70666">
        <ele>405</ele>
        <time>2015-11-15T08:35:33.000Z</time>
      </trkpt>
      <trkpt lat="47.45697" lon="6.70672">
        <ele>409</ele>
        <time>2015-11-15T08:35:34.000Z</time>
      </trkpt>
      <trkpt lat="47.45699" lon="6.70676">
        <ele>409</ele>
        <time>2015-11-15T08:35:35.000Z</time>
      </trkpt>
      <trkpt lat="47.45701" lon="6.7068">
        <ele>408</ele>
        <time>2015-11-15T08:35:36.000Z</time>
      </trkpt>
      <trkpt lat="47.45703" lon="6.70683">
        <ele>408</ele>
        <time>2015-11-15T08:35:37.000Z</time>
      </trkpt>
      <trkpt lat="47.45705" lon="6.70687">
        <ele>408</ele>
        <time>2015-11-15T08:35:38.000Z</time>
      </trkpt>
      <trkpt lat="47.45707" lon="6.70691">
        <ele>408</ele>
        <time>2015-11-15T08:35:39.000Z</time>
      </trkpt>
      <trkpt lat="47.45709" lon="6.70696">
        <ele>408</ele>
        <time>2015-11-15T08:35:40.000Z</time>
      </trkpt>
      <trkpt lat="47.45711" lon="6.70701">
        <ele>408</ele>
        <time>2015-11-15T08:35:41.000Z</time>
      </trkpt>
      <trkpt lat="47.45712" lon="6.70705">
        <ele>408</ele>
        <time>2015-11-15T08:35:42.000Z</time>
      </trkpt>
      <trkpt lat="47.45713" lon="6.70709">
        <ele>408</ele>
        <time>2015-11-15T08:35:43.000Z</time>
      </trkpt>
      <trkpt lat="47.45714" lon="6.70712">
        <ele>409</ele>
        <time>2015-11-15T08:35:44.000Z</time>
      </trkpt>
      <trkpt lat="47.45715" lon="6.70715">
        <ele>409</ele>
        <time>2015-11-15T08:35:45.000Z</time>
      </trkpt>
      <trkpt lat="47.45716" lon="6.70718">
        <ele>409</ele>
        <time>2015-11-15T08:35:46.000Z</time>
      </trkpt>
      <trkpt lat="47.45716" lon="6.70722">
        <ele>409</ele>
        <time>2015-11-15T08:35:47.000Z</time>
      </trkpt>
      <trkpt lat="47.45716" lon="6.70726">
        <ele>409</ele>
        <time>2015-11-15T08:35:48.000Z</time>
      </trkpt>
      <trkpt lat="47.45716" lon="6.70731">
        <ele>409</ele>
        <time>2015-11-15T08:35:49.000Z</time>
      </trkpt>
      <trkpt lat="47.45716" lon="6.70736">
        <ele>409</ele>
        <time>2015-11-15T08:35:50.000Z</time>
      </trkpt>
      <trkpt lat="47.45716" lon="6.7074">
        <ele>409</ele>
        <time>2015-11-15T08:35:51.000Z</time>
      </trkpt>
      <trkpt lat="47.45717" lon="6.70744">
        <ele>409</ele>
        <time>2015-11-15T08:35:52.000Z</time>
      </trkpt>
      <trkpt lat="47.45718" lon="6.70748">
        <ele>409</ele>
        <time>2015-11-15T08:35:53.000Z</time>
      </trkpt>
      <trkpt lat="47.45718" lon="6.70753">
        <ele>411</ele>
        <time>2015-11-15T08:35:54.000Z</time>
      </trkpt>
      <trkpt lat="47.45719" lon="6.70758">
        <ele>411</ele>
        <time>2015-11-15T08:35:55.000Z</time>
      </trkpt>
      <trkpt lat="47.45719" lon="6.70762">
        <ele>411</ele>
        <time>2015-11-15T08:35:56.000Z</time>
      </trkpt>
      <trkpt lat="47.45719" lon="6.70767">
        <ele>411</ele>
        <time>2015-11-15T08:35:57.000Z</time>
      </trkpt>
      <trkpt lat="47.45719" lon="6.70771">
        <ele>411</ele>
        <time>2015-11-15T08:35:58.000Z</time>
      </trkpt>
      <trkpt lat="47.45719" lon="6.70776">
        <ele>411</ele>
        <time>2015-11-15T08:35:59.000Z</time>
      </trkpt>
      <trkpt lat="47.45719" lon="6.7078">
        <ele>412</ele>
        <time>2015-11-15T08:36:00.000Z</time>
      </trkpt>
      <trkpt lat="47.45718" lon="6.70784">
        <ele>412</ele>
        <time>2015-11-15T08:36:01.000Z</time>
      </trkpt>
      <trkpt lat="47.45718" lon="6.70787">
        <ele>412</ele>
        <time>2015-11-15T08:36:02.000Z</time>
      </trkpt>
      <trkpt lat="47.45717" lon="6.70791">
        <ele>412</ele>
        <time>2015-11-15T08:36:03.000Z</time>
      </trkpt>
      <trkpt lat="47.45716" lon="6.70795">
        <ele>412</ele>
        <time>2015-11-15T08:36:04.000Z</time>
      </trkpt>
      <trkpt lat="47.45715" lon="6.70799">
        <ele>412</ele>
        <time>2015-11-15T08:36:05.000Z</time>
      </trkpt>
      <trkpt lat="47.45713" lon="6.70803">
        <ele>412</ele>
        <time>2015-11-15T08:36:06.000Z</time>
      </trkpt>
      <trkpt lat="47.45712" lon="6.70807">
        <ele>412</ele>
        <time>2015-11-15T08:36:07.000Z</time>
      </trkpt>
      <trkpt lat="47.45712" lon="6.70811">
        <ele>412</ele>
        <time>2015-11-15T08:36:08.000Z</time>
      </trkpt>
      <trkpt lat="47.45711" lon="6.70815">
        <ele>412</ele>
        <time>2015-11-15T08:36:09.000Z</time>
      </trkpt>
      <trkpt lat="47.45711" lon="6.70818">
        <ele>412</ele>
        <time>2015-11-15T08:36:10.000Z</time>
      </trkpt>
      <trkpt lat="47.4571" lon="6.70822">
        <ele>412</ele>
        <time>2015-11-15T08:36:11.000Z</time>
      </trkpt>
      <trkpt lat="47.45709" lon="6.70825">
        <ele>412</ele>
        <time>2015-11-15T08:36:12.000Z</time>
      </trkpt>
      <trkpt lat="47.45709" lon="6.70828">
        <ele>412</ele>
        <time>2015-11-15T08:36:13.000Z</time>
      </trkpt>
      <trkpt lat="47.45709" lon="6.70833">
        <ele>413</ele>
        <time>2015-11-15T08:36:14.000Z</time>
      </trkpt>
      <trkpt lat="47.45708" lon="6.70837">
        <ele>411</ele>
        <time>2015-11-15T08:36:15.000Z</time>
      </trkpt>
      <trkpt lat="47.45707" lon="6.70843">
        <ele>411</ele>
        <time>2015-11-15T08:36:16.000Z</time>
      </trkpt>
      <trkpt lat="47.45706" lon="6.70848">
        <ele>411</ele>
        <time>2015-11-15T08:36:17.000Z</time>
      </trkpt>
      <trkpt lat="47.45705" lon="6.70854">
        <ele>411</ele>
        <time>2015-11-15T08:36:18.000Z</time>
      </trkpt>
      <trkpt lat="47.45704" lon="6.70859">
        <ele>411</ele>
        <time>2015-11-15T08:36:19.000Z</time>
      </trkpt>
      <trkpt lat="47.45703" lon="6.70864">
        <ele>411</ele>
        <time>2015-11-15T08:36:20.000Z</time>
      </trkpt>
      <trkpt lat="47.45702" lon="6.70869">
        <ele>411</ele>
        <time>2015-11-15T08:36:21.000Z</time>
      </trkpt>
      <trkpt lat="47.45701" lon="6.70873">
        <ele>411</ele>
        <time>2015-11-15T08:36:22.000Z</time>
      </trkpt>
      <trkpt lat="47.457" lon="6.70877">
        <ele>411</ele>
        <time>2015-11-15T08:36:23.000Z</time>
      </trkpt>
      <trkpt lat="47.45698" lon="6.70881">
        <ele>411</ele>
        <time>2015-11-15T08:36:24.000Z</time>
      </trkpt>
      <trkpt lat="47.45696" lon="6.70885">
        <ele>411</ele>
        <time>2015-11-15T08:36:25.000Z</time>
      </trkpt>
      <trkpt lat="47.45695" lon="6.70889">
        <ele>411</ele>
        <time>2015-11-15T08:36:26.000Z</time>
      </trkpt>
      <trkpt lat="47.45694" lon="6.70893">
        <ele>412</ele>
        <time>2015-11-15T08:36:27.000Z</time>
      </trkpt>
      <trkpt lat="47.45693" lon="6.70897">
        <ele>412</ele>
        <time>2015-11-15T08:36:28.000Z</time>
      </trkpt>
      <trkpt lat="47.45692" lon="6.709">
        <ele>412</ele>
        <time>2015-11-15T08:36:29.000Z</time>
      </trkpt>
      <trkpt lat="47.4569" lon="6.70904">
        <ele>412</ele>
        <time>2015-11-15T08:36:30.000Z</time>
      </trkpt>
      <trkpt lat="47.45688" lon="6.70907">
        <ele>413</ele>
        <time>2015-11-15T08:36:31.000Z</time>
      </trkpt>
      <trkpt lat="47.45685" lon="6.70911">
        <ele>413</ele>
        <time>2015-11-15T08:36:32.000Z</time>
      </trkpt>
      <trkpt lat="47.45683" lon="6.70914">
        <ele>413</ele>
        <time>2015-11-15T08:36:33.000Z</time>
      </trkpt>
      <trkpt lat="47.45681" lon="6.70916">
        <ele>414</ele>
        <time>2015-11-15T08:36:34.000Z</time>
      </trkpt>
      <trkpt lat="47.45678" lon="6.70919">
        <ele>411</ele>
        <time>2015-11-15T08:36:35.000Z</time>
      </trkpt>
      <trkpt lat="47.45676" lon="6.70921">
        <ele>412</ele>
        <time>2015-11-15T08:36:36.000Z</time>
      </trkpt>
      <trkpt lat="47.45674" lon="6.70923">
        <ele>412</ele>
        <time>2015-11-15T08:36:37.000Z</time>
      </trkpt>
      <trkpt lat="47.45672" lon="6.70925">
        <ele>412</ele>
        <time>2015-11-15T08:36:38.000Z</time>
      </trkpt>
      <trkpt lat="47.4567" lon="6.70929">
        <ele>411</ele>
        <time>2015-11-15T08:36:39.000Z</time>
      </trkpt>
      <trkpt lat="47.45668" lon="6.70932">
        <ele>410</ele>
        <time>2015-11-15T08:36:40.000Z</time>
      </trkpt>
      <trkpt lat="47.45666" lon="6.70935">
        <ele>415</ele>
        <time>2015-11-15T08:36:41.000Z</time>
      </trkpt>
      <trkpt lat="47.45664" lon="6.70938">
        <ele>414</ele>
        <time>2015-11-15T08:36:42.000Z</time>
      </trkpt>
      <trkpt lat="47.45662" lon="6.70941">
        <ele>414</ele>
        <time>2015-11-15T08:36:43.000Z</time>
      </trkpt>
      <trkpt lat="47.4566" lon="6.70945">
        <ele>414</ele>
        <time>2015-11-15T08:36:44.000Z</time>
      </trkpt>
      <trkpt lat="47.45658" lon="6.70949">
        <ele>413</ele>
        <time>2015-11-15T08:36:45.000Z</time>
      </trkpt>
      <trkpt lat="47.45656" lon="6.70953">
        <ele>413</ele>
        <time>2015-11-15T08:36:46.000Z</time>
      </trkpt>
      <trkpt lat="47.45654" lon="6.70956">
        <ele>413</ele>
        <time>2015-11-15T08:36:47.000Z</time>
      </trkpt>
      <trkpt lat="47.45651" lon="6.70958">
        <ele>412</ele>
        <time>2015-11-15T08:36:48.000Z</time>
      </trkpt>
      <trkpt lat="47.45648" lon="6.7096">
        <ele>412</ele>
        <time>2015-11-15T08:36:49.000Z</time>
      </trkpt>
      <trkpt lat="47.45645" lon="6.70961">
        <ele>412</ele>
        <time>2015-11-15T08:36:50.000Z</time>
      </trkpt>
      <trkpt lat="47.45642" lon="6.70961">
        <ele>412</ele>
        <time>2015-11-15T08:36:51.000Z</time>
      </trkpt>
      <trkpt lat="47.45638" lon="6.70961">
        <ele>412</ele>
        <time>2015-11-15T08:36:52.000Z</time>
      </trkpt>
      <trkpt lat="47.45634" lon="6.7096">
        <ele>412</ele>
        <time>2015-11-15T08:36:53.000Z</time>
      </trkpt>
      <trkpt lat="47.4563" lon="6.70959">
        <ele>412</ele>
        <time>2015-11-15T08:36:54.000Z</time>
      </trkpt>
      <trkpt lat="47.45627" lon="6.70958">
        <ele>413</ele>
        <time>2015-11-15T08:36:55.000Z</time>
      </trkpt>
      <trkpt lat="47.45623" lon="6.70957">
        <ele>413</ele>
        <time>2015-11-15T08:36:56.000Z</time>
      </trkpt>
      <trkpt lat="47.45619" lon="6.70955">
        <ele>413</ele>
        <time>2015-11-15T08:36:57.000Z</time>
      </trkpt>
      <trkpt lat="47.45615" lon="6.70954">
        <ele>413</ele>
        <time>2015-11-15T08:36:58.000Z</time>
      </trkpt>
      <trkpt lat="47.45603" lon="6.70953">
        <ele>413</ele>
        <time>2015-11-15T08:36:59.000Z</time>
      </trkpt>
      <trkpt lat="47.45598" lon="6.70951">
        <ele>413</ele>
        <time>2015-11-15T08:37:00.000Z</time>
      </trkpt>
      <trkpt lat="47.45593" lon="6.70948">
        <ele>414</ele>
        <time>2015-11-15T08:37:01.000Z</time>
      </trkpt>
      <trkpt lat="47.45588" lon="6.70945">
        <ele>414</ele>
        <time>2015-11-15T08:37:02.000Z</time>
      </trkpt>
      <trkpt lat="47.45582" lon="6.7094">
        <ele>414</ele>
        <time>2015-11-15T08:37:03.000Z</time>
      </trkpt>
      <trkpt lat="47.45577" lon="6.70938">
        <ele>414</ele>
        <time>2015-11-15T08:37:04.000Z</time>
      </trkpt>
      <trkpt lat="47.45573" lon="6.70937">
        <ele>414</ele>
        <time>2015-11-15T08:37:05.000Z</time>
      </trkpt>
      <trkpt lat="47.45567" lon="6.70934">
        <ele>414</ele>
        <time>2015-11-15T08:37:06.000Z</time>
      </trkpt>
      <trkpt lat="47.45563" lon="6.70932">
        <ele>414</ele>
        <time>2015-11-15T08:37:07.000Z</time>
      </trkpt>
      <trkpt lat="47.45559" lon="6.70929">
        <ele>414</ele>
        <time>2015-11-15T08:37:08.000Z</time>
      </trkpt>
      <trkpt lat="47.45556" lon="6.70927">
        <ele>414</ele>
        <time>2015-11-15T08:37:09.000Z</time>
      </trkpt>
      <trkpt lat="47.4555" lon="6.70924">
        <ele>413</ele>
        <time>2015-11-15T08:37:10.000Z</time>
      </trkpt>
      <trkpt lat="47.45545" lon="6.70921">
        <ele>413</ele>
        <time>2015-11-15T08:37:11.000Z</time>
      </trkpt>
      <trkpt lat="47.45541" lon="6.70919">
        <ele>413</ele>
        <time>2015-11-15T08:37:12.000Z</time>
      </trkpt>
      <trkpt lat="47.45535" lon="6.70918">
        <ele>413</ele>
        <time>2015-11-15T08:37:13.000Z</time>
      </trkpt>
      <trkpt lat="47.4553" lon="6.70917">
        <ele>413</ele>
        <time>2015-11-15T08:37:14.000Z</time>
      </trkpt>
      <trkpt lat="47.45524" lon="6.70919">
        <ele>413</ele>
        <time>2015-11-15T08:37:15.000Z</time>
      </trkpt>
      <trkpt lat="47.4552" lon="6.70919">
        <ele>413</ele>
        <time>2015-11-15T08:37:16.000Z</time>
      </trkpt>
      <trkpt lat="47.45515" lon="6.70919">
        <ele>414</ele>
        <time>2015-11-15T08:37:17.000Z</time>
      </trkpt>
      <trkpt lat="47.45511" lon="6.70916">
        <ele>418</ele>
        <time>2015-11-15T08:37:18.000Z</time>
      </trkpt>
      <trkpt lat="47.45505" lon="6.70915">
        <ele>417</ele>
        <time>2015-11-15T08:37:19.000Z</time>
      </trkpt>
      <trkpt lat="47.45501" lon="6.70915">
        <ele>416</ele>
        <time>2015-11-15T08:37:20.000Z</time>
      </trkpt>
      <trkpt lat="47.45496" lon="6.70915">
        <ele>416</ele>
        <time>2015-11-15T08:37:21.000Z</time>
      </trkpt>
      <trkpt lat="47.45493" lon="6.70914">
        <ele>416</ele>
        <time>2015-11-15T08:37:22.000Z</time>
      </trkpt>
      <trkpt lat="47.4549" lon="6.70913">
        <ele>416</ele>
        <time>2015-11-15T08:37:23.000Z</time>
      </trkpt>
      <trkpt lat="47.45487" lon="6.7091">
        <ele>416</ele>
        <time>2015-11-15T08:37:24.000Z</time>
      </trkpt>
      <trkpt lat="47.45484" lon="6.70908">
        <ele>416</ele>
        <time>2015-11-15T08:37:25.000Z</time>
      </trkpt>
      <trkpt lat="47.4548" lon="6.70905">
        <ele>416</ele>
        <time>2015-11-15T08:37:26.000Z</time>
      </trkpt>
      <trkpt lat="47.45476" lon="6.70904">
        <ele>415</ele>
        <time>2015-11-15T08:37:27.000Z</time>
      </trkpt>
      <trkpt lat="47.45472" lon="6.70902">
        <ele>415</ele>
        <time>2015-11-15T08:37:28.000Z</time>
      </trkpt>
      <trkpt lat="47.45468" lon="6.70898">
        <ele>415</ele>
        <time>2015-11-15T08:37:29.000Z</time>
      </trkpt>
      <trkpt lat="47.45465" lon="6.70895">
        <ele>415</ele>
        <time>2015-11-15T08:37:30.000Z</time>
      </trkpt>
      <trkpt lat="47.45461" lon="6.70893">
        <ele>415</ele>
        <time>2015-11-15T08:37:31.000Z</time>
      </trkpt>
      <trkpt lat="47.45458" lon="6.70889">
        <ele>415</ele>
        <time>2015-11-15T08:37:32.000Z</time>
      </trkpt>
      <trkpt lat="47.45455" lon="6.70886">
        <ele>415</ele>
        <time>2015-11-15T08:37:33.000Z</time>
      </trkpt>
      <trkpt lat="47.45452" lon="6.70883">
        <ele>415</ele>
        <time>2015-11-15T08:37:34.000Z</time>
      </trkpt>
      <trkpt lat="47.45449" lon="6.7088">
        <ele>415</ele>
        <time>2015-11-15T08:37:35.000Z</time>
      </trkpt>
      <trkpt lat="47.45446" lon="6.70876">
        <ele>416</ele>
        <time>2015-11-15T08:37:36.000Z</time>
      </trkpt>
      <trkpt lat="47.45444" lon="6.70873">
        <ele>416</ele>
        <time>2015-11-15T08:37:37.000Z</time>
      </trkpt>
      <trkpt lat="47.45441" lon="6.70869">
        <ele>416</ele>
        <time>2015-11-15T08:37:38.000Z</time>
      </trkpt>
      <trkpt lat="47.45439" lon="6.70867">
        <ele>416</ele>
        <time>2015-11-15T08:37:39.000Z</time>
      </trkpt>
      <trkpt lat="47.45436" lon="6.70864">
        <ele>417</ele>
        <time>2015-11-15T08:37:40.000Z</time>
      </trkpt>
      <trkpt lat="47.45433" lon="6.70862">
        <ele>417</ele>
        <time>2015-11-15T08:37:41.000Z</time>
      </trkpt>
      <trkpt lat="47.45431" lon="6.70859">
        <ele>417</ele>
        <time>2015-11-15T08:37:42.000Z</time>
      </trkpt>
      <trkpt lat="47.45428" lon="6.70855">
        <ele>418</ele>
        <time>2015-11-15T08:37:43.000Z</time>
      </trkpt>
      <trkpt lat="47.45425" lon="6.7085">
        <ele>418</ele>
        <time>2015-11-15T08:37:44.000Z</time>
      </trkpt>
      <trkpt lat="47.45423" lon="6.70846">
        <ele>419</ele>
        <time>2015-11-15T08:37:45.000Z</time>
      </trkpt>
      <trkpt lat="47.45421" lon="6.70842">
        <ele>420</ele>
        <time>2015-11-15T08:37:46.000Z</time>
      </trkpt>
      <trkpt lat="47.45418" lon="6.70838">
        <ele>421</ele>
        <time>2015-11-15T08:37:47.000Z</time>
      </trkpt>
      <trkpt lat="47.45416" lon="6.70835">
        <ele>421</ele>
        <time>2015-11-15T08:37:48.000Z</time>
      </trkpt>
      <trkpt lat="47.45414" lon="6.70832">
        <ele>422</ele>
        <time>2015-11-15T08:37:49.000Z</time>
      </trkpt>
      <trkpt lat="47.45411" lon="6.70829">
        <ele>422</ele>
        <time>2015-11-15T08:37:50.000Z</time>
      </trkpt>
      <trkpt lat="47.45409" lon="6.70825">
        <ele>422</ele>
        <time>2015-11-15T08:37:51.000Z</time>
      </trkpt>
      <trkpt lat="47.45407" lon="6.70822">
        <ele>421</ele>
        <time>2015-11-15T08:37:52.000Z</time>
      </trkpt>
      <trkpt lat="47.45405" lon="6.70819">
        <ele>421</ele>
        <time>2015-11-15T08:37:53.000Z</time>
      </trkpt>
      <trkpt lat="47.45403" lon="6.70816">
        <ele>421</ele>
        <time>2015-11-15T08:37:54.000Z</time>
      </trkpt>
      <trkpt lat="47.45401" lon="6.70812">
        <ele>421</ele>
        <time>2015-11-15T08:37:55.000Z</time>
      </trkpt>
      <trkpt lat="47.45399" lon="6.70808">
        <ele>421</ele>
        <time>2015-11-15T08:37:56.000Z</time>
      </trkpt>
      <trkpt lat="47.45398" lon="6.70803">
        <ele>421</ele>
        <time>2015-11-15T08:37:57.000Z</time>
      </trkpt>
      <trkpt lat="47.45396" lon="6.70799">
        <ele>421</ele>
        <time>2015-11-15T08:37:58.000Z</time>
      </trkpt>
      <trkpt lat="47.45394" lon="6.70795">
        <ele>422</ele>
        <time>2015-11-15T08:37:59.000Z</time>
      </trkpt>
      <trkpt lat="47.45391" lon="6.70792">
        <ele>422</ele>
        <time>2015-11-15T08:38:01.000Z</time>
      </trkpt>
      <trkpt lat="47.45389" lon="6.70791">
        <ele>422</ele>
        <time>2015-11-15T08:38:02.000Z</time>
      </trkpt>
      <trkpt lat="47.45387" lon="6.70789">
        <ele>421</ele>
        <time>2015-11-15T08:38:03.000Z</time>
      </trkpt>
      <trkpt lat="47.45385" lon="6.70786">
        <ele>421</ele>
        <time>2015-11-15T08:38:04.000Z</time>
      </trkpt>
      <trkpt lat="47.45383" lon="6.70783">
        <ele>422</ele>
        <time>2015-11-15T08:38:05.000Z</time>
      </trkpt>
      <trkpt lat="47.45381" lon="6.70779">
        <ele>422</ele>
        <time>2015-11-15T08:38:06.000Z</time>
      </trkpt>
      <trkpt lat="47.45378" lon="6.70776">
        <ele>422</ele>
        <time>2015-11-15T08:38:07.000Z</time>
      </trkpt>
      <trkpt lat="47.45376" lon="6.70772">
        <ele>422</ele>
        <time>2015-11-15T08:38:08.000Z</time>
      </trkpt>
      <trkpt lat="47.45374" lon="6.70768">
        <ele>422</ele>
        <time>2015-11-15T08:38:09.000Z</time>
      </trkpt>
      <trkpt lat="47.45372" lon="6.70765">
        <ele>422</ele>
        <time>2015-11-15T08:38:10.000Z</time>
      </trkpt>
      <trkpt lat="47.4537" lon="6.70761">
        <ele>421</ele>
        <time>2015-11-15T08:38:11.000Z</time>
      </trkpt>
      <trkpt lat="47.45368" lon="6.70758">
        <ele>421</ele>
        <time>2015-11-15T08:38:12.000Z</time>
      </trkpt>
      <trkpt lat="47.45366" lon="6.70754">
        <ele>421</ele>
        <time>2015-11-15T08:38:13.000Z</time>
      </trkpt>
      <trkpt lat="47.45364" lon="6.70751">
        <ele>421</ele>
        <time>2015-11-15T08:38:14.000Z</time>
      </trkpt>
      <trkpt lat="47.45361" lon="6.70748">
        <ele>424</ele>
        <time>2015-11-15T08:38:15.000Z</time>
      </trkpt>
      <trkpt lat="47.45359" lon="6.70744">
        <ele>424</ele>
        <time>2015-11-15T08:38:16.000Z</time>
      </trkpt>
      <trkpt lat="47.45357" lon="6.70741">
        <ele>424</ele>
        <time>2015-11-15T08:38:17.000Z</time>
      </trkpt>
      <trkpt lat="47.45355" lon="6.70737">
        <ele>423</ele>
        <time>2015-11-15T08:38:18.000Z</time>
      </trkpt>
      <trkpt lat="47.45353" lon="6.70734">
        <ele>423</ele>
        <time>2015-11-15T08:38:19.000Z</time>
      </trkpt>
      <trkpt lat="47.4535" lon="6.7073">
        <ele>424</ele>
        <time>2015-11-15T08:38:20.000Z</time>
      </trkpt>
      <trkpt lat="47.45348" lon="6.70726">
        <ele>424</ele>
        <time>2015-11-15T08:38:21.000Z</time>
      </trkpt>
      <trkpt lat="47.45346" lon="6.70724">
        <ele>424</ele>
        <time>2015-11-15T08:38:22.000Z</time>
      </trkpt>
      <trkpt lat="47.45343" lon="6.70721">
        <ele>424</ele>
        <time>2015-11-15T08:38:23.000Z</time>
      </trkpt>
      <trkpt lat="47.45341" lon="6.70718">
        <ele>424</ele>
        <time>2015-11-15T08:38:24.000Z</time>
      </trkpt>
      <trkpt lat="47.4534" lon="6.70713">
        <ele>424</ele>
        <time>2015-11-15T08:38:41.000Z</time>
      </trkpt>
      <trkpt lat="47.45339" lon="6.70711">
        <ele>424</ele>
        <time>2015-11-15T08:38:42.000Z</time>
      </trkpt>
      <trkpt lat="47.45339" lon="6.70706">
        <ele>424</ele>
        <time>2015-11-15T08:38:44.000Z</time>
      </trkpt>
      <trkpt lat="47.45339" lon="6.70704">
        <ele>424</ele>
        <time>2015-11-15T08:38:45.000Z</time>
      </trkpt>
      <trkpt lat="47.45337" lon="6.70698">
        <ele>425</ele>
        <time>2015-11-15T08:38:47.000Z</time>
      </trkpt>
      <trkpt lat="47.45336" lon="6.70694">
        <ele>425</ele>
        <time>2015-11-15T08:38:48.000Z</time>
      </trkpt>
      <trkpt lat="47.45335" lon="6.70691">
        <ele>425</ele>
        <time>2015-11-15T08:38:49.000Z</time>
      </trkpt>
      <trkpt lat="47.45334" lon="6.70688">
        <ele>425</ele>
        <time>2015-11-15T08:38:50.000Z</time>
      </trkpt>
      <trkpt lat="47.45332" lon="6.70682">
        <ele>424</ele>
        <time>2015-11-15T08:38:53.000Z</time>
      </trkpt>
      <trkpt lat="47.45331" lon="6.7068">
        <ele>424</ele>
        <time>2015-11-15T08:38:54.000Z</time>
      </trkpt>
      <trkpt lat="47.45329" lon="6.70676">
        <ele>424</ele>
        <time>2015-11-15T08:38:56.000Z</time>
      </trkpt>
      <trkpt lat="47.45328" lon="6.70673">
        <ele>424</ele>
        <time>2015-11-15T08:38:57.000Z</time>
      </trkpt>
      <trkpt lat="47.45326" lon="6.70669">
        <ele>424</ele>
        <time>2015-11-15T08:38:58.000Z</time>
      </trkpt>
      <trkpt lat="47.45325" lon="6.70666">
        <ele>424</ele>
        <time>2015-11-15T08:38:59.000Z</time>
      </trkpt>
      <trkpt lat="47.45322" lon="6.70662">
        <ele>424</ele>
        <time>2015-11-15T08:39:00.000Z</time>
      </trkpt>
      <trkpt lat="47.4532" lon="6.70658">
        <ele>424</ele>
        <time>2015-11-15T08:39:01.000Z</time>
      </trkpt>
      <trkpt lat="47.45318" lon="6.70654">
        <ele>424</ele>
        <time>2015-11-15T08:39:02.000Z</time>
      </trkpt>
      <trkpt lat="47.45315" lon="6.7065">
        <ele>424</ele>
        <time>2015-11-15T08:39:03.000Z</time>
      </trkpt>
      <trkpt lat="47.45313" lon="6.70647">
        <ele>423</ele>
        <time>2015-11-15T08:39:04.000Z</time>
      </trkpt>
      <trkpt lat="47.45311" lon="6.70643">
        <ele>423</ele>
        <time>2015-11-15T08:39:05.000Z</time>
      </trkpt>
      <trkpt lat="47.45308" lon="6.70639">
        <ele>423</ele>
        <time>2015-11-15T08:39:06.000Z</time>
      </trkpt>
      <trkpt lat="47.45306" lon="6.70636">
        <ele>423</ele>
        <time>2015-11-15T08:39:07.000Z</time>
      </trkpt>
      <trkpt lat="47.45305" lon="6.70631">
        <ele>423</ele>
        <time>2015-11-15T08:39:08.000Z</time>
      </trkpt>
      <trkpt lat="47.45302" lon="6.70627">
        <ele>423</ele>
        <time>2015-11-15T08:39:09.000Z</time>
      </trkpt>
      <trkpt lat="47.453" lon="6.70624">
        <ele>423</ele>
        <time>2015-11-15T08:39:10.000Z</time>
      </trkpt>
      <trkpt lat="47.45298" lon="6.7062">
        <ele>423</ele>
        <time>2015-11-15T08:39:11.000Z</time>
      </trkpt>
      <trkpt lat="47.45296" lon="6.70616">
        <ele>423</ele>
        <time>2015-11-15T08:39:12.000Z</time>
      </trkpt>
      <trkpt lat="47.45293" lon="6.70612">
        <ele>423</ele>
        <time>2015-11-15T08:39:13.000Z</time>
      </trkpt>
      <trkpt lat="47.45291" lon="6.70609">
        <ele>423</ele>
        <time>2015-11-15T08:39:14.000Z</time>
      </trkpt>
      <trkpt lat="47.45288" lon="6.70606">
        <ele>423</ele>
        <time>2015-11-15T08:39:15.000Z</time>
      </trkpt>
      <trkpt lat="47.45286" lon="6.70603">
        <ele>422</ele>
        <time>2015-11-15T08:39:16.000Z</time>
      </trkpt>
      <trkpt lat="47.45284" lon="6.70601">
        <ele>422</ele>
        <time>2015-11-15T08:39:17.000Z</time>
      </trkpt>
      <trkpt lat="47.45282" lon="6.70599">
        <ele>422</ele>
        <time>2015-11-15T08:39:18.000Z</time>
      </trkpt>
      <trkpt lat="47.4528" lon="6.70597">
        <ele>422</ele>
        <time>2015-11-15T08:39:19.000Z</time>
      </trkpt>
      <trkpt lat="47.45278" lon="6.70594">
        <ele>422</ele>
        <time>2015-11-15T08:39:20.000Z</time>
      </trkpt>
      <trkpt lat="47.45276" lon="6.70591">
        <ele>422</ele>
        <time>2015-11-15T08:39:21.000Z</time>
      </trkpt>
      <trkpt lat="47.45273" lon="6.70588">
        <ele>422</ele>
        <time>2015-11-15T08:39:22.000Z</time>
      </trkpt>
      <trkpt lat="47.45271" lon="6.70585">
        <ele>422</ele>
        <time>2015-11-15T08:39:23.000Z</time>
      </trkpt>
      <trkpt lat="47.45269" lon="6.70581">
        <ele>422</ele>
        <time>2015-11-15T08:39:24.000Z</time>
      </trkpt>
      <trkpt lat="47.45266" lon="6.70577">
        <ele>422</ele>
        <time>2015-11-15T08:39:25.000Z</time>
      </trkpt>
      <trkpt lat="47.45263" lon="6.70575">
        <ele>422</ele>
        <time>2015-11-15T08:39:26.000Z</time>
      </trkpt>
      <trkpt lat="47.45261" lon="6.70574">
        <ele>422</ele>
        <time>2015-11-15T08:39:27.000Z</time>
      </trkpt>
      <trkpt lat="47.45258" lon="6.70572">
        <ele>422</ele>
        <time>2015-11-15T08:39:28.000Z</time>
      </trkpt>
      <trkpt lat="47.45256" lon="6.7057">
        <ele>422</ele>
        <time>2015-11-15T08:39:29.000Z</time>
      </trkpt>
      <trkpt lat="47.45253" lon="6.70568">
        <ele>422</ele>
        <time>2015-11-15T08:39:30.000Z</time>
      </trkpt>
      <trkpt lat="47.45251" lon="6.70566">
        <ele>422</ele>
        <time>2015-11-15T08:39:31.000Z</time>
      </trkpt>
      <trkpt lat="47.45248" lon="6.70563">
        <ele>422</ele>
        <time>2015-11-15T08:39:32.000Z</time>
      </trkpt>
      <trkpt lat="47.45244" lon="6.70561">
        <ele>422</ele>
        <time>2015-11-15T08:39:33.000Z</time>
      </trkpt>
      <trkpt lat="47.45241" lon="6.70559">
        <ele>422</ele>
        <time>2015-11-15T08:39:34.000Z</time>
      </trkpt>
      <trkpt lat="47.45238" lon="6.70557">
        <ele>422</ele>
        <time>2015-11-15T08:39:35.000Z</time>
      </trkpt>
      <trkpt lat="47.45235" lon="6.70556">
        <ele>422</ele>
        <time>2015-11-15T08:39:36.000Z</time>
      </trkpt>
      <trkpt lat="47.45233" lon="6.70554">
        <ele>423</ele>
        <time>2015-11-15T08:39:37.000Z</time>
      </trkpt>
      <trkpt lat="47.4523" lon="6.70551">
        <ele>423</ele>
        <time>2015-11-15T08:39:38.000Z</time>
      </trkpt>
      <trkpt lat="47.45228" lon="6.70549">
        <ele>423</ele>
        <time>2015-11-15T08:39:39.000Z</time>
      </trkpt>
      <trkpt lat="47.45225" lon="6.70546">
        <ele>423</ele>
        <time>2015-11-15T08:39:40.000Z</time>
      </trkpt>
      <trkpt lat="47.45222" lon="6.70543">
        <ele>423</ele>
        <time>2015-11-15T08:39:41.000Z</time>
      </trkpt>
      <trkpt lat="47.45219" lon="6.7054">
        <ele>423</ele>
        <time>2015-11-15T08:39:42.000Z</time>
      </trkpt>
      <trkpt lat="47.45217" lon="6.70536">
        <ele>423</ele>
        <time>2015-11-15T08:39:43.000Z</time>
      </trkpt>
      <trkpt lat="47.45215" lon="6.70531">
        <ele>424</ele>
        <time>2015-11-15T08:39:44.000Z</time>
      </trkpt>
      <trkpt lat="47.45213" lon="6.70525">
        <ele>424</ele>
        <time>2015-11-15T08:39:45.000Z</time>
      </trkpt>
      <trkpt lat="47.45211" lon="6.7052">
        <ele>424</ele>
        <time>2015-11-15T08:39:46.000Z</time>
      </trkpt>
      <trkpt lat="47.45209" lon="6.70517">
        <ele>424</ele>
        <time>2015-11-15T08:39:47.000Z</time>
      </trkpt>
      <trkpt lat="47.45207" lon="6.70514">
        <ele>424</ele>
        <time>2015-11-15T08:39:48.000Z</time>
      </trkpt>
      <trkpt lat="47.45205" lon="6.70511">
        <ele>424</ele>
        <time>2015-11-15T08:39:49.000Z</time>
      </trkpt>
      <trkpt lat="47.45202" lon="6.70509">
        <ele>424</ele>
        <time>2015-11-15T08:39:50.000Z</time>
      </trkpt>
      <trkpt lat="47.45201" lon="6.70507">
        <ele>424</ele>
        <time>2015-11-15T08:39:51.000Z</time>
      </trkpt>
      <trkpt lat="47.45197" lon="6.70504">
        <ele>424</ele>
        <time>2015-11-15T08:39:54.000Z</time>
      </trkpt>
      <trkpt lat="47.45195" lon="6.70505">
        <ele>424</ele>
        <time>2015-11-15T08:39:55.000Z</time>
      </trkpt>
      <trkpt lat="47.45193" lon="6.70506">
        <ele>424</ele>
        <time>2015-11-15T08:39:56.000Z</time>
      </trkpt>
      <trkpt lat="47.45184" lon="6.70506">
        <ele>424</ele>
        <time>2015-11-15T08:39:57.000Z</time>
      </trkpt>
      <trkpt lat="47.45177" lon="6.70506">
        <ele>424</ele>
        <time>2015-11-15T08:39:58.000Z</time>
      </trkpt>
      <trkpt lat="47.4517" lon="6.70507">
        <ele>424</ele>
        <time>2015-11-15T08:39:59.000Z</time>
      </trkpt>
      <trkpt lat="47.45162" lon="6.70508">
        <ele>424</ele>
        <time>2015-11-15T08:40:00.000Z</time>
      </trkpt>
      <trkpt lat="47.45155" lon="6.70507">
        <ele>424</ele>
        <time>2015-11-15T08:40:01.000Z</time>
      </trkpt>
      <trkpt lat="47.45149" lon="6.7051">
        <ele>423</ele>
        <time>2015-11-15T08:40:02.000Z</time>
      </trkpt>
      <trkpt lat="47.45145" lon="6.70515">
        <ele>423</ele>
        <time>2015-11-15T08:40:03.000Z</time>
      </trkpt>
      <trkpt lat="47.4514" lon="6.70518">
        <ele>423</ele>
        <time>2015-11-15T08:40:04.000Z</time>
      </trkpt>
      <trkpt lat="47.45135" lon="6.70522">
        <ele>423</ele>
        <time>2015-11-15T08:40:05.000Z</time>
      </trkpt>
      <trkpt lat="47.45132" lon="6.70528">
        <ele>422</ele>
        <time>2015-11-15T08:40:06.000Z</time>
      </trkpt>
      <trkpt lat="47.45126" lon="6.70535">
        <ele>422</ele>
        <time>2015-11-15T08:40:07.000Z</time>
      </trkpt>
      <trkpt lat="47.45119" lon="6.70541">
        <ele>422</ele>
        <time>2015-11-15T08:40:08.000Z</time>
      </trkpt>
      <trkpt lat="47.45114" lon="6.70548">
        <ele>422</ele>
        <time>2015-11-15T08:40:09.000Z</time>
      </trkpt>
      <trkpt lat="47.45108" lon="6.70551">
        <ele>422</ele>
        <time>2015-11-15T08:40:10.000Z</time>
      </trkpt>
      <trkpt lat="47.45104" lon="6.70558">
        <ele>421</ele>
        <time>2015-11-15T08:40:11.000Z</time>
      </trkpt>
      <trkpt lat="47.45096" lon="6.70564">
        <ele>421</ele>
        <time>2015-11-15T08:40:12.000Z</time>
      </trkpt>
      <trkpt lat="47.45091" lon="6.70571">
        <ele>420</ele>
        <time>2015-11-15T08:40:13.000Z</time>
      </trkpt>
      <trkpt lat="47.45088" lon="6.70579">
        <ele>420</ele>
        <time>2015-11-15T08:40:14.000Z</time>
      </trkpt>
      <trkpt lat="47.45087" lon="6.70589">
        <ele>420</ele>
        <time>2015-11-15T08:40:15.000Z</time>
      </trkpt>
      <trkpt lat="47.45085" lon="6.70598">
        <ele>420</ele>
        <time>2015-11-15T08:40:16.000Z</time>
      </trkpt>
      <trkpt lat="47.45085" lon="6.70607">
        <ele>420</ele>
        <time>2015-11-15T08:40:17.000Z</time>
      </trkpt>
      <trkpt lat="47.45085" lon="6.70613">
        <ele>421</ele>
        <time>2015-11-15T08:40:18.000Z</time>
      </trkpt>
      <trkpt lat="47.45084" lon="6.7062">
        <ele>421</ele>
        <time>2015-11-15T08:40:19.000Z</time>
      </trkpt>
      <trkpt lat="47.45081" lon="6.70624">
        <ele>420</ele>
        <time>2015-11-15T08:40:20.000Z</time>
      </trkpt>
      <trkpt lat="47.45077" lon="6.70626">
        <ele>420</ele>
        <time>2015-11-15T08:40:21.000Z</time>
      </trkpt>
      <trkpt lat="47.45074" lon="6.70627">
        <ele>420</ele>
        <time>2015-11-15T08:40:22.000Z</time>
      </trkpt>
      <trkpt lat="47.45072" lon="6.70629">
        <ele>420</ele>
        <time>2015-11-15T08:40:23.000Z</time>
      </trkpt>
      <trkpt lat="47.45075" lon="6.70628">
        <ele>420</ele>
        <time>2015-11-15T08:40:27.000Z</time>
      </trkpt>
      <trkpt lat="47.45078" lon="6.70627">
        <ele>420</ele>
        <time>2015-11-15T08:40:28.000Z</time>
      </trkpt>
      <trkpt lat="47.45081" lon="6.70626">
        <ele>420</ele>
        <time>2015-11-15T08:40:31.000Z</time>
      </trkpt>
      <trkpt lat="47.45083" lon="6.70626">
        <ele>420</ele>
        <time>2015-11-15T08:40:32.000Z</time>
      </trkpt>
      <trkpt lat="47.4508" lon="6.70631">
        <ele>420</ele>
        <time>2015-11-15T08:40:38.000Z</time>
      </trkpt>
      <trkpt lat="47.4508" lon="6.70633">
        <ele>420</ele>
        <time>2015-11-15T08:40:39.000Z</time>
      </trkpt>
      <trkpt lat="47.45081" lon="6.70638">
        <ele>420</ele>
        <time>2015-11-15T08:40:41.000Z</time>
      </trkpt>
      <trkpt lat="47.45082" lon="6.7064">
        <ele>420</ele>
        <time>2015-11-15T08:40:42.000Z</time>
      </trkpt>
      <trkpt lat="47.45085" lon="6.70644">
        <ele>422</ele>
        <time>2015-11-15T08:40:44.000Z</time>
      </trkpt>
      <trkpt lat="47.45086" lon="6.70646">
        <ele>422</ele>
        <time>2015-11-15T08:40:45.000Z</time>
      </trkpt>
      <trkpt lat="47.4509" lon="6.70649">
        <ele>422</ele>
        <time>2015-11-15T08:40:52.000Z</time>
      </trkpt>
      <trkpt lat="47.4509" lon="6.70649">
        <ele>422</ele>
        <time>2015-11-15T08:40:53.000Z</time>
      </trkpt>
      <trkpt lat="47.45093" lon="6.70653">
        <ele>422</ele>
        <time>2015-11-15T08:40:56.000Z</time>
      </trkpt>
      <trkpt lat="47.45094" lon="6.70654">
        <ele>422</ele>
        <time>2015-11-15T08:40:57.000Z</time>
      </trkpt>
      <trkpt lat="47.45096" lon="6.70658">
        <ele>422</ele>
        <time>2015-11-15T08:40:59.000Z</time>
      </trkpt>
      <trkpt lat="47.45098" lon="6.70661">
        <ele>422</ele>
        <time>2015-11-15T08:41:00.000Z</time>
      </trkpt>
      <trkpt lat="47.451" lon="6.70666">
        <ele>422</ele>
        <time>2015-11-15T08:41:02.000Z</time>
      </trkpt>
      <trkpt lat="47.45101" lon="6.70668">
        <ele>424</ele>
        <time>2015-11-15T08:41:03.000Z</time>
      </trkpt>
      <trkpt lat="47.45103" lon="6.70672">
        <ele>424</ele>
        <time>2015-11-15T08:41:05.000Z</time>
      </trkpt>
      <trkpt lat="47.45104" lon="6.70674">
        <ele>424</ele>
        <time>2015-11-15T08:41:06.000Z</time>
      </trkpt>
      <trkpt lat="47.45107" lon="6.70679">
        <ele>425</ele>
        <time>2015-11-15T08:41:08.000Z</time>
      </trkpt>
      <trkpt lat="47.45109" lon="6.70681">
        <ele>425</ele>
        <time>2015-11-15T08:41:09.000Z</time>
      </trkpt>
      <trkpt lat="47.45112" lon="6.70683">
        <ele>425</ele>
        <time>2015-11-15T08:41:10.000Z</time>
      </trkpt>
      <trkpt lat="47.45114" lon="6.70684">
        <ele>425</ele>
        <time>2015-11-15T08:41:11.000Z</time>
      </trkpt>
      <trkpt lat="47.45117" lon="6.70685">
        <ele>425</ele>
        <time>2015-11-15T08:41:12.000Z</time>
      </trkpt>
      <trkpt lat="47.45119" lon="6.70687">
        <ele>425</ele>
        <time>2015-11-15T08:41:13.000Z</time>
      </trkpt>
      <trkpt lat="47.45121" lon="6.70689">
        <ele>425</ele>
        <time>2015-11-15T08:41:14.000Z</time>
      </trkpt>
      <trkpt lat="47.45122" lon="6.70693">
        <ele>426</ele>
        <time>2015-11-15T08:41:15.000Z</time>
      </trkpt>
      <trkpt lat="47.45123" lon="6.70698">
        <ele>426</ele>
        <time>2015-11-15T08:41:16.000Z</time>
      </trkpt>
      <trkpt lat="47.45123" lon="6.70703">
        <ele>426</ele>
        <time>2015-11-15T08:41:17.000Z</time>
      </trkpt>
      <trkpt lat="47.45123" lon="6.70708">
        <ele>426</ele>
        <time>2015-11-15T08:41:18.000Z</time>
      </trkpt>
      <trkpt lat="47.45124" lon="6.70713">
        <ele>426</ele>
        <time>2015-11-15T08:41:19.000Z</time>
      </trkpt>
      <trkpt lat="47.45125" lon="6.70718">
        <ele>426</ele>
        <time>2015-11-15T08:41:20.000Z</time>
      </trkpt>
      <trkpt lat="47.45126" lon="6.70723">
        <ele>426</ele>
        <time>2015-11-15T08:41:21.000Z</time>
      </trkpt>
      <trkpt lat="47.45127" lon="6.70727">
        <ele>426</ele>
        <time>2015-11-15T08:41:22.000Z</time>
      </trkpt>
      <trkpt lat="47.45127" lon="6.70731">
        <ele>427</ele>
        <time>2015-11-15T08:41:23.000Z</time>
      </trkpt>
      <trkpt lat="47.45128" lon="6.70735">
        <ele>427</ele>
        <time>2015-11-15T08:41:24.000Z</time>
      </trkpt>
      <trkpt lat="47.45128" lon="6.70739">
        <ele>427</ele>
        <time>2015-11-15T08:41:25.000Z</time>
      </trkpt>
      <trkpt lat="47.45128" lon="6.70743">
        <ele>427</ele>
        <time>2015-11-15T08:41:26.000Z</time>
      </trkpt>
      <trkpt lat="47.45128" lon="6.70747">
        <ele>427</ele>
        <time>2015-11-15T08:41:27.000Z</time>
      </trkpt>
      <trkpt lat="47.45128" lon="6.7075">
        <ele>429</ele>
        <time>2015-11-15T08:41:28.000Z</time>
      </trkpt>
      <trkpt lat="47.45127" lon="6.70754">
        <ele>429</ele>
        <time>2015-11-15T08:41:29.000Z</time>
      </trkpt>
      <trkpt lat="47.45126" lon="6.70757">
        <ele>429</ele>
        <time>2015-11-15T08:41:30.000Z</time>
      </trkpt>
      <trkpt lat="47.45125" lon="6.7076">
        <ele>429</ele>
        <time>2015-11-15T08:41:31.000Z</time>
      </trkpt>
      <trkpt lat="47.45123" lon="6.70765">
        <ele>429</ele>
        <time>2015-11-15T08:41:33.000Z</time>
      </trkpt>
      <trkpt lat="47.45122" lon="6.70767">
        <ele>429</ele>
        <time>2015-11-15T08:41:34.000Z</time>
      </trkpt>
      <trkpt lat="47.4512" lon="6.70772">
        <ele>429</ele>
        <time>2015-11-15T08:41:36.000Z</time>
      </trkpt>
      <trkpt lat="47.4512" lon="6.70775">
        <ele>429</ele>
        <time>2015-11-15T08:41:37.000Z</time>
      </trkpt>
      <trkpt lat="47.4512" lon="6.70781">
        <ele>429</ele>
        <time>2015-11-15T08:41:39.000Z</time>
      </trkpt>
      <trkpt lat="47.4512" lon="6.70784">
        <ele>429</ele>
        <time>2015-11-15T08:41:40.000Z</time>
      </trkpt>
      <trkpt lat="47.4512" lon="6.7079">
        <ele>429</ele>
        <time>2015-11-15T08:41:42.000Z</time>
      </trkpt>
      <trkpt lat="47.4512" lon="6.70793">
        <ele>429</ele>
        <time>2015-11-15T08:41:43.000Z</time>
      </trkpt>
      <trkpt lat="47.45121" lon="6.70799">
        <ele>429</ele>
        <time>2015-11-15T08:41:45.000Z</time>
      </trkpt>
      <trkpt lat="47.45122" lon="6.70802">
        <ele>429</ele>
        <time>2015-11-15T08:41:46.000Z</time>
      </trkpt>
      <trkpt lat="47.45123" lon="6.70807">
        <ele>429</ele>
        <time>2015-11-15T08:41:48.000Z</time>
      </trkpt>
      <trkpt lat="47.45125" lon="6.70809">
        <ele>429</ele>
        <time>2015-11-15T08:41:49.000Z</time>
      </trkpt>
      <trkpt lat="47.45127" lon="6.70814">
        <ele>430</ele>
        <time>2015-11-15T08:41:51.000Z</time>
      </trkpt>
      <trkpt lat="47.45128" lon="6.70817">
        <ele>430</ele>
        <time>2015-11-15T08:41:52.000Z</time>
      </trkpt>
      <trkpt lat="47.4513" lon="6.70821">
        <ele>430</ele>
        <time>2015-11-15T08:41:53.000Z</time>
      </trkpt>
      <trkpt lat="47.4513" lon="6.70825">
        <ele>430</ele>
        <time>2015-11-15T08:41:54.000Z</time>
      </trkpt>
      <trkpt lat="47.45131" lon="6.70829">
        <ele>430</ele>
        <time>2015-11-15T08:41:55.000Z</time>
      </trkpt>
      <trkpt lat="47.45132" lon="6.70832">
        <ele>430</ele>
        <time>2015-11-15T08:41:56.000Z</time>
      </trkpt>
      <trkpt lat="47.45133" lon="6.70836">
        <ele>431</ele>
        <time>2015-11-15T08:41:57.000Z</time>
      </trkpt>
      <trkpt lat="47.45135" lon="6.70839">
        <ele>432</ele>
        <time>2015-11-15T08:41:58.000Z</time>
      </trkpt>
      <trkpt lat="47.45136" lon="6.70845">
        <ele>432</ele>
        <time>2015-11-15T08:42:00.000Z</time>
      </trkpt>
      <trkpt lat="47.45137" lon="6.70848">
        <ele>432</ele>
        <time>2015-11-15T08:42:01.000Z</time>
      </trkpt>
      <trkpt lat="47.4514" lon="6.70853">
        <ele>432</ele>
        <time>2015-11-15T08:42:03.000Z</time>
      </trkpt>
      <trkpt lat="47.45142" lon="6.70856">
        <ele>432</ele>
        <time>2015-11-15T08:42:04.000Z</time>
      </trkpt>
      <trkpt lat="47.45144" lon="6.70859">
        <ele>432</ele>
        <time>2015-11-15T08:42:05.000Z</time>
      </trkpt>
      <trkpt lat="47.45145" lon="6.70863">
        <ele>432</ele>
        <time>2015-11-15T08:42:06.000Z</time>
      </trkpt>
      <trkpt lat="47.45146" lon="6.70866">
        <ele>432</ele>
        <time>2015-11-15T08:42:07.000Z</time>
      </trkpt>
      <trkpt lat="47.45148" lon="6.7087">
        <ele>432</ele>
        <time>2015-11-15T08:42:08.000Z</time>
      </trkpt>
      <trkpt lat="47.45149" lon="6.70873">
        <ele>432</ele>
        <time>2015-11-15T08:42:09.000Z</time>
      </trkpt>
      <trkpt lat="47.4515" lon="6.70876">
        <ele>432</ele>
        <time>2015-11-15T08:42:10.000Z</time>
      </trkpt>
      <trkpt lat="47.45152" lon="6.70879">
        <ele>432</ele>
        <time>2015-11-15T08:42:11.000Z</time>
      </trkpt>
      <trkpt lat="47.45153" lon="6.70882">
        <ele>433</ele>
        <time>2015-11-15T08:42:12.000Z</time>
      </trkpt>
      <trkpt lat="47.45154" lon="6.70885">
        <ele>433</ele>
        <time>2015-11-15T08:42:13.000Z</time>
      </trkpt>
      <trkpt lat="47.45156" lon="6.70889">
        <ele>433</ele>
        <time>2015-11-15T08:42:14.000Z</time>
      </trkpt>
      <trkpt lat="47.45157" lon="6.70893">
        <ele>433</ele>
        <time>2015-11-15T08:42:15.000Z</time>
      </trkpt>
      <trkpt lat="47.45158" lon="6.70897">
        <ele>433</ele>
        <time>2015-11-15T08:42:16.000Z</time>
      </trkpt>
      <trkpt lat="47.45159" lon="6.70901">
        <ele>434</ele>
        <time>2015-11-15T08:42:17.000Z</time>
      </trkpt>
      <trkpt lat="47.4516" lon="6.70905">
        <ele>434</ele>
        <time>2015-11-15T08:42:18.000Z</time>
      </trkpt>
      <trkpt lat="47.45161" lon="6.70909">
        <ele>435</ele>
        <time>2015-11-15T08:42:19.000Z</time>
      </trkpt>
      <trkpt lat="47.45162" lon="6.70913">
        <ele>435</ele>
        <time>2015-11-15T08:42:20.000Z</time>
      </trkpt>
      <trkpt lat="47.45164" lon="6.70917">
        <ele>435</ele>
        <time>2015-11-15T08:42:21.000Z</time>
      </trkpt>
      <trkpt lat="47.45165" lon="6.7092">
        <ele>435</ele>
        <time>2015-11-15T08:42:22.000Z</time>
      </trkpt>
      <trkpt lat="47.45166" lon="6.70924">
        <ele>435</ele>
        <time>2015-11-15T08:42:23.000Z</time>
      </trkpt>
      <trkpt lat="47.45168" lon="6.70928">
        <ele>436</ele>
        <time>2015-11-15T08:42:24.000Z</time>
      </trkpt>
      <trkpt lat="47.45169" lon="6.70932">
        <ele>435</ele>
        <time>2015-11-15T08:42:25.000Z</time>
      </trkpt>
      <trkpt lat="47.4517" lon="6.70937">
        <ele>435</ele>
        <time>2015-11-15T08:42:26.000Z</time>
      </trkpt>
      <trkpt lat="47.45172" lon="6.70941">
        <ele>435</ele>
        <time>2015-11-15T08:42:27.000Z</time>
      </trkpt>
      <trkpt lat="47.45173" lon="6.70946">
        <ele>435</ele>
        <time>2015-11-15T08:42:28.000Z</time>
      </trkpt>
      <trkpt lat="47.45175" lon="6.70949">
        <ele>435</ele>
        <time>2015-11-15T08:42:29.000Z</time>
      </trkpt>
      <trkpt lat="47.45177" lon="6.70953">
        <ele>435</ele>
        <time>2015-11-15T08:42:30.000Z</time>
      </trkpt>
      <trkpt lat="47.45179" lon="6.70956">
        <ele>435</ele>
        <time>2015-11-15T08:42:31.000Z</time>
      </trkpt>
      <trkpt lat="47.45181" lon="6.70959">
        <ele>435</ele>
        <time>2015-11-15T08:42:32.000Z</time>
      </trkpt>
      <trkpt lat="47.45184" lon="6.70962">
        <ele>435</ele>
        <time>2015-11-15T08:42:33.000Z</time>
      </trkpt>
      <trkpt lat="47.45186" lon="6.70964">
        <ele>435</ele>
        <time>2015-11-15T08:42:34.000Z</time>
      </trkpt>
      <trkpt lat="47.45188" lon="6.70967">
        <ele>435</ele>
        <time>2015-11-15T08:42:35.000Z</time>
      </trkpt>
      <trkpt lat="47.4519" lon="6.7097">
        <ele>435</ele>
        <time>2015-11-15T08:42:36.000Z</time>
      </trkpt>
      <trkpt lat="47.45192" lon="6.70974">
        <ele>435</ele>
        <time>2015-11-15T08:42:37.000Z</time>
      </trkpt>
      <trkpt lat="47.45193" lon="6.70978">
        <ele>435</ele>
        <time>2015-11-15T08:42:38.000Z</time>
      </trkpt>
      <trkpt lat="47.45195" lon="6.70982">
        <ele>435</ele>
        <time>2015-11-15T08:42:39.000Z</time>
      </trkpt>
      <trkpt lat="47.45196" lon="6.70987">
        <ele>435</ele>
        <time>2015-11-15T08:42:40.000Z</time>
      </trkpt>
      <trkpt lat="47.45197" lon="6.70991">
        <ele>435</ele>
        <time>2015-11-15T08:42:41.000Z</time>
      </trkpt>
      <trkpt lat="47.45198" lon="6.70995">
        <ele>435</ele>
        <time>2015-11-15T08:42:42.000Z</time>
      </trkpt>
      <trkpt lat="47.452" lon="6.71">
        <ele>435</ele>
        <time>2015-11-15T08:42:43.000Z</time>
      </trkpt>
      <trkpt lat="47.45201" lon="6.71004">
        <ele>435</ele>
        <time>2015-11-15T08:42:44.000Z</time>
      </trkpt>
      <trkpt lat="47.45202" lon="6.71008">
        <ele>435</ele>
        <time>2015-11-15T08:42:45.000Z</time>
      </trkpt>
      <trkpt lat="47.45204" lon="6.71013">
        <ele>435</ele>
        <time>2015-11-15T08:42:46.000Z</time>
      </trkpt>
      <trkpt lat="47.45205" lon="6.71018">
        <ele>435</ele>
        <time>2015-11-15T08:42:47.000Z</time>
      </trkpt>
      <trkpt lat="47.45206" lon="6.71022">
        <ele>435</ele>
        <time>2015-11-15T08:42:48.000Z</time>
      </trkpt>
      <trkpt lat="47.45208" lon="6.71027">
        <ele>435</ele>
        <time>2015-11-15T08:42:49.000Z</time>
      </trkpt>
      <trkpt lat="47.45209" lon="6.7103">
        <ele>435</ele>
        <time>2015-11-15T08:42:50.000Z</time>
      </trkpt>
      <trkpt lat="47.45212" lon="6.71034">
        <ele>435</ele>
        <time>2015-11-15T08:42:52.000Z</time>
      </trkpt>
      <trkpt lat="47.45213" lon="6.71034">
        <ele>435</ele>
        <time>2015-11-15T08:42:53.000Z</time>
      </trkpt>
      <trkpt lat="47.45216" lon="6.7103">
        <ele>435</ele>
        <time>2015-11-15T08:42:55.000Z</time>
      </trkpt>
      <trkpt lat="47.45217" lon="6.71027">
        <ele>435</ele>
        <time>2015-11-15T08:42:56.000Z</time>
      </trkpt>
      <trkpt lat="47.45219" lon="6.71023">
        <ele>435</ele>
        <time>2015-11-15T08:42:57.000Z</time>
      </trkpt>
      <trkpt lat="47.45221" lon="6.71019">
        <ele>435</ele>
        <time>2015-11-15T08:42:58.000Z</time>
      </trkpt>
      <trkpt lat="47.45224" lon="6.71014">
        <ele>435</ele>
        <time>2015-11-15T08:42:59.000Z</time>
      </trkpt>
      <trkpt lat="47.45228" lon="6.7101">
        <ele>436</ele>
        <time>2015-11-15T08:43:00.000Z</time>
      </trkpt>
      <trkpt lat="47.45231" lon="6.71006">
        <ele>436</ele>
        <time>2015-11-15T08:43:01.000Z</time>
      </trkpt>
      <trkpt lat="47.45236" lon="6.71004">
        <ele>436</ele>
        <time>2015-11-15T08:43:02.000Z</time>
      </trkpt>
      <trkpt lat="47.45245" lon="6.71004">
        <ele>436</ele>
        <time>2015-11-15T08:43:03.000Z</time>
      </trkpt>
      <trkpt lat="47.4525" lon="6.71002">
        <ele>436</ele>
        <time>2015-11-15T08:43:04.000Z</time>
      </trkpt>
      <trkpt lat="47.45254" lon="6.71">
        <ele>434</ele>
        <time>2015-11-15T08:43:05.000Z</time>
      </trkpt>
      <trkpt lat="47.45259" lon="6.70998">
        <ele>432</ele>
        <time>2015-11-15T08:43:06.000Z</time>
      </trkpt>
      <trkpt lat="47.45264" lon="6.70997">
        <ele>430</ele>
        <time>2015-11-15T08:43:07.000Z</time>
      </trkpt>
      <trkpt lat="47.45269" lon="6.70999">
        <ele>429</ele>
        <time>2015-11-15T08:43:08.000Z</time>
      </trkpt>
      <trkpt lat="47.45274" lon="6.71002">
        <ele>431</ele>
        <time>2015-11-15T08:43:09.000Z</time>
      </trkpt>
      <trkpt lat="47.45278" lon="6.71013">
        <ele>430</ele>
        <time>2015-11-15T08:43:10.000Z</time>
      </trkpt>
      <trkpt lat="47.45282" lon="6.71019">
        <ele>429</ele>
        <time>2015-11-15T08:43:11.000Z</time>
      </trkpt>
      <trkpt lat="47.45287" lon="6.71025">
        <ele>429</ele>
        <time>2015-11-15T08:43:12.000Z</time>
      </trkpt>
      <trkpt lat="47.45291" lon="6.7103">
        <ele>428</ele>
        <time>2015-11-15T08:43:13.000Z</time>
      </trkpt>
      <trkpt lat="47.45294" lon="6.71035">
        <ele>428</ele>
        <time>2015-11-15T08:43:14.000Z</time>
      </trkpt>
      <trkpt lat="47.45299" lon="6.71043">
        <ele>428</ele>
        <time>2015-11-15T08:43:15.000Z</time>
      </trkpt>
      <trkpt lat="47.45303" lon="6.71047">
        <ele>428</ele>
        <time>2015-11-15T08:43:16.000Z</time>
      </trkpt>
      <trkpt lat="47.45306" lon="6.71052">
        <ele>428</ele>
        <time>2015-11-15T08:43:17.000Z</time>
      </trkpt>
      <trkpt lat="47.4531" lon="6.71058">
        <ele>428</ele>
        <time>2015-11-15T08:43:18.000Z</time>
      </trkpt>
      <trkpt lat="47.45313" lon="6.71063">
        <ele>428</ele>
        <time>2015-11-15T08:43:19.000Z</time>
      </trkpt>
      <trkpt lat="47.45316" lon="6.71068">
        <ele>428</ele>
        <time>2015-11-15T08:43:20.000Z</time>
      </trkpt>
      <trkpt lat="47.45319" lon="6.71072">
        <ele>428</ele>
        <time>2015-11-15T08:43:21.000Z</time>
      </trkpt>
      <trkpt lat="47.45322" lon="6.71076">
        <ele>428</ele>
        <time>2015-11-15T08:43:22.000Z</time>
      </trkpt>
      <trkpt lat="47.45325" lon="6.7108">
        <ele>427</ele>
        <time>2015-11-15T08:43:23.000Z</time>
      </trkpt>
      <trkpt lat="47.45327" lon="6.71085">
        <ele>429</ele>
        <time>2015-11-15T08:43:24.000Z</time>
      </trkpt>
      <trkpt lat="47.45331" lon="6.71094">
        <ele>430</ele>
        <time>2015-11-15T08:43:25.000Z</time>
      </trkpt>
      <trkpt lat="47.45334" lon="6.711">
        <ele>423</ele>
        <time>2015-11-15T08:43:26.000Z</time>
      </trkpt>
      <trkpt lat="47.45336" lon="6.71106">
        <ele>422</ele>
        <time>2015-11-15T08:43:27.000Z</time>
      </trkpt>
      <trkpt lat="47.45339" lon="6.71111">
        <ele>422</ele>
        <time>2015-11-15T08:43:28.000Z</time>
      </trkpt>
      <trkpt lat="47.45342" lon="6.71116">
        <ele>422</ele>
        <time>2015-11-15T08:43:29.000Z</time>
      </trkpt>
      <trkpt lat="47.45345" lon="6.7112">
        <ele>422</ele>
        <time>2015-11-15T08:43:30.000Z</time>
      </trkpt>
      <trkpt lat="47.45354" lon="6.7113">
        <ele>421</ele>
        <time>2015-11-15T08:43:31.000Z</time>
      </trkpt>
      <trkpt lat="47.45358" lon="6.71135">
        <ele>421</ele>
        <time>2015-11-15T08:43:32.000Z</time>
      </trkpt>
      <trkpt lat="47.4536" lon="6.71143">
        <ele>421</ele>
        <time>2015-11-15T08:43:33.000Z</time>
      </trkpt>
      <trkpt lat="47.45363" lon="6.71148">
        <ele>421</ele>
        <time>2015-11-15T08:43:34.000Z</time>
      </trkpt>
      <trkpt lat="47.45368" lon="6.71157">
        <ele>421</ele>
        <time>2015-11-15T08:43:35.000Z</time>
      </trkpt>
      <trkpt lat="47.45372" lon="6.71164">
        <ele>420</ele>
        <time>2015-11-15T08:43:36.000Z</time>
      </trkpt>
      <trkpt lat="47.45375" lon="6.71168">
        <ele>425</ele>
        <time>2015-11-15T08:43:37.000Z</time>
      </trkpt>
      <trkpt lat="47.45374" lon="6.71175">
        <ele>426</ele>
        <time>2015-11-15T08:43:38.000Z</time>
      </trkpt>
      <trkpt lat="47.45376" lon="6.71182">
        <ele>426</ele>
        <time>2015-11-15T08:43:39.000Z</time>
      </trkpt>
      <trkpt lat="47.45378" lon="6.71187">
        <ele>425</ele>
        <time>2015-11-15T08:43:40.000Z</time>
      </trkpt>
      <trkpt lat="47.45379" lon="6.71191">
        <ele>425</ele>
        <time>2015-11-15T08:43:41.000Z</time>
      </trkpt>
      <trkpt lat="47.45381" lon="6.71194">
        <ele>425</ele>
        <time>2015-11-15T08:43:42.000Z</time>
      </trkpt>
      <trkpt lat="47.45386" lon="6.71206">
        <ele>426</ele>
        <time>2015-11-15T08:43:43.000Z</time>
      </trkpt>
      <trkpt lat="47.45389" lon="6.71214">
        <ele>426</ele>
        <time>2015-11-15T08:43:44.000Z</time>
      </trkpt>
      <trkpt lat="47.4539" lon="6.71218">
        <ele>426</ele>
        <time>2015-11-15T08:43:45.000Z</time>
      </trkpt>
      <trkpt lat="47.45392" lon="6.71222">
        <ele>426</ele>
        <time>2015-11-15T08:43:46.000Z</time>
      </trkpt>
      <trkpt lat="47.45394" lon="6.71227">
        <ele>426</ele>
        <time>2015-11-15T08:43:47.000Z</time>
      </trkpt>
      <trkpt lat="47.45395" lon="6.7123">
        <ele>426</ele>
        <time>2015-11-15T08:43:48.000Z</time>
      </trkpt>
      <trkpt lat="47.45397" lon="6.71235">
        <ele>426</ele>
        <time>2015-11-15T08:43:49.000Z</time>
      </trkpt>
      <trkpt lat="47.45399" lon="6.71239">
        <ele>426</ele>
        <time>2015-11-15T08:43:50.000Z</time>
      </trkpt>
      <trkpt lat="47.45403" lon="6.71249">
        <ele>426</ele>
        <time>2015-11-15T08:43:51.000Z</time>
      </trkpt>
      <trkpt lat="47.45405" lon="6.71256">
        <ele>429</ele>
        <time>2015-11-15T08:43:52.000Z</time>
      </trkpt>
      <trkpt lat="47.45407" lon="6.71261">
        <ele>429</ele>
        <time>2015-11-15T08:43:53.000Z</time>
      </trkpt>
      <trkpt lat="47.45409" lon="6.71266">
        <ele>429</ele>
        <time>2015-11-15T08:43:54.000Z</time>
      </trkpt>
      <trkpt lat="47.45411" lon="6.71271">
        <ele>430</ele>
        <time>2015-11-15T08:43:55.000Z</time>
      </trkpt>
      <trkpt lat="47.45413" lon="6.71276">
        <ele>430</ele>
        <time>2015-11-15T08:43:56.000Z</time>
      </trkpt>
      <trkpt lat="47.45416" lon="6.7128">
        <ele>430</ele>
        <time>2015-11-15T08:43:57.000Z</time>
      </trkpt>
      <trkpt lat="47.45419" lon="6.71285">
        <ele>421</ele>
        <time>2015-11-15T08:43:58.000Z</time>
      </trkpt>
      <trkpt lat="47.45424" lon="6.71289">
        <ele>421</ele>
        <time>2015-11-15T08:43:59.000Z</time>
      </trkpt>
      <trkpt lat="47.45434" lon="6.71298">
        <ele>421</ele>
        <time>2015-11-15T08:44:00.000Z</time>
      </trkpt>
      <trkpt lat="47.45438" lon="6.71302">
        <ele>421</ele>
        <time>2015-11-15T08:44:01.000Z</time>
      </trkpt>
      <trkpt lat="47.45443" lon="6.71309">
        <ele>421</ele>
        <time>2015-11-15T08:44:02.000Z</time>
      </trkpt>
      <trkpt lat="47.45448" lon="6.71319">
        <ele>421</ele>
        <time>2015-11-15T08:44:03.000Z</time>
      </trkpt>
      <trkpt lat="47.45453" lon="6.71331">
        <ele>420</ele>
        <time>2015-11-15T08:44:04.000Z</time>
      </trkpt>
      <trkpt lat="47.45458" lon="6.71342">
        <ele>425</ele>
        <time>2015-11-15T08:44:05.000Z</time>
      </trkpt>
      <trkpt lat="47.45465" lon="6.71355">
        <ele>424</ele>
        <time>2015-11-15T08:44:06.000Z</time>
      </trkpt>
      <trkpt lat="47.4547" lon="6.71367">
        <ele>424</ele>
        <time>2015-11-15T08:44:07.000Z</time>
      </trkpt>
      <trkpt lat="47.45474" lon="6.71376">
        <ele>424</ele>
        <time>2015-11-15T08:44:08.000Z</time>
      </trkpt>
      <trkpt lat="47.45479" lon="6.71386">
        <ele>425</ele>
        <time>2015-11-15T08:44:09.000Z</time>
      </trkpt>
      <trkpt lat="47.45482" lon="6.71397">
        <ele>425</ele>
        <time>2015-11-15T08:44:10.000Z</time>
      </trkpt>
      <trkpt lat="47.45483" lon="6.71409">
        <ele>425</ele>
        <time>2015-11-15T08:44:11.000Z</time>
      </trkpt>
      <trkpt lat="47.45484" lon="6.71419">
        <ele>427</ele>
        <time>2015-11-15T08:44:12.000Z</time>
      </trkpt>
      <trkpt lat="47.45485" lon="6.71426">
        <ele>427</ele>
        <time>2015-11-15T08:44:13.000Z</time>
      </trkpt>
      <trkpt lat="47.45486" lon="6.71434">
        <ele>428</ele>
        <time>2015-11-15T08:44:14.000Z</time>
      </trkpt>
      <trkpt lat="47.45487" lon="6.71439">
        <ele>428</ele>
        <time>2015-11-15T08:44:15.000Z</time>
      </trkpt>
      <trkpt lat="47.45489" lon="6.71444">
        <ele>428</ele>
        <time>2015-11-15T08:44:16.000Z</time>
      </trkpt>
      <trkpt lat="47.4549" lon="6.7145">
        <ele>429</ele>
        <time>2015-11-15T08:44:17.000Z</time>
      </trkpt>
      <trkpt lat="47.45491" lon="6.71455">
        <ele>429</ele>
        <time>2015-11-15T08:44:18.000Z</time>
      </trkpt>
      <trkpt lat="47.45493" lon="6.71462">
        <ele>429</ele>
        <time>2015-11-15T08:44:19.000Z</time>
      </trkpt>
      <trkpt lat="47.45494" lon="6.71468">
        <ele>429</ele>
        <time>2015-11-15T08:44:20.000Z</time>
      </trkpt>
      <trkpt lat="47.45495" lon="6.71474">
        <ele>430</ele>
        <time>2015-11-15T08:44:21.000Z</time>
      </trkpt>
      <trkpt lat="47.45496" lon="6.7148">
        <ele>430</ele>
        <time>2015-11-15T08:44:22.000Z</time>
      </trkpt>
      <trkpt lat="47.45498" lon="6.71487">
        <ele>430</ele>
        <time>2015-11-15T08:44:23.000Z</time>
      </trkpt>
      <trkpt lat="47.45499" lon="6.71494">
        <ele>429</ele>
        <time>2015-11-15T08:44:24.000Z</time>
      </trkpt>
      <trkpt lat="47.45503" lon="6.71507">
        <ele>428</ele>
        <time>2015-11-15T08:44:25.000Z</time>
      </trkpt>
      <trkpt lat="47.45504" lon="6.71515">
        <ele>427</ele>
        <time>2015-11-15T08:44:26.000Z</time>
      </trkpt>
      <trkpt lat="47.45506" lon="6.71526">
        <ele>426</ele>
        <time>2015-11-15T08:44:27.000Z</time>
      </trkpt>
      <trkpt lat="47.45507" lon="6.71536">
        <ele>426</ele>
        <time>2015-11-15T08:44:28.000Z</time>
      </trkpt>
      <trkpt lat="47.45509" lon="6.71546">
        <ele>426</ele>
        <time>2015-11-15T08:44:29.000Z</time>
      </trkpt>
      <trkpt lat="47.45511" lon="6.71555">
        <ele>426</ele>
        <time>2015-11-15T08:44:30.000Z</time>
      </trkpt>
      <trkpt lat="47.45515" lon="6.71562">
        <ele>426</ele>
        <time>2015-11-15T08:44:31.000Z</time>
      </trkpt>
      <trkpt lat="47.45519" lon="6.71568">
        <ele>426</ele>
        <time>2015-11-15T08:44:32.000Z</time>
      </trkpt>
      <trkpt lat="47.45521" lon="6.71573">
        <ele>426</ele>
        <time>2015-11-15T08:44:33.000Z</time>
      </trkpt>
      <trkpt lat="47.45522" lon="6.71576">
        <ele>426</ele>
        <time>2015-11-15T08:44:34.000Z</time>
      </trkpt>
      <trkpt lat="47.45522" lon="6.7158">
        <ele>426</ele>
        <time>2015-11-15T08:44:35.000Z</time>
      </trkpt>
      <trkpt lat="47.45522" lon="6.71583">
        <ele>427</ele>
        <time>2015-11-15T08:44:36.000Z</time>
      </trkpt>
      <trkpt lat="47.45523" lon="6.71588">
        <ele>428</ele>
        <time>2015-11-15T08:44:37.000Z</time>
      </trkpt>
      <trkpt lat="47.45523" lon="6.71592">
        <ele>428</ele>
        <time>2015-11-15T08:44:38.000Z</time>
      </trkpt>
      <trkpt lat="47.45523" lon="6.71595">
        <ele>428</ele>
        <time>2015-11-15T08:44:39.000Z</time>
      </trkpt>
      <trkpt lat="47.45523" lon="6.71599">
        <ele>428</ele>
        <time>2015-11-15T08:44:41.000Z</time>
      </trkpt>
      <trkpt lat="47.45523" lon="6.71602">
        <ele>428</ele>
        <time>2015-11-15T08:44:42.000Z</time>
      </trkpt>
      <trkpt lat="47.45523" lon="6.71608">
        <ele>428</ele>
        <time>2015-11-15T08:44:44.000Z</time>
      </trkpt>
      <trkpt lat="47.45523" lon="6.7161">
        <ele>428</ele>
        <time>2015-11-15T08:44:45.000Z</time>
      </trkpt>
      <trkpt lat="47.45522" lon="6.71614">
        <ele>428</ele>
        <time>2015-11-15T08:44:46.000Z</time>
      </trkpt>
      <trkpt lat="47.45521" lon="6.71617">
        <ele>428</ele>
        <time>2015-11-15T08:44:47.000Z</time>
      </trkpt>
      <trkpt lat="47.4552" lon="6.7162">
        <ele>428</ele>
        <time>2015-11-15T08:44:48.000Z</time>
      </trkpt>
      <trkpt lat="47.4552" lon="6.71624">
        <ele>428</ele>
        <time>2015-11-15T08:44:49.000Z</time>
      </trkpt>
      <trkpt lat="47.4552" lon="6.7163">
        <ele>428</ele>
        <time>2015-11-15T08:44:51.000Z</time>
      </trkpt>
      <trkpt lat="47.4552" lon="6.71632">
        <ele>428</ele>
        <time>2015-11-15T08:44:52.000Z</time>
      </trkpt>
      <trkpt lat="47.4552" lon="6.71638">
        <ele>428</ele>
        <time>2015-11-15T08:44:54.000Z</time>
      </trkpt>
      <trkpt lat="47.4552" lon="6.71641">
        <ele>429</ele>
        <time>2015-11-15T08:44:55.000Z</time>
      </trkpt>
      <trkpt lat="47.45521" lon="6.71647">
        <ele>429</ele>
        <time>2015-11-15T08:44:57.000Z</time>
      </trkpt>
      <trkpt lat="47.45521" lon="6.7165">
        <ele>429</ele>
        <time>2015-11-15T08:44:58.000Z</time>
      </trkpt>
      <trkpt lat="47.45522" lon="6.71657">
        <ele>429</ele>
        <time>2015-11-15T08:45:00.000Z</time>
      </trkpt>
      <trkpt lat="47.45522" lon="6.7166">
        <ele>429</ele>
        <time>2015-11-15T08:45:01.000Z</time>
      </trkpt>
      <trkpt lat="47.45522" lon="6.71665">
        <ele>429</ele>
        <time>2015-11-15T08:45:03.000Z</time>
      </trkpt>
      <trkpt lat="47.45522" lon="6.71668">
        <ele>429</ele>
        <time>2015-11-15T08:45:04.000Z</time>
      </trkpt>
      <trkpt lat="47.45522" lon="6.71673">
        <ele>429</ele>
        <time>2015-11-15T08:45:06.000Z</time>
      </trkpt>
      <trkpt lat="47.45522" lon="6.71676">
        <ele>429</ele>
        <time>2015-11-15T08:45:07.000Z</time>
      </trkpt>
      <trkpt lat="47.45522" lon="6.71682">
        <ele>429</ele>
        <time>2015-11-15T08:45:09.000Z</time>
      </trkpt>
      <trkpt lat="47.45522" lon="6.71686">
        <ele>429</ele>
        <time>2015-11-15T08:45:10.000Z</time>
      </trkpt>
      <trkpt lat="47.45522" lon="6.71692">
        <ele>429</ele>
        <time>2015-11-15T08:45:12.000Z</time>
      </trkpt>
      <trkpt lat="47.45522" lon="6.71695">
        <ele>428</ele>
        <time>2015-11-15T08:45:13.000Z</time>
      </trkpt>
      <trkpt lat="47.45523" lon="6.717">
        <ele>428</ele>
        <time>2015-11-15T08:45:15.000Z</time>
      </trkpt>
      <trkpt lat="47.45523" lon="6.71703">
        <ele>428</ele>
        <time>2015-11-15T08:45:16.000Z</time>
      </trkpt>
      <trkpt lat="47.45524" lon="6.71709">
        <ele>428</ele>
        <time>2015-11-15T08:45:18.000Z</time>
      </trkpt>
      <trkpt lat="47.45525" lon="6.71712">
        <ele>428</ele>
        <time>2015-11-15T08:45:19.000Z</time>
      </trkpt>
      <trkpt lat="47.45526" lon="6.71716">
        <ele>428</ele>
        <time>2015-11-15T08:45:20.000Z</time>
      </trkpt>
      <trkpt lat="47.45527" lon="6.71719">
        <ele>428</ele>
        <time>2015-11-15T08:45:21.000Z</time>
      </trkpt>
      <trkpt lat="47.45528" lon="6.71722">
        <ele>428</ele>
        <time>2015-11-15T08:45:22.000Z</time>
      </trkpt>
      <trkpt lat="47.45529" lon="6.71725">
        <ele>428</ele>
        <time>2015-11-15T08:45:23.000Z</time>
      </trkpt>
      <trkpt lat="47.45529" lon="6.71729">
        <ele>428</ele>
        <time>2015-11-15T08:45:24.000Z</time>
      </trkpt>
      <trkpt lat="47.45529" lon="6.71734">
        <ele>428</ele>
        <time>2015-11-15T08:45:25.000Z</time>
      </trkpt>
      <trkpt lat="47.45529" lon="6.71739">
        <ele>428</ele>
        <time>2015-11-15T08:45:26.000Z</time>
      </trkpt>
      <trkpt lat="47.45529" lon="6.71744">
        <ele>428</ele>
        <time>2015-11-15T08:45:27.000Z</time>
      </trkpt>
      <trkpt lat="47.4553" lon="6.7175">
        <ele>428</ele>
        <time>2015-11-15T08:45:28.000Z</time>
      </trkpt>
      <trkpt lat="47.4553" lon="6.71756">
        <ele>428</ele>
        <time>2015-11-15T08:45:29.000Z</time>
      </trkpt>
      <trkpt lat="47.45531" lon="6.71762">
        <ele>428</ele>
        <time>2015-11-15T08:45:30.000Z</time>
      </trkpt>
      <trkpt lat="47.45531" lon="6.71768">
        <ele>427</ele>
        <time>2015-11-15T08:45:31.000Z</time>
      </trkpt>
      <trkpt lat="47.4553" lon="6.71773">
        <ele>427</ele>
        <time>2015-11-15T08:45:32.000Z</time>
      </trkpt>
      <trkpt lat="47.4553" lon="6.71778">
        <ele>427</ele>
        <time>2015-11-15T08:45:33.000Z</time>
      </trkpt>
      <trkpt lat="47.45529" lon="6.71782">
        <ele>427</ele>
        <time>2015-11-15T08:45:34.000Z</time>
      </trkpt>
      <trkpt lat="47.45529" lon="6.71785">
        <ele>427</ele>
        <time>2015-11-15T08:45:35.000Z</time>
      </trkpt>
      <trkpt lat="47.45528" lon="6.7179">
        <ele>427</ele>
        <time>2015-11-15T08:45:37.000Z</time>
      </trkpt>
      <trkpt lat="47.45528" lon="6.71792">
        <ele>427</ele>
        <time>2015-11-15T08:45:38.000Z</time>
      </trkpt>
      <trkpt lat="47.45526" lon="6.71796">
        <ele>427</ele>
        <time>2015-11-15T08:45:41.000Z</time>
      </trkpt>
      <trkpt lat="47.45525" lon="6.71797">
        <ele>427</ele>
        <time>2015-11-15T08:45:42.000Z</time>
      </trkpt>
      <trkpt lat="47.45522" lon="6.718">
        <ele>428</ele>
        <time>2015-11-15T08:45:45.000Z</time>
      </trkpt>
      <trkpt lat="47.45521" lon="6.71802">
        <ele>428</ele>
        <time>2015-11-15T08:45:46.000Z</time>
      </trkpt>
      <trkpt lat="47.45519" lon="6.71805">
        <ele>428</ele>
        <time>2015-11-15T08:45:48.000Z</time>
      </trkpt>
      <trkpt lat="47.45519" lon="6.71808">
        <ele>428</ele>
        <time>2015-11-15T08:45:49.000Z</time>
      </trkpt>
      <trkpt lat="47.45518" lon="6.71813">
        <ele>428</ele>
        <time>2015-11-15T08:45:51.000Z</time>
      </trkpt>
      <trkpt lat="47.45517" lon="6.71816">
        <ele>428</ele>
        <time>2015-11-15T08:45:52.000Z</time>
      </trkpt>
      <trkpt lat="47.45514" lon="6.71821">
        <ele>428</ele>
        <time>2015-11-15T08:45:54.000Z</time>
      </trkpt>
      <trkpt lat="47.45513" lon="6.71823">
        <ele>428</ele>
        <time>2015-11-15T08:45:55.000Z</time>
      </trkpt>
      <trkpt lat="47.45511" lon="6.71828">
        <ele>428</ele>
        <time>2015-11-15T08:45:57.000Z</time>
      </trkpt>
      <trkpt lat="47.45511" lon="6.71831">
        <ele>428</ele>
        <time>2015-11-15T08:45:58.000Z</time>
      </trkpt>
      <trkpt lat="47.4551" lon="6.71836">
        <ele>428</ele>
        <time>2015-11-15T08:46:00.000Z</time>
      </trkpt>
      <trkpt lat="47.45509" lon="6.71839">
        <ele>428</ele>
        <time>2015-11-15T08:46:01.000Z</time>
      </trkpt>
      <trkpt lat="47.45508" lon="6.71842">
        <ele>428</ele>
        <time>2015-11-15T08:46:02.000Z</time>
      </trkpt>
      <trkpt lat="47.45507" lon="6.71846">
        <ele>428</ele>
        <time>2015-11-15T08:46:03.000Z</time>
      </trkpt>
      <trkpt lat="47.45505" lon="6.71849">
        <ele>428</ele>
        <time>2015-11-15T08:46:04.000Z</time>
      </trkpt>
      <trkpt lat="47.45504" lon="6.71852">
        <ele>428</ele>
        <time>2015-11-15T08:46:05.000Z</time>
      </trkpt>
      <trkpt lat="47.45503" lon="6.71855">
        <ele>428</ele>
        <time>2015-11-15T08:46:06.000Z</time>
      </trkpt>
      <trkpt lat="47.45501" lon="6.71858">
        <ele>429</ele>
        <time>2015-11-15T08:46:07.000Z</time>
      </trkpt>
      <trkpt lat="47.455" lon="6.71862">
        <ele>429</ele>
        <time>2015-11-15T08:46:08.000Z</time>
      </trkpt>
      <trkpt lat="47.45498" lon="6.71866">
        <ele>429</ele>
        <time>2015-11-15T08:46:09.000Z</time>
      </trkpt>
      <trkpt lat="47.45497" lon="6.71869">
        <ele>430</ele>
        <time>2015-11-15T08:46:10.000Z</time>
      </trkpt>
      <trkpt lat="47.45495" lon="6.71873">
        <ele>430</ele>
        <time>2015-11-15T08:46:11.000Z</time>
      </trkpt>
      <trkpt lat="47.45494" lon="6.71876">
        <ele>430</ele>
        <time>2015-11-15T08:46:12.000Z</time>
      </trkpt>
      <trkpt lat="47.45492" lon="6.71879">
        <ele>430</ele>
        <time>2015-11-15T08:46:13.000Z</time>
      </trkpt>
      <trkpt lat="47.4549" lon="6.71882">
        <ele>430</ele>
        <time>2015-11-15T08:46:14.000Z</time>
      </trkpt>
      <trkpt lat="47.45488" lon="6.71885">
        <ele>430</ele>
        <time>2015-11-15T08:46:15.000Z</time>
      </trkpt>
      <trkpt lat="47.45487" lon="6.71887">
        <ele>430</ele>
        <time>2015-11-15T08:46:16.000Z</time>
      </trkpt>
      <trkpt lat="47.45485" lon="6.7189">
        <ele>430</ele>
        <time>2015-11-15T08:46:17.000Z</time>
      </trkpt>
      <trkpt lat="47.45483" lon="6.71892">
        <ele>430</ele>
        <time>2015-11-15T08:46:18.000Z</time>
      </trkpt>
      <trkpt lat="47.45481" lon="6.71895">
        <ele>430</ele>
        <time>2015-11-15T08:46:19.000Z</time>
      </trkpt>
      <trkpt lat="47.4548" lon="6.71899">
        <ele>430</ele>
        <time>2015-11-15T08:46:20.000Z</time>
      </trkpt>
      <trkpt lat="47.45478" lon="6.71902">
        <ele>430</ele>
        <time>2015-11-15T08:46:21.000Z</time>
      </trkpt>
      <trkpt lat="47.45476" lon="6.71907">
        <ele>430</ele>
        <time>2015-11-15T08:46:22.000Z</time>
      </trkpt>
      <trkpt lat="47.45475" lon="6.71911">
        <ele>430</ele>
        <time>2015-11-15T08:46:23.000Z</time>
      </trkpt>
      <trkpt lat="47.45473" lon="6.71915">
        <ele>430</ele>
        <time>2015-11-15T08:46:24.000Z</time>
      </trkpt>
      <trkpt lat="47.45472" lon="6.7192">
        <ele>431</ele>
        <time>2015-11-15T08:46:25.000Z</time>
      </trkpt>
      <trkpt lat="47.45471" lon="6.71926">
        <ele>431</ele>
        <time>2015-11-15T08:46:26.000Z</time>
      </trkpt>
      <trkpt lat="47.45471" lon="6.71932">
        <ele>431</ele>
        <time>2015-11-15T08:46:27.000Z</time>
      </trkpt>
      <trkpt lat="47.45469" lon="6.71942">
        <ele>431</ele>
        <time>2015-11-15T08:46:28.000Z</time>
      </trkpt>
      <trkpt lat="47.45468" lon="6.71949">
        <ele>431</ele>
        <time>2015-11-15T08:46:29.000Z</time>
      </trkpt>
      <trkpt lat="47.45467" lon="6.71956">
        <ele>431</ele>
        <time>2015-11-15T08:46:30.000Z</time>
      </trkpt>
      <trkpt lat="47.45467" lon="6.71963">
        <ele>432</ele>
        <time>2015-11-15T08:46:31.000Z</time>
      </trkpt>
      <trkpt lat="47.45466" lon="6.71969">
        <ele>432</ele>
        <time>2015-11-15T08:46:32.000Z</time>
      </trkpt>
      <trkpt lat="47.45466" lon="6.71976">
        <ele>432</ele>
        <time>2015-11-15T08:46:33.000Z</time>
      </trkpt>
      <trkpt lat="47.45466" lon="6.71982">
        <ele>432</ele>
        <time>2015-11-15T08:46:34.000Z</time>
      </trkpt>
      <trkpt lat="47.45466" lon="6.71988">
        <ele>432</ele>
        <time>2015-11-15T08:46:35.000Z</time>
      </trkpt>
      <trkpt lat="47.45466" lon="6.71993">
        <ele>432</ele>
        <time>2015-11-15T08:46:36.000Z</time>
      </trkpt>
      <trkpt lat="47.45463" lon="6.71999">
        <ele>432</ele>
        <time>2015-11-15T08:46:37.000Z</time>
      </trkpt>
      <trkpt lat="47.45463" lon="6.72004">
        <ele>434</ele>
        <time>2015-11-15T08:46:38.000Z</time>
      </trkpt>
      <trkpt lat="47.45462" lon="6.72009">
        <ele>434</ele>
        <time>2015-11-15T08:46:39.000Z</time>
      </trkpt>
      <trkpt lat="47.45461" lon="6.72013">
        <ele>434</ele>
        <time>2015-11-15T08:46:40.000Z</time>
      </trkpt>
      <trkpt lat="47.45461" lon="6.72018">
        <ele>434</ele>
        <time>2015-11-15T08:46:41.000Z</time>
      </trkpt>
      <trkpt lat="47.4546" lon="6.72022">
        <ele>434</ele>
        <time>2015-11-15T08:46:42.000Z</time>
      </trkpt>
      <trkpt lat="47.4546" lon="6.72027">
        <ele>434</ele>
        <time>2015-11-15T08:46:43.000Z</time>
      </trkpt>
      <trkpt lat="47.4546" lon="6.72032">
        <ele>434</ele>
        <time>2015-11-15T08:46:44.000Z</time>
      </trkpt>
      <trkpt lat="47.45459" lon="6.72037">
        <ele>434</ele>
        <time>2015-11-15T08:46:45.000Z</time>
      </trkpt>
      <trkpt lat="47.45459" lon="6.72042">
        <ele>434</ele>
        <time>2015-11-15T08:46:46.000Z</time>
      </trkpt>
      <trkpt lat="47.45458" lon="6.72047">
        <ele>434</ele>
        <time>2015-11-15T08:46:47.000Z</time>
      </trkpt>
      <trkpt lat="47.45458" lon="6.72053">
        <ele>434</ele>
        <time>2015-11-15T08:46:48.000Z</time>
      </trkpt>
      <trkpt lat="47.45457" lon="6.72058">
        <ele>435</ele>
        <time>2015-11-15T08:46:49.000Z</time>
      </trkpt>
      <trkpt lat="47.45457" lon="6.72064">
        <ele>435</ele>
        <time>2015-11-15T08:46:50.000Z</time>
      </trkpt>
      <trkpt lat="47.45457" lon="6.72069">
        <ele>435</ele>
        <time>2015-11-15T08:46:51.000Z</time>
      </trkpt>
      <trkpt lat="47.45457" lon="6.72075">
        <ele>435</ele>
        <time>2015-11-15T08:46:52.000Z</time>
      </trkpt>
      <trkpt lat="47.45456" lon="6.7208">
        <ele>435</ele>
        <time>2015-11-15T08:46:53.000Z</time>
      </trkpt>
      <trkpt lat="47.45456" lon="6.72085">
        <ele>437</ele>
        <time>2015-11-15T08:46:54.000Z</time>
      </trkpt>
      <trkpt lat="47.45455" lon="6.72091">
        <ele>437</ele>
        <time>2015-11-15T08:46:55.000Z</time>
      </trkpt>
      <trkpt lat="47.45454" lon="6.72096">
        <ele>437</ele>
        <time>2015-11-15T08:46:56.000Z</time>
      </trkpt>
      <trkpt lat="47.45454" lon="6.72101">
        <ele>437</ele>
        <time>2015-11-15T08:46:57.000Z</time>
      </trkpt>
      <trkpt lat="47.45453" lon="6.72107">
        <ele>437</ele>
        <time>2015-11-15T08:46:58.000Z</time>
      </trkpt>
      <trkpt lat="47.45453" lon="6.72112">
        <ele>437</ele>
        <time>2015-11-15T08:46:59.000Z</time>
      </trkpt>
      <trkpt lat="47.45452" lon="6.72117">
        <ele>437</ele>
        <time>2015-11-15T08:47:00.000Z</time>
      </trkpt>
      <trkpt lat="47.45452" lon="6.72122">
        <ele>437</ele>
        <time>2015-11-15T08:47:01.000Z</time>
      </trkpt>
      <trkpt lat="47.45452" lon="6.72128">
        <ele>437</ele>
        <time>2015-11-15T08:47:02.000Z</time>
      </trkpt>
      <trkpt lat="47.45453" lon="6.72133">
        <ele>437</ele>
        <time>2015-11-15T08:47:03.000Z</time>
      </trkpt>
      <trkpt lat="47.45453" lon="6.72138">
        <ele>437</ele>
        <time>2015-11-15T08:47:04.000Z</time>
      </trkpt>
      <trkpt lat="47.45453" lon="6.72143">
        <ele>437</ele>
        <time>2015-11-15T08:47:05.000Z</time>
      </trkpt>
      <trkpt lat="47.45453" lon="6.72148">
        <ele>437</ele>
        <time>2015-11-15T08:47:06.000Z</time>
      </trkpt>
      <trkpt lat="47.45454" lon="6.72153">
        <ele>437</ele>
        <time>2015-11-15T08:47:07.000Z</time>
      </trkpt>
      <trkpt lat="47.45454" lon="6.72158">
        <ele>437</ele>
        <time>2015-11-15T08:47:08.000Z</time>
      </trkpt>
      <trkpt lat="47.45454" lon="6.72163">
        <ele>437</ele>
        <time>2015-11-15T08:47:09.000Z</time>
      </trkpt>
      <trkpt lat="47.45455" lon="6.72168">
        <ele>438</ele>
        <time>2015-11-15T08:47:10.000Z</time>
      </trkpt>
      <trkpt lat="47.45455" lon="6.72173">
        <ele>438</ele>
        <time>2015-11-15T08:47:11.000Z</time>
      </trkpt>
      <trkpt lat="47.45456" lon="6.72177">
        <ele>438</ele>
        <time>2015-11-15T08:47:12.000Z</time>
      </trkpt>
      <trkpt lat="47.45456" lon="6.72182">
        <ele>438</ele>
        <time>2015-11-15T08:47:13.000Z</time>
      </trkpt>
      <trkpt lat="47.45457" lon="6.72187">
        <ele>438</ele>
        <time>2015-11-15T08:47:14.000Z</time>
      </trkpt>
      <trkpt lat="47.45457" lon="6.72192">
        <ele>438</ele>
        <time>2015-11-15T08:47:15.000Z</time>
      </trkpt>
      <trkpt lat="47.45458" lon="6.72197">
        <ele>438</ele>
        <time>2015-11-15T08:47:16.000Z</time>
      </trkpt>
      <trkpt lat="47.45459" lon="6.72202">
        <ele>438</ele>
        <time>2015-11-15T08:47:17.000Z</time>
      </trkpt>
      <trkpt lat="47.45459" lon="6.72206">
        <ele>438</ele>
        <time>2015-11-15T08:47:18.000Z</time>
      </trkpt>
      <trkpt lat="47.4546" lon="6.72211">
        <ele>439</ele>
        <time>2015-11-15T08:47:19.000Z</time>
      </trkpt>
      <trkpt lat="47.45461" lon="6.72216">
        <ele>439</ele>
        <time>2015-11-15T08:47:20.000Z</time>
      </trkpt>
      <trkpt lat="47.45461" lon="6.7222">
        <ele>439</ele>
        <time>2015-11-15T08:47:21.000Z</time>
      </trkpt>
      <trkpt lat="47.45462" lon="6.72225">
        <ele>439</ele>
        <time>2015-11-15T08:47:22.070Z</time>
      </trkpt>
      <trkpt lat="47.45461" lon="6.7223">
        <ele>439</ele>
        <time>2015-11-15T08:47:23.000Z</time>
      </trkpt>
      <trkpt lat="47.45461" lon="6.72235">
        <ele>439</ele>
        <time>2015-11-15T08:47:24.000Z</time>
      </trkpt>
      <trkpt lat="47.45461" lon="6.72239">
        <ele>439</ele>
        <time>2015-11-15T08:47:25.000Z</time>
      </trkpt>
      <trkpt lat="47.45461" lon="6.72244">
        <ele>439</ele>
        <time>2015-11-15T08:47:26.000Z</time>
      </trkpt>
      <trkpt lat="47.45461" lon="6.72249">
        <ele>439</ele>
        <time>2015-11-15T08:47:27.000Z</time>
      </trkpt>
      <trkpt lat="47.45462" lon="6.72254">
        <ele>440</ele>
        <time>2015-11-15T08:47:28.000Z</time>
      </trkpt>
      <trkpt lat="47.45462" lon="6.72259">
        <ele>440</ele>
        <time>2015-11-15T08:47:29.000Z</time>
      </trkpt>
      <trkpt lat="47.45463" lon="6.72264">
        <ele>440</ele>
        <time>2015-11-15T08:47:30.000Z</time>
      </trkpt>
      <trkpt lat="47.45464" lon="6.72269">
        <ele>440</ele>
        <time>2015-11-15T08:47:31.000Z</time>
      </trkpt>
      <trkpt lat="47.45465" lon="6.72274">
        <ele>440</ele>
        <time>2015-11-15T08:47:32.000Z</time>
      </trkpt>
      <trkpt lat="47.45465" lon="6.72279">
        <ele>440</ele>
        <time>2015-11-15T08:47:33.000Z</time>
      </trkpt>
      <trkpt lat="47.45466" lon="6.72284">
        <ele>440</ele>
        <time>2015-11-15T08:47:34.000Z</time>
      </trkpt>
      <trkpt lat="47.45466" lon="6.72289">
        <ele>440</ele>
        <time>2015-11-15T08:47:35.000Z</time>
      </trkpt>
      <trkpt lat="47.45466" lon="6.72294">
        <ele>440</ele>
        <time>2015-11-15T08:47:36.000Z</time>
      </trkpt>
      <trkpt lat="47.45467" lon="6.72299">
        <ele>440</ele>
        <time>2015-11-15T08:47:37.000Z</time>
      </trkpt>
      <trkpt lat="47.45468" lon="6.72305">
        <ele>440</ele>
        <time>2015-11-15T08:47:38.000Z</time>
      </trkpt>
      <trkpt lat="47.45469" lon="6.7231">
        <ele>440</ele>
        <time>2015-11-15T08:47:39.000Z</time>
      </trkpt>
      <trkpt lat="47.45469" lon="6.72316">
        <ele>440</ele>
        <time>2015-11-15T08:47:40.000Z</time>
      </trkpt>
      <trkpt lat="47.4547" lon="6.72321">
        <ele>441</ele>
        <time>2015-11-15T08:47:41.000Z</time>
      </trkpt>
      <trkpt lat="47.45471" lon="6.72327">
        <ele>441</ele>
        <time>2015-11-15T08:47:42.000Z</time>
      </trkpt>
      <trkpt lat="47.45472" lon="6.72332">
        <ele>441</ele>
        <time>2015-11-15T08:47:43.000Z</time>
      </trkpt>
      <trkpt lat="47.45473" lon="6.72338">
        <ele>442</ele>
        <time>2015-11-15T08:47:44.000Z</time>
      </trkpt>
      <trkpt lat="47.45473" lon="6.72343">
        <ele>442</ele>
        <time>2015-11-15T08:47:45.000Z</time>
      </trkpt>
      <trkpt lat="47.45474" lon="6.72348">
        <ele>442</ele>
        <time>2015-11-15T08:47:46.000Z</time>
      </trkpt>
      <trkpt lat="47.45474" lon="6.72353">
        <ele>442</ele>
        <time>2015-11-15T08:47:47.000Z</time>
      </trkpt>
      <trkpt lat="47.45475" lon="6.72358">
        <ele>442</ele>
        <time>2015-11-15T08:47:48.000Z</time>
      </trkpt>
      <trkpt lat="47.45475" lon="6.72363">
        <ele>442</ele>
        <time>2015-11-15T08:47:49.000Z</time>
      </trkpt>
      <trkpt lat="47.45476" lon="6.72368">
        <ele>442</ele>
        <time>2015-11-15T08:47:50.000Z</time>
      </trkpt>
      <trkpt lat="47.45477" lon="6.72373">
        <ele>442</ele>
        <time>2015-11-15T08:47:51.000Z</time>
      </trkpt>
      <trkpt lat="47.45477" lon="6.72378">
        <ele>442</ele>
        <time>2015-11-15T08:47:52.000Z</time>
      </trkpt>
      <trkpt lat="47.45478" lon="6.72383">
        <ele>442</ele>
        <time>2015-11-15T08:47:53.000Z</time>
      </trkpt>
      <trkpt lat="47.45478" lon="6.72388">
        <ele>442</ele>
        <time>2015-11-15T08:47:54.000Z</time>
      </trkpt>
      <trkpt lat="47.45479" lon="6.72392">
        <ele>443</ele>
        <time>2015-11-15T08:47:55.000Z</time>
      </trkpt>
      <trkpt lat="47.45479" lon="6.72397">
        <ele>443</ele>
        <time>2015-11-15T08:47:56.000Z</time>
      </trkpt>
      <trkpt lat="47.4548" lon="6.72402">
        <ele>443</ele>
        <time>2015-11-15T08:47:57.000Z</time>
      </trkpt>
      <trkpt lat="47.4548" lon="6.72407">
        <ele>443</ele>
        <time>2015-11-15T08:47:58.000Z</time>
      </trkpt>
      <trkpt lat="47.45481" lon="6.72412">
        <ele>443</ele>
        <time>2015-11-15T08:47:59.000Z</time>
      </trkpt>
      <trkpt lat="47.45481" lon="6.72417">
        <ele>444</ele>
        <time>2015-11-15T08:48:00.000Z</time>
      </trkpt>
      <trkpt lat="47.45482" lon="6.72422">
        <ele>444</ele>
        <time>2015-11-15T08:48:01.000Z</time>
      </trkpt>
      <trkpt lat="47.45482" lon="6.72427">
        <ele>444</ele>
        <time>2015-11-15T08:48:02.000Z</time>
      </trkpt>
      <trkpt lat="47.45483" lon="6.72433">
        <ele>444</ele>
        <time>2015-11-15T08:48:03.000Z</time>
      </trkpt>
      <trkpt lat="47.45484" lon="6.72438">
        <ele>444</ele>
        <time>2015-11-15T08:48:04.000Z</time>
      </trkpt>
      <trkpt lat="47.45484" lon="6.72443">
        <ele>444</ele>
        <time>2015-11-15T08:48:05.000Z</time>
      </trkpt>
      <trkpt lat="47.45484" lon="6.72449">
        <ele>444</ele>
        <time>2015-11-15T08:48:06.000Z</time>
      </trkpt>
      <trkpt lat="47.45485" lon="6.72454">
        <ele>444</ele>
        <time>2015-11-15T08:48:07.000Z</time>
      </trkpt>
      <trkpt lat="47.45486" lon="6.7246">
        <ele>445</ele>
        <time>2015-11-15T08:48:08.000Z</time>
      </trkpt>
      <trkpt lat="47.45487" lon="6.72465">
        <ele>445</ele>
        <time>2015-11-15T08:48:09.000Z</time>
      </trkpt>
      <trkpt lat="47.45487" lon="6.7247">
        <ele>445</ele>
        <time>2015-11-15T08:48:10.000Z</time>
      </trkpt>
      <trkpt lat="47.45488" lon="6.72475">
        <ele>445</ele>
        <time>2015-11-15T08:48:11.000Z</time>
      </trkpt>
      <trkpt lat="47.45489" lon="6.7248">
        <ele>445</ele>
        <time>2015-11-15T08:48:12.000Z</time>
      </trkpt>
      <trkpt lat="47.45489" lon="6.72486">
        <ele>445</ele>
        <time>2015-11-15T08:48:13.000Z</time>
      </trkpt>
      <trkpt lat="47.4549" lon="6.72491">
        <ele>445</ele>
        <time>2015-11-15T08:48:14.000Z</time>
      </trkpt>
      <trkpt lat="47.45491" lon="6.72496">
        <ele>445</ele>
        <time>2015-11-15T08:48:15.000Z</time>
      </trkpt>
      <trkpt lat="47.45491" lon="6.72502">
        <ele>446</ele>
        <time>2015-11-15T08:48:16.000Z</time>
      </trkpt>
      <trkpt lat="47.45492" lon="6.72507">
        <ele>446</ele>
        <time>2015-11-15T08:48:17.000Z</time>
      </trkpt>
      <trkpt lat="47.45492" lon="6.72513">
        <ele>446</ele>
        <time>2015-11-15T08:48:18.000Z</time>
      </trkpt>
      <trkpt lat="47.45493" lon="6.72518">
        <ele>447</ele>
        <time>2015-11-15T08:48:19.000Z</time>
      </trkpt>
      <trkpt lat="47.45493" lon="6.72523">
        <ele>447</ele>
        <time>2015-11-15T08:48:20.000Z</time>
      </trkpt>
      <trkpt lat="47.45494" lon="6.72528">
        <ele>447</ele>
        <time>2015-11-15T08:48:21.000Z</time>
      </trkpt>
      <trkpt lat="47.45495" lon="6.72532">
        <ele>447</ele>
        <time>2015-11-15T08:48:22.000Z</time>
      </trkpt>
      <trkpt lat="47.45496" lon="6.72536">
        <ele>447</ele>
        <time>2015-11-15T08:48:23.000Z</time>
      </trkpt>
      <trkpt lat="47.45496" lon="6.7254">
        <ele>447</ele>
        <time>2015-11-15T08:48:24.000Z</time>
      </trkpt>
      <trkpt lat="47.45497" lon="6.72544">
        <ele>448</ele>
        <time>2015-11-15T08:48:25.000Z</time>
      </trkpt>
      <trkpt lat="47.45498" lon="6.72547">
        <ele>448</ele>
        <time>2015-11-15T08:48:26.000Z</time>
      </trkpt>
      <trkpt lat="47.45499" lon="6.72554">
        <ele>448</ele>
        <time>2015-11-15T08:48:28.000Z</time>
      </trkpt>
      <trkpt lat="47.45499" lon="6.72556">
        <ele>448</ele>
        <time>2015-11-15T08:48:29.000Z</time>
      </trkpt>
      <trkpt lat="47.45498" lon="6.72562">
        <ele>448</ele>
        <time>2015-11-15T08:48:52.000Z</time>
      </trkpt>
      <trkpt lat="47.45498" lon="6.72563">
        <ele>448</ele>
        <time>2015-11-15T08:48:53.000Z</time>
      </trkpt>
      <trkpt lat="47.45499" lon="6.72568">
        <ele>448</ele>
        <time>2015-11-15T08:48:56.000Z</time>
      </trkpt>
      <trkpt lat="47.45499" lon="6.7257">
        <ele>448</ele>
        <time>2015-11-15T08:48:57.000Z</time>
      </trkpt>
      <trkpt lat="47.455" lon="6.72576">
        <ele>448</ele>
        <time>2015-11-15T08:48:59.000Z</time>
      </trkpt>
      <trkpt lat="47.45501" lon="6.72579">
        <ele>448</ele>
        <time>2015-11-15T08:49:00.000Z</time>
      </trkpt>
      <trkpt lat="47.45501" lon="6.72583">
        <ele>449</ele>
        <time>2015-11-15T08:49:01.000Z</time>
      </trkpt>
      <trkpt lat="47.45501" lon="6.72587">
        <ele>449</ele>
        <time>2015-11-15T08:49:02.000Z</time>
      </trkpt>
      <trkpt lat="47.45502" lon="6.72591">
        <ele>449</ele>
        <time>2015-11-15T08:49:03.000Z</time>
      </trkpt>
      <trkpt lat="47.45502" lon="6.72595">
        <ele>448</ele>
        <time>2015-11-15T08:49:04.000Z</time>
      </trkpt>
      <trkpt lat="47.45502" lon="6.726">
        <ele>448</ele>
        <time>2015-11-15T08:49:05.000Z</time>
      </trkpt>
      <trkpt lat="47.45503" lon="6.72605">
        <ele>448</ele>
        <time>2015-11-15T08:49:06.000Z</time>
      </trkpt>
      <trkpt lat="47.45503" lon="6.7261">
        <ele>448</ele>
        <time>2015-11-15T08:49:07.000Z</time>
      </trkpt>
      <trkpt lat="47.45504" lon="6.72615">
        <ele>448</ele>
        <time>2015-11-15T08:49:08.000Z</time>
      </trkpt>
      <trkpt lat="47.45504" lon="6.7262">
        <ele>448</ele>
        <time>2015-11-15T08:49:09.000Z</time>
      </trkpt>
      <trkpt lat="47.45505" lon="6.72625">
        <ele>448</ele>
        <time>2015-11-15T08:49:10.000Z</time>
      </trkpt>
      <trkpt lat="47.45506" lon="6.72631">
        <ele>448</ele>
        <time>2015-11-15T08:49:11.000Z</time>
      </trkpt>
      <trkpt lat="47.45506" lon="6.72636">
        <ele>448</ele>
        <time>2015-11-15T08:49:12.000Z</time>
      </trkpt>
      <trkpt lat="47.45507" lon="6.72641">
        <ele>449</ele>
        <time>2015-11-15T08:49:13.000Z</time>
      </trkpt>
      <trkpt lat="47.45508" lon="6.72647">
        <ele>449</ele>
        <time>2015-11-15T08:49:14.000Z</time>
      </trkpt>
      <trkpt lat="47.45509" lon="6.72652">
        <ele>449</ele>
        <time>2015-11-15T08:49:15.000Z</time>
      </trkpt>
      <trkpt lat="47.45509" lon="6.72658">
        <ele>450</ele>
        <time>2015-11-15T08:49:16.000Z</time>
      </trkpt>
      <trkpt lat="47.4551" lon="6.72664">
        <ele>450</ele>
        <time>2015-11-15T08:49:17.000Z</time>
      </trkpt>
      <trkpt lat="47.4551" lon="6.7267">
        <ele>451</ele>
        <time>2015-11-15T08:49:18.000Z</time>
      </trkpt>
      <trkpt lat="47.45511" lon="6.72676">
        <ele>451</ele>
        <time>2015-11-15T08:49:19.000Z</time>
      </trkpt>
      <trkpt lat="47.45511" lon="6.72682">
        <ele>451</ele>
        <time>2015-11-15T08:49:20.000Z</time>
      </trkpt>
      <trkpt lat="47.45512" lon="6.72688">
        <ele>451</ele>
        <time>2015-11-15T08:49:21.000Z</time>
      </trkpt>
      <trkpt lat="47.45511" lon="6.72694">
        <ele>451</ele>
        <time>2015-11-15T08:49:22.000Z</time>
      </trkpt>
      <trkpt lat="47.45509" lon="6.72699">
        <ele>451</ele>
        <time>2015-11-15T08:49:23.000Z</time>
      </trkpt>
      <trkpt lat="47.45507" lon="6.72704">
        <ele>451</ele>
        <time>2015-11-15T08:49:24.000Z</time>
      </trkpt>
      <trkpt lat="47.45504" lon="6.72707">
        <ele>451</ele>
        <time>2015-11-15T08:49:25.000Z</time>
      </trkpt>
      <trkpt lat="47.455" lon="6.72708">
        <ele>454</ele>
        <time>2015-11-15T08:49:26.000Z</time>
      </trkpt>
      <trkpt lat="47.45496" lon="6.72709">
        <ele>454</ele>
        <time>2015-11-15T08:49:27.000Z</time>
      </trkpt>
      <trkpt lat="47.45492" lon="6.72709">
        <ele>455</ele>
        <time>2015-11-15T08:49:28.000Z</time>
      </trkpt>
      <trkpt lat="47.45488" lon="6.7271">
        <ele>455</ele>
        <time>2015-11-15T08:49:29.000Z</time>
      </trkpt>
      <trkpt lat="47.45484" lon="6.72711">
        <ele>455</ele>
        <time>2015-11-15T08:49:30.000Z</time>
      </trkpt>
      <trkpt lat="47.4548" lon="6.72711">
        <ele>455</ele>
        <time>2015-11-15T08:49:31.000Z</time>
      </trkpt>
      <trkpt lat="47.45477" lon="6.72712">
        <ele>455</ele>
        <time>2015-11-15T08:49:32.000Z</time>
      </trkpt>
      <trkpt lat="47.45473" lon="6.72713">
        <ele>455</ele>
        <time>2015-11-15T08:49:33.000Z</time>
      </trkpt>
      <trkpt lat="47.45469" lon="6.72714">
        <ele>455</ele>
        <time>2015-11-15T08:49:34.000Z</time>
      </trkpt>
      <trkpt lat="47.45466" lon="6.72714">
        <ele>455</ele>
        <time>2015-11-15T08:49:35.000Z</time>
      </trkpt>
      <trkpt lat="47.45462" lon="6.72715">
        <ele>455</ele>
        <time>2015-11-15T08:49:36.000Z</time>
      </trkpt>
      <trkpt lat="47.45459" lon="6.72717">
        <ele>455</ele>
        <time>2015-11-15T08:49:37.000Z</time>
      </trkpt>
      <trkpt lat="47.45456" lon="6.72718">
        <ele>455</ele>
        <time>2015-11-15T08:49:38.000Z</time>
      </trkpt>
      <trkpt lat="47.45453" lon="6.7272">
        <ele>455</ele>
        <time>2015-11-15T08:49:39.000Z</time>
      </trkpt>
      <trkpt lat="47.45448" lon="6.72727">
        <ele>456</ele>
        <time>2015-11-15T08:49:41.000Z</time>
      </trkpt>
      <trkpt lat="47.45447" lon="6.72731">
        <ele>456</ele>
        <time>2015-11-15T08:49:42.000Z</time>
      </trkpt>
      <trkpt lat="47.45445" lon="6.72735">
        <ele>456</ele>
        <time>2015-11-15T08:49:43.000Z</time>
      </trkpt>
      <trkpt lat="47.45444" lon="6.7274">
        <ele>456</ele>
        <time>2015-11-15T08:49:44.000Z</time>
      </trkpt>
      <trkpt lat="47.45443" lon="6.72744">
        <ele>456</ele>
        <time>2015-11-15T08:49:45.000Z</time>
      </trkpt>
      <trkpt lat="47.45442" lon="6.72748">
        <ele>457</ele>
        <time>2015-11-15T08:49:46.000Z</time>
      </trkpt>
      <trkpt lat="47.45441" lon="6.72753">
        <ele>461</ele>
        <time>2015-11-15T08:49:47.000Z</time>
      </trkpt>
      <trkpt lat="47.4544" lon="6.72756">
        <ele>461</ele>
        <time>2015-11-15T08:49:48.000Z</time>
      </trkpt>
      <trkpt lat="47.4544" lon="6.72759">
        <ele>461</ele>
        <time>2015-11-15T08:49:49.000Z</time>
      </trkpt>
      <trkpt lat="47.45441" lon="6.72765">
        <ele>461</ele>
        <time>2015-11-15T08:49:53.000Z</time>
      </trkpt>
      <trkpt lat="47.45442" lon="6.72767">
        <ele>462</ele>
        <time>2015-11-15T08:49:54.000Z</time>
      </trkpt>
      <trkpt lat="47.45445" lon="6.72771">
        <ele>462</ele>
        <time>2015-11-15T08:49:57.000Z</time>
      </trkpt>
      <trkpt lat="47.45446" lon="6.72772">
        <ele>462</ele>
        <time>2015-11-15T08:49:58.000Z</time>
      </trkpt>
      <trkpt lat="47.45448" lon="6.72777">
        <ele>462</ele>
        <time>2015-11-15T08:50:04.000Z</time>
      </trkpt>
      <trkpt lat="47.45448" lon="6.72778">
        <ele>462</ele>
        <time>2015-11-15T08:50:05.000Z</time>
      </trkpt>
      <trkpt lat="47.45451" lon="6.72782">
        <ele>462</ele>
        <time>2015-11-15T08:50:08.000Z</time>
      </trkpt>
      <trkpt lat="47.45453" lon="6.72785">
        <ele>463</ele>
        <time>2015-11-15T08:50:09.000Z</time>
      </trkpt>
      <trkpt lat="47.45454" lon="6.72788">
        <ele>463</ele>
        <time>2015-11-15T08:50:10.000Z</time>
      </trkpt>
      <trkpt lat="47.45455" lon="6.72792">
        <ele>463</ele>
        <time>2015-11-15T08:50:11.000Z</time>
      </trkpt>
      <trkpt lat="47.45457" lon="6.72796">
        <ele>463</ele>
        <time>2015-11-15T08:50:12.000Z</time>
      </trkpt>
      <trkpt lat="47.45458" lon="6.72801">
        <ele>464</ele>
        <time>2015-11-15T08:50:13.000Z</time>
      </trkpt>
      <trkpt lat="47.45459" lon="6.72805">
        <ele>464</ele>
        <time>2015-11-15T08:50:14.000Z</time>
      </trkpt>
      <trkpt lat="47.4546" lon="6.7281">
        <ele>464</ele>
        <time>2015-11-15T08:50:15.000Z</time>
      </trkpt>
      <trkpt lat="47.45462" lon="6.72815">
        <ele>464</ele>
        <time>2015-11-15T08:50:16.000Z</time>
      </trkpt>
      <trkpt lat="47.45463" lon="6.72819">
        <ele>465</ele>
        <time>2015-11-15T08:50:17.000Z</time>
      </trkpt>
      <trkpt lat="47.45464" lon="6.72824">
        <ele>465</ele>
        <time>2015-11-15T08:50:18.000Z</time>
      </trkpt>
      <trkpt lat="47.45465" lon="6.72829">
        <ele>465</ele>
        <time>2015-11-15T08:50:19.000Z</time>
      </trkpt>
      <trkpt lat="47.45467" lon="6.72834">
        <ele>469</ele>
        <time>2015-11-15T08:50:20.000Z</time>
      </trkpt>
      <trkpt lat="47.45468" lon="6.72839">
        <ele>469</ele>
        <time>2015-11-15T08:50:21.000Z</time>
      </trkpt>
      <trkpt lat="47.4547" lon="6.72844">
        <ele>469</ele>
        <time>2015-11-15T08:50:22.000Z</time>
      </trkpt>
      <trkpt lat="47.45472" lon="6.72849">
        <ele>469</ele>
        <time>2015-11-15T08:50:23.000Z</time>
      </trkpt>
      <trkpt lat="47.45475" lon="6.72854">
        <ele>469</ele>
        <time>2015-11-15T08:50:24.000Z</time>
      </trkpt>
      <trkpt lat="47.45477" lon="6.7286">
        <ele>469</ele>
        <time>2015-11-15T08:50:25.000Z</time>
      </trkpt>
      <trkpt lat="47.4548" lon="6.72865">
        <ele>469</ele>
        <time>2015-11-15T08:50:26.000Z</time>
      </trkpt>
      <trkpt lat="47.45482" lon="6.72871">
        <ele>469</ele>
        <time>2015-11-15T08:50:27.000Z</time>
      </trkpt>
      <trkpt lat="47.45485" lon="6.72875">
        <ele>469</ele>
        <time>2015-11-15T08:50:28.000Z</time>
      </trkpt>
      <trkpt lat="47.45487" lon="6.72879">
        <ele>469</ele>
        <time>2015-11-15T08:50:29.000Z</time>
      </trkpt>
      <trkpt lat="47.45489" lon="6.72882">
        <ele>469</ele>
        <time>2015-11-15T08:50:30.000Z</time>
      </trkpt>
      <trkpt lat="47.45492" lon="6.72886">
        <ele>470</ele>
        <time>2015-11-15T08:50:32.000Z</time>
      </trkpt>
      <trkpt lat="47.45494" lon="6.72887">
        <ele>470</ele>
        <time>2015-11-15T08:50:33.000Z</time>
      </trkpt>
      <trkpt lat="47.45496" lon="6.72888">
        <ele>470</ele>
        <time>2015-11-15T08:50:34.000Z</time>
      </trkpt>
      <trkpt lat="47.45498" lon="6.72889">
        <ele>470</ele>
        <time>2015-11-15T08:50:35.000Z</time>
      </trkpt>
      <trkpt lat="47.45501" lon="6.7289">
        <ele>468</ele>
        <time>2015-11-15T08:50:36.000Z</time>
      </trkpt>
      <trkpt lat="47.45503" lon="6.72891">
        <ele>468</ele>
        <time>2015-11-15T08:50:37.000Z</time>
      </trkpt>
      <trkpt lat="47.45506" lon="6.72895">
        <ele>468</ele>
        <time>2015-11-15T08:50:39.000Z</time>
      </trkpt>
      <trkpt lat="47.45508" lon="6.72897">
        <ele>468</ele>
        <time>2015-11-15T08:50:40.000Z</time>
      </trkpt>
      <trkpt lat="47.45509" lon="6.729">
        <ele>468</ele>
        <time>2015-11-15T08:50:41.000Z</time>
      </trkpt>
      <trkpt lat="47.45511" lon="6.72902">
        <ele>468</ele>
        <time>2015-11-15T08:50:42.000Z</time>
      </trkpt>
      <trkpt lat="47.45513" lon="6.72905">
        <ele>468</ele>
        <time>2015-11-15T08:50:43.000Z</time>
      </trkpt>
      <trkpt lat="47.45514" lon="6.72909">
        <ele>468</ele>
        <time>2015-11-15T08:50:44.000Z</time>
      </trkpt>
      <trkpt lat="47.45516" lon="6.72914">
        <ele>468</ele>
        <time>2015-11-15T08:50:45.000Z</time>
      </trkpt>
      <trkpt lat="47.45518" lon="6.72918">
        <ele>470</ele>
        <time>2015-11-15T08:50:46.000Z</time>
      </trkpt>
      <trkpt lat="47.4552" lon="6.72922">
        <ele>469</ele>
        <time>2015-11-15T08:50:47.000Z</time>
      </trkpt>
      <trkpt lat="47.45523" lon="6.72926">
        <ele>469</ele>
        <time>2015-11-15T08:50:48.000Z</time>
      </trkpt>
      <trkpt lat="47.45525" lon="6.72929">
        <ele>469</ele>
        <time>2015-11-15T08:50:49.000Z</time>
      </trkpt>
      <trkpt lat="47.45528" lon="6.72933">
        <ele>469</ele>
        <time>2015-11-15T08:50:50.000Z</time>
      </trkpt>
      <trkpt lat="47.4553" lon="6.72936">
        <ele>469</ele>
        <time>2015-11-15T08:50:51.000Z</time>
      </trkpt>
      <trkpt lat="47.45532" lon="6.7294">
        <ele>469</ele>
        <time>2015-11-15T08:50:52.000Z</time>
      </trkpt>
      <trkpt lat="47.45534" lon="6.72944">
        <ele>469</ele>
        <time>2015-11-15T08:50:53.000Z</time>
      </trkpt>
      <trkpt lat="47.45535" lon="6.72948">
        <ele>469</ele>
        <time>2015-11-15T08:50:54.000Z</time>
      </trkpt>
      <trkpt lat="47.45537" lon="6.72953">
        <ele>469</ele>
        <time>2015-11-15T08:50:55.000Z</time>
      </trkpt>
      <trkpt lat="47.45539" lon="6.72957">
        <ele>469</ele>
        <time>2015-11-15T08:50:56.000Z</time>
      </trkpt>
      <trkpt lat="47.45542" lon="6.72961">
        <ele>469</ele>
        <time>2015-11-15T08:50:57.000Z</time>
      </trkpt>
      <trkpt lat="47.45545" lon="6.72965">
        <ele>468</ele>
        <time>2015-11-15T08:50:58.000Z</time>
      </trkpt>
      <trkpt lat="47.45548" lon="6.72969">
        <ele>468</ele>
        <time>2015-11-15T08:50:59.000Z</time>
      </trkpt>
      <trkpt lat="47.4555" lon="6.72973">
        <ele>468</ele>
        <time>2015-11-15T08:51:00.000Z</time>
      </trkpt>
      <trkpt lat="47.45553" lon="6.72978">
        <ele>468</ele>
        <time>2015-11-15T08:51:01.000Z</time>
      </trkpt>
      <trkpt lat="47.45555" lon="6.72983">
        <ele>468</ele>
        <time>2015-11-15T08:51:02.000Z</time>
      </trkpt>
      <trkpt lat="47.45558" lon="6.72989">
        <ele>468</ele>
        <time>2015-11-15T08:51:03.000Z</time>
      </trkpt>
      <trkpt lat="47.4556" lon="6.72995">
        <ele>468</ele>
        <time>2015-11-15T08:51:04.000Z</time>
      </trkpt>
      <trkpt lat="47.45563" lon="6.73004">
        <ele>468</ele>
        <time>2015-11-15T08:51:05.000Z</time>
      </trkpt>
      <trkpt lat="47.45571" lon="6.73037">
        <ele>469</ele>
        <time>2015-11-15T08:51:06.000Z</time>
      </trkpt>
      <trkpt lat="47.45572" lon="6.73044">
        <ele>469</ele>
        <time>2015-11-15T08:51:07.000Z</time>
      </trkpt>
      <trkpt lat="47.45573" lon="6.73049">
        <ele>469</ele>
        <time>2015-11-15T08:51:08.000Z</time>
      </trkpt>
      <trkpt lat="47.45574" lon="6.73053">
        <ele>469</ele>
        <time>2015-11-15T08:51:09.000Z</time>
      </trkpt>
      <trkpt lat="47.45574" lon="6.73058">
        <ele>469</ele>
        <time>2015-11-15T08:51:10.000Z</time>
      </trkpt>
      <trkpt lat="47.45575" lon="6.73062">
        <ele>469</ele>
        <time>2015-11-15T08:51:11.000Z</time>
      </trkpt>
      <trkpt lat="47.45576" lon="6.73066">
        <ele>469</ele>
        <time>2015-11-15T08:51:12.000Z</time>
      </trkpt>
      <trkpt lat="47.45578" lon="6.7307">
        <ele>469</ele>
        <time>2015-11-15T08:51:13.000Z</time>
      </trkpt>
      <trkpt lat="47.45579" lon="6.73074">
        <ele>469</ele>
        <time>2015-11-15T08:51:14.000Z</time>
      </trkpt>
      <trkpt lat="47.4558" lon="6.73079">
        <ele>470</ele>
        <time>2015-11-15T08:51:15.000Z</time>
      </trkpt>
      <trkpt lat="47.45581" lon="6.73082">
        <ele>470</ele>
        <time>2015-11-15T08:51:16.000Z</time>
      </trkpt>
      <trkpt lat="47.45583" lon="6.73086">
        <ele>470</ele>
        <time>2015-11-15T08:51:17.000Z</time>
      </trkpt>
      <trkpt lat="47.45584" lon="6.73088">
        <ele>470</ele>
        <time>2015-11-15T08:51:18.000Z</time>
      </trkpt>
      <trkpt lat="47.45586" lon="6.73091">
        <ele>470</ele>
        <time>2015-11-15T08:51:19.000Z</time>
      </trkpt>
      <trkpt lat="47.45587" lon="6.73094">
        <ele>470</ele>
        <time>2015-11-15T08:51:20.000Z</time>
      </trkpt>
      <trkpt lat="47.45589" lon="6.73096">
        <ele>469</ele>
        <time>2015-11-15T08:51:21.000Z</time>
      </trkpt>
      <trkpt lat="47.45591" lon="6.73098">
        <ele>469</ele>
        <time>2015-11-15T08:51:22.000Z</time>
      </trkpt>
      <trkpt lat="47.45593" lon="6.73101">
        <ele>469</ele>
        <time>2015-11-15T08:51:23.000Z</time>
      </trkpt>
      <trkpt lat="47.45594" lon="6.73105">
        <ele>469</ele>
        <time>2015-11-15T08:51:24.000Z</time>
      </trkpt>
      <trkpt lat="47.45596" lon="6.7311">
        <ele>469</ele>
        <time>2015-11-15T08:51:25.000Z</time>
      </trkpt>
      <trkpt lat="47.45597" lon="6.73116">
        <ele>469</ele>
        <time>2015-11-15T08:51:26.000Z</time>
      </trkpt>
      <trkpt lat="47.45598" lon="6.73122">
        <ele>469</ele>
        <time>2015-11-15T08:51:27.000Z</time>
      </trkpt>
      <trkpt lat="47.45599" lon="6.7313">
        <ele>469</ele>
        <time>2015-11-15T08:51:28.000Z</time>
      </trkpt>
      <trkpt lat="47.456" lon="6.73138">
        <ele>469</ele>
        <time>2015-11-15T08:51:29.000Z</time>
      </trkpt>
      <trkpt lat="47.45601" lon="6.73146">
        <ele>470</ele>
        <time>2015-11-15T08:51:30.000Z</time>
      </trkpt>
      <trkpt lat="47.45602" lon="6.73153">
        <ele>470</ele>
        <time>2015-11-15T08:51:31.000Z</time>
      </trkpt>
      <trkpt lat="47.45603" lon="6.73158">
        <ele>470</ele>
        <time>2015-11-15T08:51:32.000Z</time>
      </trkpt>
      <trkpt lat="47.45605" lon="6.73161">
        <ele>470</ele>
        <time>2015-11-15T08:51:33.000Z</time>
      </trkpt>
      <trkpt lat="47.45606" lon="6.73167">
        <ele>469</ele>
        <time>2015-11-15T08:51:35.000Z</time>
      </trkpt>
      <trkpt lat="47.45607" lon="6.73171">
        <ele>469</ele>
        <time>2015-11-15T08:51:36.000Z</time>
      </trkpt>
      <trkpt lat="47.45607" lon="6.73175">
        <ele>469</ele>
        <time>2015-11-15T08:51:37.000Z</time>
      </trkpt>
      <trkpt lat="47.45608" lon="6.73181">
        <ele>469</ele>
        <time>2015-11-15T08:51:38.000Z</time>
      </trkpt>
      <trkpt lat="47.45608" lon="6.73188">
        <ele>469</ele>
        <time>2015-11-15T08:51:39.000Z</time>
      </trkpt>
      <trkpt lat="47.45609" lon="6.73195">
        <ele>469</ele>
        <time>2015-11-15T08:51:40.000Z</time>
      </trkpt>
      <trkpt lat="47.45609" lon="6.73203">
        <ele>469</ele>
        <time>2015-11-15T08:51:41.000Z</time>
      </trkpt>
      <trkpt lat="47.4561" lon="6.7321">
        <ele>468</ele>
        <time>2015-11-15T08:51:42.000Z</time>
      </trkpt>
      <trkpt lat="47.45605" lon="6.73226">
        <ele>468</ele>
        <time>2015-11-15T08:51:43.000Z</time>
      </trkpt>
      <trkpt lat="47.45601" lon="6.73235">
        <ele>468</ele>
        <time>2015-11-15T08:51:44.000Z</time>
      </trkpt>
      <trkpt lat="47.45597" lon="6.73243">
        <ele>468</ele>
        <time>2015-11-15T08:51:45.000Z</time>
      </trkpt>
      <trkpt lat="47.45594" lon="6.7325">
        <ele>467</ele>
        <time>2015-11-15T08:51:46.000Z</time>
      </trkpt>
      <trkpt lat="47.45589" lon="6.73259">
        <ele>466</ele>
        <time>2015-11-15T08:51:47.000Z</time>
      </trkpt>
      <trkpt lat="47.45584" lon="6.73269">
        <ele>465</ele>
        <time>2015-11-15T08:51:48.000Z</time>
      </trkpt>
      <trkpt lat="47.45578" lon="6.73276">
        <ele>464</ele>
        <time>2015-11-15T08:51:49.000Z</time>
      </trkpt>
      <trkpt lat="47.45572" lon="6.73282">
        <ele>464</ele>
        <time>2015-11-15T08:51:50.000Z</time>
      </trkpt>
      <trkpt lat="47.45566" lon="6.73288">
        <ele>463</ele>
        <time>2015-11-15T08:51:51.000Z</time>
      </trkpt>
      <trkpt lat="47.45555" lon="6.7329">
        <ele>463</ele>
        <time>2015-11-15T08:51:52.000Z</time>
      </trkpt>
      <trkpt lat="47.45547" lon="6.73293">
        <ele>463</ele>
        <time>2015-11-15T08:51:53.000Z</time>
      </trkpt>
      <trkpt lat="47.45538" lon="6.73296">
        <ele>463</ele>
        <time>2015-11-15T08:51:54.000Z</time>
      </trkpt>
      <trkpt lat="47.4553" lon="6.73299">
        <ele>463</ele>
        <time>2015-11-15T08:51:55.000Z</time>
      </trkpt>
      <trkpt lat="47.45526" lon="6.73307">
        <ele>463</ele>
        <time>2015-11-15T08:51:56.000Z</time>
      </trkpt>
      <trkpt lat="47.45522" lon="6.73315">
        <ele>463</ele>
        <time>2015-11-15T08:51:57.000Z</time>
      </trkpt>
      <trkpt lat="47.45518" lon="6.73322">
        <ele>463</ele>
        <time>2015-11-15T08:51:58.000Z</time>
      </trkpt>
      <trkpt lat="47.45511" lon="6.73329">
        <ele>463</ele>
        <time>2015-11-15T08:51:59.000Z</time>
      </trkpt>
      <trkpt lat="47.45505" lon="6.73334">
        <ele>463</ele>
        <time>2015-11-15T08:52:00.000Z</time>
      </trkpt>
      <trkpt lat="47.45498" lon="6.73336">
        <ele>463</ele>
        <time>2015-11-15T08:52:01.000Z</time>
      </trkpt>
      <trkpt lat="47.45493" lon="6.73339">
        <ele>463</ele>
        <time>2015-11-15T08:52:02.000Z</time>
      </trkpt>
      <trkpt lat="47.45488" lon="6.73342">
        <ele>463</ele>
        <time>2015-11-15T08:52:03.000Z</time>
      </trkpt>
      <trkpt lat="47.45484" lon="6.73344">
        <ele>464</ele>
        <time>2015-11-15T08:52:04.000Z</time>
      </trkpt>
      <trkpt lat="47.4548" lon="6.73349">
        <ele>464</ele>
        <time>2015-11-15T08:52:05.000Z</time>
      </trkpt>
      <trkpt lat="47.45477" lon="6.73353">
        <ele>464</ele>
        <time>2015-11-15T08:52:06.000Z</time>
      </trkpt>
      <trkpt lat="47.45475" lon="6.73359">
        <ele>464</ele>
        <time>2015-11-15T08:52:07.000Z</time>
      </trkpt>
      <trkpt lat="47.45473" lon="6.73365">
        <ele>464</ele>
        <time>2015-11-15T08:52:08.000Z</time>
      </trkpt>
      <trkpt lat="47.45471" lon="6.7337">
        <ele>464</ele>
        <time>2015-11-15T08:52:09.000Z</time>
      </trkpt>
      <trkpt lat="47.4547" lon="6.73377">
        <ele>464</ele>
        <time>2015-11-15T08:52:10.000Z</time>
      </trkpt>
      <trkpt lat="47.45467" lon="6.73381">
        <ele>464</ele>
        <time>2015-11-15T08:52:11.000Z</time>
      </trkpt>
      <trkpt lat="47.45466" lon="6.73394">
        <ele>464</ele>
        <time>2015-11-15T08:52:12.000Z</time>
      </trkpt>
      <trkpt lat="47.45465" lon="6.73402">
        <ele>464</ele>
        <time>2015-11-15T08:52:13.000Z</time>
      </trkpt>
      <trkpt lat="47.45464" lon="6.73408">
        <ele>464</ele>
        <time>2015-11-15T08:52:14.000Z</time>
      </trkpt>
      <trkpt lat="47.45463" lon="6.73413">
        <ele>464</ele>
        <time>2015-11-15T08:52:15.000Z</time>
      </trkpt>
      <trkpt lat="47.45464" lon="6.73418">
        <ele>465</ele>
        <time>2015-11-15T08:52:16.000Z</time>
      </trkpt>
      <trkpt lat="47.45464" lon="6.73425">
        <ele>465</ele>
        <time>2015-11-15T08:52:17.000Z</time>
      </trkpt>
      <trkpt lat="47.45464" lon="6.73431">
        <ele>465</ele>
        <time>2015-11-15T08:52:18.000Z</time>
      </trkpt>
      <trkpt lat="47.45464" lon="6.73438">
        <ele>465</ele>
        <time>2015-11-15T08:52:19.000Z</time>
      </trkpt>
      <trkpt lat="47.45464" lon="6.73445">
        <ele>465</ele>
        <time>2015-11-15T08:52:20.000Z</time>
      </trkpt>
      <trkpt lat="47.45463" lon="6.73451">
        <ele>465</ele>
        <time>2015-11-15T08:52:21.000Z</time>
      </trkpt>
      <trkpt lat="47.45464" lon="6.73458">
        <ele>465</ele>
        <time>2015-11-15T08:52:22.000Z</time>
      </trkpt>
      <trkpt lat="47.45463" lon="6.73465">
        <ele>465</ele>
        <time>2015-11-15T08:52:23.000Z</time>
      </trkpt>
      <trkpt lat="47.45463" lon="6.73472">
        <ele>465</ele>
        <time>2015-11-15T08:52:24.000Z</time>
      </trkpt>
      <trkpt lat="47.45463" lon="6.73478">
        <ele>465</ele>
        <time>2015-11-15T08:52:25.000Z</time>
      </trkpt>
      <trkpt lat="47.45463" lon="6.73485">
        <ele>465</ele>
        <time>2015-11-15T08:52:26.000Z</time>
      </trkpt>
      <trkpt lat="47.45465" lon="6.73496">
        <ele>465</ele>
        <time>2015-11-15T08:52:27.000Z</time>
      </trkpt>
      <trkpt lat="47.45465" lon="6.73504">
        <ele>464</ele>
        <time>2015-11-15T08:52:28.000Z</time>
      </trkpt>
      <trkpt lat="47.45467" lon="6.73513">
        <ele>465</ele>
        <time>2015-11-15T08:52:29.000Z</time>
      </trkpt>
      <trkpt lat="47.45466" lon="6.73522">
        <ele>464</ele>
        <time>2015-11-15T08:52:30.000Z</time>
      </trkpt>
      <trkpt lat="47.45467" lon="6.73531">
        <ele>464</ele>
        <time>2015-11-15T08:52:31.000Z</time>
      </trkpt>
      <trkpt lat="47.45468" lon="6.73543">
        <ele>464</ele>
        <time>2015-11-15T08:52:32.000Z</time>
      </trkpt>
      <trkpt lat="47.45469" lon="6.73553">
        <ele>464</ele>
        <time>2015-11-15T08:52:33.000Z</time>
      </trkpt>
      <trkpt lat="47.45472" lon="6.7356">
        <ele>464</ele>
        <time>2015-11-15T08:52:34.000Z</time>
      </trkpt>
      <trkpt lat="47.45473" lon="6.73566">
        <ele>464</ele>
        <time>2015-11-15T08:52:35.000Z</time>
      </trkpt>
      <trkpt lat="47.45474" lon="6.73571">
        <ele>464</ele>
        <time>2015-11-15T08:52:36.000Z</time>
      </trkpt>
      <trkpt lat="47.45476" lon="6.73575">
        <ele>465</ele>
        <time>2015-11-15T08:52:38.000Z</time>
      </trkpt>
      <trkpt lat="47.45478" lon="6.73577">
        <ele>465</ele>
        <time>2015-11-15T08:52:39.000Z</time>
      </trkpt>
      <trkpt lat="47.45481" lon="6.73578">
        <ele>465</ele>
        <time>2015-11-15T08:52:40.000Z</time>
      </trkpt>
      <trkpt lat="47.45485" lon="6.73581">
        <ele>465</ele>
        <time>2015-11-15T08:52:41.000Z</time>
      </trkpt>
      <trkpt lat="47.45487" lon="6.73587">
        <ele>464</ele>
        <time>2015-11-15T08:52:43.000Z</time>
      </trkpt>
      <trkpt lat="47.45489" lon="6.73589">
        <ele>464</ele>
        <time>2015-11-15T08:52:44.000Z</time>
      </trkpt>
      <trkpt lat="47.45491" lon="6.73593">
        <ele>464</ele>
        <time>2015-11-15T08:52:45.000Z</time>
      </trkpt>
      <trkpt lat="47.45494" lon="6.73596">
        <ele>464</ele>
        <time>2015-11-15T08:52:46.000Z</time>
      </trkpt>
      <trkpt lat="47.45496" lon="6.73599">
        <ele>464</ele>
        <time>2015-11-15T08:52:47.000Z</time>
      </trkpt>
      <trkpt lat="47.45499" lon="6.73602">
        <ele>464</ele>
        <time>2015-11-15T08:52:48.000Z</time>
      </trkpt>
      <trkpt lat="47.45501" lon="6.73604">
        <ele>463</ele>
        <time>2015-11-15T08:52:49.000Z</time>
      </trkpt>
      <trkpt lat="47.45503" lon="6.73607">
        <ele>463</ele>
        <time>2015-11-15T08:52:50.000Z</time>
      </trkpt>
      <trkpt lat="47.45505" lon="6.7361">
        <ele>463</ele>
        <time>2015-11-15T08:52:51.000Z</time>
      </trkpt>
      <trkpt lat="47.45508" lon="6.73613">
        <ele>463</ele>
        <time>2015-11-15T08:52:52.000Z</time>
      </trkpt>
      <trkpt lat="47.4551" lon="6.73617">
        <ele>462</ele>
        <time>2015-11-15T08:52:53.000Z</time>
      </trkpt>
      <trkpt lat="47.45513" lon="6.7362">
        <ele>462</ele>
        <time>2015-11-15T08:52:54.000Z</time>
      </trkpt>
      <trkpt lat="47.45516" lon="6.73622">
        <ele>462</ele>
        <time>2015-11-15T08:52:55.000Z</time>
      </trkpt>
      <trkpt lat="47.45519" lon="6.73625">
        <ele>462</ele>
        <time>2015-11-15T08:52:56.000Z</time>
      </trkpt>
      <trkpt lat="47.45522" lon="6.73627">
        <ele>462</ele>
        <time>2015-11-15T08:52:57.000Z</time>
      </trkpt>
      <trkpt lat="47.45526" lon="6.7363">
        <ele>462</ele>
        <time>2015-11-15T08:52:58.000Z</time>
      </trkpt>
      <trkpt lat="47.4553" lon="6.73632">
        <ele>462</ele>
        <time>2015-11-15T08:52:59.000Z</time>
      </trkpt>
      <trkpt lat="47.45534" lon="6.73635">
        <ele>461</ele>
        <time>2015-11-15T08:53:00.000Z</time>
      </trkpt>
      <trkpt lat="47.45539" lon="6.73638">
        <ele>461</ele>
        <time>2015-11-15T08:53:01.000Z</time>
      </trkpt>
      <trkpt lat="47.45544" lon="6.7364">
        <ele>461</ele>
        <time>2015-11-15T08:53:02.000Z</time>
      </trkpt>
      <trkpt lat="47.45549" lon="6.73642">
        <ele>461</ele>
        <time>2015-11-15T08:53:03.000Z</time>
      </trkpt>
      <trkpt lat="47.45553" lon="6.73644">
        <ele>461</ele>
        <time>2015-11-15T08:53:04.000Z</time>
      </trkpt>
      <trkpt lat="47.45557" lon="6.73645">
        <ele>461</ele>
        <time>2015-11-15T08:53:05.000Z</time>
      </trkpt>
      <trkpt lat="47.45561" lon="6.73646">
        <ele>461</ele>
        <time>2015-11-15T08:53:06.000Z</time>
      </trkpt>
      <trkpt lat="47.45564" lon="6.73645">
        <ele>461</ele>
        <time>2015-11-15T08:53:07.000Z</time>
      </trkpt>
      <trkpt lat="47.45567" lon="6.73645">
        <ele>461</ele>
        <time>2015-11-15T08:53:08.000Z</time>
      </trkpt>
      <trkpt lat="47.45569" lon="6.73644">
        <ele>461</ele>
        <time>2015-11-15T08:53:09.000Z</time>
      </trkpt>
      <trkpt lat="47.45572" lon="6.73643">
        <ele>461</ele>
        <time>2015-11-15T08:53:10.000Z</time>
      </trkpt>
      <trkpt lat="47.45575" lon="6.73643">
        <ele>460</ele>
        <time>2015-11-15T08:53:11.000Z</time>
      </trkpt>
      <trkpt lat="47.45578" lon="6.73643">
        <ele>460</ele>
        <time>2015-11-15T08:53:12.000Z</time>
      </trkpt>
      <trkpt lat="47.45582" lon="6.73644">
        <ele>460</ele>
        <time>2015-11-15T08:53:13.000Z</time>
      </trkpt>
      <trkpt lat="47.45585" lon="6.73644">
        <ele>457</ele>
        <time>2015-11-15T08:53:14.000Z</time>
      </trkpt>
      <trkpt lat="47.45589" lon="6.73644">
        <ele>457</ele>
        <time>2015-11-15T08:53:15.000Z</time>
      </trkpt>
      <trkpt lat="47.45593" lon="6.73645">
        <ele>457</ele>
        <time>2015-11-15T08:53:16.000Z</time>
      </trkpt>
      <trkpt lat="47.45596" lon="6.73645">
        <ele>457</ele>
        <time>2015-11-15T08:53:17.000Z</time>
      </trkpt>
      <trkpt lat="47.456" lon="6.73645">
        <ele>457</ele>
        <time>2015-11-15T08:53:18.000Z</time>
      </trkpt>
      <trkpt lat="47.45604" lon="6.73645">
        <ele>457</ele>
        <time>2015-11-15T08:53:19.000Z</time>
      </trkpt>
      <trkpt lat="47.45607" lon="6.73645">
        <ele>457</ele>
        <time>2015-11-15T08:53:20.000Z</time>
      </trkpt>
      <trkpt lat="47.45611" lon="6.73645">
        <ele>456</ele>
        <time>2015-11-15T08:53:21.000Z</time>
      </trkpt>
      <trkpt lat="47.45614" lon="6.73645">
        <ele>456</ele>
        <time>2015-11-15T08:53:22.000Z</time>
      </trkpt>
      <trkpt lat="47.45617" lon="6.73645">
        <ele>456</ele>
        <time>2015-11-15T08:53:23.000Z</time>
      </trkpt>
      <trkpt lat="47.45621" lon="6.73646">
        <ele>456</ele>
        <time>2015-11-15T08:53:24.000Z</time>
      </trkpt>
      <trkpt lat="47.45626" lon="6.73648">
        <ele>456</ele>
        <time>2015-11-15T08:53:25.000Z</time>
      </trkpt>
      <trkpt lat="47.4563" lon="6.73651">
        <ele>456</ele>
        <time>2015-11-15T08:53:26.000Z</time>
      </trkpt>
      <trkpt lat="47.45634" lon="6.73655">
        <ele>455</ele>
        <time>2015-11-15T08:53:27.000Z</time>
      </trkpt>
      <trkpt lat="47.45637" lon="6.7366">
        <ele>455</ele>
        <time>2015-11-15T08:53:28.000Z</time>
      </trkpt>
      <trkpt lat="47.45638" lon="6.73664">
        <ele>455</ele>
        <time>2015-11-15T08:53:29.000Z</time>
      </trkpt>
      <trkpt lat="47.45639" lon="6.73667">
        <ele>456</ele>
        <time>2015-11-15T08:53:30.000Z</time>
      </trkpt>
      <trkpt lat="47.4564" lon="6.73672">
        <ele>456</ele>
        <time>2015-11-15T08:53:31.000Z</time>
      </trkpt>
      <trkpt lat="47.4564" lon="6.73674">
        <ele>456</ele>
        <time>2015-11-15T08:53:32.000Z</time>
      </trkpt>
      <trkpt lat="47.45642" lon="6.7368">
        <ele>456</ele>
        <time>2015-11-15T08:53:40.000Z</time>
      </trkpt>
      <trkpt lat="47.45643" lon="6.73681">
        <ele>456</ele>
        <time>2015-11-15T08:53:41.000Z</time>
      </trkpt>
      <trkpt lat="47.45643" lon="6.73686">
        <ele>456</ele>
        <time>2015-11-15T08:54:03.000Z</time>
      </trkpt>
      <trkpt lat="47.45643" lon="6.73688">
        <ele>456</ele>
        <time>2015-11-15T08:54:04.000Z</time>
      </trkpt>
      <trkpt lat="47.45644" lon="6.73692">
        <ele>456</ele>
        <time>2015-11-15T08:54:05.000Z</time>
      </trkpt>
      <trkpt lat="47.45643" lon="6.73697">
        <ele>456</ele>
        <time>2015-11-15T08:54:06.000Z</time>
      </trkpt>
      <trkpt lat="47.4564" lon="6.73708">
        <ele>456</ele>
        <time>2015-11-15T08:54:07.000Z</time>
      </trkpt>
      <trkpt lat="47.45638" lon="6.73714">
        <ele>456</ele>
        <time>2015-11-15T08:54:08.000Z</time>
      </trkpt>
      <trkpt lat="47.45635" lon="6.73721">
        <ele>457</ele>
        <time>2015-11-15T08:54:09.000Z</time>
      </trkpt>
      <trkpt lat="47.45632" lon="6.73728">
        <ele>457</ele>
        <time>2015-11-15T08:54:10.000Z</time>
      </trkpt>
      <trkpt lat="47.4563" lon="6.73736">
        <ele>457</ele>
        <time>2015-11-15T08:54:11.000Z</time>
      </trkpt>
      <trkpt lat="47.45629" lon="6.73744">
        <ele>457</ele>
        <time>2015-11-15T08:54:12.000Z</time>
      </trkpt>
      <trkpt lat="47.45628" lon="6.73752">
        <ele>456</ele>
        <time>2015-11-15T08:54:13.000Z</time>
      </trkpt>
      <trkpt lat="47.45627" lon="6.73761">
        <ele>456</ele>
        <time>2015-11-15T08:54:14.000Z</time>
      </trkpt>
      <trkpt lat="47.45626" lon="6.73769">
        <ele>457</ele>
        <time>2015-11-15T08:54:15.000Z</time>
      </trkpt>
      <trkpt lat="47.45626" lon="6.7378">
        <ele>456</ele>
        <time>2015-11-15T08:54:16.000Z</time>
      </trkpt>
      <trkpt lat="47.45623" lon="6.73789">
        <ele>456</ele>
        <time>2015-11-15T08:54:17.000Z</time>
      </trkpt>
      <trkpt lat="47.45622" lon="6.73799">
        <ele>456</ele>
        <time>2015-11-15T08:54:18.000Z</time>
      </trkpt>
      <trkpt lat="47.4562" lon="6.73809">
        <ele>456</ele>
        <time>2015-11-15T08:54:19.000Z</time>
      </trkpt>
      <trkpt lat="47.4562" lon="6.7382">
        <ele>456</ele>
        <time>2015-11-15T08:54:20.000Z</time>
      </trkpt>
      <trkpt lat="47.45619" lon="6.73831">
        <ele>456</ele>
        <time>2015-11-15T08:54:21.000Z</time>
      </trkpt>
      <trkpt lat="47.45618" lon="6.73842">
        <ele>456</ele>
        <time>2015-11-15T08:54:22.000Z</time>
      </trkpt>
      <trkpt lat="47.45617" lon="6.73853">
        <ele>456</ele>
        <time>2015-11-15T08:54:23.000Z</time>
      </trkpt>
      <trkpt lat="47.45617" lon="6.73863">
        <ele>456</ele>
        <time>2015-11-15T08:54:24.000Z</time>
      </trkpt>
      <trkpt lat="47.45618" lon="6.73874">
        <ele>456</ele>
        <time>2015-11-15T08:54:25.000Z</time>
      </trkpt>
      <trkpt lat="47.45621" lon="6.73884">
        <ele>456</ele>
        <time>2015-11-15T08:54:26.000Z</time>
      </trkpt>
      <trkpt lat="47.4563" lon="6.73892">
        <ele>455</ele>
        <time>2015-11-15T08:54:27.000Z</time>
      </trkpt>
      <trkpt lat="47.45637" lon="6.739">
        <ele>455</ele>
        <time>2015-11-15T08:54:28.000Z</time>
      </trkpt>
      <trkpt lat="47.45644" lon="6.73907">
        <ele>454</ele>
        <time>2015-11-15T08:54:29.000Z</time>
      </trkpt>
      <trkpt lat="47.4565" lon="6.73916">
        <ele>453</ele>
        <time>2015-11-15T08:54:30.000Z</time>
      </trkpt>
      <trkpt lat="47.45657" lon="6.73927">
        <ele>453</ele>
        <time>2015-11-15T08:54:31.000Z</time>
      </trkpt>
      <trkpt lat="47.45664" lon="6.73938">
        <ele>454</ele>
        <time>2015-11-15T08:54:32.000Z</time>
      </trkpt>
      <trkpt lat="47.45671" lon="6.73944">
        <ele>449</ele>
        <time>2015-11-15T08:54:33.000Z</time>
      </trkpt>
      <trkpt lat="47.4568" lon="6.7395">
        <ele>449</ele>
        <time>2015-11-15T08:54:34.000Z</time>
      </trkpt>
      <trkpt lat="47.45689" lon="6.73957">
        <ele>449</ele>
        <time>2015-11-15T08:54:35.000Z</time>
      </trkpt>
      <trkpt lat="47.45693" lon="6.73967">
        <ele>449</ele>
        <time>2015-11-15T08:54:36.000Z</time>
      </trkpt>
      <trkpt lat="47.45697" lon="6.73981">
        <ele>449</ele>
        <time>2015-11-15T08:54:37.000Z</time>
      </trkpt>
      <trkpt lat="47.45704" lon="6.73988">
        <ele>448</ele>
        <time>2015-11-15T08:54:38.000Z</time>
      </trkpt>
      <trkpt lat="47.45708" lon="6.73993">
        <ele>448</ele>
        <time>2015-11-15T08:54:39.000Z</time>
      </trkpt>
      <trkpt lat="47.45713" lon="6.73998">
        <ele>447</ele>
        <time>2015-11-15T08:54:40.000Z</time>
      </trkpt>
      <trkpt lat="47.45722" lon="6.74004">
        <ele>445</ele>
        <time>2015-11-15T08:54:41.000Z</time>
      </trkpt>
      <trkpt lat="47.45729" lon="6.74009">
        <ele>444</ele>
        <time>2015-11-15T08:54:42.000Z</time>
      </trkpt>
      <trkpt lat="47.45735" lon="6.74015">
        <ele>444</ele>
        <time>2015-11-15T08:54:43.000Z</time>
      </trkpt>
      <trkpt lat="47.45741" lon="6.74019">
        <ele>444</ele>
        <time>2015-11-15T08:54:44.000Z</time>
      </trkpt>
      <trkpt lat="47.45746" lon="6.74025">
        <ele>444</ele>
        <time>2015-11-15T08:54:45.000Z</time>
      </trkpt>
      <trkpt lat="47.4575" lon="6.74032">
        <ele>439</ele>
        <time>2015-11-15T08:54:46.000Z</time>
      </trkpt>
      <trkpt lat="47.45755" lon="6.74041">
        <ele>438</ele>
        <time>2015-11-15T08:54:47.000Z</time>
      </trkpt>
      <trkpt lat="47.45759" lon="6.74049">
        <ele>438</ele>
        <time>2015-11-15T08:54:48.000Z</time>
      </trkpt>
      <trkpt lat="47.45763" lon="6.74058">
        <ele>437</ele>
        <time>2015-11-15T08:54:49.000Z</time>
      </trkpt>
      <trkpt lat="47.45766" lon="6.74068">
        <ele>437</ele>
        <time>2015-11-15T08:54:50.000Z</time>
      </trkpt>
      <trkpt lat="47.45771" lon="6.74078">
        <ele>437</ele>
        <time>2015-11-15T08:54:51.000Z</time>
      </trkpt>
      <trkpt lat="47.45775" lon="6.74087">
        <ele>434</ele>
        <time>2015-11-15T08:54:52.000Z</time>
      </trkpt>
      <trkpt lat="47.45779" lon="6.74098">
        <ele>433</ele>
        <time>2015-11-15T08:54:53.000Z</time>
      </trkpt>
      <trkpt lat="47.45783" lon="6.74105">
        <ele>433</ele>
        <time>2015-11-15T08:54:54.000Z</time>
      </trkpt>
      <trkpt lat="47.45788" lon="6.74115">
        <ele>433</ele>
        <time>2015-11-15T08:54:55.000Z</time>
      </trkpt>
      <trkpt lat="47.45793" lon="6.74123">
        <ele>432</ele>
        <time>2015-11-15T08:54:56.000Z</time>
      </trkpt>
      <trkpt lat="47.45796" lon="6.74128">
        <ele>432</ele>
        <time>2015-11-15T08:54:57.000Z</time>
      </trkpt>
      <trkpt lat="47.45801" lon="6.74131">
        <ele>432</ele>
        <time>2015-11-15T08:54:58.000Z</time>
      </trkpt>
      <trkpt lat="47.45803" lon="6.74132">
        <ele>432</ele>
        <time>2015-11-15T08:54:59.000Z</time>
      </trkpt>
      <trkpt lat="47.45806" lon="6.74134">
        <ele>432</ele>
        <time>2015-11-15T08:55:00.000Z</time>
      </trkpt>
      <trkpt lat="47.45809" lon="6.7414">
        <ele>431</ele>
        <time>2015-11-15T08:55:02.000Z</time>
      </trkpt>
      <trkpt lat="47.45811" lon="6.74143">
        <ele>431</ele>
        <time>2015-11-15T08:55:03.000Z</time>
      </trkpt>
      <trkpt lat="47.45814" lon="6.74146">
        <ele>431</ele>
        <time>2015-11-15T08:55:05.000Z</time>
      </trkpt>
      <trkpt lat="47.45818" lon="6.74148">
        <ele>431</ele>
        <time>2015-11-15T08:55:06.000Z</time>
      </trkpt>
      <trkpt lat="47.45821" lon="6.74149">
        <ele>430</ele>
        <time>2015-11-15T08:55:07.000Z</time>
      </trkpt>
      <trkpt lat="47.45824" lon="6.74149">
        <ele>430</ele>
        <time>2015-11-15T08:55:08.000Z</time>
      </trkpt>
      <trkpt lat="47.45828" lon="6.74149">
        <ele>430</ele>
        <time>2015-11-15T08:55:09.000Z</time>
      </trkpt>
      <trkpt lat="47.4583" lon="6.7415">
        <ele>430</ele>
        <time>2015-11-15T08:55:10.000Z</time>
      </trkpt>
      <trkpt lat="47.45833" lon="6.7415">
        <ele>430</ele>
        <time>2015-11-15T08:55:11.000Z</time>
      </trkpt>
      <trkpt lat="47.45836" lon="6.74151">
        <ele>428</ele>
        <time>2015-11-15T08:55:12.000Z</time>
      </trkpt>
      <trkpt lat="47.4584" lon="6.74151">
        <ele>428</ele>
        <time>2015-11-15T08:55:13.000Z</time>
      </trkpt>
      <trkpt lat="47.45844" lon="6.74152">
        <ele>428</ele>
        <time>2015-11-15T08:55:14.000Z</time>
      </trkpt>
      <trkpt lat="47.45849" lon="6.74153">
        <ele>428</ele>
        <time>2015-11-15T08:55:15.000Z</time>
      </trkpt>
      <trkpt lat="47.45853" lon="6.74154">
        <ele>428</ele>
        <time>2015-11-15T08:55:16.000Z</time>
      </trkpt>
      <trkpt lat="47.45857" lon="6.74155">
        <ele>428</ele>
        <time>2015-11-15T08:55:17.000Z</time>
      </trkpt>
      <trkpt lat="47.45861" lon="6.74156">
        <ele>427</ele>
        <time>2015-11-15T08:55:18.000Z</time>
      </trkpt>
      <trkpt lat="47.45866" lon="6.74158">
        <ele>427</ele>
        <time>2015-11-15T08:55:19.000Z</time>
      </trkpt>
      <trkpt lat="47.4587" lon="6.74158">
        <ele>427</ele>
        <time>2015-11-15T08:55:20.000Z</time>
      </trkpt>
      <trkpt lat="47.45874" lon="6.74159">
        <ele>427</ele>
        <time>2015-11-15T08:55:21.000Z</time>
      </trkpt>
      <trkpt lat="47.45879" lon="6.74161">
        <ele>427</ele>
        <time>2015-11-15T08:55:22.000Z</time>
      </trkpt>
      <trkpt lat="47.45885" lon="6.74162">
        <ele>426</ele>
        <time>2015-11-15T08:55:23.000Z</time>
      </trkpt>
      <trkpt lat="47.4589" lon="6.74164">
        <ele>426</ele>
        <time>2015-11-15T08:55:24.000Z</time>
      </trkpt>
      <trkpt lat="47.45895" lon="6.74166">
        <ele>425</ele>
        <time>2015-11-15T08:55:25.000Z</time>
      </trkpt>
      <trkpt lat="47.45901" lon="6.74167">
        <ele>420</ele>
        <time>2015-11-15T08:55:26.000Z</time>
      </trkpt>
      <trkpt lat="47.45905" lon="6.74167">
        <ele>421</ele>
        <time>2015-11-15T08:55:27.000Z</time>
      </trkpt>
      <trkpt lat="47.45909" lon="6.74167">
        <ele>421</ele>
        <time>2015-11-15T08:55:28.000Z</time>
      </trkpt>
      <trkpt lat="47.45913" lon="6.74168">
        <ele>421</ele>
        <time>2015-11-15T08:55:29.000Z</time>
      </trkpt>
      <trkpt lat="47.45917" lon="6.74168">
        <ele>422</ele>
        <time>2015-11-15T08:55:30.000Z</time>
      </trkpt>
      <trkpt lat="47.45921" lon="6.74167">
        <ele>421</ele>
        <time>2015-11-15T08:55:31.000Z</time>
      </trkpt>
      <trkpt lat="47.45925" lon="6.74166">
        <ele>423</ele>
        <time>2015-11-15T08:55:32.000Z</time>
      </trkpt>
      <trkpt lat="47.45928" lon="6.74164">
        <ele>423</ele>
        <time>2015-11-15T08:55:33.000Z</time>
      </trkpt>
      <trkpt lat="47.45932" lon="6.74162">
        <ele>423</ele>
        <time>2015-11-15T08:55:34.000Z</time>
      </trkpt>
      <trkpt lat="47.45936" lon="6.74161">
        <ele>424</ele>
        <time>2015-11-15T08:55:35.000Z</time>
      </trkpt>
      <trkpt lat="47.4594" lon="6.7416">
        <ele>424</ele>
        <time>2015-11-15T08:55:36.000Z</time>
      </trkpt>
      <trkpt lat="47.45944" lon="6.74161">
        <ele>424</ele>
        <time>2015-11-15T08:55:37.000Z</time>
      </trkpt>
      <trkpt lat="47.45947" lon="6.74163">
        <ele>424</ele>
        <time>2015-11-15T08:55:38.000Z</time>
      </trkpt>
      <trkpt lat="47.4595" lon="6.74165">
        <ele>424</ele>
        <time>2015-11-15T08:55:39.000Z</time>
      </trkpt>
      <trkpt lat="47.45954" lon="6.74168">
        <ele>418</ele>
        <time>2015-11-15T08:55:40.000Z</time>
      </trkpt>
      <trkpt lat="47.45957" lon="6.74171">
        <ele>418</ele>
        <time>2015-11-15T08:55:41.000Z</time>
      </trkpt>
      <trkpt lat="47.45961" lon="6.74173">
        <ele>418</ele>
        <time>2015-11-15T08:55:42.000Z</time>
      </trkpt>
      <trkpt lat="47.45965" lon="6.74176">
        <ele>418</ele>
        <time>2015-11-15T08:55:43.000Z</time>
      </trkpt>
      <trkpt lat="47.45969" lon="6.74179">
        <ele>418</ele>
        <time>2015-11-15T08:55:44.000Z</time>
      </trkpt>
      <trkpt lat="47.45973" lon="6.7418">
        <ele>418</ele>
        <time>2015-11-15T08:55:45.000Z</time>
      </trkpt>
      <trkpt lat="47.45977" lon="6.74181">
        <ele>418</ele>
        <time>2015-11-15T08:55:46.000Z</time>
      </trkpt>
      <trkpt lat="47.45981" lon="6.74183">
        <ele>418</ele>
        <time>2015-11-15T08:55:47.000Z</time>
      </trkpt>
      <trkpt lat="47.45985" lon="6.74184">
        <ele>418</ele>
        <time>2015-11-15T08:55:48.000Z</time>
      </trkpt>
      <trkpt lat="47.45988" lon="6.74185">
        <ele>418</ele>
        <time>2015-11-15T08:55:49.000Z</time>
      </trkpt>
      <trkpt lat="47.4599" lon="6.74185">
        <ele>418</ele>
        <time>2015-11-15T08:55:50.000Z</time>
      </trkpt>
      <trkpt lat="47.45993" lon="6.74185">
        <ele>419</ele>
        <time>2015-11-15T08:55:51.000Z</time>
      </trkpt>
      <trkpt lat="47.45995" lon="6.74186">
        <ele>419</ele>
        <time>2015-11-15T08:55:52.000Z</time>
      </trkpt>
      <trkpt lat="47.45998" lon="6.74186">
        <ele>419</ele>
        <time>2015-11-15T08:55:53.000Z</time>
      </trkpt>
      <trkpt lat="47.46001" lon="6.74186">
        <ele>419</ele>
        <time>2015-11-15T08:55:54.000Z</time>
      </trkpt>
      <trkpt lat="47.46004" lon="6.74187">
        <ele>419</ele>
        <time>2015-11-15T08:55:55.000Z</time>
      </trkpt>
      <trkpt lat="47.46008" lon="6.74187">
        <ele>419</ele>
        <time>2015-11-15T08:55:56.000Z</time>
      </trkpt>
      <trkpt lat="47.4601" lon="6.74187">
        <ele>419</ele>
        <time>2015-11-15T08:55:57.000Z</time>
      </trkpt>
      <trkpt lat="47.46013" lon="6.74187">
        <ele>419</ele>
        <time>2015-11-15T08:55:58.000Z</time>
      </trkpt>
      <trkpt lat="47.46016" lon="6.74187">
        <ele>419</ele>
        <time>2015-11-15T08:55:59.000Z</time>
      </trkpt>
      <trkpt lat="47.46018" lon="6.74187">
        <ele>419</ele>
        <time>2015-11-15T08:56:00.000Z</time>
      </trkpt>
      <trkpt lat="47.4602" lon="6.74187">
        <ele>419</ele>
        <time>2015-11-15T08:56:01.000Z</time>
      </trkpt>
      <trkpt lat="47.46023" lon="6.74188">
        <ele>419</ele>
        <time>2015-11-15T08:56:02.000Z</time>
      </trkpt>
      <trkpt lat="47.46026" lon="6.74188">
        <ele>419</ele>
        <time>2015-11-15T08:56:03.000Z</time>
      </trkpt>
      <trkpt lat="47.46029" lon="6.74188">
        <ele>419</ele>
        <time>2015-11-15T08:56:04.000Z</time>
      </trkpt>
      <trkpt lat="47.46032" lon="6.74188">
        <ele>419</ele>
        <time>2015-11-15T08:56:05.000Z</time>
      </trkpt>
      <trkpt lat="47.46035" lon="6.74188">
        <ele>419</ele>
        <time>2015-11-15T08:56:06.000Z</time>
      </trkpt>
      <trkpt lat="47.46039" lon="6.74188">
        <ele>419</ele>
        <time>2015-11-15T08:56:07.000Z</time>
      </trkpt>
      <trkpt lat="47.46042" lon="6.74188">
        <ele>419</ele>
        <time>2015-11-15T08:56:08.000Z</time>
      </trkpt>
      <trkpt lat="47.46046" lon="6.74188">
        <ele>419</ele>
        <time>2015-11-15T08:56:09.000Z</time>
      </trkpt>
      <trkpt lat="47.4605" lon="6.74188">
        <ele>419</ele>
        <time>2015-11-15T08:56:10.000Z</time>
      </trkpt>
      <trkpt lat="47.46054" lon="6.74189">
        <ele>419</ele>
        <time>2015-11-15T08:56:11.000Z</time>
      </trkpt>
      <trkpt lat="47.46058" lon="6.7419">
        <ele>419</ele>
        <time>2015-11-15T08:56:12.000Z</time>
      </trkpt>
      <trkpt lat="47.46063" lon="6.74192">
        <ele>419</ele>
        <time>2015-11-15T08:56:13.000Z</time>
      </trkpt>
      <trkpt lat="47.46068" lon="6.74193">
        <ele>419</ele>
        <time>2015-11-15T08:56:14.000Z</time>
      </trkpt>
      <trkpt lat="47.46073" lon="6.74194">
        <ele>419</ele>
        <time>2015-11-15T08:56:15.000Z</time>
      </trkpt>
      <trkpt lat="47.46078" lon="6.74196">
        <ele>419</ele>
        <time>2015-11-15T08:56:16.000Z</time>
      </trkpt>
      <trkpt lat="47.46083" lon="6.74198">
        <ele>419</ele>
        <time>2015-11-15T08:56:17.000Z</time>
      </trkpt>
      <trkpt lat="47.46086" lon="6.74201">
        <ele>419</ele>
        <time>2015-11-15T08:56:18.000Z</time>
      </trkpt>
      <trkpt lat="47.4609" lon="6.74205">
        <ele>419</ele>
        <time>2015-11-15T08:56:19.000Z</time>
      </trkpt>
      <trkpt lat="47.46093" lon="6.74208">
        <ele>418</ele>
        <time>2015-11-15T08:56:20.000Z</time>
      </trkpt>
      <trkpt lat="47.46097" lon="6.7421">
        <ele>418</ele>
        <time>2015-11-15T08:56:21.000Z</time>
      </trkpt>
      <trkpt lat="47.461" lon="6.74211">
        <ele>418</ele>
        <time>2015-11-15T08:56:22.000Z</time>
      </trkpt>
      <trkpt lat="47.46104" lon="6.74211">
        <ele>418</ele>
        <time>2015-11-15T08:56:23.000Z</time>
      </trkpt>
      <trkpt lat="47.46107" lon="6.7421">
        <ele>418</ele>
        <time>2015-11-15T08:56:24.000Z</time>
      </trkpt>
      <trkpt lat="47.4611" lon="6.74209">
        <ele>418</ele>
        <time>2015-11-15T08:56:25.000Z</time>
      </trkpt>
      <trkpt lat="47.46112" lon="6.74208">
        <ele>419</ele>
        <time>2015-11-15T08:56:26.000Z</time>
      </trkpt>
      <trkpt lat="47.46115" lon="6.74208">
        <ele>419</ele>
        <time>2015-11-15T08:56:27.000Z</time>
      </trkpt>
      <trkpt lat="47.46118" lon="6.74207">
        <ele>419</ele>
        <time>2015-11-15T08:56:28.000Z</time>
      </trkpt>
      <trkpt lat="47.46122" lon="6.74207">
        <ele>419</ele>
        <time>2015-11-15T08:56:29.000Z</time>
      </trkpt>
      <trkpt lat="47.46125" lon="6.74205">
        <ele>419</ele>
        <time>2015-11-15T08:56:30.000Z</time>
      </trkpt>
      <trkpt lat="47.46129" lon="6.74204">
        <ele>419</ele>
        <time>2015-11-15T08:56:31.000Z</time>
      </trkpt>
      <trkpt lat="47.46132" lon="6.74203">
        <ele>419</ele>
        <time>2015-11-15T08:56:32.000Z</time>
      </trkpt>
      <trkpt lat="47.46136" lon="6.74202">
        <ele>419</ele>
        <time>2015-11-15T08:56:33.000Z</time>
      </trkpt>
      <trkpt lat="47.46139" lon="6.74202">
        <ele>419</ele>
        <time>2015-11-15T08:56:34.000Z</time>
      </trkpt>
      <trkpt lat="47.46142" lon="6.74203">
        <ele>419</ele>
        <time>2015-11-15T08:56:35.000Z</time>
      </trkpt>
      <trkpt lat="47.46145" lon="6.74204">
        <ele>419</ele>
        <time>2015-11-15T08:56:36.000Z</time>
      </trkpt>
      <trkpt lat="47.46149" lon="6.74205">
        <ele>419</ele>
        <time>2015-11-15T08:56:37.000Z</time>
      </trkpt>
      <trkpt lat="47.46152" lon="6.74206">
        <ele>419</ele>
        <time>2015-11-15T08:56:38.000Z</time>
      </trkpt>
      <trkpt lat="47.46156" lon="6.74206">
        <ele>419</ele>
        <time>2015-11-15T08:56:39.000Z</time>
      </trkpt>
      <trkpt lat="47.4616" lon="6.74207">
        <ele>419</ele>
        <time>2015-11-15T08:56:40.000Z</time>
      </trkpt>
      <trkpt lat="47.46164" lon="6.74208">
        <ele>419</ele>
        <time>2015-11-15T08:56:41.000Z</time>
      </trkpt>
      <trkpt lat="47.46168" lon="6.7421">
        <ele>417</ele>
        <time>2015-11-15T08:56:42.000Z</time>
      </trkpt>
      <trkpt lat="47.46172" lon="6.74212">
        <ele>417</ele>
        <time>2015-11-15T08:56:43.000Z</time>
      </trkpt>
      <trkpt lat="47.46176" lon="6.74214">
        <ele>417</ele>
        <time>2015-11-15T08:56:44.000Z</time>
      </trkpt>
      <trkpt lat="47.4618" lon="6.74216">
        <ele>417</ele>
        <time>2015-11-15T08:56:45.000Z</time>
      </trkpt>
      <trkpt lat="47.46184" lon="6.74218">
        <ele>417</ele>
        <time>2015-11-15T08:56:46.000Z</time>
      </trkpt>
      <trkpt lat="47.46189" lon="6.74219">
        <ele>416</ele>
        <time>2015-11-15T08:56:47.000Z</time>
      </trkpt>
      <trkpt lat="47.46193" lon="6.74221">
        <ele>416</ele>
        <time>2015-11-15T08:56:48.000Z</time>
      </trkpt>
      <trkpt lat="47.46197" lon="6.74223">
        <ele>416</ele>
        <time>2015-11-15T08:56:49.000Z</time>
      </trkpt>
      <trkpt lat="47.46201" lon="6.74224">
        <ele>416</ele>
        <time>2015-11-15T08:56:50.000Z</time>
      </trkpt>
      <trkpt lat="47.46204" lon="6.74226">
        <ele>416</ele>
        <time>2015-11-15T08:56:51.000Z</time>
      </trkpt>
      <trkpt lat="47.46208" lon="6.74228">
        <ele>416</ele>
        <time>2015-11-15T08:56:52.000Z</time>
      </trkpt>
      <trkpt lat="47.46211" lon="6.7423">
        <ele>416</ele>
        <time>2015-11-15T08:56:53.000Z</time>
      </trkpt>
      <trkpt lat="47.46214" lon="6.74232">
        <ele>416</ele>
        <time>2015-11-15T08:56:54.000Z</time>
      </trkpt>
      <trkpt lat="47.46218" lon="6.74234">
        <ele>416</ele>
        <time>2015-11-15T08:56:55.000Z</time>
      </trkpt>
      <trkpt lat="47.46221" lon="6.74236">
        <ele>415</ele>
        <time>2015-11-15T08:56:56.000Z</time>
      </trkpt>
      <trkpt lat="47.46225" lon="6.74237">
        <ele>415</ele>
        <time>2015-11-15T08:56:57.000Z</time>
      </trkpt>
      <trkpt lat="47.46229" lon="6.74239">
        <ele>415</ele>
        <time>2015-11-15T08:56:58.000Z</time>
      </trkpt>
      <trkpt lat="47.46233" lon="6.74241">
        <ele>415</ele>
        <time>2015-11-15T08:56:59.000Z</time>
      </trkpt>
      <trkpt lat="47.46237" lon="6.74243">
        <ele>414</ele>
        <time>2015-11-15T08:57:00.000Z</time>
      </trkpt>
      <trkpt lat="47.46241" lon="6.74246">
        <ele>414</ele>
        <time>2015-11-15T08:57:01.000Z</time>
      </trkpt>
      <trkpt lat="47.46245" lon="6.74248">
        <ele>414</ele>
        <time>2015-11-15T08:57:02.000Z</time>
      </trkpt>
      <trkpt lat="47.46249" lon="6.7425">
        <ele>413</ele>
        <time>2015-11-15T08:57:03.000Z</time>
      </trkpt>
      <trkpt lat="47.46253" lon="6.74252">
        <ele>412</ele>
        <time>2015-11-15T08:57:04.000Z</time>
      </trkpt>
      <trkpt lat="47.46257" lon="6.74254">
        <ele>411</ele>
        <time>2015-11-15T08:57:05.000Z</time>
      </trkpt>
      <trkpt lat="47.4626" lon="6.74254">
        <ele>411</ele>
        <time>2015-11-15T08:57:06.000Z</time>
      </trkpt>
      <trkpt lat="47.46263" lon="6.74253">
        <ele>411</ele>
        <time>2015-11-15T08:57:07.000Z</time>
      </trkpt>
      <trkpt lat="47.46265" lon="6.74254">
        <ele>410</ele>
        <time>2015-11-15T08:57:08.000Z</time>
      </trkpt>
      <trkpt lat="47.46268" lon="6.74255">
        <ele>410</ele>
        <time>2015-11-15T08:57:09.000Z</time>
      </trkpt>
      <trkpt lat="47.4627" lon="6.74258">
        <ele>410</ele>
        <time>2015-11-15T08:57:10.000Z</time>
      </trkpt>
      <trkpt lat="47.46272" lon="6.74261">
        <ele>410</ele>
        <time>2015-11-15T08:57:11.000Z</time>
      </trkpt>
      <trkpt lat="47.46275" lon="6.74263">
        <ele>409</ele>
        <time>2015-11-15T08:57:12.000Z</time>
      </trkpt>
      <trkpt lat="47.46278" lon="6.74265">
        <ele>409</ele>
        <time>2015-11-15T08:57:13.000Z</time>
      </trkpt>
      <trkpt lat="47.4628" lon="6.74267">
        <ele>409</ele>
        <time>2015-11-15T08:57:14.000Z</time>
      </trkpt>
      <trkpt lat="47.46283" lon="6.74268">
        <ele>409</ele>
        <time>2015-11-15T08:57:15.000Z</time>
      </trkpt>
      <trkpt lat="47.46285" lon="6.74269">
        <ele>409</ele>
        <time>2015-11-15T08:57:16.000Z</time>
      </trkpt>
      <trkpt lat="47.46288" lon="6.74269">
        <ele>409</ele>
        <time>2015-11-15T08:57:17.000Z</time>
      </trkpt>
      <trkpt lat="47.4629" lon="6.7427">
        <ele>409</ele>
        <time>2015-11-15T08:57:18.000Z</time>
      </trkpt>
      <trkpt lat="47.46293" lon="6.74271">
        <ele>409</ele>
        <time>2015-11-15T08:57:19.000Z</time>
      </trkpt>
      <trkpt lat="47.46296" lon="6.74272">
        <ele>409</ele>
        <time>2015-11-15T08:57:20.000Z</time>
      </trkpt>
      <trkpt lat="47.46299" lon="6.74273">
        <ele>409</ele>
        <time>2015-11-15T08:57:21.000Z</time>
      </trkpt>
      <trkpt lat="47.46302" lon="6.74274">
        <ele>409</ele>
        <time>2015-11-15T08:57:22.000Z</time>
      </trkpt>
      <trkpt lat="47.46305" lon="6.74275">
        <ele>409</ele>
        <time>2015-11-15T08:57:23.000Z</time>
      </trkpt>
      <trkpt lat="47.46309" lon="6.74276">
        <ele>409</ele>
        <time>2015-11-15T08:57:24.000Z</time>
      </trkpt>
      <trkpt lat="47.46312" lon="6.74276">
        <ele>409</ele>
        <time>2015-11-15T08:57:25.000Z</time>
      </trkpt>
      <trkpt lat="47.46315" lon="6.74277">
        <ele>409</ele>
        <time>2015-11-15T08:57:26.000Z</time>
      </trkpt>
      <trkpt lat="47.46319" lon="6.74277">
        <ele>409</ele>
        <time>2015-11-15T08:57:27.000Z</time>
      </trkpt>
      <trkpt lat="47.46324" lon="6.74278">
        <ele>409</ele>
        <time>2015-11-15T08:57:28.000Z</time>
      </trkpt>
      <trkpt lat="47.46329" lon="6.74279">
        <ele>409</ele>
        <time>2015-11-15T08:57:29.000Z</time>
      </trkpt>
      <trkpt lat="47.46335" lon="6.74281">
        <ele>409</ele>
        <time>2015-11-15T08:57:30.000Z</time>
      </trkpt>
      <trkpt lat="47.46338" lon="6.74281">
        <ele>409</ele>
        <time>2015-11-15T08:57:30.999Z</time>
      </trkpt>
      <trkpt lat="47.46346" lon="6.74284">
        <ele>409</ele>
        <time>2015-11-15T08:57:32.000Z</time>
      </trkpt>
      <trkpt lat="47.46351" lon="6.74287">
        <ele>409</ele>
        <time>2015-11-15T08:57:33.000Z</time>
      </trkpt>
      <trkpt lat="47.46356" lon="6.74291">
        <ele>408</ele>
        <time>2015-11-15T08:57:34.000Z</time>
      </trkpt>
      <trkpt lat="47.4636" lon="6.74295">
        <ele>408</ele>
        <time>2015-11-15T08:57:35.000Z</time>
      </trkpt>
      <trkpt lat="47.46365" lon="6.74298">
        <ele>408</ele>
        <time>2015-11-15T08:57:36.000Z</time>
      </trkpt>
      <trkpt lat="47.4637" lon="6.74301">
        <ele>408</ele>
        <time>2015-11-15T08:57:37.000Z</time>
      </trkpt>
      <trkpt lat="47.46374" lon="6.74303">
        <ele>408</ele>
        <time>2015-11-15T08:57:38.000Z</time>
      </trkpt>
      <trkpt lat="47.46379" lon="6.74305">
        <ele>407</ele>
        <time>2015-11-15T08:57:39.000Z</time>
      </trkpt>
      <trkpt lat="47.46384" lon="6.74306">
        <ele>407</ele>
        <time>2015-11-15T08:57:40.000Z</time>
      </trkpt>
      <trkpt lat="47.46389" lon="6.74307">
        <ele>407</ele>
        <time>2015-11-15T08:57:41.000Z</time>
      </trkpt>
      <trkpt lat="47.46394" lon="6.74308">
        <ele>407</ele>
        <time>2015-11-15T08:57:42.000Z</time>
      </trkpt>
      <trkpt lat="47.46403" lon="6.74312">
        <ele>407</ele>
        <time>2015-11-15T08:57:43.000Z</time>
      </trkpt>
      <trkpt lat="47.46407" lon="6.74314">
        <ele>407</ele>
        <time>2015-11-15T08:57:44.000Z</time>
      </trkpt>
      <trkpt lat="47.46412" lon="6.74316">
        <ele>406</ele>
        <time>2015-11-15T08:57:45.000Z</time>
      </trkpt>
      <trkpt lat="47.46417" lon="6.74322">
        <ele>406</ele>
        <time>2015-11-15T08:57:46.000Z</time>
      </trkpt>
      <trkpt lat="47.46421" lon="6.74326">
        <ele>406</ele>
        <time>2015-11-15T08:57:47.000Z</time>
      </trkpt>
      <trkpt lat="47.46425" lon="6.74328">
        <ele>406</ele>
        <time>2015-11-15T08:57:48.000Z</time>
      </trkpt>
      <trkpt lat="47.46427" lon="6.74325">
        <ele>406</ele>
        <time>2015-11-15T08:57:49.000Z</time>
      </trkpt>
      <trkpt lat="47.4643" lon="6.74326">
        <ele>406</ele>
        <time>2015-11-15T08:57:50.000Z</time>
      </trkpt>
      <trkpt lat="47.46433" lon="6.74327">
        <ele>406</ele>
        <time>2015-11-15T08:57:51.000Z</time>
      </trkpt>
      <trkpt lat="47.46436" lon="6.7433">
        <ele>406</ele>
        <time>2015-11-15T08:57:52.000Z</time>
      </trkpt>
      <trkpt lat="47.46439" lon="6.74334">
        <ele>403</ele>
        <time>2015-11-15T08:57:53.000Z</time>
      </trkpt>
      <trkpt lat="47.46441" lon="6.74335">
        <ele>403</ele>
        <time>2015-11-15T08:57:54.000Z</time>
      </trkpt>
      <trkpt lat="47.46445" lon="6.74339">
        <ele>402</ele>
        <time>2015-11-15T08:57:55.000Z</time>
      </trkpt>
      <trkpt lat="47.46449" lon="6.74343">
        <ele>402</ele>
        <time>2015-11-15T08:57:56.000Z</time>
      </trkpt>
      <trkpt lat="47.46452" lon="6.74346">
        <ele>402</ele>
        <time>2015-11-15T08:57:57.000Z</time>
      </trkpt>
      <trkpt lat="47.46456" lon="6.7435">
        <ele>402</ele>
        <time>2015-11-15T08:57:58.000Z</time>
      </trkpt>
      <trkpt lat="47.46459" lon="6.74354">
        <ele>402</ele>
        <time>2015-11-15T08:57:59.000Z</time>
      </trkpt>
      <trkpt lat="47.46462" lon="6.74358">
        <ele>402</ele>
        <time>2015-11-15T08:58:00.000Z</time>
      </trkpt>
      <trkpt lat="47.46465" lon="6.74362">
        <ele>402</ele>
        <time>2015-11-15T08:58:01.000Z</time>
      </trkpt>
      <trkpt lat="47.46469" lon="6.74366">
        <ele>402</ele>
        <time>2015-11-15T08:58:02.000Z</time>
      </trkpt>
      <trkpt lat="47.46473" lon="6.7437">
        <ele>401</ele>
        <time>2015-11-15T08:58:03.000Z</time>
      </trkpt>
      <trkpt lat="47.46476" lon="6.74374">
        <ele>401</ele>
        <time>2015-11-15T08:58:04.000Z</time>
      </trkpt>
      <trkpt lat="47.4648" lon="6.74378">
        <ele>401</ele>
        <time>2015-11-15T08:58:05.000Z</time>
      </trkpt>
      <trkpt lat="47.46484" lon="6.74382">
        <ele>401</ele>
        <time>2015-11-15T08:58:06.000Z</time>
      </trkpt>
      <trkpt lat="47.46487" lon="6.74385">
        <ele>401</ele>
        <time>2015-11-15T08:58:07.000Z</time>
      </trkpt>
      <trkpt lat="47.46491" lon="6.74389">
        <ele>401</ele>
        <time>2015-11-15T08:58:08.000Z</time>
      </trkpt>
      <trkpt lat="47.46498" lon="6.74398">
        <ele>400</ele>
        <time>2015-11-15T08:58:09.000Z</time>
      </trkpt>
      <trkpt lat="47.46503" lon="6.74403">
        <ele>403</ele>
        <time>2015-11-15T08:58:10.000Z</time>
      </trkpt>
      <trkpt lat="47.46508" lon="6.74408">
        <ele>402</ele>
        <time>2015-11-15T08:58:11.000Z</time>
      </trkpt>
      <trkpt lat="47.46513" lon="6.74415">
        <ele>403</ele>
        <time>2015-11-15T08:58:12.000Z</time>
      </trkpt>
      <trkpt lat="47.46517" lon="6.74422">
        <ele>398</ele>
        <time>2015-11-15T08:58:13.000Z</time>
      </trkpt>
      <trkpt lat="47.46523" lon="6.74433">
        <ele>398</ele>
        <time>2015-11-15T08:58:14.000Z</time>
      </trkpt>
      <trkpt lat="47.46526" lon="6.74447">
        <ele>397</ele>
        <time>2015-11-15T08:58:15.000Z</time>
      </trkpt>
      <trkpt lat="47.46529" lon="6.74455">
        <ele>396</ele>
        <time>2015-11-15T08:58:16.000Z</time>
      </trkpt>
      <trkpt lat="47.46532" lon="6.7446">
        <ele>396</ele>
        <time>2015-11-15T08:58:17.000Z</time>
      </trkpt>
      <trkpt lat="47.46535" lon="6.74466">
        <ele>395</ele>
        <time>2015-11-15T08:58:18.000Z</time>
      </trkpt>
      <trkpt lat="47.46539" lon="6.7447">
        <ele>395</ele>
        <time>2015-11-15T08:58:19.000Z</time>
      </trkpt>
      <trkpt lat="47.46545" lon="6.74475">
        <ele>395</ele>
        <time>2015-11-15T08:58:20.000Z</time>
      </trkpt>
      <trkpt lat="47.46551" lon="6.74482">
        <ele>395</ele>
        <time>2015-11-15T08:58:21.000Z</time>
      </trkpt>
      <trkpt lat="47.46556" lon="6.74488">
        <ele>395</ele>
        <time>2015-11-15T08:58:22.000Z</time>
      </trkpt>
      <trkpt lat="47.46562" lon="6.74493">
        <ele>395</ele>
        <time>2015-11-15T08:58:23.000Z</time>
      </trkpt>
      <trkpt lat="47.46567" lon="6.74501">
        <ele>389</ele>
        <time>2015-11-15T08:58:24.000Z</time>
      </trkpt>
      <trkpt lat="47.46573" lon="6.74507">
        <ele>390</ele>
        <time>2015-11-15T08:58:25.000Z</time>
      </trkpt>
      <trkpt lat="47.46577" lon="6.74513">
        <ele>390</ele>
        <time>2015-11-15T08:58:26.000Z</time>
      </trkpt>
      <trkpt lat="47.46581" lon="6.74522">
        <ele>388</ele>
        <time>2015-11-15T08:58:27.000Z</time>
      </trkpt>
      <trkpt lat="47.46586" lon="6.7453">
        <ele>392</ele>
        <time>2015-11-15T08:58:28.000Z</time>
      </trkpt>
      <trkpt lat="47.46592" lon="6.74543">
        <ele>390</ele>
        <time>2015-11-15T08:58:29.000Z</time>
      </trkpt>
      <trkpt lat="47.46596" lon="6.7455">
        <ele>389</ele>
        <time>2015-11-15T08:58:30.000Z</time>
      </trkpt>
      <trkpt lat="47.46601" lon="6.74557">
        <ele>389</ele>
        <time>2015-11-15T08:58:31.000Z</time>
      </trkpt>
      <trkpt lat="47.46607" lon="6.7457">
        <ele>388</ele>
        <time>2015-11-15T08:58:32.000Z</time>
      </trkpt>
      <trkpt lat="47.46613" lon="6.74578">
        <ele>388</ele>
        <time>2015-11-15T08:58:33.000Z</time>
      </trkpt>
      <trkpt lat="47.46618" lon="6.74587">
        <ele>376</ele>
        <time>2015-11-15T08:58:34.000Z</time>
      </trkpt>
      <trkpt lat="47.46622" lon="6.74594">
        <ele>376</ele>
        <time>2015-11-15T08:58:35.000Z</time>
      </trkpt>
      <trkpt lat="47.46628" lon="6.74602">
        <ele>376</ele>
        <time>2015-11-15T08:58:36.000Z</time>
      </trkpt>
      <trkpt lat="47.46633" lon="6.74604">
        <ele>376</ele>
        <time>2015-11-15T08:58:37.000Z</time>
      </trkpt>
      <trkpt lat="47.4664" lon="6.74616">
        <ele>375</ele>
        <time>2015-11-15T08:58:38.000Z</time>
      </trkpt>
      <trkpt lat="47.46649" lon="6.74627">
        <ele>373</ele>
        <time>2015-11-15T08:58:39.000Z</time>
      </trkpt>
      <trkpt lat="47.4666" lon="6.74644">
        <ele>370</ele>
        <time>2015-11-15T08:58:40.000Z</time>
      </trkpt>
      <trkpt lat="47.4667" lon="6.7466">
        <ele>367</ele>
        <time>2015-11-15T08:58:41.000Z</time>
      </trkpt>
      <trkpt lat="47.46679" lon="6.7467">
        <ele>361</ele>
        <time>2015-11-15T08:58:42.000Z</time>
      </trkpt>
      <trkpt lat="47.46687" lon="6.74675">
        <ele>360</ele>
        <time>2015-11-15T08:58:43.000Z</time>
      </trkpt>
      <trkpt lat="47.46699" lon="6.74683">
        <ele>359</ele>
        <time>2015-11-15T08:58:44.000Z</time>
      </trkpt>
      <trkpt lat="47.46709" lon="6.74692">
        <ele>358</ele>
        <time>2015-11-15T08:58:45.000Z</time>
      </trkpt>
      <trkpt lat="47.46719" lon="6.74702">
        <ele>357</ele>
        <time>2015-11-15T08:58:46.000Z</time>
      </trkpt>
      <trkpt lat="47.46723" lon="6.74714">
        <ele>355</ele>
        <time>2015-11-15T08:58:47.000Z</time>
      </trkpt>
      <trkpt lat="47.46726" lon="6.74727">
        <ele>354</ele>
        <time>2015-11-15T08:58:48.000Z</time>
      </trkpt>
      <trkpt lat="47.46727" lon="6.74735">
        <ele>353</ele>
        <time>2015-11-15T08:58:49.000Z</time>
      </trkpt>
      <trkpt lat="47.46729" lon="6.7473">
        <ele>354</ele>
        <time>2015-11-15T08:58:58.000Z</time>
      </trkpt>
      <trkpt lat="47.46729" lon="6.74726">
        <ele>354</ele>
        <time>2015-11-15T08:58:59.000Z</time>
      </trkpt>
      <trkpt lat="47.46731" lon="6.74723">
        <ele>354</ele>
        <time>2015-11-15T08:59:00.000Z</time>
      </trkpt>
      <trkpt lat="47.46732" lon="6.7472">
        <ele>354</ele>
        <time>2015-11-15T08:59:01.000Z</time>
      </trkpt>
      <trkpt lat="47.46733" lon="6.74717">
        <ele>355</ele>
        <time>2015-11-15T08:59:02.000Z</time>
      </trkpt>
      <trkpt lat="47.46735" lon="6.74714">
        <ele>355</ele>
        <time>2015-11-15T08:59:03.000Z</time>
      </trkpt>
      <trkpt lat="47.46736" lon="6.74711">
        <ele>355</ele>
        <time>2015-11-15T08:59:04.000Z</time>
      </trkpt>
      <trkpt lat="47.46737" lon="6.74708">
        <ele>356</ele>
        <time>2015-11-15T08:59:05.000Z</time>
      </trkpt>
      <trkpt lat="47.46739" lon="6.74703">
        <ele>356</ele>
        <time>2015-11-15T08:59:07.000Z</time>
      </trkpt>
      <trkpt lat="47.4674" lon="6.74701">
        <ele>356</ele>
        <time>2015-11-15T08:59:08.000Z</time>
      </trkpt>
      <trkpt lat="47.46743" lon="6.747">
        <ele>356</ele>
        <time>2015-11-15T09:03:43.000Z</time>
      </trkpt>
      <trkpt lat="47.46745" lon="6.74698">
        <ele>357</ele>
        <time>2015-11-15T09:03:44.000Z</time>
      </trkpt>
      <trkpt lat="47.46747" lon="6.74695">
        <ele>357</ele>
        <time>2015-11-15T09:03:45.000Z</time>
      </trkpt>
      <trkpt lat="47.46748" lon="6.74692">
        <ele>357</ele>
        <time>2015-11-15T09:03:46.000Z</time>
      </trkpt>
      <trkpt lat="47.46751" lon="6.74688">
        <ele>354</ele>
        <time>2015-11-15T09:03:47.000Z</time>
      </trkpt>
      <trkpt lat="47.46754" lon="6.74684">
        <ele>354</ele>
        <time>2015-11-15T09:03:48.000Z</time>
      </trkpt>
      <trkpt lat="47.46757" lon="6.74681">
        <ele>355</ele>
        <time>2015-11-15T09:03:49.000Z</time>
      </trkpt>
      <trkpt lat="47.4676" lon="6.74677">
        <ele>355</ele>
        <time>2015-11-15T09:03:50.000Z</time>
      </trkpt>
      <trkpt lat="47.46763" lon="6.74673">
        <ele>355</ele>
        <time>2015-11-15T09:03:51.000Z</time>
      </trkpt>
      <trkpt lat="47.46765" lon="6.7467">
        <ele>355</ele>
        <time>2015-11-15T09:03:52.000Z</time>
      </trkpt>
      <trkpt lat="47.46768" lon="6.74667">
        <ele>354</ele>
        <time>2015-11-15T09:03:53.000Z</time>
      </trkpt>
      <trkpt lat="47.46771" lon="6.74664">
        <ele>361</ele>
        <time>2015-11-15T09:03:54.000Z</time>
      </trkpt>
      <trkpt lat="47.46775" lon="6.74662">
        <ele>361</ele>
        <time>2015-11-15T09:03:55.000Z</time>
      </trkpt>
      <trkpt lat="47.46779" lon="6.74659">
        <ele>361</ele>
        <time>2015-11-15T09:03:56.000Z</time>
      </trkpt>
      <trkpt lat="47.46783" lon="6.74656">
        <ele>360</ele>
        <time>2015-11-15T09:03:57.000Z</time>
      </trkpt>
      <trkpt lat="47.46786" lon="6.74654">
        <ele>360</ele>
        <time>2015-11-15T09:03:58.000Z</time>
      </trkpt>
      <trkpt lat="47.46789" lon="6.74652">
        <ele>360</ele>
        <time>2015-11-15T09:03:59.000Z</time>
      </trkpt>
      <trkpt lat="47.46792" lon="6.7465">
        <ele>360</ele>
        <time>2015-11-15T09:04:00.000Z</time>
      </trkpt>
      <trkpt lat="47.46794" lon="6.74649">
        <ele>360</ele>
        <time>2015-11-15T09:04:01.000Z</time>
      </trkpt>
      <trkpt lat="47.46797" lon="6.74647">
        <ele>359</ele>
        <time>2015-11-15T09:04:02.000Z</time>
      </trkpt>
      <trkpt lat="47.468" lon="6.74646">
        <ele>359</ele>
        <time>2015-11-15T09:04:03.000Z</time>
      </trkpt>
      <trkpt lat="47.46804" lon="6.74644">
        <ele>359</ele>
        <time>2015-11-15T09:04:04.000Z</time>
      </trkpt>
      <trkpt lat="47.46807" lon="6.74643">
        <ele>358</ele>
        <time>2015-11-15T09:04:05.000Z</time>
      </trkpt>
      <trkpt lat="47.46811" lon="6.74641">
        <ele>358</ele>
        <time>2015-11-15T09:04:06.000Z</time>
      </trkpt>
      <trkpt lat="47.46814" lon="6.74639">
        <ele>358</ele>
        <time>2015-11-15T09:04:07.000Z</time>
      </trkpt>
      <trkpt lat="47.46818" lon="6.74636">
        <ele>358</ele>
        <time>2015-11-15T09:04:08.000Z</time>
      </trkpt>
      <trkpt lat="47.46821" lon="6.74634">
        <ele>358</ele>
        <time>2015-11-15T09:04:09.000Z</time>
      </trkpt>
      <trkpt lat="47.46825" lon="6.7463">
        <ele>358</ele>
        <time>2015-11-15T09:04:10.000Z</time>
      </trkpt>
      <trkpt lat="47.46829" lon="6.74626">
        <ele>359</ele>
        <time>2015-11-15T09:04:11.000Z</time>
      </trkpt>
      <trkpt lat="47.46833" lon="6.74622">
        <ele>359</ele>
        <time>2015-11-15T09:04:12.000Z</time>
      </trkpt>
      <trkpt lat="47.46837" lon="6.74618">
        <ele>351</ele>
        <time>2015-11-15T09:04:13.000Z</time>
      </trkpt>
      <trkpt lat="47.4684" lon="6.74614">
        <ele>351</ele>
        <time>2015-11-15T09:04:14.000Z</time>
      </trkpt>
      <trkpt lat="47.46844" lon="6.74611">
        <ele>351</ele>
        <time>2015-11-15T09:04:15.000Z</time>
      </trkpt>
      <trkpt lat="47.46848" lon="6.74607">
        <ele>352</ele>
        <time>2015-11-15T09:04:16.000Z</time>
      </trkpt>
      <trkpt lat="47.46857" lon="6.74602">
        <ele>351</ele>
        <time>2015-11-15T09:04:17.000Z</time>
      </trkpt>
      <trkpt lat="47.46861" lon="6.74597">
        <ele>351</ele>
        <time>2015-11-15T09:04:18.000Z</time>
      </trkpt>
      <trkpt lat="47.46864" lon="6.74594">
        <ele>351</ele>
        <time>2015-11-15T09:04:19.000Z</time>
      </trkpt>
      <trkpt lat="47.4687" lon="6.74591">
        <ele>350</ele>
        <time>2015-11-15T09:04:20.000Z</time>
      </trkpt>
      <trkpt lat="47.46875" lon="6.74589">
        <ele>350</ele>
        <time>2015-11-15T09:04:21.000Z</time>
      </trkpt>
      <trkpt lat="47.46879" lon="6.74586">
        <ele>349</ele>
        <time>2015-11-15T09:04:22.000Z</time>
      </trkpt>
      <trkpt lat="47.46884" lon="6.74585">
        <ele>349</ele>
        <time>2015-11-15T09:04:23.000Z</time>
      </trkpt>
      <trkpt lat="47.46889" lon="6.74583">
        <ele>354</ele>
        <time>2015-11-15T09:04:24.000Z</time>
      </trkpt>
      <trkpt lat="47.46894" lon="6.74582">
        <ele>353</ele>
        <time>2015-11-15T09:04:25.000Z</time>
      </trkpt>
      <trkpt lat="47.46899" lon="6.74581">
        <ele>352</ele>
        <time>2015-11-15T09:04:26.000Z</time>
      </trkpt>
      <trkpt lat="47.46904" lon="6.7458">
        <ele>351</ele>
        <time>2015-11-15T09:04:27.000Z</time>
      </trkpt>
      <trkpt lat="47.46908" lon="6.74578">
        <ele>351</ele>
        <time>2015-11-15T09:04:28.000Z</time>
      </trkpt>
      <trkpt lat="47.46912" lon="6.74577">
        <ele>350</ele>
        <time>2015-11-15T09:04:29.000Z</time>
      </trkpt>
      <trkpt lat="47.46914" lon="6.74575">
        <ele>350</ele>
        <time>2015-11-15T09:04:30.000Z</time>
      </trkpt>
      <trkpt lat="47.46918" lon="6.74573">
        <ele>347</ele>
        <time>2015-11-15T09:04:31.000Z</time>
      </trkpt>
      <trkpt lat="47.46922" lon="6.74571">
        <ele>347</ele>
        <time>2015-11-15T09:04:32.000Z</time>
      </trkpt>
      <trkpt lat="47.46925" lon="6.74569">
        <ele>347</ele>
        <time>2015-11-15T09:04:33.000Z</time>
      </trkpt>
      <trkpt lat="47.46929" lon="6.74568">
        <ele>347</ele>
        <time>2015-11-15T09:04:34.000Z</time>
      </trkpt>
      <trkpt lat="47.46933" lon="6.74566">
        <ele>347</ele>
        <time>2015-11-15T09:04:35.000Z</time>
      </trkpt>
      <trkpt lat="47.46937" lon="6.74564">
        <ele>347</ele>
        <time>2015-11-15T09:04:36.000Z</time>
      </trkpt>
      <trkpt lat="47.46941" lon="6.74563">
        <ele>347</ele>
        <time>2015-11-15T09:04:37.000Z</time>
      </trkpt>
      <trkpt lat="47.46947" lon="6.74563">
        <ele>347</ele>
        <time>2015-11-15T09:04:38.000Z</time>
      </trkpt>
      <trkpt lat="47.46951" lon="6.74562">
        <ele>347</ele>
        <time>2015-11-15T09:04:39.000Z</time>
      </trkpt>
      <trkpt lat="47.46955" lon="6.74561">
        <ele>347</ele>
        <time>2015-11-15T09:04:40.000Z</time>
      </trkpt>
      <trkpt lat="47.4696" lon="6.74561">
        <ele>347</ele>
        <time>2015-11-15T09:04:41.000Z</time>
      </trkpt>
      <trkpt lat="47.46965" lon="6.74561">
        <ele>347</ele>
        <time>2015-11-15T09:04:42.000Z</time>
      </trkpt>
      <trkpt lat="47.4697" lon="6.74561">
        <ele>347</ele>
        <time>2015-11-15T09:04:43.000Z</time>
      </trkpt>
      <trkpt lat="47.46975" lon="6.74561">
        <ele>347</ele>
        <time>2015-11-15T09:04:44.000Z</time>
      </trkpt>
      <trkpt lat="47.46981" lon="6.74562">
        <ele>346</ele>
        <time>2015-11-15T09:04:45.000Z</time>
      </trkpt>
      <trkpt lat="47.46986" lon="6.74562">
        <ele>346</ele>
        <time>2015-11-15T09:04:46.000Z</time>
      </trkpt>
      <trkpt lat="47.46992" lon="6.74563">
        <ele>346</ele>
        <time>2015-11-15T09:04:47.000Z</time>
      </trkpt>
      <trkpt lat="47.46997" lon="6.74563">
        <ele>346</ele>
        <time>2015-11-15T09:04:48.000Z</time>
      </trkpt>
      <trkpt lat="47.47002" lon="6.74563">
        <ele>344</ele>
        <time>2015-11-15T09:04:49.000Z</time>
      </trkpt>
      <trkpt lat="47.47008" lon="6.74563">
        <ele>344</ele>
        <time>2015-11-15T09:04:50.000Z</time>
      </trkpt>
      <trkpt lat="47.47013" lon="6.74563">
        <ele>343</ele>
        <time>2015-11-15T09:04:51.000Z</time>
      </trkpt>
      <trkpt lat="47.47019" lon="6.74562">
        <ele>343</ele>
        <time>2015-11-15T09:04:52.000Z</time>
      </trkpt>
      <trkpt lat="47.47024" lon="6.74562">
        <ele>343</ele>
        <time>2015-11-15T09:04:53.000Z</time>
      </trkpt>
      <trkpt lat="47.47029" lon="6.74561">
        <ele>343</ele>
        <time>2015-11-15T09:04:54.000Z</time>
      </trkpt>
      <trkpt lat="47.47034" lon="6.74561">
        <ele>343</ele>
        <time>2015-11-15T09:04:55.000Z</time>
      </trkpt>
      <trkpt lat="47.47039" lon="6.74564">
        <ele>343</ele>
        <time>2015-11-15T09:04:56.000Z</time>
      </trkpt>
      <trkpt lat="47.47042" lon="6.74569">
        <ele>343</ele>
        <time>2015-11-15T09:04:57.000Z</time>
      </trkpt>
      <trkpt lat="47.47043" lon="6.74576">
        <ele>343</ele>
        <time>2015-11-15T09:04:58.000Z</time>
      </trkpt>
      <trkpt lat="47.47042" lon="6.74582">
        <ele>343</ele>
        <time>2015-11-15T09:04:59.000Z</time>
      </trkpt>
      <trkpt lat="47.4704" lon="6.74588">
        <ele>341</ele>
        <time>2015-11-15T09:05:00.000Z</time>
      </trkpt>
      <trkpt lat="47.47037" lon="6.74593">
        <ele>341</ele>
        <time>2015-11-15T09:05:01.000Z</time>
      </trkpt>
      <trkpt lat="47.47034" lon="6.74598">
        <ele>341</ele>
        <time>2015-11-15T09:05:02.000Z</time>
      </trkpt>
      <trkpt lat="47.47031" lon="6.74604">
        <ele>341</ele>
        <time>2015-11-15T09:05:03.000Z</time>
      </trkpt>
      <trkpt lat="47.47028" lon="6.7461">
        <ele>341</ele>
        <time>2015-11-15T09:05:04.000Z</time>
      </trkpt>
      <trkpt lat="47.47026" lon="6.74616">
        <ele>341</ele>
        <time>2015-11-15T09:05:05.000Z</time>
      </trkpt>
      <trkpt lat="47.47023" lon="6.74623">
        <ele>341</ele>
        <time>2015-11-15T09:05:06.000Z</time>
      </trkpt>
      <trkpt lat="47.4702" lon="6.7463">
        <ele>341</ele>
        <time>2015-11-15T09:05:07.000Z</time>
      </trkpt>
      <trkpt lat="47.47017" lon="6.74638">
        <ele>340</ele>
        <time>2015-11-15T09:05:08.000Z</time>
      </trkpt>
      <trkpt lat="47.47014" lon="6.74646">
        <ele>340</ele>
        <time>2015-11-15T09:05:09.000Z</time>
      </trkpt>
      <trkpt lat="47.47011" lon="6.74654">
        <ele>339</ele>
        <time>2015-11-15T09:05:10.000Z</time>
      </trkpt>
      <trkpt lat="47.47009" lon="6.74663">
        <ele>339</ele>
        <time>2015-11-15T09:05:11.000Z</time>
      </trkpt>
      <trkpt lat="47.47006" lon="6.74673">
        <ele>338</ele>
        <time>2015-11-15T09:05:12.000Z</time>
      </trkpt>
      <trkpt lat="47.47004" lon="6.74685">
        <ele>338</ele>
        <time>2015-11-15T09:05:13.000Z</time>
      </trkpt>
      <trkpt lat="47.47002" lon="6.74697">
        <ele>337</ele>
        <time>2015-11-15T09:05:14.000Z</time>
      </trkpt>
      <trkpt lat="47.47" lon="6.74709">
        <ele>337</ele>
        <time>2015-11-15T09:05:15.000Z</time>
      </trkpt>
      <trkpt lat="47.46998" lon="6.74722">
        <ele>336</ele>
        <time>2015-11-15T09:05:16.000Z</time>
      </trkpt>
      <trkpt lat="47.46997" lon="6.74734">
        <ele>336</ele>
        <time>2015-11-15T09:05:17.000Z</time>
      </trkpt>
      <trkpt lat="47.46996" lon="6.74747">
        <ele>335</ele>
        <time>2015-11-15T09:05:18.000Z</time>
      </trkpt>
      <trkpt lat="47.46996" lon="6.7476">
        <ele>335</ele>
        <time>2015-11-15T09:05:19.000Z</time>
      </trkpt>
      <trkpt lat="47.46996" lon="6.74772">
        <ele>335</ele>
        <time>2015-11-15T09:05:20.000Z</time>
      </trkpt>
      <trkpt lat="47.46996" lon="6.74784">
        <ele>335</ele>
        <time>2015-11-15T09:05:21.000Z</time>
      </trkpt>
      <trkpt lat="47.46996" lon="6.74796">
        <ele>335</ele>
        <time>2015-11-15T09:05:22.000Z</time>
      </trkpt>
      <trkpt lat="47.46997" lon="6.74809">
        <ele>334</ele>
        <time>2015-11-15T09:05:23.000Z</time>
      </trkpt>
      <trkpt lat="47.46997" lon="6.74821">
        <ele>334</ele>
        <time>2015-11-15T09:05:24.000Z</time>
      </trkpt>
      <trkpt lat="47.46996" lon="6.74833">
        <ele>333</ele>
        <time>2015-11-15T09:05:25.000Z</time>
      </trkpt>
      <trkpt lat="47.46996" lon="6.74845">
        <ele>333</ele>
        <time>2015-11-15T09:05:26.000Z</time>
      </trkpt>
      <trkpt lat="47.46996" lon="6.74857">
        <ele>333</ele>
        <time>2015-11-15T09:05:27.000Z</time>
      </trkpt>
      <trkpt lat="47.46996" lon="6.74868">
        <ele>333</ele>
        <time>2015-11-15T09:05:28.000Z</time>
      </trkpt>
      <trkpt lat="47.46996" lon="6.74879">
        <ele>333</ele>
        <time>2015-11-15T09:05:29.000Z</time>
      </trkpt>
      <trkpt lat="47.46996" lon="6.74891">
        <ele>333</ele>
        <time>2015-11-15T09:05:30.000Z</time>
      </trkpt>
      <trkpt lat="47.46995" lon="6.74902">
        <ele>332</ele>
        <time>2015-11-15T09:05:31.000Z</time>
      </trkpt>
      <trkpt lat="47.46996" lon="6.74914">
        <ele>332</ele>
        <time>2015-11-15T09:05:32.000Z</time>
      </trkpt>
      <trkpt lat="47.46995" lon="6.74925">
        <ele>332</ele>
        <time>2015-11-15T09:05:33.000Z</time>
      </trkpt>
      <trkpt lat="47.46995" lon="6.74936">
        <ele>332</ele>
        <time>2015-11-15T09:05:34.000Z</time>
      </trkpt>
      <trkpt lat="47.46995" lon="6.74947">
        <ele>332</ele>
        <time>2015-11-15T09:05:35.000Z</time>
      </trkpt>
      <trkpt lat="47.46995" lon="6.74958">
        <ele>332</ele>
        <time>2015-11-15T09:05:36.000Z</time>
      </trkpt>
      <trkpt lat="47.46995" lon="6.74968">
        <ele>332</ele>
        <time>2015-11-15T09:05:37.000Z</time>
      </trkpt>
      <trkpt lat="47.46994" lon="6.74979">
        <ele>332</ele>
        <time>2015-11-15T09:05:38.000Z</time>
      </trkpt>
      <trkpt lat="47.46994" lon="6.74989">
        <ele>332</ele>
        <time>2015-11-15T09:05:39.000Z</time>
      </trkpt>
      <trkpt lat="47.46994" lon="6.74998">
        <ele>331</ele>
        <time>2015-11-15T09:05:40.000Z</time>
      </trkpt>
      <trkpt lat="47.46995" lon="6.75008">
        <ele>332</ele>
        <time>2015-11-15T09:05:41.000Z</time>
      </trkpt>
      <trkpt lat="47.46995" lon="6.75017">
        <ele>332</ele>
        <time>2015-11-15T09:05:42.000Z</time>
      </trkpt>
      <trkpt lat="47.46997" lon="6.75026">
        <ele>333</ele>
        <time>2015-11-15T09:05:43.000Z</time>
      </trkpt>
      <trkpt lat="47.46998" lon="6.75035">
        <ele>333</ele>
        <time>2015-11-15T09:05:44.000Z</time>
      </trkpt>
      <trkpt lat="47.47" lon="6.75044">
        <ele>333</ele>
        <time>2015-11-15T09:05:45.000Z</time>
      </trkpt>
      <trkpt lat="47.47001" lon="6.75052">
        <ele>332</ele>
        <time>2015-11-15T09:05:46.000Z</time>
      </trkpt>
      <trkpt lat="47.47003" lon="6.7506">
        <ele>332</ele>
        <time>2015-11-15T09:05:47.000Z</time>
      </trkpt>
      <trkpt lat="47.47005" lon="6.75068">
        <ele>332</ele>
        <time>2015-11-15T09:05:48.000Z</time>
      </trkpt>
      <trkpt lat="47.47006" lon="6.75076">
        <ele>333</ele>
        <time>2015-11-15T09:05:49.000Z</time>
      </trkpt>
      <trkpt lat="47.47008" lon="6.75084">
        <ele>333</ele>
        <time>2015-11-15T09:05:50.000Z</time>
      </trkpt>
      <trkpt lat="47.4701" lon="6.75092">
        <ele>333</ele>
        <time>2015-11-15T09:05:51.000Z</time>
      </trkpt>
      <trkpt lat="47.47012" lon="6.75099">
        <ele>333</ele>
        <time>2015-11-15T09:05:52.000Z</time>
      </trkpt>
      <trkpt lat="47.47013" lon="6.75107">
        <ele>333</ele>
        <time>2015-11-15T09:05:53.000Z</time>
      </trkpt>
      <trkpt lat="47.47015" lon="6.75114">
        <ele>333</ele>
        <time>2015-11-15T09:05:54.000Z</time>
      </trkpt>
      <trkpt lat="47.47016" lon="6.75121">
        <ele>333</ele>
        <time>2015-11-15T09:05:55.000Z</time>
      </trkpt>
      <trkpt lat="47.47018" lon="6.75128">
        <ele>333</ele>
        <time>2015-11-15T09:05:56.000Z</time>
      </trkpt>
      <trkpt lat="47.47019" lon="6.75136">
        <ele>333</ele>
        <time>2015-11-15T09:05:57.000Z</time>
      </trkpt>
      <trkpt lat="47.47021" lon="6.75142">
        <ele>333</ele>
        <time>2015-11-15T09:05:58.000Z</time>
      </trkpt>
      <trkpt lat="47.47022" lon="6.75149">
        <ele>333</ele>
        <time>2015-11-15T09:05:59.000Z</time>
      </trkpt>
      <trkpt lat="47.47024" lon="6.75156">
        <ele>333</ele>
        <time>2015-11-15T09:06:00.000Z</time>
      </trkpt>
      <trkpt lat="47.47026" lon="6.75163">
        <ele>333</ele>
        <time>2015-11-15T09:06:01.000Z</time>
      </trkpt>
      <trkpt lat="47.47028" lon="6.75171">
        <ele>333</ele>
        <time>2015-11-15T09:06:02.000Z</time>
      </trkpt>
      <trkpt lat="47.4703" lon="6.75178">
        <ele>333</ele>
        <time>2015-11-15T09:06:03.000Z</time>
      </trkpt>
      <trkpt lat="47.47032" lon="6.75185">
        <ele>332</ele>
        <time>2015-11-15T09:06:04.000Z</time>
      </trkpt>
      <trkpt lat="47.47033" lon="6.75193">
        <ele>332</ele>
        <time>2015-11-15T09:06:05.000Z</time>
      </trkpt>
      <trkpt lat="47.47035" lon="6.75201">
        <ele>332</ele>
        <time>2015-11-15T09:06:06.000Z</time>
      </trkpt>
      <trkpt lat="47.47037" lon="6.75209">
        <ele>332</ele>
        <time>2015-11-15T09:06:07.000Z</time>
      </trkpt>
      <trkpt lat="47.47039" lon="6.75217">
        <ele>332</ele>
        <time>2015-11-15T09:06:08.000Z</time>
      </trkpt>
      <trkpt lat="47.47041" lon="6.75225">
        <ele>332</ele>
        <time>2015-11-15T09:06:09.000Z</time>
      </trkpt>
      <trkpt lat="47.47043" lon="6.75234">
        <ele>332</ele>
        <time>2015-11-15T09:06:10.000Z</time>
      </trkpt>
      <trkpt lat="47.47045" lon="6.75243">
        <ele>332</ele>
        <time>2015-11-15T09:06:11.000Z</time>
      </trkpt>
      <trkpt lat="47.47047" lon="6.75252">
        <ele>331</ele>
        <time>2015-11-15T09:06:12.000Z</time>
      </trkpt>
      <trkpt lat="47.47049" lon="6.75261">
        <ele>331</ele>
        <time>2015-11-15T09:06:13.000Z</time>
      </trkpt>
      <trkpt lat="47.47051" lon="6.75271">
        <ele>331</ele>
        <time>2015-11-15T09:06:14.000Z</time>
      </trkpt>
      <trkpt lat="47.47052" lon="6.75281">
        <ele>331</ele>
        <time>2015-11-15T09:06:15.000Z</time>
      </trkpt>
      <trkpt lat="47.47053" lon="6.75292">
        <ele>331</ele>
        <time>2015-11-15T09:06:16.000Z</time>
      </trkpt>
      <trkpt lat="47.47054" lon="6.75303">
        <ele>331</ele>
        <time>2015-11-15T09:06:17.000Z</time>
      </trkpt>
      <trkpt lat="47.47054" lon="6.75314">
        <ele>331</ele>
        <time>2015-11-15T09:06:18.000Z</time>
      </trkpt>
      <trkpt lat="47.47055" lon="6.75325">
        <ele>330</ele>
        <time>2015-11-15T09:06:19.000Z</time>
      </trkpt>
      <trkpt lat="47.47056" lon="6.75336">
        <ele>330</ele>
        <time>2015-11-15T09:06:20.000Z</time>
      </trkpt>
      <trkpt lat="47.47056" lon="6.75347">
        <ele>330</ele>
        <time>2015-11-15T09:06:21.000Z</time>
      </trkpt>
      <trkpt lat="47.47056" lon="6.75358">
        <ele>330</ele>
        <time>2015-11-15T09:06:22.000Z</time>
      </trkpt>
      <trkpt lat="47.47057" lon="6.75369">
        <ele>330</ele>
        <time>2015-11-15T09:06:23.000Z</time>
      </trkpt>
      <trkpt lat="47.47057" lon="6.75378">
        <ele>331</ele>
        <time>2015-11-15T09:06:24.000Z</time>
      </trkpt>
      <trkpt lat="47.47057" lon="6.75387">
        <ele>331</ele>
        <time>2015-11-15T09:06:25.000Z</time>
      </trkpt>
      <trkpt lat="47.47054" lon="6.75394">
        <ele>331</ele>
        <time>2015-11-15T09:06:26.000Z</time>
      </trkpt>
      <trkpt lat="47.4705" lon="6.75399">
        <ele>331</ele>
        <time>2015-11-15T09:06:27.000Z</time>
      </trkpt>
      <trkpt lat="47.47046" lon="6.75402">
        <ele>331</ele>
        <time>2015-11-15T09:06:28.000Z</time>
      </trkpt>
      <trkpt lat="47.47042" lon="6.75402">
        <ele>331</ele>
        <time>2015-11-15T09:06:29.000Z</time>
      </trkpt>
      <trkpt lat="47.47037" lon="6.75403">
        <ele>331</ele>
        <time>2015-11-15T09:06:30.000Z</time>
      </trkpt>
      <trkpt lat="47.47033" lon="6.75405">
        <ele>331</ele>
        <time>2015-11-15T09:06:31.000Z</time>
      </trkpt>
      <trkpt lat="47.47028" lon="6.75407">
        <ele>331</ele>
        <time>2015-11-15T09:06:32.000Z</time>
      </trkpt>
      <trkpt lat="47.47024" lon="6.75409">
        <ele>331</ele>
        <time>2015-11-15T09:06:33.000Z</time>
      </trkpt>
      <trkpt lat="47.4702" lon="6.75411">
        <ele>331</ele>
        <time>2015-11-15T09:06:34.000Z</time>
      </trkpt>
      <trkpt lat="47.47015" lon="6.75414">
        <ele>331</ele>
        <time>2015-11-15T09:06:35.000Z</time>
      </trkpt>
      <trkpt lat="47.47011" lon="6.75415">
        <ele>331</ele>
        <time>2015-11-15T09:06:36.000Z</time>
      </trkpt>
      <trkpt lat="47.47007" lon="6.75418">
        <ele>331</ele>
        <time>2015-11-15T09:06:37.000Z</time>
      </trkpt>
      <trkpt lat="47.47002" lon="6.75421">
        <ele>331</ele>
        <time>2015-11-15T09:06:38.000Z</time>
      </trkpt>
      <trkpt lat="47.46998" lon="6.75423">
        <ele>331</ele>
        <time>2015-11-15T09:06:39.000Z</time>
      </trkpt>
      <trkpt lat="47.46994" lon="6.75426">
        <ele>331</ele>
        <time>2015-11-15T09:06:40.000Z</time>
      </trkpt>
      <trkpt lat="47.46989" lon="6.7543">
        <ele>332</ele>
        <time>2015-11-15T09:06:41.000Z</time>
      </trkpt>
      <trkpt lat="47.46985" lon="6.75433">
        <ele>332</ele>
        <time>2015-11-15T09:06:42.000Z</time>
      </trkpt>
      <trkpt lat="47.46981" lon="6.75437">
        <ele>332</ele>
        <time>2015-11-15T09:06:43.000Z</time>
      </trkpt>
      <trkpt lat="47.46977" lon="6.75441">
        <ele>332</ele>
        <time>2015-11-15T09:06:44.000Z</time>
      </trkpt>
      <trkpt lat="47.46974" lon="6.75444">
        <ele>332</ele>
        <time>2015-11-15T09:06:45.000Z</time>
      </trkpt>
      <trkpt lat="47.46969" lon="6.75447">
        <ele>332</ele>
        <time>2015-11-15T09:06:46.000Z</time>
      </trkpt>
      <trkpt lat="47.46965" lon="6.75451">
        <ele>332</ele>
        <time>2015-11-15T09:06:47.000Z</time>
      </trkpt>
      <trkpt lat="47.46962" lon="6.75454">
        <ele>332</ele>
        <time>2015-11-15T09:06:48.000Z</time>
      </trkpt>
      <trkpt lat="47.46957" lon="6.75457">
        <ele>332</ele>
        <time>2015-11-15T09:06:49.000Z</time>
      </trkpt>
      <trkpt lat="47.46954" lon="6.75461">
        <ele>332</ele>
        <time>2015-11-15T09:06:50.000Z</time>
      </trkpt>
      <trkpt lat="47.4695" lon="6.75464">
        <ele>332</ele>
        <time>2015-11-15T09:06:51.000Z</time>
      </trkpt>
      <trkpt lat="47.46946" lon="6.75467">
        <ele>332</ele>
        <time>2015-11-15T09:06:52.000Z</time>
      </trkpt>
      <trkpt lat="47.46942" lon="6.7547">
        <ele>332</ele>
        <time>2015-11-15T09:06:53.000Z</time>
      </trkpt>
      <trkpt lat="47.46938" lon="6.75474">
        <ele>332</ele>
        <time>2015-11-15T09:06:54.000Z</time>
      </trkpt>
      <trkpt lat="47.46934" lon="6.75477">
        <ele>333</ele>
        <time>2015-11-15T09:06:55.000Z</time>
      </trkpt>
      <trkpt lat="47.46931" lon="6.75482">
        <ele>333</ele>
        <time>2015-11-15T09:06:56.000Z</time>
      </trkpt>
      <trkpt lat="47.46927" lon="6.75486">
        <ele>333</ele>
        <time>2015-11-15T09:06:57.000Z</time>
      </trkpt>
      <trkpt lat="47.46924" lon="6.75489">
        <ele>333</ele>
        <time>2015-11-15T09:06:58.000Z</time>
      </trkpt>
      <trkpt lat="47.46921" lon="6.75493">
        <ele>333</ele>
        <time>2015-11-15T09:06:59.000Z</time>
      </trkpt>
      <trkpt lat="47.46918" lon="6.75497">
        <ele>333</ele>
        <time>2015-11-15T09:07:00.000Z</time>
      </trkpt>
      <trkpt lat="47.46915" lon="6.75501">
        <ele>333</ele>
        <time>2015-11-15T09:07:01.000Z</time>
      </trkpt>
      <trkpt lat="47.46912" lon="6.75506">
        <ele>334</ele>
        <time>2015-11-15T09:07:02.000Z</time>
      </trkpt>
      <trkpt lat="47.46909" lon="6.7551">
        <ele>335</ele>
        <time>2015-11-15T09:07:03.000Z</time>
      </trkpt>
      <trkpt lat="47.46906" lon="6.75513">
        <ele>335</ele>
        <time>2015-11-15T09:07:04.000Z</time>
      </trkpt>
      <trkpt lat="47.46903" lon="6.75516">
        <ele>335</ele>
        <time>2015-11-15T09:07:05.000Z</time>
      </trkpt>
      <trkpt lat="47.46901" lon="6.75519">
        <ele>336</ele>
        <time>2015-11-15T09:07:06.000Z</time>
      </trkpt>
      <trkpt lat="47.46898" lon="6.75524">
        <ele>336</ele>
        <time>2015-11-15T09:07:07.000Z</time>
      </trkpt>
      <trkpt lat="47.46895" lon="6.75528">
        <ele>336</ele>
        <time>2015-11-15T09:07:08.000Z</time>
      </trkpt>
      <trkpt lat="47.46893" lon="6.75532">
        <ele>336</ele>
        <time>2015-11-15T09:07:09.000Z</time>
      </trkpt>
      <trkpt lat="47.4689" lon="6.75537">
        <ele>337</ele>
        <time>2015-11-15T09:07:10.000Z</time>
      </trkpt>
      <trkpt lat="47.46885" lon="6.75543">
        <ele>337</ele>
        <time>2015-11-15T09:07:11.000Z</time>
      </trkpt>
      <trkpt lat="47.46883" lon="6.75546">
        <ele>337</ele>
        <time>2015-11-15T09:07:12.000Z</time>
      </trkpt>
      <trkpt lat="47.4688" lon="6.7555">
        <ele>337</ele>
        <time>2015-11-15T09:07:13.000Z</time>
      </trkpt>
      <trkpt lat="47.46876" lon="6.75554">
        <ele>337</ele>
        <time>2015-11-15T09:07:14.000Z</time>
      </trkpt>
      <trkpt lat="47.46871" lon="6.75558">
        <ele>337</ele>
        <time>2015-11-15T09:07:15.000Z</time>
      </trkpt>
      <trkpt lat="47.46868" lon="6.75563">
        <ele>337</ele>
        <time>2015-11-15T09:07:16.000Z</time>
      </trkpt>
      <trkpt lat="47.46865" lon="6.75568">
        <ele>338</ele>
        <time>2015-11-15T09:07:17.000Z</time>
      </trkpt>
      <trkpt lat="47.46863" lon="6.75573">
        <ele>338</ele>
        <time>2015-11-15T09:07:18.000Z</time>
      </trkpt>
      <trkpt lat="47.4686" lon="6.75576">
        <ele>338</ele>
        <time>2015-11-15T09:07:19.000Z</time>
      </trkpt>
      <trkpt lat="47.46858" lon="6.7558">
        <ele>338</ele>
        <time>2015-11-15T09:07:20.000Z</time>
      </trkpt>
      <trkpt lat="47.46856" lon="6.75584">
        <ele>339</ele>
        <time>2015-11-15T09:07:21.000Z</time>
      </trkpt>
      <trkpt lat="47.46854" lon="6.75591">
        <ele>339</ele>
        <time>2015-11-15T09:07:22.000Z</time>
      </trkpt>
      <trkpt lat="47.46852" lon="6.75598">
        <ele>339</ele>
        <time>2015-11-15T09:07:23.000Z</time>
      </trkpt>
      <trkpt lat="47.4685" lon="6.75602">
        <ele>340</ele>
        <time>2015-11-15T09:07:24.000Z</time>
      </trkpt>
      <trkpt lat="47.46849" lon="6.75607">
        <ele>340</ele>
        <time>2015-11-15T09:07:25.000Z</time>
      </trkpt>
      <trkpt lat="47.46846" lon="6.75612">
        <ele>340</ele>
        <time>2015-11-15T09:07:26.000Z</time>
      </trkpt>
      <trkpt lat="47.46844" lon="6.75617">
        <ele>340</ele>
        <time>2015-11-15T09:07:27.000Z</time>
      </trkpt>
      <trkpt lat="47.46842" lon="6.75622">
        <ele>340</ele>
        <time>2015-11-15T09:07:28.000Z</time>
      </trkpt>
      <trkpt lat="47.46839" lon="6.75627">
        <ele>340</ele>
        <time>2015-11-15T09:07:29.000Z</time>
      </trkpt>
      <trkpt lat="47.46837" lon="6.75631">
        <ele>340</ele>
        <time>2015-11-15T09:07:30.000Z</time>
      </trkpt>
      <trkpt lat="47.46835" lon="6.75636">
        <ele>340</ele>
        <time>2015-11-15T09:07:31.000Z</time>
      </trkpt>
      <trkpt lat="47.46834" lon="6.75641">
        <ele>341</ele>
        <time>2015-11-15T09:07:32.000Z</time>
      </trkpt>
      <trkpt lat="47.46833" lon="6.75645">
        <ele>342</ele>
        <time>2015-11-15T09:07:33.000Z</time>
      </trkpt>
      <trkpt lat="47.46831" lon="6.7565">
        <ele>342</ele>
        <time>2015-11-15T09:07:34.000Z</time>
      </trkpt>
      <trkpt lat="47.46829" lon="6.75655">
        <ele>342</ele>
        <time>2015-11-15T09:07:35.000Z</time>
      </trkpt>
      <trkpt lat="47.46828" lon="6.75659">
        <ele>342</ele>
        <time>2015-11-15T09:07:36.000Z</time>
      </trkpt>
      <trkpt lat="47.46826" lon="6.75664">
        <ele>342</ele>
        <time>2015-11-15T09:07:37.000Z</time>
      </trkpt>
      <trkpt lat="47.46824" lon="6.75669">
        <ele>342</ele>
        <time>2015-11-15T09:07:38.000Z</time>
      </trkpt>
      <trkpt lat="47.46823" lon="6.75674">
        <ele>342</ele>
        <time>2015-11-15T09:07:39.000Z</time>
      </trkpt>
      <trkpt lat="47.46821" lon="6.75678">
        <ele>342</ele>
        <time>2015-11-15T09:07:40.000Z</time>
      </trkpt>
      <trkpt lat="47.4682" lon="6.75683">
        <ele>343</ele>
        <time>2015-11-15T09:07:41.000Z</time>
      </trkpt>
      <trkpt lat="47.46819" lon="6.75688">
        <ele>343</ele>
        <time>2015-11-15T09:07:42.000Z</time>
      </trkpt>
      <trkpt lat="47.46818" lon="6.75693">
        <ele>343</ele>
        <time>2015-11-15T09:07:43.000Z</time>
      </trkpt>
      <trkpt lat="47.46817" lon="6.75697">
        <ele>343</ele>
        <time>2015-11-15T09:07:44.000Z</time>
      </trkpt>
      <trkpt lat="47.46816" lon="6.75702">
        <ele>343</ele>
        <time>2015-11-15T09:07:45.000Z</time>
      </trkpt>
      <trkpt lat="47.46816" lon="6.75708">
        <ele>342</ele>
        <time>2015-11-15T09:07:46.000Z</time>
      </trkpt>
      <trkpt lat="47.46816" lon="6.75713">
        <ele>342</ele>
        <time>2015-11-15T09:07:47.000Z</time>
      </trkpt>
      <trkpt lat="47.46815" lon="6.75718">
        <ele>342</ele>
        <time>2015-11-15T09:07:48.000Z</time>
      </trkpt>
      <trkpt lat="47.46815" lon="6.75724">
        <ele>342</ele>
        <time>2015-11-15T09:07:49.000Z</time>
      </trkpt>
      <trkpt lat="47.46814" lon="6.7573">
        <ele>342</ele>
        <time>2015-11-15T09:07:50.000Z</time>
      </trkpt>
      <trkpt lat="47.46813" lon="6.75736">
        <ele>342</ele>
        <time>2015-11-15T09:07:51.000Z</time>
      </trkpt>
      <trkpt lat="47.46812" lon="6.75742">
        <ele>342</ele>
        <time>2015-11-15T09:07:52.000Z</time>
      </trkpt>
      <trkpt lat="47.46811" lon="6.75749">
        <ele>342</ele>
        <time>2015-11-15T09:07:53.000Z</time>
      </trkpt>
      <trkpt lat="47.4681" lon="6.75755">
        <ele>341</ele>
        <time>2015-11-15T09:07:54.000Z</time>
      </trkpt>
      <trkpt lat="47.46809" lon="6.75761">
        <ele>341</ele>
        <time>2015-11-15T09:07:55.000Z</time>
      </trkpt>
      <trkpt lat="47.46808" lon="6.75768">
        <ele>341</ele>
        <time>2015-11-15T09:07:56.000Z</time>
      </trkpt>
      <trkpt lat="47.46806" lon="6.75774">
        <ele>341</ele>
        <time>2015-11-15T09:07:57.000Z</time>
      </trkpt>
      <trkpt lat="47.46805" lon="6.7578">
        <ele>341</ele>
        <time>2015-11-15T09:07:58.000Z</time>
      </trkpt>
      <trkpt lat="47.46804" lon="6.75789">
        <ele>341</ele>
        <time>2015-11-15T09:07:59.000Z</time>
      </trkpt>
      <trkpt lat="47.46803" lon="6.75795">
        <ele>341</ele>
        <time>2015-11-15T09:08:00.000Z</time>
      </trkpt>
      <trkpt lat="47.46802" lon="6.75802">
        <ele>341</ele>
        <time>2015-11-15T09:08:01.000Z</time>
      </trkpt>
      <trkpt lat="47.46802" lon="6.75809">
        <ele>341</ele>
        <time>2015-11-15T09:08:02.000Z</time>
      </trkpt>
      <trkpt lat="47.46802" lon="6.75815">
        <ele>341</ele>
        <time>2015-11-15T09:08:03.000Z</time>
      </trkpt>
      <trkpt lat="47.46802" lon="6.75822">
        <ele>341</ele>
        <time>2015-11-15T09:08:04.000Z</time>
      </trkpt>
      <trkpt lat="47.46802" lon="6.75828">
        <ele>341</ele>
        <time>2015-11-15T09:08:05.000Z</time>
      </trkpt>
      <trkpt lat="47.468" lon="6.75835">
        <ele>340</ele>
        <time>2015-11-15T09:08:06.000Z</time>
      </trkpt>
      <trkpt lat="47.46799" lon="6.75843">
        <ele>340</ele>
        <time>2015-11-15T09:08:07.000Z</time>
      </trkpt>
      <trkpt lat="47.46798" lon="6.75852">
        <ele>340</ele>
        <time>2015-11-15T09:08:08.000Z</time>
      </trkpt>
      <trkpt lat="47.46797" lon="6.7586">
        <ele>340</ele>
        <time>2015-11-15T09:08:09.000Z</time>
      </trkpt>
      <trkpt lat="47.46796" lon="6.75868">
        <ele>340</ele>
        <time>2015-11-15T09:08:10.000Z</time>
      </trkpt>
      <trkpt lat="47.46795" lon="6.75877">
        <ele>339</ele>
        <time>2015-11-15T09:08:11.000Z</time>
      </trkpt>
      <trkpt lat="47.46793" lon="6.75886">
        <ele>339</ele>
        <time>2015-11-15T09:08:12.000Z</time>
      </trkpt>
      <trkpt lat="47.46791" lon="6.75895">
        <ele>339</ele>
        <time>2015-11-15T09:08:13.000Z</time>
      </trkpt>
      <trkpt lat="47.46789" lon="6.75904">
        <ele>339</ele>
        <time>2015-11-15T09:08:14.000Z</time>
      </trkpt>
      <trkpt lat="47.46788" lon="6.75913">
        <ele>339</ele>
        <time>2015-11-15T09:08:15.000Z</time>
      </trkpt>
      <trkpt lat="47.46786" lon="6.75922">
        <ele>337</ele>
        <time>2015-11-15T09:08:16.000Z</time>
      </trkpt>
      <trkpt lat="47.46785" lon="6.75931">
        <ele>337</ele>
        <time>2015-11-15T09:08:17.000Z</time>
      </trkpt>
      <trkpt lat="47.46782" lon="6.7594">
        <ele>337</ele>
        <time>2015-11-15T09:08:18.000Z</time>
      </trkpt>
      <trkpt lat="47.4678" lon="6.75949">
        <ele>336</ele>
        <time>2015-11-15T09:08:19.000Z</time>
      </trkpt>
      <trkpt lat="47.46778" lon="6.75958">
        <ele>336</ele>
        <time>2015-11-15T09:08:20.000Z</time>
      </trkpt>
      <trkpt lat="47.46775" lon="6.75968">
        <ele>336</ele>
        <time>2015-11-15T09:08:21.000Z</time>
      </trkpt>
      <trkpt lat="47.46772" lon="6.75978">
        <ele>336</ele>
        <time>2015-11-15T09:08:22.000Z</time>
      </trkpt>
      <trkpt lat="47.4677" lon="6.75987">
        <ele>336</ele>
        <time>2015-11-15T09:08:23.000Z</time>
      </trkpt>
      <trkpt lat="47.46767" lon="6.75995">
        <ele>335</ele>
        <time>2015-11-15T09:08:24.000Z</time>
      </trkpt>
      <trkpt lat="47.46763" lon="6.76001">
        <ele>333</ele>
        <time>2015-11-15T09:08:25.000Z</time>
      </trkpt>
      <trkpt lat="47.46758" lon="6.76004">
        <ele>334</ele>
        <time>2015-11-15T09:08:26.000Z</time>
      </trkpt>
      <trkpt lat="47.46754" lon="6.76006">
        <ele>334</ele>
        <time>2015-11-15T09:08:27.000Z</time>
      </trkpt>
      <trkpt lat="47.46754" lon="6.7601">
        <ele>334</ele>
        <time>2015-11-15T09:08:28.000Z</time>
      </trkpt>
      <trkpt lat="47.46753" lon="6.76015">
        <ele>333</ele>
        <time>2015-11-15T09:08:29.000Z</time>
      </trkpt>
      <trkpt lat="47.46754" lon="6.7602">
        <ele>333</ele>
        <time>2015-11-15T09:08:30.000Z</time>
      </trkpt>
      <trkpt lat="47.46762" lon="6.76028">
        <ele>332</ele>
        <time>2015-11-15T09:08:31.000Z</time>
      </trkpt>
      <trkpt lat="47.46766" lon="6.76037">
        <ele>331</ele>
        <time>2015-11-15T09:08:32.000Z</time>
      </trkpt>
      <trkpt lat="47.46768" lon="6.76047">
        <ele>331</ele>
        <time>2015-11-15T09:08:33.000Z</time>
      </trkpt>
      <trkpt lat="47.46762" lon="6.76058">
        <ele>330</ele>
        <time>2015-11-15T09:08:34.000Z</time>
      </trkpt>
      <trkpt lat="47.46758" lon="6.76067">
        <ele>330</ele>
        <time>2015-11-15T09:08:35.000Z</time>
      </trkpt>
      <trkpt lat="47.46754" lon="6.76076">
        <ele>330</ele>
        <time>2015-11-15T09:08:36.000Z</time>
      </trkpt>
      <trkpt lat="47.46752" lon="6.76085">
        <ele>329</ele>
        <time>2015-11-15T09:08:37.000Z</time>
      </trkpt>
      <trkpt lat="47.46751" lon="6.76096">
        <ele>328</ele>
        <time>2015-11-15T09:08:38.000Z</time>
      </trkpt>
      <trkpt lat="47.4675" lon="6.76106">
        <ele>329</ele>
        <time>2015-11-15T09:08:39.000Z</time>
      </trkpt>
      <trkpt lat="47.46748" lon="6.76116">
        <ele>329</ele>
        <time>2015-11-15T09:08:40.000Z</time>
      </trkpt>
      <trkpt lat="47.46747" lon="6.76125">
        <ele>329</ele>
        <time>2015-11-15T09:08:41.000Z</time>
      </trkpt>
      <trkpt lat="47.46746" lon="6.76134">
        <ele>328</ele>
        <time>2015-11-15T09:08:42.000Z</time>
      </trkpt>
      <trkpt lat="47.46745" lon="6.76142">
        <ele>328</ele>
        <time>2015-11-15T09:08:43.000Z</time>
      </trkpt>
      <trkpt lat="47.46743" lon="6.76149">
        <ele>328</ele>
        <time>2015-11-15T09:08:44.000Z</time>
      </trkpt>
      <trkpt lat="47.46741" lon="6.76157">
        <ele>327</ele>
        <time>2015-11-15T09:08:45.000Z</time>
      </trkpt>
      <trkpt lat="47.46741" lon="6.76165">
        <ele>327</ele>
        <time>2015-11-15T09:08:46.000Z</time>
      </trkpt>
      <trkpt lat="47.4674" lon="6.76174">
        <ele>326</ele>
        <time>2015-11-15T09:08:47.000Z</time>
      </trkpt>
      <trkpt lat="47.46738" lon="6.76182">
        <ele>325</ele>
        <time>2015-11-15T09:08:48.000Z</time>
      </trkpt>
      <trkpt lat="47.46737" lon="6.7619">
        <ele>325</ele>
        <time>2015-11-15T09:08:49.000Z</time>
      </trkpt>
      <trkpt lat="47.46736" lon="6.76197">
        <ele>325</ele>
        <time>2015-11-15T09:08:50.000Z</time>
      </trkpt>
      <trkpt lat="47.46734" lon="6.76205">
        <ele>325</ele>
        <time>2015-11-15T09:08:51.000Z</time>
      </trkpt>
      <trkpt lat="47.46733" lon="6.76213">
        <ele>325</ele>
        <time>2015-11-15T09:08:52.000Z</time>
      </trkpt>
      <trkpt lat="47.46732" lon="6.7622">
        <ele>325</ele>
        <time>2015-11-15T09:08:53.000Z</time>
      </trkpt>
      <trkpt lat="47.46731" lon="6.76227">
        <ele>325</ele>
        <time>2015-11-15T09:08:54.000Z</time>
      </trkpt>
      <trkpt lat="47.4673" lon="6.76234">
        <ele>325</ele>
        <time>2015-11-15T09:08:55.000Z</time>
      </trkpt>
      <trkpt lat="47.4673" lon="6.76241">
        <ele>325</ele>
        <time>2015-11-15T09:08:56.000Z</time>
      </trkpt>
      <trkpt lat="47.46729" lon="6.76248">
        <ele>325</ele>
        <time>2015-11-15T09:08:57.000Z</time>
      </trkpt>
      <trkpt lat="47.46728" lon="6.76255">
        <ele>325</ele>
        <time>2015-11-15T09:08:58.000Z</time>
      </trkpt>
      <trkpt lat="47.46727" lon="6.76262">
        <ele>325</ele>
        <time>2015-11-15T09:08:59.000Z</time>
      </trkpt>
      <trkpt lat="47.46727" lon="6.76269">
        <ele>325</ele>
        <time>2015-11-15T09:09:00.000Z</time>
      </trkpt>
      <trkpt lat="47.46728" lon="6.76276">
        <ele>325</ele>
        <time>2015-11-15T09:09:01.000Z</time>
      </trkpt>
      <trkpt lat="47.46728" lon="6.76282">
        <ele>325</ele>
        <time>2015-11-15T09:09:02.000Z</time>
      </trkpt>
      <trkpt lat="47.4673" lon="6.76286">
        <ele>325</ele>
        <time>2015-11-15T09:09:03.000Z</time>
      </trkpt>
      <trkpt lat="47.46734" lon="6.76288">
        <ele>325</ele>
        <time>2015-11-15T09:09:04.000Z</time>
      </trkpt>
      <trkpt lat="47.46738" lon="6.76289">
        <ele>325</ele>
        <time>2015-11-15T09:09:05.000Z</time>
      </trkpt>
      <trkpt lat="47.46743" lon="6.76289">
        <ele>325</ele>
        <time>2015-11-15T09:09:06.000Z</time>
      </trkpt>
      <trkpt lat="47.46748" lon="6.76289">
        <ele>326</ele>
        <time>2015-11-15T09:09:07.000Z</time>
      </trkpt>
      <trkpt lat="47.46752" lon="6.7629">
        <ele>325</ele>
        <time>2015-11-15T09:09:08.000Z</time>
      </trkpt>
      <trkpt lat="47.46758" lon="6.7629">
        <ele>325</ele>
        <time>2015-11-15T09:09:09.000Z</time>
      </trkpt>
      <trkpt lat="47.46763" lon="6.7629">
        <ele>325</ele>
        <time>2015-11-15T09:09:10.000Z</time>
      </trkpt>
      <trkpt lat="47.46767" lon="6.7629">
        <ele>325</ele>
        <time>2015-11-15T09:09:11.000Z</time>
      </trkpt>
      <trkpt lat="47.46772" lon="6.7629">
        <ele>325</ele>
        <time>2015-11-15T09:09:12.000Z</time>
      </trkpt>
      <trkpt lat="47.46777" lon="6.76288">
        <ele>325</ele>
        <time>2015-11-15T09:09:13.000Z</time>
      </trkpt>
      <trkpt lat="47.46782" lon="6.76286">
        <ele>324</ele>
        <time>2015-11-15T09:09:14.000Z</time>
      </trkpt>
      <trkpt lat="47.46788" lon="6.76294">
        <ele>324</ele>
        <time>2015-11-15T09:09:15.000Z</time>
      </trkpt>
      <trkpt lat="47.46795" lon="6.76299">
        <ele>324</ele>
        <time>2015-11-15T09:09:16.000Z</time>
      </trkpt>
      <trkpt lat="47.46799" lon="6.76301">
        <ele>324</ele>
        <time>2015-11-15T09:09:17.000Z</time>
      </trkpt>
      <trkpt lat="47.46803" lon="6.76302">
        <ele>324</ele>
        <time>2015-11-15T09:09:18.000Z</time>
      </trkpt>
      <trkpt lat="47.46808" lon="6.76302">
        <ele>324</ele>
        <time>2015-11-15T09:09:19.000Z</time>
      </trkpt>
      <trkpt lat="47.46815" lon="6.76303">
        <ele>324</ele>
        <time>2015-11-15T09:09:20.000Z</time>
      </trkpt>
      <trkpt lat="47.4682" lon="6.76306">
        <ele>323</ele>
        <time>2015-11-15T09:09:21.000Z</time>
      </trkpt>
      <trkpt lat="47.46825" lon="6.76306">
        <ele>323</ele>
        <time>2015-11-15T09:09:22.000Z</time>
      </trkpt>
      <trkpt lat="47.46829" lon="6.7631">
        <ele>323</ele>
        <time>2015-11-15T09:09:23.000Z</time>
      </trkpt>
      <trkpt lat="47.46834" lon="6.76314">
        <ele>322</ele>
        <time>2015-11-15T09:09:24.000Z</time>
      </trkpt>
      <trkpt lat="47.46839" lon="6.76318">
        <ele>322</ele>
        <time>2015-11-15T09:09:25.000Z</time>
      </trkpt>
      <trkpt lat="47.46843" lon="6.76321">
        <ele>322</ele>
        <time>2015-11-15T09:09:26.000Z</time>
      </trkpt>
      <trkpt lat="47.46848" lon="6.76324">
        <ele>322</ele>
        <time>2015-11-15T09:09:27.000Z</time>
      </trkpt>
      <trkpt lat="47.46853" lon="6.76326">
        <ele>322</ele>
        <time>2015-11-15T09:09:28.000Z</time>
      </trkpt>
      <trkpt lat="47.46858" lon="6.76327">
        <ele>321</ele>
        <time>2015-11-15T09:09:29.000Z</time>
      </trkpt>
      <trkpt lat="47.46862" lon="6.76327">
        <ele>321</ele>
        <time>2015-11-15T09:09:30.000Z</time>
      </trkpt>
      <trkpt lat="47.46866" lon="6.76327">
        <ele>321</ele>
        <time>2015-11-15T09:09:31.000Z</time>
      </trkpt>
      <trkpt lat="47.46871" lon="6.76329">
        <ele>321</ele>
        <time>2015-11-15T09:09:32.000Z</time>
      </trkpt>
      <trkpt lat="47.46876" lon="6.76328">
        <ele>321</ele>
        <time>2015-11-15T09:09:33.000Z</time>
      </trkpt>
      <trkpt lat="47.46882" lon="6.76327">
        <ele>321</ele>
        <time>2015-11-15T09:09:34.000Z</time>
      </trkpt>
      <trkpt lat="47.46886" lon="6.76326">
        <ele>321</ele>
        <time>2015-11-15T09:09:35.000Z</time>
      </trkpt>
      <trkpt lat="47.46891" lon="6.76325">
        <ele>321</ele>
        <time>2015-11-15T09:09:36.000Z</time>
      </trkpt>
      <trkpt lat="47.46897" lon="6.76324">
        <ele>321</ele>
        <time>2015-11-15T09:09:37.000Z</time>
      </trkpt>
      <trkpt lat="47.46902" lon="6.76323">
        <ele>321</ele>
        <time>2015-11-15T09:09:38.000Z</time>
      </trkpt>
      <trkpt lat="47.46908" lon="6.76323">
        <ele>321</ele>
        <time>2015-11-15T09:09:39.000Z</time>
      </trkpt>
      <trkpt lat="47.46914" lon="6.76324">
        <ele>320</ele>
        <time>2015-11-15T09:09:40.000Z</time>
      </trkpt>
      <trkpt lat="47.46919" lon="6.76324">
        <ele>320</ele>
        <time>2015-11-15T09:09:41.000Z</time>
      </trkpt>
      <trkpt lat="47.46924" lon="6.76326">
        <ele>320</ele>
        <time>2015-11-15T09:09:42.000Z</time>
      </trkpt>
      <trkpt lat="47.46929" lon="6.76326">
        <ele>320</ele>
        <time>2015-11-15T09:09:43.000Z</time>
      </trkpt>
      <trkpt lat="47.46934" lon="6.76326">
        <ele>320</ele>
        <time>2015-11-15T09:09:44.000Z</time>
      </trkpt>
      <trkpt lat="47.46939" lon="6.76327">
        <ele>320</ele>
        <time>2015-11-15T09:09:45.000Z</time>
      </trkpt>
      <trkpt lat="47.46945" lon="6.76328">
        <ele>320</ele>
        <time>2015-11-15T09:09:46.000Z</time>
      </trkpt>
      <trkpt lat="47.4695" lon="6.76328">
        <ele>319</ele>
        <time>2015-11-15T09:09:47.000Z</time>
      </trkpt>
      <trkpt lat="47.46955" lon="6.76328">
        <ele>319</ele>
        <time>2015-11-15T09:09:48.000Z</time>
      </trkpt>
      <trkpt lat="47.46961" lon="6.76328">
        <ele>319</ele>
        <time>2015-11-15T09:09:49.000Z</time>
      </trkpt>
      <trkpt lat="47.46966" lon="6.76329">
        <ele>319</ele>
        <time>2015-11-15T09:09:50.000Z</time>
      </trkpt>
      <trkpt lat="47.46972" lon="6.76331">
        <ele>319</ele>
        <time>2015-11-15T09:09:51.000Z</time>
      </trkpt>
      <trkpt lat="47.46978" lon="6.76333">
        <ele>319</ele>
        <time>2015-11-15T09:09:52.000Z</time>
      </trkpt>
      <trkpt lat="47.46983" lon="6.76334">
        <ele>319</ele>
        <time>2015-11-15T09:09:53.000Z</time>
      </trkpt>
      <trkpt lat="47.46989" lon="6.76334">
        <ele>319</ele>
        <time>2015-11-15T09:09:54.000Z</time>
      </trkpt>
      <trkpt lat="47.46995" lon="6.76335">
        <ele>318</ele>
        <time>2015-11-15T09:09:55.000Z</time>
      </trkpt>
      <trkpt lat="47.47001" lon="6.76337">
        <ele>318</ele>
        <time>2015-11-15T09:09:56.000Z</time>
      </trkpt>
      <trkpt lat="47.47007" lon="6.76339">
        <ele>318</ele>
        <time>2015-11-15T09:09:57.000Z</time>
      </trkpt>
      <trkpt lat="47.47013" lon="6.7634">
        <ele>318</ele>
        <time>2015-11-15T09:09:58.000Z</time>
      </trkpt>
      <trkpt lat="47.47019" lon="6.76341">
        <ele>318</ele>
        <time>2015-11-15T09:09:59.000Z</time>
      </trkpt>
      <trkpt lat="47.47026" lon="6.76342">
        <ele>318</ele>
        <time>2015-11-15T09:10:00.000Z</time>
      </trkpt>
      <trkpt lat="47.47032" lon="6.76343">
        <ele>318</ele>
        <time>2015-11-15T09:10:01.000Z</time>
      </trkpt>
      <trkpt lat="47.47039" lon="6.76345">
        <ele>318</ele>
        <time>2015-11-15T09:10:02.000Z</time>
      </trkpt>
      <trkpt lat="47.47045" lon="6.76346">
        <ele>317</ele>
        <time>2015-11-15T09:10:03.000Z</time>
      </trkpt>
      <trkpt lat="47.47051" lon="6.76348">
        <ele>317</ele>
        <time>2015-11-15T09:10:04.000Z</time>
      </trkpt>
      <trkpt lat="47.47058" lon="6.76349">
        <ele>317</ele>
        <time>2015-11-15T09:10:05.000Z</time>
      </trkpt>
      <trkpt lat="47.47064" lon="6.7635">
        <ele>317</ele>
        <time>2015-11-15T09:10:06.000Z</time>
      </trkpt>
      <trkpt lat="47.4707" lon="6.76352">
        <ele>317</ele>
        <time>2015-11-15T09:10:07.000Z</time>
      </trkpt>
      <trkpt lat="47.47078" lon="6.76353">
        <ele>317</ele>
        <time>2015-11-15T09:10:08.000Z</time>
      </trkpt>
      <trkpt lat="47.47084" lon="6.76355">
        <ele>317</ele>
        <time>2015-11-15T09:10:09.000Z</time>
      </trkpt>
      <trkpt lat="47.4709" lon="6.76357">
        <ele>317</ele>
        <time>2015-11-15T09:10:10.000Z</time>
      </trkpt>
      <trkpt lat="47.47096" lon="6.76359">
        <ele>317</ele>
        <time>2015-11-15T09:10:11.000Z</time>
      </trkpt>
      <trkpt lat="47.47102" lon="6.76361">
        <ele>317</ele>
        <time>2015-11-15T09:10:12.000Z</time>
      </trkpt>
      <trkpt lat="47.47108" lon="6.76362">
        <ele>317</ele>
        <time>2015-11-15T09:10:13.000Z</time>
      </trkpt>
      <trkpt lat="47.47114" lon="6.76364">
        <ele>317</ele>
        <time>2015-11-15T09:10:14.000Z</time>
      </trkpt>
      <trkpt lat="47.4712" lon="6.76365">
        <ele>317</ele>
        <time>2015-11-15T09:10:15.000Z</time>
      </trkpt>
      <trkpt lat="47.47125" lon="6.76367">
        <ele>317</ele>
        <time>2015-11-15T09:10:16.000Z</time>
      </trkpt>
      <trkpt lat="47.47131" lon="6.76368">
        <ele>317</ele>
        <time>2015-11-15T09:10:17.000Z</time>
      </trkpt>
      <trkpt lat="47.47136" lon="6.76369">
        <ele>317</ele>
        <time>2015-11-15T09:10:18.000Z</time>
      </trkpt>
      <trkpt lat="47.47142" lon="6.7637">
        <ele>317</ele>
        <time>2015-11-15T09:10:19.000Z</time>
      </trkpt>
      <trkpt lat="47.47148" lon="6.76372">
        <ele>317</ele>
        <time>2015-11-15T09:10:20.000Z</time>
      </trkpt>
      <trkpt lat="47.47154" lon="6.76374">
        <ele>317</ele>
        <time>2015-11-15T09:10:21.000Z</time>
      </trkpt>
      <trkpt lat="47.4716" lon="6.76375">
        <ele>317</ele>
        <time>2015-11-15T09:10:22.000Z</time>
      </trkpt>
      <trkpt lat="47.47167" lon="6.76377">
        <ele>318</ele>
        <time>2015-11-15T09:10:23.000Z</time>
      </trkpt>
      <trkpt lat="47.47173" lon="6.76379">
        <ele>318</ele>
        <time>2015-11-15T09:10:24.000Z</time>
      </trkpt>
      <trkpt lat="47.4718" lon="6.76381">
        <ele>318</ele>
        <time>2015-11-15T09:10:25.000Z</time>
      </trkpt>
      <trkpt lat="47.47186" lon="6.76383">
        <ele>318</ele>
        <time>2015-11-15T09:10:26.000Z</time>
      </trkpt>
      <trkpt lat="47.47193" lon="6.76385">
        <ele>318</ele>
        <time>2015-11-15T09:10:27.000Z</time>
      </trkpt>
      <trkpt lat="47.472" lon="6.76388">
        <ele>318</ele>
        <time>2015-11-15T09:10:28.000Z</time>
      </trkpt>
      <trkpt lat="47.47206" lon="6.76389">
        <ele>318</ele>
        <time>2015-11-15T09:10:29.000Z</time>
      </trkpt>
      <trkpt lat="47.47213" lon="6.76392">
        <ele>318</ele>
        <time>2015-11-15T09:10:30.000Z</time>
      </trkpt>
      <trkpt lat="47.47219" lon="6.76395">
        <ele>318</ele>
        <time>2015-11-15T09:10:31.000Z</time>
      </trkpt>
      <trkpt lat="47.47226" lon="6.76396">
        <ele>318</ele>
        <time>2015-11-15T09:10:32.000Z</time>
      </trkpt>
      <trkpt lat="47.47233" lon="6.76396">
        <ele>318</ele>
        <time>2015-11-15T09:10:33.000Z</time>
      </trkpt>
      <trkpt lat="47.4724" lon="6.76397">
        <ele>317</ele>
        <time>2015-11-15T09:10:34.000Z</time>
      </trkpt>
      <trkpt lat="47.47247" lon="6.76395">
        <ele>318</ele>
        <time>2015-11-15T09:10:35.000Z</time>
      </trkpt>
      <trkpt lat="47.47254" lon="6.76393">
        <ele>318</ele>
        <time>2015-11-15T09:10:36.000Z</time>
      </trkpt>
      <trkpt lat="47.47261" lon="6.76391">
        <ele>318</ele>
        <time>2015-11-15T09:10:37.000Z</time>
      </trkpt>
      <trkpt lat="47.47268" lon="6.76387">
        <ele>318</ele>
        <time>2015-11-15T09:10:38.000Z</time>
      </trkpt>
      <trkpt lat="47.47274" lon="6.76385">
        <ele>318</ele>
        <time>2015-11-15T09:10:39.000Z</time>
      </trkpt>
      <trkpt lat="47.47282" lon="6.76385">
        <ele>318</ele>
        <time>2015-11-15T09:10:40.000Z</time>
      </trkpt>
      <trkpt lat="47.47288" lon="6.76383">
        <ele>318</ele>
        <time>2015-11-15T09:10:41.000Z</time>
      </trkpt>
      <trkpt lat="47.47295" lon="6.76383">
        <ele>318</ele>
        <time>2015-11-15T09:10:42.000Z</time>
      </trkpt>
      <trkpt lat="47.47302" lon="6.76381">
        <ele>318</ele>
        <time>2015-11-15T09:10:43.000Z</time>
      </trkpt>
      <trkpt lat="47.47309" lon="6.76382">
        <ele>318</ele>
        <time>2015-11-15T09:10:44.000Z</time>
      </trkpt>
      <trkpt lat="47.47316" lon="6.76384">
        <ele>318</ele>
        <time>2015-11-15T09:10:45.000Z</time>
      </trkpt>
      <trkpt lat="47.47322" lon="6.76386">
        <ele>318</ele>
        <time>2015-11-15T09:10:46.000Z</time>
      </trkpt>
      <trkpt lat="47.47328" lon="6.76389">
        <ele>318</ele>
        <time>2015-11-15T09:10:47.000Z</time>
      </trkpt>
      <trkpt lat="47.47334" lon="6.76392">
        <ele>317</ele>
        <time>2015-11-15T09:10:48.000Z</time>
      </trkpt>
      <trkpt lat="47.4734" lon="6.76395">
        <ele>317</ele>
        <time>2015-11-15T09:10:49.000Z</time>
      </trkpt>
      <trkpt lat="47.47346" lon="6.76399">
        <ele>317</ele>
        <time>2015-11-15T09:10:50.000Z</time>
      </trkpt>
      <trkpt lat="47.47352" lon="6.76403">
        <ele>317</ele>
        <time>2015-11-15T09:10:51.000Z</time>
      </trkpt>
      <trkpt lat="47.47358" lon="6.76406">
        <ele>317</ele>
        <time>2015-11-15T09:10:52.000Z</time>
      </trkpt>
      <trkpt lat="47.47364" lon="6.7641">
        <ele>317</ele>
        <time>2015-11-15T09:10:53.000Z</time>
      </trkpt>
      <trkpt lat="47.4737" lon="6.76414">
        <ele>317</ele>
        <time>2015-11-15T09:10:54.000Z</time>
      </trkpt>
      <trkpt lat="47.47376" lon="6.76417">
        <ele>314</ele>
        <time>2015-11-15T09:10:55.000Z</time>
      </trkpt>
      <trkpt lat="47.47382" lon="6.76421">
        <ele>314</ele>
        <time>2015-11-15T09:10:56.000Z</time>
      </trkpt>
      <trkpt lat="47.47388" lon="6.76426">
        <ele>314</ele>
        <time>2015-11-15T09:10:57.000Z</time>
      </trkpt>
      <trkpt lat="47.47394" lon="6.76431">
        <ele>314</ele>
        <time>2015-11-15T09:10:58.000Z</time>
      </trkpt>
      <trkpt lat="47.47399" lon="6.76435">
        <ele>314</ele>
        <time>2015-11-15T09:10:59.000Z</time>
      </trkpt>
      <trkpt lat="47.47405" lon="6.7644">
        <ele>313</ele>
        <time>2015-11-15T09:11:00.000Z</time>
      </trkpt>
      <trkpt lat="47.47411" lon="6.76445">
        <ele>313</ele>
        <time>2015-11-15T09:11:01.000Z</time>
      </trkpt>
      <trkpt lat="47.47417" lon="6.76451">
        <ele>311</ele>
        <time>2015-11-15T09:11:02.000Z</time>
      </trkpt>
      <trkpt lat="47.47421" lon="6.76455">
        <ele>311</ele>
        <time>2015-11-15T09:11:03.000Z</time>
      </trkpt>
      <trkpt lat="47.47425" lon="6.76458">
        <ele>311</ele>
        <time>2015-11-15T09:11:04.000Z</time>
      </trkpt>
      <trkpt lat="47.47428" lon="6.76461">
        <ele>311</ele>
        <time>2015-11-15T09:11:05.000Z</time>
      </trkpt>
      <trkpt lat="47.4743" lon="6.76467">
        <ele>311</ele>
        <time>2015-11-15T09:11:06.000Z</time>
      </trkpt>
      <trkpt lat="47.4743" lon="6.76474">
        <ele>311</ele>
        <time>2015-11-15T09:11:07.000Z</time>
      </trkpt>
      <trkpt lat="47.4743" lon="6.7648">
        <ele>311</ele>
        <time>2015-11-15T09:11:08.000Z</time>
      </trkpt>
      <trkpt lat="47.47432" lon="6.76484">
        <ele>311</ele>
        <time>2015-11-15T09:11:09.000Z</time>
      </trkpt>
      <trkpt lat="47.47435" lon="6.76484">
        <ele>311</ele>
        <time>2015-11-15T09:11:10.000Z</time>
      </trkpt>
      <trkpt lat="47.47438" lon="6.76482">
        <ele>311</ele>
        <time>2015-11-15T09:11:11.000Z</time>
      </trkpt>
      <trkpt lat="47.47442" lon="6.76481">
        <ele>311</ele>
        <time>2015-11-15T09:11:12.000Z</time>
      </trkpt>
      <trkpt lat="47.47446" lon="6.76482">
        <ele>311</ele>
        <time>2015-11-15T09:11:13.000Z</time>
      </trkpt>
      <trkpt lat="47.47449" lon="6.76483">
        <ele>311</ele>
        <time>2015-11-15T09:11:14.000Z</time>
      </trkpt>
      <trkpt lat="47.47451" lon="6.76486">
        <ele>310</ele>
        <time>2015-11-15T09:11:15.000Z</time>
      </trkpt>
      <trkpt lat="47.47453" lon="6.76491">
        <ele>310</ele>
        <time>2015-11-15T09:11:16.000Z</time>
      </trkpt>
      <trkpt lat="47.47454" lon="6.76496">
        <ele>310</ele>
        <time>2015-11-15T09:11:17.000Z</time>
      </trkpt>
      <trkpt lat="47.47455" lon="6.76502">
        <ele>310</ele>
        <time>2015-11-15T09:11:18.000Z</time>
      </trkpt>
      <trkpt lat="47.47457" lon="6.76507">
        <ele>310</ele>
        <time>2015-11-15T09:11:19.000Z</time>
      </trkpt>
      <trkpt lat="47.47458" lon="6.76512">
        <ele>310</ele>
        <time>2015-11-15T09:11:20.000Z</time>
      </trkpt>
      <trkpt lat="47.47459" lon="6.76517">
        <ele>310</ele>
        <time>2015-11-15T09:11:21.000Z</time>
      </trkpt>
      <trkpt lat="47.47461" lon="6.76522">
        <ele>310</ele>
        <time>2015-11-15T09:11:22.000Z</time>
      </trkpt>
      <trkpt lat="47.47463" lon="6.76526">
        <ele>310</ele>
        <time>2015-11-15T09:11:23.000Z</time>
      </trkpt>
      <trkpt lat="47.47466" lon="6.7653">
        <ele>310</ele>
        <time>2015-11-15T09:11:24.000Z</time>
      </trkpt>
      <trkpt lat="47.47469" lon="6.76534">
        <ele>310</ele>
        <time>2015-11-15T09:11:25.000Z</time>
      </trkpt>
      <trkpt lat="47.47471" lon="6.76538">
        <ele>310</ele>
        <time>2015-11-15T09:11:26.000Z</time>
      </trkpt>
      <trkpt lat="47.47474" lon="6.76542">
        <ele>310</ele>
        <time>2015-11-15T09:11:27.000Z</time>
      </trkpt>
      <trkpt lat="47.47477" lon="6.76546">
        <ele>310</ele>
        <time>2015-11-15T09:11:28.000Z</time>
      </trkpt>
      <trkpt lat="47.4748" lon="6.7655">
        <ele>310</ele>
        <time>2015-11-15T09:11:29.000Z</time>
      </trkpt>
      <trkpt lat="47.47485" lon="6.76555">
        <ele>310</ele>
        <time>2015-11-15T09:11:30.000Z</time>
      </trkpt>
      <trkpt lat="47.47488" lon="6.76559">
        <ele>310</ele>
        <time>2015-11-15T09:11:31.000Z</time>
      </trkpt>
      <trkpt lat="47.47492" lon="6.76565">
        <ele>310</ele>
        <time>2015-11-15T09:11:32.000Z</time>
      </trkpt>
      <trkpt lat="47.47496" lon="6.76571">
        <ele>311</ele>
        <time>2015-11-15T09:11:33.000Z</time>
      </trkpt>
      <trkpt lat="47.475" lon="6.76576">
        <ele>311</ele>
        <time>2015-11-15T09:11:34.000Z</time>
      </trkpt>
      <trkpt lat="47.47503" lon="6.76581">
        <ele>311</ele>
        <time>2015-11-15T09:11:35.000Z</time>
      </trkpt>
      <trkpt lat="47.47507" lon="6.76587">
        <ele>311</ele>
        <time>2015-11-15T09:11:36.000Z</time>
      </trkpt>
      <trkpt lat="47.47511" lon="6.76592">
        <ele>311</ele>
        <time>2015-11-15T09:11:37.000Z</time>
      </trkpt>
      <trkpt lat="47.47514" lon="6.76598">
        <ele>311</ele>
        <time>2015-11-15T09:11:38.000Z</time>
      </trkpt>
      <trkpt lat="47.47517" lon="6.76604">
        <ele>311</ele>
        <time>2015-11-15T09:11:39.000Z</time>
      </trkpt>
      <trkpt lat="47.47521" lon="6.76609">
        <ele>311</ele>
        <time>2015-11-15T09:11:40.000Z</time>
      </trkpt>
      <trkpt lat="47.47524" lon="6.76614">
        <ele>311</ele>
        <time>2015-11-15T09:11:41.000Z</time>
      </trkpt>
      <trkpt lat="47.47527" lon="6.76618">
        <ele>311</ele>
        <time>2015-11-15T09:11:42.000Z</time>
      </trkpt>
      <trkpt lat="47.4753" lon="6.76622">
        <ele>311</ele>
        <time>2015-11-15T09:11:43.000Z</time>
      </trkpt>
      <trkpt lat="47.47533" lon="6.76627">
        <ele>311</ele>
        <time>2015-11-15T09:11:44.000Z</time>
      </trkpt>
      <trkpt lat="47.47537" lon="6.76633">
        <ele>311</ele>
        <time>2015-11-15T09:11:45.000Z</time>
      </trkpt>
      <trkpt lat="47.4754" lon="6.76637">
        <ele>311</ele>
        <time>2015-11-15T09:11:46.000Z</time>
      </trkpt>
      <trkpt lat="47.47544" lon="6.7664">
        <ele>311</ele>
        <time>2015-11-15T09:11:47.000Z</time>
      </trkpt>
      <trkpt lat="47.47548" lon="6.76646">
        <ele>311</ele>
        <time>2015-11-15T09:11:48.000Z</time>
      </trkpt>
      <trkpt lat="47.47551" lon="6.7665">
        <ele>311</ele>
        <time>2015-11-15T09:11:49.000Z</time>
      </trkpt>
      <trkpt lat="47.47554" lon="6.76654">
        <ele>311</ele>
        <time>2015-11-15T09:11:50.000Z</time>
      </trkpt>
      <trkpt lat="47.47559" lon="6.76652">
        <ele>311</ele>
        <time>2015-11-15T09:11:51.000Z</time>
      </trkpt>
      <trkpt lat="47.47563" lon="6.76645">
        <ele>311</ele>
        <time>2015-11-15T09:11:52.000Z</time>
      </trkpt>
      <trkpt lat="47.47567" lon="6.7664">
        <ele>311</ele>
        <time>2015-11-15T09:11:53.000Z</time>
      </trkpt>
      <trkpt lat="47.47571" lon="6.76635">
        <ele>311</ele>
        <time>2015-11-15T09:11:54.000Z</time>
      </trkpt>
      <trkpt lat="47.47575" lon="6.7663">
        <ele>311</ele>
        <time>2015-11-15T09:11:55.000Z</time>
      </trkpt>
      <trkpt lat="47.47579" lon="6.76625">
        <ele>311</ele>
        <time>2015-11-15T09:11:56.000Z</time>
      </trkpt>
      <trkpt lat="47.47582" lon="6.76619">
        <ele>311</ele>
        <time>2015-11-15T09:11:57.000Z</time>
      </trkpt>
      <trkpt lat="47.47585" lon="6.76613">
        <ele>310</ele>
        <time>2015-11-15T09:11:58.000Z</time>
      </trkpt>
      <trkpt lat="47.47588" lon="6.76606">
        <ele>310</ele>
        <time>2015-11-15T09:11:59.000Z</time>
      </trkpt>
      <trkpt lat="47.47588" lon="6.766">
        <ele>310</ele>
        <time>2015-11-15T09:12:00.000Z</time>
      </trkpt>
      <trkpt lat="47.47587" lon="6.76592">
        <ele>310</ele>
        <time>2015-11-15T09:12:01.000Z</time>
      </trkpt>
      <trkpt lat="47.47586" lon="6.76586">
        <ele>310</ele>
        <time>2015-11-15T09:12:02.000Z</time>
      </trkpt>
      <trkpt lat="47.47584" lon="6.76579">
        <ele>310</ele>
        <time>2015-11-15T09:12:03.000Z</time>
      </trkpt>
      <trkpt lat="47.47583" lon="6.7657">
        <ele>310</ele>
        <time>2015-11-15T09:12:04.000Z</time>
      </trkpt>
      <trkpt lat="47.47581" lon="6.76562">
        <ele>310</ele>
        <time>2015-11-15T09:12:05.000Z</time>
      </trkpt>
      <trkpt lat="47.4758" lon="6.76556">
        <ele>310</ele>
        <time>2015-11-15T09:12:06.000Z</time>
      </trkpt>
      <trkpt lat="47.47578" lon="6.76549">
        <ele>310</ele>
        <time>2015-11-15T09:12:07.000Z</time>
      </trkpt>
      <trkpt lat="47.47576" lon="6.76541">
        <ele>310</ele>
        <time>2015-11-15T09:12:08.000Z</time>
      </trkpt>
      <trkpt lat="47.47574" lon="6.76534">
        <ele>310</ele>
        <time>2015-11-15T09:12:09.000Z</time>
      </trkpt>
      <trkpt lat="47.47573" lon="6.76526">
        <ele>310</ele>
        <time>2015-11-15T09:12:10.000Z</time>
      </trkpt>
      <trkpt lat="47.47575" lon="6.76519">
        <ele>309</ele>
        <time>2015-11-15T09:12:11.000Z</time>
      </trkpt>
      <trkpt lat="47.47577" lon="6.76511">
        <ele>309</ele>
        <time>2015-11-15T09:12:12.000Z</time>
      </trkpt>
      <trkpt lat="47.4758" lon="6.76505">
        <ele>309</ele>
        <time>2015-11-15T09:12:13.000Z</time>
      </trkpt>
      <trkpt lat="47.47583" lon="6.765">
        <ele>309</ele>
        <time>2015-11-15T09:12:14.000Z</time>
      </trkpt>
      <trkpt lat="47.47586" lon="6.76496">
        <ele>309</ele>
        <time>2015-11-15T09:12:15.000Z</time>
      </trkpt>
      <trkpt lat="47.47588" lon="6.76491">
        <ele>309</ele>
        <time>2015-11-15T09:12:16.000Z</time>
      </trkpt>
      <trkpt lat="47.47591" lon="6.76487">
        <ele>309</ele>
        <time>2015-11-15T09:12:17.000Z</time>
      </trkpt>
      <trkpt lat="47.47594" lon="6.76487">
        <ele>309</ele>
        <time>2015-11-15T09:12:18.000Z</time>
      </trkpt>
      <trkpt lat="47.47599" lon="6.76491">
        <ele>309</ele>
        <time>2015-11-15T09:12:19.000Z</time>
      </trkpt>
      <trkpt lat="47.47604" lon="6.76496">
        <ele>309</ele>
        <time>2015-11-15T09:12:20.000Z</time>
      </trkpt>
      <trkpt lat="47.47608" lon="6.76501">
        <ele>309</ele>
        <time>2015-11-15T09:12:21.000Z</time>
      </trkpt>
      <trkpt lat="47.47611" lon="6.76507">
        <ele>309</ele>
        <time>2015-11-15T09:12:22.000Z</time>
      </trkpt>
      <trkpt lat="47.47615" lon="6.76513">
        <ele>309</ele>
        <time>2015-11-15T09:12:23.000Z</time>
      </trkpt>
      <trkpt lat="47.47618" lon="6.76519">
        <ele>309</ele>
        <time>2015-11-15T09:12:24.000Z</time>
      </trkpt>
      <trkpt lat="47.47622" lon="6.76525">
        <ele>309</ele>
        <time>2015-11-15T09:12:25.000Z</time>
      </trkpt>
      <trkpt lat="47.47625" lon="6.76531">
        <ele>310</ele>
        <time>2015-11-15T09:12:26.000Z</time>
      </trkpt>
      <trkpt lat="47.47629" lon="6.76538">
        <ele>310</ele>
        <time>2015-11-15T09:12:27.000Z</time>
      </trkpt>
      <trkpt lat="47.47632" lon="6.76544">
        <ele>309</ele>
        <time>2015-11-15T09:12:28.000Z</time>
      </trkpt>
      <trkpt lat="47.47636" lon="6.76551">
        <ele>309</ele>
        <time>2015-11-15T09:12:29.000Z</time>
      </trkpt>
      <trkpt lat="47.47639" lon="6.76558">
        <ele>309</ele>
        <time>2015-11-15T09:12:30.000Z</time>
      </trkpt>
      <trkpt lat="47.47643" lon="6.76564">
        <ele>309</ele>
        <time>2015-11-15T09:12:31.000Z</time>
      </trkpt>
      <trkpt lat="47.47647" lon="6.76571">
        <ele>309</ele>
        <time>2015-11-15T09:12:32.000Z</time>
      </trkpt>
      <trkpt lat="47.47651" lon="6.76576">
        <ele>309</ele>
        <time>2015-11-15T09:12:33.000Z</time>
      </trkpt>
      <trkpt lat="47.47655" lon="6.76583">
        <ele>309</ele>
        <time>2015-11-15T09:12:34.000Z</time>
      </trkpt>
      <trkpt lat="47.47659" lon="6.76589">
        <ele>309</ele>
        <time>2015-11-15T09:12:35.000Z</time>
      </trkpt>
      <trkpt lat="47.47663" lon="6.76596">
        <ele>309</ele>
        <time>2015-11-15T09:12:36.000Z</time>
      </trkpt>
      <trkpt lat="47.47667" lon="6.76603">
        <ele>309</ele>
        <time>2015-11-15T09:12:37.000Z</time>
      </trkpt>
      <trkpt lat="47.47671" lon="6.7661">
        <ele>309</ele>
        <time>2015-11-15T09:12:38.000Z</time>
      </trkpt>
      <trkpt lat="47.47675" lon="6.76616">
        <ele>309</ele>
        <time>2015-11-15T09:12:39.000Z</time>
      </trkpt>
      <trkpt lat="47.47682" lon="6.76628">
        <ele>310</ele>
        <time>2015-11-15T09:12:41.000Z</time>
      </trkpt>
      <trkpt lat="47.47686" lon="6.76634">
        <ele>310</ele>
        <time>2015-11-15T09:12:42.000Z</time>
      </trkpt>
      <trkpt lat="47.47689" lon="6.7664">
        <ele>310</ele>
        <time>2015-11-15T09:12:43.000Z</time>
      </trkpt>
      <trkpt lat="47.47693" lon="6.76646">
        <ele>310</ele>
        <time>2015-11-15T09:12:44.000Z</time>
      </trkpt>
      <trkpt lat="47.47697" lon="6.76652">
        <ele>310</ele>
        <time>2015-11-15T09:12:45.000Z</time>
      </trkpt>
      <trkpt lat="47.47701" lon="6.76659">
        <ele>310</ele>
        <time>2015-11-15T09:12:46.000Z</time>
      </trkpt>
      <trkpt lat="47.47705" lon="6.76666">
        <ele>310</ele>
        <time>2015-11-15T09:12:47.000Z</time>
      </trkpt>
      <trkpt lat="47.47708" lon="6.76672">
        <ele>310</ele>
        <time>2015-11-15T09:12:48.000Z</time>
      </trkpt>
      <trkpt lat="47.47712" lon="6.76679">
        <ele>310</ele>
        <time>2015-11-15T09:12:49.000Z</time>
      </trkpt>
      <trkpt lat="47.47716" lon="6.76685">
        <ele>310</ele>
        <time>2015-11-15T09:12:50.000Z</time>
      </trkpt>
      <trkpt lat="47.47719" lon="6.76691">
        <ele>310</ele>
        <time>2015-11-15T09:12:51.000Z</time>
      </trkpt>
      <trkpt lat="47.47723" lon="6.76698">
        <ele>310</ele>
        <time>2015-11-15T09:12:52.000Z</time>
      </trkpt>
      <trkpt lat="47.47727" lon="6.76704">
        <ele>310</ele>
        <time>2015-11-15T09:12:53.000Z</time>
      </trkpt>
      <trkpt lat="47.47731" lon="6.76709">
        <ele>311</ele>
        <time>2015-11-15T09:12:54.000Z</time>
      </trkpt>
      <trkpt lat="47.47734" lon="6.76714">
        <ele>311</ele>
        <time>2015-11-15T09:12:55.000Z</time>
      </trkpt>
      <trkpt lat="47.47738" lon="6.76718">
        <ele>311</ele>
        <time>2015-11-15T09:12:56.000Z</time>
      </trkpt>
      <trkpt lat="47.47742" lon="6.76721">
        <ele>311</ele>
        <time>2015-11-15T09:12:57.000Z</time>
      </trkpt>
      <trkpt lat="47.47747" lon="6.76719">
        <ele>311</ele>
        <time>2015-11-15T09:12:58.000Z</time>
      </trkpt>
      <trkpt lat="47.4775" lon="6.76717">
        <ele>310</ele>
        <time>2015-11-15T09:12:59.000Z</time>
      </trkpt>
      <trkpt lat="47.47753" lon="6.76712">
        <ele>310</ele>
        <time>2015-11-15T09:13:00.000Z</time>
      </trkpt>
      <trkpt lat="47.47756" lon="6.76706">
        <ele>310</ele>
        <time>2015-11-15T09:13:01.000Z</time>
      </trkpt>
      <trkpt lat="47.47759" lon="6.76702">
        <ele>310</ele>
        <time>2015-11-15T09:13:02.000Z</time>
      </trkpt>
      <trkpt lat="47.47762" lon="6.76695">
        <ele>310</ele>
        <time>2015-11-15T09:13:03.000Z</time>
      </trkpt>
      <trkpt lat="47.47765" lon="6.7669">
        <ele>310</ele>
        <time>2015-11-15T09:13:04.000Z</time>
      </trkpt>
      <trkpt lat="47.47769" lon="6.76683">
        <ele>310</ele>
        <time>2015-11-15T09:13:05.000Z</time>
      </trkpt>
      <trkpt lat="47.47772" lon="6.76676">
        <ele>310</ele>
        <time>2015-11-15T09:13:06.000Z</time>
      </trkpt>
      <trkpt lat="47.47775" lon="6.7667">
        <ele>310</ele>
        <time>2015-11-15T09:13:07.000Z</time>
      </trkpt>
      <trkpt lat="47.47777" lon="6.76663">
        <ele>309</ele>
        <time>2015-11-15T09:13:08.000Z</time>
      </trkpt>
      <trkpt lat="47.47781" lon="6.76656">
        <ele>309</ele>
        <time>2015-11-15T09:13:09.000Z</time>
      </trkpt>
      <trkpt lat="47.47784" lon="6.76649">
        <ele>309</ele>
        <time>2015-11-15T09:13:10.000Z</time>
      </trkpt>
      <trkpt lat="47.47788" lon="6.76642">
        <ele>309</ele>
        <time>2015-11-15T09:13:11.000Z</time>
      </trkpt>
      <trkpt lat="47.47791" lon="6.76635">
        <ele>309</ele>
        <time>2015-11-15T09:13:12.000Z</time>
      </trkpt>
      <trkpt lat="47.47794" lon="6.76628">
        <ele>309</ele>
        <time>2015-11-15T09:13:13.000Z</time>
      </trkpt>
      <trkpt lat="47.47796" lon="6.76621">
        <ele>309</ele>
        <time>2015-11-15T09:13:14.000Z</time>
      </trkpt>
      <trkpt lat="47.47799" lon="6.76614">
        <ele>309</ele>
        <time>2015-11-15T09:13:15.000Z</time>
      </trkpt>
      <trkpt lat="47.47803" lon="6.76609">
        <ele>309</ele>
        <time>2015-11-15T09:13:16.000Z</time>
      </trkpt>
      <trkpt lat="47.47806" lon="6.76602">
        <ele>309</ele>
        <time>2015-11-15T09:13:17.000Z</time>
      </trkpt>
      <trkpt lat="47.47809" lon="6.76595">
        <ele>309</ele>
        <time>2015-11-15T09:13:18.000Z</time>
      </trkpt>
      <trkpt lat="47.47813" lon="6.76589">
        <ele>309</ele>
        <time>2015-11-15T09:13:19.000Z</time>
      </trkpt>
      <trkpt lat="47.47816" lon="6.76582">
        <ele>309</ele>
        <time>2015-11-15T09:13:20.000Z</time>
      </trkpt>
      <trkpt lat="47.47819" lon="6.76574">
        <ele>309</ele>
        <time>2015-11-15T09:13:21.000Z</time>
      </trkpt>
      <trkpt lat="47.47822" lon="6.76568">
        <ele>309</ele>
        <time>2015-11-15T09:13:22.000Z</time>
      </trkpt>
      <trkpt lat="47.47825" lon="6.76561">
        <ele>309</ele>
        <time>2015-11-15T09:13:23.000Z</time>
      </trkpt>
      <trkpt lat="47.47829" lon="6.76555">
        <ele>309</ele>
        <time>2015-11-15T09:13:24.000Z</time>
      </trkpt>
      <trkpt lat="47.47832" lon="6.76548">
        <ele>309</ele>
        <time>2015-11-15T09:13:25.000Z</time>
      </trkpt>
      <trkpt lat="47.47836" lon="6.76543">
        <ele>309</ele>
        <time>2015-11-15T09:13:26.000Z</time>
      </trkpt>
      <trkpt lat="47.47841" lon="6.7654">
        <ele>309</ele>
        <time>2015-11-15T09:13:27.000Z</time>
      </trkpt>
      <trkpt lat="47.47846" lon="6.7654">
        <ele>309</ele>
        <time>2015-11-15T09:13:28.000Z</time>
      </trkpt>
      <trkpt lat="47.47851" lon="6.7654">
        <ele>309</ele>
        <time>2015-11-15T09:13:29.000Z</time>
      </trkpt>
      <trkpt lat="47.47855" lon="6.76539">
        <ele>309</ele>
        <time>2015-11-15T09:13:30.000Z</time>
      </trkpt>
      <trkpt lat="47.47858" lon="6.76534">
        <ele>309</ele>
        <time>2015-11-15T09:13:31.000Z</time>
      </trkpt>
      <trkpt lat="47.47863" lon="6.76532">
        <ele>309</ele>
        <time>2015-11-15T09:13:32.000Z</time>
      </trkpt>
      <trkpt lat="47.47868" lon="6.76528">
        <ele>309</ele>
        <time>2015-11-15T09:13:33.000Z</time>
      </trkpt>
      <trkpt lat="47.47872" lon="6.76523">
        <ele>309</ele>
        <time>2015-11-15T09:13:34.000Z</time>
      </trkpt>
      <trkpt lat="47.47875" lon="6.76516">
        <ele>310</ele>
        <time>2015-11-15T09:13:35.000Z</time>
      </trkpt>
      <trkpt lat="47.47879" lon="6.7651">
        <ele>310</ele>
        <time>2015-11-15T09:13:36.000Z</time>
      </trkpt>
      <trkpt lat="47.47882" lon="6.76504">
        <ele>310</ele>
        <time>2015-11-15T09:13:37.000Z</time>
      </trkpt>
      <trkpt lat="47.47885" lon="6.76497">
        <ele>310</ele>
        <time>2015-11-15T09:13:38.000Z</time>
      </trkpt>
      <trkpt lat="47.47889" lon="6.76491">
        <ele>310</ele>
        <time>2015-11-15T09:13:39.000Z</time>
      </trkpt>
      <trkpt lat="47.47892" lon="6.76484">
        <ele>310</ele>
        <time>2015-11-15T09:13:40.000Z</time>
      </trkpt>
      <trkpt lat="47.47895" lon="6.76478">
        <ele>310</ele>
        <time>2015-11-15T09:13:41.000Z</time>
      </trkpt>
      <trkpt lat="47.47899" lon="6.76471">
        <ele>310</ele>
        <time>2015-11-15T09:13:42.000Z</time>
      </trkpt>
      <trkpt lat="47.47902" lon="6.76465">
        <ele>310</ele>
        <time>2015-11-15T09:13:43.000Z</time>
      </trkpt>
      <trkpt lat="47.47907" lon="6.76462">
        <ele>310</ele>
        <time>2015-11-15T09:13:44.000Z</time>
      </trkpt>
      <trkpt lat="47.47911" lon="6.7646">
        <ele>310</ele>
        <time>2015-11-15T09:13:45.000Z</time>
      </trkpt>
      <trkpt lat="47.47915" lon="6.76462">
        <ele>310</ele>
        <time>2015-11-15T09:13:46.000Z</time>
      </trkpt>
      <trkpt lat="47.47917" lon="6.76467">
        <ele>311</ele>
        <time>2015-11-15T09:13:47.000Z</time>
      </trkpt>
      <trkpt lat="47.47919" lon="6.76471">
        <ele>311</ele>
        <time>2015-11-15T09:13:48.000Z</time>
      </trkpt>
      <trkpt lat="47.47922" lon="6.76476">
        <ele>311</ele>
        <time>2015-11-15T09:13:49.000Z</time>
      </trkpt>
      <trkpt lat="47.47923" lon="6.76482">
        <ele>311</ele>
        <time>2015-11-15T09:13:50.000Z</time>
      </trkpt>
      <trkpt lat="47.47925" lon="6.76489">
        <ele>310</ele>
        <time>2015-11-15T09:13:51.000Z</time>
      </trkpt>
      <trkpt lat="47.47927" lon="6.76497">
        <ele>310</ele>
        <time>2015-11-15T09:13:52.000Z</time>
      </trkpt>
      <trkpt lat="47.47928" lon="6.76504">
        <ele>310</ele>
        <time>2015-11-15T09:13:53.000Z</time>
      </trkpt>
      <trkpt lat="47.47931" lon="6.76511">
        <ele>311</ele>
        <time>2015-11-15T09:13:54.000Z</time>
      </trkpt>
      <trkpt lat="47.47933" lon="6.76519">
        <ele>311</ele>
        <time>2015-11-15T09:13:55.000Z</time>
      </trkpt>
      <trkpt lat="47.47935" lon="6.76526">
        <ele>311</ele>
        <time>2015-11-15T09:13:56.000Z</time>
      </trkpt>
      <trkpt lat="47.47936" lon="6.76534">
        <ele>311</ele>
        <time>2015-11-15T09:13:57.000Z</time>
      </trkpt>
      <trkpt lat="47.47939" lon="6.76542">
        <ele>311</ele>
        <time>2015-11-15T09:13:58.000Z</time>
      </trkpt>
      <trkpt lat="47.47941" lon="6.7655">
        <ele>311</ele>
        <time>2015-11-15T09:13:59.000Z</time>
      </trkpt>
      <trkpt lat="47.47943" lon="6.76558">
        <ele>311</ele>
        <time>2015-11-15T09:14:00.000Z</time>
      </trkpt>
      <trkpt lat="47.47945" lon="6.76566">
        <ele>311</ele>
        <time>2015-11-15T09:14:01.000Z</time>
      </trkpt>
      <trkpt lat="47.47947" lon="6.76574">
        <ele>311</ele>
        <time>2015-11-15T09:14:02.000Z</time>
      </trkpt>
      <trkpt lat="47.47948" lon="6.76581">
        <ele>311</ele>
        <time>2015-11-15T09:14:03.000Z</time>
      </trkpt>
      <trkpt lat="47.47949" lon="6.76589">
        <ele>311</ele>
        <time>2015-11-15T09:14:04.000Z</time>
      </trkpt>
      <trkpt lat="47.47951" lon="6.76596">
        <ele>311</ele>
        <time>2015-11-15T09:14:05.000Z</time>
      </trkpt>
      <trkpt lat="47.47953" lon="6.76602">
        <ele>311</ele>
        <time>2015-11-15T09:14:06.000Z</time>
      </trkpt>
      <trkpt lat="47.47954" lon="6.76606">
        <ele>311</ele>
        <time>2015-11-15T09:14:07.000Z</time>
      </trkpt>
      <trkpt lat="47.47956" lon="6.7661">
        <ele>311</ele>
        <time>2015-11-15T09:14:08.000Z</time>
      </trkpt>
      <trkpt lat="47.47958" lon="6.76613">
        <ele>311</ele>
        <time>2015-11-15T09:14:09.000Z</time>
      </trkpt>
      <trkpt lat="47.47959" lon="6.76615">
        <ele>311</ele>
        <time>2015-11-15T09:14:10.000Z</time>
      </trkpt>
      <trkpt lat="47.47962" lon="6.76618">
        <ele>311</ele>
        <time>2015-11-15T09:14:11.000Z</time>
      </trkpt>
      <trkpt lat="47.47965" lon="6.76621">
        <ele>311</ele>
        <time>2015-11-15T09:14:12.000Z</time>
      </trkpt>
      <trkpt lat="47.47968" lon="6.76625">
        <ele>311</ele>
        <time>2015-11-15T09:14:13.000Z</time>
      </trkpt>
      <trkpt lat="47.4797" lon="6.76632">
        <ele>311</ele>
        <time>2015-11-15T09:14:14.000Z</time>
      </trkpt>
      <trkpt lat="47.47972" lon="6.7664">
        <ele>311</ele>
        <time>2015-11-15T09:14:15.000Z</time>
      </trkpt>
      <trkpt lat="47.47974" lon="6.76648">
        <ele>311</ele>
        <time>2015-11-15T09:14:16.000Z</time>
      </trkpt>
      <trkpt lat="47.47977" lon="6.76657">
        <ele>312</ele>
        <time>2015-11-15T09:14:17.000Z</time>
      </trkpt>
      <trkpt lat="47.47979" lon="6.76665">
        <ele>312</ele>
        <time>2015-11-15T09:14:18.000Z</time>
      </trkpt>
      <trkpt lat="47.47981" lon="6.76673">
        <ele>312</ele>
        <time>2015-11-15T09:14:19.000Z</time>
      </trkpt>
      <trkpt lat="47.47983" lon="6.76682">
        <ele>312</ele>
        <time>2015-11-15T09:14:20.000Z</time>
      </trkpt>
      <trkpt lat="47.47985" lon="6.7669">
        <ele>312</ele>
        <time>2015-11-15T09:14:21.000Z</time>
      </trkpt>
      <trkpt lat="47.47986" lon="6.76699">
        <ele>312</ele>
        <time>2015-11-15T09:14:22.000Z</time>
      </trkpt>
      <trkpt lat="47.47988" lon="6.76708">
        <ele>312</ele>
        <time>2015-11-15T09:14:23.000Z</time>
      </trkpt>
      <trkpt lat="47.47989" lon="6.76717">
        <ele>312</ele>
        <time>2015-11-15T09:14:24.000Z</time>
      </trkpt>
      <trkpt lat="47.47992" lon="6.76726">
        <ele>312</ele>
        <time>2015-11-15T09:14:25.000Z</time>
      </trkpt>
      <trkpt lat="47.47995" lon="6.76734">
        <ele>312</ele>
        <time>2015-11-15T09:14:26.000Z</time>
      </trkpt>
      <trkpt lat="47.47997" lon="6.76742">
        <ele>313</ele>
        <time>2015-11-15T09:14:27.000Z</time>
      </trkpt>
      <trkpt lat="47.48" lon="6.7675">
        <ele>313</ele>
        <time>2015-11-15T09:14:28.000Z</time>
      </trkpt>
      <trkpt lat="47.48003" lon="6.76757">
        <ele>313</ele>
        <time>2015-11-15T09:14:29.000Z</time>
      </trkpt>
      <trkpt lat="47.48007" lon="6.76765">
        <ele>313</ele>
        <time>2015-11-15T09:14:30.000Z</time>
      </trkpt>
      <trkpt lat="47.4801" lon="6.76773">
        <ele>313</ele>
        <time>2015-11-15T09:14:31.000Z</time>
      </trkpt>
      <trkpt lat="47.48015" lon="6.7678">
        <ele>313</ele>
        <time>2015-11-15T09:14:32.000Z</time>
      </trkpt>
      <trkpt lat="47.48019" lon="6.76787">
        <ele>313</ele>
        <time>2015-11-15T09:14:33.000Z</time>
      </trkpt>
      <trkpt lat="47.48023" lon="6.76794">
        <ele>313</ele>
        <time>2015-11-15T09:14:34.000Z</time>
      </trkpt>
      <trkpt lat="47.48027" lon="6.76802">
        <ele>313</ele>
        <time>2015-11-15T09:14:35.000Z</time>
      </trkpt>
      <trkpt lat="47.48031" lon="6.76809">
        <ele>313</ele>
        <time>2015-11-15T09:14:36.000Z</time>
      </trkpt>
      <trkpt lat="47.48036" lon="6.76816">
        <ele>313</ele>
        <time>2015-11-15T09:14:37.000Z</time>
      </trkpt>
      <trkpt lat="47.4804" lon="6.76822">
        <ele>313</ele>
        <time>2015-11-15T09:14:38.000Z</time>
      </trkpt>
      <trkpt lat="47.48045" lon="6.76828">
        <ele>313</ele>
        <time>2015-11-15T09:14:39.000Z</time>
      </trkpt>
      <trkpt lat="47.4805" lon="6.76835">
        <ele>313</ele>
        <time>2015-11-15T09:14:40.000Z</time>
      </trkpt>
      <trkpt lat="47.48055" lon="6.76841">
        <ele>313</ele>
        <time>2015-11-15T09:14:41.000Z</time>
      </trkpt>
      <trkpt lat="47.4806" lon="6.76848">
        <ele>313</ele>
        <time>2015-11-15T09:14:42.000Z</time>
      </trkpt>
      <trkpt lat="47.48065" lon="6.76854">
        <ele>313</ele>
        <time>2015-11-15T09:14:43.000Z</time>
      </trkpt>
      <trkpt lat="47.4807" lon="6.7686">
        <ele>313</ele>
        <time>2015-11-15T09:14:44.000Z</time>
      </trkpt>
      <trkpt lat="47.48075" lon="6.76866">
        <ele>313</ele>
        <time>2015-11-15T09:14:45.000Z</time>
      </trkpt>
      <trkpt lat="47.4808" lon="6.76872">
        <ele>313</ele>
        <time>2015-11-15T09:14:46.000Z</time>
      </trkpt>
      <trkpt lat="47.48085" lon="6.76877">
        <ele>312</ele>
        <time>2015-11-15T09:14:47.000Z</time>
      </trkpt>
      <trkpt lat="47.48091" lon="6.76882">
        <ele>312</ele>
        <time>2015-11-15T09:14:48.000Z</time>
      </trkpt>
      <trkpt lat="47.48097" lon="6.76886">
        <ele>312</ele>
        <time>2015-11-15T09:14:49.000Z</time>
      </trkpt>
      <trkpt lat="47.48102" lon="6.76891">
        <ele>312</ele>
        <time>2015-11-15T09:14:50.000Z</time>
      </trkpt>
      <trkpt lat="47.48108" lon="6.76895">
        <ele>312</ele>
        <time>2015-11-15T09:14:51.000Z</time>
      </trkpt>
      <trkpt lat="47.48113" lon="6.769">
        <ele>312</ele>
        <time>2015-11-15T09:14:52.000Z</time>
      </trkpt>
      <trkpt lat="47.48119" lon="6.76905">
        <ele>312</ele>
        <time>2015-11-15T09:14:53.000Z</time>
      </trkpt>
      <trkpt lat="47.48124" lon="6.76909">
        <ele>312</ele>
        <time>2015-11-15T09:14:54.000Z</time>
      </trkpt>
      <trkpt lat="47.4813" lon="6.76913">
        <ele>312</ele>
        <time>2015-11-15T09:14:55.000Z</time>
      </trkpt>
      <trkpt lat="47.48135" lon="6.76917">
        <ele>312</ele>
        <time>2015-11-15T09:14:56.000Z</time>
      </trkpt>
      <trkpt lat="47.48141" lon="6.76921">
        <ele>312</ele>
        <time>2015-11-15T09:14:57.000Z</time>
      </trkpt>
      <trkpt lat="47.48147" lon="6.76924">
        <ele>312</ele>
        <time>2015-11-15T09:14:58.000Z</time>
      </trkpt>
      <trkpt lat="47.48153" lon="6.76928">
        <ele>312</ele>
        <time>2015-11-15T09:14:59.000Z</time>
      </trkpt>
      <trkpt lat="47.48158" lon="6.76931">
        <ele>312</ele>
        <time>2015-11-15T09:15:00.000Z</time>
      </trkpt>
      <trkpt lat="47.48164" lon="6.76934">
        <ele>312</ele>
        <time>2015-11-15T09:15:01.000Z</time>
      </trkpt>
      <trkpt lat="47.4817" lon="6.76939">
        <ele>312</ele>
        <time>2015-11-15T09:15:02.000Z</time>
      </trkpt>
      <trkpt lat="47.48175" lon="6.76942">
        <ele>311</ele>
        <time>2015-11-15T09:15:03.000Z</time>
      </trkpt>
      <trkpt lat="47.48182" lon="6.76945">
        <ele>311</ele>
        <time>2015-11-15T09:15:04.000Z</time>
      </trkpt>
      <trkpt lat="47.48188" lon="6.76948">
        <ele>311</ele>
        <time>2015-11-15T09:15:05.000Z</time>
      </trkpt>
      <trkpt lat="47.48193" lon="6.76952">
        <ele>311</ele>
        <time>2015-11-15T09:15:06.000Z</time>
      </trkpt>
      <trkpt lat="47.48199" lon="6.76955">
        <ele>311</ele>
        <time>2015-11-15T09:15:07.000Z</time>
      </trkpt>
      <trkpt lat="47.48205" lon="6.76958">
        <ele>311</ele>
        <time>2015-11-15T09:15:08.000Z</time>
      </trkpt>
      <trkpt lat="47.4821" lon="6.76962">
        <ele>311</ele>
        <time>2015-11-15T09:15:09.000Z</time>
      </trkpt>
      <trkpt lat="47.48216" lon="6.76966">
        <ele>311</ele>
        <time>2015-11-15T09:15:10.000Z</time>
      </trkpt>
      <trkpt lat="47.48221" lon="6.76969">
        <ele>311</ele>
        <time>2015-11-15T09:15:11.000Z</time>
      </trkpt>
      <trkpt lat="47.48226" lon="6.76973">
        <ele>311</ele>
        <time>2015-11-15T09:15:12.000Z</time>
      </trkpt>
      <trkpt lat="47.48231" lon="6.76977">
        <ele>311</ele>
        <time>2015-11-15T09:15:13.000Z</time>
      </trkpt>
      <trkpt lat="47.48236" lon="6.7698">
        <ele>311</ele>
        <time>2015-11-15T09:15:14.000Z</time>
      </trkpt>
      <trkpt lat="47.48241" lon="6.76983">
        <ele>312</ele>
        <time>2015-11-15T09:15:15.000Z</time>
      </trkpt>
      <trkpt lat="47.48247" lon="6.76986">
        <ele>312</ele>
        <time>2015-11-15T09:15:16.000Z</time>
      </trkpt>
      <trkpt lat="47.48252" lon="6.76988">
        <ele>312</ele>
        <time>2015-11-15T09:15:17.000Z</time>
      </trkpt>
      <trkpt lat="47.48257" lon="6.76991">
        <ele>312</ele>
        <time>2015-11-15T09:15:18.000Z</time>
      </trkpt>
      <trkpt lat="47.48262" lon="6.76994">
        <ele>312</ele>
        <time>2015-11-15T09:15:19.000Z</time>
      </trkpt>
      <trkpt lat="47.48266" lon="6.76996">
        <ele>312</ele>
        <time>2015-11-15T09:15:20.000Z</time>
      </trkpt>
      <trkpt lat="47.4827" lon="6.76998">
        <ele>312</ele>
        <time>2015-11-15T09:15:21.000Z</time>
      </trkpt>
      <trkpt lat="47.48272" lon="6.77">
        <ele>312</ele>
        <time>2015-11-15T09:15:22.000Z</time>
      </trkpt>
      <trkpt lat="47.48276" lon="6.77002">
        <ele>315</ele>
        <time>2015-11-15T09:15:28.000Z</time>
      </trkpt>
      <trkpt lat="47.48278" lon="6.77003">
        <ele>315</ele>
        <time>2015-11-15T09:15:29.000Z</time>
      </trkpt>
      <trkpt lat="47.48281" lon="6.77005">
        <ele>315</ele>
        <time>2015-11-15T09:15:31.000Z</time>
      </trkpt>
      <trkpt lat="47.48282" lon="6.77009">
        <ele>315</ele>
        <time>2015-11-15T09:15:32.000Z</time>
      </trkpt>
      <trkpt lat="47.48282" lon="6.77013">
        <ele>315</ele>
        <time>2015-11-15T09:15:33.000Z</time>
      </trkpt>
      <trkpt lat="47.48281" lon="6.77019">
        <ele>315</ele>
        <time>2015-11-15T09:15:34.000Z</time>
      </trkpt>
      <trkpt lat="47.48277" lon="6.77031">
        <ele>316</ele>
        <time>2015-11-15T09:15:35.000Z</time>
      </trkpt>
      <trkpt lat="47.48275" lon="6.77037">
        <ele>316</ele>
        <time>2015-11-15T09:15:36.000Z</time>
      </trkpt>
      <trkpt lat="47.48275" lon="6.77043">
        <ele>316</ele>
        <time>2015-11-15T09:15:37.000Z</time>
      </trkpt>
      <trkpt lat="47.48274" lon="6.7705">
        <ele>316</ele>
        <time>2015-11-15T09:15:38.000Z</time>
      </trkpt>
      <trkpt lat="47.48272" lon="6.77058">
        <ele>317</ele>
        <time>2015-11-15T09:15:39.000Z</time>
      </trkpt>
      <trkpt lat="47.4827" lon="6.77066">
        <ele>317</ele>
        <time>2015-11-15T09:15:40.000Z</time>
      </trkpt>
      <trkpt lat="47.48269" lon="6.77073">
        <ele>317</ele>
        <time>2015-11-15T09:15:41.000Z</time>
      </trkpt>
      <trkpt lat="47.48267" lon="6.7708">
        <ele>317</ele>
        <time>2015-11-15T09:15:42.000Z</time>
      </trkpt>
      <trkpt lat="47.48265" lon="6.77088">
        <ele>320</ele>
        <time>2015-11-15T09:15:43.000Z</time>
      </trkpt>
      <trkpt lat="47.48265" lon="6.77096">
        <ele>320</ele>
        <time>2015-11-15T09:15:44.000Z</time>
      </trkpt>
      <trkpt lat="47.48263" lon="6.77103">
        <ele>321</ele>
        <time>2015-11-15T09:15:45.000Z</time>
      </trkpt>
      <trkpt lat="47.48262" lon="6.77109">
        <ele>321</ele>
        <time>2015-11-15T09:15:46.000Z</time>
      </trkpt>
      <trkpt lat="47.48261" lon="6.77114">
        <ele>321</ele>
        <time>2015-11-15T09:15:47.000Z</time>
      </trkpt>
      <trkpt lat="47.48259" lon="6.77118">
        <ele>321</ele>
        <time>2015-11-15T09:15:48.000Z</time>
      </trkpt>
      <trkpt lat="47.48259" lon="6.77122">
        <ele>321</ele>
        <time>2015-11-15T09:15:49.000Z</time>
      </trkpt>
      <trkpt lat="47.48258" lon="6.77127">
        <ele>322</ele>
        <time>2015-11-15T09:15:50.000Z</time>
      </trkpt>
      <trkpt lat="47.48256" lon="6.77132">
        <ele>322</ele>
        <time>2015-11-15T09:15:51.000Z</time>
      </trkpt>
      <trkpt lat="47.48255" lon="6.77139">
        <ele>322</ele>
        <time>2015-11-15T09:15:52.000Z</time>
      </trkpt>
      <trkpt lat="47.48251" lon="6.77143">
        <ele>321</ele>
        <time>2015-11-15T09:15:53.000Z</time>
      </trkpt>
      <trkpt lat="47.4825" lon="6.77149">
        <ele>318</ele>
        <time>2015-11-15T09:15:54.000Z</time>
      </trkpt>
      <trkpt lat="47.48248" lon="6.77156">
        <ele>319</ele>
        <time>2015-11-15T09:15:55.000Z</time>
      </trkpt>
      <trkpt lat="47.48247" lon="6.77163">
        <ele>319</ele>
        <time>2015-11-15T09:15:56.000Z</time>
      </trkpt>
      <trkpt lat="47.48246" lon="6.77171">
        <ele>319</ele>
        <time>2015-11-15T09:15:57.000Z</time>
      </trkpt>
      <trkpt lat="47.48245" lon="6.77178">
        <ele>318</ele>
        <time>2015-11-15T09:15:58.000Z</time>
      </trkpt>
      <trkpt lat="47.48244" lon="6.77186">
        <ele>317</ele>
        <time>2015-11-15T09:15:59.000Z</time>
      </trkpt>
      <trkpt lat="47.48244" lon="6.77193">
        <ele>317</ele>
        <time>2015-11-15T09:16:00.000Z</time>
      </trkpt>
      <trkpt lat="47.48245" lon="6.77201">
        <ele>317</ele>
        <time>2015-11-15T09:16:01.000Z</time>
      </trkpt>
      <trkpt lat="47.48247" lon="6.77207">
        <ele>316</ele>
        <time>2015-11-15T09:16:02.000Z</time>
      </trkpt>
      <trkpt lat="47.48251" lon="6.77212">
        <ele>321</ele>
        <time>2015-11-15T09:16:03.000Z</time>
      </trkpt>
      <trkpt lat="47.48256" lon="6.77216">
        <ele>321</ele>
        <time>2015-11-15T09:16:04.000Z</time>
      </trkpt>
      <trkpt lat="47.48261" lon="6.77221">
        <ele>321</ele>
        <time>2015-11-15T09:16:05.000Z</time>
      </trkpt>
      <trkpt lat="47.48264" lon="6.77223">
        <ele>321</ele>
        <time>2015-11-15T09:16:06.000Z</time>
      </trkpt>
      <trkpt lat="47.4827" lon="6.77227">
        <ele>321</ele>
        <time>2015-11-15T09:16:07.000Z</time>
      </trkpt>
      <trkpt lat="47.48276" lon="6.77228">
        <ele>321</ele>
        <time>2015-11-15T09:16:08.000Z</time>
      </trkpt>
      <trkpt lat="47.48281" lon="6.77231">
        <ele>322</ele>
        <time>2015-11-15T09:16:09.000Z</time>
      </trkpt>
      <trkpt lat="47.48288" lon="6.77232">
        <ele>322</ele>
        <time>2015-11-15T09:16:10.000Z</time>
      </trkpt>
      <trkpt lat="47.48294" lon="6.77234">
        <ele>322</ele>
        <time>2015-11-15T09:16:11.000Z</time>
      </trkpt>
      <trkpt lat="47.48299" lon="6.77237">
        <ele>323</ele>
        <time>2015-11-15T09:16:12.000Z</time>
      </trkpt>
      <trkpt lat="47.48306" lon="6.77241">
        <ele>323</ele>
        <time>2015-11-15T09:16:13.000Z</time>
      </trkpt>
      <trkpt lat="47.48312" lon="6.77244">
        <ele>323</ele>
        <time>2015-11-15T09:16:14.000Z</time>
      </trkpt>
      <trkpt lat="47.48317" lon="6.77246">
        <ele>323</ele>
        <time>2015-11-15T09:16:15.000Z</time>
      </trkpt>
      <trkpt lat="47.48322" lon="6.77251">
        <ele>321</ele>
        <time>2015-11-15T09:16:16.000Z</time>
      </trkpt>
      <trkpt lat="47.48328" lon="6.77255">
        <ele>322</ele>
        <time>2015-11-15T09:16:17.000Z</time>
      </trkpt>
      <trkpt lat="47.48333" lon="6.77258">
        <ele>322</ele>
        <time>2015-11-15T09:16:18.000Z</time>
      </trkpt>
      <trkpt lat="47.48338" lon="6.77261">
        <ele>324</ele>
        <time>2015-11-15T09:16:19.000Z</time>
      </trkpt>
      <trkpt lat="47.48342" lon="6.77265">
        <ele>324</ele>
        <time>2015-11-15T09:16:20.000Z</time>
      </trkpt>
      <trkpt lat="47.48347" lon="6.77269">
        <ele>324</ele>
        <time>2015-11-15T09:16:21.000Z</time>
      </trkpt>
      <trkpt lat="47.48353" lon="6.77272">
        <ele>324</ele>
        <time>2015-11-15T09:16:22.000Z</time>
      </trkpt>
      <trkpt lat="47.48358" lon="6.77275">
        <ele>324</ele>
        <time>2015-11-15T09:16:23.000Z</time>
      </trkpt>
      <trkpt lat="47.48363" lon="6.77279">
        <ele>324</ele>
        <time>2015-11-15T09:16:24.000Z</time>
      </trkpt>
      <trkpt lat="47.48369" lon="6.77282">
        <ele>325</ele>
        <time>2015-11-15T09:16:25.000Z</time>
      </trkpt>
      <trkpt lat="47.48373" lon="6.77286">
        <ele>325</ele>
        <time>2015-11-15T09:16:26.000Z</time>
      </trkpt>
      <trkpt lat="47.48377" lon="6.77289">
        <ele>325</ele>
        <time>2015-11-15T09:16:27.000Z</time>
      </trkpt>
      <trkpt lat="47.48382" lon="6.77294">
        <ele>325</ele>
        <time>2015-11-15T09:16:28.000Z</time>
      </trkpt>
      <trkpt lat="47.48388" lon="6.77298">
        <ele>325</ele>
        <time>2015-11-15T09:16:29.000Z</time>
      </trkpt>
      <trkpt lat="47.48392" lon="6.77302">
        <ele>325</ele>
        <time>2015-11-15T09:16:30.000Z</time>
      </trkpt>
      <trkpt lat="47.48398" lon="6.77306">
        <ele>325</ele>
        <time>2015-11-15T09:16:31.000Z</time>
      </trkpt>
      <trkpt lat="47.48402" lon="6.7731">
        <ele>325</ele>
        <time>2015-11-15T09:16:32.000Z</time>
      </trkpt>
      <trkpt lat="47.48407" lon="6.77315">
        <ele>325</ele>
        <time>2015-11-15T09:16:33.000Z</time>
      </trkpt>
      <trkpt lat="47.48412" lon="6.77319">
        <ele>326</ele>
        <time>2015-11-15T09:16:34.000Z</time>
      </trkpt>
      <trkpt lat="47.48418" lon="6.77324">
        <ele>329</ele>
        <time>2015-11-15T09:16:35.000Z</time>
      </trkpt>
      <trkpt lat="47.48423" lon="6.77329">
        <ele>328</ele>
        <time>2015-11-15T09:16:36.000Z</time>
      </trkpt>
      <trkpt lat="47.48428" lon="6.77333">
        <ele>329</ele>
        <time>2015-11-15T09:16:37.000Z</time>
      </trkpt>
      <trkpt lat="47.48433" lon="6.77339">
        <ele>327</ele>
        <time>2015-11-15T09:16:38.000Z</time>
      </trkpt>
      <trkpt lat="47.48439" lon="6.77342">
        <ele>327</ele>
        <time>2015-11-15T09:16:39.000Z</time>
      </trkpt>
      <trkpt lat="47.48451" lon="6.77353">
        <ele>327</ele>
        <time>2015-11-15T09:16:41.000Z</time>
      </trkpt>
      <trkpt lat="47.48456" lon="6.7736">
        <ele>327</ele>
        <time>2015-11-15T09:16:42.000Z</time>
      </trkpt>
      <trkpt lat="47.48462" lon="6.77365">
        <ele>328</ele>
        <time>2015-11-15T09:16:43.000Z</time>
      </trkpt>
      <trkpt lat="47.48467" lon="6.77369">
        <ele>328</ele>
        <time>2015-11-15T09:16:44.000Z</time>
      </trkpt>
      <trkpt lat="47.48473" lon="6.77375">
        <ele>328</ele>
        <time>2015-11-15T09:16:45.000Z</time>
      </trkpt>
      <trkpt lat="47.48477" lon="6.77383">
        <ele>327</ele>
        <time>2015-11-15T09:16:46.000Z</time>
      </trkpt>
      <trkpt lat="47.48482" lon="6.77389">
        <ele>327</ele>
        <time>2015-11-15T09:16:47.000Z</time>
      </trkpt>
      <trkpt lat="47.48488" lon="6.77394">
        <ele>327</ele>
        <time>2015-11-15T09:16:48.000Z</time>
      </trkpt>
      <trkpt lat="47.48493" lon="6.774">
        <ele>327</ele>
        <time>2015-11-15T09:16:49.000Z</time>
      </trkpt>
      <trkpt lat="47.48499" lon="6.77405">
        <ele>326</ele>
        <time>2015-11-15T09:16:50.000Z</time>
      </trkpt>
      <trkpt lat="47.48503" lon="6.77414">
        <ele>327</ele>
        <time>2015-11-15T09:16:51.000Z</time>
      </trkpt>
      <trkpt lat="47.48509" lon="6.77418">
        <ele>326</ele>
        <time>2015-11-15T09:16:52.000Z</time>
      </trkpt>
      <trkpt lat="47.48514" lon="6.77424">
        <ele>327</ele>
        <time>2015-11-15T09:16:53.000Z</time>
      </trkpt>
      <trkpt lat="47.48518" lon="6.77431">
        <ele>327</ele>
        <time>2015-11-15T09:16:54.000Z</time>
      </trkpt>
      <trkpt lat="47.48524" lon="6.77436">
        <ele>327</ele>
        <time>2015-11-15T09:16:55.000Z</time>
      </trkpt>
      <trkpt lat="47.48529" lon="6.77442">
        <ele>327</ele>
        <time>2015-11-15T09:16:56.000Z</time>
      </trkpt>
      <trkpt lat="47.48534" lon="6.77447">
        <ele>327</ele>
        <time>2015-11-15T09:16:57.000Z</time>
      </trkpt>
      <trkpt lat="47.48539" lon="6.77452">
        <ele>327</ele>
        <time>2015-11-15T09:16:58.000Z</time>
      </trkpt>
      <trkpt lat="47.48543" lon="6.77458">
        <ele>327</ele>
        <time>2015-11-15T09:16:59.000Z</time>
      </trkpt>
      <trkpt lat="47.48548" lon="6.77464">
        <ele>327</ele>
        <time>2015-11-15T09:17:00.000Z</time>
      </trkpt>
      <trkpt lat="47.48553" lon="6.77468">
        <ele>327</ele>
        <time>2015-11-15T09:17:01.000Z</time>
      </trkpt>
      <trkpt lat="47.48556" lon="6.77479">
        <ele>326</ele>
        <time>2015-11-15T09:17:02.000Z</time>
      </trkpt>
      <trkpt lat="47.4856" lon="6.77486">
        <ele>326</ele>
        <time>2015-11-15T09:17:03.000Z</time>
      </trkpt>
      <trkpt lat="47.48563" lon="6.77494">
        <ele>326</ele>
        <time>2015-11-15T09:17:04.000Z</time>
      </trkpt>
      <trkpt lat="47.48566" lon="6.77504">
        <ele>321</ele>
        <time>2015-11-15T09:17:05.000Z</time>
      </trkpt>
      <trkpt lat="47.48571" lon="6.7751">
        <ele>322</ele>
        <time>2015-11-15T09:17:06.000Z</time>
      </trkpt>
      <trkpt lat="47.48575" lon="6.77516">
        <ele>321</ele>
        <time>2015-11-15T09:17:07.000Z</time>
      </trkpt>
      <trkpt lat="47.48579" lon="6.77524">
        <ele>320</ele>
        <time>2015-11-15T09:17:08.000Z</time>
      </trkpt>
      <trkpt lat="47.48583" lon="6.77531">
        <ele>320</ele>
        <time>2015-11-15T09:17:09.000Z</time>
      </trkpt>
      <trkpt lat="47.48589" lon="6.77534">
        <ele>326</ele>
        <time>2015-11-15T09:17:10.000Z</time>
      </trkpt>
      <trkpt lat="47.48594" lon="6.77541">
        <ele>326</ele>
        <time>2015-11-15T09:17:11.000Z</time>
      </trkpt>
      <trkpt lat="47.48599" lon="6.77548">
        <ele>326</ele>
        <time>2015-11-15T09:17:12.000Z</time>
      </trkpt>
      <trkpt lat="47.48604" lon="6.77556">
        <ele>325</ele>
        <time>2015-11-15T09:17:13.000Z</time>
      </trkpt>
      <trkpt lat="47.48607" lon="6.77563">
        <ele>325</ele>
        <time>2015-11-15T09:17:14.000Z</time>
      </trkpt>
      <trkpt lat="47.4861" lon="6.77573">
        <ele>325</ele>
        <time>2015-11-15T09:17:15.000Z</time>
      </trkpt>
      <trkpt lat="47.4861" lon="6.77588">
        <ele>319</ele>
        <time>2015-11-15T09:17:16.000Z</time>
      </trkpt>
      <trkpt lat="47.48612" lon="6.776">
        <ele>319</ele>
        <time>2015-11-15T09:17:17.000Z</time>
      </trkpt>
      <trkpt lat="47.4861" lon="6.77609">
        <ele>319</ele>
        <time>2015-11-15T09:17:18.000Z</time>
      </trkpt>
      <trkpt lat="47.48608" lon="6.77621">
        <ele>318</ele>
        <time>2015-11-15T09:17:19.000Z</time>
      </trkpt>
      <trkpt lat="47.48606" lon="6.77631">
        <ele>318</ele>
        <time>2015-11-15T09:17:20.000Z</time>
      </trkpt>
      <trkpt lat="47.48604" lon="6.77639">
        <ele>317</ele>
        <time>2015-11-15T09:17:21.000Z</time>
      </trkpt>
      <trkpt lat="47.48602" lon="6.77649">
        <ele>317</ele>
        <time>2015-11-15T09:17:22.000Z</time>
      </trkpt>
      <trkpt lat="47.48599" lon="6.77658">
        <ele>316</ele>
        <time>2015-11-15T09:17:23.000Z</time>
      </trkpt>
      <trkpt lat="47.48597" lon="6.77667">
        <ele>313</ele>
        <time>2015-11-15T09:17:24.000Z</time>
      </trkpt>
      <trkpt lat="47.48596" lon="6.77677">
        <ele>313</ele>
        <time>2015-11-15T09:17:25.000Z</time>
      </trkpt>
      <trkpt lat="47.48594" lon="6.77687">
        <ele>314</ele>
        <time>2015-11-15T09:17:26.000Z</time>
      </trkpt>
      <trkpt lat="47.48592" lon="6.77698">
        <ele>314</ele>
        <time>2015-11-15T09:17:27.000Z</time>
      </trkpt>
      <trkpt lat="47.48591" lon="6.77707">
        <ele>314</ele>
        <time>2015-11-15T09:17:28.000Z</time>
      </trkpt>
      <trkpt lat="47.4859" lon="6.77716">
        <ele>313</ele>
        <time>2015-11-15T09:17:29.000Z</time>
      </trkpt>
      <trkpt lat="47.48589" lon="6.77724">
        <ele>313</ele>
        <time>2015-11-15T09:17:30.000Z</time>
      </trkpt>
      <trkpt lat="47.48588" lon="6.77734">
        <ele>313</ele>
        <time>2015-11-15T09:17:31.000Z</time>
      </trkpt>
      <trkpt lat="47.48588" lon="6.77742">
        <ele>313</ele>
        <time>2015-11-15T09:17:32.000Z</time>
      </trkpt>
      <trkpt lat="47.48586" lon="6.77751">
        <ele>313</ele>
        <time>2015-11-15T09:17:33.000Z</time>
      </trkpt>
      <trkpt lat="47.48584" lon="6.7776">
        <ele>313</ele>
        <time>2015-11-15T09:17:34.000Z</time>
      </trkpt>
      <trkpt lat="47.48583" lon="6.77768">
        <ele>313</ele>
        <time>2015-11-15T09:17:35.000Z</time>
      </trkpt>
      <trkpt lat="47.48582" lon="6.77775">
        <ele>313</ele>
        <time>2015-11-15T09:17:36.000Z</time>
      </trkpt>
      <trkpt lat="47.48581" lon="6.77784">
        <ele>312</ele>
        <time>2015-11-15T09:17:37.000Z</time>
      </trkpt>
      <trkpt lat="47.48579" lon="6.77792">
        <ele>312</ele>
        <time>2015-11-15T09:17:38.000Z</time>
      </trkpt>
      <trkpt lat="47.48577" lon="6.77801">
        <ele>312</ele>
        <time>2015-11-15T09:17:39.000Z</time>
      </trkpt>
      <trkpt lat="47.48575" lon="6.77809">
        <ele>312</ele>
        <time>2015-11-15T09:17:40.000Z</time>
      </trkpt>
      <trkpt lat="47.48573" lon="6.77818">
        <ele>312</ele>
        <time>2015-11-15T09:17:41.000Z</time>
      </trkpt>
      <trkpt lat="47.48571" lon="6.77826">
        <ele>312</ele>
        <time>2015-11-15T09:17:42.000Z</time>
      </trkpt>
      <trkpt lat="47.48569" lon="6.77836">
        <ele>312</ele>
        <time>2015-11-15T09:17:43.000Z</time>
      </trkpt>
      <trkpt lat="47.48568" lon="6.77845">
        <ele>312</ele>
        <time>2015-11-15T09:17:44.000Z</time>
      </trkpt>
      <trkpt lat="47.48566" lon="6.77854">
        <ele>312</ele>
        <time>2015-11-15T09:17:45.000Z</time>
      </trkpt>
      <trkpt lat="47.48565" lon="6.77863">
        <ele>312</ele>
        <time>2015-11-15T09:17:46.000Z</time>
      </trkpt>
      <trkpt lat="47.48563" lon="6.77872">
        <ele>312</ele>
        <time>2015-11-15T09:17:47.000Z</time>
      </trkpt>
      <trkpt lat="47.48561" lon="6.7788">
        <ele>312</ele>
        <time>2015-11-15T09:17:48.000Z</time>
      </trkpt>
      <trkpt lat="47.48559" lon="6.77889">
        <ele>312</ele>
        <time>2015-11-15T09:17:49.000Z</time>
      </trkpt>
      <trkpt lat="47.48557" lon="6.77898">
        <ele>312</ele>
        <time>2015-11-15T09:17:50.000Z</time>
      </trkpt>
      <trkpt lat="47.48556" lon="6.77906">
        <ele>312</ele>
        <time>2015-11-15T09:17:51.000Z</time>
      </trkpt>
      <trkpt lat="47.48555" lon="6.77915">
        <ele>312</ele>
        <time>2015-11-15T09:17:52.000Z</time>
      </trkpt>
      <trkpt lat="47.48553" lon="6.77924">
        <ele>313</ele>
        <time>2015-11-15T09:17:53.000Z</time>
      </trkpt>
      <trkpt lat="47.48552" lon="6.77933">
        <ele>313</ele>
        <time>2015-11-15T09:17:54.000Z</time>
      </trkpt>
      <trkpt lat="47.48551" lon="6.77941">
        <ele>313</ele>
        <time>2015-11-15T09:17:55.000Z</time>
      </trkpt>
      <trkpt lat="47.4855" lon="6.7795">
        <ele>313</ele>
        <time>2015-11-15T09:17:56.000Z</time>
      </trkpt>
      <trkpt lat="47.48548" lon="6.77959">
        <ele>313</ele>
        <time>2015-11-15T09:17:57.000Z</time>
      </trkpt>
      <trkpt lat="47.48547" lon="6.77967">
        <ele>313</ele>
        <time>2015-11-15T09:17:58.000Z</time>
      </trkpt>
      <trkpt lat="47.48546" lon="6.77976">
        <ele>313</ele>
        <time>2015-11-15T09:17:59.000Z</time>
      </trkpt>
      <trkpt lat="47.48548" lon="6.77985">
        <ele>313</ele>
        <time>2015-11-15T09:18:00.000Z</time>
      </trkpt>
      <trkpt lat="47.48551" lon="6.77993">
        <ele>313</ele>
        <time>2015-11-15T09:18:01.000Z</time>
      </trkpt>
      <trkpt lat="47.48554" lon="6.78">
        <ele>313</ele>
        <time>2015-11-15T09:18:02.000Z</time>
      </trkpt>
      <trkpt lat="47.48558" lon="6.78007">
        <ele>313</ele>
        <time>2015-11-15T09:18:03.000Z</time>
      </trkpt>
      <trkpt lat="47.48563" lon="6.78014">
        <ele>313</ele>
        <time>2015-11-15T09:18:04.000Z</time>
      </trkpt>
      <trkpt lat="47.48567" lon="6.78021">
        <ele>313</ele>
        <time>2015-11-15T09:18:05.000Z</time>
      </trkpt>
      <trkpt lat="47.48571" lon="6.78028">
        <ele>313</ele>
        <time>2015-11-15T09:18:06.000Z</time>
      </trkpt>
      <trkpt lat="47.48574" lon="6.78035">
        <ele>313</ele>
        <time>2015-11-15T09:18:07.000Z</time>
      </trkpt>
      <trkpt lat="47.48578" lon="6.78041">
        <ele>313</ele>
        <time>2015-11-15T09:18:08.000Z</time>
      </trkpt>
      <trkpt lat="47.48582" lon="6.78048">
        <ele>314</ele>
        <time>2015-11-15T09:18:09.000Z</time>
      </trkpt>
      <trkpt lat="47.48586" lon="6.78055">
        <ele>313</ele>
        <time>2015-11-15T09:18:10.000Z</time>
      </trkpt>
      <trkpt lat="47.4859" lon="6.78062">
        <ele>314</ele>
        <time>2015-11-15T09:18:11.000Z</time>
      </trkpt>
      <trkpt lat="47.48594" lon="6.78068">
        <ele>314</ele>
        <time>2015-11-15T09:18:12.000Z</time>
      </trkpt>
      <trkpt lat="47.48598" lon="6.78074">
        <ele>314</ele>
        <time>2015-11-15T09:18:13.000Z</time>
      </trkpt>
      <trkpt lat="47.48602" lon="6.7808">
        <ele>314</ele>
        <time>2015-11-15T09:18:14.000Z</time>
      </trkpt>
      <trkpt lat="47.48605" lon="6.78086">
        <ele>313</ele>
        <time>2015-11-15T09:18:15.000Z</time>
      </trkpt>
      <trkpt lat="47.4861" lon="6.78091">
        <ele>313</ele>
        <time>2015-11-15T09:18:16.000Z</time>
      </trkpt>
      <trkpt lat="47.48613" lon="6.78099">
        <ele>313</ele>
        <time>2015-11-15T09:18:17.000Z</time>
      </trkpt>
      <trkpt lat="47.48617" lon="6.78106">
        <ele>313</ele>
        <time>2015-11-15T09:18:18.000Z</time>
      </trkpt>
      <trkpt lat="47.48621" lon="6.78113">
        <ele>313</ele>
        <time>2015-11-15T09:18:19.000Z</time>
      </trkpt>
      <trkpt lat="47.48625" lon="6.7812">
        <ele>313</ele>
        <time>2015-11-15T09:18:20.000Z</time>
      </trkpt>
      <trkpt lat="47.4863" lon="6.78127">
        <ele>313</ele>
        <time>2015-11-15T09:18:21.000Z</time>
      </trkpt>
      <trkpt lat="47.48635" lon="6.78132">
        <ele>313</ele>
        <time>2015-11-15T09:18:22.000Z</time>
      </trkpt>
      <trkpt lat="47.48639" lon="6.78139">
        <ele>313</ele>
        <time>2015-11-15T09:18:23.000Z</time>
      </trkpt>
      <trkpt lat="47.48643" lon="6.78146">
        <ele>313</ele>
        <time>2015-11-15T09:18:24.000Z</time>
      </trkpt>
      <trkpt lat="47.48647" lon="6.78152">
        <ele>313</ele>
        <time>2015-11-15T09:18:25.000Z</time>
      </trkpt>
      <trkpt lat="47.48651" lon="6.78158">
        <ele>313</ele>
        <time>2015-11-15T09:18:26.000Z</time>
      </trkpt>
      <trkpt lat="47.48656" lon="6.78163">
        <ele>313</ele>
        <time>2015-11-15T09:18:27.000Z</time>
      </trkpt>
      <trkpt lat="47.4866" lon="6.78169">
        <ele>313</ele>
        <time>2015-11-15T09:18:28.000Z</time>
      </trkpt>
      <trkpt lat="47.48665" lon="6.78176">
        <ele>313</ele>
        <time>2015-11-15T09:18:29.000Z</time>
      </trkpt>
      <trkpt lat="47.48669" lon="6.7818">
        <ele>313</ele>
        <time>2015-11-15T09:18:30.000Z</time>
      </trkpt>
      <trkpt lat="47.48673" lon="6.78186">
        <ele>313</ele>
        <time>2015-11-15T09:18:31.000Z</time>
      </trkpt>
      <trkpt lat="47.48677" lon="6.78191">
        <ele>313</ele>
        <time>2015-11-15T09:18:32.000Z</time>
      </trkpt>
      <trkpt lat="47.48682" lon="6.78196">
        <ele>313</ele>
        <time>2015-11-15T09:18:33.000Z</time>
      </trkpt>
      <trkpt lat="47.48687" lon="6.78201">
        <ele>313</ele>
        <time>2015-11-15T09:18:34.000Z</time>
      </trkpt>
      <trkpt lat="47.48692" lon="6.78206">
        <ele>313</ele>
        <time>2015-11-15T09:18:35.000Z</time>
      </trkpt>
      <trkpt lat="47.48696" lon="6.78211">
        <ele>313</ele>
        <time>2015-11-15T09:18:36.000Z</time>
      </trkpt>
      <trkpt lat="47.48701" lon="6.78216">
        <ele>313</ele>
        <time>2015-11-15T09:18:37.000Z</time>
      </trkpt>
      <trkpt lat="47.48706" lon="6.7822">
        <ele>313</ele>
        <time>2015-11-15T09:18:38.000Z</time>
      </trkpt>
      <trkpt lat="47.48711" lon="6.78223">
        <ele>313</ele>
        <time>2015-11-15T09:18:39.000Z</time>
      </trkpt>
      <trkpt lat="47.48716" lon="6.78226">
        <ele>313</ele>
        <time>2015-11-15T09:18:40.000Z</time>
      </trkpt>
      <trkpt lat="47.48722" lon="6.78231">
        <ele>313</ele>
        <time>2015-11-15T09:18:41.000Z</time>
      </trkpt>
      <trkpt lat="47.48728" lon="6.78235">
        <ele>313</ele>
        <time>2015-11-15T09:18:42.000Z</time>
      </trkpt>
      <trkpt lat="47.48733" lon="6.78239">
        <ele>312</ele>
        <time>2015-11-15T09:18:43.000Z</time>
      </trkpt>
      <trkpt lat="47.4874" lon="6.78241">
        <ele>312</ele>
        <time>2015-11-15T09:18:44.000Z</time>
      </trkpt>
      <trkpt lat="47.48746" lon="6.78245">
        <ele>312</ele>
        <time>2015-11-15T09:18:45.000Z</time>
      </trkpt>
      <trkpt lat="47.48752" lon="6.78249">
        <ele>312</ele>
        <time>2015-11-15T09:18:46.000Z</time>
      </trkpt>
      <trkpt lat="47.48757" lon="6.78252">
        <ele>312</ele>
        <time>2015-11-15T09:18:47.000Z</time>
      </trkpt>
      <trkpt lat="47.48763" lon="6.78256">
        <ele>312</ele>
        <time>2015-11-15T09:18:48.000Z</time>
      </trkpt>
      <trkpt lat="47.48769" lon="6.78258">
        <ele>312</ele>
        <time>2015-11-15T09:18:49.000Z</time>
      </trkpt>
      <trkpt lat="47.48774" lon="6.78261">
        <ele>312</ele>
        <time>2015-11-15T09:18:50.000Z</time>
      </trkpt>
      <trkpt lat="47.4878" lon="6.78264">
        <ele>312</ele>
        <time>2015-11-15T09:18:51.000Z</time>
      </trkpt>
      <trkpt lat="47.48786" lon="6.78267">
        <ele>312</ele>
        <time>2015-11-15T09:18:52.000Z</time>
      </trkpt>
      <trkpt lat="47.48791" lon="6.7827">
        <ele>312</ele>
        <time>2015-11-15T09:18:53.000Z</time>
      </trkpt>
      <trkpt lat="47.48796" lon="6.78271">
        <ele>311</ele>
        <time>2015-11-15T09:18:54.000Z</time>
      </trkpt>
      <trkpt lat="47.48802" lon="6.78273">
        <ele>311</ele>
        <time>2015-11-15T09:18:55.000Z</time>
      </trkpt>
      <trkpt lat="47.48808" lon="6.78278">
        <ele>311</ele>
        <time>2015-11-15T09:18:56.000Z</time>
      </trkpt>
      <trkpt lat="47.48814" lon="6.78281">
        <ele>311</ele>
        <time>2015-11-15T09:18:57.000Z</time>
      </trkpt>
      <trkpt lat="47.4882" lon="6.78285">
        <ele>311</ele>
        <time>2015-11-15T09:18:58.000Z</time>
      </trkpt>
      <trkpt lat="47.48826" lon="6.78291">
        <ele>311</ele>
        <time>2015-11-15T09:18:59.000Z</time>
      </trkpt>
      <trkpt lat="47.48831" lon="6.78295">
        <ele>311</ele>
        <time>2015-11-15T09:19:00.000Z</time>
      </trkpt>
      <trkpt lat="47.48838" lon="6.78298">
        <ele>311</ele>
        <time>2015-11-15T09:19:01.000Z</time>
      </trkpt>
      <trkpt lat="47.48843" lon="6.78302">
        <ele>311</ele>
        <time>2015-11-15T09:19:02.000Z</time>
      </trkpt>
      <trkpt lat="47.48849" lon="6.78306">
        <ele>311</ele>
        <time>2015-11-15T09:19:03.000Z</time>
      </trkpt>
      <trkpt lat="47.48855" lon="6.78311">
        <ele>312</ele>
        <time>2015-11-15T09:19:04.000Z</time>
      </trkpt>
      <trkpt lat="47.48861" lon="6.78314">
        <ele>312</ele>
        <time>2015-11-15T09:19:05.000Z</time>
      </trkpt>
      <trkpt lat="47.48867" lon="6.78317">
        <ele>312</ele>
        <time>2015-11-15T09:19:06.000Z</time>
      </trkpt>
      <trkpt lat="47.48873" lon="6.7832">
        <ele>312</ele>
        <time>2015-11-15T09:19:07.000Z</time>
      </trkpt>
      <trkpt lat="47.48879" lon="6.78324">
        <ele>312</ele>
        <time>2015-11-15T09:19:08.000Z</time>
      </trkpt>
      <trkpt lat="47.48885" lon="6.78328">
        <ele>312</ele>
        <time>2015-11-15T09:19:09.000Z</time>
      </trkpt>
      <trkpt lat="47.48891" lon="6.78332">
        <ele>312</ele>
        <time>2015-11-15T09:19:10.000Z</time>
      </trkpt>
      <trkpt lat="47.48897" lon="6.78335">
        <ele>312</ele>
        <time>2015-11-15T09:19:11.000Z</time>
      </trkpt>
      <trkpt lat="47.48903" lon="6.78338">
        <ele>312</ele>
        <time>2015-11-15T09:19:12.000Z</time>
      </trkpt>
      <trkpt lat="47.48909" lon="6.78343">
        <ele>312</ele>
        <time>2015-11-15T09:19:13.000Z</time>
      </trkpt>
      <trkpt lat="47.48914" lon="6.78347">
        <ele>312</ele>
        <time>2015-11-15T09:19:14.000Z</time>
      </trkpt>
      <trkpt lat="47.48919" lon="6.7835">
        <ele>313</ele>
        <time>2015-11-15T09:19:15.000Z</time>
      </trkpt>
      <trkpt lat="47.48924" lon="6.78354">
        <ele>313</ele>
        <time>2015-11-15T09:19:16.000Z</time>
      </trkpt>
      <trkpt lat="47.48929" lon="6.78359">
        <ele>314</ele>
        <time>2015-11-15T09:19:17.000Z</time>
      </trkpt>
      <trkpt lat="47.48934" lon="6.78364">
        <ele>314</ele>
        <time>2015-11-15T09:19:18.000Z</time>
      </trkpt>
      <trkpt lat="47.4894" lon="6.7837">
        <ele>314</ele>
        <time>2015-11-15T09:19:19.000Z</time>
      </trkpt>
      <trkpt lat="47.48945" lon="6.78377">
        <ele>314</ele>
        <time>2015-11-15T09:19:20.000Z</time>
      </trkpt>
      <trkpt lat="47.4895" lon="6.78384">
        <ele>314</ele>
        <time>2015-11-15T09:19:21.000Z</time>
      </trkpt>
      <trkpt lat="47.48955" lon="6.78391">
        <ele>314</ele>
        <time>2015-11-15T09:19:22.000Z</time>
      </trkpt>
      <trkpt lat="47.48959" lon="6.78395">
        <ele>314</ele>
        <time>2015-11-15T09:19:23.000Z</time>
      </trkpt>
      <trkpt lat="47.48964" lon="6.78401">
        <ele>314</ele>
        <time>2015-11-15T09:19:24.000Z</time>
      </trkpt>
      <trkpt lat="47.48968" lon="6.78407">
        <ele>314</ele>
        <time>2015-11-15T09:19:25.000Z</time>
      </trkpt>
      <trkpt lat="47.48973" lon="6.78411">
        <ele>314</ele>
        <time>2015-11-15T09:19:26.000Z</time>
      </trkpt>
      <trkpt lat="47.48977" lon="6.78418">
        <ele>314</ele>
        <time>2015-11-15T09:19:27.000Z</time>
      </trkpt>
      <trkpt lat="47.48982" lon="6.78423">
        <ele>314</ele>
        <time>2015-11-15T09:19:28.000Z</time>
      </trkpt>
      <trkpt lat="47.48987" lon="6.7843">
        <ele>314</ele>
        <time>2015-11-15T09:19:29.000Z</time>
      </trkpt>
      <trkpt lat="47.48991" lon="6.78436">
        <ele>314</ele>
        <time>2015-11-15T09:19:30.000Z</time>
      </trkpt>
      <trkpt lat="47.48996" lon="6.78441">
        <ele>314</ele>
        <time>2015-11-15T09:19:31.000Z</time>
      </trkpt>
      <trkpt lat="47.49001" lon="6.78448">
        <ele>317</ele>
        <time>2015-11-15T09:19:32.000Z</time>
      </trkpt>
      <trkpt lat="47.49006" lon="6.78453">
        <ele>317</ele>
        <time>2015-11-15T09:19:33.000Z</time>
      </trkpt>
      <trkpt lat="47.49011" lon="6.7846">
        <ele>317</ele>
        <time>2015-11-15T09:19:34.000Z</time>
      </trkpt>
      <trkpt lat="47.49016" lon="6.78466">
        <ele>317</ele>
        <time>2015-11-15T09:19:35.000Z</time>
      </trkpt>
      <trkpt lat="47.4902" lon="6.78472">
        <ele>317</ele>
        <time>2015-11-15T09:19:36.000Z</time>
      </trkpt>
      <trkpt lat="47.49025" lon="6.78479">
        <ele>317</ele>
        <time>2015-11-15T09:19:37.000Z</time>
      </trkpt>
      <trkpt lat="47.49029" lon="6.78484">
        <ele>317</ele>
        <time>2015-11-15T09:19:38.000Z</time>
      </trkpt>
      <trkpt lat="47.49034" lon="6.7849">
        <ele>317</ele>
        <time>2015-11-15T09:19:39.000Z</time>
      </trkpt>
      <trkpt lat="47.49045" lon="6.78501">
        <ele>315</ele>
        <time>2015-11-15T09:19:41.000Z</time>
      </trkpt>
      <trkpt lat="47.49049" lon="6.78506">
        <ele>316</ele>
        <time>2015-11-15T09:19:42.000Z</time>
      </trkpt>
      <trkpt lat="47.49055" lon="6.78512">
        <ele>316</ele>
        <time>2015-11-15T09:19:43.000Z</time>
      </trkpt>
      <trkpt lat="47.4906" lon="6.78518">
        <ele>316</ele>
        <time>2015-11-15T09:19:44.000Z</time>
      </trkpt>
      <trkpt lat="47.49065" lon="6.78525">
        <ele>316</ele>
        <time>2015-11-15T09:19:45.000Z</time>
      </trkpt>
      <trkpt lat="47.4907" lon="6.78531">
        <ele>316</ele>
        <time>2015-11-15T09:19:46.000Z</time>
      </trkpt>
      <trkpt lat="47.49074" lon="6.78539">
        <ele>315</ele>
        <time>2015-11-15T09:19:47.000Z</time>
      </trkpt>
      <trkpt lat="47.49078" lon="6.78547">
        <ele>315</ele>
        <time>2015-11-15T09:19:48.000Z</time>
      </trkpt>
      <trkpt lat="47.49082" lon="6.78556">
        <ele>314</ele>
        <time>2015-11-15T09:19:49.000Z</time>
      </trkpt>
      <trkpt lat="47.49086" lon="6.78564">
        <ele>318</ele>
        <time>2015-11-15T09:19:50.000Z</time>
      </trkpt>
      <trkpt lat="47.4909" lon="6.78572">
        <ele>317</ele>
        <time>2015-11-15T09:19:51.000Z</time>
      </trkpt>
      <trkpt lat="47.49094" lon="6.7858">
        <ele>317</ele>
        <time>2015-11-15T09:19:52.000Z</time>
      </trkpt>
      <trkpt lat="47.49098" lon="6.78587">
        <ele>315</ele>
        <time>2015-11-15T09:19:53.000Z</time>
      </trkpt>
      <trkpt lat="47.49101" lon="6.78594">
        <ele>315</ele>
        <time>2015-11-15T09:19:54.000Z</time>
      </trkpt>
      <trkpt lat="47.49105" lon="6.78601">
        <ele>316</ele>
        <time>2015-11-15T09:19:55.000Z</time>
      </trkpt>
      <trkpt lat="47.49108" lon="6.78607">
        <ele>316</ele>
        <time>2015-11-15T09:19:56.000Z</time>
      </trkpt>
      <trkpt lat="47.49112" lon="6.78612">
        <ele>316</ele>
        <time>2015-11-15T09:19:57.000Z</time>
      </trkpt>
      <trkpt lat="47.49116" lon="6.78618">
        <ele>316</ele>
        <time>2015-11-15T09:19:58.000Z</time>
      </trkpt>
      <trkpt lat="47.4912" lon="6.78623">
        <ele>316</ele>
        <time>2015-11-15T09:19:59.000Z</time>
      </trkpt>
      <trkpt lat="47.49124" lon="6.78628">
        <ele>316</ele>
        <time>2015-11-15T09:20:00.000Z</time>
      </trkpt>
      <trkpt lat="47.49128" lon="6.78631">
        <ele>316</ele>
        <time>2015-11-15T09:20:01.000Z</time>
      </trkpt>
      <trkpt lat="47.49132" lon="6.78636">
        <ele>317</ele>
        <time>2015-11-15T09:20:02.000Z</time>
      </trkpt>
      <trkpt lat="47.49137" lon="6.78642">
        <ele>317</ele>
        <time>2015-11-15T09:20:03.000Z</time>
      </trkpt>
      <trkpt lat="47.4914" lon="6.78651">
        <ele>317</ele>
        <time>2015-11-15T09:20:04.000Z</time>
      </trkpt>
      <trkpt lat="47.49144" lon="6.78657">
        <ele>317</ele>
        <time>2015-11-15T09:20:05.000Z</time>
      </trkpt>
      <trkpt lat="47.49149" lon="6.78662">
        <ele>317</ele>
        <time>2015-11-15T09:20:06.000Z</time>
      </trkpt>
      <trkpt lat="47.49152" lon="6.78667">
        <ele>317</ele>
        <time>2015-11-15T09:20:07.000Z</time>
      </trkpt>
      <trkpt lat="47.49158" lon="6.78669">
        <ele>316</ele>
        <time>2015-11-15T09:20:08.000Z</time>
      </trkpt>
      <trkpt lat="47.49163" lon="6.78671">
        <ele>316</ele>
        <time>2015-11-15T09:20:09.000Z</time>
      </trkpt>
      <trkpt lat="47.49169" lon="6.78673">
        <ele>318</ele>
        <time>2015-11-15T09:20:10.000Z</time>
      </trkpt>
      <trkpt lat="47.49174" lon="6.78674">
        <ele>319</ele>
        <time>2015-11-15T09:20:11.000Z</time>
      </trkpt>
      <trkpt lat="47.4918" lon="6.78675">
        <ele>320</ele>
        <time>2015-11-15T09:20:12.000Z</time>
      </trkpt>
      <trkpt lat="47.49185" lon="6.78681">
        <ele>321</ele>
        <time>2015-11-15T09:20:13.000Z</time>
      </trkpt>
      <trkpt lat="47.49188" lon="6.78686">
        <ele>321</ele>
        <time>2015-11-15T09:20:14.000Z</time>
      </trkpt>
      <trkpt lat="47.49193" lon="6.78694">
        <ele>322</ele>
        <time>2015-11-15T09:20:15.000Z</time>
      </trkpt>
      <trkpt lat="47.49197" lon="6.787">
        <ele>322</ele>
        <time>2015-11-15T09:20:16.000Z</time>
      </trkpt>
      <trkpt lat="47.49201" lon="6.78705">
        <ele>322</ele>
        <time>2015-11-15T09:20:17.000Z</time>
      </trkpt>
      <trkpt lat="47.49205" lon="6.7871">
        <ele>322</ele>
        <time>2015-11-15T09:20:18.000Z</time>
      </trkpt>
      <trkpt lat="47.49209" lon="6.78715">
        <ele>322</ele>
        <time>2015-11-15T09:20:19.000Z</time>
      </trkpt>
      <trkpt lat="47.49213" lon="6.78722">
        <ele>322</ele>
        <time>2015-11-15T09:20:20.000Z</time>
      </trkpt>
      <trkpt lat="47.49216" lon="6.78734">
        <ele>322</ele>
        <time>2015-11-15T09:20:21.000Z</time>
      </trkpt>
      <trkpt lat="47.49219" lon="6.78744">
        <ele>322</ele>
        <time>2015-11-15T09:20:22.000Z</time>
      </trkpt>
      <trkpt lat="47.49221" lon="6.78752">
        <ele>319</ele>
        <time>2015-11-15T09:20:23.000Z</time>
      </trkpt>
      <trkpt lat="47.49223" lon="6.78762">
        <ele>319</ele>
        <time>2015-11-15T09:20:24.000Z</time>
      </trkpt>
      <trkpt lat="47.49226" lon="6.78771">
        <ele>318</ele>
        <time>2015-11-15T09:20:25.000Z</time>
      </trkpt>
      <trkpt lat="47.49229" lon="6.78779">
        <ele>318</ele>
        <time>2015-11-15T09:20:26.000Z</time>
      </trkpt>
      <trkpt lat="47.49234" lon="6.78788">
        <ele>318</ele>
        <time>2015-11-15T09:20:27.000Z</time>
      </trkpt>
      <trkpt lat="47.49237" lon="6.78796">
        <ele>318</ele>
        <time>2015-11-15T09:20:28.000Z</time>
      </trkpt>
      <trkpt lat="47.4924" lon="6.78804">
        <ele>318</ele>
        <time>2015-11-15T09:20:29.000Z</time>
      </trkpt>
      <trkpt lat="47.49243" lon="6.7881">
        <ele>317</ele>
        <time>2015-11-15T09:20:30.000Z</time>
      </trkpt>
      <trkpt lat="47.49245" lon="6.78819">
        <ele>318</ele>
        <time>2015-11-15T09:20:31.000Z</time>
      </trkpt>
      <trkpt lat="47.49248" lon="6.78827">
        <ele>318</ele>
        <time>2015-11-15T09:20:32.000Z</time>
      </trkpt>
      <trkpt lat="47.49251" lon="6.78835">
        <ele>319</ele>
        <time>2015-11-15T09:20:33.000Z</time>
      </trkpt>
      <trkpt lat="47.49253" lon="6.78842">
        <ele>320</ele>
        <time>2015-11-15T09:20:34.000Z</time>
      </trkpt>
      <trkpt lat="47.49256" lon="6.78849">
        <ele>322</ele>
        <time>2015-11-15T09:20:35.000Z</time>
      </trkpt>
      <trkpt lat="47.49257" lon="6.78855">
        <ele>322</ele>
        <time>2015-11-15T09:20:36.000Z</time>
      </trkpt>
      <trkpt lat="47.4926" lon="6.78862">
        <ele>323</ele>
        <time>2015-11-15T09:20:37.000Z</time>
      </trkpt>
      <trkpt lat="47.49264" lon="6.78869">
        <ele>323</ele>
        <time>2015-11-15T09:20:38.000Z</time>
      </trkpt>
      <trkpt lat="47.49268" lon="6.78877">
        <ele>323</ele>
        <time>2015-11-15T09:20:39.000Z</time>
      </trkpt>
      <trkpt lat="47.49271" lon="6.78884">
        <ele>323</ele>
        <time>2015-11-15T09:20:40.000Z</time>
      </trkpt>
      <trkpt lat="47.49274" lon="6.78892">
        <ele>323</ele>
        <time>2015-11-15T09:20:41.000Z</time>
      </trkpt>
      <trkpt lat="47.49278" lon="6.78899">
        <ele>323</ele>
        <time>2015-11-15T09:20:42.000Z</time>
      </trkpt>
      <trkpt lat="47.49281" lon="6.78906">
        <ele>323</ele>
        <time>2015-11-15T09:20:43.000Z</time>
      </trkpt>
      <trkpt lat="47.49282" lon="6.78913">
        <ele>323</ele>
        <time>2015-11-15T09:20:44.000Z</time>
      </trkpt>
      <trkpt lat="47.49284" lon="6.7892">
        <ele>320</ele>
        <time>2015-11-15T09:20:45.000Z</time>
      </trkpt>
      <trkpt lat="47.49286" lon="6.78927">
        <ele>320</ele>
        <time>2015-11-15T09:20:46.000Z</time>
      </trkpt>
      <trkpt lat="47.49288" lon="6.78933">
        <ele>321</ele>
        <time>2015-11-15T09:20:47.000Z</time>
      </trkpt>
      <trkpt lat="47.49288" lon="6.78939">
        <ele>321</ele>
        <time>2015-11-15T09:20:48.000Z</time>
      </trkpt>
      <trkpt lat="47.4929" lon="6.78943">
        <ele>321</ele>
        <time>2015-11-15T09:20:49.000Z</time>
      </trkpt>
      <trkpt lat="47.4929" lon="6.78948">
        <ele>321</ele>
        <time>2015-11-15T09:20:50.000Z</time>
      </trkpt>
      <trkpt lat="47.49291" lon="6.78954">
        <ele>321</ele>
        <time>2015-11-15T09:20:51.000Z</time>
      </trkpt>
      <trkpt lat="47.49291" lon="6.7896">
        <ele>320</ele>
        <time>2015-11-15T09:20:52.000Z</time>
      </trkpt>
      <trkpt lat="47.49291" lon="6.78965">
        <ele>320</ele>
        <time>2015-11-15T09:20:53.000Z</time>
      </trkpt>
      <trkpt lat="47.49291" lon="6.78972">
        <ele>320</ele>
        <time>2015-11-15T09:20:54.000Z</time>
      </trkpt>
      <trkpt lat="47.4929" lon="6.78978">
        <ele>320</ele>
        <time>2015-11-15T09:20:55.000Z</time>
      </trkpt>
      <trkpt lat="47.4929" lon="6.78985">
        <ele>320</ele>
        <time>2015-11-15T09:20:56.000Z</time>
      </trkpt>
      <trkpt lat="47.4929" lon="6.78992">
        <ele>320</ele>
        <time>2015-11-15T09:20:57.000Z</time>
      </trkpt>
      <trkpt lat="47.49289" lon="6.78999">
        <ele>320</ele>
        <time>2015-11-15T09:20:58.000Z</time>
      </trkpt>
      <trkpt lat="47.49288" lon="6.79007">
        <ele>318</ele>
        <time>2015-11-15T09:20:59.000Z</time>
      </trkpt>
      <trkpt lat="47.49286" lon="6.79015">
        <ele>318</ele>
        <time>2015-11-15T09:21:00.000Z</time>
      </trkpt>
      <trkpt lat="47.49285" lon="6.79023">
        <ele>318</ele>
        <time>2015-11-15T09:21:01.000Z</time>
      </trkpt>
      <trkpt lat="47.49285" lon="6.79032">
        <ele>318</ele>
        <time>2015-11-15T09:21:02.000Z</time>
      </trkpt>
      <trkpt lat="47.49285" lon="6.79039">
        <ele>318</ele>
        <time>2015-11-15T09:21:03.000Z</time>
      </trkpt>
      <trkpt lat="47.49285" lon="6.79047">
        <ele>317</ele>
        <time>2015-11-15T09:21:04.000Z</time>
      </trkpt>
      <trkpt lat="47.49285" lon="6.79055">
        <ele>317</ele>
        <time>2015-11-15T09:21:05.000Z</time>
      </trkpt>
      <trkpt lat="47.49285" lon="6.79062">
        <ele>317</ele>
        <time>2015-11-15T09:21:06.000Z</time>
      </trkpt>
      <trkpt lat="47.49286" lon="6.79069">
        <ele>317</ele>
        <time>2015-11-15T09:21:07.000Z</time>
      </trkpt>
      <trkpt lat="47.49286" lon="6.79077">
        <ele>317</ele>
        <time>2015-11-15T09:21:08.000Z</time>
      </trkpt>
      <trkpt lat="47.49286" lon="6.79085">
        <ele>316</ele>
        <time>2015-11-15T09:21:09.000Z</time>
      </trkpt>
      <trkpt lat="47.49287" lon="6.79093">
        <ele>316</ele>
        <time>2015-11-15T09:21:10.000Z</time>
      </trkpt>
      <trkpt lat="47.49287" lon="6.79101">
        <ele>316</ele>
        <time>2015-11-15T09:21:11.000Z</time>
      </trkpt>
      <trkpt lat="47.49287" lon="6.79109">
        <ele>316</ele>
        <time>2015-11-15T09:21:12.000Z</time>
      </trkpt>
      <trkpt lat="47.49288" lon="6.79117">
        <ele>316</ele>
        <time>2015-11-15T09:21:13.000Z</time>
      </trkpt>
      <trkpt lat="47.49288" lon="6.79126">
        <ele>316</ele>
        <time>2015-11-15T09:21:14.000Z</time>
      </trkpt>
      <trkpt lat="47.49288" lon="6.79135">
        <ele>316</ele>
        <time>2015-11-15T09:21:15.000Z</time>
      </trkpt>
      <trkpt lat="47.49288" lon="6.79143">
        <ele>316</ele>
        <time>2015-11-15T09:21:16.000Z</time>
      </trkpt>
      <trkpt lat="47.49288" lon="6.79151">
        <ele>316</ele>
        <time>2015-11-15T09:21:17.000Z</time>
      </trkpt>
      <trkpt lat="47.49289" lon="6.7916">
        <ele>316</ele>
        <time>2015-11-15T09:21:18.000Z</time>
      </trkpt>
      <trkpt lat="47.49289" lon="6.79168">
        <ele>315</ele>
        <time>2015-11-15T09:21:19.000Z</time>
      </trkpt>
      <trkpt lat="47.49289" lon="6.79177">
        <ele>315</ele>
        <time>2015-11-15T09:21:20.000Z</time>
      </trkpt>
      <trkpt lat="47.49289" lon="6.79185">
        <ele>315</ele>
        <time>2015-11-15T09:21:21.000Z</time>
      </trkpt>
      <trkpt lat="47.4929" lon="6.79194">
        <ele>315</ele>
        <time>2015-11-15T09:21:22.000Z</time>
      </trkpt>
      <trkpt lat="47.4929" lon="6.79202">
        <ele>315</ele>
        <time>2015-11-15T09:21:23.000Z</time>
      </trkpt>
      <trkpt lat="47.49291" lon="6.79211">
        <ele>315</ele>
        <time>2015-11-15T09:21:24.000Z</time>
      </trkpt>
      <trkpt lat="47.49292" lon="6.79219">
        <ele>316</ele>
        <time>2015-11-15T09:21:25.000Z</time>
      </trkpt>
      <trkpt lat="47.49294" lon="6.79227">
        <ele>316</ele>
        <time>2015-11-15T09:21:26.000Z</time>
      </trkpt>
      <trkpt lat="47.49296" lon="6.79234">
        <ele>316</ele>
        <time>2015-11-15T09:21:27.000Z</time>
      </trkpt>
      <trkpt lat="47.49297" lon="6.79242">
        <ele>316</ele>
        <time>2015-11-15T09:21:28.000Z</time>
      </trkpt>
      <trkpt lat="47.49299" lon="6.79248">
        <ele>316</ele>
        <time>2015-11-15T09:21:29.000Z</time>
      </trkpt>
      <trkpt lat="47.493" lon="6.79255">
        <ele>316</ele>
        <time>2015-11-15T09:21:30.000Z</time>
      </trkpt>
      <trkpt lat="47.49302" lon="6.79261">
        <ele>316</ele>
        <time>2015-11-15T09:21:31.000Z</time>
      </trkpt>
      <trkpt lat="47.49304" lon="6.79267">
        <ele>316</ele>
        <time>2015-11-15T09:21:32.000Z</time>
      </trkpt>
      <trkpt lat="47.49306" lon="6.79273">
        <ele>316</ele>
        <time>2015-11-15T09:21:33.000Z</time>
      </trkpt>
      <trkpt lat="47.49308" lon="6.79279">
        <ele>316</ele>
        <time>2015-11-15T09:21:34.000Z</time>
      </trkpt>
      <trkpt lat="47.49309" lon="6.79286">
        <ele>316</ele>
        <time>2015-11-15T09:21:35.000Z</time>
      </trkpt>
      <trkpt lat="47.49309" lon="6.79291">
        <ele>316</ele>
        <time>2015-11-15T09:21:36.000Z</time>
      </trkpt>
      <trkpt lat="47.4931" lon="6.79297">
        <ele>316</ele>
        <time>2015-11-15T09:21:37.000Z</time>
      </trkpt>
      <trkpt lat="47.49312" lon="6.79303">
        <ele>316</ele>
        <time>2015-11-15T09:21:38.000Z</time>
      </trkpt>
      <trkpt lat="47.49315" lon="6.79306">
        <ele>317</ele>
        <time>2015-11-15T09:21:39.000Z</time>
      </trkpt>
      <trkpt lat="47.49319" lon="6.79307">
        <ele>317</ele>
        <time>2015-11-15T09:21:40.000Z</time>
      </trkpt>
      <trkpt lat="47.49323" lon="6.79309">
        <ele>317</ele>
        <time>2015-11-15T09:21:41.000Z</time>
      </trkpt>
      <trkpt lat="47.49327" lon="6.7931">
        <ele>317</ele>
        <time>2015-11-15T09:21:42.000Z</time>
      </trkpt>
      <trkpt lat="47.4933" lon="6.79309">
        <ele>317</ele>
        <time>2015-11-15T09:21:43.000Z</time>
      </trkpt>
      <trkpt lat="47.49334" lon="6.79306">
        <ele>318</ele>
        <time>2015-11-15T09:21:44.000Z</time>
      </trkpt>
      <trkpt lat="47.49336" lon="6.79301">
        <ele>318</ele>
        <time>2015-11-15T09:21:45.000Z</time>
      </trkpt>
      <trkpt lat="47.49339" lon="6.79295">
        <ele>318</ele>
        <time>2015-11-15T09:21:46.000Z</time>
      </trkpt>
      <trkpt lat="47.49342" lon="6.79289">
        <ele>318</ele>
        <time>2015-11-15T09:21:47.000Z</time>
      </trkpt>
      <trkpt lat="47.49345" lon="6.79282">
        <ele>318</ele>
        <time>2015-11-15T09:21:48.000Z</time>
      </trkpt>
      <trkpt lat="47.49349" lon="6.79277">
        <ele>318</ele>
        <time>2015-11-15T09:21:49.000Z</time>
      </trkpt>
      <trkpt lat="47.49353" lon="6.79271">
        <ele>318</ele>
        <time>2015-11-15T09:21:50.000Z</time>
      </trkpt>
      <trkpt lat="47.49357" lon="6.79265">
        <ele>318</ele>
        <time>2015-11-15T09:21:51.000Z</time>
      </trkpt>
      <trkpt lat="47.49361" lon="6.79261">
        <ele>318</ele>
        <time>2015-11-15T09:21:52.000Z</time>
      </trkpt>
      <trkpt lat="47.49365" lon="6.79255">
        <ele>319</ele>
        <time>2015-11-15T09:21:53.000Z</time>
      </trkpt>
      <trkpt lat="47.49369" lon="6.7925">
        <ele>319</ele>
        <time>2015-11-15T09:21:54.000Z</time>
      </trkpt>
      <trkpt lat="47.49374" lon="6.79245">
        <ele>319</ele>
        <time>2015-11-15T09:21:55.000Z</time>
      </trkpt>
      <trkpt lat="47.49378" lon="6.79239">
        <ele>319</ele>
        <time>2015-11-15T09:21:56.000Z</time>
      </trkpt>
      <trkpt lat="47.49383" lon="6.79233">
        <ele>319</ele>
        <time>2015-11-15T09:21:57.000Z</time>
      </trkpt>
      <trkpt lat="47.49387" lon="6.79228">
        <ele>319</ele>
        <time>2015-11-15T09:21:58.000Z</time>
      </trkpt>
      <trkpt lat="47.49392" lon="6.79223">
        <ele>319</ele>
        <time>2015-11-15T09:21:59.000Z</time>
      </trkpt>
      <trkpt lat="47.49397" lon="6.79219">
        <ele>319</ele>
        <time>2015-11-15T09:22:00.000Z</time>
      </trkpt>
      <trkpt lat="47.49402" lon="6.79215">
        <ele>319</ele>
        <time>2015-11-15T09:22:01.000Z</time>
      </trkpt>
      <trkpt lat="47.49407" lon="6.79211">
        <ele>319</ele>
        <time>2015-11-15T09:22:02.000Z</time>
      </trkpt>
      <trkpt lat="47.49411" lon="6.79207">
        <ele>320</ele>
        <time>2015-11-15T09:22:03.000Z</time>
      </trkpt>
      <trkpt lat="47.49416" lon="6.79203">
        <ele>320</ele>
        <time>2015-11-15T09:22:04.000Z</time>
      </trkpt>
      <trkpt lat="47.49421" lon="6.79198">
        <ele>321</ele>
        <time>2015-11-15T09:22:05.000Z</time>
      </trkpt>
      <trkpt lat="47.49426" lon="6.79194">
        <ele>321</ele>
        <time>2015-11-15T09:22:06.000Z</time>
      </trkpt>
      <trkpt lat="47.4943" lon="6.7919">
        <ele>321</ele>
        <time>2015-11-15T09:22:07.000Z</time>
      </trkpt>
      <trkpt lat="47.49433" lon="6.7919">
        <ele>321</ele>
        <time>2015-11-15T09:22:08.000Z</time>
      </trkpt>
      <trkpt lat="47.49437" lon="6.79188">
        <ele>321</ele>
        <time>2015-11-15T09:22:09.000Z</time>
      </trkpt>
      <trkpt lat="47.49441" lon="6.79186">
        <ele>321</ele>
        <time>2015-11-15T09:22:10.000Z</time>
      </trkpt>
      <trkpt lat="47.49444" lon="6.7918">
        <ele>321</ele>
        <time>2015-11-15T09:22:11.000Z</time>
      </trkpt>
      <trkpt lat="47.49447" lon="6.79174">
        <ele>321</ele>
        <time>2015-11-15T09:22:12.000Z</time>
      </trkpt>
      <trkpt lat="47.49449" lon="6.79169">
        <ele>321</ele>
        <time>2015-11-15T09:22:13.000Z</time>
      </trkpt>
      <trkpt lat="47.4945" lon="6.79162">
        <ele>322</ele>
        <time>2015-11-15T09:22:14.000Z</time>
      </trkpt>
      <trkpt lat="47.49452" lon="6.79155">
        <ele>323</ele>
        <time>2015-11-15T09:22:15.000Z</time>
      </trkpt>
      <trkpt lat="47.49452" lon="6.79149">
        <ele>323</ele>
        <time>2015-11-15T09:22:16.000Z</time>
      </trkpt>
      <trkpt lat="47.49453" lon="6.79143">
        <ele>323</ele>
        <time>2015-11-15T09:22:17.000Z</time>
      </trkpt>
      <trkpt lat="47.49453" lon="6.79136">
        <ele>323</ele>
        <time>2015-11-15T09:22:18.000Z</time>
      </trkpt>
      <trkpt lat="47.49452" lon="6.79131">
        <ele>323</ele>
        <time>2015-11-15T09:22:19.000Z</time>
      </trkpt>
      <trkpt lat="47.49452" lon="6.79125">
        <ele>323</ele>
        <time>2015-11-15T09:22:20.000Z</time>
      </trkpt>
      <trkpt lat="47.49451" lon="6.7912">
        <ele>323</ele>
        <time>2015-11-15T09:22:21.000Z</time>
      </trkpt>
      <trkpt lat="47.49451" lon="6.79115">
        <ele>324</ele>
        <time>2015-11-15T09:22:22.000Z</time>
      </trkpt>
      <trkpt lat="47.49451" lon="6.79109">
        <ele>324</ele>
        <time>2015-11-15T09:22:23.000Z</time>
      </trkpt>
      <trkpt lat="47.49451" lon="6.79104">
        <ele>324</ele>
        <time>2015-11-15T09:22:24.000Z</time>
      </trkpt>
      <trkpt lat="47.4945" lon="6.79101">
        <ele>324</ele>
        <time>2015-11-15T09:22:25.000Z</time>
      </trkpt>
      <trkpt lat="47.4945" lon="6.79095">
        <ele>324</ele>
        <time>2015-11-15T09:22:26.000Z</time>
      </trkpt>
      <trkpt lat="47.4945" lon="6.7909">
        <ele>324</ele>
        <time>2015-11-15T09:22:27.000Z</time>
      </trkpt>
      <trkpt lat="47.4945" lon="6.79086">
        <ele>324</ele>
        <time>2015-11-15T09:22:28.000Z</time>
      </trkpt>
      <trkpt lat="47.49449" lon="6.79081">
        <ele>329</ele>
        <time>2015-11-15T09:22:29.000Z</time>
      </trkpt>
      <trkpt lat="47.49448" lon="6.79077">
        <ele>329</ele>
        <time>2015-11-15T09:22:30.000Z</time>
      </trkpt>
      <trkpt lat="47.49447" lon="6.79074">
        <ele>329</ele>
        <time>2015-11-15T09:22:31.000Z</time>
      </trkpt>
      <trkpt lat="47.49445" lon="6.79071">
        <ele>329</ele>
        <time>2015-11-15T09:22:32.000Z</time>
      </trkpt>
      <trkpt lat="47.49443" lon="6.79069">
        <ele>329</ele>
        <time>2015-11-15T09:22:33.000Z</time>
      </trkpt>
      <trkpt lat="47.4944" lon="6.79066">
        <ele>329</ele>
        <time>2015-11-15T09:22:34.000Z</time>
      </trkpt>
      <trkpt lat="47.49438" lon="6.79063">
        <ele>329</ele>
        <time>2015-11-15T09:22:35.000Z</time>
      </trkpt>
      <trkpt lat="47.49436" lon="6.7906">
        <ele>329</ele>
        <time>2015-11-15T09:22:36.000Z</time>
      </trkpt>
      <trkpt lat="47.49434" lon="6.79057">
        <ele>330</ele>
        <time>2015-11-15T09:22:37.000Z</time>
      </trkpt>
      <trkpt lat="47.49431" lon="6.79055">
        <ele>330</ele>
        <time>2015-11-15T09:22:38.000Z</time>
      </trkpt>
      <trkpt lat="47.49429" lon="6.79052">
        <ele>330</ele>
        <time>2015-11-15T09:22:39.000Z</time>
      </trkpt>
      <trkpt lat="47.49427" lon="6.79049">
        <ele>330</ele>
        <time>2015-11-15T09:22:40.000Z</time>
      </trkpt>
      <trkpt lat="47.49424" lon="6.79044">
        <ele>330</ele>
        <time>2015-11-15T09:22:42.000Z</time>
      </trkpt>
      <trkpt lat="47.49423" lon="6.79042">
        <ele>331</ele>
        <time>2015-11-15T09:22:43.000Z</time>
      </trkpt>
      <trkpt lat="47.49422" lon="6.79036">
        <ele>331</ele>
        <time>2015-11-15T09:22:45.000Z</time>
      </trkpt>
      <trkpt lat="47.49421" lon="6.79033">
        <ele>331</ele>
        <time>2015-11-15T09:22:46.000Z</time>
      </trkpt>
      <trkpt lat="47.4942" lon="6.79028">
        <ele>332</ele>
        <time>2015-11-15T09:22:48.000Z</time>
      </trkpt>
      <trkpt lat="47.49418" lon="6.79026">
        <ele>332</ele>
        <time>2015-11-15T09:22:49.000Z</time>
      </trkpt>
      <trkpt lat="47.49414" lon="6.79022">
        <ele>329</ele>
        <time>2015-11-15T09:22:51.000Z</time>
      </trkpt>
      <trkpt lat="47.49413" lon="6.7902">
        <ele>329</ele>
        <time>2015-11-15T09:22:52.000Z</time>
      </trkpt>
      <trkpt lat="47.49409" lon="6.79016">
        <ele>329</ele>
        <time>2015-11-15T09:22:54.000Z</time>
      </trkpt>
      <trkpt lat="47.49407" lon="6.79015">
        <ele>330</ele>
        <time>2015-11-15T09:22:55.000Z</time>
      </trkpt>
      <trkpt lat="47.49405" lon="6.79013">
        <ele>329</ele>
        <time>2015-11-15T09:22:56.000Z</time>
      </trkpt>
      <trkpt lat="47.49403" lon="6.79012">
        <ele>329</ele>
        <time>2015-11-15T09:22:57.000Z</time>
      </trkpt>
      <trkpt lat="47.49401" lon="6.7901">
        <ele>329</ele>
        <time>2015-11-15T09:22:58.000Z</time>
      </trkpt>
      <trkpt lat="47.49398" lon="6.79007">
        <ele>329</ele>
        <time>2015-11-15T09:22:59.000Z</time>
      </trkpt>
      <trkpt lat="47.49396" lon="6.79004">
        <ele>329</ele>
        <time>2015-11-15T09:23:00.000Z</time>
      </trkpt>
      <trkpt lat="47.49393" lon="6.79001">
        <ele>329</ele>
        <time>2015-11-15T09:23:01.000Z</time>
      </trkpt>
      <trkpt lat="47.49391" lon="6.78998">
        <ele>332</ele>
        <time>2015-11-15T09:23:02.000Z</time>
      </trkpt>
      <trkpt lat="47.49388" lon="6.78996">
        <ele>332</ele>
        <time>2015-11-15T09:23:03.000Z</time>
      </trkpt>
      <trkpt lat="47.49386" lon="6.78993">
        <ele>332</ele>
        <time>2015-11-15T09:23:04.000Z</time>
      </trkpt>
      <trkpt lat="47.49383" lon="6.7899">
        <ele>332</ele>
        <time>2015-11-15T09:23:05.000Z</time>
      </trkpt>
      <trkpt lat="47.49381" lon="6.78987">
        <ele>332</ele>
        <time>2015-11-15T09:23:06.000Z</time>
      </trkpt>
      <trkpt lat="47.49378" lon="6.78984">
        <ele>332</ele>
        <time>2015-11-15T09:23:07.000Z</time>
      </trkpt>
      <trkpt lat="47.49376" lon="6.78981">
        <ele>332</ele>
        <time>2015-11-15T09:23:08.000Z</time>
      </trkpt>
      <trkpt lat="47.49373" lon="6.78978">
        <ele>331</ele>
        <time>2015-11-15T09:23:09.000Z</time>
      </trkpt>
      <trkpt lat="47.4937" lon="6.78976">
        <ele>331</ele>
        <time>2015-11-15T09:23:10.000Z</time>
      </trkpt>
      <trkpt lat="47.49367" lon="6.78973">
        <ele>331</ele>
        <time>2015-11-15T09:23:11.000Z</time>
      </trkpt>
      <trkpt lat="47.49365" lon="6.7897">
        <ele>331</ele>
        <time>2015-11-15T09:23:12.000Z</time>
      </trkpt>
      <trkpt lat="47.49362" lon="6.78968">
        <ele>331</ele>
        <time>2015-11-15T09:23:13.000Z</time>
      </trkpt>
      <trkpt lat="47.49359" lon="6.78966">
        <ele>331</ele>
        <time>2015-11-15T09:23:14.000Z</time>
      </trkpt>
      <trkpt lat="47.49356" lon="6.78963">
        <ele>331</ele>
        <time>2015-11-15T09:23:15.000Z</time>
      </trkpt>
      <trkpt lat="47.49353" lon="6.7896">
        <ele>331</ele>
        <time>2015-11-15T09:23:16.000Z</time>
      </trkpt>
      <trkpt lat="47.49351" lon="6.78957">
        <ele>331</ele>
        <time>2015-11-15T09:23:17.000Z</time>
      </trkpt>
      <trkpt lat="47.49348" lon="6.78954">
        <ele>331</ele>
        <time>2015-11-15T09:23:18.000Z</time>
      </trkpt>
      <trkpt lat="47.49346" lon="6.7895">
        <ele>331</ele>
        <time>2015-11-15T09:23:19.000Z</time>
      </trkpt>
      <trkpt lat="47.49343" lon="6.78947">
        <ele>331</ele>
        <time>2015-11-15T09:23:20.000Z</time>
      </trkpt>
      <trkpt lat="47.49341" lon="6.78945">
        <ele>331</ele>
        <time>2015-11-15T09:23:21.000Z</time>
      </trkpt>
      <trkpt lat="47.49339" lon="6.78941">
        <ele>331</ele>
        <time>2015-11-15T09:23:22.000Z</time>
      </trkpt>
      <trkpt lat="47.49338" lon="6.78938">
        <ele>331</ele>
        <time>2015-11-15T09:23:23.000Z</time>
      </trkpt>
      <trkpt lat="47.49336" lon="6.78934">
        <ele>331</ele>
        <time>2015-11-15T09:23:24.000Z</time>
      </trkpt>
      <trkpt lat="47.49335" lon="6.7893">
        <ele>331</ele>
        <time>2015-11-15T09:23:25.000Z</time>
      </trkpt>
      <trkpt lat="47.49334" lon="6.78927">
        <ele>331</ele>
        <time>2015-11-15T09:23:26.000Z</time>
      </trkpt>
      <trkpt lat="47.49333" lon="6.78923">
        <ele>328</ele>
        <time>2015-11-15T09:23:27.000Z</time>
      </trkpt>
      <trkpt lat="47.49332" lon="6.78919">
        <ele>329</ele>
        <time>2015-11-15T09:23:28.000Z</time>
      </trkpt>
      <trkpt lat="47.49331" lon="6.78915">
        <ele>330</ele>
        <time>2015-11-15T09:23:29.000Z</time>
      </trkpt>
      <trkpt lat="47.49329" lon="6.78911">
        <ele>329</ele>
        <time>2015-11-15T09:23:30.000Z</time>
      </trkpt>
      <trkpt lat="47.49328" lon="6.78907">
        <ele>329</ele>
        <time>2015-11-15T09:23:31.000Z</time>
      </trkpt>
      <trkpt lat="47.49326" lon="6.78903">
        <ele>328</ele>
        <time>2015-11-15T09:23:32.000Z</time>
      </trkpt>
      <trkpt lat="47.49324" lon="6.78899">
        <ele>328</ele>
        <time>2015-11-15T09:23:33.000Z</time>
      </trkpt>
      <trkpt lat="47.49322" lon="6.78895">
        <ele>328</ele>
        <time>2015-11-15T09:23:34.000Z</time>
      </trkpt>
      <trkpt lat="47.49321" lon="6.78891">
        <ele>328</ele>
        <time>2015-11-15T09:23:35.000Z</time>
      </trkpt>
      <trkpt lat="47.49319" lon="6.78886">
        <ele>328</ele>
        <time>2015-11-15T09:23:36.000Z</time>
      </trkpt>
      <trkpt lat="47.49319" lon="6.7888">
        <ele>328</ele>
        <time>2015-11-15T09:23:37.000Z</time>
      </trkpt>
      <trkpt lat="47.49318" lon="6.78874">
        <ele>328</ele>
        <time>2015-11-15T09:23:38.000Z</time>
      </trkpt>
      <trkpt lat="47.49317" lon="6.78868">
        <ele>329</ele>
        <time>2015-11-15T09:23:39.000Z</time>
      </trkpt>
      <trkpt lat="47.49316" lon="6.78863">
        <ele>329</ele>
        <time>2015-11-15T09:23:40.000Z</time>
      </trkpt>
      <trkpt lat="47.49315" lon="6.78858">
        <ele>330</ele>
        <time>2015-11-15T09:23:41.000Z</time>
      </trkpt>
      <trkpt lat="47.49314" lon="6.78853">
        <ele>330</ele>
        <time>2015-11-15T09:23:42.000Z</time>
      </trkpt>
      <trkpt lat="47.49313" lon="6.78848">
        <ele>331</ele>
        <time>2015-11-15T09:23:43.000Z</time>
      </trkpt>
      <trkpt lat="47.49312" lon="6.78844">
        <ele>331</ele>
        <time>2015-11-15T09:23:44.000Z</time>
      </trkpt>
      <trkpt lat="47.49311" lon="6.7884">
        <ele>331</ele>
        <time>2015-11-15T09:23:45.000Z</time>
      </trkpt>
      <trkpt lat="47.49309" lon="6.78837">
        <ele>331</ele>
        <time>2015-11-15T09:23:46.000Z</time>
      </trkpt>
      <trkpt lat="47.49308" lon="6.78833">
        <ele>334</ele>
        <time>2015-11-15T09:23:47.000Z</time>
      </trkpt>
      <trkpt lat="47.49306" lon="6.78828">
        <ele>334</ele>
        <time>2015-11-15T09:23:48.000Z</time>
      </trkpt>
      <trkpt lat="47.49305" lon="6.78824">
        <ele>333</ele>
        <time>2015-11-15T09:23:49.000Z</time>
      </trkpt>
      <trkpt lat="47.49305" lon="6.78819">
        <ele>333</ele>
        <time>2015-11-15T09:23:50.000Z</time>
      </trkpt>
      <trkpt lat="47.49304" lon="6.78815">
        <ele>333</ele>
        <time>2015-11-15T09:23:51.000Z</time>
      </trkpt>
      <trkpt lat="47.49304" lon="6.78809">
        <ele>333</ele>
        <time>2015-11-15T09:23:52.000Z</time>
      </trkpt>
      <trkpt lat="47.49304" lon="6.78802">
        <ele>333</ele>
        <time>2015-11-15T09:23:53.000Z</time>
      </trkpt>
      <trkpt lat="47.49305" lon="6.78796">
        <ele>334</ele>
        <time>2015-11-15T09:23:54.000Z</time>
      </trkpt>
      <trkpt lat="47.49305" lon="6.7879">
        <ele>334</ele>
        <time>2015-11-15T09:23:55.000Z</time>
      </trkpt>
      <trkpt lat="47.49306" lon="6.78785">
        <ele>334</ele>
        <time>2015-11-15T09:23:56.000Z</time>
      </trkpt>
      <trkpt lat="47.49306" lon="6.78783">
        <ele>334</ele>
        <time>2015-11-15T09:23:57.000Z</time>
      </trkpt>
      <trkpt lat="47.49303" lon="6.78782">
        <ele>334</ele>
        <time>2015-11-15T09:24:01.000Z</time>
      </trkpt>
      <trkpt lat="47.49301" lon="6.78782">
        <ele>334</ele>
        <time>2015-11-15T09:24:02.000Z</time>
      </trkpt>
      <trkpt lat="47.49298" lon="6.7878">
        <ele>333</ele>
        <time>2015-11-15T09:24:03.000Z</time>
      </trkpt>
      <trkpt lat="47.49296" lon="6.78778">
        <ele>333</ele>
        <time>2015-11-15T09:24:04.000Z</time>
      </trkpt>
      <trkpt lat="47.49293" lon="6.78775">
        <ele>333</ele>
        <time>2015-11-15T09:24:05.000Z</time>
      </trkpt>
      <trkpt lat="47.49291" lon="6.78772">
        <ele>333</ele>
        <time>2015-11-15T09:24:06.000Z</time>
      </trkpt>
      <trkpt lat="47.49282" lon="6.78764">
        <ele>331</ele>
        <time>2015-11-15T09:24:07.000Z</time>
      </trkpt>
      <trkpt lat="47.49276" lon="6.78756">
        <ele>330</ele>
        <time>2015-11-15T09:24:08.000Z</time>
      </trkpt>
      <trkpt lat="47.4927" lon="6.7875">
        <ele>329</ele>
        <time>2015-11-15T09:24:09.000Z</time>
      </trkpt>
      <trkpt lat="47.49265" lon="6.78748">
        <ele>331</ele>
        <time>2015-11-15T09:24:10.000Z</time>
      </trkpt>
      <trkpt lat="47.49263" lon="6.78745">
        <ele>331</ele>
        <time>2015-11-15T09:24:11.000Z</time>
      </trkpt>
      <trkpt lat="47.49261" lon="6.7874">
        <ele>331</ele>
        <time>2015-11-15T09:24:12.000Z</time>
      </trkpt>
      <trkpt lat="47.49258" lon="6.78737">
        <ele>331</ele>
        <time>2015-11-15T09:24:13.000Z</time>
      </trkpt>
      <trkpt lat="47.49255" lon="6.78734">
        <ele>331</ele>
        <time>2015-11-15T09:24:14.000Z</time>
      </trkpt>
      <trkpt lat="47.49252" lon="6.78733">
        <ele>331</ele>
        <time>2015-11-15T09:24:15.000Z</time>
      </trkpt>
      <trkpt lat="47.49249" lon="6.7873">
        <ele>324</ele>
        <time>2015-11-15T09:24:16.000Z</time>
      </trkpt>
      <trkpt lat="47.49247" lon="6.78727">
        <ele>324</ele>
        <time>2015-11-15T09:24:17.000Z</time>
      </trkpt>
      <trkpt lat="47.49244" lon="6.78723">
        <ele>324</ele>
        <time>2015-11-15T09:24:18.000Z</time>
      </trkpt>
      <trkpt lat="47.49241" lon="6.78718">
        <ele>324</ele>
        <time>2015-11-15T09:24:19.000Z</time>
      </trkpt>
      <trkpt lat="47.49239" lon="6.78716">
        <ele>324</ele>
        <time>2015-11-15T09:24:20.000Z</time>
      </trkpt>
      <trkpt lat="47.49236" lon="6.78712">
        <ele>324</ele>
        <time>2015-11-15T09:24:21.000Z</time>
      </trkpt>
      <trkpt lat="47.49234" lon="6.78709">
        <ele>325</ele>
        <time>2015-11-15T09:24:22.000Z</time>
      </trkpt>
      <trkpt lat="47.49231" lon="6.78706">
        <ele>325</ele>
        <time>2015-11-15T09:24:23.000Z</time>
      </trkpt>
      <trkpt lat="47.49228" lon="6.78703">
        <ele>325</ele>
        <time>2015-11-15T09:24:24.000Z</time>
      </trkpt>
      <trkpt lat="47.49226" lon="6.78699">
        <ele>325</ele>
        <time>2015-11-15T09:24:25.000Z</time>
      </trkpt>
      <trkpt lat="47.49223" lon="6.78695">
        <ele>325</ele>
        <time>2015-11-15T09:24:26.000Z</time>
      </trkpt>
      <trkpt lat="47.49221" lon="6.7869">
        <ele>325</ele>
        <time>2015-11-15T09:24:27.000Z</time>
      </trkpt>
      <trkpt lat="47.49219" lon="6.78684">
        <ele>325</ele>
        <time>2015-11-15T09:24:28.000Z</time>
      </trkpt>
      <trkpt lat="47.49217" lon="6.78679">
        <ele>325</ele>
        <time>2015-11-15T09:24:29.000Z</time>
      </trkpt>
      <trkpt lat="47.49215" lon="6.78675">
        <ele>325</ele>
        <time>2015-11-15T09:24:30.000Z</time>
      </trkpt>
      <trkpt lat="47.49213" lon="6.78672">
        <ele>325</ele>
        <time>2015-11-15T09:24:31.000Z</time>
      </trkpt>
      <trkpt lat="47.49211" lon="6.78669">
        <ele>324</ele>
        <time>2015-11-15T09:24:32.000Z</time>
      </trkpt>
      <trkpt lat="47.49209" lon="6.78665">
        <ele>329</ele>
        <time>2015-11-15T09:24:33.000Z</time>
      </trkpt>
      <trkpt lat="47.49206" lon="6.78661">
        <ele>328</ele>
        <time>2015-11-15T09:24:34.000Z</time>
      </trkpt>
      <trkpt lat="47.49203" lon="6.78656">
        <ele>328</ele>
        <time>2015-11-15T09:24:35.000Z</time>
      </trkpt>
      <trkpt lat="47.49199" lon="6.78651">
        <ele>328</ele>
        <time>2015-11-15T09:24:36.000Z</time>
      </trkpt>
      <trkpt lat="47.49195" lon="6.78645">
        <ele>327</ele>
        <time>2015-11-15T09:24:37.000Z</time>
      </trkpt>
      <trkpt lat="47.49191" lon="6.7863">
        <ele>328</ele>
        <time>2015-11-15T09:24:38.000Z</time>
      </trkpt>
      <trkpt lat="47.49188" lon="6.78624">
        <ele>328</ele>
        <time>2015-11-15T09:24:39.000Z</time>
      </trkpt>
      <trkpt lat="47.49185" lon="6.78619">
        <ele>328</ele>
        <time>2015-11-15T09:24:40.000Z</time>
      </trkpt>
      <trkpt lat="47.49182" lon="6.78614">
        <ele>328</ele>
        <time>2015-11-15T09:24:41.000Z</time>
      </trkpt>
      <trkpt lat="47.49179" lon="6.78607">
        <ele>328</ele>
        <time>2015-11-15T09:24:42.000Z</time>
      </trkpt>
      <trkpt lat="47.49176" lon="6.78603">
        <ele>327</ele>
        <time>2015-11-15T09:24:43.000Z</time>
      </trkpt>
      <trkpt lat="47.49173" lon="6.78593">
        <ele>327</ele>
        <time>2015-11-15T09:24:44.000Z</time>
      </trkpt>
      <trkpt lat="47.49174" lon="6.78583">
        <ele>328</ele>
        <time>2015-11-15T09:24:45.000Z</time>
      </trkpt>
      <trkpt lat="47.49172" lon="6.78576">
        <ele>329</ele>
        <time>2015-11-15T09:24:46.000Z</time>
      </trkpt>
      <trkpt lat="47.4917" lon="6.7857">
        <ele>330</ele>
        <time>2015-11-15T09:24:47.000Z</time>
      </trkpt>
      <trkpt lat="47.49169" lon="6.78564">
        <ele>331</ele>
        <time>2015-11-15T09:24:48.000Z</time>
      </trkpt>
      <trkpt lat="47.49168" lon="6.78559">
        <ele>332</ele>
        <time>2015-11-15T09:24:49.000Z</time>
      </trkpt>
      <trkpt lat="47.49167" lon="6.78554">
        <ele>333</ele>
        <time>2015-11-15T09:24:50.000Z</time>
      </trkpt>
      <trkpt lat="47.49167" lon="6.78548">
        <ele>333</ele>
        <time>2015-11-15T09:24:51.000Z</time>
      </trkpt>
      <trkpt lat="47.49167" lon="6.78541">
        <ele>334</ele>
        <time>2015-11-15T09:24:52.000Z</time>
      </trkpt>
      <trkpt lat="47.49167" lon="6.78535">
        <ele>326</ele>
        <time>2015-11-15T09:24:53.000Z</time>
      </trkpt>
      <trkpt lat="47.49166" lon="6.7853">
        <ele>327</ele>
        <time>2015-11-15T09:24:54.000Z</time>
      </trkpt>
      <trkpt lat="47.49164" lon="6.78526">
        <ele>328</ele>
        <time>2015-11-15T09:24:55.000Z</time>
      </trkpt>
      <trkpt lat="47.49162" lon="6.78523">
        <ele>328</ele>
        <time>2015-11-15T09:24:56.000Z</time>
      </trkpt>
      <trkpt lat="47.49159" lon="6.78521">
        <ele>328</ele>
        <time>2015-11-15T09:24:57.000Z</time>
      </trkpt>
      <trkpt lat="47.49156" lon="6.78519">
        <ele>328</ele>
        <time>2015-11-15T09:24:58.000Z</time>
      </trkpt>
      <trkpt lat="47.49153" lon="6.78517">
        <ele>328</ele>
        <time>2015-11-15T09:24:59.000Z</time>
      </trkpt>
      <trkpt lat="47.49151" lon="6.78515">
        <ele>328</ele>
        <time>2015-11-15T09:25:00.000Z</time>
      </trkpt>
      <trkpt lat="47.49149" lon="6.78514">
        <ele>328</ele>
        <time>2015-11-15T09:25:01.000Z</time>
      </trkpt>
      <trkpt lat="47.49147" lon="6.78512">
        <ele>328</ele>
        <time>2015-11-15T09:25:02.000Z</time>
      </trkpt>
      <trkpt lat="47.49145" lon="6.7851">
        <ele>328</ele>
        <time>2015-11-15T09:25:03.000Z</time>
      </trkpt>
      <trkpt lat="47.49143" lon="6.78508">
        <ele>327</ele>
        <time>2015-11-15T09:25:04.000Z</time>
      </trkpt>
      <trkpt lat="47.49141" lon="6.78505">
        <ele>327</ele>
        <time>2015-11-15T09:25:05.000Z</time>
      </trkpt>
      <trkpt lat="47.49139" lon="6.78502">
        <ele>327</ele>
        <time>2015-11-15T09:25:06.000Z</time>
      </trkpt>
      <trkpt lat="47.49137" lon="6.785">
        <ele>331</ele>
        <time>2015-11-15T09:25:07.000Z</time>
      </trkpt>
      <trkpt lat="47.49134" lon="6.78497">
        <ele>331</ele>
        <time>2015-11-15T09:25:08.000Z</time>
      </trkpt>
      <trkpt lat="47.49133" lon="6.78493">
        <ele>331</ele>
        <time>2015-11-15T09:25:09.000Z</time>
      </trkpt>
      <trkpt lat="47.49131" lon="6.7849">
        <ele>331</ele>
        <time>2015-11-15T09:25:10.000Z</time>
      </trkpt>
      <trkpt lat="47.4913" lon="6.78487">
        <ele>331</ele>
        <time>2015-11-15T09:25:11.000Z</time>
      </trkpt>
      <trkpt lat="47.49127" lon="6.78484">
        <ele>330</ele>
        <time>2015-11-15T09:25:12.000Z</time>
      </trkpt>
      <trkpt lat="47.49125" lon="6.78481">
        <ele>330</ele>
        <time>2015-11-15T09:25:13.000Z</time>
      </trkpt>
      <trkpt lat="47.49123" lon="6.78477">
        <ele>330</ele>
        <time>2015-11-15T09:25:14.000Z</time>
      </trkpt>
      <trkpt lat="47.49121" lon="6.78472">
        <ele>330</ele>
        <time>2015-11-15T09:25:15.000Z</time>
      </trkpt>
      <trkpt lat="47.49121" lon="6.78468">
        <ele>330</ele>
        <time>2015-11-15T09:25:16.000Z</time>
      </trkpt>
      <trkpt lat="47.4912" lon="6.78464">
        <ele>330</ele>
        <time>2015-11-15T09:25:17.000Z</time>
      </trkpt>
      <trkpt lat="47.49119" lon="6.78461">
        <ele>330</ele>
        <time>2015-11-15T09:25:18.000Z</time>
      </trkpt>
      <trkpt lat="47.49117" lon="6.78457">
        <ele>330</ele>
        <time>2015-11-15T09:25:19.000Z</time>
      </trkpt>
      <trkpt lat="47.49115" lon="6.78454">
        <ele>330</ele>
        <time>2015-11-15T09:25:20.000Z</time>
      </trkpt>
      <trkpt lat="47.49114" lon="6.7845">
        <ele>330</ele>
        <time>2015-11-15T09:25:21.000Z</time>
      </trkpt>
      <trkpt lat="47.49112" lon="6.78445">
        <ele>330</ele>
        <time>2015-11-15T09:25:22.000Z</time>
      </trkpt>
      <trkpt lat="47.49111" lon="6.78441">
        <ele>330</ele>
        <time>2015-11-15T09:25:23.000Z</time>
      </trkpt>
      <trkpt lat="47.4911" lon="6.78438">
        <ele>330</ele>
        <time>2015-11-15T09:25:24.000Z</time>
      </trkpt>
      <trkpt lat="47.49108" lon="6.78435">
        <ele>330</ele>
        <time>2015-11-15T09:25:25.000Z</time>
      </trkpt>
      <trkpt lat="47.49107" lon="6.78432">
        <ele>330</ele>
        <time>2015-11-15T09:25:26.000Z</time>
      </trkpt>
      <trkpt lat="47.49105" lon="6.78429">
        <ele>330</ele>
        <time>2015-11-15T09:25:27.000Z</time>
      </trkpt>
      <trkpt lat="47.49102" lon="6.78425">
        <ele>329</ele>
        <time>2015-11-15T09:25:28.000Z</time>
      </trkpt>
      <trkpt lat="47.491" lon="6.78422">
        <ele>329</ele>
        <time>2015-11-15T09:25:29.000Z</time>
      </trkpt>
      <trkpt lat="47.49098" lon="6.78418">
        <ele>328</ele>
        <time>2015-11-15T09:25:30.000Z</time>
      </trkpt>
      <trkpt lat="47.49096" lon="6.78415">
        <ele>330</ele>
        <time>2015-11-15T09:25:31.000Z</time>
      </trkpt>
      <trkpt lat="47.49094" lon="6.78411">
        <ele>330</ele>
        <time>2015-11-15T09:25:32.000Z</time>
      </trkpt>
      <trkpt lat="47.49092" lon="6.78408">
        <ele>330</ele>
        <time>2015-11-15T09:25:33.000Z</time>
      </trkpt>
      <trkpt lat="47.4909" lon="6.78404">
        <ele>330</ele>
        <time>2015-11-15T09:25:34.000Z</time>
      </trkpt>
      <trkpt lat="47.49088" lon="6.784">
        <ele>331</ele>
        <time>2015-11-15T09:25:35.000Z</time>
      </trkpt>
      <trkpt lat="47.49086" lon="6.78396">
        <ele>331</ele>
        <time>2015-11-15T09:25:36.000Z</time>
      </trkpt>
      <trkpt lat="47.49084" lon="6.78393">
        <ele>332</ele>
        <time>2015-11-15T09:25:37.000Z</time>
      </trkpt>
      <trkpt lat="47.49082" lon="6.7839">
        <ele>325</ele>
        <time>2015-11-15T09:25:38.000Z</time>
      </trkpt>
      <trkpt lat="47.4908" lon="6.78386">
        <ele>325</ele>
        <time>2015-11-15T09:25:39.000Z</time>
      </trkpt>
      <trkpt lat="47.49079" lon="6.78381">
        <ele>325</ele>
        <time>2015-11-15T09:25:40.000Z</time>
      </trkpt>
      <trkpt lat="47.49078" lon="6.78376">
        <ele>325</ele>
        <time>2015-11-15T09:25:41.000Z</time>
      </trkpt>
      <trkpt lat="47.49077" lon="6.78371">
        <ele>325</ele>
        <time>2015-11-15T09:25:42.000Z</time>
      </trkpt>
      <trkpt lat="47.49076" lon="6.78366">
        <ele>325</ele>
        <time>2015-11-15T09:25:43.000Z</time>
      </trkpt>
      <trkpt lat="47.49074" lon="6.78361">
        <ele>326</ele>
        <time>2015-11-15T09:25:44.000Z</time>
      </trkpt>
      <trkpt lat="47.49073" lon="6.78357">
        <ele>326</ele>
        <time>2015-11-15T09:25:45.000Z</time>
      </trkpt>
      <trkpt lat="47.49071" lon="6.78353">
        <ele>326</ele>
        <time>2015-11-15T09:25:46.000Z</time>
      </trkpt>
      <trkpt lat="47.4907" lon="6.78349">
        <ele>327</ele>
        <time>2015-11-15T09:25:47.000Z</time>
      </trkpt>
      <trkpt lat="47.49069" lon="6.78345">
        <ele>327</ele>
        <time>2015-11-15T09:25:48.000Z</time>
      </trkpt>
      <trkpt lat="47.49069" lon="6.7834">
        <ele>327</ele>
        <time>2015-11-15T09:25:49.000Z</time>
      </trkpt>
      <trkpt lat="47.49068" lon="6.78336">
        <ele>328</ele>
        <time>2015-11-15T09:25:50.000Z</time>
      </trkpt>
      <trkpt lat="47.49068" lon="6.78331">
        <ele>330</ele>
        <time>2015-11-15T09:25:51.000Z</time>
      </trkpt>
      <trkpt lat="47.49067" lon="6.78328">
        <ele>330</ele>
        <time>2015-11-15T09:25:52.000Z</time>
      </trkpt>
      <trkpt lat="47.49065" lon="6.78325">
        <ele>330</ele>
        <time>2015-11-15T09:25:53.000Z</time>
      </trkpt>
      <trkpt lat="47.49063" lon="6.78322">
        <ele>330</ele>
        <time>2015-11-15T09:25:54.000Z</time>
      </trkpt>
      <trkpt lat="47.4906" lon="6.78319">
        <ele>330</ele>
        <time>2015-11-15T09:25:55.000Z</time>
      </trkpt>
      <trkpt lat="47.49057" lon="6.78316">
        <ele>330</ele>
        <time>2015-11-15T09:25:56.000Z</time>
      </trkpt>
      <trkpt lat="47.49055" lon="6.78313">
        <ele>329</ele>
        <time>2015-11-15T09:25:57.000Z</time>
      </trkpt>
      <trkpt lat="47.49053" lon="6.7831">
        <ele>329</ele>
        <time>2015-11-15T09:25:58.000Z</time>
      </trkpt>
      <trkpt lat="47.49051" lon="6.78306">
        <ele>329</ele>
        <time>2015-11-15T09:25:59.000Z</time>
      </trkpt>
      <trkpt lat="47.49049" lon="6.78303">
        <ele>329</ele>
        <time>2015-11-15T09:26:00.000Z</time>
      </trkpt>
      <trkpt lat="47.49047" lon="6.78301">
        <ele>329</ele>
        <time>2015-11-15T09:26:01.000Z</time>
      </trkpt>
      <trkpt lat="47.49045" lon="6.78299">
        <ele>329</ele>
        <time>2015-11-15T09:26:02.000Z</time>
      </trkpt>
      <trkpt lat="47.49043" lon="6.78296">
        <ele>329</ele>
        <time>2015-11-15T09:26:03.000Z</time>
      </trkpt>
      <trkpt lat="47.4904" lon="6.78294">
        <ele>329</ele>
        <time>2015-11-15T09:26:04.000Z</time>
      </trkpt>
      <trkpt lat="47.49037" lon="6.78291">
        <ele>329</ele>
        <time>2015-11-15T09:26:05.000Z</time>
      </trkpt>
      <trkpt lat="47.49034" lon="6.78288">
        <ele>329</ele>
        <time>2015-11-15T09:26:06.000Z</time>
      </trkpt>
      <trkpt lat="47.49031" lon="6.78284">
        <ele>329</ele>
        <time>2015-11-15T09:26:07.000Z</time>
      </trkpt>
      <trkpt lat="47.49028" lon="6.7828">
        <ele>329</ele>
        <time>2015-11-15T09:26:08.000Z</time>
      </trkpt>
      <trkpt lat="47.49025" lon="6.78276">
        <ele>329</ele>
        <time>2015-11-15T09:26:09.000Z</time>
      </trkpt>
      <trkpt lat="47.49022" lon="6.78272">
        <ele>329</ele>
        <time>2015-11-15T09:26:10.000Z</time>
      </trkpt>
      <trkpt lat="47.4902" lon="6.78269">
        <ele>329</ele>
        <time>2015-11-15T09:26:11.000Z</time>
      </trkpt>
      <trkpt lat="47.49019" lon="6.78267">
        <ele>329</ele>
        <time>2015-11-15T09:26:12.000Z</time>
      </trkpt>
      <trkpt lat="47.49017" lon="6.78264">
        <ele>329</ele>
        <time>2015-11-15T09:26:13.000Z</time>
      </trkpt>
      <trkpt lat="47.49014" lon="6.7826">
        <ele>329</ele>
        <time>2015-11-15T09:26:14.000Z</time>
      </trkpt>
      <trkpt lat="47.4901" lon="6.78255">
        <ele>328</ele>
        <time>2015-11-15T09:26:15.000Z</time>
      </trkpt>
      <trkpt lat="47.49007" lon="6.78251">
        <ele>328</ele>
        <time>2015-11-15T09:26:16.000Z</time>
      </trkpt>
      <trkpt lat="47.49004" lon="6.78245">
        <ele>330</ele>
        <time>2015-11-15T09:26:17.000Z</time>
      </trkpt>
      <trkpt lat="47.49002" lon="6.78239">
        <ele>331</ele>
        <time>2015-11-15T09:26:18.000Z</time>
      </trkpt>
      <trkpt lat="47.49001" lon="6.78234">
        <ele>332</ele>
        <time>2015-11-15T09:26:19.000Z</time>
      </trkpt>
      <trkpt lat="47.49" lon="6.78228">
        <ele>333</ele>
        <time>2015-11-15T09:26:22.000Z</time>
      </trkpt>
      <trkpt lat="47.48998" lon="6.78227">
        <ele>327</ele>
        <time>2015-11-15T09:26:23.000Z</time>
      </trkpt>
      <trkpt lat="47.48995" lon="6.78225">
        <ele>326</ele>
        <time>2015-11-15T09:26:24.000Z</time>
      </trkpt>
      <trkpt lat="47.48993" lon="6.78222">
        <ele>326</ele>
        <time>2015-11-15T09:26:25.000Z</time>
      </trkpt>
      <trkpt lat="47.4899" lon="6.78219">
        <ele>326</ele>
        <time>2015-11-15T09:26:26.000Z</time>
      </trkpt>
      <trkpt lat="47.48988" lon="6.78216">
        <ele>326</ele>
        <time>2015-11-15T09:26:27.000Z</time>
      </trkpt>
      <trkpt lat="47.48987" lon="6.78212">
        <ele>326</ele>
        <time>2015-11-15T09:26:28.000Z</time>
      </trkpt>
      <trkpt lat="47.48985" lon="6.78209">
        <ele>327</ele>
        <time>2015-11-15T09:26:29.000Z</time>
      </trkpt>
      <trkpt lat="47.48984" lon="6.78205">
        <ele>327</ele>
        <time>2015-11-15T09:26:30.000Z</time>
      </trkpt>
      <trkpt lat="47.48982" lon="6.78201">
        <ele>327</ele>
        <time>2015-11-15T09:26:31.000Z</time>
      </trkpt>
      <trkpt lat="47.48981" lon="6.78197">
        <ele>327</ele>
        <time>2015-11-15T09:26:32.000Z</time>
      </trkpt>
      <trkpt lat="47.48979" lon="6.78194">
        <ele>327</ele>
        <time>2015-11-15T09:26:33.000Z</time>
      </trkpt>
      <trkpt lat="47.48977" lon="6.78191">
        <ele>327</ele>
        <time>2015-11-15T09:26:34.000Z</time>
      </trkpt>
      <trkpt lat="47.48974" lon="6.78188">
        <ele>327</ele>
        <time>2015-11-15T09:26:35.000Z</time>
      </trkpt>
      <trkpt lat="47.48971" lon="6.78185">
        <ele>327</ele>
        <time>2015-11-15T09:26:36.000Z</time>
      </trkpt>
      <trkpt lat="47.48968" lon="6.78181">
        <ele>327</ele>
        <time>2015-11-15T09:26:37.000Z</time>
      </trkpt>
      <trkpt lat="47.48966" lon="6.78177">
        <ele>327</ele>
        <time>2015-11-15T09:26:38.000Z</time>
      </trkpt>
      <trkpt lat="47.48965" lon="6.78175">
        <ele>327</ele>
        <time>2015-11-15T09:26:39.000Z</time>
      </trkpt>
      <trkpt lat="47.48967" lon="6.78169">
        <ele>327</ele>
        <time>2015-11-15T09:26:44.000Z</time>
      </trkpt>
      <trkpt lat="47.48966" lon="6.78167">
        <ele>327</ele>
        <time>2015-11-15T09:26:45.000Z</time>
      </trkpt>
      <trkpt lat="47.48965" lon="6.78163">
        <ele>331</ele>
        <time>2015-11-15T09:26:46.000Z</time>
      </trkpt>
      <trkpt lat="47.48963" lon="6.78158">
        <ele>331</ele>
        <time>2015-11-15T09:26:47.000Z</time>
      </trkpt>
      <trkpt lat="47.48958" lon="6.78147">
        <ele>331</ele>
        <time>2015-11-15T09:26:48.000Z</time>
      </trkpt>
      <trkpt lat="47.48956" lon="6.78142">
        <ele>331</ele>
        <time>2015-11-15T09:26:49.000Z</time>
      </trkpt>
      <trkpt lat="47.48951" lon="6.78139">
        <ele>330</ele>
        <time>2015-11-15T09:26:50.000Z</time>
      </trkpt>
      <trkpt lat="47.48948" lon="6.78135">
        <ele>330</ele>
        <time>2015-11-15T09:26:51.000Z</time>
      </trkpt>
      <trkpt lat="47.48947" lon="6.78129">
        <ele>330</ele>
        <time>2015-11-15T09:26:52.000Z</time>
      </trkpt>
      <trkpt lat="47.48944" lon="6.78125">
        <ele>330</ele>
        <time>2015-11-15T09:26:53.000Z</time>
      </trkpt>
      <trkpt lat="47.48941" lon="6.78121">
        <ele>330</ele>
        <time>2015-11-15T09:26:54.000Z</time>
      </trkpt>
      <trkpt lat="47.48938" lon="6.78115">
        <ele>330</ele>
        <time>2015-11-15T09:26:55.000Z</time>
      </trkpt>
      <trkpt lat="47.48935" lon="6.7811">
        <ele>330</ele>
        <time>2015-11-15T09:26:56.000Z</time>
      </trkpt>
      <trkpt lat="47.48933" lon="6.78105">
        <ele>330</ele>
        <time>2015-11-15T09:26:57.000Z</time>
      </trkpt>
      <trkpt lat="47.48931" lon="6.78101">
        <ele>330</ele>
        <time>2015-11-15T09:26:58.000Z</time>
      </trkpt>
      <trkpt lat="47.48929" lon="6.78098">
        <ele>330</ele>
        <time>2015-11-15T09:26:59.000Z</time>
      </trkpt>
      <trkpt lat="47.48927" lon="6.78094">
        <ele>330</ele>
        <time>2015-11-15T09:27:00.000Z</time>
      </trkpt>
      <trkpt lat="47.48925" lon="6.7809">
        <ele>330</ele>
        <time>2015-11-15T09:27:01.000Z</time>
      </trkpt>
      <trkpt lat="47.48923" lon="6.78076">
        <ele>332</ele>
        <time>2015-11-15T09:27:02.000Z</time>
      </trkpt>
      <trkpt lat="47.48919" lon="6.7807">
        <ele>333</ele>
        <time>2015-11-15T09:27:03.000Z</time>
      </trkpt>
      <trkpt lat="47.48918" lon="6.78063">
        <ele>334</ele>
        <time>2015-11-15T09:27:04.000Z</time>
      </trkpt>
      <trkpt lat="47.48915" lon="6.78057">
        <ele>328</ele>
        <time>2015-11-15T09:27:05.000Z</time>
      </trkpt>
      <trkpt lat="47.4891" lon="6.78049">
        <ele>328</ele>
        <time>2015-11-15T09:27:06.000Z</time>
      </trkpt>
      <trkpt lat="47.48907" lon="6.78043">
        <ele>328</ele>
        <time>2015-11-15T09:27:07.000Z</time>
      </trkpt>
      <trkpt lat="47.48905" lon="6.78036">
        <ele>328</ele>
        <time>2015-11-15T09:27:08.000Z</time>
      </trkpt>
      <trkpt lat="47.48904" lon="6.78028">
        <ele>329</ele>
        <time>2015-11-15T09:27:09.000Z</time>
      </trkpt>
      <trkpt lat="47.48904" lon="6.78022">
        <ele>330</ele>
        <time>2015-11-15T09:27:10.000Z</time>
      </trkpt>
      <trkpt lat="47.48903" lon="6.78014">
        <ele>331</ele>
        <time>2015-11-15T09:27:11.000Z</time>
      </trkpt>
      <trkpt lat="47.48902" lon="6.78008">
        <ele>332</ele>
        <time>2015-11-15T09:27:12.000Z</time>
      </trkpt>
      <trkpt lat="47.48897" lon="6.78002">
        <ele>331</ele>
        <time>2015-11-15T09:27:13.000Z</time>
      </trkpt>
      <trkpt lat="47.48895" lon="6.77996">
        <ele>333</ele>
        <time>2015-11-15T09:27:14.000Z</time>
      </trkpt>
      <trkpt lat="47.48894" lon="6.77991">
        <ele>333</ele>
        <time>2015-11-15T09:27:15.000Z</time>
      </trkpt>
      <trkpt lat="47.48893" lon="6.77985">
        <ele>333</ele>
        <time>2015-11-15T09:27:16.000Z</time>
      </trkpt>
      <trkpt lat="47.4889" lon="6.77985">
        <ele>333</ele>
        <time>2015-11-15T09:27:17.000Z</time>
      </trkpt>
      <trkpt lat="47.48888" lon="6.77982">
        <ele>332</ele>
        <time>2015-11-15T09:27:18.000Z</time>
      </trkpt>
      <trkpt lat="47.48881" lon="6.77976">
        <ele>332</ele>
        <time>2015-11-15T09:27:19.000Z</time>
      </trkpt>
      <trkpt lat="47.48877" lon="6.7797">
        <ele>331</ele>
        <time>2015-11-15T09:27:20.000Z</time>
      </trkpt>
      <trkpt lat="47.48873" lon="6.77962">
        <ele>331</ele>
        <time>2015-11-15T09:27:21.000Z</time>
      </trkpt>
      <trkpt lat="47.48869" lon="6.77955">
        <ele>331</ele>
        <time>2015-11-15T09:27:22.000Z</time>
      </trkpt>
      <trkpt lat="47.48865" lon="6.77948">
        <ele>331</ele>
        <time>2015-11-15T09:27:23.000Z</time>
      </trkpt>
      <trkpt lat="47.48862" lon="6.77941">
        <ele>331</ele>
        <time>2015-11-15T09:27:24.000Z</time>
      </trkpt>
      <trkpt lat="47.48859" lon="6.77935">
        <ele>330</ele>
        <time>2015-11-15T09:27:25.000Z</time>
      </trkpt>
      <trkpt lat="47.48855" lon="6.77927">
        <ele>330</ele>
        <time>2015-11-15T09:27:26.000Z</time>
      </trkpt>
      <trkpt lat="47.48851" lon="6.77919">
        <ele>330</ele>
        <time>2015-11-15T09:27:27.000Z</time>
      </trkpt>
      <trkpt lat="47.48846" lon="6.77911">
        <ele>331</ele>
        <time>2015-11-15T09:27:28.000Z</time>
      </trkpt>
      <trkpt lat="47.48843" lon="6.77905">
        <ele>331</ele>
        <time>2015-11-15T09:27:29.000Z</time>
      </trkpt>
      <trkpt lat="47.48839" lon="6.77898">
        <ele>331</ele>
        <time>2015-11-15T09:27:30.000Z</time>
      </trkpt>
      <trkpt lat="47.48835" lon="6.77891">
        <ele>332</ele>
        <time>2015-11-15T09:27:31.000Z</time>
      </trkpt>
      <trkpt lat="47.48832" lon="6.77885">
        <ele>325</ele>
        <time>2015-11-15T09:27:32.000Z</time>
      </trkpt>
      <trkpt lat="47.48827" lon="6.77876">
        <ele>325</ele>
        <time>2015-11-15T09:27:33.000Z</time>
      </trkpt>
      <trkpt lat="47.48822" lon="6.77869">
        <ele>325</ele>
        <time>2015-11-15T09:27:34.000Z</time>
      </trkpt>
      <trkpt lat="47.48817" lon="6.77864">
        <ele>325</ele>
        <time>2015-11-15T09:27:35.000Z</time>
      </trkpt>
      <trkpt lat="47.48814" lon="6.77858">
        <ele>325</ele>
        <time>2015-11-15T09:27:36.000Z</time>
      </trkpt>
      <trkpt lat="47.48811" lon="6.77852">
        <ele>325</ele>
        <time>2015-11-15T09:27:37.000Z</time>
      </trkpt>
      <trkpt lat="47.48806" lon="6.77846">
        <ele>325</ele>
        <time>2015-11-15T09:27:38.000Z</time>
      </trkpt>
      <trkpt lat="47.48802" lon="6.77839">
        <ele>324</ele>
        <time>2015-11-15T09:27:39.000Z</time>
      </trkpt>
      <trkpt lat="47.48799" lon="6.77832">
        <ele>325</ele>
        <time>2015-11-15T09:27:40.000Z</time>
      </trkpt>
      <trkpt lat="47.48796" lon="6.77825">
        <ele>325</ele>
        <time>2015-11-15T09:27:41.000Z</time>
      </trkpt>
      <trkpt lat="47.48791" lon="6.77816">
        <ele>324</ele>
        <time>2015-11-15T09:27:42.000Z</time>
      </trkpt>
      <trkpt lat="47.48789" lon="6.77808">
        <ele>324</ele>
        <time>2015-11-15T09:27:43.000Z</time>
      </trkpt>
      <trkpt lat="47.48785" lon="6.77802">
        <ele>324</ele>
        <time>2015-11-15T09:27:44.000Z</time>
      </trkpt>
      <trkpt lat="47.48782" lon="6.77795">
        <ele>324</ele>
        <time>2015-11-15T09:27:45.000Z</time>
      </trkpt>
      <trkpt lat="47.48779" lon="6.77788">
        <ele>324</ele>
        <time>2015-11-15T09:27:46.000Z</time>
      </trkpt>
      <trkpt lat="47.48774" lon="6.77782">
        <ele>324</ele>
        <time>2015-11-15T09:27:47.000Z</time>
      </trkpt>
      <trkpt lat="47.48771" lon="6.77776">
        <ele>323</ele>
        <time>2015-11-15T09:27:48.000Z</time>
      </trkpt>
      <trkpt lat="47.48766" lon="6.77772">
        <ele>323</ele>
        <time>2015-11-15T09:27:49.000Z</time>
      </trkpt>
      <trkpt lat="47.48763" lon="6.77764">
        <ele>322</ele>
        <time>2015-11-15T09:27:50.000Z</time>
      </trkpt>
      <trkpt lat="47.48759" lon="6.77757">
        <ele>321</ele>
        <time>2015-11-15T09:27:51.000Z</time>
      </trkpt>
      <trkpt lat="47.48756" lon="6.77752">
        <ele>320</ele>
        <time>2015-11-15T09:27:52.000Z</time>
      </trkpt>
      <trkpt lat="47.48754" lon="6.77746">
        <ele>321</ele>
        <time>2015-11-15T09:27:53.000Z</time>
      </trkpt>
      <trkpt lat="47.48751" lon="6.7774">
        <ele>322</ele>
        <time>2015-11-15T09:27:54.000Z</time>
      </trkpt>
      <trkpt lat="47.4875" lon="6.77735">
        <ele>323</ele>
        <time>2015-11-15T09:27:56.000Z</time>
      </trkpt>
      <trkpt lat="47.4875" lon="6.77733">
        <ele>320</ele>
        <time>2015-11-15T09:27:57.000Z</time>
      </trkpt>
      <trkpt lat="47.48748" lon="6.77728">
        <ele>320</ele>
        <time>2015-11-15T09:28:00.000Z</time>
      </trkpt>
      <trkpt lat="47.48747" lon="6.77726">
        <ele>320</ele>
        <time>2015-11-15T09:28:01.000Z</time>
      </trkpt>
      <trkpt lat="47.48744" lon="6.77722">
        <ele>320</ele>
        <time>2015-11-15T09:28:06.000Z</time>
      </trkpt>
      <trkpt lat="47.48744" lon="6.7772">
        <ele>321</ele>
        <time>2015-11-15T09:28:07.000Z</time>
      </trkpt>
      <trkpt lat="47.48742" lon="6.77715">
        <ele>321</ele>
        <time>2015-11-15T09:28:10.000Z</time>
      </trkpt>
      <trkpt lat="47.48742" lon="6.77712">
        <ele>321</ele>
        <time>2015-11-15T09:28:11.000Z</time>
      </trkpt>
      <trkpt lat="47.4874" lon="6.77707">
        <ele>322</ele>
        <time>2015-11-15T09:28:13.000Z</time>
      </trkpt>
      <trkpt lat="47.48739" lon="6.77705">
        <ele>322</ele>
        <time>2015-11-15T09:28:14.000Z</time>
      </trkpt>
      <trkpt lat="47.48736" lon="6.77701">
        <ele>322</ele>
        <time>2015-11-15T09:28:16.000Z</time>
      </trkpt>
      <trkpt lat="47.48735" lon="6.77699">
        <ele>322</ele>
        <time>2015-11-15T09:28:17.000Z</time>
      </trkpt>
      <trkpt lat="47.48737" lon="6.77695">
        <ele>323</ele>
        <time>2015-11-15T09:28:20.000Z</time>
      </trkpt>
      <trkpt lat="47.48738" lon="6.77694">
        <ele>323</ele>
        <time>2015-11-15T09:28:21.000Z</time>
      </trkpt>
      <trkpt lat="47.48736" lon="6.77689">
        <ele>323</ele>
        <time>2015-11-15T09:28:38.000Z</time>
      </trkpt>
      <trkpt lat="47.48735" lon="6.77688">
        <ele>324</ele>
        <time>2015-11-15T09:28:39.000Z</time>
      </trkpt>
      <trkpt lat="47.48733" lon="6.77685">
        <ele>324</ele>
        <time>2015-11-15T09:28:41.000Z</time>
      </trkpt>
      <trkpt lat="47.48731" lon="6.77683">
        <ele>324</ele>
        <time>2015-11-15T09:28:42.000Z</time>
      </trkpt>
      <trkpt lat="47.48728" lon="6.77679">
        <ele>324</ele>
        <time>2015-11-15T09:28:43.000Z</time>
      </trkpt>
      <trkpt lat="47.48724" lon="6.77675">
        <ele>323</ele>
        <time>2015-11-15T09:28:44.000Z</time>
      </trkpt>
      <trkpt lat="47.48721" lon="6.77671">
        <ele>323</ele>
        <time>2015-11-15T09:28:45.000Z</time>
      </trkpt>
      <trkpt lat="47.48717" lon="6.77668">
        <ele>323</ele>
        <time>2015-11-15T09:28:46.000Z</time>
      </trkpt>
      <trkpt lat="47.48714" lon="6.77665">
        <ele>328</ele>
        <time>2015-11-15T09:28:47.000Z</time>
      </trkpt>
      <trkpt lat="47.48711" lon="6.77662">
        <ele>328</ele>
        <time>2015-11-15T09:28:48.000Z</time>
      </trkpt>
      <trkpt lat="47.48708" lon="6.77658">
        <ele>328</ele>
        <time>2015-11-15T09:28:49.000Z</time>
      </trkpt>
      <trkpt lat="47.48705" lon="6.77655">
        <ele>327</ele>
        <time>2015-11-15T09:28:50.000Z</time>
      </trkpt>
      <trkpt lat="47.48702" lon="6.77651">
        <ele>327</ele>
        <time>2015-11-15T09:28:51.000Z</time>
      </trkpt>
      <trkpt lat="47.48699" lon="6.77647">
        <ele>327</ele>
        <time>2015-11-15T09:28:52.000Z</time>
      </trkpt>
      <trkpt lat="47.48695" lon="6.77643">
        <ele>327</ele>
        <time>2015-11-15T09:28:53.000Z</time>
      </trkpt>
      <trkpt lat="47.48692" lon="6.77638">
        <ele>327</ele>
        <time>2015-11-15T09:28:54.000Z</time>
      </trkpt>
      <trkpt lat="47.48688" lon="6.77634">
        <ele>327</ele>
        <time>2015-11-15T09:28:55.000Z</time>
      </trkpt>
      <trkpt lat="47.48684" lon="6.77629">
        <ele>328</ele>
        <time>2015-11-15T09:28:56.000Z</time>
      </trkpt>
      <trkpt lat="47.48681" lon="6.77625">
        <ele>328</ele>
        <time>2015-11-15T09:28:57.000Z</time>
      </trkpt>
      <trkpt lat="47.48677" lon="6.7762">
        <ele>328</ele>
        <time>2015-11-15T09:28:58.000Z</time>
      </trkpt>
      <trkpt lat="47.48674" lon="6.77616">
        <ele>329</ele>
        <time>2015-11-15T09:28:59.000Z</time>
      </trkpt>
      <trkpt lat="47.4867" lon="6.77612">
        <ele>329</ele>
        <time>2015-11-15T09:29:00.000Z</time>
      </trkpt>
      <trkpt lat="47.48667" lon="6.77609">
        <ele>329</ele>
        <time>2015-11-15T09:29:01.000Z</time>
      </trkpt>
      <trkpt lat="47.48663" lon="6.77606">
        <ele>324</ele>
        <time>2015-11-15T09:29:02.000Z</time>
      </trkpt>
      <trkpt lat="47.48659" lon="6.77603">
        <ele>324</ele>
        <time>2015-11-15T09:29:03.000Z</time>
      </trkpt>
      <trkpt lat="47.48656" lon="6.776">
        <ele>324</ele>
        <time>2015-11-15T09:29:04.000Z</time>
      </trkpt>
      <trkpt lat="47.48652" lon="6.77597">
        <ele>324</ele>
        <time>2015-11-15T09:29:05.000Z</time>
      </trkpt>
      <trkpt lat="47.48648" lon="6.77593">
        <ele>324</ele>
        <time>2015-11-15T09:29:06.000Z</time>
      </trkpt>
      <trkpt lat="47.48645" lon="6.7759">
        <ele>324</ele>
        <time>2015-11-15T09:29:07.000Z</time>
      </trkpt>
      <trkpt lat="47.48641" lon="6.77586">
        <ele>323</ele>
        <time>2015-11-15T09:29:08.000Z</time>
      </trkpt>
      <trkpt lat="47.48638" lon="6.77582">
        <ele>328</ele>
        <time>2015-11-15T09:29:09.000Z</time>
      </trkpt>
      <trkpt lat="47.48635" lon="6.77577">
        <ele>328</ele>
        <time>2015-11-15T09:29:10.000Z</time>
      </trkpt>
      <trkpt lat="47.48632" lon="6.77571">
        <ele>328</ele>
        <time>2015-11-15T09:29:11.000Z</time>
      </trkpt>
      <trkpt lat="47.4863" lon="6.77566">
        <ele>328</ele>
        <time>2015-11-15T09:29:12.000Z</time>
      </trkpt>
      <trkpt lat="47.48625" lon="6.77559">
        <ele>327</ele>
        <time>2015-11-15T09:29:13.000Z</time>
      </trkpt>
      <trkpt lat="47.48621" lon="6.77555">
        <ele>327</ele>
        <time>2015-11-15T09:29:14.000Z</time>
      </trkpt>
      <trkpt lat="47.48618" lon="6.77549">
        <ele>327</ele>
        <time>2015-11-15T09:29:15.000Z</time>
      </trkpt>
      <trkpt lat="47.48615" lon="6.77546">
        <ele>327</ele>
        <time>2015-11-15T09:29:16.000Z</time>
      </trkpt>
      <trkpt lat="47.48611" lon="6.77544">
        <ele>327</ele>
        <time>2015-11-15T09:29:17.000Z</time>
      </trkpt>
      <trkpt lat="47.48609" lon="6.77542">
        <ele>327</ele>
        <time>2015-11-15T09:29:18.000Z</time>
      </trkpt>
      <trkpt lat="47.48605" lon="6.7754">
        <ele>327</ele>
        <time>2015-11-15T09:29:19.000Z</time>
      </trkpt>
      <trkpt lat="47.48602" lon="6.77533">
        <ele>327</ele>
        <time>2015-11-15T09:29:20.000Z</time>
      </trkpt>
      <trkpt lat="47.48599" lon="6.77528">
        <ele>327</ele>
        <time>2015-11-15T09:29:21.000Z</time>
      </trkpt>
      <trkpt lat="47.48595" lon="6.77524">
        <ele>327</ele>
        <time>2015-11-15T09:29:22.000Z</time>
      </trkpt>
      <trkpt lat="47.4859" lon="6.77518">
        <ele>327</ele>
        <time>2015-11-15T09:29:23.000Z</time>
      </trkpt>
      <trkpt lat="47.48588" lon="6.77511">
        <ele>327</ele>
        <time>2015-11-15T09:29:24.000Z</time>
      </trkpt>
      <trkpt lat="47.48586" lon="6.77507">
        <ele>327</ele>
        <time>2015-11-15T09:29:25.000Z</time>
      </trkpt>
      <trkpt lat="47.48584" lon="6.77507">
        <ele>327</ele>
        <time>2015-11-15T09:29:26.000Z</time>
      </trkpt>
      <trkpt lat="47.48581" lon="6.77505">
        <ele>324</ele>
        <time>2015-11-15T09:29:27.000Z</time>
      </trkpt>
      <trkpt lat="47.48578" lon="6.77502">
        <ele>324</ele>
        <time>2015-11-15T09:29:28.000Z</time>
      </trkpt>
      <trkpt lat="47.48577" lon="6.77495">
        <ele>326</ele>
        <time>2015-11-15T09:29:29.000Z</time>
      </trkpt>
      <trkpt lat="47.48574" lon="6.77488">
        <ele>326</ele>
        <time>2015-11-15T09:29:30.000Z</time>
      </trkpt>
      <trkpt lat="47.48571" lon="6.77484">
        <ele>327</ele>
        <time>2015-11-15T09:29:31.000Z</time>
      </trkpt>
      <trkpt lat="47.48568" lon="6.7748">
        <ele>327</ele>
        <time>2015-11-15T09:29:32.000Z</time>
      </trkpt>
      <trkpt lat="47.48564" lon="6.77478">
        <ele>327</ele>
        <time>2015-11-15T09:29:33.000Z</time>
      </trkpt>
      <trkpt lat="47.48561" lon="6.77474">
        <ele>327</ele>
        <time>2015-11-15T09:29:34.000Z</time>
      </trkpt>
      <trkpt lat="47.48556" lon="6.77469">
        <ele>327</ele>
        <time>2015-11-15T09:29:35.000Z</time>
      </trkpt>
      <trkpt lat="47.48552" lon="6.77465">
        <ele>327</ele>
        <time>2015-11-15T09:29:36.000Z</time>
      </trkpt>
      <trkpt lat="47.48547" lon="6.77462">
        <ele>327</ele>
        <time>2015-11-15T09:29:37.000Z</time>
      </trkpt>
      <trkpt lat="47.48544" lon="6.7746">
        <ele>327</ele>
        <time>2015-11-15T09:29:38.000Z</time>
      </trkpt>
      <trkpt lat="47.4854" lon="6.77451">
        <ele>327</ele>
        <time>2015-11-15T09:29:39.000Z</time>
      </trkpt>
      <trkpt lat="47.48535" lon="6.77445">
        <ele>327</ele>
        <time>2015-11-15T09:29:40.000Z</time>
      </trkpt>
      <trkpt lat="47.48531" lon="6.77441">
        <ele>327</ele>
        <time>2015-11-15T09:29:41.000Z</time>
      </trkpt>
      <trkpt lat="47.48527" lon="6.77439">
        <ele>327</ele>
        <time>2015-11-15T09:29:42.000Z</time>
      </trkpt>
      <trkpt lat="47.48522" lon="6.77435">
        <ele>327</ele>
        <time>2015-11-15T09:29:43.000Z</time>
      </trkpt>
      <trkpt lat="47.48519" lon="6.77432">
        <ele>327</ele>
        <time>2015-11-15T09:29:44.000Z</time>
      </trkpt>
      <trkpt lat="47.48515" lon="6.7743">
        <ele>327</ele>
        <time>2015-11-15T09:29:45.000Z</time>
      </trkpt>
      <trkpt lat="47.48511" lon="6.77424">
        <ele>326</ele>
        <time>2015-11-15T09:29:46.000Z</time>
      </trkpt>
      <trkpt lat="47.48506" lon="6.7742">
        <ele>326</ele>
        <time>2015-11-15T09:29:47.000Z</time>
      </trkpt>
      <trkpt lat="47.48503" lon="6.77415">
        <ele>327</ele>
        <time>2015-11-15T09:29:48.000Z</time>
      </trkpt>
      <trkpt lat="47.48499" lon="6.77409">
        <ele>326</ele>
        <time>2015-11-15T09:29:49.000Z</time>
      </trkpt>
      <trkpt lat="47.48496" lon="6.77406">
        <ele>326</ele>
        <time>2015-11-15T09:29:50.000Z</time>
      </trkpt>
      <trkpt lat="47.48493" lon="6.77403">
        <ele>326</ele>
        <time>2015-11-15T09:29:51.000Z</time>
      </trkpt>
      <trkpt lat="47.48489" lon="6.77397">
        <ele>327</ele>
        <time>2015-11-15T09:29:52.000Z</time>
      </trkpt>
      <trkpt lat="47.48486" lon="6.77393">
        <ele>327</ele>
        <time>2015-11-15T09:29:53.000Z</time>
      </trkpt>
      <trkpt lat="47.48482" lon="6.77391">
        <ele>327</ele>
        <time>2015-11-15T09:29:54.000Z</time>
      </trkpt>
      <trkpt lat="47.48479" lon="6.77386">
        <ele>327</ele>
        <time>2015-11-15T09:29:55.000Z</time>
      </trkpt>
      <trkpt lat="47.48476" lon="6.77383">
        <ele>327</ele>
        <time>2015-11-15T09:29:56.000Z</time>
      </trkpt>
      <trkpt lat="47.48472" lon="6.77379">
        <ele>327</ele>
        <time>2015-11-15T09:29:57.000Z</time>
      </trkpt>
      <trkpt lat="47.4847" lon="6.77375">
        <ele>327</ele>
        <time>2015-11-15T09:29:58.000Z</time>
      </trkpt>
      <trkpt lat="47.48467" lon="6.77371">
        <ele>327</ele>
        <time>2015-11-15T09:29:59.000Z</time>
      </trkpt>
      <trkpt lat="47.48463" lon="6.77368">
        <ele>327</ele>
        <time>2015-11-15T09:30:00.000Z</time>
      </trkpt>
      <trkpt lat="47.4846" lon="6.77364">
        <ele>327</ele>
        <time>2015-11-15T09:30:01.000Z</time>
      </trkpt>
      <trkpt lat="47.48457" lon="6.7736">
        <ele>327</ele>
        <time>2015-11-15T09:30:02.000Z</time>
      </trkpt>
      <trkpt lat="47.48452" lon="6.77352">
        <ele>328</ele>
        <time>2015-11-15T09:30:03.000Z</time>
      </trkpt>
      <trkpt lat="47.48449" lon="6.77345">
        <ele>328</ele>
        <time>2015-11-15T09:30:04.000Z</time>
      </trkpt>
      <trkpt lat="47.48445" lon="6.77339">
        <ele>327</ele>
        <time>2015-11-15T09:30:05.000Z</time>
      </trkpt>
      <trkpt lat="47.48442" lon="6.77338">
        <ele>327</ele>
        <time>2015-11-15T09:30:06.000Z</time>
      </trkpt>
      <trkpt lat="47.48439" lon="6.77334">
        <ele>327</ele>
        <time>2015-11-15T09:30:07.000Z</time>
      </trkpt>
      <trkpt lat="47.48435" lon="6.7733">
        <ele>331</ele>
        <time>2015-11-15T09:30:08.000Z</time>
      </trkpt>
      <trkpt lat="47.48431" lon="6.77326">
        <ele>330</ele>
        <time>2015-11-15T09:30:09.000Z</time>
      </trkpt>
      <trkpt lat="47.48427" lon="6.7732">
        <ele>330</ele>
        <time>2015-11-15T09:30:10.000Z</time>
      </trkpt>
      <trkpt lat="47.48423" lon="6.77316">
        <ele>330</ele>
        <time>2015-11-15T09:30:11.000Z</time>
      </trkpt>
      <trkpt lat="47.48419" lon="6.77314">
        <ele>331</ele>
        <time>2015-11-15T09:30:12.000Z</time>
      </trkpt>
      <trkpt lat="47.48416" lon="6.77313">
        <ele>326</ele>
        <time>2015-11-15T09:30:13.000Z</time>
      </trkpt>
      <trkpt lat="47.4841" lon="6.77311">
        <ele>326</ele>
        <time>2015-11-15T09:30:14.000Z</time>
      </trkpt>
      <trkpt lat="47.48406" lon="6.77309">
        <ele>325</ele>
        <time>2015-11-15T09:30:15.000Z</time>
      </trkpt>
      <trkpt lat="47.48403" lon="6.77307">
        <ele>325</ele>
        <time>2015-11-15T09:30:16.000Z</time>
      </trkpt>
      <trkpt lat="47.48399" lon="6.77306">
        <ele>325</ele>
        <time>2015-11-15T09:30:17.000Z</time>
      </trkpt>
      <trkpt lat="47.48394" lon="6.77303">
        <ele>325</ele>
        <time>2015-11-15T09:30:18.000Z</time>
      </trkpt>
      <trkpt lat="47.48391" lon="6.77295">
        <ele>325</ele>
        <time>2015-11-15T09:30:19.000Z</time>
      </trkpt>
      <trkpt lat="47.48386" lon="6.77292">
        <ele>325</ele>
        <time>2015-11-15T09:30:20.000Z</time>
      </trkpt>
      <trkpt lat="47.48382" lon="6.77287">
        <ele>325</ele>
        <time>2015-11-15T09:30:21.000Z</time>
      </trkpt>
      <trkpt lat="47.48382" lon="6.77284">
        <ele>325</ele>
        <time>2015-11-15T09:30:22.000Z</time>
      </trkpt>
      <trkpt lat="47.4838" lon="6.7728">
        <ele>326</ele>
        <time>2015-11-15T09:30:23.000Z</time>
      </trkpt>
      <trkpt lat="47.48379" lon="6.77278">
        <ele>326</ele>
        <time>2015-11-15T09:30:25.000Z</time>
      </trkpt>
      <trkpt lat="47.48377" lon="6.77274">
        <ele>326</ele>
        <time>2015-11-15T09:30:26.000Z</time>
      </trkpt>
      <trkpt lat="47.48375" lon="6.77269">
        <ele>326</ele>
        <time>2015-11-15T09:30:27.000Z</time>
      </trkpt>
      <trkpt lat="47.48376" lon="6.77266">
        <ele>326</ele>
        <time>2015-11-15T09:30:28.000Z</time>
      </trkpt>
      <trkpt lat="47.48379" lon="6.77262">
        <ele>326</ele>
        <time>2015-11-15T09:30:31.000Z</time>
      </trkpt>
      <trkpt lat="47.48381" lon="6.77261">
        <ele>327</ele>
        <time>2015-11-15T09:30:32.000Z</time>
      </trkpt>
      <trkpt lat="47.48385" lon="6.77258">
        <ele>327</ele>
        <time>2015-11-15T09:30:34.000Z</time>
      </trkpt>
      <trkpt lat="47.48386" lon="6.77257">
        <ele>328</ele>
        <time>2015-11-15T09:30:35.000Z</time>
      </trkpt>
      <trkpt lat="47.48388" lon="6.77255">
        <ele>328</ele>
        <time>2015-11-15T09:30:36.000Z</time>
      </trkpt>
      <trkpt lat="47.4839" lon="6.77253">
        <ele>328</ele>
        <time>2015-11-15T09:30:37.000Z</time>
      </trkpt>
      <trkpt lat="47.48392" lon="6.7725">
        <ele>331</ele>
        <time>2015-11-15T09:30:38.000Z</time>
      </trkpt>
      <trkpt lat="47.48394" lon="6.77247">
        <ele>332</ele>
        <time>2015-11-15T09:30:39.000Z</time>
      </trkpt>
      <trkpt lat="47.48396" lon="6.77244">
        <ele>332</ele>
        <time>2015-11-15T09:30:40.000Z</time>
      </trkpt>
      <trkpt lat="47.48397" lon="6.77241">
        <ele>332</ele>
        <time>2015-11-15T09:30:41.000Z</time>
      </trkpt>
      <trkpt lat="47.48399" lon="6.77237">
        <ele>332</ele>
        <time>2015-11-15T09:30:43.000Z</time>
      </trkpt>
      <trkpt lat="47.484" lon="6.77236">
        <ele>332</ele>
        <time>2015-11-15T09:30:44.000Z</time>
      </trkpt>
      <trkpt lat="47.48401" lon="6.77231">
        <ele>332</ele>
        <time>2015-11-15T09:30:46.000Z</time>
      </trkpt>
      <trkpt lat="47.48402" lon="6.77228">
        <ele>331</ele>
        <time>2015-11-15T09:30:47.000Z</time>
      </trkpt>
      <trkpt lat="47.48404" lon="6.77223">
        <ele>331</ele>
        <time>2015-11-15T09:30:49.000Z</time>
      </trkpt>
      <trkpt lat="47.48404" lon="6.7722">
        <ele>331</ele>
        <time>2015-11-15T09:30:50.000Z</time>
      </trkpt>
      <trkpt lat="47.48405" lon="6.77214">
        <ele>331</ele>
        <time>2015-11-15T09:30:53.000Z</time>
      </trkpt>
      <trkpt lat="47.48405" lon="6.77212">
        <ele>331</ele>
        <time>2015-11-15T09:30:54.000Z</time>
      </trkpt>
      <trkpt lat="47.48401" lon="6.77214">
        <ele>331</ele>
        <time>2015-11-15T09:31:04.000Z</time>
      </trkpt>
      <trkpt lat="47.48401" lon="6.77215">
        <ele>331</ele>
        <time>2015-11-15T09:31:05.000Z</time>
      </trkpt>
      <trkpt lat="47.48399" lon="6.77221">
        <ele>331</ele>
        <time>2015-11-15T09:31:09.000Z</time>
      </trkpt>
      <trkpt lat="47.48398" lon="6.77222">
        <ele>331</ele>
        <time>2015-11-15T09:31:10.000Z</time>
      </trkpt>
      <trkpt lat="47.484" lon="6.77217">
        <ele>331</ele>
        <time>2015-11-15T09:31:18.000Z</time>
      </trkpt>
      <trkpt lat="47.48401" lon="6.77215">
        <ele>331</ele>
        <time>2015-11-15T09:31:19.000Z</time>
      </trkpt>
      <trkpt lat="47.48404" lon="6.77211">
        <ele>331</ele>
        <time>2015-11-15T09:31:21.000Z</time>
      </trkpt>
      <trkpt lat="47.48405" lon="6.77209">
        <ele>331</ele>
        <time>2015-11-15T09:31:22.000Z</time>
      </trkpt>
      <trkpt lat="47.48408" lon="6.77206">
        <ele>331</ele>
        <time>2015-11-15T09:31:24.000Z</time>
      </trkpt>
      <trkpt lat="47.48409" lon="6.77205">
        <ele>331</ele>
        <time>2015-11-15T09:31:25.000Z</time>
      </trkpt>
      <trkpt lat="47.48412" lon="6.772">
        <ele>331</ele>
        <time>2015-11-15T09:31:32.000Z</time>
      </trkpt>
      <trkpt lat="47.48413" lon="6.77198">
        <ele>331</ele>
        <time>2015-11-15T09:31:33.000Z</time>
      </trkpt>
      <trkpt lat="47.48416" lon="6.77194">
        <ele>331</ele>
        <time>2015-11-15T09:31:35.000Z</time>
      </trkpt>
      <trkpt lat="47.48418" lon="6.77193">
        <ele>330</ele>
        <time>2015-11-15T09:31:36.000Z</time>
      </trkpt>
      <trkpt lat="47.48421" lon="6.77193">
        <ele>330</ele>
        <time>2015-11-15T09:31:37.000Z</time>
      </trkpt>
      <trkpt lat="47.48424" lon="6.77193">
        <ele>330</ele>
        <time>2015-11-15T09:31:38.000Z</time>
      </trkpt>
      <trkpt lat="47.48428" lon="6.77195">
        <ele>330</ele>
        <time>2015-11-15T09:31:39.000Z</time>
      </trkpt>
      <trkpt lat="47.48431" lon="6.77197">
        <ele>330</ele>
        <time>2015-11-15T09:31:40.000Z</time>
      </trkpt>
      <trkpt lat="47.48435" lon="6.77199">
        <ele>330</ele>
        <time>2015-11-15T09:31:41.000Z</time>
      </trkpt>
      <trkpt lat="47.48438" lon="6.772">
        <ele>330</ele>
        <time>2015-11-15T09:31:42.000Z</time>
      </trkpt>
      <trkpt lat="47.48441" lon="6.77203">
        <ele>330</ele>
        <time>2015-11-15T09:31:43.000Z</time>
      </trkpt>
      <trkpt lat="47.48444" lon="6.77205">
        <ele>330</ele>
        <time>2015-11-15T09:31:44.000Z</time>
      </trkpt>
      <trkpt lat="47.48447" lon="6.77207">
        <ele>330</ele>
        <time>2015-11-15T09:31:45.000Z</time>
      </trkpt>
      <trkpt lat="47.48451" lon="6.77209">
        <ele>331</ele>
        <time>2015-11-15T09:31:46.000Z</time>
      </trkpt>
      <trkpt lat="47.48454" lon="6.77212">
        <ele>331</ele>
        <time>2015-11-15T09:31:47.000Z</time>
      </trkpt>
      <trkpt lat="47.48456" lon="6.77214">
        <ele>331</ele>
        <time>2015-11-15T09:31:48.000Z</time>
      </trkpt>
      <trkpt lat="47.48459" lon="6.77216">
        <ele>331</ele>
        <time>2015-11-15T09:31:49.000Z</time>
      </trkpt>
      <trkpt lat="47.48462" lon="6.77218">
        <ele>331</ele>
        <time>2015-11-15T09:31:50.000Z</time>
      </trkpt>
      <trkpt lat="47.48464" lon="6.7722">
        <ele>331</ele>
        <time>2015-11-15T09:31:51.000Z</time>
      </trkpt>
      <trkpt lat="47.48467" lon="6.77223">
        <ele>331</ele>
        <time>2015-11-15T09:31:52.000Z</time>
      </trkpt>
      <trkpt lat="47.4847" lon="6.77224">
        <ele>331</ele>
        <time>2015-11-15T09:31:53.000Z</time>
      </trkpt>
      <trkpt lat="47.48474" lon="6.77227">
        <ele>331</ele>
        <time>2015-11-15T09:31:54.000Z</time>
      </trkpt>
      <trkpt lat="47.48478" lon="6.77229">
        <ele>332</ele>
        <time>2015-11-15T09:31:55.000Z</time>
      </trkpt>
      <trkpt lat="47.48489" lon="6.77235">
        <ele>333</ele>
        <time>2015-11-15T09:31:56.000Z</time>
      </trkpt>
      <trkpt lat="47.48495" lon="6.7724">
        <ele>334</ele>
        <time>2015-11-15T09:31:57.000Z</time>
      </trkpt>
      <trkpt lat="47.485" lon="6.77244">
        <ele>335</ele>
        <time>2015-11-15T09:31:58.000Z</time>
      </trkpt>
      <trkpt lat="47.48504" lon="6.77247">
        <ele>333</ele>
        <time>2015-11-15T09:31:59.000Z</time>
      </trkpt>
      <trkpt lat="47.48508" lon="6.7725">
        <ele>335</ele>
        <time>2015-11-15T09:32:00.000Z</time>
      </trkpt>
      <trkpt lat="47.48512" lon="6.77252">
        <ele>335</ele>
        <time>2015-11-15T09:32:01.000Z</time>
      </trkpt>
      <trkpt lat="47.48516" lon="6.77255">
        <ele>334</ele>
        <time>2015-11-15T09:32:02.000Z</time>
      </trkpt>
      <trkpt lat="47.48521" lon="6.77259">
        <ele>334</ele>
        <time>2015-11-15T09:32:03.000Z</time>
      </trkpt>
      <trkpt lat="47.48525" lon="6.77263">
        <ele>334</ele>
        <time>2015-11-15T09:32:04.000Z</time>
      </trkpt>
      <trkpt lat="47.48526" lon="6.77268">
        <ele>334</ele>
        <time>2015-11-15T09:32:05.000Z</time>
      </trkpt>
      <trkpt lat="47.48531" lon="6.77272">
        <ele>334</ele>
        <time>2015-11-15T09:32:06.000Z</time>
      </trkpt>
      <trkpt lat="47.48535" lon="6.77276">
        <ele>333</ele>
        <time>2015-11-15T09:32:07.000Z</time>
      </trkpt>
      <trkpt lat="47.48538" lon="6.77279">
        <ele>333</ele>
        <time>2015-11-15T09:32:08.000Z</time>
      </trkpt>
      <trkpt lat="47.48545" lon="6.77285">
        <ele>333</ele>
        <time>2015-11-15T09:32:09.000Z</time>
      </trkpt>
      <trkpt lat="47.4855" lon="6.77289">
        <ele>333</ele>
        <time>2015-11-15T09:32:10.000Z</time>
      </trkpt>
      <trkpt lat="47.48555" lon="6.77293">
        <ele>333</ele>
        <time>2015-11-15T09:32:11.000Z</time>
      </trkpt>
      <trkpt lat="47.48561" lon="6.77299">
        <ele>333</ele>
        <time>2015-11-15T09:32:12.000Z</time>
      </trkpt>
      <trkpt lat="47.48566" lon="6.77303">
        <ele>334</ele>
        <time>2015-11-15T09:32:13.000Z</time>
      </trkpt>
      <trkpt lat="47.48569" lon="6.77306">
        <ele>334</ele>
        <time>2015-11-15T09:32:14.000Z</time>
      </trkpt>
      <trkpt lat="47.48572" lon="6.77308">
        <ele>334</ele>
        <time>2015-11-15T09:32:15.000Z</time>
      </trkpt>
      <trkpt lat="47.48576" lon="6.77314">
        <ele>335</ele>
        <time>2015-11-15T09:32:16.000Z</time>
      </trkpt>
      <trkpt lat="47.48579" lon="6.77319">
        <ele>335</ele>
        <time>2015-11-15T09:32:17.000Z</time>
      </trkpt>
      <trkpt lat="47.48584" lon="6.77322">
        <ele>332</ele>
        <time>2015-11-15T09:32:18.000Z</time>
      </trkpt>
      <trkpt lat="47.48588" lon="6.77327">
        <ele>333</ele>
        <time>2015-11-15T09:32:19.000Z</time>
      </trkpt>
      <trkpt lat="47.48592" lon="6.77331">
        <ele>333</ele>
        <time>2015-11-15T09:32:20.000Z</time>
      </trkpt>
      <trkpt lat="47.48596" lon="6.77336">
        <ele>335</ele>
        <time>2015-11-15T09:32:21.000Z</time>
      </trkpt>
      <trkpt lat="47.48599" lon="6.7734">
        <ele>335</ele>
        <time>2015-11-15T09:32:22.000Z</time>
      </trkpt>
      <trkpt lat="47.48603" lon="6.77344">
        <ele>334</ele>
        <time>2015-11-15T09:32:23.000Z</time>
      </trkpt>
      <trkpt lat="47.48607" lon="6.77347">
        <ele>334</ele>
        <time>2015-11-15T09:32:24.000Z</time>
      </trkpt>
      <trkpt lat="47.48614" lon="6.77354">
        <ele>334</ele>
        <time>2015-11-15T09:32:25.000Z</time>
      </trkpt>
      <trkpt lat="47.48619" lon="6.77356">
        <ele>333</ele>
        <time>2015-11-15T09:32:26.000Z</time>
      </trkpt>
      <trkpt lat="47.48623" lon="6.77358">
        <ele>333</ele>
        <time>2015-11-15T09:32:27.000Z</time>
      </trkpt>
      <trkpt lat="47.48627" lon="6.77361">
        <ele>333</ele>
        <time>2015-11-15T09:32:28.000Z</time>
      </trkpt>
      <trkpt lat="47.48632" lon="6.77366">
        <ele>333</ele>
        <time>2015-11-15T09:32:29.000Z</time>
      </trkpt>
      <trkpt lat="47.48636" lon="6.77369">
        <ele>333</ele>
        <time>2015-11-15T09:32:30.000Z</time>
      </trkpt>
      <trkpt lat="47.48641" lon="6.77371">
        <ele>332</ele>
        <time>2015-11-15T09:32:31.000Z</time>
      </trkpt>
      <trkpt lat="47.48645" lon="6.77373">
        <ele>332</ele>
        <time>2015-11-15T09:32:32.000Z</time>
      </trkpt>
      <trkpt lat="47.48649" lon="6.77373">
        <ele>332</ele>
        <time>2015-11-15T09:32:33.000Z</time>
      </trkpt>
      <trkpt lat="47.48652" lon="6.77375">
        <ele>332</ele>
        <time>2015-11-15T09:32:34.000Z</time>
      </trkpt>
      <trkpt lat="47.48652" lon="6.77381">
        <ele>333</ele>
        <time>2015-11-15T09:32:44.000Z</time>
      </trkpt>
      <trkpt lat="47.48652" lon="6.77383">
        <ele>333</ele>
        <time>2015-11-15T09:32:45.000Z</time>
      </trkpt>
      <trkpt lat="47.48654" lon="6.77387">
        <ele>334</ele>
        <time>2015-11-15T09:32:52.000Z</time>
      </trkpt>
      <trkpt lat="47.48655" lon="6.77388">
        <ele>334</ele>
        <time>2015-11-15T09:32:53.000Z</time>
      </trkpt>
      <trkpt lat="47.48657" lon="6.77389">
        <ele>334</ele>
        <time>2015-11-15T09:32:54.000Z</time>
      </trkpt>
      <trkpt lat="47.48659" lon="6.77391">
        <ele>334</ele>
        <time>2015-11-15T09:32:55.000Z</time>
      </trkpt>
      <trkpt lat="47.48662" lon="6.77394">
        <ele>334</ele>
        <time>2015-11-15T09:32:56.000Z</time>
      </trkpt>
      <trkpt lat="47.48665" lon="6.77397">
        <ele>334</ele>
        <time>2015-11-15T09:32:57.000Z</time>
      </trkpt>
      <trkpt lat="47.48668" lon="6.77399">
        <ele>329</ele>
        <time>2015-11-15T09:32:58.000Z</time>
      </trkpt>
      <trkpt lat="47.48671" lon="6.77403">
        <ele>330</ele>
        <time>2015-11-15T09:32:59.000Z</time>
      </trkpt>
      <trkpt lat="47.48673" lon="6.77407">
        <ele>331</ele>
        <time>2015-11-15T09:33:00.000Z</time>
      </trkpt>
      <trkpt lat="47.48676" lon="6.7741">
        <ele>331</ele>
        <time>2015-11-15T09:33:01.000Z</time>
      </trkpt>
      <trkpt lat="47.48679" lon="6.77412">
        <ele>330</ele>
        <time>2015-11-15T09:33:02.000Z</time>
      </trkpt>
      <trkpt lat="47.48682" lon="6.77413">
        <ele>329</ele>
        <time>2015-11-15T09:33:03.000Z</time>
      </trkpt>
      <trkpt lat="47.48685" lon="6.77414">
        <ele>329</ele>
        <time>2015-11-15T09:33:04.000Z</time>
      </trkpt>
      <trkpt lat="47.48687" lon="6.77416">
        <ele>328</ele>
        <time>2015-11-15T09:33:05.000Z</time>
      </trkpt>
      <trkpt lat="47.48691" lon="6.77418">
        <ele>333</ele>
        <time>2015-11-15T09:33:07.000Z</time>
      </trkpt>
      <trkpt lat="47.48693" lon="6.7742">
        <ele>332</ele>
        <time>2015-11-15T09:33:08.000Z</time>
      </trkpt>
      <trkpt lat="47.48695" lon="6.77425">
        <ele>332</ele>
        <time>2015-11-15T09:33:12.000Z</time>
      </trkpt>
      <trkpt lat="47.48696" lon="6.77425">
        <ele>332</ele>
        <time>2015-11-15T09:33:13.000Z</time>
      </trkpt>
      <trkpt lat="47.48699" lon="6.7743">
        <ele>331</ele>
        <time>2015-11-15T09:33:24.000Z</time>
      </trkpt>
      <trkpt lat="47.48699" lon="6.7743">
        <ele>331</ele>
        <time>2015-11-15T09:33:25.000Z</time>
      </trkpt>
      <trkpt lat="47.48702" lon="6.77434">
        <ele>331</ele>
        <time>2015-11-15T09:33:32.000Z</time>
      </trkpt>
      <trkpt lat="47.48704" lon="6.77435">
        <ele>331</ele>
        <time>2015-11-15T09:33:33.000Z</time>
      </trkpt>
      <trkpt lat="47.48707" lon="6.77438">
        <ele>331</ele>
        <time>2015-11-15T09:33:34.000Z</time>
      </trkpt>
      <trkpt lat="47.48709" lon="6.7744">
        <ele>330</ele>
        <time>2015-11-15T09:33:35.000Z</time>
      </trkpt>
      <trkpt lat="47.48712" lon="6.77443">
        <ele>330</ele>
        <time>2015-11-15T09:33:36.000Z</time>
      </trkpt>
      <trkpt lat="47.48715" lon="6.77445">
        <ele>330</ele>
        <time>2015-11-15T09:33:37.000Z</time>
      </trkpt>
      <trkpt lat="47.48717" lon="6.77448">
        <ele>330</ele>
        <time>2015-11-15T09:33:38.000Z</time>
      </trkpt>
      <trkpt lat="47.4872" lon="6.7745">
        <ele>330</ele>
        <time>2015-11-15T09:33:39.000Z</time>
      </trkpt>
      <trkpt lat="47.48723" lon="6.77453">
        <ele>330</ele>
        <time>2015-11-15T09:33:40.000Z</time>
      </trkpt>
      <trkpt lat="47.48725" lon="6.77456">
        <ele>330</ele>
        <time>2015-11-15T09:33:41.000Z</time>
      </trkpt>
      <trkpt lat="47.48728" lon="6.77458">
        <ele>330</ele>
        <time>2015-11-15T09:33:42.000Z</time>
      </trkpt>
      <trkpt lat="47.4873" lon="6.7746">
        <ele>330</ele>
        <time>2015-11-15T09:33:43.000Z</time>
      </trkpt>
      <trkpt lat="47.48733" lon="6.77463">
        <ele>330</ele>
        <time>2015-11-15T09:33:45.000Z</time>
      </trkpt>
      <trkpt lat="47.48734" lon="6.77464">
        <ele>330</ele>
        <time>2015-11-15T09:33:46.000Z</time>
      </trkpt>
      <trkpt lat="47.48735" lon="6.7747">
        <ele>330</ele>
        <time>2015-11-15T09:33:58.000Z</time>
      </trkpt>
      <trkpt lat="47.48735" lon="6.7747">
        <ele>331</ele>
        <time>2015-11-15T09:33:59.000Z</time>
      </trkpt>
      <trkpt lat="47.48733" lon="6.77476">
        <ele>331</ele>
        <time>2015-11-15T09:34:15.000Z</time>
      </trkpt>
      <trkpt lat="47.48733" lon="6.77476">
        <ele>331</ele>
        <time>2015-11-15T09:34:16.000Z</time>
      </trkpt>
      <trkpt lat="47.48729" lon="6.77478">
        <ele>331</ele>
        <time>2015-11-15T09:34:27.000Z</time>
      </trkpt>
      <trkpt lat="47.48728" lon="6.77479">
        <ele>331</ele>
        <time>2015-11-15T09:34:28.000Z</time>
      </trkpt>
      <trkpt lat="47.48725" lon="6.77483">
        <ele>332</ele>
        <time>2015-11-15T09:34:35.000Z</time>
      </trkpt>
      <trkpt lat="47.48724" lon="6.77484">
        <ele>332</ele>
        <time>2015-11-15T09:34:36.000Z</time>
      </trkpt>
      <trkpt lat="47.48723" lon="6.77489">
        <ele>332</ele>
        <time>2015-11-15T09:34:45.000Z</time>
      </trkpt>
      <trkpt lat="47.48722" lon="6.77491">
        <ele>332</ele>
        <time>2015-11-15T09:34:46.000Z</time>
      </trkpt>
      <trkpt lat="47.48718" lon="6.77494">
        <ele>333</ele>
        <time>2015-11-15T09:34:48.000Z</time>
      </trkpt>
      <trkpt lat="47.48716" lon="6.77495">
        <ele>333</ele>
        <time>2015-11-15T09:34:49.000Z</time>
      </trkpt>
      <trkpt lat="47.48712" lon="6.77499">
        <ele>333</ele>
        <time>2015-11-15T09:34:51.000Z</time>
      </trkpt>
      <trkpt lat="47.48711" lon="6.77501">
        <ele>336</ele>
        <time>2015-11-15T09:34:52.000Z</time>
      </trkpt>
      <trkpt lat="47.48708" lon="6.77504">
        <ele>336</ele>
        <time>2015-11-15T09:34:54.000Z</time>
      </trkpt>
      <trkpt lat="47.48706" lon="6.77505">
        <ele>336</ele>
        <time>2015-11-15T09:34:55.000Z</time>
      </trkpt>
      <trkpt lat="47.48703" lon="6.77507">
        <ele>336</ele>
        <time>2015-11-15T09:34:57.000Z</time>
      </trkpt>
      <trkpt lat="47.487" lon="6.77506">
        <ele>337</ele>
        <time>2015-11-15T09:34:58.000Z</time>
      </trkpt>
      <trkpt lat="47.48696" lon="6.77505">
        <ele>337</ele>
        <time>2015-11-15T09:35:00.000Z</time>
      </trkpt>
      <trkpt lat="47.48694" lon="6.77504">
        <ele>337</ele>
        <time>2015-11-15T09:35:01.000Z</time>
      </trkpt>
      <trkpt lat="47.4869" lon="6.77504">
        <ele>337</ele>
        <time>2015-11-15T09:35:07.000Z</time>
      </trkpt>
      <trkpt lat="47.48689" lon="6.77504">
        <ele>337</ele>
        <time>2015-11-15T09:35:08.000Z</time>
      </trkpt>
      <trkpt lat="47.48685" lon="6.77504">
        <ele>338</ele>
        <time>2015-11-15T09:35:19.000Z</time>
      </trkpt>
      <trkpt lat="47.48685" lon="6.77504">
        <ele>338</ele>
        <time>2015-11-15T09:35:20.000Z</time>
      </trkpt>
      <trkpt lat="47.48686" lon="6.775">
        <ele>338</ele>
        <time>2015-11-15T09:35:24.000Z</time>
      </trkpt>
      <trkpt lat="47.48688" lon="6.77495">
        <ele>336</ele>
        <time>2015-11-15T09:35:25.000Z</time>
      </trkpt>
      <trkpt lat="47.48691" lon="6.77491">
        <ele>335</ele>
        <time>2015-11-15T09:35:53.000Z</time>
      </trkpt>
      <trkpt lat="47.48691" lon="6.77491">
        <ele>335</ele>
        <time>2015-11-15T09:35:54.000Z</time>
      </trkpt>
      <trkpt lat="47.48695" lon="6.77489">
        <ele>334</ele>
        <time>2015-11-15T09:35:55.000Z</time>
      </trkpt>
      <trkpt lat="47.48698" lon="6.77487">
        <ele>334</ele>
        <time>2015-11-15T09:35:56.000Z</time>
      </trkpt>
      <trkpt lat="47.48701" lon="6.77492">
        <ele>334</ele>
        <time>2015-11-15T09:36:10.000Z</time>
      </trkpt>
      <trkpt lat="47.48701" lon="6.77492">
        <ele>334</ele>
        <time>2015-11-15T09:36:11.000Z</time>
      </trkpt>
      <trkpt lat="47.48698" lon="6.77489">
        <ele>334</ele>
        <time>2015-11-15T09:36:18.000Z</time>
      </trkpt>
      <trkpt lat="47.48697" lon="6.77489">
        <ele>334</ele>
        <time>2015-11-15T09:36:19.000Z</time>
      </trkpt>
      <trkpt lat="47.48693" lon="6.77486">
        <ele>335</ele>
        <time>2015-11-15T09:36:21.000Z</time>
      </trkpt>
      <trkpt lat="47.48692" lon="6.77485">
        <ele>335</ele>
        <time>2015-11-15T09:36:22.000Z</time>
      </trkpt>
      <trkpt lat="47.48694" lon="6.77485">
        <ele>334</ele>
        <time>2015-11-15T09:36:26.000Z</time>
      </trkpt>
      <trkpt lat="47.48698" lon="6.77486">
        <ele>334</ele>
        <time>2015-11-15T09:36:27.000Z</time>
      </trkpt>
      <trkpt lat="47.48703" lon="6.77487">
        <ele>334</ele>
        <time>2015-11-15T09:36:28.000Z</time>
      </trkpt>
      <trkpt lat="47.48708" lon="6.7749">
        <ele>333</ele>
        <time>2015-11-15T09:36:29.000Z</time>
      </trkpt>
      <trkpt lat="47.48712" lon="6.77493">
        <ele>333</ele>
        <time>2015-11-15T09:36:30.000Z</time>
      </trkpt>
      <trkpt lat="47.48716" lon="6.77497">
        <ele>333</ele>
        <time>2015-11-15T09:36:31.000Z</time>
      </trkpt>
      <trkpt lat="47.48722" lon="6.77503">
        <ele>335</ele>
        <time>2015-11-15T09:36:32.000Z</time>
      </trkpt>
      <trkpt lat="47.48727" lon="6.77506">
        <ele>335</ele>
        <time>2015-11-15T09:36:33.000Z</time>
      </trkpt>
      <trkpt lat="47.48724" lon="6.77506">
        <ele>335</ele>
        <time>2015-11-15T09:36:45.000Z</time>
      </trkpt>
      <trkpt lat="47.48722" lon="6.77503">
        <ele>335</ele>
        <time>2015-11-15T09:36:46.000Z</time>
      </trkpt>
      <trkpt lat="47.48719" lon="6.77499">
        <ele>333</ele>
        <time>2015-11-15T09:36:49.000Z</time>
      </trkpt>
      <trkpt lat="47.48718" lon="6.77498">
        <ele>333</ele>
        <time>2015-11-15T09:36:50.000Z</time>
      </trkpt>
      <trkpt lat="47.48715" lon="6.77496">
        <ele>333</ele>
        <time>2015-11-15T09:36:52.000Z</time>
      </trkpt>
      <trkpt lat="47.48713" lon="6.77495">
        <ele>333</ele>
        <time>2015-11-15T09:36:53.000Z</time>
      </trkpt>
      <trkpt lat="47.48709" lon="6.77493">
        <ele>333</ele>
        <time>2015-11-15T09:36:55.000Z</time>
      </trkpt>
      <trkpt lat="47.48707" lon="6.77493">
        <ele>333</ele>
        <time>2015-11-15T09:36:56.000Z</time>
      </trkpt>
      <trkpt lat="47.48703" lon="6.77494">
        <ele>334</ele>
        <time>2015-11-15T09:36:58.000Z</time>
      </trkpt>
      <trkpt lat="47.48702" lon="6.77494">
        <ele>334</ele>
        <time>2015-11-15T09:36:59.000Z</time>
      </trkpt>
      <trkpt lat="47.48698" lon="6.77491">
        <ele>334</ele>
        <time>2015-11-15T09:37:13.000Z</time>
      </trkpt>
      <trkpt lat="47.48698" lon="6.77491">
        <ele>334</ele>
        <time>2015-11-15T09:37:14.000Z</time>
      </trkpt>
      <trkpt lat="47.48698" lon="6.77485">
        <ele>334</ele>
        <time>2015-11-15T09:37:52.000Z</time>
      </trkpt>
      <trkpt lat="47.48701" lon="6.77482">
        <ele>333</ele>
        <time>2015-11-15T09:37:53.000Z</time>
      </trkpt>
      <trkpt lat="47.48703" lon="6.77481">
        <ele>333</ele>
        <time>2015-11-15T09:37:54.000Z</time>
      </trkpt>
      <trkpt lat="47.48707" lon="6.7748">
        <ele>333</ele>
        <time>2015-11-15T09:37:55.000Z</time>
      </trkpt>
      <trkpt lat="47.48711" lon="6.7748">
        <ele>332</ele>
        <time>2015-11-15T09:37:56.000Z</time>
      </trkpt>
      <trkpt lat="47.48716" lon="6.77482">
        <ele>332</ele>
        <time>2015-11-15T09:37:57.000Z</time>
      </trkpt>
      <trkpt lat="47.48721" lon="6.77485">
        <ele>332</ele>
        <time>2015-11-15T09:37:58.000Z</time>
      </trkpt>
      <trkpt lat="47.48728" lon="6.77497">
        <ele>332</ele>
        <time>2015-11-15T09:37:59.000Z</time>
      </trkpt>
      <trkpt lat="47.48732" lon="6.77499">
        <ele>332</ele>
        <time>2015-11-15T09:38:00.000Z</time>
      </trkpt>
      <trkpt lat="47.48735" lon="6.77503">
        <ele>334</ele>
        <time>2015-11-15T09:38:01.000Z</time>
      </trkpt>
      <trkpt lat="47.48738" lon="6.77506">
        <ele>334</ele>
        <time>2015-11-15T09:38:02.000Z</time>
      </trkpt>
      <trkpt lat="47.48742" lon="6.77507">
        <ele>334</ele>
        <time>2015-11-15T09:38:03.000Z</time>
      </trkpt>
      <trkpt lat="47.48739" lon="6.7751">
        <ele>334</ele>
        <time>2015-11-15T09:38:29.000Z</time>
      </trkpt>
      <trkpt lat="47.48738" lon="6.7751">
        <ele>334</ele>
        <time>2015-11-15T09:38:30.000Z</time>
      </trkpt>
      <trkpt lat="47.48734" lon="6.77509">
        <ele>334</ele>
        <time>2015-11-15T09:38:33.000Z</time>
      </trkpt>
      <trkpt lat="47.48733" lon="6.77508">
        <ele>334</ele>
        <time>2015-11-15T09:38:34.000Z</time>
      </trkpt>
      <trkpt lat="47.4873" lon="6.77505">
        <ele>335</ele>
        <time>2015-11-15T09:38:36.000Z</time>
      </trkpt>
      <trkpt lat="47.48729" lon="6.77504">
        <ele>335</ele>
        <time>2015-11-15T09:38:37.000Z</time>
      </trkpt>
      <trkpt lat="47.48724" lon="6.77506">
        <ele>335</ele>
        <time>2015-11-15T09:38:41.000Z</time>
      </trkpt>
      <trkpt lat="47.48724" lon="6.77507">
        <ele>335</ele>
        <time>2015-11-15T09:38:42.000Z</time>
      </trkpt>
      <trkpt lat="47.48719" lon="6.77508">
        <ele>335</ele>
        <time>2015-11-15T09:38:55.000Z</time>
      </trkpt>
      <trkpt lat="47.48718" lon="6.77507">
        <ele>335</ele>
        <time>2015-11-15T09:38:56.000Z</time>
      </trkpt>
      <trkpt lat="47.48715" lon="6.77505">
        <ele>336</ele>
        <time>2015-11-15T09:38:58.000Z</time>
      </trkpt>
      <trkpt lat="47.48713" lon="6.77504">
        <ele>336</ele>
        <time>2015-11-15T09:38:59.000Z</time>
      </trkpt>
      <trkpt lat="47.4871" lon="6.77503">
        <ele>336</ele>
        <time>2015-11-15T09:39:01.000Z</time>
      </trkpt>
      <trkpt lat="47.48708" lon="6.77502">
        <ele>336</ele>
        <time>2015-11-15T09:39:02.000Z</time>
      </trkpt>
      <trkpt lat="47.48707" lon="6.77496">
        <ele>333</ele>
        <time>2015-11-15T09:39:17.000Z</time>
      </trkpt>
      <trkpt lat="47.48707" lon="6.77495">
        <ele>333</ele>
        <time>2015-11-15T09:39:18.000Z</time>
      </trkpt>
      <trkpt lat="47.48705" lon="6.77492">
        <ele>334</ele>
        <time>2015-11-15T09:40:42.000Z</time>
      </trkpt>
      <trkpt lat="47.48703" lon="6.77491">
        <ele>334</ele>
        <time>2015-11-15T09:40:43.000Z</time>
      </trkpt>
      <trkpt lat="47.48701" lon="6.77491">
        <ele>334</ele>
        <time>2015-11-15T09:40:44.000Z</time>
      </trkpt>
      <trkpt lat="47.48698" lon="6.77491">
        <ele>334</ele>
        <time>2015-11-15T09:40:45.000Z</time>
      </trkpt>
      <trkpt lat="47.48699" lon="6.77487">
        <ele>334</ele>
        <time>2015-11-15T09:41:00.000Z</time>
      </trkpt>
      <trkpt lat="47.48701" lon="6.77486">
        <ele>334</ele>
        <time>2015-11-15T09:41:01.000Z</time>
      </trkpt>
      <trkpt lat="47.48705" lon="6.77484">
        <ele>333</ele>
        <time>2015-11-15T09:41:02.000Z</time>
      </trkpt>
      <trkpt lat="47.48709" lon="6.77483">
        <ele>333</ele>
        <time>2015-11-15T09:41:03.000Z</time>
      </trkpt>
      <trkpt lat="47.48713" lon="6.77483">
        <ele>332</ele>
        <time>2015-11-15T09:41:04.000Z</time>
      </trkpt>
      <trkpt lat="47.48717" lon="6.77484">
        <ele>332</ele>
        <time>2015-11-15T09:41:05.000Z</time>
      </trkpt>
      <trkpt lat="47.48721" lon="6.77486">
        <ele>332</ele>
        <time>2015-11-15T09:41:06.000Z</time>
      </trkpt>
      <trkpt lat="47.48725" lon="6.77489">
        <ele>332</ele>
        <time>2015-11-15T09:41:07.000Z</time>
      </trkpt>
      <trkpt lat="47.48729" lon="6.77493">
        <ele>332</ele>
        <time>2015-11-15T09:41:08.000Z</time>
      </trkpt>
      <trkpt lat="47.48732" lon="6.77496">
        <ele>332</ele>
        <time>2015-11-15T09:41:09.000Z</time>
      </trkpt>
      <trkpt lat="47.48734" lon="6.77499">
        <ele>332</ele>
        <time>2015-11-15T09:41:10.000Z</time>
      </trkpt>
      <trkpt lat="47.48731" lon="6.77503">
        <ele>334</ele>
        <time>2015-11-15T09:41:20.000Z</time>
      </trkpt>
      <trkpt lat="47.48731" lon="6.77503">
        <ele>334</ele>
        <time>2015-11-15T09:41:21.000Z</time>
      </trkpt>
      <trkpt lat="47.48733" lon="6.77507">
        <ele>334</ele>
        <time>2015-11-15T09:42:18.000Z</time>
      </trkpt>
      <trkpt lat="47.48735" lon="6.77508">
        <ele>334</ele>
        <time>2015-11-15T09:42:19.000Z</time>
      </trkpt>
      <trkpt lat="47.48737" lon="6.77509">
        <ele>334</ele>
        <time>2015-11-15T09:42:20.000Z</time>
      </trkpt>
      <trkpt lat="47.4874" lon="6.7751">
        <ele>334</ele>
        <time>2015-11-15T09:42:21.000Z</time>
      </trkpt>
      <trkpt lat="47.48744" lon="6.7751">
        <ele>334</ele>
        <time>2015-11-15T09:42:23.000Z</time>
      </trkpt>
      <trkpt lat="47.48745" lon="6.7751">
        <ele>334</ele>
        <time>2015-11-15T09:42:24.000Z</time>
      </trkpt>
      <trkpt lat="47.48747" lon="6.77506">
        <ele>333</ele>
        <time>2015-11-15T09:42:32.000Z</time>
      </trkpt>
      <trkpt lat="47.48749" lon="6.77506">
        <ele>333</ele>
        <time>2015-11-15T09:42:33.000Z</time>
      </trkpt>
      <trkpt lat="47.48752" lon="6.77508">
        <ele>331</ele>
        <time>2015-11-15T09:42:34.000Z</time>
      </trkpt>
      <trkpt lat="47.48756" lon="6.7751">
        <ele>330</ele>
        <time>2015-11-15T09:42:35.000Z</time>
      </trkpt>
      <trkpt lat="47.48767" lon="6.77519">
        <ele>328</ele>
        <time>2015-11-15T09:42:36.000Z</time>
      </trkpt>
      <trkpt lat="47.48772" lon="6.77522">
        <ele>328</ele>
        <time>2015-11-15T09:42:37.000Z</time>
      </trkpt>
      <trkpt lat="47.48777" lon="6.77525">
        <ele>327</ele>
        <time>2015-11-15T09:42:38.000Z</time>
      </trkpt>
      <trkpt lat="47.48784" lon="6.77527">
        <ele>327</ele>
        <time>2015-11-15T09:42:39.000Z</time>
      </trkpt>
      <trkpt lat="47.4879" lon="6.77531">
        <ele>326</ele>
        <time>2015-11-15T09:42:40.000Z</time>
      </trkpt>
      <trkpt lat="47.48797" lon="6.77535">
        <ele>325</ele>
        <time>2015-11-15T09:42:41.000Z</time>
      </trkpt>
      <trkpt lat="47.48802" lon="6.77543">
        <ele>325</ele>
        <time>2015-11-15T09:42:42.000Z</time>
      </trkpt>
      <trkpt lat="47.48806" lon="6.77546">
        <ele>325</ele>
        <time>2015-11-15T09:42:43.000Z</time>
      </trkpt>
      <trkpt lat="47.48812" lon="6.7755">
        <ele>324</ele>
        <time>2015-11-15T09:42:44.000Z</time>
      </trkpt>
      <trkpt lat="47.48817" lon="6.77554">
        <ele>324</ele>
        <time>2015-11-15T09:42:45.000Z</time>
      </trkpt>
      <trkpt lat="47.48821" lon="6.77559">
        <ele>324</ele>
        <time>2015-11-15T09:42:46.000Z</time>
      </trkpt>
      <trkpt lat="47.48826" lon="6.77564">
        <ele>323</ele>
        <time>2015-11-15T09:42:47.000Z</time>
      </trkpt>
      <trkpt lat="47.48831" lon="6.77568">
        <ele>323</ele>
        <time>2015-11-15T09:42:48.000Z</time>
      </trkpt>
      <trkpt lat="47.48836" lon="6.77572">
        <ele>318</ele>
        <time>2015-11-15T09:42:49.000Z</time>
      </trkpt>
      <trkpt lat="47.48842" lon="6.77578">
        <ele>318</ele>
        <time>2015-11-15T09:42:50.000Z</time>
      </trkpt>
      <trkpt lat="47.48848" lon="6.77583">
        <ele>320</ele>
        <time>2015-11-15T09:42:51.000Z</time>
      </trkpt>
      <trkpt lat="47.48854" lon="6.77589">
        <ele>320</ele>
        <time>2015-11-15T09:42:52.000Z</time>
      </trkpt>
      <trkpt lat="47.48861" lon="6.77593">
        <ele>320</ele>
        <time>2015-11-15T09:42:53.000Z</time>
      </trkpt>
      <trkpt lat="47.48865" lon="6.77599">
        <ele>320</ele>
        <time>2015-11-15T09:42:54.000Z</time>
      </trkpt>
      <trkpt lat="47.4887" lon="6.77602">
        <ele>320</ele>
        <time>2015-11-15T09:42:55.000Z</time>
      </trkpt>
      <trkpt lat="47.48874" lon="6.77607">
        <ele>320</ele>
        <time>2015-11-15T09:42:56.000Z</time>
      </trkpt>
      <trkpt lat="47.48878" lon="6.77611">
        <ele>320</ele>
        <time>2015-11-15T09:42:57.000Z</time>
      </trkpt>
      <trkpt lat="47.48882" lon="6.77616">
        <ele>320</ele>
        <time>2015-11-15T09:42:58.000Z</time>
      </trkpt>
      <trkpt lat="47.48887" lon="6.77621">
        <ele>320</ele>
        <time>2015-11-15T09:42:59.000Z</time>
      </trkpt>
      <trkpt lat="47.4889" lon="6.77625">
        <ele>320</ele>
        <time>2015-11-15T09:43:00.000Z</time>
      </trkpt>
      <trkpt lat="47.48894" lon="6.77629">
        <ele>321</ele>
        <time>2015-11-15T09:43:01.000Z</time>
      </trkpt>
      <trkpt lat="47.48898" lon="6.77633">
        <ele>321</ele>
        <time>2015-11-15T09:43:02.000Z</time>
      </trkpt>
      <trkpt lat="47.48902" lon="6.77638">
        <ele>321</ele>
        <time>2015-11-15T09:43:03.000Z</time>
      </trkpt>
      <trkpt lat="47.48906" lon="6.77642">
        <ele>321</ele>
        <time>2015-11-15T09:43:04.000Z</time>
      </trkpt>
      <trkpt lat="47.48909" lon="6.77646">
        <ele>321</ele>
        <time>2015-11-15T09:43:05.000Z</time>
      </trkpt>
      <trkpt lat="47.48912" lon="6.77651">
        <ele>321</ele>
        <time>2015-11-15T09:43:06.000Z</time>
      </trkpt>
      <trkpt lat="47.48914" lon="6.77656">
        <ele>321</ele>
        <time>2015-11-15T09:43:07.000Z</time>
      </trkpt>
      <trkpt lat="47.48913" lon="6.77661">
        <ele>321</ele>
        <time>2015-11-15T09:43:08.000Z</time>
      </trkpt>
      <trkpt lat="47.48912" lon="6.77665">
        <ele>321</ele>
        <time>2015-11-15T09:43:09.000Z</time>
      </trkpt>
      <trkpt lat="47.48909" lon="6.77664">
        <ele>321</ele>
        <time>2015-11-15T09:43:12.000Z</time>
      </trkpt>
      <trkpt lat="47.48907" lon="6.77664">
        <ele>321</ele>
        <time>2015-11-15T09:43:13.000Z</time>
      </trkpt>
      <trkpt lat="47.48904" lon="6.77664">
        <ele>321</ele>
        <time>2015-11-15T09:43:15.000Z</time>
      </trkpt>
      <trkpt lat="47.48902" lon="6.77663">
        <ele>321</ele>
        <time>2015-11-15T09:43:16.000Z</time>
      </trkpt>
      <trkpt lat="47.48899" lon="6.77661">
        <ele>321</ele>
        <time>2015-11-15T09:43:30.000Z</time>
      </trkpt>
      <trkpt lat="47.48898" lon="6.7766">
        <ele>321</ele>
        <time>2015-11-15T09:43:31.000Z</time>
      </trkpt>
      <trkpt lat="47.48901" lon="6.7766">
        <ele>321</ele>
        <time>2015-11-15T09:43:41.000Z</time>
      </trkpt>
      <trkpt lat="47.48902" lon="6.77659">
        <ele>321</ele>
        <time>2015-11-15T09:43:42.000Z</time>
      </trkpt>
      <trkpt lat="47.48904" lon="6.77653">
        <ele>321</ele>
        <time>2015-11-15T09:43:45.000Z</time>
      </trkpt>
      <trkpt lat="47.48905" lon="6.77651">
        <ele>321</ele>
        <time>2015-11-15T09:43:46.000Z</time>
      </trkpt>
      <trkpt lat="47.48905" lon="6.77647">
        <ele>321</ele>
        <time>2015-11-15T09:43:48.000Z</time>
      </trkpt>
      <trkpt lat="47.48906" lon="6.77644">
        <ele>321</ele>
        <time>2015-11-15T09:43:49.000Z</time>
      </trkpt>
      <trkpt lat="47.48907" lon="6.77639">
        <ele>321</ele>
        <time>2015-11-15T09:43:51.000Z</time>
      </trkpt>
      <trkpt lat="47.48907" lon="6.77637">
        <ele>321</ele>
        <time>2015-11-15T09:43:52.000Z</time>
      </trkpt>
      <trkpt lat="47.48909" lon="6.77633">
        <ele>320</ele>
        <time>2015-11-15T09:43:55.000Z</time>
      </trkpt>
      <trkpt lat="47.48909" lon="6.77631">
        <ele>320</ele>
        <time>2015-11-15T09:43:56.000Z</time>
      </trkpt>
      <trkpt lat="47.4891" lon="6.77626">
        <ele>320</ele>
        <time>2015-11-15T09:44:11.000Z</time>
      </trkpt>
      <trkpt lat="47.4891" lon="6.77624">
        <ele>320</ele>
        <time>2015-11-15T09:44:12.000Z</time>
      </trkpt>
      <trkpt lat="47.48912" lon="6.77618">
        <ele>320</ele>
        <time>2015-11-15T09:44:30.000Z</time>
      </trkpt>
      <trkpt lat="47.48912" lon="6.77618">
        <ele>319</ele>
        <time>2015-11-15T09:44:31.000Z</time>
      </trkpt>
      <trkpt lat="47.48914" lon="6.77613">
        <ele>319</ele>
        <time>2015-11-15T09:44:35.000Z</time>
      </trkpt>
      <trkpt lat="47.48915" lon="6.77612">
        <ele>319</ele>
        <time>2015-11-15T09:44:36.000Z</time>
      </trkpt>
      <trkpt lat="47.48916" lon="6.77608">
        <ele>319</ele>
        <time>2015-11-15T09:44:38.000Z</time>
      </trkpt>
      <trkpt lat="47.48917" lon="6.77606">
        <ele>316</ele>
        <time>2015-11-15T09:44:39.000Z</time>
      </trkpt>
      <trkpt lat="47.48919" lon="6.77603">
        <ele>316</ele>
        <time>2015-11-15T09:44:40.000Z</time>
      </trkpt>
      <trkpt lat="47.48922" lon="6.776">
        <ele>316</ele>
        <time>2015-11-15T09:44:41.000Z</time>
      </trkpt>
      <trkpt lat="47.48931" lon="6.77595">
        <ele>316</ele>
        <time>2015-11-15T09:44:42.000Z</time>
      </trkpt>
      <trkpt lat="47.48936" lon="6.77594">
        <ele>316</ele>
        <time>2015-11-15T09:44:43.000Z</time>
      </trkpt>
      <trkpt lat="47.48941" lon="6.77591">
        <ele>316</ele>
        <time>2015-11-15T09:44:44.000Z</time>
      </trkpt>
      <trkpt lat="47.48946" lon="6.77585">
        <ele>315</ele>
        <time>2015-11-15T09:44:45.000Z</time>
      </trkpt>
      <trkpt lat="47.48948" lon="6.77579">
        <ele>314</ele>
        <time>2015-11-15T09:44:46.000Z</time>
      </trkpt>
      <trkpt lat="47.48951" lon="6.77574">
        <ele>314</ele>
        <time>2015-11-15T09:44:47.000Z</time>
      </trkpt>
      <trkpt lat="47.48954" lon="6.77573">
        <ele>314</ele>
        <time>2015-11-15T09:44:49.000Z</time>
      </trkpt>
      <trkpt lat="47.48955" lon="6.77571">
        <ele>314</ele>
        <time>2015-11-15T09:44:50.000Z</time>
      </trkpt>
      <trkpt lat="47.48958" lon="6.77568">
        <ele>313</ele>
        <time>2015-11-15T09:44:52.000Z</time>
      </trkpt>
      <trkpt lat="47.48961" lon="6.77567">
        <ele>313</ele>
        <time>2015-11-15T09:44:53.000Z</time>
      </trkpt>
      <trkpt lat="47.48964" lon="6.77564">
        <ele>313</ele>
        <time>2015-11-15T09:44:55.000Z</time>
      </trkpt>
      <trkpt lat="47.48966" lon="6.77562">
        <ele>313</ele>
        <time>2015-11-15T09:44:56.000Z</time>
      </trkpt>
      <trkpt lat="47.48968" lon="6.7756">
        <ele>313</ele>
        <time>2015-11-15T09:44:57.000Z</time>
      </trkpt>
      <trkpt lat="47.48971" lon="6.77557">
        <ele>313</ele>
        <time>2015-11-15T09:44:58.000Z</time>
      </trkpt>
      <trkpt lat="47.48974" lon="6.77555">
        <ele>313</ele>
        <time>2015-11-15T09:44:59.000Z</time>
      </trkpt>
      <trkpt lat="47.48977" lon="6.77553">
        <ele>313</ele>
        <time>2015-11-15T09:45:00.000Z</time>
      </trkpt>
      <trkpt lat="47.4898" lon="6.77551">
        <ele>313</ele>
        <time>2015-11-15T09:45:01.000Z</time>
      </trkpt>
      <trkpt lat="47.48983" lon="6.77549">
        <ele>313</ele>
        <time>2015-11-15T09:45:02.000Z</time>
      </trkpt>
      <trkpt lat="47.48987" lon="6.77546">
        <ele>313</ele>
        <time>2015-11-15T09:45:03.000Z</time>
      </trkpt>
      <trkpt lat="47.4899" lon="6.77543">
        <ele>313</ele>
        <time>2015-11-15T09:45:04.000Z</time>
      </trkpt>
      <trkpt lat="47.48993" lon="6.77539">
        <ele>313</ele>
        <time>2015-11-15T09:45:05.000Z</time>
      </trkpt>
      <trkpt lat="47.48997" lon="6.77535">
        <ele>313</ele>
        <time>2015-11-15T09:45:06.000Z</time>
      </trkpt>
      <trkpt lat="47.49001" lon="6.77532">
        <ele>312</ele>
        <time>2015-11-15T09:45:07.000Z</time>
      </trkpt>
      <trkpt lat="47.49004" lon="6.77527">
        <ele>311</ele>
        <time>2015-11-15T09:45:08.000Z</time>
      </trkpt>
      <trkpt lat="47.49005" lon="6.77516">
        <ele>311</ele>
        <time>2015-11-15T09:45:09.000Z</time>
      </trkpt>
      <trkpt lat="47.49006" lon="6.77507">
        <ele>311</ele>
        <time>2015-11-15T09:45:10.000Z</time>
      </trkpt>
      <trkpt lat="47.49006" lon="6.77497">
        <ele>311</ele>
        <time>2015-11-15T09:45:11.000Z</time>
      </trkpt>
      <trkpt lat="47.49007" lon="6.77488">
        <ele>311</ele>
        <time>2015-11-15T09:45:12.000Z</time>
      </trkpt>
      <trkpt lat="47.49008" lon="6.77479">
        <ele>311</ele>
        <time>2015-11-15T09:45:13.000Z</time>
      </trkpt>
      <trkpt lat="47.49009" lon="6.77471">
        <ele>310</ele>
        <time>2015-11-15T09:45:14.000Z</time>
      </trkpt>
      <trkpt lat="47.49011" lon="6.77464">
        <ele>310</ele>
        <time>2015-11-15T09:45:15.000Z</time>
      </trkpt>
      <trkpt lat="47.49015" lon="6.77458">
        <ele>310</ele>
        <time>2015-11-15T09:45:16.000Z</time>
      </trkpt>
      <trkpt lat="47.49018" lon="6.77452">
        <ele>310</ele>
        <time>2015-11-15T09:45:17.000Z</time>
      </trkpt>
      <trkpt lat="47.49023" lon="6.77447">
        <ele>310</ele>
        <time>2015-11-15T09:45:18.000Z</time>
      </trkpt>
      <trkpt lat="47.49027" lon="6.77444">
        <ele>310</ele>
        <time>2015-11-15T09:45:19.000Z</time>
      </trkpt>
      <trkpt lat="47.49033" lon="6.7744">
        <ele>310</ele>
        <time>2015-11-15T09:45:20.000Z</time>
      </trkpt>
      <trkpt lat="47.49038" lon="6.77437">
        <ele>310</ele>
        <time>2015-11-15T09:45:21.000Z</time>
      </trkpt>
      <trkpt lat="47.49043" lon="6.77434">
        <ele>310</ele>
        <time>2015-11-15T09:45:22.000Z</time>
      </trkpt>
      <trkpt lat="47.49049" lon="6.77432">
        <ele>310</ele>
        <time>2015-11-15T09:45:23.000Z</time>
      </trkpt>
      <trkpt lat="47.49053" lon="6.77429">
        <ele>310</ele>
        <time>2015-11-15T09:45:24.000Z</time>
      </trkpt>
      <trkpt lat="47.49058" lon="6.77427">
        <ele>310</ele>
        <time>2015-11-15T09:45:25.000Z</time>
      </trkpt>
      <trkpt lat="47.49063" lon="6.77425">
        <ele>310</ele>
        <time>2015-11-15T09:45:26.000Z</time>
      </trkpt>
      <trkpt lat="47.49068" lon="6.77423">
        <ele>310</ele>
        <time>2015-11-15T09:45:27.000Z</time>
      </trkpt>
      <trkpt lat="47.49072" lon="6.77421">
        <ele>310</ele>
        <time>2015-11-15T09:45:28.000Z</time>
      </trkpt>
      <trkpt lat="47.49077" lon="6.77419">
        <ele>310</ele>
        <time>2015-11-15T09:45:29.000Z</time>
      </trkpt>
      <trkpt lat="47.49083" lon="6.77419">
        <ele>310</ele>
        <time>2015-11-15T09:45:30.000Z</time>
      </trkpt>
      <trkpt lat="47.49087" lon="6.77415">
        <ele>310</ele>
        <time>2015-11-15T09:45:31.000Z</time>
      </trkpt>
      <trkpt lat="47.49092" lon="6.77411">
        <ele>310</ele>
        <time>2015-11-15T09:45:32.000Z</time>
      </trkpt>
      <trkpt lat="47.49097" lon="6.77409">
        <ele>310</ele>
        <time>2015-11-15T09:45:33.000Z</time>
      </trkpt>
      <trkpt lat="47.49101" lon="6.77406">
        <ele>310</ele>
        <time>2015-11-15T09:45:34.000Z</time>
      </trkpt>
      <trkpt lat="47.49105" lon="6.77402">
        <ele>310</ele>
        <time>2015-11-15T09:45:35.000Z</time>
      </trkpt>
      <trkpt lat="47.49109" lon="6.77398">
        <ele>310</ele>
        <time>2015-11-15T09:45:36.000Z</time>
      </trkpt>
      <trkpt lat="47.49113" lon="6.77394">
        <ele>310</ele>
        <time>2015-11-15T09:45:37.000Z</time>
      </trkpt>
      <trkpt lat="47.49117" lon="6.77389">
        <ele>310</ele>
        <time>2015-11-15T09:45:38.000Z</time>
      </trkpt>
      <trkpt lat="47.49121" lon="6.77386">
        <ele>310</ele>
        <time>2015-11-15T09:45:39.000Z</time>
      </trkpt>
      <trkpt lat="47.49126" lon="6.77385">
        <ele>310</ele>
        <time>2015-11-15T09:45:40.000Z</time>
      </trkpt>
      <trkpt lat="47.49129" lon="6.77382">
        <ele>310</ele>
        <time>2015-11-15T09:45:41.000Z</time>
      </trkpt>
      <trkpt lat="47.49133" lon="6.77378">
        <ele>310</ele>
        <time>2015-11-15T09:45:42.000Z</time>
      </trkpt>
      <trkpt lat="47.49136" lon="6.77375">
        <ele>310</ele>
        <time>2015-11-15T09:45:43.000Z</time>
      </trkpt>
      <trkpt lat="47.49139" lon="6.77371">
        <ele>310</ele>
        <time>2015-11-15T09:45:44.000Z</time>
      </trkpt>
      <trkpt lat="47.49143" lon="6.77367">
        <ele>310</ele>
        <time>2015-11-15T09:45:45.000Z</time>
      </trkpt>
      <trkpt lat="47.49146" lon="6.77364">
        <ele>310</ele>
        <time>2015-11-15T09:45:46.000Z</time>
      </trkpt>
      <trkpt lat="47.49149" lon="6.77361">
        <ele>310</ele>
        <time>2015-11-15T09:45:47.000Z</time>
      </trkpt>
      <trkpt lat="47.49152" lon="6.77356">
        <ele>310</ele>
        <time>2015-11-15T09:45:48.000Z</time>
      </trkpt>
      <trkpt lat="47.49156" lon="6.77352">
        <ele>310</ele>
        <time>2015-11-15T09:45:49.000Z</time>
      </trkpt>
      <trkpt lat="47.4916" lon="6.77348">
        <ele>310</ele>
        <time>2015-11-15T09:45:50.000Z</time>
      </trkpt>
      <trkpt lat="47.49164" lon="6.77345">
        <ele>310</ele>
        <time>2015-11-15T09:45:51.000Z</time>
      </trkpt>
      <trkpt lat="47.49169" lon="6.77343">
        <ele>310</ele>
        <time>2015-11-15T09:45:52.000Z</time>
      </trkpt>
      <trkpt lat="47.49174" lon="6.77342">
        <ele>310</ele>
        <time>2015-11-15T09:45:53.000Z</time>
      </trkpt>
      <trkpt lat="47.49179" lon="6.77341">
        <ele>310</ele>
        <time>2015-11-15T09:45:54.000Z</time>
      </trkpt>
      <trkpt lat="47.49184" lon="6.7734">
        <ele>310</ele>
        <time>2015-11-15T09:45:55.000Z</time>
      </trkpt>
      <trkpt lat="47.49188" lon="6.77339">
        <ele>309</ele>
        <time>2015-11-15T09:45:56.000Z</time>
      </trkpt>
      <trkpt lat="47.49192" lon="6.77338">
        <ele>309</ele>
        <time>2015-11-15T09:45:57.000Z</time>
      </trkpt>
      <trkpt lat="47.49194" lon="6.77334">
        <ele>309</ele>
        <time>2015-11-15T09:45:58.000Z</time>
      </trkpt>
      <trkpt lat="47.49195" lon="6.77331">
        <ele>310</ele>
        <time>2015-11-15T09:45:59.000Z</time>
      </trkpt>
      <trkpt lat="47.49195" lon="6.77328">
        <ele>310</ele>
        <time>2015-11-15T09:46:00.000Z</time>
      </trkpt>
      <trkpt lat="47.49191" lon="6.77327">
        <ele>310</ele>
        <time>2015-11-15T09:46:01.000Z</time>
      </trkpt>
      <trkpt lat="47.49187" lon="6.77326">
        <ele>310</ele>
        <time>2015-11-15T09:46:02.000Z</time>
      </trkpt>
      <trkpt lat="47.49184" lon="6.77323">
        <ele>310</ele>
        <time>2015-11-15T09:46:03.000Z</time>
      </trkpt>
      <trkpt lat="47.49183" lon="6.77316">
        <ele>310</ele>
        <time>2015-11-15T09:46:04.000Z</time>
      </trkpt>
      <trkpt lat="47.49183" lon="6.77309">
        <ele>311</ele>
        <time>2015-11-15T09:46:05.000Z</time>
      </trkpt>
      <trkpt lat="47.49184" lon="6.77301">
        <ele>311</ele>
        <time>2015-11-15T09:46:06.000Z</time>
      </trkpt>
      <trkpt lat="47.49185" lon="6.77293">
        <ele>311</ele>
        <time>2015-11-15T09:46:07.000Z</time>
      </trkpt>
      <trkpt lat="47.49185" lon="6.77285">
        <ele>311</ele>
        <time>2015-11-15T09:46:08.000Z</time>
      </trkpt>
      <trkpt lat="47.49186" lon="6.77277">
        <ele>311</ele>
        <time>2015-11-15T09:46:09.000Z</time>
      </trkpt>
      <trkpt lat="47.49186" lon="6.7727">
        <ele>311</ele>
        <time>2015-11-15T09:46:10.000Z</time>
      </trkpt>
      <trkpt lat="47.49187" lon="6.77262">
        <ele>311</ele>
        <time>2015-11-15T09:46:11.000Z</time>
      </trkpt>
      <trkpt lat="47.49187" lon="6.77255">
        <ele>311</ele>
        <time>2015-11-15T09:46:12.000Z</time>
      </trkpt>
      <trkpt lat="47.49187" lon="6.77249">
        <ele>312</ele>
        <time>2015-11-15T09:46:13.000Z</time>
      </trkpt>
      <trkpt lat="47.49187" lon="6.77243">
        <ele>312</ele>
        <time>2015-11-15T09:46:14.000Z</time>
      </trkpt>
      <trkpt lat="47.49186" lon="6.77238">
        <ele>312</ele>
        <time>2015-11-15T09:46:15.000Z</time>
      </trkpt>
      <trkpt lat="47.49185" lon="6.77231">
        <ele>312</ele>
        <time>2015-11-15T09:46:16.000Z</time>
      </trkpt>
      <trkpt lat="47.49184" lon="6.77224">
        <ele>312</ele>
        <time>2015-11-15T09:46:17.000Z</time>
      </trkpt>
      <trkpt lat="47.49185" lon="6.77218">
        <ele>312</ele>
        <time>2015-11-15T09:46:18.000Z</time>
      </trkpt>
      <trkpt lat="47.49185" lon="6.77211">
        <ele>312</ele>
        <time>2015-11-15T09:46:19.000Z</time>
      </trkpt>
      <trkpt lat="47.49185" lon="6.77205">
        <ele>312</ele>
        <time>2015-11-15T09:46:20.000Z</time>
      </trkpt>
      <trkpt lat="47.49186" lon="6.77198">
        <ele>312</ele>
        <time>2015-11-15T09:46:21.000Z</time>
      </trkpt>
      <trkpt lat="47.49186" lon="6.77192">
        <ele>312</ele>
        <time>2015-11-15T09:46:22.000Z</time>
      </trkpt>
      <trkpt lat="47.49186" lon="6.77186">
        <ele>313</ele>
        <time>2015-11-15T09:46:23.000Z</time>
      </trkpt>
      <trkpt lat="47.49185" lon="6.77179">
        <ele>313</ele>
        <time>2015-11-15T09:46:24.000Z</time>
      </trkpt>
      <trkpt lat="47.49186" lon="6.77173">
        <ele>313</ele>
        <time>2015-11-15T09:46:25.000Z</time>
      </trkpt>
      <trkpt lat="47.49187" lon="6.77167">
        <ele>313</ele>
        <time>2015-11-15T09:46:26.000Z</time>
      </trkpt>
      <trkpt lat="47.49187" lon="6.77161">
        <ele>313</ele>
        <time>2015-11-15T09:46:27.000Z</time>
      </trkpt>
      <trkpt lat="47.49187" lon="6.77155">
        <ele>313</ele>
        <time>2015-11-15T09:46:28.000Z</time>
      </trkpt>
      <trkpt lat="47.49188" lon="6.77151">
        <ele>313</ele>
        <time>2015-11-15T09:46:29.000Z</time>
      </trkpt>
      <trkpt lat="47.49188" lon="6.77146">
        <ele>313</ele>
        <time>2015-11-15T09:46:30.000Z</time>
      </trkpt>
      <trkpt lat="47.49188" lon="6.77142">
        <ele>313</ele>
        <time>2015-11-15T09:46:31.000Z</time>
      </trkpt>
      <trkpt lat="47.49188" lon="6.77138">
        <ele>313</ele>
        <time>2015-11-15T09:46:32.000Z</time>
      </trkpt>
      <trkpt lat="47.49187" lon="6.77134">
        <ele>313</ele>
        <time>2015-11-15T09:46:33.000Z</time>
      </trkpt>
      <trkpt lat="47.49187" lon="6.7713">
        <ele>313</ele>
        <time>2015-11-15T09:46:34.000Z</time>
      </trkpt>
      <trkpt lat="47.49186" lon="6.77126">
        <ele>313</ele>
        <time>2015-11-15T09:46:35.000Z</time>
      </trkpt>
      <trkpt lat="47.49184" lon="6.77122">
        <ele>313</ele>
        <time>2015-11-15T09:46:36.000Z</time>
      </trkpt>
      <trkpt lat="47.49181" lon="6.77117">
        <ele>313</ele>
        <time>2015-11-15T09:46:37.000Z</time>
      </trkpt>
      <trkpt lat="47.49179" lon="6.77112">
        <ele>313</ele>
        <time>2015-11-15T09:46:38.000Z</time>
      </trkpt>
      <trkpt lat="47.49176" lon="6.77107">
        <ele>313</ele>
        <time>2015-11-15T09:46:39.000Z</time>
      </trkpt>
      <trkpt lat="47.49174" lon="6.77101">
        <ele>312</ele>
        <time>2015-11-15T09:46:40.000Z</time>
      </trkpt>
      <trkpt lat="47.49172" lon="6.77094">
        <ele>312</ele>
        <time>2015-11-15T09:46:41.000Z</time>
      </trkpt>
      <trkpt lat="47.4917" lon="6.77088">
        <ele>312</ele>
        <time>2015-11-15T09:46:42.000Z</time>
      </trkpt>
      <trkpt lat="47.49169" lon="6.77081">
        <ele>312</ele>
        <time>2015-11-15T09:46:43.000Z</time>
      </trkpt>
      <trkpt lat="47.49168" lon="6.77075">
        <ele>312</ele>
        <time>2015-11-15T09:46:44.000Z</time>
      </trkpt>
      <trkpt lat="47.49166" lon="6.77069">
        <ele>312</ele>
        <time>2015-11-15T09:46:45.000Z</time>
      </trkpt>
      <trkpt lat="47.49165" lon="6.77062">
        <ele>312</ele>
        <time>2015-11-15T09:46:46.000Z</time>
      </trkpt>
      <trkpt lat="47.49164" lon="6.77055">
        <ele>312</ele>
        <time>2015-11-15T09:46:47.000Z</time>
      </trkpt>
      <trkpt lat="47.49163" lon="6.77049">
        <ele>312</ele>
        <time>2015-11-15T09:46:48.000Z</time>
      </trkpt>
      <trkpt lat="47.49163" lon="6.77044">
        <ele>312</ele>
        <time>2015-11-15T09:46:49.000Z</time>
      </trkpt>
      <trkpt lat="47.49162" lon="6.77038">
        <ele>312</ele>
        <time>2015-11-15T09:46:50.000Z</time>
      </trkpt>
      <trkpt lat="47.49161" lon="6.77032">
        <ele>312</ele>
        <time>2015-11-15T09:46:51.000Z</time>
      </trkpt>
      <trkpt lat="47.49159" lon="6.77026">
        <ele>312</ele>
        <time>2015-11-15T09:46:52.000Z</time>
      </trkpt>
      <trkpt lat="47.49157" lon="6.77021">
        <ele>312</ele>
        <time>2015-11-15T09:46:53.000Z</time>
      </trkpt>
      <trkpt lat="47.49153" lon="6.77018">
        <ele>312</ele>
        <time>2015-11-15T09:46:54.000Z</time>
      </trkpt>
      <trkpt lat="47.4915" lon="6.77015">
        <ele>312</ele>
        <time>2015-11-15T09:46:55.000Z</time>
      </trkpt>
      <trkpt lat="47.49146" lon="6.77015">
        <ele>312</ele>
        <time>2015-11-15T09:46:56.000Z</time>
      </trkpt>
      <trkpt lat="47.49142" lon="6.77015">
        <ele>312</ele>
        <time>2015-11-15T09:46:57.000Z</time>
      </trkpt>
      <trkpt lat="47.49139" lon="6.77014">
        <ele>312</ele>
        <time>2015-11-15T09:46:58.000Z</time>
      </trkpt>
      <trkpt lat="47.49136" lon="6.77014">
        <ele>312</ele>
        <time>2015-11-15T09:46:59.000Z</time>
      </trkpt>
      <trkpt lat="47.49133" lon="6.77014">
        <ele>312</ele>
        <time>2015-11-15T09:47:00.000Z</time>
      </trkpt>
      <trkpt lat="47.4913" lon="6.77013">
        <ele>312</ele>
        <time>2015-11-15T09:47:01.000Z</time>
      </trkpt>
      <trkpt lat="47.49124" lon="6.77014">
        <ele>312</ele>
        <time>2015-11-15T09:47:02.000Z</time>
      </trkpt>
      <trkpt lat="47.49119" lon="6.77013">
        <ele>312</ele>
        <time>2015-11-15T09:47:03.000Z</time>
      </trkpt>
      <trkpt lat="47.49114" lon="6.77012">
        <ele>312</ele>
        <time>2015-11-15T09:47:04.000Z</time>
      </trkpt>
      <trkpt lat="47.49109" lon="6.7701">
        <ele>312</ele>
        <time>2015-11-15T09:47:05.000Z</time>
      </trkpt>
      <trkpt lat="47.49105" lon="6.77004">
        <ele>311</ele>
        <time>2015-11-15T09:47:06.000Z</time>
      </trkpt>
      <trkpt lat="47.49102" lon="6.76998">
        <ele>311</ele>
        <time>2015-11-15T09:47:07.000Z</time>
      </trkpt>
      <trkpt lat="47.49099" lon="6.76991">
        <ele>311</ele>
        <time>2015-11-15T09:47:08.000Z</time>
      </trkpt>
      <trkpt lat="47.49098" lon="6.76984">
        <ele>311</ele>
        <time>2015-11-15T09:47:09.000Z</time>
      </trkpt>
      <trkpt lat="47.49097" lon="6.76976">
        <ele>311</ele>
        <time>2015-11-15T09:47:10.000Z</time>
      </trkpt>
      <trkpt lat="47.49097" lon="6.76969">
        <ele>311</ele>
        <time>2015-11-15T09:47:11.000Z</time>
      </trkpt>
      <trkpt lat="47.49096" lon="6.76961">
        <ele>312</ele>
        <time>2015-11-15T09:47:12.000Z</time>
      </trkpt>
      <trkpt lat="47.49096" lon="6.76954">
        <ele>312</ele>
        <time>2015-11-15T09:47:13.000Z</time>
      </trkpt>
      <trkpt lat="47.49096" lon="6.76946">
        <ele>312</ele>
        <time>2015-11-15T09:47:14.000Z</time>
      </trkpt>
      <trkpt lat="47.49095" lon="6.76939">
        <ele>311</ele>
        <time>2015-11-15T09:47:15.000Z</time>
      </trkpt>
      <trkpt lat="47.49094" lon="6.76931">
        <ele>311</ele>
        <time>2015-11-15T09:47:16.000Z</time>
      </trkpt>
      <trkpt lat="47.49094" lon="6.76924">
        <ele>311</ele>
        <time>2015-11-15T09:47:17.000Z</time>
      </trkpt>
      <trkpt lat="47.49093" lon="6.76916">
        <ele>311</ele>
        <time>2015-11-15T09:47:18.000Z</time>
      </trkpt>
      <trkpt lat="47.49092" lon="6.76909">
        <ele>311</ele>
        <time>2015-11-15T09:47:19.000Z</time>
      </trkpt>
      <trkpt lat="47.49091" lon="6.76902">
        <ele>311</ele>
        <time>2015-11-15T09:47:20.000Z</time>
      </trkpt>
      <trkpt lat="47.4909" lon="6.76894">
        <ele>312</ele>
        <time>2015-11-15T09:47:21.000Z</time>
      </trkpt>
      <trkpt lat="47.49089" lon="6.76886">
        <ele>312</ele>
        <time>2015-11-15T09:47:22.000Z</time>
      </trkpt>
      <trkpt lat="47.49087" lon="6.76879">
        <ele>312</ele>
        <time>2015-11-15T09:47:23.000Z</time>
      </trkpt>
      <trkpt lat="47.49085" lon="6.76872">
        <ele>312</ele>
        <time>2015-11-15T09:47:24.000Z</time>
      </trkpt>
      <trkpt lat="47.49084" lon="6.76865">
        <ele>312</ele>
        <time>2015-11-15T09:47:25.000Z</time>
      </trkpt>
      <trkpt lat="47.49081" lon="6.76859">
        <ele>311</ele>
        <time>2015-11-15T09:47:26.000Z</time>
      </trkpt>
      <trkpt lat="47.49079" lon="6.76852">
        <ele>311</ele>
        <time>2015-11-15T09:47:27.000Z</time>
      </trkpt>
      <trkpt lat="47.49076" lon="6.76846">
        <ele>311</ele>
        <time>2015-11-15T09:47:28.000Z</time>
      </trkpt>
      <trkpt lat="47.49073" lon="6.76841">
        <ele>311</ele>
        <time>2015-11-15T09:47:29.000Z</time>
      </trkpt>
      <trkpt lat="47.49069" lon="6.76836">
        <ele>311</ele>
        <time>2015-11-15T09:47:30.000Z</time>
      </trkpt>
      <trkpt lat="47.49065" lon="6.76831">
        <ele>311</ele>
        <time>2015-11-15T09:47:31.000Z</time>
      </trkpt>
      <trkpt lat="47.49061" lon="6.76827">
        <ele>311</ele>
        <time>2015-11-15T09:47:32.000Z</time>
      </trkpt>
      <trkpt lat="47.49057" lon="6.76822">
        <ele>312</ele>
        <time>2015-11-15T09:47:33.000Z</time>
      </trkpt>
      <trkpt lat="47.49052" lon="6.76817">
        <ele>312</ele>
        <time>2015-11-15T09:47:34.000Z</time>
      </trkpt>
      <trkpt lat="47.49049" lon="6.76812">
        <ele>312</ele>
        <time>2015-11-15T09:47:35.000Z</time>
      </trkpt>
      <trkpt lat="47.49046" lon="6.76805">
        <ele>312</ele>
        <time>2015-11-15T09:47:36.000Z</time>
      </trkpt>
      <trkpt lat="47.49044" lon="6.76798">
        <ele>312</ele>
        <time>2015-11-15T09:47:37.000Z</time>
      </trkpt>
      <trkpt lat="47.49043" lon="6.76792">
        <ele>312</ele>
        <time>2015-11-15T09:47:38.000Z</time>
      </trkpt>
      <trkpt lat="47.49043" lon="6.76787">
        <ele>312</ele>
        <time>2015-11-15T09:47:39.000Z</time>
      </trkpt>
      <trkpt lat="47.49043" lon="6.76782">
        <ele>312</ele>
        <time>2015-11-15T09:47:40.000Z</time>
      </trkpt>
      <trkpt lat="47.49044" lon="6.76778">
        <ele>312</ele>
        <time>2015-11-15T09:47:41.000Z</time>
      </trkpt>
      <trkpt lat="47.49044" lon="6.76774">
        <ele>312</ele>
        <time>2015-11-15T09:47:42.000Z</time>
      </trkpt>
      <trkpt lat="47.49044" lon="6.76769">
        <ele>312</ele>
        <time>2015-11-15T09:47:43.000Z</time>
      </trkpt>
      <trkpt lat="47.49045" lon="6.76764">
        <ele>312</ele>
        <time>2015-11-15T09:47:44.000Z</time>
      </trkpt>
      <trkpt lat="47.49045" lon="6.76759">
        <ele>312</ele>
        <time>2015-11-15T09:47:45.000Z</time>
      </trkpt>
      <trkpt lat="47.49046" lon="6.76754">
        <ele>312</ele>
        <time>2015-11-15T09:47:46.000Z</time>
      </trkpt>
      <trkpt lat="47.49047" lon="6.76749">
        <ele>313</ele>
        <time>2015-11-15T09:47:47.000Z</time>
      </trkpt>
      <trkpt lat="47.49048" lon="6.76744">
        <ele>313</ele>
        <time>2015-11-15T09:47:48.000Z</time>
      </trkpt>
      <trkpt lat="47.4905" lon="6.76738">
        <ele>313</ele>
        <time>2015-11-15T09:47:49.000Z</time>
      </trkpt>
      <trkpt lat="47.49051" lon="6.76732">
        <ele>313</ele>
        <time>2015-11-15T09:47:50.000Z</time>
      </trkpt>
      <trkpt lat="47.49053" lon="6.76726">
        <ele>313</ele>
        <time>2015-11-15T09:47:51.000Z</time>
      </trkpt>
      <trkpt lat="47.49056" lon="6.76718">
        <ele>313</ele>
        <time>2015-11-15T09:47:52.000Z</time>
      </trkpt>
      <trkpt lat="47.49058" lon="6.76712">
        <ele>313</ele>
        <time>2015-11-15T09:47:53.000Z</time>
      </trkpt>
      <trkpt lat="47.4906" lon="6.76705">
        <ele>313</ele>
        <time>2015-11-15T09:47:54.000Z</time>
      </trkpt>
      <trkpt lat="47.49061" lon="6.76698">
        <ele>314</ele>
        <time>2015-11-15T09:47:55.000Z</time>
      </trkpt>
      <trkpt lat="47.49063" lon="6.76691">
        <ele>314</ele>
        <time>2015-11-15T09:47:56.000Z</time>
      </trkpt>
      <trkpt lat="47.49065" lon="6.76684">
        <ele>314</ele>
        <time>2015-11-15T09:47:57.000Z</time>
      </trkpt>
      <trkpt lat="47.49067" lon="6.76677">
        <ele>314</ele>
        <time>2015-11-15T09:47:58.000Z</time>
      </trkpt>
      <trkpt lat="47.4907" lon="6.76671">
        <ele>314</ele>
        <time>2015-11-15T09:47:59.000Z</time>
      </trkpt>
      <trkpt lat="47.49071" lon="6.76665">
        <ele>316</ele>
        <time>2015-11-15T09:48:00.000Z</time>
      </trkpt>
      <trkpt lat="47.49073" lon="6.76657">
        <ele>316</ele>
        <time>2015-11-15T09:48:01.000Z</time>
      </trkpt>
      <trkpt lat="47.49075" lon="6.76652">
        <ele>316</ele>
        <time>2015-11-15T09:48:02.000Z</time>
      </trkpt>
      <trkpt lat="47.49077" lon="6.76644">
        <ele>317</ele>
        <time>2015-11-15T09:48:03.000Z</time>
      </trkpt>
      <trkpt lat="47.49079" lon="6.76637">
        <ele>317</ele>
        <time>2015-11-15T09:48:04.000Z</time>
      </trkpt>
      <trkpt lat="47.49081" lon="6.7663">
        <ele>318</ele>
        <time>2015-11-15T09:48:05.000Z</time>
      </trkpt>
      <trkpt lat="47.49083" lon="6.76623">
        <ele>318</ele>
        <time>2015-11-15T09:48:06.000Z</time>
      </trkpt>
      <trkpt lat="47.49085" lon="6.76615">
        <ele>315</ele>
        <time>2015-11-15T09:48:07.000Z</time>
      </trkpt>
      <trkpt lat="47.49086" lon="6.76608">
        <ele>315</ele>
        <time>2015-11-15T09:48:08.000Z</time>
      </trkpt>
      <trkpt lat="47.49088" lon="6.76601">
        <ele>316</ele>
        <time>2015-11-15T09:48:09.000Z</time>
      </trkpt>
      <trkpt lat="47.49089" lon="6.76596">
        <ele>316</ele>
        <time>2015-11-15T09:48:10.000Z</time>
      </trkpt>
      <trkpt lat="47.4909" lon="6.76589">
        <ele>316</ele>
        <time>2015-11-15T09:48:11.000Z</time>
      </trkpt>
      <trkpt lat="47.49092" lon="6.76582">
        <ele>317</ele>
        <time>2015-11-15T09:48:12.000Z</time>
      </trkpt>
      <trkpt lat="47.49093" lon="6.76575">
        <ele>317</ele>
        <time>2015-11-15T09:48:13.000Z</time>
      </trkpt>
      <trkpt lat="47.49094" lon="6.76568">
        <ele>316</ele>
        <time>2015-11-15T09:48:14.000Z</time>
      </trkpt>
      <trkpt lat="47.49095" lon="6.76561">
        <ele>316</ele>
        <time>2015-11-15T09:48:15.000Z</time>
      </trkpt>
      <trkpt lat="47.49096" lon="6.76554">
        <ele>316</ele>
        <time>2015-11-15T09:48:16.000Z</time>
      </trkpt>
      <trkpt lat="47.49097" lon="6.76548">
        <ele>317</ele>
        <time>2015-11-15T09:48:17.000Z</time>
      </trkpt>
      <trkpt lat="47.49097" lon="6.76541">
        <ele>317</ele>
        <time>2015-11-15T09:48:18.000Z</time>
      </trkpt>
      <trkpt lat="47.49098" lon="6.76534">
        <ele>317</ele>
        <time>2015-11-15T09:48:19.000Z</time>
      </trkpt>
      <trkpt lat="47.49098" lon="6.76526">
        <ele>317</ele>
        <time>2015-11-15T09:48:20.000Z</time>
      </trkpt>
      <trkpt lat="47.49098" lon="6.76519">
        <ele>318</ele>
        <time>2015-11-15T09:48:21.000Z</time>
      </trkpt>
      <trkpt lat="47.49098" lon="6.76512">
        <ele>318</ele>
        <time>2015-11-15T09:48:22.000Z</time>
      </trkpt>
      <trkpt lat="47.49098" lon="6.76505">
        <ele>318</ele>
        <time>2015-11-15T09:48:23.000Z</time>
      </trkpt>
      <trkpt lat="47.49099" lon="6.76499">
        <ele>319</ele>
        <time>2015-11-15T09:48:24.000Z</time>
      </trkpt>
      <trkpt lat="47.49099" lon="6.76492">
        <ele>319</ele>
        <time>2015-11-15T09:48:25.000Z</time>
      </trkpt>
      <trkpt lat="47.49099" lon="6.76485">
        <ele>319</ele>
        <time>2015-11-15T09:48:26.000Z</time>
      </trkpt>
      <trkpt lat="47.49099" lon="6.76478">
        <ele>318</ele>
        <time>2015-11-15T09:48:27.000Z</time>
      </trkpt>
      <trkpt lat="47.49099" lon="6.76471">
        <ele>318</ele>
        <time>2015-11-15T09:48:28.000Z</time>
      </trkpt>
      <trkpt lat="47.49098" lon="6.76467">
        <ele>318</ele>
        <time>2015-11-15T09:48:29.000Z</time>
      </trkpt>
      <trkpt lat="47.49097" lon="6.76462">
        <ele>318</ele>
        <time>2015-11-15T09:48:30.000Z</time>
      </trkpt>
      <trkpt lat="47.49097" lon="6.76455">
        <ele>318</ele>
        <time>2015-11-15T09:48:31.000Z</time>
      </trkpt>
      <trkpt lat="47.49098" lon="6.76448">
        <ele>318</ele>
        <time>2015-11-15T09:48:32.000Z</time>
      </trkpt>
      <trkpt lat="47.49098" lon="6.76441">
        <ele>318</ele>
        <time>2015-11-15T09:48:33.000Z</time>
      </trkpt>
      <trkpt lat="47.49097" lon="6.76434">
        <ele>319</ele>
        <time>2015-11-15T09:48:34.000Z</time>
      </trkpt>
      <trkpt lat="47.49098" lon="6.76427">
        <ele>319</ele>
        <time>2015-11-15T09:48:35.000Z</time>
      </trkpt>
      <trkpt lat="47.49098" lon="6.7642">
        <ele>319</ele>
        <time>2015-11-15T09:48:36.000Z</time>
      </trkpt>
      <trkpt lat="47.49098" lon="6.76414">
        <ele>319</ele>
        <time>2015-11-15T09:48:37.000Z</time>
      </trkpt>
      <trkpt lat="47.49099" lon="6.76408">
        <ele>319</ele>
        <time>2015-11-15T09:48:38.000Z</time>
      </trkpt>
      <trkpt lat="47.49099" lon="6.76401">
        <ele>319</ele>
        <time>2015-11-15T09:48:39.000Z</time>
      </trkpt>
      <trkpt lat="47.49099" lon="6.76396">
        <ele>319</ele>
        <time>2015-11-15T09:48:40.000Z</time>
      </trkpt>
      <trkpt lat="47.49099" lon="6.7639">
        <ele>319</ele>
        <time>2015-11-15T09:48:41.000Z</time>
      </trkpt>
      <trkpt lat="47.49099" lon="6.76385">
        <ele>319</ele>
        <time>2015-11-15T09:48:42.000Z</time>
      </trkpt>
      <trkpt lat="47.49098" lon="6.76375">
        <ele>319</ele>
        <time>2015-11-15T09:48:43.000Z</time>
      </trkpt>
      <trkpt lat="47.49096" lon="6.76369">
        <ele>319</ele>
        <time>2015-11-15T09:48:44.000Z</time>
      </trkpt>
      <trkpt lat="47.49095" lon="6.76364">
        <ele>319</ele>
        <time>2015-11-15T09:48:45.000Z</time>
      </trkpt>
      <trkpt lat="47.49093" lon="6.7636">
        <ele>320</ele>
        <time>2015-11-15T09:48:46.000Z</time>
      </trkpt>
      <trkpt lat="47.49091" lon="6.76355">
        <ele>320</ele>
        <time>2015-11-15T09:48:47.000Z</time>
      </trkpt>
      <trkpt lat="47.49091" lon="6.76345">
        <ele>321</ele>
        <time>2015-11-15T09:48:48.000Z</time>
      </trkpt>
      <trkpt lat="47.4909" lon="6.76337">
        <ele>322</ele>
        <time>2015-11-15T09:48:49.000Z</time>
      </trkpt>
      <trkpt lat="47.49089" lon="6.76331">
        <ele>322</ele>
        <time>2015-11-15T09:48:50.000Z</time>
      </trkpt>
      <trkpt lat="47.49088" lon="6.76324">
        <ele>322</ele>
        <time>2015-11-15T09:48:51.000Z</time>
      </trkpt>
      <trkpt lat="47.49088" lon="6.76318">
        <ele>321</ele>
        <time>2015-11-15T09:48:52.000Z</time>
      </trkpt>
      <trkpt lat="47.49086" lon="6.76313">
        <ele>321</ele>
        <time>2015-11-15T09:48:53.000Z</time>
      </trkpt>
      <trkpt lat="47.49085" lon="6.76307">
        <ele>321</ele>
        <time>2015-11-15T09:48:54.000Z</time>
      </trkpt>
      <trkpt lat="47.49084" lon="6.76302">
        <ele>321</ele>
        <time>2015-11-15T09:48:55.000Z</time>
      </trkpt>
      <trkpt lat="47.49084" lon="6.76295">
        <ele>321</ele>
        <time>2015-11-15T09:48:56.000Z</time>
      </trkpt>
      <trkpt lat="47.49084" lon="6.76288">
        <ele>321</ele>
        <time>2015-11-15T09:48:57.000Z</time>
      </trkpt>
      <trkpt lat="47.49085" lon="6.7628">
        <ele>322</ele>
        <time>2015-11-15T09:48:58.000Z</time>
      </trkpt>
      <trkpt lat="47.49085" lon="6.76274">
        <ele>322</ele>
        <time>2015-11-15T09:48:59.000Z</time>
      </trkpt>
      <trkpt lat="47.49084" lon="6.76268">
        <ele>322</ele>
        <time>2015-11-15T09:49:00.000Z</time>
      </trkpt>
      <trkpt lat="47.49083" lon="6.76259">
        <ele>329</ele>
        <time>2015-11-15T09:49:01.000Z</time>
      </trkpt>
      <trkpt lat="47.49084" lon="6.76251">
        <ele>325</ele>
        <time>2015-11-15T09:49:02.000Z</time>
      </trkpt>
      <trkpt lat="47.49084" lon="6.76244">
        <ele>324</ele>
        <time>2015-11-15T09:49:03.000Z</time>
      </trkpt>
      <trkpt lat="47.49083" lon="6.76238">
        <ele>331</ele>
        <time>2015-11-15T09:49:04.000Z</time>
      </trkpt>
      <trkpt lat="47.49082" lon="6.76233">
        <ele>332</ele>
        <time>2015-11-15T09:49:05.000Z</time>
      </trkpt>
      <trkpt lat="47.49082" lon="6.76227">
        <ele>334</ele>
        <time>2015-11-15T09:49:06.000Z</time>
      </trkpt>
      <trkpt lat="47.49084" lon="6.76221">
        <ele>323</ele>
        <time>2015-11-15T09:49:07.000Z</time>
      </trkpt>
      <trkpt lat="47.49085" lon="6.76214">
        <ele>322</ele>
        <time>2015-11-15T09:49:08.000Z</time>
      </trkpt>
      <trkpt lat="47.49085" lon="6.76209">
        <ele>322</ele>
        <time>2015-11-15T09:49:09.000Z</time>
      </trkpt>
      <trkpt lat="47.49086" lon="6.76203">
        <ele>322</ele>
        <time>2015-11-15T09:49:10.000Z</time>
      </trkpt>
      <trkpt lat="47.49085" lon="6.76197">
        <ele>322</ele>
        <time>2015-11-15T09:49:11.000Z</time>
      </trkpt>
      <trkpt lat="47.49085" lon="6.76191">
        <ele>322</ele>
        <time>2015-11-15T09:49:12.000Z</time>
      </trkpt>
      <trkpt lat="47.49086" lon="6.76185">
        <ele>323</ele>
        <time>2015-11-15T09:49:13.000Z</time>
      </trkpt>
      <trkpt lat="47.49086" lon="6.76179">
        <ele>323</ele>
        <time>2015-11-15T09:49:14.000Z</time>
      </trkpt>
      <trkpt lat="47.49086" lon="6.76172">
        <ele>323</ele>
        <time>2015-11-15T09:49:15.000Z</time>
      </trkpt>
      <trkpt lat="47.49087" lon="6.76166">
        <ele>324</ele>
        <time>2015-11-15T09:49:16.000Z</time>
      </trkpt>
      <trkpt lat="47.49087" lon="6.76158">
        <ele>324</ele>
        <time>2015-11-15T09:49:17.000Z</time>
      </trkpt>
      <trkpt lat="47.49087" lon="6.76151">
        <ele>323</ele>
        <time>2015-11-15T09:49:18.000Z</time>
      </trkpt>
      <trkpt lat="47.49088" lon="6.76144">
        <ele>323</ele>
        <time>2015-11-15T09:49:19.000Z</time>
      </trkpt>
      <trkpt lat="47.49088" lon="6.76138">
        <ele>323</ele>
        <time>2015-11-15T09:49:20.000Z</time>
      </trkpt>
      <trkpt lat="47.49089" lon="6.76132">
        <ele>323</ele>
        <time>2015-11-15T09:49:21.000Z</time>
      </trkpt>
      <trkpt lat="47.49089" lon="6.76126">
        <ele>324</ele>
        <time>2015-11-15T09:49:22.000Z</time>
      </trkpt>
      <trkpt lat="47.49089" lon="6.76121">
        <ele>324</ele>
        <time>2015-11-15T09:49:23.000Z</time>
      </trkpt>
      <trkpt lat="47.4909" lon="6.76116">
        <ele>324</ele>
        <time>2015-11-15T09:49:24.000Z</time>
      </trkpt>
      <trkpt lat="47.49091" lon="6.76111">
        <ele>324</ele>
        <time>2015-11-15T09:49:25.000Z</time>
      </trkpt>
      <trkpt lat="47.49091" lon="6.76106">
        <ele>325</ele>
        <time>2015-11-15T09:49:26.000Z</time>
      </trkpt>
      <trkpt lat="47.49091" lon="6.761">
        <ele>325</ele>
        <time>2015-11-15T09:49:27.000Z</time>
      </trkpt>
      <trkpt lat="47.4909" lon="6.76094">
        <ele>326</ele>
        <time>2015-11-15T09:49:28.000Z</time>
      </trkpt>
      <trkpt lat="47.4909" lon="6.76088">
        <ele>326</ele>
        <time>2015-11-15T09:49:29.000Z</time>
      </trkpt>
      <trkpt lat="47.4909" lon="6.76082">
        <ele>327</ele>
        <time>2015-11-15T09:49:30.000Z</time>
      </trkpt>
      <trkpt lat="47.4909" lon="6.76077">
        <ele>327</ele>
        <time>2015-11-15T09:49:31.000Z</time>
      </trkpt>
      <trkpt lat="47.49091" lon="6.76072">
        <ele>327</ele>
        <time>2015-11-15T09:49:32.000Z</time>
      </trkpt>
      <trkpt lat="47.49091" lon="6.76067">
        <ele>326</ele>
        <time>2015-11-15T09:49:33.000Z</time>
      </trkpt>
      <trkpt lat="47.49092" lon="6.76062">
        <ele>326</ele>
        <time>2015-11-15T09:49:34.000Z</time>
      </trkpt>
      <trkpt lat="47.49093" lon="6.76057">
        <ele>326</ele>
        <time>2015-11-15T09:49:35.000Z</time>
      </trkpt>
      <trkpt lat="47.49095" lon="6.76051">
        <ele>326</ele>
        <time>2015-11-15T09:49:36.000Z</time>
      </trkpt>
      <trkpt lat="47.49096" lon="6.76047">
        <ele>326</ele>
        <time>2015-11-15T09:49:37.000Z</time>
      </trkpt>
      <trkpt lat="47.49098" lon="6.76042">
        <ele>326</ele>
        <time>2015-11-15T09:49:38.000Z</time>
      </trkpt>
      <trkpt lat="47.49099" lon="6.76037">
        <ele>326</ele>
        <time>2015-11-15T09:49:39.000Z</time>
      </trkpt>
      <trkpt lat="47.491" lon="6.76032">
        <ele>327</ele>
        <time>2015-11-15T09:49:40.000Z</time>
      </trkpt>
      <trkpt lat="47.49102" lon="6.76027">
        <ele>327</ele>
        <time>2015-11-15T09:49:41.000Z</time>
      </trkpt>
      <trkpt lat="47.49103" lon="6.76021">
        <ele>327</ele>
        <time>2015-11-15T09:49:42.000Z</time>
      </trkpt>
      <trkpt lat="47.49104" lon="6.76015">
        <ele>327</ele>
        <time>2015-11-15T09:49:43.000Z</time>
      </trkpt>
      <trkpt lat="47.49107" lon="6.76008">
        <ele>327</ele>
        <time>2015-11-15T09:49:44.000Z</time>
      </trkpt>
      <trkpt lat="47.49108" lon="6.76001">
        <ele>327</ele>
        <time>2015-11-15T09:49:45.000Z</time>
      </trkpt>
      <trkpt lat="47.4911" lon="6.75994">
        <ele>329</ele>
        <time>2015-11-15T09:49:46.000Z</time>
      </trkpt>
      <trkpt lat="47.49112" lon="6.75988">
        <ele>329</ele>
        <time>2015-11-15T09:49:47.000Z</time>
      </trkpt>
      <trkpt lat="47.49114" lon="6.75982">
        <ele>329</ele>
        <time>2015-11-15T09:49:48.000Z</time>
      </trkpt>
      <trkpt lat="47.49116" lon="6.75976">
        <ele>329</ele>
        <time>2015-11-15T09:49:49.000Z</time>
      </trkpt>
      <trkpt lat="47.49118" lon="6.75971">
        <ele>329</ele>
        <time>2015-11-15T09:49:50.000Z</time>
      </trkpt>
      <trkpt lat="47.49119" lon="6.75965">
        <ele>329</ele>
        <time>2015-11-15T09:49:51.000Z</time>
      </trkpt>
      <trkpt lat="47.49121" lon="6.7596">
        <ele>329</ele>
        <time>2015-11-15T09:49:52.000Z</time>
      </trkpt>
      <trkpt lat="47.49123" lon="6.75954">
        <ele>329</ele>
        <time>2015-11-15T09:49:53.000Z</time>
      </trkpt>
      <trkpt lat="47.49124" lon="6.75948">
        <ele>329</ele>
        <time>2015-11-15T09:49:54.000Z</time>
      </trkpt>
      <trkpt lat="47.49125" lon="6.75943">
        <ele>329</ele>
        <time>2015-11-15T09:49:55.000Z</time>
      </trkpt>
      <trkpt lat="47.49125" lon="6.75937">
        <ele>329</ele>
        <time>2015-11-15T09:49:56.000Z</time>
      </trkpt>
      <trkpt lat="47.49127" lon="6.75932">
        <ele>329</ele>
        <time>2015-11-15T09:49:57.000Z</time>
      </trkpt>
      <trkpt lat="47.49128" lon="6.75926">
        <ele>329</ele>
        <time>2015-11-15T09:49:58.000Z</time>
      </trkpt>
      <trkpt lat="47.4913" lon="6.7592">
        <ele>328</ele>
        <time>2015-11-15T09:49:59.000Z</time>
      </trkpt>
      <trkpt lat="47.49132" lon="6.75913">
        <ele>331</ele>
        <time>2015-11-15T09:50:00.000Z</time>
      </trkpt>
      <trkpt lat="47.49134" lon="6.75907">
        <ele>331</ele>
        <time>2015-11-15T09:50:01.000Z</time>
      </trkpt>
      <trkpt lat="47.49136" lon="6.759">
        <ele>331</ele>
        <time>2015-11-15T09:50:02.000Z</time>
      </trkpt>
      <trkpt lat="47.49138" lon="6.75894">
        <ele>331</ele>
        <time>2015-11-15T09:50:03.000Z</time>
      </trkpt>
      <trkpt lat="47.4914" lon="6.75888">
        <ele>331</ele>
        <time>2015-11-15T09:50:04.000Z</time>
      </trkpt>
      <trkpt lat="47.49142" lon="6.75882">
        <ele>331</ele>
        <time>2015-11-15T09:50:05.000Z</time>
      </trkpt>
      <trkpt lat="47.49144" lon="6.75876">
        <ele>331</ele>
        <time>2015-11-15T09:50:06.000Z</time>
      </trkpt>
      <trkpt lat="47.49146" lon="6.75869">
        <ele>331</ele>
        <time>2015-11-15T09:50:07.000Z</time>
      </trkpt>
      <trkpt lat="47.49149" lon="6.75862">
        <ele>331</ele>
        <time>2015-11-15T09:50:08.000Z</time>
      </trkpt>
      <trkpt lat="47.49151" lon="6.75855">
        <ele>330</ele>
        <time>2015-11-15T09:50:09.000Z</time>
      </trkpt>
      <trkpt lat="47.49156" lon="6.75842">
        <ele>329</ele>
        <time>2015-11-15T09:50:10.000Z</time>
      </trkpt>
      <trkpt lat="47.49158" lon="6.75832">
        <ele>330</ele>
        <time>2015-11-15T09:50:11.000Z</time>
      </trkpt>
      <trkpt lat="47.49161" lon="6.75825">
        <ele>330</ele>
        <time>2015-11-15T09:50:12.000Z</time>
      </trkpt>
      <trkpt lat="47.49164" lon="6.75817">
        <ele>332</ele>
        <time>2015-11-15T09:50:13.000Z</time>
      </trkpt>
      <trkpt lat="47.49165" lon="6.75808">
        <ele>334</ele>
        <time>2015-11-15T09:50:14.000Z</time>
      </trkpt>
      <trkpt lat="47.49169" lon="6.75796">
        <ele>326</ele>
        <time>2015-11-15T09:50:15.000Z</time>
      </trkpt>
      <trkpt lat="47.49172" lon="6.75786">
        <ele>326</ele>
        <time>2015-11-15T09:50:16.000Z</time>
      </trkpt>
      <trkpt lat="47.49174" lon="6.7578">
        <ele>327</ele>
        <time>2015-11-15T09:50:17.000Z</time>
      </trkpt>
      <trkpt lat="47.49176" lon="6.75772">
        <ele>328</ele>
        <time>2015-11-15T09:50:18.000Z</time>
      </trkpt>
      <trkpt lat="47.49178" lon="6.75765">
        <ele>329</ele>
        <time>2015-11-15T09:50:19.000Z</time>
      </trkpt>
      <trkpt lat="47.49181" lon="6.75757">
        <ele>329</ele>
        <time>2015-11-15T09:50:20.000Z</time>
      </trkpt>
      <trkpt lat="47.49182" lon="6.75751">
        <ele>330</ele>
        <time>2015-11-15T09:50:21.000Z</time>
      </trkpt>
      <trkpt lat="47.49185" lon="6.75744">
        <ele>333</ele>
        <time>2015-11-15T09:50:22.000Z</time>
      </trkpt>
      <trkpt lat="47.49188" lon="6.75737">
        <ele>332</ele>
        <time>2015-11-15T09:50:23.000Z</time>
      </trkpt>
      <trkpt lat="47.4919" lon="6.75732">
        <ele>332</ele>
        <time>2015-11-15T09:50:24.000Z</time>
      </trkpt>
      <trkpt lat="47.49195" lon="6.75723">
        <ele>332</ele>
        <time>2015-11-15T09:50:25.000Z</time>
      </trkpt>
      <trkpt lat="47.49198" lon="6.75713">
        <ele>332</ele>
        <time>2015-11-15T09:50:26.000Z</time>
      </trkpt>
      <trkpt lat="47.49201" lon="6.75707">
        <ele>332</ele>
        <time>2015-11-15T09:50:27.000Z</time>
      </trkpt>
      <trkpt lat="47.49203" lon="6.757">
        <ele>332</ele>
        <time>2015-11-15T09:50:28.000Z</time>
      </trkpt>
      <trkpt lat="47.49204" lon="6.75694">
        <ele>333</ele>
        <time>2015-11-15T09:50:29.000Z</time>
      </trkpt>
      <trkpt lat="47.49204" lon="6.75688">
        <ele>333</ele>
        <time>2015-11-15T09:50:30.000Z</time>
      </trkpt>
      <trkpt lat="47.49206" lon="6.75682">
        <ele>333</ele>
        <time>2015-11-15T09:50:31.000Z</time>
      </trkpt>
      <trkpt lat="47.49205" lon="6.75674">
        <ele>333</ele>
        <time>2015-11-15T09:50:32.000Z</time>
      </trkpt>
      <trkpt lat="47.49206" lon="6.75668">
        <ele>333</ele>
        <time>2015-11-15T09:50:33.000Z</time>
      </trkpt>
      <trkpt lat="47.49207" lon="6.75662">
        <ele>339</ele>
        <time>2015-11-15T09:50:34.000Z</time>
      </trkpt>
      <trkpt lat="47.49209" lon="6.75656">
        <ele>338</ele>
        <time>2015-11-15T09:50:35.000Z</time>
      </trkpt>
      <trkpt lat="47.4921" lon="6.7565">
        <ele>338</ele>
        <time>2015-11-15T09:50:36.000Z</time>
      </trkpt>
      <trkpt lat="47.49212" lon="6.75645">
        <ele>338</ele>
        <time>2015-11-15T09:50:37.000Z</time>
      </trkpt>
      <trkpt lat="47.49213" lon="6.75641">
        <ele>338</ele>
        <time>2015-11-15T09:50:38.000Z</time>
      </trkpt>
      <trkpt lat="47.49214" lon="6.75636">
        <ele>338</ele>
        <time>2015-11-15T09:50:39.000Z</time>
      </trkpt>
      <trkpt lat="47.49215" lon="6.75632">
        <ele>338</ele>
        <time>2015-11-15T09:50:40.000Z</time>
      </trkpt>
      <trkpt lat="47.49217" lon="6.75628">
        <ele>338</ele>
        <time>2015-11-15T09:50:41.000Z</time>
      </trkpt>
      <trkpt lat="47.49218" lon="6.75624">
        <ele>339</ele>
        <time>2015-11-15T09:50:42.000Z</time>
      </trkpt>
      <trkpt lat="47.49219" lon="6.75619">
        <ele>339</ele>
        <time>2015-11-15T09:50:43.000Z</time>
      </trkpt>
      <trkpt lat="47.49221" lon="6.75614">
        <ele>339</ele>
        <time>2015-11-15T09:50:44.000Z</time>
      </trkpt>
      <trkpt lat="47.49223" lon="6.75609">
        <ele>338</ele>
        <time>2015-11-15T09:50:45.000Z</time>
      </trkpt>
      <trkpt lat="47.49224" lon="6.75604">
        <ele>338</ele>
        <time>2015-11-15T09:50:46.000Z</time>
      </trkpt>
      <trkpt lat="47.49226" lon="6.75598">
        <ele>338</ele>
        <time>2015-11-15T09:50:47.000Z</time>
      </trkpt>
      <trkpt lat="47.49228" lon="6.75592">
        <ele>338</ele>
        <time>2015-11-15T09:50:48.000Z</time>
      </trkpt>
      <trkpt lat="47.4923" lon="6.75586">
        <ele>337</ele>
        <time>2015-11-15T09:50:49.000Z</time>
      </trkpt>
      <trkpt lat="47.49232" lon="6.7558">
        <ele>341</ele>
        <time>2015-11-15T09:50:50.000Z</time>
      </trkpt>
      <trkpt lat="47.49234" lon="6.75574">
        <ele>341</ele>
        <time>2015-11-15T09:50:51.000Z</time>
      </trkpt>
      <trkpt lat="47.49236" lon="6.75567">
        <ele>341</ele>
        <time>2015-11-15T09:50:52.000Z</time>
      </trkpt>
      <trkpt lat="47.49238" lon="6.75559">
        <ele>342</ele>
        <time>2015-11-15T09:50:53.000Z</time>
      </trkpt>
      <trkpt lat="47.4924" lon="6.75552">
        <ele>343</ele>
        <time>2015-11-15T09:50:54.000Z</time>
      </trkpt>
      <trkpt lat="47.49242" lon="6.75544">
        <ele>343</ele>
        <time>2015-11-15T09:50:55.000Z</time>
      </trkpt>
      <trkpt lat="47.49244" lon="6.75535">
        <ele>344</ele>
        <time>2015-11-15T09:50:56.000Z</time>
      </trkpt>
      <trkpt lat="47.49246" lon="6.75527">
        <ele>343</ele>
        <time>2015-11-15T09:50:57.000Z</time>
      </trkpt>
      <trkpt lat="47.49248" lon="6.75519">
        <ele>343</ele>
        <time>2015-11-15T09:50:58.000Z</time>
      </trkpt>
      <trkpt lat="47.49249" lon="6.75511">
        <ele>342</ele>
        <time>2015-11-15T09:50:59.000Z</time>
      </trkpt>
      <trkpt lat="47.4925" lon="6.75503">
        <ele>338</ele>
        <time>2015-11-15T09:51:00.000Z</time>
      </trkpt>
      <trkpt lat="47.49251" lon="6.75496">
        <ele>338</ele>
        <time>2015-11-15T09:51:01.000Z</time>
      </trkpt>
      <trkpt lat="47.49252" lon="6.75488">
        <ele>338</ele>
        <time>2015-11-15T09:51:02.000Z</time>
      </trkpt>
      <trkpt lat="47.49253" lon="6.75481">
        <ele>337</ele>
        <time>2015-11-15T09:51:03.000Z</time>
      </trkpt>
      <trkpt lat="47.49253" lon="6.75475">
        <ele>337</ele>
        <time>2015-11-15T09:51:04.000Z</time>
      </trkpt>
      <trkpt lat="47.49254" lon="6.75468">
        <ele>337</ele>
        <time>2015-11-15T09:51:05.000Z</time>
      </trkpt>
      <trkpt lat="47.49254" lon="6.75462">
        <ele>337</ele>
        <time>2015-11-15T09:51:06.000Z</time>
      </trkpt>
      <trkpt lat="47.49255" lon="6.75455">
        <ele>337</ele>
        <time>2015-11-15T09:51:07.000Z</time>
      </trkpt>
      <trkpt lat="47.49255" lon="6.75449">
        <ele>338</ele>
        <time>2015-11-15T09:51:08.000Z</time>
      </trkpt>
      <trkpt lat="47.49255" lon="6.75442">
        <ele>338</ele>
        <time>2015-11-15T09:51:09.000Z</time>
      </trkpt>
      <trkpt lat="47.49256" lon="6.75435">
        <ele>339</ele>
        <time>2015-11-15T09:51:10.000Z</time>
      </trkpt>
      <trkpt lat="47.49256" lon="6.75429">
        <ele>340</ele>
        <time>2015-11-15T09:51:11.000Z</time>
      </trkpt>
      <trkpt lat="47.49257" lon="6.75422">
        <ele>341</ele>
        <time>2015-11-15T09:51:12.000Z</time>
      </trkpt>
      <trkpt lat="47.49258" lon="6.75416">
        <ele>343</ele>
        <time>2015-11-15T09:51:13.000Z</time>
      </trkpt>
      <trkpt lat="47.49258" lon="6.75409">
        <ele>342</ele>
        <time>2015-11-15T09:51:14.000Z</time>
      </trkpt>
      <trkpt lat="47.49259" lon="6.75402">
        <ele>341</ele>
        <time>2015-11-15T09:51:15.000Z</time>
      </trkpt>
      <trkpt lat="47.49261" lon="6.75395">
        <ele>341</ele>
        <time>2015-11-15T09:51:16.000Z</time>
      </trkpt>
      <trkpt lat="47.49263" lon="6.75388">
        <ele>341</ele>
        <time>2015-11-15T09:51:17.000Z</time>
      </trkpt>
      <trkpt lat="47.49265" lon="6.75381">
        <ele>340</ele>
        <time>2015-11-15T09:51:18.000Z</time>
      </trkpt>
      <trkpt lat="47.49267" lon="6.75374">
        <ele>340</ele>
        <time>2015-11-15T09:51:19.000Z</time>
      </trkpt>
      <trkpt lat="47.49269" lon="6.75368">
        <ele>340</ele>
        <time>2015-11-15T09:51:20.000Z</time>
      </trkpt>
      <trkpt lat="47.4927" lon="6.75362">
        <ele>341</ele>
        <time>2015-11-15T09:51:21.000Z</time>
      </trkpt>
      <trkpt lat="47.49272" lon="6.75356">
        <ele>341</ele>
        <time>2015-11-15T09:51:22.000Z</time>
      </trkpt>
      <trkpt lat="47.49273" lon="6.7535">
        <ele>341</ele>
        <time>2015-11-15T09:51:23.000Z</time>
      </trkpt>
      <trkpt lat="47.49275" lon="6.75343">
        <ele>341</ele>
        <time>2015-11-15T09:51:24.000Z</time>
      </trkpt>
      <trkpt lat="47.49276" lon="6.75337">
        <ele>341</ele>
        <time>2015-11-15T09:51:25.000Z</time>
      </trkpt>
      <trkpt lat="47.49277" lon="6.75331">
        <ele>342</ele>
        <time>2015-11-15T09:51:26.000Z</time>
      </trkpt>
      <trkpt lat="47.49277" lon="6.75325">
        <ele>342</ele>
        <time>2015-11-15T09:51:27.000Z</time>
      </trkpt>
      <trkpt lat="47.49278" lon="6.75318">
        <ele>341</ele>
        <time>2015-11-15T09:51:28.000Z</time>
      </trkpt>
      <trkpt lat="47.49278" lon="6.75313">
        <ele>341</ele>
        <time>2015-11-15T09:51:29.000Z</time>
      </trkpt>
      <trkpt lat="47.49278" lon="6.75307">
        <ele>341</ele>
        <time>2015-11-15T09:51:30.000Z</time>
      </trkpt>
      <trkpt lat="47.49278" lon="6.75303">
        <ele>341</ele>
        <time>2015-11-15T09:51:31.000Z</time>
      </trkpt>
      <trkpt lat="47.49278" lon="6.753">
        <ele>341</ele>
        <time>2015-11-15T09:51:32.000Z</time>
      </trkpt>
      <trkpt lat="47.49278" lon="6.75296">
        <ele>341</ele>
        <time>2015-11-15T09:51:33.000Z</time>
      </trkpt>
      <trkpt lat="47.49278" lon="6.75293">
        <ele>341</ele>
        <time>2015-11-15T09:51:34.000Z</time>
      </trkpt>
      <trkpt lat="47.49278" lon="6.75289">
        <ele>341</ele>
        <time>2015-11-15T09:51:35.000Z</time>
      </trkpt>
      <trkpt lat="47.49278" lon="6.75285">
        <ele>341</ele>
        <time>2015-11-15T09:51:36.000Z</time>
      </trkpt>
      <trkpt lat="47.49278" lon="6.75281">
        <ele>341</ele>
        <time>2015-11-15T09:51:37.000Z</time>
      </trkpt>
      <trkpt lat="47.49278" lon="6.75277">
        <ele>341</ele>
        <time>2015-11-15T09:51:38.000Z</time>
      </trkpt>
      <trkpt lat="47.49278" lon="6.75274">
        <ele>342</ele>
        <time>2015-11-15T09:51:39.000Z</time>
      </trkpt>
      <trkpt lat="47.49279" lon="6.7527">
        <ele>342</ele>
        <time>2015-11-15T09:51:40.000Z</time>
      </trkpt>
      <trkpt lat="47.49279" lon="6.75267">
        <ele>342</ele>
        <time>2015-11-15T09:51:41.000Z</time>
      </trkpt>
      <trkpt lat="47.49279" lon="6.75263">
        <ele>342</ele>
        <time>2015-11-15T09:51:42.000Z</time>
      </trkpt>
      <trkpt lat="47.49279" lon="6.75259">
        <ele>342</ele>
        <time>2015-11-15T09:51:43.000Z</time>
      </trkpt>
      <trkpt lat="47.4928" lon="6.75255">
        <ele>342</ele>
        <time>2015-11-15T09:51:44.000Z</time>
      </trkpt>
      <trkpt lat="47.4928" lon="6.75251">
        <ele>342</ele>
        <time>2015-11-15T09:51:45.000Z</time>
      </trkpt>
      <trkpt lat="47.49279" lon="6.75246">
        <ele>344</ele>
        <time>2015-11-15T09:51:46.000Z</time>
      </trkpt>
      <trkpt lat="47.49279" lon="6.75241">
        <ele>344</ele>
        <time>2015-11-15T09:51:47.000Z</time>
      </trkpt>
      <trkpt lat="47.49279" lon="6.75236">
        <ele>344</ele>
        <time>2015-11-15T09:51:48.000Z</time>
      </trkpt>
      <trkpt lat="47.49278" lon="6.75231">
        <ele>344</ele>
        <time>2015-11-15T09:51:49.000Z</time>
      </trkpt>
      <trkpt lat="47.49278" lon="6.75227">
        <ele>344</ele>
        <time>2015-11-15T09:51:50.000Z</time>
      </trkpt>
      <trkpt lat="47.49278" lon="6.75223">
        <ele>344</ele>
        <time>2015-11-15T09:51:51.000Z</time>
      </trkpt>
      <trkpt lat="47.49279" lon="6.75218">
        <ele>344</ele>
        <time>2015-11-15T09:51:52.000Z</time>
      </trkpt>
      <trkpt lat="47.49279" lon="6.75212">
        <ele>344</ele>
        <time>2015-11-15T09:51:53.000Z</time>
      </trkpt>
      <trkpt lat="47.49279" lon="6.75206">
        <ele>344</ele>
        <time>2015-11-15T09:51:54.000Z</time>
      </trkpt>
      <trkpt lat="47.4928" lon="6.752">
        <ele>345</ele>
        <time>2015-11-15T09:51:55.000Z</time>
      </trkpt>
      <trkpt lat="47.4928" lon="6.75193">
        <ele>345</ele>
        <time>2015-11-15T09:51:56.000Z</time>
      </trkpt>
      <trkpt lat="47.4928" lon="6.75187">
        <ele>345</ele>
        <time>2015-11-15T09:51:57.000Z</time>
      </trkpt>
      <trkpt lat="47.49281" lon="6.75181">
        <ele>345</ele>
        <time>2015-11-15T09:51:58.000Z</time>
      </trkpt>
      <trkpt lat="47.49281" lon="6.75174">
        <ele>346</ele>
        <time>2015-11-15T09:51:59.000Z</time>
      </trkpt>
      <trkpt lat="47.49281" lon="6.75167">
        <ele>346</ele>
        <time>2015-11-15T09:52:00.000Z</time>
      </trkpt>
      <trkpt lat="47.49281" lon="6.75161">
        <ele>348</ele>
        <time>2015-11-15T09:52:01.000Z</time>
      </trkpt>
      <trkpt lat="47.49281" lon="6.75156">
        <ele>348</ele>
        <time>2015-11-15T09:52:02.000Z</time>
      </trkpt>
      <trkpt lat="47.49281" lon="6.7515">
        <ele>348</ele>
        <time>2015-11-15T09:52:03.000Z</time>
      </trkpt>
      <trkpt lat="47.49281" lon="6.75144">
        <ele>348</ele>
        <time>2015-11-15T09:52:04.000Z</time>
      </trkpt>
      <trkpt lat="47.49282" lon="6.75138">
        <ele>348</ele>
        <time>2015-11-15T09:52:05.000Z</time>
      </trkpt>
      <trkpt lat="47.49282" lon="6.75132">
        <ele>348</ele>
        <time>2015-11-15T09:52:06.000Z</time>
      </trkpt>
      <trkpt lat="47.49283" lon="6.75125">
        <ele>348</ele>
        <time>2015-11-15T09:52:07.000Z</time>
      </trkpt>
      <trkpt lat="47.49285" lon="6.75118">
        <ele>348</ele>
        <time>2015-11-15T09:52:08.000Z</time>
      </trkpt>
      <trkpt lat="47.49286" lon="6.75111">
        <ele>348</ele>
        <time>2015-11-15T09:52:09.000Z</time>
      </trkpt>
      <trkpt lat="47.49292" lon="6.75097">
        <ele>347</ele>
        <time>2015-11-15T09:52:10.000Z</time>
      </trkpt>
      <trkpt lat="47.49294" lon="6.75091">
        <ele>347</ele>
        <time>2015-11-15T09:52:11.000Z</time>
      </trkpt>
      <trkpt lat="47.49297" lon="6.75085">
        <ele>347</ele>
        <time>2015-11-15T09:52:12.000Z</time>
      </trkpt>
      <trkpt lat="47.49301" lon="6.75079">
        <ele>348</ele>
        <time>2015-11-15T09:52:13.000Z</time>
      </trkpt>
      <trkpt lat="47.49305" lon="6.75072">
        <ele>348</ele>
        <time>2015-11-15T09:52:14.000Z</time>
      </trkpt>
      <trkpt lat="47.49309" lon="6.75066">
        <ele>347</ele>
        <time>2015-11-15T09:52:15.000Z</time>
      </trkpt>
      <trkpt lat="47.49311" lon="6.7506">
        <ele>347</ele>
        <time>2015-11-15T09:52:16.000Z</time>
      </trkpt>
      <trkpt lat="47.49314" lon="6.75053">
        <ele>348</ele>
        <time>2015-11-15T09:52:17.000Z</time>
      </trkpt>
      <trkpt lat="47.49317" lon="6.75046">
        <ele>348</ele>
        <time>2015-11-15T09:52:18.000Z</time>
      </trkpt>
      <trkpt lat="47.49319" lon="6.7504">
        <ele>348</ele>
        <time>2015-11-15T09:52:19.000Z</time>
      </trkpt>
      <trkpt lat="47.4932" lon="6.75035">
        <ele>348</ele>
        <time>2015-11-15T09:52:20.000Z</time>
      </trkpt>
      <trkpt lat="47.49321" lon="6.75029">
        <ele>348</ele>
        <time>2015-11-15T09:52:21.000Z</time>
      </trkpt>
      <trkpt lat="47.49321" lon="6.75025">
        <ele>348</ele>
        <time>2015-11-15T09:52:22.000Z</time>
      </trkpt>
      <trkpt lat="47.49322" lon="6.75019">
        <ele>347</ele>
        <time>2015-11-15T09:52:24.000Z</time>
      </trkpt>
      <trkpt lat="47.49323" lon="6.75016">
        <ele>347</ele>
        <time>2015-11-15T09:52:25.000Z</time>
      </trkpt>
      <trkpt lat="47.49324" lon="6.75011">
        <ele>346</ele>
        <time>2015-11-15T09:52:27.000Z</time>
      </trkpt>
      <trkpt lat="47.49324" lon="6.75009">
        <ele>346</ele>
        <time>2015-11-15T09:52:28.000Z</time>
      </trkpt>
      <trkpt lat="47.49324" lon="6.75004">
        <ele>346</ele>
        <time>2015-11-15T09:52:30.000Z</time>
      </trkpt>
      <trkpt lat="47.49324" lon="6.75001">
        <ele>346</ele>
        <time>2015-11-15T09:52:31.000Z</time>
      </trkpt>
      <trkpt lat="47.49323" lon="6.74996">
        <ele>348</ele>
        <time>2015-11-15T09:52:33.000Z</time>
      </trkpt>
      <trkpt lat="47.49323" lon="6.74993">
        <ele>348</ele>
        <time>2015-11-15T09:52:34.000Z</time>
      </trkpt>
      <trkpt lat="47.49323" lon="6.74988">
        <ele>349</ele>
        <time>2015-11-15T09:52:36.000Z</time>
      </trkpt>
      <trkpt lat="47.49323" lon="6.74986">
        <ele>349</ele>
        <time>2015-11-15T09:52:37.000Z</time>
      </trkpt>
      <trkpt lat="47.49323" lon="6.74981">
        <ele>350</ele>
        <time>2015-11-15T09:52:40.000Z</time>
      </trkpt>
      <trkpt lat="47.49323" lon="6.74979">
        <ele>350</ele>
        <time>2015-11-15T09:52:41.000Z</time>
      </trkpt>
      <trkpt lat="47.49323" lon="6.74974">
        <ele>351</ele>
        <time>2015-11-15T09:52:44.000Z</time>
      </trkpt>
      <trkpt lat="47.49324" lon="6.74972">
        <ele>351</ele>
        <time>2015-11-15T09:52:45.000Z</time>
      </trkpt>
      <trkpt lat="47.49325" lon="6.74968">
        <ele>352</ele>
        <time>2015-11-15T09:52:47.000Z</time>
      </trkpt>
      <trkpt lat="47.49325" lon="6.74965">
        <ele>352</ele>
        <time>2015-11-15T09:52:48.000Z</time>
      </trkpt>
      <trkpt lat="47.49326" lon="6.74958">
        <ele>352</ele>
        <time>2015-11-15T09:52:50.000Z</time>
      </trkpt>
      <trkpt lat="47.49326" lon="6.74955">
        <ele>352</ele>
        <time>2015-11-15T09:52:51.000Z</time>
      </trkpt>
      <trkpt lat="47.49327" lon="6.74949">
        <ele>352</ele>
        <time>2015-11-15T09:52:53.000Z</time>
      </trkpt>
      <trkpt lat="47.49326" lon="6.74947">
        <ele>352</ele>
        <time>2015-11-15T09:52:54.000Z</time>
      </trkpt>
      <trkpt lat="47.49325" lon="6.74942">
        <ele>352</ele>
        <time>2015-11-15T09:52:56.000Z</time>
      </trkpt>
      <trkpt lat="47.49324" lon="6.74938">
        <ele>352</ele>
        <time>2015-11-15T09:52:57.000Z</time>
      </trkpt>
      <trkpt lat="47.49323" lon="6.74935">
        <ele>352</ele>
        <time>2015-11-15T09:52:58.000Z</time>
      </trkpt>
      <trkpt lat="47.49323" lon="6.74932">
        <ele>352</ele>
        <time>2015-11-15T09:52:59.000Z</time>
      </trkpt>
      <trkpt lat="47.49322" lon="6.74925">
        <ele>351</ele>
        <time>2015-11-15T09:53:01.000Z</time>
      </trkpt>
      <trkpt lat="47.49322" lon="6.74922">
        <ele>351</ele>
        <time>2015-11-15T09:53:02.000Z</time>
      </trkpt>
      <trkpt lat="47.49322" lon="6.74917">
        <ele>352</ele>
        <time>2015-11-15T09:53:04.000Z</time>
      </trkpt>
      <trkpt lat="47.49322" lon="6.74913">
        <ele>353</ele>
        <time>2015-11-15T09:53:05.000Z</time>
      </trkpt>
      <trkpt lat="47.49322" lon="6.7491">
        <ele>353</ele>
        <time>2015-11-15T09:53:06.000Z</time>
      </trkpt>
      <trkpt lat="47.49322" lon="6.74906">
        <ele>353</ele>
        <time>2015-11-15T09:53:07.000Z</time>
      </trkpt>
      <trkpt lat="47.49322" lon="6.74902">
        <ele>354</ele>
        <time>2015-11-15T09:53:08.000Z</time>
      </trkpt>
      <trkpt lat="47.49322" lon="6.74898">
        <ele>355</ele>
        <time>2015-11-15T09:53:09.000Z</time>
      </trkpt>
      <trkpt lat="47.49322" lon="6.74894">
        <ele>355</ele>
        <time>2015-11-15T09:53:10.000Z</time>
      </trkpt>
      <trkpt lat="47.49321" lon="6.74889">
        <ele>356</ele>
        <time>2015-11-15T09:53:11.000Z</time>
      </trkpt>
      <trkpt lat="47.49321" lon="6.74885">
        <ele>356</ele>
        <time>2015-11-15T09:53:12.000Z</time>
      </trkpt>
      <trkpt lat="47.4932" lon="6.74881">
        <ele>356</ele>
        <time>2015-11-15T09:53:13.000Z</time>
      </trkpt>
      <trkpt lat="47.49319" lon="6.74877">
        <ele>356</ele>
        <time>2015-11-15T09:53:14.000Z</time>
      </trkpt>
      <trkpt lat="47.49318" lon="6.74874">
        <ele>357</ele>
        <time>2015-11-15T09:53:15.000Z</time>
      </trkpt>
      <trkpt lat="47.49317" lon="6.74868">
        <ele>357</ele>
        <time>2015-11-15T09:53:17.000Z</time>
      </trkpt>
      <trkpt lat="47.49317" lon="6.74865">
        <ele>357</ele>
        <time>2015-11-15T09:53:18.000Z</time>
      </trkpt>
      <trkpt lat="47.49317" lon="6.74861">
        <ele>356</ele>
        <time>2015-11-15T09:53:19.000Z</time>
      </trkpt>
      <trkpt lat="47.49317" lon="6.74857">
        <ele>356</ele>
        <time>2015-11-15T09:53:20.000Z</time>
      </trkpt>
      <trkpt lat="47.49316" lon="6.74853">
        <ele>356</ele>
        <time>2015-11-15T09:53:21.000Z</time>
      </trkpt>
      <trkpt lat="47.49317" lon="6.74849">
        <ele>356</ele>
        <time>2015-11-15T09:53:22.000Z</time>
      </trkpt>
      <trkpt lat="47.49317" lon="6.74844">
        <ele>355</ele>
        <time>2015-11-15T09:53:23.000Z</time>
      </trkpt>
      <trkpt lat="47.49317" lon="6.7484">
        <ele>355</ele>
        <time>2015-11-15T09:53:24.000Z</time>
      </trkpt>
      <trkpt lat="47.49318" lon="6.74836">
        <ele>354</ele>
        <time>2015-11-15T09:53:25.000Z</time>
      </trkpt>
      <trkpt lat="47.49318" lon="6.74831">
        <ele>356</ele>
        <time>2015-11-15T09:53:26.000Z</time>
      </trkpt>
      <trkpt lat="47.49318" lon="6.74827">
        <ele>356</ele>
        <time>2015-11-15T09:53:27.000Z</time>
      </trkpt>
      <trkpt lat="47.49319" lon="6.74823">
        <ele>357</ele>
        <time>2015-11-15T09:53:28.000Z</time>
      </trkpt>
      <trkpt lat="47.49319" lon="6.74818">
        <ele>357</ele>
        <time>2015-11-15T09:53:29.000Z</time>
      </trkpt>
      <trkpt lat="47.4932" lon="6.74813">
        <ele>358</ele>
        <time>2015-11-15T09:53:30.000Z</time>
      </trkpt>
      <trkpt lat="47.49321" lon="6.74809">
        <ele>358</ele>
        <time>2015-11-15T09:53:31.000Z</time>
      </trkpt>
      <trkpt lat="47.49321" lon="6.74804">
        <ele>359</ele>
        <time>2015-11-15T09:53:32.000Z</time>
      </trkpt>
      <trkpt lat="47.49321" lon="6.748">
        <ele>359</ele>
        <time>2015-11-15T09:53:33.000Z</time>
      </trkpt>
      <trkpt lat="47.49322" lon="6.74796">
        <ele>360</ele>
        <time>2015-11-15T09:53:34.000Z</time>
      </trkpt>
      <trkpt lat="47.49322" lon="6.74791">
        <ele>360</ele>
        <time>2015-11-15T09:53:35.000Z</time>
      </trkpt>
      <trkpt lat="47.49322" lon="6.74787">
        <ele>360</ele>
        <time>2015-11-15T09:53:36.000Z</time>
      </trkpt>
      <trkpt lat="47.49322" lon="6.74782">
        <ele>360</ele>
        <time>2015-11-15T09:53:37.000Z</time>
      </trkpt>
      <trkpt lat="47.49322" lon="6.74778">
        <ele>360</ele>
        <time>2015-11-15T09:53:38.000Z</time>
      </trkpt>
      <trkpt lat="47.49322" lon="6.74773">
        <ele>360</ele>
        <time>2015-11-15T09:53:39.000Z</time>
      </trkpt>
      <trkpt lat="47.49322" lon="6.74769">
        <ele>359</ele>
        <time>2015-11-15T09:53:40.000Z</time>
      </trkpt>
      <trkpt lat="47.49322" lon="6.74764">
        <ele>359</ele>
        <time>2015-11-15T09:53:41.000Z</time>
      </trkpt>
      <trkpt lat="47.49322" lon="6.74761">
        <ele>359</ele>
        <time>2015-11-15T09:53:42.000Z</time>
      </trkpt>
      <trkpt lat="47.49321" lon="6.74756">
        <ele>358</ele>
        <time>2015-11-15T09:53:43.000Z</time>
      </trkpt>
      <trkpt lat="47.49321" lon="6.74752">
        <ele>358</ele>
        <time>2015-11-15T09:53:44.000Z</time>
      </trkpt>
      <trkpt lat="47.4932" lon="6.74748">
        <ele>360</ele>
        <time>2015-11-15T09:53:45.000Z</time>
      </trkpt>
      <trkpt lat="47.4932" lon="6.74743">
        <ele>361</ele>
        <time>2015-11-15T09:53:46.000Z</time>
      </trkpt>
      <trkpt lat="47.4932" lon="6.74738">
        <ele>362</ele>
        <time>2015-11-15T09:53:47.000Z</time>
      </trkpt>
      <trkpt lat="47.49321" lon="6.74733">
        <ele>363</ele>
        <time>2015-11-15T09:53:48.000Z</time>
      </trkpt>
      <trkpt lat="47.49321" lon="6.74727">
        <ele>363</ele>
        <time>2015-11-15T09:53:49.000Z</time>
      </trkpt>
      <trkpt lat="47.49322" lon="6.74721">
        <ele>364</ele>
        <time>2015-11-15T09:53:50.000Z</time>
      </trkpt>
      <trkpt lat="47.49323" lon="6.74716">
        <ele>365</ele>
        <time>2015-11-15T09:53:51.000Z</time>
      </trkpt>
      <trkpt lat="47.49324" lon="6.74711">
        <ele>365</ele>
        <time>2015-11-15T09:53:52.000Z</time>
      </trkpt>
      <trkpt lat="47.49325" lon="6.74708">
        <ele>365</ele>
        <time>2015-11-15T09:53:53.000Z</time>
      </trkpt>
      <trkpt lat="47.49326" lon="6.74704">
        <ele>365</ele>
        <time>2015-11-15T09:53:54.000Z</time>
      </trkpt>
      <trkpt lat="47.49327" lon="6.74701">
        <ele>365</ele>
        <time>2015-11-15T09:53:55.000Z</time>
      </trkpt>
      <trkpt lat="47.49327" lon="6.74698">
        <ele>365</ele>
        <time>2015-11-15T09:53:56.000Z</time>
      </trkpt>
      <trkpt lat="47.49327" lon="6.74693">
        <ele>365</ele>
        <time>2015-11-15T09:53:57.000Z</time>
      </trkpt>
      <trkpt lat="47.49326" lon="6.74689">
        <ele>365</ele>
        <time>2015-11-15T09:53:58.000Z</time>
      </trkpt>
      <trkpt lat="47.49326" lon="6.74684">
        <ele>364</ele>
        <time>2015-11-15T09:53:59.000Z</time>
      </trkpt>
      <trkpt lat="47.49326" lon="6.7468">
        <ele>364</ele>
        <time>2015-11-15T09:54:00.000Z</time>
      </trkpt>
      <trkpt lat="47.49326" lon="6.74675">
        <ele>363</ele>
        <time>2015-11-15T09:54:01.000Z</time>
      </trkpt>
      <trkpt lat="47.49327" lon="6.74669">
        <ele>362</ele>
        <time>2015-11-15T09:54:02.000Z</time>
      </trkpt>
      <trkpt lat="47.49328" lon="6.74663">
        <ele>363</ele>
        <time>2015-11-15T09:54:03.000Z</time>
      </trkpt>
      <trkpt lat="47.49328" lon="6.74657">
        <ele>364</ele>
        <time>2015-11-15T09:54:04.000Z</time>
      </trkpt>
      <trkpt lat="47.49328" lon="6.74653">
        <ele>365</ele>
        <time>2015-11-15T09:54:05.000Z</time>
      </trkpt>
      <trkpt lat="47.49328" lon="6.74649">
        <ele>366</ele>
        <time>2015-11-15T09:54:06.000Z</time>
      </trkpt>
      <trkpt lat="47.49327" lon="6.74645">
        <ele>366</ele>
        <time>2015-11-15T09:54:07.000Z</time>
      </trkpt>
      <trkpt lat="47.49327" lon="6.74641">
        <ele>367</ele>
        <time>2015-11-15T09:54:08.000Z</time>
      </trkpt>
      <trkpt lat="47.49326" lon="6.74638">
        <ele>367</ele>
        <time>2015-11-15T09:54:09.000Z</time>
      </trkpt>
      <trkpt lat="47.49326" lon="6.74634">
        <ele>367</ele>
        <time>2015-11-15T09:54:10.000Z</time>
      </trkpt>
      <trkpt lat="47.49326" lon="6.7463">
        <ele>368</ele>
        <time>2015-11-15T09:54:11.000Z</time>
      </trkpt>
      <trkpt lat="47.49325" lon="6.74626">
        <ele>368</ele>
        <time>2015-11-15T09:54:12.000Z</time>
      </trkpt>
      <trkpt lat="47.49325" lon="6.74622">
        <ele>368</ele>
        <time>2015-11-15T09:54:13.000Z</time>
      </trkpt>
      <trkpt lat="47.49324" lon="6.74618">
        <ele>368</ele>
        <time>2015-11-15T09:54:14.000Z</time>
      </trkpt>
      <trkpt lat="47.49324" lon="6.74613">
        <ele>367</ele>
        <time>2015-11-15T09:54:15.000Z</time>
      </trkpt>
      <trkpt lat="47.49324" lon="6.74609">
        <ele>367</ele>
        <time>2015-11-15T09:54:16.000Z</time>
      </trkpt>
      <trkpt lat="47.49324" lon="6.74604">
        <ele>367</ele>
        <time>2015-11-15T09:54:17.000Z</time>
      </trkpt>
      <trkpt lat="47.49324" lon="6.746">
        <ele>366</ele>
        <time>2015-11-15T09:54:18.000Z</time>
      </trkpt>
      <trkpt lat="47.49325" lon="6.74596">
        <ele>365</ele>
        <time>2015-11-15T09:54:19.000Z</time>
      </trkpt>
      <trkpt lat="47.49325" lon="6.74592">
        <ele>365</ele>
        <time>2015-11-15T09:54:20.000Z</time>
      </trkpt>
      <trkpt lat="47.49325" lon="6.74586">
        <ele>364</ele>
        <time>2015-11-15T09:54:22.000Z</time>
      </trkpt>
      <trkpt lat="47.49325" lon="6.74582">
        <ele>364</ele>
        <time>2015-11-15T09:54:23.000Z</time>
      </trkpt>
      <trkpt lat="47.49326" lon="6.74578">
        <ele>364</ele>
        <time>2015-11-15T09:54:24.000Z</time>
      </trkpt>
      <trkpt lat="47.49326" lon="6.74573">
        <ele>365</ele>
        <time>2015-11-15T09:54:25.000Z</time>
      </trkpt>
      <trkpt lat="47.49327" lon="6.74568">
        <ele>366</ele>
        <time>2015-11-15T09:54:26.000Z</time>
      </trkpt>
      <trkpt lat="47.49328" lon="6.74563">
        <ele>367</ele>
        <time>2015-11-15T09:54:27.000Z</time>
      </trkpt>
      <trkpt lat="47.49328" lon="6.74559">
        <ele>367</ele>
        <time>2015-11-15T09:54:28.000Z</time>
      </trkpt>
      <trkpt lat="47.49329" lon="6.74554">
        <ele>368</ele>
        <time>2015-11-15T09:54:29.000Z</time>
      </trkpt>
      <trkpt lat="47.49329" lon="6.74549">
        <ele>368</ele>
        <time>2015-11-15T09:54:30.000Z</time>
      </trkpt>
      <trkpt lat="47.49329" lon="6.74544">
        <ele>368</ele>
        <time>2015-11-15T09:54:31.000Z</time>
      </trkpt>
      <trkpt lat="47.49329" lon="6.74539">
        <ele>369</ele>
        <time>2015-11-15T09:54:32.000Z</time>
      </trkpt>
      <trkpt lat="47.49329" lon="6.74534">
        <ele>368</ele>
        <time>2015-11-15T09:54:33.000Z</time>
      </trkpt>
      <trkpt lat="47.4933" lon="6.74529">
        <ele>368</ele>
        <time>2015-11-15T09:54:34.000Z</time>
      </trkpt>
      <trkpt lat="47.49332" lon="6.74523">
        <ele>368</ele>
        <time>2015-11-15T09:54:35.000Z</time>
      </trkpt>
      <trkpt lat="47.49333" lon="6.74517">
        <ele>367</ele>
        <time>2015-11-15T09:54:36.000Z</time>
      </trkpt>
      <trkpt lat="47.49334" lon="6.74511">
        <ele>359</ele>
        <time>2015-11-15T09:54:37.000Z</time>
      </trkpt>
      <trkpt lat="47.49335" lon="6.74504">
        <ele>361</ele>
        <time>2015-11-15T09:54:38.000Z</time>
      </trkpt>
      <trkpt lat="47.49335" lon="6.74498">
        <ele>361</ele>
        <time>2015-11-15T09:54:39.000Z</time>
      </trkpt>
      <trkpt lat="47.49335" lon="6.74492">
        <ele>360</ele>
        <time>2015-11-15T09:54:40.000Z</time>
      </trkpt>
      <trkpt lat="47.49335" lon="6.74486">
        <ele>359</ele>
        <time>2015-11-15T09:54:41.000Z</time>
      </trkpt>
      <trkpt lat="47.49336" lon="6.74481">
        <ele>359</ele>
        <time>2015-11-15T09:54:42.000Z</time>
      </trkpt>
      <trkpt lat="47.49336" lon="6.74476">
        <ele>358</ele>
        <time>2015-11-15T09:54:43.000Z</time>
      </trkpt>
      <trkpt lat="47.49336" lon="6.74471">
        <ele>358</ele>
        <time>2015-11-15T09:54:44.000Z</time>
      </trkpt>
      <trkpt lat="47.49336" lon="6.74465">
        <ele>358</ele>
        <time>2015-11-15T09:54:45.000Z</time>
      </trkpt>
      <trkpt lat="47.49336" lon="6.7446">
        <ele>358</ele>
        <time>2015-11-15T09:54:46.000Z</time>
      </trkpt>
      <trkpt lat="47.49336" lon="6.74454">
        <ele>358</ele>
        <time>2015-11-15T09:54:47.000Z</time>
      </trkpt>
      <trkpt lat="47.49336" lon="6.74449">
        <ele>358</ele>
        <time>2015-11-15T09:54:48.000Z</time>
      </trkpt>
      <trkpt lat="47.49337" lon="6.74444">
        <ele>358</ele>
        <time>2015-11-15T09:54:49.000Z</time>
      </trkpt>
      <trkpt lat="47.49338" lon="6.74439">
        <ele>359</ele>
        <time>2015-11-15T09:54:50.000Z</time>
      </trkpt>
      <trkpt lat="47.49338" lon="6.74434">
        <ele>359</ele>
        <time>2015-11-15T09:54:51.000Z</time>
      </trkpt>
      <trkpt lat="47.49339" lon="6.74429">
        <ele>360</ele>
        <time>2015-11-15T09:54:52.000Z</time>
      </trkpt>
      <trkpt lat="47.49339" lon="6.74424">
        <ele>361</ele>
        <time>2015-11-15T09:54:53.000Z</time>
      </trkpt>
      <trkpt lat="47.49339" lon="6.74419">
        <ele>362</ele>
        <time>2015-11-15T09:54:54.000Z</time>
      </trkpt>
      <trkpt lat="47.49339" lon="6.74414">
        <ele>362</ele>
        <time>2015-11-15T09:54:55.000Z</time>
      </trkpt>
      <trkpt lat="47.49339" lon="6.74404">
        <ele>361</ele>
        <time>2015-11-15T09:54:56.000Z</time>
      </trkpt>
      <trkpt lat="47.49339" lon="6.74399">
        <ele>360</ele>
        <time>2015-11-15T09:54:57.000Z</time>
      </trkpt>
      <trkpt lat="47.49338" lon="6.74394">
        <ele>360</ele>
        <time>2015-11-15T09:54:58.000Z</time>
      </trkpt>
      <trkpt lat="47.49337" lon="6.7439">
        <ele>359</ele>
        <time>2015-11-15T09:54:59.000Z</time>
      </trkpt>
      <trkpt lat="47.49336" lon="6.74386">
        <ele>359</ele>
        <time>2015-11-15T09:55:00.000Z</time>
      </trkpt>
      <trkpt lat="47.49335" lon="6.74382">
        <ele>359</ele>
        <time>2015-11-15T09:55:01.000Z</time>
      </trkpt>
      <trkpt lat="47.49334" lon="6.74379">
        <ele>359</ele>
        <time>2015-11-15T09:55:02.000Z</time>
      </trkpt>
      <trkpt lat="47.49337" lon="6.74373">
        <ele>359</ele>
        <time>2015-11-15T09:55:03.000Z</time>
      </trkpt>
      <trkpt lat="47.49338" lon="6.74367">
        <ele>359</ele>
        <time>2015-11-15T09:55:04.000Z</time>
      </trkpt>
      <trkpt lat="47.49338" lon="6.74361">
        <ele>360</ele>
        <time>2015-11-15T09:55:05.000Z</time>
      </trkpt>
      <trkpt lat="47.49339" lon="6.74356">
        <ele>360</ele>
        <time>2015-11-15T09:55:06.000Z</time>
      </trkpt>
      <trkpt lat="47.49339" lon="6.74351">
        <ele>361</ele>
        <time>2015-11-15T09:55:07.000Z</time>
      </trkpt>
      <trkpt lat="47.49339" lon="6.74346">
        <ele>362</ele>
        <time>2015-11-15T09:55:08.000Z</time>
      </trkpt>
      <trkpt lat="47.49339" lon="6.74341">
        <ele>363</ele>
        <time>2015-11-15T09:55:09.000Z</time>
      </trkpt>
      <trkpt lat="47.49339" lon="6.74336">
        <ele>364</ele>
        <time>2015-11-15T09:55:10.000Z</time>
      </trkpt>
      <trkpt lat="47.4934" lon="6.74331">
        <ele>364</ele>
        <time>2015-11-15T09:55:11.000Z</time>
      </trkpt>
      <trkpt lat="47.4934" lon="6.74326">
        <ele>364</ele>
        <time>2015-11-15T09:55:12.000Z</time>
      </trkpt>
      <trkpt lat="47.49341" lon="6.74321">
        <ele>363</ele>
        <time>2015-11-15T09:55:13.000Z</time>
      </trkpt>
      <trkpt lat="47.49342" lon="6.74315">
        <ele>362</ele>
        <time>2015-11-15T09:55:14.000Z</time>
      </trkpt>
      <trkpt lat="47.49343" lon="6.74309">
        <ele>361</ele>
        <time>2015-11-15T09:55:15.000Z</time>
      </trkpt>
      <trkpt lat="47.49344" lon="6.74303">
        <ele>360</ele>
        <time>2015-11-15T09:55:16.000Z</time>
      </trkpt>
      <trkpt lat="47.49345" lon="6.74297">
        <ele>360</ele>
        <time>2015-11-15T09:55:17.000Z</time>
      </trkpt>
      <trkpt lat="47.49346" lon="6.74291">
        <ele>360</ele>
        <time>2015-11-15T09:55:18.000Z</time>
      </trkpt>
      <trkpt lat="47.49346" lon="6.74286">
        <ele>360</ele>
        <time>2015-11-15T09:55:19.000Z</time>
      </trkpt>
      <trkpt lat="47.49346" lon="6.74281">
        <ele>361</ele>
        <time>2015-11-15T09:55:20.000Z</time>
      </trkpt>
      <trkpt lat="47.49346" lon="6.74276">
        <ele>361</ele>
        <time>2015-11-15T09:55:21.000Z</time>
      </trkpt>
      <trkpt lat="47.49346" lon="6.74271">
        <ele>362</ele>
        <time>2015-11-15T09:55:22.000Z</time>
      </trkpt>
      <trkpt lat="47.49347" lon="6.74265">
        <ele>362</ele>
        <time>2015-11-15T09:55:23.000Z</time>
      </trkpt>
      <trkpt lat="47.49348" lon="6.74259">
        <ele>363</ele>
        <time>2015-11-15T09:55:24.000Z</time>
      </trkpt>
      <trkpt lat="47.49353" lon="6.74247">
        <ele>363</ele>
        <time>2015-11-15T09:55:25.000Z</time>
      </trkpt>
      <trkpt lat="47.49355" lon="6.74242">
        <ele>362</ele>
        <time>2015-11-15T09:55:26.000Z</time>
      </trkpt>
      <trkpt lat="47.49356" lon="6.74233">
        <ele>361</ele>
        <time>2015-11-15T09:55:27.000Z</time>
      </trkpt>
      <trkpt lat="47.49357" lon="6.74225">
        <ele>361</ele>
        <time>2015-11-15T09:55:28.000Z</time>
      </trkpt>
      <trkpt lat="47.4936" lon="6.74215">
        <ele>360</ele>
        <time>2015-11-15T09:55:29.000Z</time>
      </trkpt>
      <trkpt lat="47.49361" lon="6.74208">
        <ele>360</ele>
        <time>2015-11-15T09:55:30.000Z</time>
      </trkpt>
      <trkpt lat="47.49363" lon="6.74198">
        <ele>360</ele>
        <time>2015-11-15T09:55:31.000Z</time>
      </trkpt>
      <trkpt lat="47.49365" lon="6.74191">
        <ele>360</ele>
        <time>2015-11-15T09:55:32.000Z</time>
      </trkpt>
      <trkpt lat="47.49366" lon="6.74183">
        <ele>360</ele>
        <time>2015-11-15T09:55:33.000Z</time>
      </trkpt>
      <trkpt lat="47.49366" lon="6.74172">
        <ele>360</ele>
        <time>2015-11-15T09:55:34.000Z</time>
      </trkpt>
      <trkpt lat="47.49368" lon="6.7416">
        <ele>360</ele>
        <time>2015-11-15T09:55:35.000Z</time>
      </trkpt>
      <trkpt lat="47.4937" lon="6.7415">
        <ele>359</ele>
        <time>2015-11-15T09:55:36.000Z</time>
      </trkpt>
      <trkpt lat="47.49372" lon="6.74141">
        <ele>358</ele>
        <time>2015-11-15T09:55:37.000Z</time>
      </trkpt>
      <trkpt lat="47.49374" lon="6.74132">
        <ele>358</ele>
        <time>2015-11-15T09:55:38.000Z</time>
      </trkpt>
      <trkpt lat="47.49377" lon="6.74119">
        <ele>357</ele>
        <time>2015-11-15T09:55:39.000Z</time>
      </trkpt>
      <trkpt lat="47.49379" lon="6.74109">
        <ele>357</ele>
        <time>2015-11-15T09:55:40.000Z</time>
      </trkpt>
      <trkpt lat="47.49382" lon="6.74097">
        <ele>356</ele>
        <time>2015-11-15T09:55:41.000Z</time>
      </trkpt>
      <trkpt lat="47.49385" lon="6.74088">
        <ele>356</ele>
        <time>2015-11-15T09:55:42.000Z</time>
      </trkpt>
      <trkpt lat="47.49388" lon="6.74078">
        <ele>354</ele>
        <time>2015-11-15T09:55:43.000Z</time>
      </trkpt>
      <trkpt lat="47.4939" lon="6.74069">
        <ele>354</ele>
        <time>2015-11-15T09:55:44.000Z</time>
      </trkpt>
      <trkpt lat="47.49392" lon="6.74062">
        <ele>354</ele>
        <time>2015-11-15T09:55:45.000Z</time>
      </trkpt>
      <trkpt lat="47.49393" lon="6.74058">
        <ele>354</ele>
        <time>2015-11-15T09:55:46.000Z</time>
      </trkpt>
      <trkpt lat="47.49394" lon="6.74055">
        <ele>354</ele>
        <time>2015-11-15T09:55:47.000Z</time>
      </trkpt>
      <trkpt lat="47.49396" lon="6.74051">
        <ele>354</ele>
        <time>2015-11-15T09:55:54.000Z</time>
      </trkpt>
      <trkpt lat="47.49396" lon="6.74048">
        <ele>354</ele>
        <time>2015-11-15T09:55:55.000Z</time>
      </trkpt>
      <trkpt lat="47.49395" lon="6.74044">
        <ele>354</ele>
        <time>2015-11-15T09:55:59.000Z</time>
      </trkpt>
      <trkpt lat="47.49394" lon="6.74042">
        <ele>354</ele>
        <time>2015-11-15T09:56:00.000Z</time>
      </trkpt>
      <trkpt lat="47.49394" lon="6.74036">
        <ele>354</ele>
        <time>2015-11-15T09:56:03.000Z</time>
      </trkpt>
      <trkpt lat="47.49394" lon="6.74034">
        <ele>354</ele>
        <time>2015-11-15T09:56:04.000Z</time>
      </trkpt>
      <trkpt lat="47.49393" lon="6.74029">
        <ele>354</ele>
        <time>2015-11-15T09:56:06.000Z</time>
      </trkpt>
      <trkpt lat="47.49393" lon="6.74026">
        <ele>354</ele>
        <time>2015-11-15T09:56:07.000Z</time>
      </trkpt>
      <trkpt lat="47.49392" lon="6.7402">
        <ele>354</ele>
        <time>2015-11-15T09:56:09.000Z</time>
      </trkpt>
      <trkpt lat="47.49391" lon="6.74017">
        <ele>354</ele>
        <time>2015-11-15T09:56:10.000Z</time>
      </trkpt>
      <trkpt lat="47.4939" lon="6.74014">
        <ele>354</ele>
        <time>2015-11-15T09:56:11.000Z</time>
      </trkpt>
      <trkpt lat="47.49389" lon="6.74011">
        <ele>354</ele>
        <time>2015-11-15T09:56:12.000Z</time>
      </trkpt>
      <trkpt lat="47.49386" lon="6.74005">
        <ele>355</ele>
        <time>2015-11-15T09:56:14.000Z</time>
      </trkpt>
      <trkpt lat="47.49385" lon="6.74002">
        <ele>355</ele>
        <time>2015-11-15T09:56:15.000Z</time>
      </trkpt>
      <trkpt lat="47.49385" lon="6.73999">
        <ele>353</ele>
        <time>2015-11-15T09:56:16.000Z</time>
      </trkpt>
      <trkpt lat="47.49384" lon="6.73995">
        <ele>353</ele>
        <time>2015-11-15T09:56:17.000Z</time>
      </trkpt>
      <trkpt lat="47.49383" lon="6.7399">
        <ele>354</ele>
        <time>2015-11-15T09:56:18.000Z</time>
      </trkpt>
      <trkpt lat="47.49382" lon="6.73986">
        <ele>354</ele>
        <time>2015-11-15T09:56:19.000Z</time>
      </trkpt>
      <trkpt lat="47.4938" lon="6.73982">
        <ele>354</ele>
        <time>2015-11-15T09:56:20.000Z</time>
      </trkpt>
      <trkpt lat="47.49378" lon="6.73977">
        <ele>354</ele>
        <time>2015-11-15T09:56:21.000Z</time>
      </trkpt>
      <trkpt lat="47.49376" lon="6.73973">
        <ele>354</ele>
        <time>2015-11-15T09:56:22.000Z</time>
      </trkpt>
      <trkpt lat="47.49374" lon="6.73969">
        <ele>354</ele>
        <time>2015-11-15T09:56:23.000Z</time>
      </trkpt>
      <trkpt lat="47.49372" lon="6.73965">
        <ele>354</ele>
        <time>2015-11-15T09:56:24.000Z</time>
      </trkpt>
      <trkpt lat="47.4937" lon="6.73962">
        <ele>354</ele>
        <time>2015-11-15T09:56:25.000Z</time>
      </trkpt>
      <trkpt lat="47.49368" lon="6.73958">
        <ele>355</ele>
        <time>2015-11-15T09:56:26.000Z</time>
      </trkpt>
      <trkpt lat="47.49366" lon="6.73954">
        <ele>355</ele>
        <time>2015-11-15T09:56:27.000Z</time>
      </trkpt>
      <trkpt lat="47.49363" lon="6.7395">
        <ele>355</ele>
        <time>2015-11-15T09:56:28.000Z</time>
      </trkpt>
      <trkpt lat="47.49361" lon="6.73946">
        <ele>355</ele>
        <time>2015-11-15T09:56:29.000Z</time>
      </trkpt>
      <trkpt lat="47.49359" lon="6.73941">
        <ele>355</ele>
        <time>2015-11-15T09:56:30.000Z</time>
      </trkpt>
      <trkpt lat="47.49357" lon="6.73936">
        <ele>355</ele>
        <time>2015-11-15T09:56:31.000Z</time>
      </trkpt>
      <trkpt lat="47.49355" lon="6.73931">
        <ele>356</ele>
        <time>2015-11-15T09:56:32.000Z</time>
      </trkpt>
      <trkpt lat="47.49353" lon="6.73927">
        <ele>356</ele>
        <time>2015-11-15T09:56:33.000Z</time>
      </trkpt>
      <trkpt lat="47.49351" lon="6.73924">
        <ele>356</ele>
        <time>2015-11-15T09:56:34.000Z</time>
      </trkpt>
      <trkpt lat="47.49349" lon="6.7392">
        <ele>356</ele>
        <time>2015-11-15T09:56:35.000Z</time>
      </trkpt>
      <trkpt lat="47.49347" lon="6.73916">
        <ele>355</ele>
        <time>2015-11-15T09:56:36.000Z</time>
      </trkpt>
      <trkpt lat="47.49336" lon="6.739">
        <ele>355</ele>
        <time>2015-11-15T09:56:37.000Z</time>
      </trkpt>
      <trkpt lat="47.49331" lon="6.7389">
        <ele>358</ele>
        <time>2015-11-15T09:56:38.000Z</time>
      </trkpt>
      <trkpt lat="47.49326" lon="6.73882">
        <ele>358</ele>
        <time>2015-11-15T09:56:39.000Z</time>
      </trkpt>
      <trkpt lat="47.49321" lon="6.73872">
        <ele>358</ele>
        <time>2015-11-15T09:56:40.000Z</time>
      </trkpt>
      <trkpt lat="47.49317" lon="6.73863">
        <ele>358</ele>
        <time>2015-11-15T09:56:41.000Z</time>
      </trkpt>
      <trkpt lat="47.49313" lon="6.73855">
        <ele>357</ele>
        <time>2015-11-15T09:56:42.000Z</time>
      </trkpt>
      <trkpt lat="47.49309" lon="6.73851">
        <ele>357</ele>
        <time>2015-11-15T09:56:43.000Z</time>
      </trkpt>
      <trkpt lat="47.49305" lon="6.73847">
        <ele>357</ele>
        <time>2015-11-15T09:56:44.000Z</time>
      </trkpt>
      <trkpt lat="47.49303" lon="6.73844">
        <ele>357</ele>
        <time>2015-11-15T09:56:45.000Z</time>
      </trkpt>
      <trkpt lat="47.49301" lon="6.73841">
        <ele>357</ele>
        <time>2015-11-15T09:56:46.000Z</time>
      </trkpt>
      <trkpt lat="47.493" lon="6.73834">
        <ele>357</ele>
        <time>2015-11-15T09:56:47.000Z</time>
      </trkpt>
      <trkpt lat="47.49298" lon="6.73829">
        <ele>356</ele>
        <time>2015-11-15T09:56:48.000Z</time>
      </trkpt>
      <trkpt lat="47.49296" lon="6.73826">
        <ele>356</ele>
        <time>2015-11-15T09:56:49.000Z</time>
      </trkpt>
      <trkpt lat="47.49293" lon="6.73826">
        <ele>356</ele>
        <time>2015-11-15T09:56:51.000Z</time>
      </trkpt>
      <trkpt lat="47.49291" lon="6.73825">
        <ele>357</ele>
        <time>2015-11-15T09:56:52.000Z</time>
      </trkpt>
      <trkpt lat="47.49288" lon="6.73821">
        <ele>357</ele>
        <time>2015-11-15T09:56:55.000Z</time>
      </trkpt>
      <trkpt lat="47.49286" lon="6.7382">
        <ele>357</ele>
        <time>2015-11-15T09:56:56.000Z</time>
      </trkpt>
      <trkpt lat="47.49283" lon="6.73817">
        <ele>357</ele>
        <time>2015-11-15T09:56:58.000Z</time>
      </trkpt>
      <trkpt lat="47.49282" lon="6.73816">
        <ele>357</ele>
        <time>2015-11-15T09:56:59.000Z</time>
      </trkpt>
      <trkpt lat="47.4928" lon="6.7381">
        <ele>357</ele>
        <time>2015-11-15T09:58:06.000Z</time>
      </trkpt>
      <trkpt lat="47.49278" lon="6.73808">
        <ele>357</ele>
        <time>2015-11-15T09:58:07.000Z</time>
      </trkpt>
      <trkpt lat="47.49276" lon="6.73806">
        <ele>357</ele>
        <time>2015-11-15T09:58:08.000Z</time>
      </trkpt>
      <trkpt lat="47.49273" lon="6.73804">
        <ele>357</ele>
        <time>2015-11-15T09:58:09.000Z</time>
      </trkpt>
      <trkpt lat="47.4927" lon="6.73802">
        <ele>357</ele>
        <time>2015-11-15T09:58:10.000Z</time>
      </trkpt>
      <trkpt lat="47.49267" lon="6.73799">
        <ele>357</ele>
        <time>2015-11-15T09:58:11.000Z</time>
      </trkpt>
      <trkpt lat="47.49263" lon="6.73797">
        <ele>357</ele>
        <time>2015-11-15T09:58:12.000Z</time>
      </trkpt>
      <trkpt lat="47.49261" lon="6.73795">
        <ele>357</ele>
        <time>2015-11-15T09:58:13.000Z</time>
      </trkpt>
      <trkpt lat="47.49258" lon="6.73794">
        <ele>357</ele>
        <time>2015-11-15T09:58:14.000Z</time>
      </trkpt>
      <trkpt lat="47.49255" lon="6.73792">
        <ele>357</ele>
        <time>2015-11-15T09:58:15.000Z</time>
      </trkpt>
      <trkpt lat="47.49252" lon="6.7379">
        <ele>357</ele>
        <time>2015-11-15T09:58:16.000Z</time>
      </trkpt>
      <trkpt lat="47.49249" lon="6.73788">
        <ele>361</ele>
        <time>2015-11-15T09:58:17.000Z</time>
      </trkpt>
      <trkpt lat="47.49246" lon="6.73786">
        <ele>361</ele>
        <time>2015-11-15T09:58:18.000Z</time>
      </trkpt>
      <trkpt lat="47.49243" lon="6.73784">
        <ele>361</ele>
        <time>2015-11-15T09:58:19.000Z</time>
      </trkpt>
      <trkpt lat="47.4924" lon="6.73782">
        <ele>361</ele>
        <time>2015-11-15T09:58:20.000Z</time>
      </trkpt>
      <trkpt lat="47.49237" lon="6.73781">
        <ele>361</ele>
        <time>2015-11-15T09:58:21.000Z</time>
      </trkpt>
      <trkpt lat="47.49233" lon="6.7378">
        <ele>361</ele>
        <time>2015-11-15T09:58:22.000Z</time>
      </trkpt>
      <trkpt lat="47.4923" lon="6.73779">
        <ele>361</ele>
        <time>2015-11-15T09:58:23.000Z</time>
      </trkpt>
      <trkpt lat="47.49226" lon="6.73777">
        <ele>361</ele>
        <time>2015-11-15T09:58:24.000Z</time>
      </trkpt>
      <trkpt lat="47.49223" lon="6.73776">
        <ele>361</ele>
        <time>2015-11-15T09:58:25.000Z</time>
      </trkpt>
      <trkpt lat="47.49219" lon="6.73775">
        <ele>361</ele>
        <time>2015-11-15T09:58:26.000Z</time>
      </trkpt>
      <trkpt lat="47.49216" lon="6.73774">
        <ele>361</ele>
        <time>2015-11-15T09:58:27.000Z</time>
      </trkpt>
      <trkpt lat="47.49213" lon="6.73773">
        <ele>361</ele>
        <time>2015-11-15T09:58:28.000Z</time>
      </trkpt>
      <trkpt lat="47.4921" lon="6.73771">
        <ele>362</ele>
        <time>2015-11-15T09:58:29.000Z</time>
      </trkpt>
      <trkpt lat="47.49208" lon="6.7377">
        <ele>362</ele>
        <time>2015-11-15T09:58:30.000Z</time>
      </trkpt>
      <trkpt lat="47.49205" lon="6.73768">
        <ele>362</ele>
        <time>2015-11-15T09:58:31.000Z</time>
      </trkpt>
      <trkpt lat="47.49202" lon="6.73767">
        <ele>362</ele>
        <time>2015-11-15T09:58:32.000Z</time>
      </trkpt>
      <trkpt lat="47.49199" lon="6.73765">
        <ele>362</ele>
        <time>2015-11-15T09:58:33.000Z</time>
      </trkpt>
      <trkpt lat="47.49196" lon="6.73764">
        <ele>362</ele>
        <time>2015-11-15T09:58:34.000Z</time>
      </trkpt>
      <trkpt lat="47.49193" lon="6.73762">
        <ele>362</ele>
        <time>2015-11-15T09:58:35.000Z</time>
      </trkpt>
      <trkpt lat="47.49189" lon="6.73761">
        <ele>363</ele>
        <time>2015-11-15T09:58:36.000Z</time>
      </trkpt>
      <trkpt lat="47.49186" lon="6.7376">
        <ele>363</ele>
        <time>2015-11-15T09:58:37.000Z</time>
      </trkpt>
      <trkpt lat="47.49183" lon="6.73759">
        <ele>363</ele>
        <time>2015-11-15T09:58:38.000Z</time>
      </trkpt>
      <trkpt lat="47.4918" lon="6.73758">
        <ele>363</ele>
        <time>2015-11-15T09:58:39.000Z</time>
      </trkpt>
      <trkpt lat="47.49178" lon="6.73757">
        <ele>363</ele>
        <time>2015-11-15T09:58:40.000Z</time>
      </trkpt>
      <trkpt lat="47.49176" lon="6.73756">
        <ele>363</ele>
        <time>2015-11-15T09:58:41.000Z</time>
      </trkpt>
      <trkpt lat="47.49173" lon="6.73759">
        <ele>363</ele>
        <time>2015-11-15T09:58:43.000Z</time>
      </trkpt>
      <trkpt lat="47.49171" lon="6.73761">
        <ele>363</ele>
        <time>2015-11-15T09:58:44.000Z</time>
      </trkpt>
      <trkpt lat="47.49168" lon="6.73762">
        <ele>363</ele>
        <time>2015-11-15T09:58:45.000Z</time>
      </trkpt>
      <trkpt lat="47.49165" lon="6.73761">
        <ele>365</ele>
        <time>2015-11-15T09:58:46.000Z</time>
      </trkpt>
      <trkpt lat="47.49162" lon="6.7376">
        <ele>365</ele>
        <time>2015-11-15T09:58:47.000Z</time>
      </trkpt>
      <trkpt lat="47.49159" lon="6.73758">
        <ele>365</ele>
        <time>2015-11-15T09:58:48.000Z</time>
      </trkpt>
      <trkpt lat="47.49156" lon="6.73756">
        <ele>365</ele>
        <time>2015-11-15T09:58:49.000Z</time>
      </trkpt>
      <trkpt lat="47.49153" lon="6.73755">
        <ele>365</ele>
        <time>2015-11-15T09:58:50.000Z</time>
      </trkpt>
      <trkpt lat="47.4915" lon="6.73753">
        <ele>365</ele>
        <time>2015-11-15T09:58:51.000Z</time>
      </trkpt>
      <trkpt lat="47.49147" lon="6.73752">
        <ele>365</ele>
        <time>2015-11-15T09:58:52.000Z</time>
      </trkpt>
      <trkpt lat="47.49145" lon="6.73751">
        <ele>365</ele>
        <time>2015-11-15T09:58:53.000Z</time>
      </trkpt>
      <trkpt lat="47.49142" lon="6.7375">
        <ele>366</ele>
        <time>2015-11-15T09:58:54.000Z</time>
      </trkpt>
      <trkpt lat="47.49139" lon="6.73748">
        <ele>366</ele>
        <time>2015-11-15T09:58:55.000Z</time>
      </trkpt>
      <trkpt lat="47.49137" lon="6.73747">
        <ele>366</ele>
        <time>2015-11-15T09:58:56.000Z</time>
      </trkpt>
      <trkpt lat="47.49134" lon="6.73745">
        <ele>366</ele>
        <time>2015-11-15T09:58:57.000Z</time>
      </trkpt>
      <trkpt lat="47.49132" lon="6.73744">
        <ele>366</ele>
        <time>2015-11-15T09:58:58.000Z</time>
      </trkpt>
      <trkpt lat="47.49129" lon="6.73742">
        <ele>366</ele>
        <time>2015-11-15T09:58:59.000Z</time>
      </trkpt>
      <trkpt lat="47.49127" lon="6.73741">
        <ele>366</ele>
        <time>2015-11-15T09:59:00.000Z</time>
      </trkpt>
      <trkpt lat="47.49124" lon="6.73739">
        <ele>366</ele>
        <time>2015-11-15T09:59:01.000Z</time>
      </trkpt>
      <trkpt lat="47.49122" lon="6.73737">
        <ele>366</ele>
        <time>2015-11-15T09:59:02.000Z</time>
      </trkpt>
      <trkpt lat="47.49118" lon="6.73734">
        <ele>366</ele>
        <time>2015-11-15T09:59:04.000Z</time>
      </trkpt>
      <trkpt lat="47.49116" lon="6.73733">
        <ele>366</ele>
        <time>2015-11-15T09:59:05.000Z</time>
      </trkpt>
      <trkpt lat="47.49112" lon="6.7373">
        <ele>366</ele>
        <time>2015-11-15T09:59:07.000Z</time>
      </trkpt>
      <trkpt lat="47.49111" lon="6.73729">
        <ele>366</ele>
        <time>2015-11-15T09:59:08.000Z</time>
      </trkpt>
      <trkpt lat="47.49108" lon="6.73728">
        <ele>366</ele>
        <time>2015-11-15T09:59:10.000Z</time>
      </trkpt>
      <trkpt lat="47.49106" lon="6.73728">
        <ele>366</ele>
        <time>2015-11-15T09:59:11.000Z</time>
      </trkpt>
      <trkpt lat="47.49103" lon="6.73726">
        <ele>366</ele>
        <time>2015-11-15T09:59:13.000Z</time>
      </trkpt>
      <trkpt lat="47.49102" lon="6.73724">
        <ele>366</ele>
        <time>2015-11-15T09:59:14.000Z</time>
      </trkpt>
      <trkpt lat="47.49099" lon="6.73721">
        <ele>366</ele>
        <time>2015-11-15T09:59:16.000Z</time>
      </trkpt>
      <trkpt lat="47.49097" lon="6.73719">
        <ele>366</ele>
        <time>2015-11-15T09:59:17.000Z</time>
      </trkpt>
      <trkpt lat="47.49094" lon="6.73717">
        <ele>366</ele>
        <time>2015-11-15T09:59:19.000Z</time>
      </trkpt>
      <trkpt lat="47.49092" lon="6.73715">
        <ele>366</ele>
        <time>2015-11-15T09:59:20.000Z</time>
      </trkpt>
      <trkpt lat="47.49091" lon="6.73711">
        <ele>367</ele>
        <time>2015-11-15T09:59:22.000Z</time>
      </trkpt>
      <trkpt lat="47.4909" lon="6.73709">
        <ele>367</ele>
        <time>2015-11-15T09:59:23.000Z</time>
      </trkpt>
      <trkpt lat="47.49087" lon="6.73705">
        <ele>367</ele>
        <time>2015-11-15T09:59:25.000Z</time>
      </trkpt>
      <trkpt lat="47.49085" lon="6.73703">
        <ele>367</ele>
        <time>2015-11-15T09:59:26.000Z</time>
      </trkpt>
      <trkpt lat="47.49082" lon="6.73699">
        <ele>369</ele>
        <time>2015-11-15T09:59:28.000Z</time>
      </trkpt>
      <trkpt lat="47.4908" lon="6.73698">
        <ele>369</ele>
        <time>2015-11-15T09:59:29.000Z</time>
      </trkpt>
      <trkpt lat="47.49077" lon="6.73696">
        <ele>369</ele>
        <time>2015-11-15T09:59:31.000Z</time>
      </trkpt>
      <trkpt lat="47.49076" lon="6.73694">
        <ele>369</ele>
        <time>2015-11-15T09:59:32.000Z</time>
      </trkpt>
      <trkpt lat="47.49073" lon="6.73692">
        <ele>369</ele>
        <time>2015-11-15T09:59:34.000Z</time>
      </trkpt>
      <trkpt lat="47.49071" lon="6.7369">
        <ele>369</ele>
        <time>2015-11-15T09:59:35.000Z</time>
      </trkpt>
      <trkpt lat="47.49068" lon="6.73689">
        <ele>369</ele>
        <time>2015-11-15T09:59:37.000Z</time>
      </trkpt>
      <trkpt lat="47.49066" lon="6.73688">
        <ele>369</ele>
        <time>2015-11-15T09:59:38.000Z</time>
      </trkpt>
      <trkpt lat="47.49062" lon="6.73687">
        <ele>369</ele>
        <time>2015-11-15T09:59:40.000Z</time>
      </trkpt>
      <trkpt lat="47.4906" lon="6.73687">
        <ele>369</ele>
        <time>2015-11-15T09:59:41.000Z</time>
      </trkpt>
      <trkpt lat="47.49057" lon="6.73687">
        <ele>370</ele>
        <time>2015-11-15T09:59:43.000Z</time>
      </trkpt>
      <trkpt lat="47.49055" lon="6.73686">
        <ele>370</ele>
        <time>2015-11-15T09:59:44.000Z</time>
      </trkpt>
      <trkpt lat="47.49052" lon="6.73684">
        <ele>370</ele>
        <time>2015-11-15T09:59:46.000Z</time>
      </trkpt>
      <trkpt lat="47.49051" lon="6.73682">
        <ele>370</ele>
        <time>2015-11-15T09:59:47.000Z</time>
      </trkpt>
      <trkpt lat="47.49047" lon="6.7368">
        <ele>370</ele>
        <time>2015-11-15T09:59:49.000Z</time>
      </trkpt>
      <trkpt lat="47.49045" lon="6.73679">
        <ele>370</ele>
        <time>2015-11-15T09:59:50.000Z</time>
      </trkpt>
      <trkpt lat="47.49041" lon="6.73677">
        <ele>370</ele>
        <time>2015-11-15T09:59:59.000Z</time>
      </trkpt>
      <trkpt lat="47.4904" lon="6.73678">
        <ele>370</ele>
        <time>2015-11-15T10:00:00.000Z</time>
      </trkpt>
      <trkpt lat="47.49036" lon="6.73678">
        <ele>370</ele>
        <time>2015-11-15T10:00:02.000Z</time>
      </trkpt>
      <trkpt lat="47.49034" lon="6.73678">
        <ele>370</ele>
        <time>2015-11-15T10:00:03.000Z</time>
      </trkpt>
      <trkpt lat="47.49031" lon="6.73676">
        <ele>371</ele>
        <time>2015-11-15T10:00:05.000Z</time>
      </trkpt>
      <trkpt lat="47.49029" lon="6.73675">
        <ele>371</ele>
        <time>2015-11-15T10:00:06.000Z</time>
      </trkpt>
      <trkpt lat="47.49025" lon="6.73672">
        <ele>371</ele>
        <time>2015-11-15T10:00:08.000Z</time>
      </trkpt>
      <trkpt lat="47.49024" lon="6.73671">
        <ele>371</ele>
        <time>2015-11-15T10:00:09.000Z</time>
      </trkpt>
      <trkpt lat="47.4902" lon="6.7367">
        <ele>371</ele>
        <time>2015-11-15T10:00:12.000Z</time>
      </trkpt>
      <trkpt lat="47.49018" lon="6.73669">
        <ele>371</ele>
        <time>2015-11-15T10:00:13.000Z</time>
      </trkpt>
      <trkpt lat="47.49015" lon="6.73669">
        <ele>372</ele>
        <time>2015-11-15T10:00:16.000Z</time>
      </trkpt>
      <trkpt lat="47.49014" lon="6.73668">
        <ele>372</ele>
        <time>2015-11-15T10:00:17.000Z</time>
      </trkpt>
      <trkpt lat="47.4901" lon="6.73666">
        <ele>373</ele>
        <time>2015-11-15T10:00:20.000Z</time>
      </trkpt>
      <trkpt lat="47.49009" lon="6.73665">
        <ele>373</ele>
        <time>2015-11-15T10:00:21.000Z</time>
      </trkpt>
      <trkpt lat="47.49005" lon="6.73666">
        <ele>373</ele>
        <time>2015-11-15T10:00:25.000Z</time>
      </trkpt>
      <trkpt lat="47.49004" lon="6.73666">
        <ele>373</ele>
        <time>2015-11-15T10:00:26.000Z</time>
      </trkpt>
      <trkpt lat="47.49001" lon="6.73663">
        <ele>373</ele>
        <time>2015-11-15T10:00:30.000Z</time>
      </trkpt>
      <trkpt lat="47.48999" lon="6.73662">
        <ele>374</ele>
        <time>2015-11-15T10:00:31.000Z</time>
      </trkpt>
      <trkpt lat="47.48995" lon="6.73662">
        <ele>374</ele>
        <time>2015-11-15T10:00:34.000Z</time>
      </trkpt>
      <trkpt lat="47.48993" lon="6.73662">
        <ele>374</ele>
        <time>2015-11-15T10:00:35.000Z</time>
      </trkpt>
      <trkpt lat="47.4899" lon="6.7366">
        <ele>375</ele>
        <time>2015-11-15T10:00:38.000Z</time>
      </trkpt>
      <trkpt lat="47.48989" lon="6.7366">
        <ele>375</ele>
        <time>2015-11-15T10:00:39.000Z</time>
      </trkpt>
      <trkpt lat="47.48984" lon="6.7366">
        <ele>375</ele>
        <time>2015-11-15T10:00:42.000Z</time>
      </trkpt>
      <trkpt lat="47.48982" lon="6.7366">
        <ele>375</ele>
        <time>2015-11-15T10:00:43.000Z</time>
      </trkpt>
      <trkpt lat="47.48978" lon="6.73659">
        <ele>375</ele>
        <time>2015-11-15T10:00:45.000Z</time>
      </trkpt>
      <trkpt lat="47.48976" lon="6.73659">
        <ele>376</ele>
        <time>2015-11-15T10:00:46.000Z</time>
      </trkpt>
      <trkpt lat="47.48972" lon="6.73658">
        <ele>376</ele>
        <time>2015-11-15T10:00:48.000Z</time>
      </trkpt>
      <trkpt lat="47.4897" lon="6.73658">
        <ele>376</ele>
        <time>2015-11-15T10:00:49.000Z</time>
      </trkpt>
      <trkpt lat="47.48966" lon="6.73657">
        <ele>376</ele>
        <time>2015-11-15T10:00:51.000Z</time>
      </trkpt>
      <trkpt lat="47.48964" lon="6.73656">
        <ele>376</ele>
        <time>2015-11-15T10:00:52.000Z</time>
      </trkpt>
      <trkpt lat="47.4896" lon="6.73655">
        <ele>377</ele>
        <time>2015-11-15T10:00:54.000Z</time>
      </trkpt>
      <trkpt lat="47.48958" lon="6.73654">
        <ele>377</ele>
        <time>2015-11-15T10:00:55.000Z</time>
      </trkpt>
      <trkpt lat="47.48954" lon="6.73653">
        <ele>377</ele>
        <time>2015-11-15T10:00:57.000Z</time>
      </trkpt>
      <trkpt lat="47.48952" lon="6.73653">
        <ele>377</ele>
        <time>2015-11-15T10:00:58.000Z</time>
      </trkpt>
      <trkpt lat="47.48948" lon="6.73652">
        <ele>377</ele>
        <time>2015-11-15T10:01:01.000Z</time>
      </trkpt>
      <trkpt lat="47.48946" lon="6.73652">
        <ele>377</ele>
        <time>2015-11-15T10:01:02.000Z</time>
      </trkpt>
      <trkpt lat="47.48943" lon="6.73652">
        <ele>377</ele>
        <time>2015-11-15T10:01:04.000Z</time>
      </trkpt>
      <trkpt lat="47.48941" lon="6.73652">
        <ele>378</ele>
        <time>2015-11-15T10:01:05.000Z</time>
      </trkpt>
      <trkpt lat="47.48938" lon="6.73652">
        <ele>378</ele>
        <time>2015-11-15T10:01:08.000Z</time>
      </trkpt>
      <trkpt lat="47.48937" lon="6.73651">
        <ele>378</ele>
        <time>2015-11-15T10:01:09.000Z</time>
      </trkpt>
      <trkpt lat="47.48933" lon="6.73649">
        <ele>378</ele>
        <time>2015-11-15T10:01:38.000Z</time>
      </trkpt>
      <trkpt lat="47.48933" lon="6.73648">
        <ele>378</ele>
        <time>2015-11-15T10:01:39.000Z</time>
      </trkpt>
      <trkpt lat="47.48929" lon="6.73648">
        <ele>378</ele>
        <time>2015-11-15T10:01:42.000Z</time>
      </trkpt>
      <trkpt lat="47.48928" lon="6.73648">
        <ele>378</ele>
        <time>2015-11-15T10:01:43.000Z</time>
      </trkpt>
      <trkpt lat="47.48924" lon="6.73646">
        <ele>378</ele>
        <time>2015-11-15T10:01:46.000Z</time>
      </trkpt>
      <trkpt lat="47.48923" lon="6.73644">
        <ele>378</ele>
        <time>2015-11-15T10:01:47.000Z</time>
      </trkpt>
      <trkpt lat="47.4892" lon="6.73642">
        <ele>378</ele>
        <time>2015-11-15T10:01:50.000Z</time>
      </trkpt>
      <trkpt lat="47.48919" lon="6.73642">
        <ele>378</ele>
        <time>2015-11-15T10:01:51.000Z</time>
      </trkpt>
      <trkpt lat="47.48916" lon="6.73638">
        <ele>380</ele>
        <time>2015-11-15T10:01:57.000Z</time>
      </trkpt>
      <trkpt lat="47.48915" lon="6.73638">
        <ele>380</ele>
        <time>2015-11-15T10:01:58.000Z</time>
      </trkpt>
      <trkpt lat="47.48918" lon="6.7364">
        <ele>378</ele>
        <time>2015-11-15T10:02:03.000Z</time>
      </trkpt>
      <trkpt lat="47.4892" lon="6.7364">
        <ele>378</ele>
        <time>2015-11-15T10:02:04.000Z</time>
      </trkpt>
      <trkpt lat="47.48923" lon="6.7364">
        <ele>378</ele>
        <time>2015-11-15T10:02:06.000Z</time>
      </trkpt>
      <trkpt lat="47.48924" lon="6.7364">
        <ele>378</ele>
        <time>2015-11-15T10:02:07.000Z</time>
      </trkpt>
      <trkpt lat="47.48923" lon="6.73634">
        <ele>378</ele>
        <time>2015-11-15T10:02:25.000Z</time>
      </trkpt>
      <trkpt lat="47.48921" lon="6.73634">
        <ele>378</ele>
        <time>2015-11-15T10:02:26.000Z</time>
      </trkpt>
      <trkpt lat="47.48917" lon="6.73634">
        <ele>378</ele>
        <time>2015-11-15T10:02:30.000Z</time>
      </trkpt>
      <trkpt lat="47.48916" lon="6.73634">
        <ele>380</ele>
        <time>2015-11-15T10:02:31.000Z</time>
      </trkpt>
      <trkpt lat="47.48912" lon="6.73631">
        <ele>380</ele>
        <time>2015-11-15T10:02:35.000Z</time>
      </trkpt>
      <trkpt lat="47.48911" lon="6.73632">
        <ele>380</ele>
        <time>2015-11-15T10:02:36.000Z</time>
      </trkpt>
      <trkpt lat="47.48906" lon="6.73631">
        <ele>380</ele>
        <time>2015-11-15T10:02:40.000Z</time>
      </trkpt>
      <trkpt lat="47.48906" lon="6.73631">
        <ele>380</ele>
        <time>2015-11-15T10:02:41.000Z</time>
      </trkpt>
      <trkpt lat="47.48902" lon="6.73628">
        <ele>380</ele>
        <time>2015-11-15T10:02:48.000Z</time>
      </trkpt>
      <trkpt lat="47.48901" lon="6.73628">
        <ele>380</ele>
        <time>2015-11-15T10:02:49.000Z</time>
      </trkpt>
      <trkpt lat="47.48897" lon="6.73628">
        <ele>380</ele>
        <time>2015-11-15T10:02:54.000Z</time>
      </trkpt>
      <trkpt lat="47.48896" lon="6.73627">
        <ele>380</ele>
        <time>2015-11-15T10:02:55.000Z</time>
      </trkpt>
      <trkpt lat="47.48893" lon="6.73625">
        <ele>380</ele>
        <time>2015-11-15T10:02:57.000Z</time>
      </trkpt>
      <trkpt lat="47.48891" lon="6.73624">
        <ele>380</ele>
        <time>2015-11-15T10:02:58.000Z</time>
      </trkpt>
      <trkpt lat="47.48887" lon="6.73623">
        <ele>380</ele>
        <time>2015-11-15T10:03:08.000Z</time>
      </trkpt>
      <trkpt lat="47.48886" lon="6.73622">
        <ele>380</ele>
        <time>2015-11-15T10:03:09.000Z</time>
      </trkpt>
      <trkpt lat="47.48884" lon="6.73616">
        <ele>380</ele>
        <time>2015-11-15T10:03:12.000Z</time>
      </trkpt>
      <trkpt lat="47.48885" lon="6.73613">
        <ele>380</ele>
        <time>2015-11-15T10:03:13.000Z</time>
      </trkpt>
      <trkpt lat="47.48886" lon="6.7361">
        <ele>380</ele>
        <time>2015-11-15T10:03:14.000Z</time>
      </trkpt>
      <trkpt lat="47.48888" lon="6.73607">
        <ele>380</ele>
        <time>2015-11-15T10:03:15.000Z</time>
      </trkpt>
      <trkpt lat="47.48891" lon="6.73604">
        <ele>380</ele>
        <time>2015-11-15T10:03:16.000Z</time>
      </trkpt>
      <trkpt lat="47.48894" lon="6.73602">
        <ele>379</ele>
        <time>2015-11-15T10:03:17.000Z</time>
      </trkpt>
      <trkpt lat="47.48897" lon="6.736">
        <ele>379</ele>
        <time>2015-11-15T10:03:18.000Z</time>
      </trkpt>
      <trkpt lat="47.48901" lon="6.73598">
        <ele>379</ele>
        <time>2015-11-15T10:03:19.000Z</time>
      </trkpt>
      <trkpt lat="47.48904" lon="6.73596">
        <ele>379</ele>
        <time>2015-11-15T10:03:20.000Z</time>
      </trkpt>
      <trkpt lat="47.48907" lon="6.73594">
        <ele>379</ele>
        <time>2015-11-15T10:03:21.000Z</time>
      </trkpt>
      <trkpt lat="47.4891" lon="6.73591">
        <ele>379</ele>
        <time>2015-11-15T10:03:22.000Z</time>
      </trkpt>
      <trkpt lat="47.48912" lon="6.73588">
        <ele>378</ele>
        <time>2015-11-15T10:03:23.000Z</time>
      </trkpt>
      <trkpt lat="47.48915" lon="6.73584">
        <ele>378</ele>
        <time>2015-11-15T10:03:24.000Z</time>
      </trkpt>
      <trkpt lat="47.48917" lon="6.7358">
        <ele>378</ele>
        <time>2015-11-15T10:03:25.000Z</time>
      </trkpt>
      <trkpt lat="47.48918" lon="6.73577">
        <ele>378</ele>
        <time>2015-11-15T10:03:26.000Z</time>
      </trkpt>
      <trkpt lat="47.4892" lon="6.73573">
        <ele>378</ele>
        <time>2015-11-15T10:03:27.000Z</time>
      </trkpt>
      <trkpt lat="47.48923" lon="6.73569">
        <ele>378</ele>
        <time>2015-11-15T10:03:28.000Z</time>
      </trkpt>
      <trkpt lat="47.48925" lon="6.73566">
        <ele>377</ele>
        <time>2015-11-15T10:03:29.000Z</time>
      </trkpt>
      <trkpt lat="47.48928" lon="6.73563">
        <ele>377</ele>
        <time>2015-11-15T10:03:30.000Z</time>
      </trkpt>
      <trkpt lat="47.48931" lon="6.7356">
        <ele>377</ele>
        <time>2015-11-15T10:03:31.000Z</time>
      </trkpt>
      <trkpt lat="47.48934" lon="6.73557">
        <ele>377</ele>
        <time>2015-11-15T10:03:32.000Z</time>
      </trkpt>
      <trkpt lat="47.48937" lon="6.73554">
        <ele>377</ele>
        <time>2015-11-15T10:03:33.000Z</time>
      </trkpt>
      <trkpt lat="47.4894" lon="6.7355">
        <ele>377</ele>
        <time>2015-11-15T10:03:34.000Z</time>
      </trkpt>
      <trkpt lat="47.48943" lon="6.73547">
        <ele>377</ele>
        <time>2015-11-15T10:03:35.000Z</time>
      </trkpt>
      <trkpt lat="47.48945" lon="6.73543">
        <ele>377</ele>
        <time>2015-11-15T10:03:36.000Z</time>
      </trkpt>
      <trkpt lat="47.48948" lon="6.73539">
        <ele>377</ele>
        <time>2015-11-15T10:03:37.000Z</time>
      </trkpt>
      <trkpt lat="47.48952" lon="6.73535">
        <ele>377</ele>
        <time>2015-11-15T10:03:38.000Z</time>
      </trkpt>
      <trkpt lat="47.48955" lon="6.73531">
        <ele>377</ele>
        <time>2015-11-15T10:03:39.000Z</time>
      </trkpt>
      <trkpt lat="47.48959" lon="6.73527">
        <ele>377</ele>
        <time>2015-11-15T10:03:40.000Z</time>
      </trkpt>
      <trkpt lat="47.48962" lon="6.73524">
        <ele>377</ele>
        <time>2015-11-15T10:03:41.000Z</time>
      </trkpt>
      <trkpt lat="47.48966" lon="6.7352">
        <ele>377</ele>
        <time>2015-11-15T10:03:42.000Z</time>
      </trkpt>
      <trkpt lat="47.4897" lon="6.73517">
        <ele>378</ele>
        <time>2015-11-15T10:03:43.000Z</time>
      </trkpt>
      <trkpt lat="47.48974" lon="6.73515">
        <ele>378</ele>
        <time>2015-11-15T10:03:44.000Z</time>
      </trkpt>
      <trkpt lat="47.48979" lon="6.73514">
        <ele>378</ele>
        <time>2015-11-15T10:03:45.000Z</time>
      </trkpt>
      <trkpt lat="47.48983" lon="6.73511">
        <ele>378</ele>
        <time>2015-11-15T10:03:46.000Z</time>
      </trkpt>
      <trkpt lat="47.48988" lon="6.73508">
        <ele>378</ele>
        <time>2015-11-15T10:03:47.000Z</time>
      </trkpt>
      <trkpt lat="47.48992" lon="6.73506">
        <ele>378</ele>
        <time>2015-11-15T10:03:48.000Z</time>
      </trkpt>
      <trkpt lat="47.48996" lon="6.73503">
        <ele>379</ele>
        <time>2015-11-15T10:03:49.000Z</time>
      </trkpt>
      <trkpt lat="47.49" lon="6.735">
        <ele>379</ele>
        <time>2015-11-15T10:03:50.000Z</time>
      </trkpt>
      <trkpt lat="47.49005" lon="6.73498">
        <ele>379</ele>
        <time>2015-11-15T10:03:51.000Z</time>
      </trkpt>
      <trkpt lat="47.49008" lon="6.73494">
        <ele>380</ele>
        <time>2015-11-15T10:03:52.000Z</time>
      </trkpt>
      <trkpt lat="47.49011" lon="6.73491">
        <ele>380</ele>
        <time>2015-11-15T10:03:53.000Z</time>
      </trkpt>
      <trkpt lat="47.49014" lon="6.73489">
        <ele>380</ele>
        <time>2015-11-15T10:03:54.000Z</time>
      </trkpt>
      <trkpt lat="47.49019" lon="6.73486">
        <ele>381</ele>
        <time>2015-11-15T10:03:55.000Z</time>
      </trkpt>
      <trkpt lat="47.49024" lon="6.73482">
        <ele>381</ele>
        <time>2015-11-15T10:03:56.000Z</time>
      </trkpt>
      <trkpt lat="47.49028" lon="6.73479">
        <ele>381</ele>
        <time>2015-11-15T10:03:57.000Z</time>
      </trkpt>
      <trkpt lat="47.49032" lon="6.73476">
        <ele>381</ele>
        <time>2015-11-15T10:03:58.000Z</time>
      </trkpt>
      <trkpt lat="47.49035" lon="6.73471">
        <ele>381</ele>
        <time>2015-11-15T10:03:59.000Z</time>
      </trkpt>
      <trkpt lat="47.49037" lon="6.73464">
        <ele>382</ele>
        <time>2015-11-15T10:04:00.000Z</time>
      </trkpt>
      <trkpt lat="47.4904" lon="6.73455">
        <ele>382</ele>
        <time>2015-11-15T10:04:01.000Z</time>
      </trkpt>
      <trkpt lat="47.49043" lon="6.73448">
        <ele>382</ele>
        <time>2015-11-15T10:04:02.000Z</time>
      </trkpt>
      <trkpt lat="47.49045" lon="6.73441">
        <ele>382</ele>
        <time>2015-11-15T10:04:03.000Z</time>
      </trkpt>
      <trkpt lat="47.49048" lon="6.73434">
        <ele>382</ele>
        <time>2015-11-15T10:04:04.000Z</time>
      </trkpt>
      <trkpt lat="47.4905" lon="6.73426">
        <ele>383</ele>
        <time>2015-11-15T10:04:05.000Z</time>
      </trkpt>
      <trkpt lat="47.49053" lon="6.73418">
        <ele>383</ele>
        <time>2015-11-15T10:04:06.000Z</time>
      </trkpt>
      <trkpt lat="47.49055" lon="6.7341">
        <ele>383</ele>
        <time>2015-11-15T10:04:07.000Z</time>
      </trkpt>
      <trkpt lat="47.49058" lon="6.73403">
        <ele>383</ele>
        <time>2015-11-15T10:04:08.000Z</time>
      </trkpt>
      <trkpt lat="47.49061" lon="6.73396">
        <ele>383</ele>
        <time>2015-11-15T10:04:09.000Z</time>
      </trkpt>
      <trkpt lat="47.49064" lon="6.7339">
        <ele>384</ele>
        <time>2015-11-15T10:04:10.000Z</time>
      </trkpt>
      <trkpt lat="47.49068" lon="6.73384">
        <ele>384</ele>
        <time>2015-11-15T10:04:11.000Z</time>
      </trkpt>
      <trkpt lat="47.49071" lon="6.73378">
        <ele>384</ele>
        <time>2015-11-15T10:04:12.000Z</time>
      </trkpt>
      <trkpt lat="47.49074" lon="6.73373">
        <ele>384</ele>
        <time>2015-11-15T10:04:13.000Z</time>
      </trkpt>
      <trkpt lat="47.49079" lon="6.73368">
        <ele>384</ele>
        <time>2015-11-15T10:04:14.000Z</time>
      </trkpt>
      <trkpt lat="47.49081" lon="6.73363">
        <ele>384</ele>
        <time>2015-11-15T10:04:15.000Z</time>
      </trkpt>
      <trkpt lat="47.49083" lon="6.73358">
        <ele>385</ele>
        <time>2015-11-15T10:04:16.000Z</time>
      </trkpt>
      <trkpt lat="47.49084" lon="6.73353">
        <ele>387</ele>
        <time>2015-11-15T10:04:17.000Z</time>
      </trkpt>
      <trkpt lat="47.49086" lon="6.73347">
        <ele>387</ele>
        <time>2015-11-15T10:04:18.000Z</time>
      </trkpt>
      <trkpt lat="47.49087" lon="6.73343">
        <ele>388</ele>
        <time>2015-11-15T10:04:19.000Z</time>
      </trkpt>
      <trkpt lat="47.49087" lon="6.73338">
        <ele>388</ele>
        <time>2015-11-15T10:04:20.000Z</time>
      </trkpt>
      <trkpt lat="47.49089" lon="6.73331">
        <ele>388</ele>
        <time>2015-11-15T10:04:21.000Z</time>
      </trkpt>
      <trkpt lat="47.4909" lon="6.73325">
        <ele>388</ele>
        <time>2015-11-15T10:04:22.000Z</time>
      </trkpt>
      <trkpt lat="47.49092" lon="6.73315">
        <ele>388</ele>
        <time>2015-11-15T10:04:23.000Z</time>
      </trkpt>
      <trkpt lat="47.49094" lon="6.73309">
        <ele>388</ele>
        <time>2015-11-15T10:04:24.000Z</time>
      </trkpt>
      <trkpt lat="47.49095" lon="6.73303">
        <ele>388</ele>
        <time>2015-11-15T10:04:25.000Z</time>
      </trkpt>
      <trkpt lat="47.49097" lon="6.73294">
        <ele>389</ele>
        <time>2015-11-15T10:04:26.000Z</time>
      </trkpt>
      <trkpt lat="47.491" lon="6.73287">
        <ele>389</ele>
        <time>2015-11-15T10:04:27.000Z</time>
      </trkpt>
      <trkpt lat="47.49101" lon="6.73281">
        <ele>389</ele>
        <time>2015-11-15T10:04:28.000Z</time>
      </trkpt>
      <trkpt lat="47.49102" lon="6.73275">
        <ele>389</ele>
        <time>2015-11-15T10:04:29.000Z</time>
      </trkpt>
      <trkpt lat="47.49105" lon="6.7327">
        <ele>389</ele>
        <time>2015-11-15T10:04:30.000Z</time>
      </trkpt>
      <trkpt lat="47.49107" lon="6.73264">
        <ele>389</ele>
        <time>2015-11-15T10:04:31.000Z</time>
      </trkpt>
      <trkpt lat="47.4911" lon="6.73258">
        <ele>389</ele>
        <time>2015-11-15T10:04:32.000Z</time>
      </trkpt>
      <trkpt lat="47.49112" lon="6.73254">
        <ele>389</ele>
        <time>2015-11-15T10:04:33.000Z</time>
      </trkpt>
      <trkpt lat="47.49114" lon="6.73249">
        <ele>390</ele>
        <time>2015-11-15T10:04:34.000Z</time>
      </trkpt>
      <trkpt lat="47.49117" lon="6.73246">
        <ele>391</ele>
        <time>2015-11-15T10:04:35.000Z</time>
      </trkpt>
      <trkpt lat="47.49119" lon="6.73241">
        <ele>391</ele>
        <time>2015-11-15T10:04:36.000Z</time>
      </trkpt>
      <trkpt lat="47.49122" lon="6.73236">
        <ele>391</ele>
        <time>2015-11-15T10:04:37.000Z</time>
      </trkpt>
      <trkpt lat="47.49125" lon="6.73231">
        <ele>391</ele>
        <time>2015-11-15T10:04:38.000Z</time>
      </trkpt>
      <trkpt lat="47.49128" lon="6.73227">
        <ele>391</ele>
        <time>2015-11-15T10:04:39.000Z</time>
      </trkpt>
      <trkpt lat="47.4913" lon="6.73223">
        <ele>392</ele>
        <time>2015-11-15T10:04:40.000Z</time>
      </trkpt>
      <trkpt lat="47.49132" lon="6.7322">
        <ele>392</ele>
        <time>2015-11-15T10:04:41.000Z</time>
      </trkpt>
      <trkpt lat="47.49134" lon="6.73216">
        <ele>392</ele>
        <time>2015-11-15T10:04:42.000Z</time>
      </trkpt>
      <trkpt lat="47.49136" lon="6.73212">
        <ele>392</ele>
        <time>2015-11-15T10:04:43.000Z</time>
      </trkpt>
      <trkpt lat="47.49138" lon="6.73208">
        <ele>392</ele>
        <time>2015-11-15T10:04:44.000Z</time>
      </trkpt>
      <trkpt lat="47.4914" lon="6.73204">
        <ele>392</ele>
        <time>2015-11-15T10:04:45.000Z</time>
      </trkpt>
      <trkpt lat="47.49142" lon="6.73199">
        <ele>393</ele>
        <time>2015-11-15T10:04:46.000Z</time>
      </trkpt>
      <trkpt lat="47.49144" lon="6.73195">
        <ele>393</ele>
        <time>2015-11-15T10:04:47.000Z</time>
      </trkpt>
      <trkpt lat="47.49146" lon="6.73191">
        <ele>393</ele>
        <time>2015-11-15T10:04:48.000Z</time>
      </trkpt>
      <trkpt lat="47.49148" lon="6.73188">
        <ele>393</ele>
        <time>2015-11-15T10:04:49.000Z</time>
      </trkpt>
      <trkpt lat="47.49149" lon="6.73185">
        <ele>394</ele>
        <time>2015-11-15T10:04:50.000Z</time>
      </trkpt>
      <trkpt lat="47.4915" lon="6.73182">
        <ele>394</ele>
        <time>2015-11-15T10:04:51.000Z</time>
      </trkpt>
      <trkpt lat="47.49152" lon="6.73179">
        <ele>394</ele>
        <time>2015-11-15T10:04:52.000Z</time>
      </trkpt>
      <trkpt lat="47.49153" lon="6.73173">
        <ele>395</ele>
        <time>2015-11-15T10:04:54.000Z</time>
      </trkpt>
      <trkpt lat="47.49154" lon="6.7317">
        <ele>395</ele>
        <time>2015-11-15T10:04:55.000Z</time>
      </trkpt>
      <trkpt lat="47.49155" lon="6.73165">
        <ele>395</ele>
        <time>2015-11-15T10:04:56.000Z</time>
      </trkpt>
      <trkpt lat="47.49156" lon="6.73161">
        <ele>395</ele>
        <time>2015-11-15T10:04:57.000Z</time>
      </trkpt>
      <trkpt lat="47.49157" lon="6.73157">
        <ele>395</ele>
        <time>2015-11-15T10:04:58.000Z</time>
      </trkpt>
      <trkpt lat="47.49157" lon="6.73151">
        <ele>394</ele>
        <time>2015-11-15T10:04:59.000Z</time>
      </trkpt>
      <trkpt lat="47.49158" lon="6.73146">
        <ele>394</ele>
        <time>2015-11-15T10:05:00.000Z</time>
      </trkpt>
      <trkpt lat="47.4916" lon="6.7314">
        <ele>393</ele>
        <time>2015-11-15T10:05:01.000Z</time>
      </trkpt>
      <trkpt lat="47.49161" lon="6.73135">
        <ele>393</ele>
        <time>2015-11-15T10:05:02.000Z</time>
      </trkpt>
      <trkpt lat="47.49161" lon="6.73129">
        <ele>393</ele>
        <time>2015-11-15T10:05:03.000Z</time>
      </trkpt>
      <trkpt lat="47.49162" lon="6.73124">
        <ele>393</ele>
        <time>2015-11-15T10:05:04.000Z</time>
      </trkpt>
      <trkpt lat="47.49162" lon="6.73119">
        <ele>392</ele>
        <time>2015-11-15T10:05:05.000Z</time>
      </trkpt>
      <trkpt lat="47.49163" lon="6.73114">
        <ele>392</ele>
        <time>2015-11-15T10:05:06.000Z</time>
      </trkpt>
      <trkpt lat="47.49163" lon="6.73108">
        <ele>392</ele>
        <time>2015-11-15T10:05:07.000Z</time>
      </trkpt>
      <trkpt lat="47.49164" lon="6.73102">
        <ele>393</ele>
        <time>2015-11-15T10:05:08.000Z</time>
      </trkpt>
      <trkpt lat="47.49166" lon="6.73097">
        <ele>393</ele>
        <time>2015-11-15T10:05:09.000Z</time>
      </trkpt>
      <trkpt lat="47.49167" lon="6.73091">
        <ele>395</ele>
        <time>2015-11-15T10:05:10.000Z</time>
      </trkpt>
      <trkpt lat="47.49168" lon="6.73085">
        <ele>394</ele>
        <time>2015-11-15T10:05:11.000Z</time>
      </trkpt>
      <trkpt lat="47.49169" lon="6.73079">
        <ele>394</ele>
        <time>2015-11-15T10:05:12.000Z</time>
      </trkpt>
      <trkpt lat="47.4917" lon="6.73074">
        <ele>394</ele>
        <time>2015-11-15T10:05:13.000Z</time>
      </trkpt>
      <trkpt lat="47.49172" lon="6.73068">
        <ele>394</ele>
        <time>2015-11-15T10:05:14.000Z</time>
      </trkpt>
      <trkpt lat="47.49173" lon="6.73062">
        <ele>394</ele>
        <time>2015-11-15T10:05:15.000Z</time>
      </trkpt>
      <trkpt lat="47.49173" lon="6.73057">
        <ele>394</ele>
        <time>2015-11-15T10:05:16.000Z</time>
      </trkpt>
      <trkpt lat="47.49174" lon="6.73051">
        <ele>394</ele>
        <time>2015-11-15T10:05:17.000Z</time>
      </trkpt>
      <trkpt lat="47.49174" lon="6.73046">
        <ele>394</ele>
        <time>2015-11-15T10:05:18.000Z</time>
      </trkpt>
      <trkpt lat="47.49175" lon="6.73042">
        <ele>394</ele>
        <time>2015-11-15T10:05:19.000Z</time>
      </trkpt>
      <trkpt lat="47.49175" lon="6.73037">
        <ele>394</ele>
        <time>2015-11-15T10:05:20.000Z</time>
      </trkpt>
      <trkpt lat="47.49175" lon="6.73032">
        <ele>394</ele>
        <time>2015-11-15T10:05:21.000Z</time>
      </trkpt>
      <trkpt lat="47.49176" lon="6.73027">
        <ele>394</ele>
        <time>2015-11-15T10:05:22.000Z</time>
      </trkpt>
      <trkpt lat="47.49177" lon="6.73022">
        <ele>394</ele>
        <time>2015-11-15T10:05:23.000Z</time>
      </trkpt>
      <trkpt lat="47.49178" lon="6.73016">
        <ele>393</ele>
        <time>2015-11-15T10:05:24.000Z</time>
      </trkpt>
      <trkpt lat="47.49179" lon="6.73011">
        <ele>393</ele>
        <time>2015-11-15T10:05:25.000Z</time>
      </trkpt>
      <trkpt lat="47.4918" lon="6.73006">
        <ele>393</ele>
        <time>2015-11-15T10:05:26.000Z</time>
      </trkpt>
      <trkpt lat="47.4918" lon="6.73001">
        <ele>393</ele>
        <time>2015-11-15T10:05:27.000Z</time>
      </trkpt>
      <trkpt lat="47.4918" lon="6.72996">
        <ele>393</ele>
        <time>2015-11-15T10:05:28.000Z</time>
      </trkpt>
      <trkpt lat="47.49179" lon="6.7299">
        <ele>393</ele>
        <time>2015-11-15T10:05:29.000Z</time>
      </trkpt>
      <trkpt lat="47.49179" lon="6.72985">
        <ele>393</ele>
        <time>2015-11-15T10:05:30.000Z</time>
      </trkpt>
      <trkpt lat="47.4918" lon="6.72979">
        <ele>394</ele>
        <time>2015-11-15T10:05:31.000Z</time>
      </trkpt>
      <trkpt lat="47.49181" lon="6.72973">
        <ele>394</ele>
        <time>2015-11-15T10:05:32.000Z</time>
      </trkpt>
      <trkpt lat="47.49182" lon="6.72967">
        <ele>394</ele>
        <time>2015-11-15T10:05:33.000Z</time>
      </trkpt>
      <trkpt lat="47.49184" lon="6.72961">
        <ele>394</ele>
        <time>2015-11-15T10:05:34.000Z</time>
      </trkpt>
      <trkpt lat="47.49187" lon="6.72956">
        <ele>394</ele>
        <time>2015-11-15T10:05:35.000Z</time>
      </trkpt>
      <trkpt lat="47.49189" lon="6.72952">
        <ele>394</ele>
        <time>2015-11-15T10:05:36.000Z</time>
      </trkpt>
      <trkpt lat="47.49191" lon="6.72948">
        <ele>394</ele>
        <time>2015-11-15T10:05:37.000Z</time>
      </trkpt>
      <trkpt lat="47.49192" lon="6.72943">
        <ele>395</ele>
        <time>2015-11-15T10:05:38.000Z</time>
      </trkpt>
      <trkpt lat="47.49193" lon="6.72939">
        <ele>395</ele>
        <time>2015-11-15T10:05:39.000Z</time>
      </trkpt>
      <trkpt lat="47.49194" lon="6.72934">
        <ele>395</ele>
        <time>2015-11-15T10:05:40.000Z</time>
      </trkpt>
      <trkpt lat="47.49195" lon="6.72929">
        <ele>395</ele>
        <time>2015-11-15T10:05:41.000Z</time>
      </trkpt>
      <trkpt lat="47.49196" lon="6.72924">
        <ele>395</ele>
        <time>2015-11-15T10:05:42.000Z</time>
      </trkpt>
      <trkpt lat="47.49198" lon="6.72919">
        <ele>395</ele>
        <time>2015-11-15T10:05:43.000Z</time>
      </trkpt>
      <trkpt lat="47.49199" lon="6.72915">
        <ele>394</ele>
        <time>2015-11-15T10:05:44.000Z</time>
      </trkpt>
      <trkpt lat="47.49201" lon="6.72911">
        <ele>395</ele>
        <time>2015-11-15T10:05:45.000Z</time>
      </trkpt>
      <trkpt lat="47.49203" lon="6.72908">
        <ele>395</ele>
        <time>2015-11-15T10:05:46.000Z</time>
      </trkpt>
      <trkpt lat="47.49205" lon="6.72905">
        <ele>395</ele>
        <time>2015-11-15T10:05:47.000Z</time>
      </trkpt>
      <trkpt lat="47.49207" lon="6.72903">
        <ele>395</ele>
        <time>2015-11-15T10:05:48.000Z</time>
      </trkpt>
      <trkpt lat="47.49209" lon="6.729">
        <ele>395</ele>
        <time>2015-11-15T10:05:49.000Z</time>
      </trkpt>
      <trkpt lat="47.49212" lon="6.72898">
        <ele>395</ele>
        <time>2015-11-15T10:05:50.000Z</time>
      </trkpt>
      <trkpt lat="47.49214" lon="6.72894">
        <ele>395</ele>
        <time>2015-11-15T10:05:51.000Z</time>
      </trkpt>
      <trkpt lat="47.49216" lon="6.7289">
        <ele>395</ele>
        <time>2015-11-15T10:05:52.000Z</time>
      </trkpt>
      <trkpt lat="47.49218" lon="6.72886">
        <ele>395</ele>
        <time>2015-11-15T10:05:53.000Z</time>
      </trkpt>
      <trkpt lat="47.4922" lon="6.72881">
        <ele>395</ele>
        <time>2015-11-15T10:05:54.000Z</time>
      </trkpt>
      <trkpt lat="47.49226" lon="6.72873">
        <ele>396</ele>
        <time>2015-11-15T10:05:55.000Z</time>
      </trkpt>
      <trkpt lat="47.4923" lon="6.72868">
        <ele>396</ele>
        <time>2015-11-15T10:05:56.000Z</time>
      </trkpt>
      <trkpt lat="47.49234" lon="6.72863">
        <ele>396</ele>
        <time>2015-11-15T10:05:57.000Z</time>
      </trkpt>
      <trkpt lat="47.49238" lon="6.7286">
        <ele>396</ele>
        <time>2015-11-15T10:05:58.000Z</time>
      </trkpt>
      <trkpt lat="47.49241" lon="6.72855">
        <ele>397</ele>
        <time>2015-11-15T10:05:59.000Z</time>
      </trkpt>
      <trkpt lat="47.49245" lon="6.72851">
        <ele>397</ele>
        <time>2015-11-15T10:06:00.000Z</time>
      </trkpt>
      <trkpt lat="47.49248" lon="6.72847">
        <ele>397</ele>
        <time>2015-11-15T10:06:01.000Z</time>
      </trkpt>
      <trkpt lat="47.49252" lon="6.72844">
        <ele>398</ele>
        <time>2015-11-15T10:06:02.000Z</time>
      </trkpt>
      <trkpt lat="47.49256" lon="6.72838">
        <ele>398</ele>
        <time>2015-11-15T10:06:03.000Z</time>
      </trkpt>
      <trkpt lat="47.49259" lon="6.72834">
        <ele>398</ele>
        <time>2015-11-15T10:06:04.000Z</time>
      </trkpt>
      <trkpt lat="47.49262" lon="6.7283">
        <ele>398</ele>
        <time>2015-11-15T10:06:05.000Z</time>
      </trkpt>
      <trkpt lat="47.49264" lon="6.72826">
        <ele>398</ele>
        <time>2015-11-15T10:06:06.000Z</time>
      </trkpt>
      <trkpt lat="47.49267" lon="6.72824">
        <ele>398</ele>
        <time>2015-11-15T10:06:07.000Z</time>
      </trkpt>
      <trkpt lat="47.49269" lon="6.72821">
        <ele>398</ele>
        <time>2015-11-15T10:06:08.000Z</time>
      </trkpt>
      <trkpt lat="47.49271" lon="6.72819">
        <ele>398</ele>
        <time>2015-11-15T10:06:09.000Z</time>
      </trkpt>
      <trkpt lat="47.49274" lon="6.72814">
        <ele>398</ele>
        <time>2015-11-15T10:06:11.000Z</time>
      </trkpt>
      <trkpt lat="47.49275" lon="6.7281">
        <ele>398</ele>
        <time>2015-11-15T10:06:12.000Z</time>
      </trkpt>
      <trkpt lat="47.49277" lon="6.72807">
        <ele>398</ele>
        <time>2015-11-15T10:06:13.000Z</time>
      </trkpt>
      <trkpt lat="47.49278" lon="6.72804">
        <ele>398</ele>
        <time>2015-11-15T10:06:14.000Z</time>
      </trkpt>
      <trkpt lat="47.49279" lon="6.72801">
        <ele>398</ele>
        <time>2015-11-15T10:06:15.000Z</time>
      </trkpt>
      <trkpt lat="47.4928" lon="6.72798">
        <ele>398</ele>
        <time>2015-11-15T10:06:16.000Z</time>
      </trkpt>
      <trkpt lat="47.49281" lon="6.72795">
        <ele>398</ele>
        <time>2015-11-15T10:06:17.000Z</time>
      </trkpt>
      <trkpt lat="47.49283" lon="6.72792">
        <ele>398</ele>
        <time>2015-11-15T10:06:18.000Z</time>
      </trkpt>
      <trkpt lat="47.49284" lon="6.72788">
        <ele>398</ele>
        <time>2015-11-15T10:06:19.000Z</time>
      </trkpt>
      <trkpt lat="47.49285" lon="6.72784">
        <ele>398</ele>
        <time>2015-11-15T10:06:20.000Z</time>
      </trkpt>
      <trkpt lat="47.49285" lon="6.7278">
        <ele>398</ele>
        <time>2015-11-15T10:06:21.000Z</time>
      </trkpt>
      <trkpt lat="47.49286" lon="6.72776">
        <ele>398</ele>
        <time>2015-11-15T10:06:22.000Z</time>
      </trkpt>
      <trkpt lat="47.49287" lon="6.72771">
        <ele>398</ele>
        <time>2015-11-15T10:06:23.000Z</time>
      </trkpt>
      <trkpt lat="47.49288" lon="6.72766">
        <ele>398</ele>
        <time>2015-11-15T10:06:24.000Z</time>
      </trkpt>
      <trkpt lat="47.49289" lon="6.72761">
        <ele>398</ele>
        <time>2015-11-15T10:06:25.000Z</time>
      </trkpt>
      <trkpt lat="47.49291" lon="6.72756">
        <ele>398</ele>
        <time>2015-11-15T10:06:26.000Z</time>
      </trkpt>
      <trkpt lat="47.49292" lon="6.72751">
        <ele>398</ele>
        <time>2015-11-15T10:06:27.000Z</time>
      </trkpt>
      <trkpt lat="47.49293" lon="6.72745">
        <ele>399</ele>
        <time>2015-11-15T10:06:28.000Z</time>
      </trkpt>
      <trkpt lat="47.49293" lon="6.72741">
        <ele>399</ele>
        <time>2015-11-15T10:06:29.000Z</time>
      </trkpt>
      <trkpt lat="47.49294" lon="6.72736">
        <ele>399</ele>
        <time>2015-11-15T10:06:30.000Z</time>
      </trkpt>
      <trkpt lat="47.49294" lon="6.72732">
        <ele>399</ele>
        <time>2015-11-15T10:06:31.000Z</time>
      </trkpt>
      <trkpt lat="47.49295" lon="6.72727">
        <ele>399</ele>
        <time>2015-11-15T10:06:32.000Z</time>
      </trkpt>
      <trkpt lat="47.49295" lon="6.72723">
        <ele>399</ele>
        <time>2015-11-15T10:06:33.000Z</time>
      </trkpt>
      <trkpt lat="47.49296" lon="6.72717">
        <ele>399</ele>
        <time>2015-11-15T10:06:34.000Z</time>
      </trkpt>
      <trkpt lat="47.49296" lon="6.72712">
        <ele>399</ele>
        <time>2015-11-15T10:06:35.000Z</time>
      </trkpt>
      <trkpt lat="47.49296" lon="6.72707">
        <ele>399</ele>
        <time>2015-11-15T10:06:36.000Z</time>
      </trkpt>
      <trkpt lat="47.49297" lon="6.72702">
        <ele>399</ele>
        <time>2015-11-15T10:06:37.000Z</time>
      </trkpt>
      <trkpt lat="47.49297" lon="6.72698">
        <ele>399</ele>
        <time>2015-11-15T10:06:38.000Z</time>
      </trkpt>
      <trkpt lat="47.49297" lon="6.72694">
        <ele>399</ele>
        <time>2015-11-15T10:06:39.000Z</time>
      </trkpt>
      <trkpt lat="47.49296" lon="6.7269">
        <ele>399</ele>
        <time>2015-11-15T10:06:40.000Z</time>
      </trkpt>
      <trkpt lat="47.49295" lon="6.72685">
        <ele>399</ele>
        <time>2015-11-15T10:06:41.000Z</time>
      </trkpt>
      <trkpt lat="47.49294" lon="6.72681">
        <ele>399</ele>
        <time>2015-11-15T10:06:42.000Z</time>
      </trkpt>
      <trkpt lat="47.49293" lon="6.72677">
        <ele>399</ele>
        <time>2015-11-15T10:06:43.000Z</time>
      </trkpt>
      <trkpt lat="47.49293" lon="6.72674">
        <ele>399</ele>
        <time>2015-11-15T10:06:44.000Z</time>
      </trkpt>
      <trkpt lat="47.49293" lon="6.72669">
        <ele>399</ele>
        <time>2015-11-15T10:06:45.000Z</time>
      </trkpt>
      <trkpt lat="47.49294" lon="6.72664">
        <ele>401</ele>
        <time>2015-11-15T10:06:46.000Z</time>
      </trkpt>
      <trkpt lat="47.49296" lon="6.72659">
        <ele>401</ele>
        <time>2015-11-15T10:06:47.000Z</time>
      </trkpt>
      <trkpt lat="47.49297" lon="6.72653">
        <ele>401</ele>
        <time>2015-11-15T10:06:48.000Z</time>
      </trkpt>
      <trkpt lat="47.49298" lon="6.72648">
        <ele>401</ele>
        <time>2015-11-15T10:06:49.000Z</time>
      </trkpt>
      <trkpt lat="47.49299" lon="6.72643">
        <ele>401</ele>
        <time>2015-11-15T10:06:50.000Z</time>
      </trkpt>
      <trkpt lat="47.493" lon="6.72639">
        <ele>401</ele>
        <time>2015-11-15T10:06:51.000Z</time>
      </trkpt>
      <trkpt lat="47.49301" lon="6.72634">
        <ele>402</ele>
        <time>2015-11-15T10:06:52.000Z</time>
      </trkpt>
      <trkpt lat="47.49302" lon="6.7263">
        <ele>402</ele>
        <time>2015-11-15T10:06:53.000Z</time>
      </trkpt>
      <trkpt lat="47.49302" lon="6.72626">
        <ele>402</ele>
        <time>2015-11-15T10:06:54.000Z</time>
      </trkpt>
      <trkpt lat="47.49303" lon="6.72623">
        <ele>402</ele>
        <time>2015-11-15T10:06:55.000Z</time>
      </trkpt>
      <trkpt lat="47.49305" lon="6.7262">
        <ele>402</ele>
        <time>2015-11-15T10:06:56.000Z</time>
      </trkpt>
      <trkpt lat="47.49307" lon="6.72616">
        <ele>402</ele>
        <time>2015-11-15T10:06:57.000Z</time>
      </trkpt>
      <trkpt lat="47.49308" lon="6.72613">
        <ele>402</ele>
        <time>2015-11-15T10:06:58.000Z</time>
      </trkpt>
      <trkpt lat="47.4931" lon="6.72609">
        <ele>402</ele>
        <time>2015-11-15T10:06:59.000Z</time>
      </trkpt>
      <trkpt lat="47.4931" lon="6.72604">
        <ele>403</ele>
        <time>2015-11-15T10:07:00.000Z</time>
      </trkpt>
      <trkpt lat="47.49311" lon="6.72599">
        <ele>403</ele>
        <time>2015-11-15T10:07:01.000Z</time>
      </trkpt>
      <trkpt lat="47.49312" lon="6.72594">
        <ele>403</ele>
        <time>2015-11-15T10:07:02.000Z</time>
      </trkpt>
      <trkpt lat="47.49314" lon="6.7259">
        <ele>403</ele>
        <time>2015-11-15T10:07:03.000Z</time>
      </trkpt>
      <trkpt lat="47.49315" lon="6.72586">
        <ele>404</ele>
        <time>2015-11-15T10:07:04.000Z</time>
      </trkpt>
      <trkpt lat="47.49316" lon="6.72582">
        <ele>405</ele>
        <time>2015-11-15T10:07:05.000Z</time>
      </trkpt>
      <trkpt lat="47.49317" lon="6.72578">
        <ele>405</ele>
        <time>2015-11-15T10:07:06.000Z</time>
      </trkpt>
      <trkpt lat="47.49318" lon="6.72574">
        <ele>405</ele>
        <time>2015-11-15T10:07:07.000Z</time>
      </trkpt>
      <trkpt lat="47.49318" lon="6.72571">
        <ele>405</ele>
        <time>2015-11-15T10:07:08.000Z</time>
      </trkpt>
      <trkpt lat="47.49318" lon="6.72567">
        <ele>405</ele>
        <time>2015-11-15T10:07:09.000Z</time>
      </trkpt>
      <trkpt lat="47.49319" lon="6.72563">
        <ele>405</ele>
        <time>2015-11-15T10:07:10.000Z</time>
      </trkpt>
      <trkpt lat="47.49319" lon="6.72559">
        <ele>405</ele>
        <time>2015-11-15T10:07:11.000Z</time>
      </trkpt>
      <trkpt lat="47.4932" lon="6.72554">
        <ele>406</ele>
        <time>2015-11-15T10:07:12.000Z</time>
      </trkpt>
      <trkpt lat="47.49321" lon="6.7255">
        <ele>406</ele>
        <time>2015-11-15T10:07:13.000Z</time>
      </trkpt>
      <trkpt lat="47.49321" lon="6.72546">
        <ele>406</ele>
        <time>2015-11-15T10:07:14.000Z</time>
      </trkpt>
      <trkpt lat="47.49321" lon="6.72542">
        <ele>406</ele>
        <time>2015-11-15T10:07:15.000Z</time>
      </trkpt>
      <trkpt lat="47.49321" lon="6.72538">
        <ele>406</ele>
        <time>2015-11-15T10:07:16.000Z</time>
      </trkpt>
      <trkpt lat="47.49322" lon="6.72533">
        <ele>406</ele>
        <time>2015-11-15T10:07:17.000Z</time>
      </trkpt>
      <trkpt lat="47.49322" lon="6.72528">
        <ele>406</ele>
        <time>2015-11-15T10:07:18.000Z</time>
      </trkpt>
      <trkpt lat="47.49322" lon="6.72523">
        <ele>407</ele>
        <time>2015-11-15T10:07:19.000Z</time>
      </trkpt>
      <trkpt lat="47.49323" lon="6.72518">
        <ele>407</ele>
        <time>2015-11-15T10:07:20.000Z</time>
      </trkpt>
      <trkpt lat="47.49323" lon="6.72513">
        <ele>407</ele>
        <time>2015-11-15T10:07:21.000Z</time>
      </trkpt>
      <trkpt lat="47.49323" lon="6.72509">
        <ele>407</ele>
        <time>2015-11-15T10:07:22.000Z</time>
      </trkpt>
      <trkpt lat="47.49324" lon="6.72505">
        <ele>408</ele>
        <time>2015-11-15T10:07:23.000Z</time>
      </trkpt>
      <trkpt lat="47.49324" lon="6.72501">
        <ele>408</ele>
        <time>2015-11-15T10:07:24.000Z</time>
      </trkpt>
      <trkpt lat="47.49324" lon="6.72497">
        <ele>409</ele>
        <time>2015-11-15T10:07:25.000Z</time>
      </trkpt>
      <trkpt lat="47.49325" lon="6.72493">
        <ele>409</ele>
        <time>2015-11-15T10:07:26.000Z</time>
      </trkpt>
      <trkpt lat="47.49325" lon="6.72489">
        <ele>409</ele>
        <time>2015-11-15T10:07:27.000Z</time>
      </trkpt>
      <trkpt lat="47.49325" lon="6.72485">
        <ele>409</ele>
        <time>2015-11-15T10:07:28.000Z</time>
      </trkpt>
      <trkpt lat="47.49326" lon="6.72481">
        <ele>409</ele>
        <time>2015-11-15T10:07:29.000Z</time>
      </trkpt>
      <trkpt lat="47.49326" lon="6.72477">
        <ele>409</ele>
        <time>2015-11-15T10:07:30.000Z</time>
      </trkpt>
      <trkpt lat="47.49326" lon="6.72472">
        <ele>409</ele>
        <time>2015-11-15T10:07:31.000Z</time>
      </trkpt>
      <trkpt lat="47.49325" lon="6.72467">
        <ele>409</ele>
        <time>2015-11-15T10:07:32.000Z</time>
      </trkpt>
      <trkpt lat="47.49324" lon="6.72463">
        <ele>409</ele>
        <time>2015-11-15T10:07:33.000Z</time>
      </trkpt>
      <trkpt lat="47.49323" lon="6.72459">
        <ele>409</ele>
        <time>2015-11-15T10:07:34.000Z</time>
      </trkpt>
      <trkpt lat="47.49321" lon="6.72455">
        <ele>409</ele>
        <time>2015-11-15T10:07:35.000Z</time>
      </trkpt>
      <trkpt lat="47.49319" lon="6.7245">
        <ele>409</ele>
        <time>2015-11-15T10:07:36.000Z</time>
      </trkpt>
      <trkpt lat="47.49318" lon="6.72446">
        <ele>409</ele>
        <time>2015-11-15T10:07:37.000Z</time>
      </trkpt>
      <trkpt lat="47.49316" lon="6.72442">
        <ele>409</ele>
        <time>2015-11-15T10:07:38.000Z</time>
      </trkpt>
      <trkpt lat="47.49314" lon="6.72438">
        <ele>409</ele>
        <time>2015-11-15T10:07:39.000Z</time>
      </trkpt>
      <trkpt lat="47.49314" lon="6.72435">
        <ele>409</ele>
        <time>2015-11-15T10:07:40.000Z</time>
      </trkpt>
      <trkpt lat="47.49313" lon="6.72431">
        <ele>409</ele>
        <time>2015-11-15T10:07:41.000Z</time>
      </trkpt>
      <trkpt lat="47.49313" lon="6.72427">
        <ele>409</ele>
        <time>2015-11-15T10:07:42.000Z</time>
      </trkpt>
      <trkpt lat="47.49312" lon="6.72423">
        <ele>410</ele>
        <time>2015-11-15T10:07:43.000Z</time>
      </trkpt>
      <trkpt lat="47.49312" lon="6.72418">
        <ele>410</ele>
        <time>2015-11-15T10:07:44.000Z</time>
      </trkpt>
      <trkpt lat="47.49312" lon="6.72414">
        <ele>411</ele>
        <time>2015-11-15T10:07:45.000Z</time>
      </trkpt>
      <trkpt lat="47.49311" lon="6.72408">
        <ele>411</ele>
        <time>2015-11-15T10:07:46.000Z</time>
      </trkpt>
      <trkpt lat="47.49312" lon="6.72403">
        <ele>411</ele>
        <time>2015-11-15T10:07:47.000Z</time>
      </trkpt>
      <trkpt lat="47.49312" lon="6.72397">
        <ele>411</ele>
        <time>2015-11-15T10:07:48.000Z</time>
      </trkpt>
      <trkpt lat="47.49314" lon="6.7239">
        <ele>411</ele>
        <time>2015-11-15T10:07:49.000Z</time>
      </trkpt>
      <trkpt lat="47.49315" lon="6.72383">
        <ele>411</ele>
        <time>2015-11-15T10:07:50.000Z</time>
      </trkpt>
      <trkpt lat="47.49316" lon="6.72377">
        <ele>411</ele>
        <time>2015-11-15T10:07:51.000Z</time>
      </trkpt>
      <trkpt lat="47.49317" lon="6.72371">
        <ele>411</ele>
        <time>2015-11-15T10:07:52.000Z</time>
      </trkpt>
      <trkpt lat="47.49318" lon="6.72365">
        <ele>411</ele>
        <time>2015-11-15T10:07:53.000Z</time>
      </trkpt>
      <trkpt lat="47.49318" lon="6.7236">
        <ele>411</ele>
        <time>2015-11-15T10:07:54.000Z</time>
      </trkpt>
      <trkpt lat="47.49319" lon="6.72354">
        <ele>412</ele>
        <time>2015-11-15T10:07:55.000Z</time>
      </trkpt>
      <trkpt lat="47.49319" lon="6.72349">
        <ele>412</ele>
        <time>2015-11-15T10:07:56.000Z</time>
      </trkpt>
      <trkpt lat="47.4932" lon="6.72344">
        <ele>412</ele>
        <time>2015-11-15T10:07:57.000Z</time>
      </trkpt>
      <trkpt lat="47.4932" lon="6.7234">
        <ele>412</ele>
        <time>2015-11-15T10:07:58.000Z</time>
      </trkpt>
      <trkpt lat="47.49321" lon="6.72337">
        <ele>412</ele>
        <time>2015-11-15T10:07:59.000Z</time>
      </trkpt>
      <trkpt lat="47.49321" lon="6.72334">
        <ele>413</ele>
        <time>2015-11-15T10:08:00.000Z</time>
      </trkpt>
      <trkpt lat="47.49321" lon="6.7233">
        <ele>414</ele>
        <time>2015-11-15T10:08:01.000Z</time>
      </trkpt>
      <trkpt lat="47.49322" lon="6.72326">
        <ele>414</ele>
        <time>2015-11-15T10:08:02.000Z</time>
      </trkpt>
      <trkpt lat="47.49323" lon="6.72322">
        <ele>414</ele>
        <time>2015-11-15T10:08:03.000Z</time>
      </trkpt>
      <trkpt lat="47.49324" lon="6.72317">
        <ele>414</ele>
        <time>2015-11-15T10:08:04.000Z</time>
      </trkpt>
      <trkpt lat="47.49325" lon="6.72313">
        <ele>414</ele>
        <time>2015-11-15T10:08:05.000Z</time>
      </trkpt>
      <trkpt lat="47.49326" lon="6.72309">
        <ele>414</ele>
        <time>2015-11-15T10:08:06.000Z</time>
      </trkpt>
      <trkpt lat="47.49328" lon="6.72305">
        <ele>414</ele>
        <time>2015-11-15T10:08:07.000Z</time>
      </trkpt>
      <trkpt lat="47.49329" lon="6.723">
        <ele>414</ele>
        <time>2015-11-15T10:08:08.000Z</time>
      </trkpt>
      <trkpt lat="47.49331" lon="6.72295">
        <ele>414</ele>
        <time>2015-11-15T10:08:09.000Z</time>
      </trkpt>
      <trkpt lat="47.49331" lon="6.7229">
        <ele>414</ele>
        <time>2015-11-15T10:08:10.000Z</time>
      </trkpt>
      <trkpt lat="47.49332" lon="6.72284">
        <ele>415</ele>
        <time>2015-11-15T10:08:11.000Z</time>
      </trkpt>
      <trkpt lat="47.49333" lon="6.72279">
        <ele>415</ele>
        <time>2015-11-15T10:08:12.000Z</time>
      </trkpt>
      <trkpt lat="47.49333" lon="6.72274">
        <ele>415</ele>
        <time>2015-11-15T10:08:13.000Z</time>
      </trkpt>
      <trkpt lat="47.49334" lon="6.72269">
        <ele>416</ele>
        <time>2015-11-15T10:08:14.000Z</time>
      </trkpt>
      <trkpt lat="47.49334" lon="6.72265">
        <ele>417</ele>
        <time>2015-11-15T10:08:15.000Z</time>
      </trkpt>
      <trkpt lat="47.49335" lon="6.72261">
        <ele>417</ele>
        <time>2015-11-15T10:08:16.000Z</time>
      </trkpt>
      <trkpt lat="47.49336" lon="6.72258">
        <ele>417</ele>
        <time>2015-11-15T10:08:17.000Z</time>
      </trkpt>
      <trkpt lat="47.49337" lon="6.72254">
        <ele>417</ele>
        <time>2015-11-15T10:08:18.000Z</time>
      </trkpt>
      <trkpt lat="47.49339" lon="6.72251">
        <ele>417</ele>
        <time>2015-11-15T10:08:19.000Z</time>
      </trkpt>
      <trkpt lat="47.4934" lon="6.72245">
        <ele>418</ele>
        <time>2015-11-15T10:08:21.000Z</time>
      </trkpt>
      <trkpt lat="47.49341" lon="6.72243">
        <ele>418</ele>
        <time>2015-11-15T10:08:22.000Z</time>
      </trkpt>
      <trkpt lat="47.49342" lon="6.72238">
        <ele>419</ele>
        <time>2015-11-15T10:08:24.000Z</time>
      </trkpt>
      <trkpt lat="47.49342" lon="6.72236">
        <ele>419</ele>
        <time>2015-11-15T10:08:25.000Z</time>
      </trkpt>
      <trkpt lat="47.49342" lon="6.72231">
        <ele>419</ele>
        <time>2015-11-15T10:08:27.000Z</time>
      </trkpt>
      <trkpt lat="47.49342" lon="6.72229">
        <ele>419</ele>
        <time>2015-11-15T10:08:28.000Z</time>
      </trkpt>
      <trkpt lat="47.49344" lon="6.72224">
        <ele>419</ele>
        <time>2015-11-15T10:08:31.000Z</time>
      </trkpt>
      <trkpt lat="47.49345" lon="6.72221">
        <ele>419</ele>
        <time>2015-11-15T10:08:32.000Z</time>
      </trkpt>
      <trkpt lat="47.49345" lon="6.72218">
        <ele>419</ele>
        <time>2015-11-15T10:08:33.000Z</time>
      </trkpt>
      <trkpt lat="47.49346" lon="6.72215">
        <ele>419</ele>
        <time>2015-11-15T10:08:34.000Z</time>
      </trkpt>
      <trkpt lat="47.49346" lon="6.72208">
        <ele>419</ele>
        <time>2015-11-15T10:08:36.000Z</time>
      </trkpt>
      <trkpt lat="47.49347" lon="6.72205">
        <ele>420</ele>
        <time>2015-11-15T10:08:37.000Z</time>
      </trkpt>
      <trkpt lat="47.49347" lon="6.72201">
        <ele>420</ele>
        <time>2015-11-15T10:08:38.000Z</time>
      </trkpt>
      <trkpt lat="47.49348" lon="6.72197">
        <ele>420</ele>
        <time>2015-11-15T10:08:39.000Z</time>
      </trkpt>
      <trkpt lat="47.49349" lon="6.72193">
        <ele>420</ele>
        <time>2015-11-15T10:08:40.000Z</time>
      </trkpt>
      <trkpt lat="47.4935" lon="6.72189">
        <ele>420</ele>
        <time>2015-11-15T10:08:41.000Z</time>
      </trkpt>
      <trkpt lat="47.49351" lon="6.72186">
        <ele>420</ele>
        <time>2015-11-15T10:08:42.000Z</time>
      </trkpt>
      <trkpt lat="47.49351" lon="6.72182">
        <ele>420</ele>
        <time>2015-11-15T10:08:43.000Z</time>
      </trkpt>
      <trkpt lat="47.49352" lon="6.72179">
        <ele>420</ele>
        <time>2015-11-15T10:08:44.000Z</time>
      </trkpt>
      <trkpt lat="47.49352" lon="6.72176">
        <ele>420</ele>
        <time>2015-11-15T10:08:45.000Z</time>
      </trkpt>
      <trkpt lat="47.49352" lon="6.72172">
        <ele>421</ele>
        <time>2015-11-15T10:08:46.000Z</time>
      </trkpt>
      <trkpt lat="47.49352" lon="6.72169">
        <ele>421</ele>
        <time>2015-11-15T10:08:47.000Z</time>
      </trkpt>
      <trkpt lat="47.49353" lon="6.72163">
        <ele>422</ele>
        <time>2015-11-15T10:08:49.000Z</time>
      </trkpt>
      <trkpt lat="47.49353" lon="6.72161">
        <ele>422</ele>
        <time>2015-11-15T10:08:50.000Z</time>
      </trkpt>
      <trkpt lat="47.49354" lon="6.72155">
        <ele>422</ele>
        <time>2015-11-15T10:08:53.000Z</time>
      </trkpt>
      <trkpt lat="47.49355" lon="6.72152">
        <ele>422</ele>
        <time>2015-11-15T10:08:54.000Z</time>
      </trkpt>
      <trkpt lat="47.49354" lon="6.72149">
        <ele>422</ele>
        <time>2015-11-15T10:08:55.000Z</time>
      </trkpt>
      <trkpt lat="47.49354" lon="6.72145">
        <ele>423</ele>
        <time>2015-11-15T10:08:56.000Z</time>
      </trkpt>
      <trkpt lat="47.49354" lon="6.72141">
        <ele>423</ele>
        <time>2015-11-15T10:08:57.000Z</time>
      </trkpt>
      <trkpt lat="47.49354" lon="6.72138">
        <ele>423</ele>
        <time>2015-11-15T10:08:58.000Z</time>
      </trkpt>
      <trkpt lat="47.49354" lon="6.72134">
        <ele>423</ele>
        <time>2015-11-15T10:08:59.000Z</time>
      </trkpt>
      <trkpt lat="47.49354" lon="6.72131">
        <ele>423</ele>
        <time>2015-11-15T10:09:00.000Z</time>
      </trkpt>
      <trkpt lat="47.49354" lon="6.72125">
        <ele>423</ele>
        <time>2015-11-15T10:09:02.000Z</time>
      </trkpt>
      <trkpt lat="47.49354" lon="6.72121">
        <ele>423</ele>
        <time>2015-11-15T10:09:03.000Z</time>
      </trkpt>
      <trkpt lat="47.49354" lon="6.72118">
        <ele>423</ele>
        <time>2015-11-15T10:09:04.000Z</time>
      </trkpt>
      <trkpt lat="47.49354" lon="6.72114">
        <ele>423</ele>
        <time>2015-11-15T10:09:05.000Z</time>
      </trkpt>
      <trkpt lat="47.49356" lon="6.72109">
        <ele>423</ele>
        <time>2015-11-15T10:09:07.000Z</time>
      </trkpt>
      <trkpt lat="47.49358" lon="6.72108">
        <ele>423</ele>
        <time>2015-11-15T10:09:08.000Z</time>
      </trkpt>
      <trkpt lat="47.49361" lon="6.72105">
        <ele>423</ele>
        <time>2015-11-15T10:09:14.000Z</time>
      </trkpt>
      <trkpt lat="47.49362" lon="6.72105">
        <ele>423</ele>
        <time>2015-11-15T10:09:15.000Z</time>
      </trkpt>
      <trkpt lat="47.49365" lon="6.72107">
        <ele>423</ele>
        <time>2015-11-15T10:09:29.000Z</time>
      </trkpt>
      <trkpt lat="47.49365" lon="6.7211">
        <ele>423</ele>
        <time>2015-11-15T10:09:30.000Z</time>
      </trkpt>
      <trkpt lat="47.49365" lon="6.72116">
        <ele>423</ele>
        <time>2015-11-15T10:09:32.000Z</time>
      </trkpt>
      <trkpt lat="47.49365" lon="6.72119">
        <ele>423</ele>
        <time>2015-11-15T10:09:33.000Z</time>
      </trkpt>
      <trkpt lat="47.49366" lon="6.72123">
        <ele>423</ele>
        <time>2015-11-15T10:09:34.000Z</time>
      </trkpt>
      <trkpt lat="47.49366" lon="6.72127">
        <ele>423</ele>
        <time>2015-11-15T10:09:35.000Z</time>
      </trkpt>
      <trkpt lat="47.49367" lon="6.7213">
        <ele>423</ele>
        <time>2015-11-15T10:09:36.000Z</time>
      </trkpt>
      <trkpt lat="47.49367" lon="6.72134">
        <ele>423</ele>
        <time>2015-11-15T10:09:37.000Z</time>
      </trkpt>
      <trkpt lat="47.49367" lon="6.72137">
        <ele>423</ele>
        <time>2015-11-15T10:09:38.000Z</time>
      </trkpt>
      <trkpt lat="47.49367" lon="6.72141">
        <ele>423</ele>
        <time>2015-11-15T10:09:39.000Z</time>
      </trkpt>
      <trkpt lat="47.49368" lon="6.72147">
        <ele>422</ele>
        <time>2015-11-15T10:09:41.000Z</time>
      </trkpt>
      <trkpt lat="47.49368" lon="6.72149">
        <ele>422</ele>
        <time>2015-11-15T10:09:42.000Z</time>
      </trkpt>
      <trkpt lat="47.4937" lon="6.72144">
        <ele>422</ele>
        <time>2015-11-15T10:10:30.000Z</time>
      </trkpt>
      <trkpt lat="47.4937" lon="6.72143">
        <ele>422</ele>
        <time>2015-11-15T10:10:31.000Z</time>
      </trkpt>
      <trkpt lat="47.4937" lon="6.72137">
        <ele>423</ele>
        <time>2015-11-15T10:10:34.000Z</time>
      </trkpt>
      <trkpt lat="47.4937" lon="6.72135">
        <ele>423</ele>
        <time>2015-11-15T10:10:35.000Z</time>
      </trkpt>
      <trkpt lat="47.4937" lon="6.72129">
        <ele>423</ele>
        <time>2015-11-15T10:10:40.000Z</time>
      </trkpt>
      <trkpt lat="47.4937" lon="6.72126">
        <ele>423</ele>
        <time>2015-11-15T10:10:41.000Z</time>
      </trkpt>
      <trkpt lat="47.4937" lon="6.72121">
        <ele>423</ele>
        <time>2015-11-15T10:10:43.000Z</time>
      </trkpt>
      <trkpt lat="47.49369" lon="6.72118">
        <ele>423</ele>
        <time>2015-11-15T10:10:44.000Z</time>
      </trkpt>
      <trkpt lat="47.49368" lon="6.72113">
        <ele>423</ele>
        <time>2015-11-15T10:10:46.000Z</time>
      </trkpt>
      <trkpt lat="47.49368" lon="6.72111">
        <ele>423</ele>
        <time>2015-11-15T10:10:47.000Z</time>
      </trkpt>
      <trkpt lat="47.49367" lon="6.72106">
        <ele>423</ele>
        <time>2015-11-15T10:10:49.000Z</time>
      </trkpt>
      <trkpt lat="47.49367" lon="6.72103">
        <ele>423</ele>
        <time>2015-11-15T10:10:50.000Z</time>
      </trkpt>
      <trkpt lat="47.49367" lon="6.72097">
        <ele>423</ele>
        <time>2015-11-15T10:10:52.000Z</time>
      </trkpt>
      <trkpt lat="47.49366" lon="6.72094">
        <ele>423</ele>
        <time>2015-11-15T10:10:53.000Z</time>
      </trkpt>
      <trkpt lat="47.49367" lon="6.72088">
        <ele>423</ele>
        <time>2015-11-15T10:10:56.000Z</time>
      </trkpt>
      <trkpt lat="47.49368" lon="6.72086">
        <ele>423</ele>
        <time>2015-11-15T10:10:57.000Z</time>
      </trkpt>
      <trkpt lat="47.49368" lon="6.72081">
        <ele>425</ele>
        <time>2015-11-15T10:10:59.000Z</time>
      </trkpt>
      <trkpt lat="47.49369" lon="6.72078">
        <ele>425</ele>
        <time>2015-11-15T10:11:00.000Z</time>
      </trkpt>
      <trkpt lat="47.4937" lon="6.72072">
        <ele>425</ele>
        <time>2015-11-15T10:11:02.000Z</time>
      </trkpt>
      <trkpt lat="47.4937" lon="6.7207">
        <ele>425</ele>
        <time>2015-11-15T10:11:03.000Z</time>
      </trkpt>
      <trkpt lat="47.49371" lon="6.72065">
        <ele>425</ele>
        <time>2015-11-15T10:11:05.000Z</time>
      </trkpt>
      <trkpt lat="47.49371" lon="6.72062">
        <ele>425</ele>
        <time>2015-11-15T10:11:06.000Z</time>
      </trkpt>
      <trkpt lat="47.49372" lon="6.72058">
        <ele>426</ele>
        <time>2015-11-15T10:11:08.000Z</time>
      </trkpt>
      <trkpt lat="47.49373" lon="6.72056">
        <ele>426</ele>
        <time>2015-11-15T10:11:09.000Z</time>
      </trkpt>
      <trkpt lat="47.49373" lon="6.72051">
        <ele>426</ele>
        <time>2015-11-15T10:11:11.000Z</time>
      </trkpt>
      <trkpt lat="47.49374" lon="6.72048">
        <ele>426</ele>
        <time>2015-11-15T10:11:12.000Z</time>
      </trkpt>
      <trkpt lat="47.49374" lon="6.72043">
        <ele>426</ele>
        <time>2015-11-15T10:11:14.000Z</time>
      </trkpt>
      <trkpt lat="47.49374" lon="6.7204">
        <ele>426</ele>
        <time>2015-11-15T10:11:15.000Z</time>
      </trkpt>
      <trkpt lat="47.49375" lon="6.72035">
        <ele>426</ele>
        <time>2015-11-15T10:11:17.000Z</time>
      </trkpt>
      <trkpt lat="47.49375" lon="6.72033">
        <ele>426</ele>
        <time>2015-11-15T10:11:18.000Z</time>
      </trkpt>
      <trkpt lat="47.49376" lon="6.72028">
        <ele>426</ele>
        <time>2015-11-15T10:11:20.000Z</time>
      </trkpt>
      <trkpt lat="47.49376" lon="6.72025">
        <ele>426</ele>
        <time>2015-11-15T10:11:21.000Z</time>
      </trkpt>
      <trkpt lat="47.49377" lon="6.7202">
        <ele>426</ele>
        <time>2015-11-15T10:11:23.000Z</time>
      </trkpt>
      <trkpt lat="47.49378" lon="6.72017">
        <ele>426</ele>
        <time>2015-11-15T10:11:24.000Z</time>
      </trkpt>
      <trkpt lat="47.49379" lon="6.72013">
        <ele>426</ele>
        <time>2015-11-15T10:11:26.000Z</time>
      </trkpt>
      <trkpt lat="47.49379" lon="6.7201">
        <ele>426</ele>
        <time>2015-11-15T10:11:27.000Z</time>
      </trkpt>
      <trkpt lat="47.49379" lon="6.72005">
        <ele>426</ele>
        <time>2015-11-15T10:11:29.000Z</time>
      </trkpt>
      <trkpt lat="47.49379" lon="6.72003">
        <ele>426</ele>
        <time>2015-11-15T10:11:30.000Z</time>
      </trkpt>
      <trkpt lat="47.4938" lon="6.71997">
        <ele>429</ele>
        <time>2015-11-15T10:11:32.000Z</time>
      </trkpt>
      <trkpt lat="47.49381" lon="6.71995">
        <ele>429</ele>
        <time>2015-11-15T10:11:33.000Z</time>
      </trkpt>
      <trkpt lat="47.49382" lon="6.71991">
        <ele>429</ele>
        <time>2015-11-15T10:11:35.000Z</time>
      </trkpt>
      <trkpt lat="47.49382" lon="6.71988">
        <ele>429</ele>
        <time>2015-11-15T10:11:36.000Z</time>
      </trkpt>
      <trkpt lat="47.49383" lon="6.71982">
        <ele>429</ele>
        <time>2015-11-15T10:11:39.000Z</time>
      </trkpt>
      <trkpt lat="47.49383" lon="6.71979">
        <ele>429</ele>
        <time>2015-11-15T10:11:40.000Z</time>
      </trkpt>
      <trkpt lat="47.49385" lon="6.71975">
        <ele>430</ele>
        <time>2015-11-15T10:11:42.000Z</time>
      </trkpt>
      <trkpt lat="47.49385" lon="6.71972">
        <ele>430</ele>
        <time>2015-11-15T10:11:43.000Z</time>
      </trkpt>
      <trkpt lat="47.49386" lon="6.71966">
        <ele>430</ele>
        <time>2015-11-15T10:11:46.000Z</time>
      </trkpt>
      <trkpt lat="47.49386" lon="6.71964">
        <ele>430</ele>
        <time>2015-11-15T10:11:47.000Z</time>
      </trkpt>
      <trkpt lat="47.49387" lon="6.71959">
        <ele>430</ele>
        <time>2015-11-15T10:11:49.000Z</time>
      </trkpt>
      <trkpt lat="47.49387" lon="6.71956">
        <ele>430</ele>
        <time>2015-11-15T10:11:50.000Z</time>
      </trkpt>
      <trkpt lat="47.49389" lon="6.71951">
        <ele>431</ele>
        <time>2015-11-15T10:11:52.000Z</time>
      </trkpt>
      <trkpt lat="47.49389" lon="6.71949">
        <ele>431</ele>
        <time>2015-11-15T10:11:53.000Z</time>
      </trkpt>
      <trkpt lat="47.49391" lon="6.71943">
        <ele>431</ele>
        <time>2015-11-15T10:11:56.000Z</time>
      </trkpt>
      <trkpt lat="47.49392" lon="6.71941">
        <ele>431</ele>
        <time>2015-11-15T10:11:57.000Z</time>
      </trkpt>
      <trkpt lat="47.49392" lon="6.71936">
        <ele>431</ele>
        <time>2015-11-15T10:12:00.000Z</time>
      </trkpt>
      <trkpt lat="47.49392" lon="6.71935">
        <ele>431</ele>
        <time>2015-11-15T10:12:01.000Z</time>
      </trkpt>
      <trkpt lat="47.49392" lon="6.71928">
        <ele>432</ele>
        <time>2015-11-15T10:12:04.000Z</time>
      </trkpt>
      <trkpt lat="47.49393" lon="6.71926">
        <ele>432</ele>
        <time>2015-11-15T10:12:05.000Z</time>
      </trkpt>
      <trkpt lat="47.49393" lon="6.7192">
        <ele>432</ele>
        <time>2015-11-15T10:12:08.000Z</time>
      </trkpt>
      <trkpt lat="47.49393" lon="6.71918">
        <ele>432</ele>
        <time>2015-11-15T10:12:09.000Z</time>
      </trkpt>
      <trkpt lat="47.49392" lon="6.71912">
        <ele>434</ele>
        <time>2015-11-15T10:12:12.000Z</time>
      </trkpt>
      <trkpt lat="47.49392" lon="6.7191">
        <ele>434</ele>
        <time>2015-11-15T10:12:13.000Z</time>
      </trkpt>
      <trkpt lat="47.49391" lon="6.71903">
        <ele>434</ele>
        <time>2015-11-15T10:12:16.000Z</time>
      </trkpt>
      <trkpt lat="47.49391" lon="6.71901">
        <ele>435</ele>
        <time>2015-11-15T10:12:17.000Z</time>
      </trkpt>
      <trkpt lat="47.49391" lon="6.71896">
        <ele>435</ele>
        <time>2015-11-15T10:12:19.000Z</time>
      </trkpt>
      <trkpt lat="47.49391" lon="6.71893">
        <ele>435</ele>
        <time>2015-11-15T10:12:20.000Z</time>
      </trkpt>
      <trkpt lat="47.49391" lon="6.71888">
        <ele>435</ele>
        <time>2015-11-15T10:12:22.000Z</time>
      </trkpt>
      <trkpt lat="47.49392" lon="6.71885">
        <ele>435</ele>
        <time>2015-11-15T10:12:23.000Z</time>
      </trkpt>
      <trkpt lat="47.49393" lon="6.71879">
        <ele>435</ele>
        <time>2015-11-15T10:12:25.000Z</time>
      </trkpt>
      <trkpt lat="47.49393" lon="6.71877">
        <ele>435</ele>
        <time>2015-11-15T10:12:26.000Z</time>
      </trkpt>
      <trkpt lat="47.49395" lon="6.71872">
        <ele>435</ele>
        <time>2015-11-15T10:12:29.000Z</time>
      </trkpt>
      <trkpt lat="47.49395" lon="6.7187">
        <ele>435</ele>
        <time>2015-11-15T10:12:30.000Z</time>
      </trkpt>
      <trkpt lat="47.49395" lon="6.71865">
        <ele>435</ele>
        <time>2015-11-15T10:12:32.000Z</time>
      </trkpt>
      <trkpt lat="47.49395" lon="6.71863">
        <ele>435</ele>
        <time>2015-11-15T10:12:33.000Z</time>
      </trkpt>
      <trkpt lat="47.49397" lon="6.71858">
        <ele>436</ele>
        <time>2015-11-15T10:12:35.000Z</time>
      </trkpt>
      <trkpt lat="47.49397" lon="6.71856">
        <ele>436</ele>
        <time>2015-11-15T10:12:36.000Z</time>
      </trkpt>
      <trkpt lat="47.49399" lon="6.71852">
        <ele>436</ele>
        <time>2015-11-15T10:12:38.000Z</time>
      </trkpt>
      <trkpt lat="47.49399" lon="6.7185">
        <ele>436</ele>
        <time>2015-11-15T10:12:39.000Z</time>
      </trkpt>
      <trkpt lat="47.49402" lon="6.71844">
        <ele>436</ele>
        <time>2015-11-15T10:12:44.000Z</time>
      </trkpt>
      <trkpt lat="47.49402" lon="6.71843">
        <ele>436</ele>
        <time>2015-11-15T10:12:45.000Z</time>
      </trkpt>
      <trkpt lat="47.49403" lon="6.71837">
        <ele>437</ele>
        <time>2015-11-15T10:12:48.000Z</time>
      </trkpt>
      <trkpt lat="47.49404" lon="6.71835">
        <ele>437</ele>
        <time>2015-11-15T10:12:49.000Z</time>
      </trkpt>
      <trkpt lat="47.49406" lon="6.7183">
        <ele>438</ele>
        <time>2015-11-15T10:12:52.000Z</time>
      </trkpt>
      <trkpt lat="47.49407" lon="6.71828">
        <ele>438</ele>
        <time>2015-11-15T10:12:53.000Z</time>
      </trkpt>
      <trkpt lat="47.49408" lon="6.71824">
        <ele>438</ele>
        <time>2015-11-15T10:12:55.000Z</time>
      </trkpt>
      <trkpt lat="47.49409" lon="6.71821">
        <ele>438</ele>
        <time>2015-11-15T10:12:56.000Z</time>
      </trkpt>
      <trkpt lat="47.49412" lon="6.71816">
        <ele>439</ele>
        <time>2015-11-15T10:12:58.000Z</time>
      </trkpt>
      <trkpt lat="47.49412" lon="6.71813">
        <ele>439</ele>
        <time>2015-11-15T10:12:59.000Z</time>
      </trkpt>
      <trkpt lat="47.49413" lon="6.71807">
        <ele>439</ele>
        <time>2015-11-15T10:13:02.000Z</time>
      </trkpt>
      <trkpt lat="47.49414" lon="6.71805">
        <ele>439</ele>
        <time>2015-11-15T10:13:03.000Z</time>
      </trkpt>
      <trkpt lat="47.49415" lon="6.718">
        <ele>439</ele>
        <time>2015-11-15T10:13:05.000Z</time>
      </trkpt>
      <trkpt lat="47.49415" lon="6.71797">
        <ele>440</ele>
        <time>2015-11-15T10:13:06.000Z</time>
      </trkpt>
      <trkpt lat="47.49416" lon="6.71791">
        <ele>440</ele>
        <time>2015-11-15T10:13:09.000Z</time>
      </trkpt>
      <trkpt lat="47.49416" lon="6.71789">
        <ele>440</ele>
        <time>2015-11-15T10:13:10.000Z</time>
      </trkpt>
      <trkpt lat="47.49415" lon="6.71784">
        <ele>441</ele>
        <time>2015-11-15T10:13:12.000Z</time>
      </trkpt>
      <trkpt lat="47.49415" lon="6.71782">
        <ele>441</ele>
        <time>2015-11-15T10:13:13.000Z</time>
      </trkpt>
      <trkpt lat="47.49415" lon="6.71776">
        <ele>441</ele>
        <time>2015-11-15T10:13:15.000Z</time>
      </trkpt>
      <trkpt lat="47.49415" lon="6.71773">
        <ele>442</ele>
        <time>2015-11-15T10:13:16.000Z</time>
      </trkpt>
      <trkpt lat="47.49415" lon="6.71767">
        <ele>442</ele>
        <time>2015-11-15T10:13:19.000Z</time>
      </trkpt>
      <trkpt lat="47.49415" lon="6.71765">
        <ele>443</ele>
        <time>2015-11-15T10:13:20.000Z</time>
      </trkpt>
      <trkpt lat="47.49414" lon="6.71759">
        <ele>444</ele>
        <time>2015-11-15T10:13:23.000Z</time>
      </trkpt>
      <trkpt lat="47.49414" lon="6.71757">
        <ele>444</ele>
        <time>2015-11-15T10:13:24.000Z</time>
      </trkpt>
      <trkpt lat="47.49412" lon="6.71753">
        <ele>445</ele>
        <time>2015-11-15T10:13:26.000Z</time>
      </trkpt>
      <trkpt lat="47.49412" lon="6.71751">
        <ele>445</ele>
        <time>2015-11-15T10:13:27.000Z</time>
      </trkpt>
      <trkpt lat="47.49412" lon="6.71745">
        <ele>446</ele>
        <time>2015-11-15T10:13:29.000Z</time>
      </trkpt>
      <trkpt lat="47.49412" lon="6.71742">
        <ele>445</ele>
        <time>2015-11-15T10:13:30.000Z</time>
      </trkpt>
      <trkpt lat="47.49411" lon="6.71736">
        <ele>445</ele>
        <time>2015-11-15T10:13:32.000Z</time>
      </trkpt>
      <trkpt lat="47.49411" lon="6.71733">
        <ele>445</ele>
        <time>2015-11-15T10:13:33.000Z</time>
      </trkpt>
      <trkpt lat="47.49411" lon="6.71727">
        <ele>445</ele>
        <time>2015-11-15T10:13:35.000Z</time>
      </trkpt>
      <trkpt lat="47.49411" lon="6.71725">
        <ele>445</ele>
        <time>2015-11-15T10:13:36.000Z</time>
      </trkpt>
      <trkpt lat="47.49411" lon="6.71719">
        <ele>445</ele>
        <time>2015-11-15T10:13:38.000Z</time>
      </trkpt>
      <trkpt lat="47.49411" lon="6.71716">
        <ele>445</ele>
        <time>2015-11-15T10:13:39.000Z</time>
      </trkpt>
      <trkpt lat="47.49412" lon="6.7171">
        <ele>446</ele>
        <time>2015-11-15T10:13:41.000Z</time>
      </trkpt>
      <trkpt lat="47.49412" lon="6.71707">
        <ele>446</ele>
        <time>2015-11-15T10:13:42.000Z</time>
      </trkpt>
      <trkpt lat="47.49412" lon="6.71701">
        <ele>446</ele>
        <time>2015-11-15T10:13:44.000Z</time>
      </trkpt>
      <trkpt lat="47.49412" lon="6.71699">
        <ele>446</ele>
        <time>2015-11-15T10:13:45.000Z</time>
      </trkpt>
      <trkpt lat="47.49411" lon="6.71694">
        <ele>447</ele>
        <time>2015-11-15T10:13:47.000Z</time>
      </trkpt>
      <trkpt lat="47.4941" lon="6.71692">
        <ele>447</ele>
        <time>2015-11-15T10:13:48.000Z</time>
      </trkpt>
      <trkpt lat="47.49409" lon="6.71687">
        <ele>447</ele>
        <time>2015-11-15T10:13:50.000Z</time>
      </trkpt>
      <trkpt lat="47.49409" lon="6.71684">
        <ele>447</ele>
        <time>2015-11-15T10:13:51.000Z</time>
      </trkpt>
      <trkpt lat="47.49408" lon="6.71679">
        <ele>448</ele>
        <time>2015-11-15T10:13:53.000Z</time>
      </trkpt>
      <trkpt lat="47.49408" lon="6.71676">
        <ele>448</ele>
        <time>2015-11-15T10:13:54.000Z</time>
      </trkpt>
      <trkpt lat="47.49407" lon="6.7167">
        <ele>449</ele>
        <time>2015-11-15T10:13:56.000Z</time>
      </trkpt>
      <trkpt lat="47.49407" lon="6.71667">
        <ele>449</ele>
        <time>2015-11-15T10:13:57.000Z</time>
      </trkpt>
      <trkpt lat="47.49408" lon="6.71661">
        <ele>450</ele>
        <time>2015-11-15T10:13:59.000Z</time>
      </trkpt>
      <trkpt lat="47.49408" lon="6.71657">
        <ele>450</ele>
        <time>2015-11-15T10:14:00.000Z</time>
      </trkpt>
      <trkpt lat="47.49408" lon="6.71651">
        <ele>450</ele>
        <time>2015-11-15T10:14:02.000Z</time>
      </trkpt>
      <trkpt lat="47.49408" lon="6.71648">
        <ele>450</ele>
        <time>2015-11-15T10:14:03.000Z</time>
      </trkpt>
      <trkpt lat="47.49408" lon="6.71642">
        <ele>450</ele>
        <time>2015-11-15T10:14:06.000Z</time>
      </trkpt>
      <trkpt lat="47.49408" lon="6.7164">
        <ele>450</ele>
        <time>2015-11-15T10:14:07.000Z</time>
      </trkpt>
      <trkpt lat="47.49407" lon="6.71634">
        <ele>450</ele>
        <time>2015-11-15T10:14:10.000Z</time>
      </trkpt>
      <trkpt lat="47.49407" lon="6.71631">
        <ele>450</ele>
        <time>2015-11-15T10:14:11.000Z</time>
      </trkpt>
      <trkpt lat="47.49407" lon="6.71628">
        <ele>450</ele>
        <time>2015-11-15T10:14:12.000Z</time>
      </trkpt>
      <trkpt lat="47.49407" lon="6.71624">
        <ele>450</ele>
        <time>2015-11-15T10:14:13.000Z</time>
      </trkpt>
      <trkpt lat="47.49407" lon="6.71621">
        <ele>450</ele>
        <time>2015-11-15T10:14:14.000Z</time>
      </trkpt>
      <trkpt lat="47.49407" lon="6.71617">
        <ele>450</ele>
        <time>2015-11-15T10:14:15.000Z</time>
      </trkpt>
      <trkpt lat="47.49406" lon="6.71611">
        <ele>450</ele>
        <time>2015-11-15T10:14:17.000Z</time>
      </trkpt>
      <trkpt lat="47.49406" lon="6.71608">
        <ele>450</ele>
        <time>2015-11-15T10:14:18.000Z</time>
      </trkpt>
      <trkpt lat="47.49405" lon="6.71602">
        <ele>451</ele>
        <time>2015-11-15T10:14:20.000Z</time>
      </trkpt>
      <trkpt lat="47.49405" lon="6.71599">
        <ele>451</ele>
        <time>2015-11-15T10:14:21.000Z</time>
      </trkpt>
      <trkpt lat="47.49404" lon="6.71594">
        <ele>451</ele>
        <time>2015-11-15T10:14:23.000Z</time>
      </trkpt>
      <trkpt lat="47.49404" lon="6.71592">
        <ele>451</ele>
        <time>2015-11-15T10:14:24.000Z</time>
      </trkpt>
      <trkpt lat="47.49403" lon="6.71587">
        <ele>452</ele>
        <time>2015-11-15T10:14:26.000Z</time>
      </trkpt>
      <trkpt lat="47.49403" lon="6.71584">
        <ele>452</ele>
        <time>2015-11-15T10:14:27.000Z</time>
      </trkpt>
      <trkpt lat="47.49402" lon="6.71581">
        <ele>453</ele>
        <time>2015-11-15T10:14:28.000Z</time>
      </trkpt>
      <trkpt lat="47.49402" lon="6.71577">
        <ele>453</ele>
        <time>2015-11-15T10:14:29.000Z</time>
      </trkpt>
      <trkpt lat="47.49402" lon="6.71573">
        <ele>453</ele>
        <time>2015-11-15T10:14:30.000Z</time>
      </trkpt>
      <trkpt lat="47.49401" lon="6.71569">
        <ele>453</ele>
        <time>2015-11-15T10:14:31.000Z</time>
      </trkpt>
      <trkpt lat="47.49401" lon="6.71564">
        <ele>453</ele>
        <time>2015-11-15T10:14:32.000Z</time>
      </trkpt>
      <trkpt lat="47.49401" lon="6.71559">
        <ele>453</ele>
        <time>2015-11-15T10:14:33.000Z</time>
      </trkpt>
      <trkpt lat="47.49402" lon="6.71554">
        <ele>453</ele>
        <time>2015-11-15T10:14:34.000Z</time>
      </trkpt>
      <trkpt lat="47.49402" lon="6.7155">
        <ele>453</ele>
        <time>2015-11-15T10:14:35.000Z</time>
      </trkpt>
      <trkpt lat="47.49401" lon="6.71546">
        <ele>453</ele>
        <time>2015-11-15T10:14:36.000Z</time>
      </trkpt>
      <trkpt lat="47.49401" lon="6.71543">
        <ele>453</ele>
        <time>2015-11-15T10:14:37.000Z</time>
      </trkpt>
      <trkpt lat="47.494" lon="6.71539">
        <ele>453</ele>
        <time>2015-11-15T10:14:38.000Z</time>
      </trkpt>
      <trkpt lat="47.494" lon="6.71536">
        <ele>453</ele>
        <time>2015-11-15T10:14:39.000Z</time>
      </trkpt>
      <trkpt lat="47.49399" lon="6.71533">
        <ele>453</ele>
        <time>2015-11-15T10:14:40.000Z</time>
      </trkpt>
      <trkpt lat="47.49398" lon="6.71529">
        <ele>453</ele>
        <time>2015-11-15T10:14:41.000Z</time>
      </trkpt>
      <trkpt lat="47.49397" lon="6.71525">
        <ele>454</ele>
        <time>2015-11-15T10:14:42.000Z</time>
      </trkpt>
      <trkpt lat="47.49397" lon="6.7152">
        <ele>454</ele>
        <time>2015-11-15T10:14:43.000Z</time>
      </trkpt>
      <trkpt lat="47.49396" lon="6.71515">
        <ele>454</ele>
        <time>2015-11-15T10:14:44.000Z</time>
      </trkpt>
      <trkpt lat="47.49395" lon="6.7151">
        <ele>454</ele>
        <time>2015-11-15T10:14:45.000Z</time>
      </trkpt>
      <trkpt lat="47.49394" lon="6.71505">
        <ele>454</ele>
        <time>2015-11-15T10:14:46.000Z</time>
      </trkpt>
      <trkpt lat="47.49393" lon="6.715">
        <ele>454</ele>
        <time>2015-11-15T10:14:47.000Z</time>
      </trkpt>
      <trkpt lat="47.49392" lon="6.71496">
        <ele>455</ele>
        <time>2015-11-15T10:14:48.000Z</time>
      </trkpt>
      <trkpt lat="47.49391" lon="6.71491">
        <ele>455</ele>
        <time>2015-11-15T10:14:49.000Z</time>
      </trkpt>
      <trkpt lat="47.49391" lon="6.71486">
        <ele>455</ele>
        <time>2015-11-15T10:14:50.000Z</time>
      </trkpt>
      <trkpt lat="47.4939" lon="6.71481">
        <ele>455</ele>
        <time>2015-11-15T10:14:51.000Z</time>
      </trkpt>
      <trkpt lat="47.4939" lon="6.71477">
        <ele>454</ele>
        <time>2015-11-15T10:14:52.000Z</time>
      </trkpt>
      <trkpt lat="47.49389" lon="6.71472">
        <ele>454</ele>
        <time>2015-11-15T10:14:53.000Z</time>
      </trkpt>
      <trkpt lat="47.49389" lon="6.71468">
        <ele>454</ele>
        <time>2015-11-15T10:14:54.000Z</time>
      </trkpt>
      <trkpt lat="47.49389" lon="6.71463">
        <ele>454</ele>
        <time>2015-11-15T10:14:55.000Z</time>
      </trkpt>
      <trkpt lat="47.49389" lon="6.71459">
        <ele>454</ele>
        <time>2015-11-15T10:14:56.000Z</time>
      </trkpt>
      <trkpt lat="47.49389" lon="6.71454">
        <ele>454</ele>
        <time>2015-11-15T10:14:57.000Z</time>
      </trkpt>
      <trkpt lat="47.49389" lon="6.71449">
        <ele>454</ele>
        <time>2015-11-15T10:14:58.000Z</time>
      </trkpt>
      <trkpt lat="47.49389" lon="6.71444">
        <ele>454</ele>
        <time>2015-11-15T10:14:59.000Z</time>
      </trkpt>
      <trkpt lat="47.49389" lon="6.71438">
        <ele>454</ele>
        <time>2015-11-15T10:15:00.000Z</time>
      </trkpt>
      <trkpt lat="47.4939" lon="6.71432">
        <ele>455</ele>
        <time>2015-11-15T10:15:01.000Z</time>
      </trkpt>
      <trkpt lat="47.49389" lon="6.71427">
        <ele>455</ele>
        <time>2015-11-15T10:15:02.000Z</time>
      </trkpt>
      <trkpt lat="47.49389" lon="6.71421">
        <ele>455</ele>
        <time>2015-11-15T10:15:03.000Z</time>
      </trkpt>
      <trkpt lat="47.49388" lon="6.71417">
        <ele>455</ele>
        <time>2015-11-15T10:15:04.000Z</time>
      </trkpt>
      <trkpt lat="47.49387" lon="6.71412">
        <ele>455</ele>
        <time>2015-11-15T10:15:05.000Z</time>
      </trkpt>
      <trkpt lat="47.49386" lon="6.71406">
        <ele>455</ele>
        <time>2015-11-15T10:15:06.000Z</time>
      </trkpt>
      <trkpt lat="47.49385" lon="6.71401">
        <ele>455</ele>
        <time>2015-11-15T10:15:07.000Z</time>
      </trkpt>
      <trkpt lat="47.49384" lon="6.71395">
        <ele>455</ele>
        <time>2015-11-15T10:15:08.000Z</time>
      </trkpt>
      <trkpt lat="47.49383" lon="6.71389">
        <ele>455</ele>
        <time>2015-11-15T10:15:09.000Z</time>
      </trkpt>
      <trkpt lat="47.49382" lon="6.71384">
        <ele>455</ele>
        <time>2015-11-15T10:15:10.000Z</time>
      </trkpt>
      <trkpt lat="47.49381" lon="6.71378">
        <ele>455</ele>
        <time>2015-11-15T10:15:11.000Z</time>
      </trkpt>
      <trkpt lat="47.4938" lon="6.71371">
        <ele>455</ele>
        <time>2015-11-15T10:15:12.000Z</time>
      </trkpt>
      <trkpt lat="47.49378" lon="6.71365">
        <ele>455</ele>
        <time>2015-11-15T10:15:13.000Z</time>
      </trkpt>
      <trkpt lat="47.49378" lon="6.71358">
        <ele>455</ele>
        <time>2015-11-15T10:15:14.000Z</time>
      </trkpt>
      <trkpt lat="47.49377" lon="6.71352">
        <ele>456</ele>
        <time>2015-11-15T10:15:15.000Z</time>
      </trkpt>
      <trkpt lat="47.49376" lon="6.71345">
        <ele>456</ele>
        <time>2015-11-15T10:15:16.000Z</time>
      </trkpt>
      <trkpt lat="47.49376" lon="6.71339">
        <ele>456</ele>
        <time>2015-11-15T10:15:17.000Z</time>
      </trkpt>
      <trkpt lat="47.49375" lon="6.71332">
        <ele>458</ele>
        <time>2015-11-15T10:15:18.000Z</time>
      </trkpt>
      <trkpt lat="47.49375" lon="6.71326">
        <ele>458</ele>
        <time>2015-11-15T10:15:19.000Z</time>
      </trkpt>
      <trkpt lat="47.49375" lon="6.7132">
        <ele>458</ele>
        <time>2015-11-15T10:15:20.000Z</time>
      </trkpt>
      <trkpt lat="47.49377" lon="6.71315">
        <ele>458</ele>
        <time>2015-11-15T10:15:21.000Z</time>
      </trkpt>
      <trkpt lat="47.49379" lon="6.71309">
        <ele>458</ele>
        <time>2015-11-15T10:15:22.000Z</time>
      </trkpt>
      <trkpt lat="47.4938" lon="6.71304">
        <ele>458</ele>
        <time>2015-11-15T10:15:23.000Z</time>
      </trkpt>
      <trkpt lat="47.49382" lon="6.713">
        <ele>459</ele>
        <time>2015-11-15T10:15:24.000Z</time>
      </trkpt>
      <trkpt lat="47.49383" lon="6.71296">
        <ele>459</ele>
        <time>2015-11-15T10:15:25.000Z</time>
      </trkpt>
      <trkpt lat="47.49383" lon="6.71292">
        <ele>459</ele>
        <time>2015-11-15T10:15:26.000Z</time>
      </trkpt>
      <trkpt lat="47.49384" lon="6.71289">
        <ele>459</ele>
        <time>2015-11-15T10:15:27.000Z</time>
      </trkpt>
      <trkpt lat="47.49384" lon="6.71286">
        <ele>459</ele>
        <time>2015-11-15T10:15:28.000Z</time>
      </trkpt>
      <trkpt lat="47.49383" lon="6.71282">
        <ele>459</ele>
        <time>2015-11-15T10:15:29.000Z</time>
      </trkpt>
      <trkpt lat="47.49383" lon="6.71279">
        <ele>459</ele>
        <time>2015-11-15T10:15:30.000Z</time>
      </trkpt>
      <trkpt lat="47.49382" lon="6.71275">
        <ele>459</ele>
        <time>2015-11-15T10:15:31.000Z</time>
      </trkpt>
      <trkpt lat="47.49381" lon="6.71272">
        <ele>459</ele>
        <time>2015-11-15T10:15:32.000Z</time>
      </trkpt>
      <trkpt lat="47.4938" lon="6.71269">
        <ele>459</ele>
        <time>2015-11-15T10:15:33.000Z</time>
      </trkpt>
      <trkpt lat="47.49379" lon="6.71265">
        <ele>459</ele>
        <time>2015-11-15T10:15:34.000Z</time>
      </trkpt>
      <trkpt lat="47.49378" lon="6.71262">
        <ele>459</ele>
        <time>2015-11-15T10:15:35.000Z</time>
      </trkpt>
      <trkpt lat="47.49377" lon="6.7126">
        <ele>459</ele>
        <time>2015-11-15T10:15:35.999Z</time>
      </trkpt>
      <trkpt lat="47.49376" lon="6.71254">
        <ele>459</ele>
        <time>2015-11-15T10:15:37.000Z</time>
      </trkpt>
      <trkpt lat="47.49376" lon="6.7125">
        <ele>460</ele>
        <time>2015-11-15T10:15:38.000Z</time>
      </trkpt>
      <trkpt lat="47.49375" lon="6.71245">
        <ele>460</ele>
        <time>2015-11-15T10:15:39.000Z</time>
      </trkpt>
      <trkpt lat="47.49375" lon="6.71241">
        <ele>460</ele>
        <time>2015-11-15T10:15:40.000Z</time>
      </trkpt>
      <trkpt lat="47.49374" lon="6.71236">
        <ele>460</ele>
        <time>2015-11-15T10:15:41.000Z</time>
      </trkpt>
      <trkpt lat="47.49373" lon="6.71232">
        <ele>460</ele>
        <time>2015-11-15T10:15:42.000Z</time>
      </trkpt>
      <trkpt lat="47.49372" lon="6.71228">
        <ele>460</ele>
        <time>2015-11-15T10:15:43.000Z</time>
      </trkpt>
      <trkpt lat="47.49371" lon="6.71224">
        <ele>460</ele>
        <time>2015-11-15T10:15:44.000Z</time>
      </trkpt>
      <trkpt lat="47.4937" lon="6.7122">
        <ele>460</ele>
        <time>2015-11-15T10:15:45.000Z</time>
      </trkpt>
      <trkpt lat="47.49369" lon="6.71217">
        <ele>460</ele>
        <time>2015-11-15T10:15:46.000Z</time>
      </trkpt>
      <trkpt lat="47.49367" lon="6.71213">
        <ele>460</ele>
        <time>2015-11-15T10:15:47.000Z</time>
      </trkpt>
      <trkpt lat="47.49366" lon="6.71209">
        <ele>460</ele>
        <time>2015-11-15T10:15:48.000Z</time>
      </trkpt>
      <trkpt lat="47.49365" lon="6.71205">
        <ele>460</ele>
        <time>2015-11-15T10:15:49.000Z</time>
      </trkpt>
      <trkpt lat="47.49364" lon="6.71201">
        <ele>460</ele>
        <time>2015-11-15T10:15:50.000Z</time>
      </trkpt>
      <trkpt lat="47.49363" lon="6.71197">
        <ele>460</ele>
        <time>2015-11-15T10:15:51.000Z</time>
      </trkpt>
      <trkpt lat="47.49363" lon="6.71193">
        <ele>460</ele>
        <time>2015-11-15T10:15:52.000Z</time>
      </trkpt>
      <trkpt lat="47.49362" lon="6.71188">
        <ele>460</ele>
        <time>2015-11-15T10:15:53.000Z</time>
      </trkpt>
      <trkpt lat="47.49362" lon="6.71184">
        <ele>460</ele>
        <time>2015-11-15T10:15:54.000Z</time>
      </trkpt>
      <trkpt lat="47.49361" lon="6.71179">
        <ele>459</ele>
        <time>2015-11-15T10:15:55.000Z</time>
      </trkpt>
      <trkpt lat="47.49359" lon="6.71175">
        <ele>459</ele>
        <time>2015-11-15T10:15:56.000Z</time>
      </trkpt>
      <trkpt lat="47.49358" lon="6.71171">
        <ele>459</ele>
        <time>2015-11-15T10:15:57.000Z</time>
      </trkpt>
      <trkpt lat="47.49357" lon="6.71166">
        <ele>459</ele>
        <time>2015-11-15T10:15:58.000Z</time>
      </trkpt>
      <trkpt lat="47.49356" lon="6.71161">
        <ele>459</ele>
        <time>2015-11-15T10:15:59.000Z</time>
      </trkpt>
      <trkpt lat="47.49355" lon="6.71155">
        <ele>459</ele>
        <time>2015-11-15T10:16:00.000Z</time>
      </trkpt>
      <trkpt lat="47.49354" lon="6.7115">
        <ele>459</ele>
        <time>2015-11-15T10:16:01.000Z</time>
      </trkpt>
      <trkpt lat="47.49352" lon="6.71146">
        <ele>459</ele>
        <time>2015-11-15T10:16:02.000Z</time>
      </trkpt>
      <trkpt lat="47.49351" lon="6.71142">
        <ele>459</ele>
        <time>2015-11-15T10:16:03.000Z</time>
      </trkpt>
      <trkpt lat="47.49349" lon="6.71139">
        <ele>459</ele>
        <time>2015-11-15T10:16:04.000Z</time>
      </trkpt>
      <trkpt lat="47.49348" lon="6.71136">
        <ele>459</ele>
        <time>2015-11-15T10:16:05.000Z</time>
      </trkpt>
      <trkpt lat="47.49346" lon="6.71133">
        <ele>459</ele>
        <time>2015-11-15T10:16:06.000Z</time>
      </trkpt>
      <trkpt lat="47.49344" lon="6.71129">
        <ele>459</ele>
        <time>2015-11-15T10:16:07.000Z</time>
      </trkpt>
      <trkpt lat="47.49343" lon="6.71124">
        <ele>459</ele>
        <time>2015-11-15T10:16:08.000Z</time>
      </trkpt>
      <trkpt lat="47.49341" lon="6.71119">
        <ele>459</ele>
        <time>2015-11-15T10:16:09.000Z</time>
      </trkpt>
      <trkpt lat="47.49339" lon="6.71115">
        <ele>459</ele>
        <time>2015-11-15T10:16:10.000Z</time>
      </trkpt>
      <trkpt lat="47.49338" lon="6.7111">
        <ele>459</ele>
        <time>2015-11-15T10:16:11.000Z</time>
      </trkpt>
      <trkpt lat="47.49336" lon="6.71106">
        <ele>459</ele>
        <time>2015-11-15T10:16:12.000Z</time>
      </trkpt>
      <trkpt lat="47.49334" lon="6.71102">
        <ele>459</ele>
        <time>2015-11-15T10:16:13.000Z</time>
      </trkpt>
      <trkpt lat="47.49331" lon="6.71099">
        <ele>455</ele>
        <time>2015-11-15T10:16:14.000Z</time>
      </trkpt>
      <trkpt lat="47.49329" lon="6.71094">
        <ele>455</ele>
        <time>2015-11-15T10:16:15.000Z</time>
      </trkpt>
      <trkpt lat="47.49327" lon="6.7109">
        <ele>456</ele>
        <time>2015-11-15T10:16:16.000Z</time>
      </trkpt>
      <trkpt lat="47.49325" lon="6.71084">
        <ele>456</ele>
        <time>2015-11-15T10:16:17.000Z</time>
      </trkpt>
      <trkpt lat="47.49323" lon="6.71079">
        <ele>456</ele>
        <time>2015-11-15T10:16:18.000Z</time>
      </trkpt>
      <trkpt lat="47.49321" lon="6.71074">
        <ele>456</ele>
        <time>2015-11-15T10:16:19.000Z</time>
      </trkpt>
      <trkpt lat="47.49319" lon="6.71069">
        <ele>455</ele>
        <time>2015-11-15T10:16:20.000Z</time>
      </trkpt>
      <trkpt lat="47.49316" lon="6.71065">
        <ele>455</ele>
        <time>2015-11-15T10:16:21.000Z</time>
      </trkpt>
      <trkpt lat="47.49313" lon="6.7106">
        <ele>454</ele>
        <time>2015-11-15T10:16:22.000Z</time>
      </trkpt>
      <trkpt lat="47.4931" lon="6.71056">
        <ele>454</ele>
        <time>2015-11-15T10:16:23.000Z</time>
      </trkpt>
      <trkpt lat="47.49307" lon="6.71051">
        <ele>454</ele>
        <time>2015-11-15T10:16:24.000Z</time>
      </trkpt>
      <trkpt lat="47.49303" lon="6.71046">
        <ele>454</ele>
        <time>2015-11-15T10:16:25.000Z</time>
      </trkpt>
      <trkpt lat="47.493" lon="6.71041">
        <ele>453</ele>
        <time>2015-11-15T10:16:26.000Z</time>
      </trkpt>
      <trkpt lat="47.49298" lon="6.71036">
        <ele>453</ele>
        <time>2015-11-15T10:16:27.000Z</time>
      </trkpt>
      <trkpt lat="47.49293" lon="6.7103">
        <ele>453</ele>
        <time>2015-11-15T10:16:28.000Z</time>
      </trkpt>
      <trkpt lat="47.49291" lon="6.71024">
        <ele>453</ele>
        <time>2015-11-15T10:16:29.000Z</time>
      </trkpt>
      <trkpt lat="47.49289" lon="6.71019">
        <ele>453</ele>
        <time>2015-11-15T10:16:30.000Z</time>
      </trkpt>
      <trkpt lat="47.49286" lon="6.71013">
        <ele>453</ele>
        <time>2015-11-15T10:16:31.000Z</time>
      </trkpt>
      <trkpt lat="47.49285" lon="6.71007">
        <ele>452</ele>
        <time>2015-11-15T10:16:32.000Z</time>
      </trkpt>
      <trkpt lat="47.49283" lon="6.71001">
        <ele>452</ele>
        <time>2015-11-15T10:16:33.000Z</time>
      </trkpt>
      <trkpt lat="47.49281" lon="6.70997">
        <ele>453</ele>
        <time>2015-11-15T10:16:34.000Z</time>
      </trkpt>
      <trkpt lat="47.49279" lon="6.70993">
        <ele>453</ele>
        <time>2015-11-15T10:16:35.000Z</time>
      </trkpt>
      <trkpt lat="47.49277" lon="6.70989">
        <ele>453</ele>
        <time>2015-11-15T10:16:36.000Z</time>
      </trkpt>
      <trkpt lat="47.49273" lon="6.70986">
        <ele>453</ele>
        <time>2015-11-15T10:16:37.000Z</time>
      </trkpt>
      <trkpt lat="47.4927" lon="6.7098">
        <ele>453</ele>
        <time>2015-11-15T10:16:38.000Z</time>
      </trkpt>
      <trkpt lat="47.49267" lon="6.70976">
        <ele>453</ele>
        <time>2015-11-15T10:16:39.000Z</time>
      </trkpt>
      <trkpt lat="47.49264" lon="6.70972">
        <ele>453</ele>
        <time>2015-11-15T10:16:40.000Z</time>
      </trkpt>
      <trkpt lat="47.49261" lon="6.70968">
        <ele>453</ele>
        <time>2015-11-15T10:16:41.000Z</time>
      </trkpt>
      <trkpt lat="47.49258" lon="6.70964">
        <ele>453</ele>
        <time>2015-11-15T10:16:42.000Z</time>
      </trkpt>
      <trkpt lat="47.49255" lon="6.7096">
        <ele>453</ele>
        <time>2015-11-15T10:16:43.000Z</time>
      </trkpt>
      <trkpt lat="47.49251" lon="6.70955">
        <ele>453</ele>
        <time>2015-11-15T10:16:44.000Z</time>
      </trkpt>
      <trkpt lat="47.49248" lon="6.70951">
        <ele>447</ele>
        <time>2015-11-15T10:16:45.000Z</time>
      </trkpt>
      <trkpt lat="47.49245" lon="6.70947">
        <ele>448</ele>
        <time>2015-11-15T10:16:46.000Z</time>
      </trkpt>
      <trkpt lat="47.49243" lon="6.70942">
        <ele>448</ele>
        <time>2015-11-15T10:16:47.000Z</time>
      </trkpt>
      <trkpt lat="47.4924" lon="6.70938">
        <ele>448</ele>
        <time>2015-11-15T10:16:48.000Z</time>
      </trkpt>
      <trkpt lat="47.49238" lon="6.70933">
        <ele>449</ele>
        <time>2015-11-15T10:16:49.000Z</time>
      </trkpt>
      <trkpt lat="47.49235" lon="6.70928">
        <ele>449</ele>
        <time>2015-11-15T10:16:50.000Z</time>
      </trkpt>
      <trkpt lat="47.49232" lon="6.70917">
        <ele>451</ele>
        <time>2015-11-15T10:16:51.000Z</time>
      </trkpt>
      <trkpt lat="47.4923" lon="6.70911">
        <ele>451</ele>
        <time>2015-11-15T10:16:52.000Z</time>
      </trkpt>
      <trkpt lat="47.49227" lon="6.70906">
        <ele>451</ele>
        <time>2015-11-15T10:16:53.000Z</time>
      </trkpt>
      <trkpt lat="47.49224" lon="6.709">
        <ele>450</ele>
        <time>2015-11-15T10:16:54.000Z</time>
      </trkpt>
      <trkpt lat="47.49222" lon="6.70894">
        <ele>450</ele>
        <time>2015-11-15T10:16:55.000Z</time>
      </trkpt>
      <trkpt lat="47.49219" lon="6.70889">
        <ele>450</ele>
        <time>2015-11-15T10:16:56.000Z</time>
      </trkpt>
      <trkpt lat="47.49216" lon="6.70885">
        <ele>450</ele>
        <time>2015-11-15T10:16:57.000Z</time>
      </trkpt>
      <trkpt lat="47.49213" lon="6.7088">
        <ele>450</ele>
        <time>2015-11-15T10:16:58.000Z</time>
      </trkpt>
      <trkpt lat="47.49211" lon="6.70874">
        <ele>450</ele>
        <time>2015-11-15T10:16:59.000Z</time>
      </trkpt>
      <trkpt lat="47.49209" lon="6.70869">
        <ele>450</ele>
        <time>2015-11-15T10:17:00.000Z</time>
      </trkpt>
      <trkpt lat="47.49207" lon="6.70864">
        <ele>450</ele>
        <time>2015-11-15T10:17:01.000Z</time>
      </trkpt>
      <trkpt lat="47.49202" lon="6.7086">
        <ele>449</ele>
        <time>2015-11-15T10:17:02.000Z</time>
      </trkpt>
      <trkpt lat="47.49199" lon="6.70856">
        <ele>449</ele>
        <time>2015-11-15T10:17:03.000Z</time>
      </trkpt>
      <trkpt lat="47.49196" lon="6.70851">
        <ele>449</ele>
        <time>2015-11-15T10:17:04.000Z</time>
      </trkpt>
      <trkpt lat="47.49193" lon="6.70847">
        <ele>449</ele>
        <time>2015-11-15T10:17:05.000Z</time>
      </trkpt>
      <trkpt lat="47.4919" lon="6.70843">
        <ele>449</ele>
        <time>2015-11-15T10:17:06.000Z</time>
      </trkpt>
      <trkpt lat="47.49187" lon="6.70839">
        <ele>449</ele>
        <time>2015-11-15T10:17:07.000Z</time>
      </trkpt>
      <trkpt lat="47.49184" lon="6.70835">
        <ele>449</ele>
        <time>2015-11-15T10:17:08.000Z</time>
      </trkpt>
      <trkpt lat="47.4918" lon="6.70829">
        <ele>450</ele>
        <time>2015-11-15T10:17:09.000Z</time>
      </trkpt>
      <trkpt lat="47.49177" lon="6.70823">
        <ele>450</ele>
        <time>2015-11-15T10:17:10.000Z</time>
      </trkpt>
      <trkpt lat="47.49173" lon="6.70817">
        <ele>450</ele>
        <time>2015-11-15T10:17:11.000Z</time>
      </trkpt>
      <trkpt lat="47.4917" lon="6.70811">
        <ele>451</ele>
        <time>2015-11-15T10:17:12.000Z</time>
      </trkpt>
      <trkpt lat="47.49167" lon="6.70807">
        <ele>451</ele>
        <time>2015-11-15T10:17:13.000Z</time>
      </trkpt>
      <trkpt lat="47.49164" lon="6.70801">
        <ele>446</ele>
        <time>2015-11-15T10:17:14.000Z</time>
      </trkpt>
      <trkpt lat="47.49161" lon="6.70797">
        <ele>446</ele>
        <time>2015-11-15T10:17:15.000Z</time>
      </trkpt>
      <trkpt lat="47.49158" lon="6.70791">
        <ele>447</ele>
        <time>2015-11-15T10:17:16.000Z</time>
      </trkpt>
      <trkpt lat="47.49155" lon="6.70785">
        <ele>447</ele>
        <time>2015-11-15T10:17:17.000Z</time>
      </trkpt>
      <trkpt lat="47.49153" lon="6.70782">
        <ele>447</ele>
        <time>2015-11-15T10:17:18.000Z</time>
      </trkpt>
      <trkpt lat="47.4915" lon="6.70778">
        <ele>447</ele>
        <time>2015-11-15T10:17:19.000Z</time>
      </trkpt>
      <trkpt lat="47.49147" lon="6.70772">
        <ele>447</ele>
        <time>2015-11-15T10:17:20.000Z</time>
      </trkpt>
      <trkpt lat="47.49145" lon="6.70767">
        <ele>447</ele>
        <time>2015-11-15T10:17:21.000Z</time>
      </trkpt>
      <trkpt lat="47.49142" lon="6.70761">
        <ele>447</ele>
        <time>2015-11-15T10:17:22.000Z</time>
      </trkpt>
      <trkpt lat="47.49139" lon="6.70755">
        <ele>447</ele>
        <time>2015-11-15T10:17:23.000Z</time>
      </trkpt>
      <trkpt lat="47.49137" lon="6.70748">
        <ele>449</ele>
        <time>2015-11-15T10:17:24.000Z</time>
      </trkpt>
      <trkpt lat="47.49134" lon="6.70742">
        <ele>449</ele>
        <time>2015-11-15T10:17:25.000Z</time>
      </trkpt>
      <trkpt lat="47.49131" lon="6.70734">
        <ele>449</ele>
        <time>2015-11-15T10:17:26.000Z</time>
      </trkpt>
      <trkpt lat="47.49129" lon="6.70729">
        <ele>449</ele>
        <time>2015-11-15T10:17:27.000Z</time>
      </trkpt>
      <trkpt lat="47.49126" lon="6.70723">
        <ele>449</ele>
        <time>2015-11-15T10:17:28.000Z</time>
      </trkpt>
      <trkpt lat="47.49124" lon="6.70717">
        <ele>449</ele>
        <time>2015-11-15T10:17:29.000Z</time>
      </trkpt>
      <trkpt lat="47.49122" lon="6.70712">
        <ele>449</ele>
        <time>2015-11-15T10:17:30.000Z</time>
      </trkpt>
      <trkpt lat="47.4912" lon="6.70706">
        <ele>449</ele>
        <time>2015-11-15T10:17:31.000Z</time>
      </trkpt>
      <trkpt lat="47.49118" lon="6.707">
        <ele>449</ele>
        <time>2015-11-15T10:17:32.000Z</time>
      </trkpt>
      <trkpt lat="47.49116" lon="6.70695">
        <ele>449</ele>
        <time>2015-11-15T10:17:33.000Z</time>
      </trkpt>
      <trkpt lat="47.49113" lon="6.7069">
        <ele>449</ele>
        <time>2015-11-15T10:17:34.000Z</time>
      </trkpt>
      <trkpt lat="47.49111" lon="6.70684">
        <ele>449</ele>
        <time>2015-11-15T10:17:35.000Z</time>
      </trkpt>
      <trkpt lat="47.49109" lon="6.70677">
        <ele>449</ele>
        <time>2015-11-15T10:17:36.000Z</time>
      </trkpt>
      <trkpt lat="47.49107" lon="6.70671">
        <ele>449</ele>
        <time>2015-11-15T10:17:37.000Z</time>
      </trkpt>
      <trkpt lat="47.49104" lon="6.70664">
        <ele>451</ele>
        <time>2015-11-15T10:17:38.000Z</time>
      </trkpt>
      <trkpt lat="47.49102" lon="6.70657">
        <ele>451</ele>
        <time>2015-11-15T10:17:39.000Z</time>
      </trkpt>
      <trkpt lat="47.491" lon="6.70644">
        <ele>452</ele>
        <time>2015-11-15T10:17:40.000Z</time>
      </trkpt>
      <trkpt lat="47.49099" lon="6.70637">
        <ele>452</ele>
        <time>2015-11-15T10:17:41.000Z</time>
      </trkpt>
      <trkpt lat="47.49097" lon="6.70631">
        <ele>452</ele>
        <time>2015-11-15T10:17:42.000Z</time>
      </trkpt>
      <trkpt lat="47.49095" lon="6.70625">
        <ele>452</ele>
        <time>2015-11-15T10:17:43.000Z</time>
      </trkpt>
      <trkpt lat="47.49094" lon="6.70619">
        <ele>452</ele>
        <time>2015-11-15T10:17:44.000Z</time>
      </trkpt>
      <trkpt lat="47.49092" lon="6.70613">
        <ele>453</ele>
        <time>2015-11-15T10:17:45.000Z</time>
      </trkpt>
      <trkpt lat="47.49091" lon="6.70608">
        <ele>453</ele>
        <time>2015-11-15T10:17:46.000Z</time>
      </trkpt>
      <trkpt lat="47.49089" lon="6.70603">
        <ele>453</ele>
        <time>2015-11-15T10:17:47.000Z</time>
      </trkpt>
      <trkpt lat="47.49086" lon="6.70599">
        <ele>453</ele>
        <time>2015-11-15T10:17:48.000Z</time>
      </trkpt>
      <trkpt lat="47.49084" lon="6.70593">
        <ele>453</ele>
        <time>2015-11-15T10:17:49.000Z</time>
      </trkpt>
      <trkpt lat="47.49081" lon="6.70589">
        <ele>451</ele>
        <time>2015-11-15T10:17:50.000Z</time>
      </trkpt>
      <trkpt lat="47.49078" lon="6.70585">
        <ele>451</ele>
        <time>2015-11-15T10:17:51.000Z</time>
      </trkpt>
      <trkpt lat="47.49074" lon="6.7058">
        <ele>451</ele>
        <time>2015-11-15T10:17:52.000Z</time>
      </trkpt>
      <trkpt lat="47.49071" lon="6.70573">
        <ele>450</ele>
        <time>2015-11-15T10:17:53.000Z</time>
      </trkpt>
      <trkpt lat="47.49068" lon="6.70566">
        <ele>450</ele>
        <time>2015-11-15T10:17:54.000Z</time>
      </trkpt>
      <trkpt lat="47.49065" lon="6.7056">
        <ele>449</ele>
        <time>2015-11-15T10:17:55.000Z</time>
      </trkpt>
      <trkpt lat="47.49064" lon="6.7055">
        <ele>449</ele>
        <time>2015-11-15T10:17:56.000Z</time>
      </trkpt>
      <trkpt lat="47.49062" lon="6.70542">
        <ele>449</ele>
        <time>2015-11-15T10:17:57.000Z</time>
      </trkpt>
      <trkpt lat="47.4906" lon="6.70535">
        <ele>449</ele>
        <time>2015-11-15T10:17:58.000Z</time>
      </trkpt>
      <trkpt lat="47.49057" lon="6.70525">
        <ele>449</ele>
        <time>2015-11-15T10:17:59.000Z</time>
      </trkpt>
      <trkpt lat="47.49055" lon="6.70517">
        <ele>449</ele>
        <time>2015-11-15T10:18:00.000Z</time>
      </trkpt>
      <trkpt lat="47.49052" lon="6.70511">
        <ele>449</ele>
        <time>2015-11-15T10:18:01.000Z</time>
      </trkpt>
      <trkpt lat="47.49048" lon="6.70503">
        <ele>449</ele>
        <time>2015-11-15T10:18:02.000Z</time>
      </trkpt>
      <trkpt lat="47.49044" lon="6.70497">
        <ele>449</ele>
        <time>2015-11-15T10:18:03.000Z</time>
      </trkpt>
      <trkpt lat="47.49041" lon="6.70489">
        <ele>448</ele>
        <time>2015-11-15T10:18:04.000Z</time>
      </trkpt>
      <trkpt lat="47.49038" lon="6.70482">
        <ele>448</ele>
        <time>2015-11-15T10:18:05.000Z</time>
      </trkpt>
      <trkpt lat="47.49035" lon="6.70473">
        <ele>448</ele>
        <time>2015-11-15T10:18:06.000Z</time>
      </trkpt>
      <trkpt lat="47.49032" lon="6.70466">
        <ele>448</ele>
        <time>2015-11-15T10:18:07.000Z</time>
      </trkpt>
      <trkpt lat="47.49029" lon="6.70458">
        <ele>448</ele>
        <time>2015-11-15T10:18:08.000Z</time>
      </trkpt>
      <trkpt lat="47.49026" lon="6.70452">
        <ele>448</ele>
        <time>2015-11-15T10:18:09.000Z</time>
      </trkpt>
      <trkpt lat="47.49024" lon="6.70445">
        <ele>448</ele>
        <time>2015-11-15T10:18:10.000Z</time>
      </trkpt>
      <trkpt lat="47.49021" lon="6.70439">
        <ele>448</ele>
        <time>2015-11-15T10:18:11.000Z</time>
      </trkpt>
      <trkpt lat="47.49018" lon="6.70431">
        <ele>448</ele>
        <time>2015-11-15T10:18:12.000Z</time>
      </trkpt>
      <trkpt lat="47.49015" lon="6.70425">
        <ele>448</ele>
        <time>2015-11-15T10:18:13.000Z</time>
      </trkpt>
      <trkpt lat="47.49013" lon="6.70418">
        <ele>448</ele>
        <time>2015-11-15T10:18:14.000Z</time>
      </trkpt>
      <trkpt lat="47.49011" lon="6.70409">
        <ele>448</ele>
        <time>2015-11-15T10:18:15.000Z</time>
      </trkpt>
      <trkpt lat="47.49008" lon="6.70401">
        <ele>448</ele>
        <time>2015-11-15T10:18:16.000Z</time>
      </trkpt>
      <trkpt lat="47.49007" lon="6.70394">
        <ele>448</ele>
        <time>2015-11-15T10:18:17.000Z</time>
      </trkpt>
      <trkpt lat="47.49005" lon="6.70389">
        <ele>448</ele>
        <time>2015-11-15T10:18:18.000Z</time>
      </trkpt>
      <trkpt lat="47.49002" lon="6.70383">
        <ele>448</ele>
        <time>2015-11-15T10:18:19.000Z</time>
      </trkpt>
      <trkpt lat="47.49" lon="6.70374">
        <ele>441</ele>
        <time>2015-11-15T10:18:20.000Z</time>
      </trkpt>
      <trkpt lat="47.48998" lon="6.70365">
        <ele>441</ele>
        <time>2015-11-15T10:18:21.000Z</time>
      </trkpt>
      <trkpt lat="47.48997" lon="6.70356">
        <ele>442</ele>
        <time>2015-11-15T10:18:22.000Z</time>
      </trkpt>
      <trkpt lat="47.48995" lon="6.70348">
        <ele>443</ele>
        <time>2015-11-15T10:18:23.000Z</time>
      </trkpt>
      <trkpt lat="47.48992" lon="6.70342">
        <ele>443</ele>
        <time>2015-11-15T10:18:24.000Z</time>
      </trkpt>
      <trkpt lat="47.48989" lon="6.70336">
        <ele>443</ele>
        <time>2015-11-15T10:18:24.999Z</time>
      </trkpt>
      <trkpt lat="47.48988" lon="6.70326">
        <ele>443</ele>
        <time>2015-11-15T10:18:26.000Z</time>
      </trkpt>
      <trkpt lat="47.48986" lon="6.70317">
        <ele>442</ele>
        <time>2015-11-15T10:18:27.000Z</time>
      </trkpt>
      <trkpt lat="47.48985" lon="6.70309">
        <ele>441</ele>
        <time>2015-11-15T10:18:28.000Z</time>
      </trkpt>
      <trkpt lat="47.48983" lon="6.703">
        <ele>440</ele>
        <time>2015-11-15T10:18:29.000Z</time>
      </trkpt>
      <trkpt lat="47.48981" lon="6.7029">
        <ele>440</ele>
        <time>2015-11-15T10:18:30.000Z</time>
      </trkpt>
      <trkpt lat="47.48979" lon="6.70284">
        <ele>440</ele>
        <time>2015-11-15T10:18:31.000Z</time>
      </trkpt>
      <trkpt lat="47.48977" lon="6.70277">
        <ele>440</ele>
        <time>2015-11-15T10:18:32.000Z</time>
      </trkpt>
      <trkpt lat="47.48975" lon="6.70269">
        <ele>440</ele>
        <time>2015-11-15T10:18:33.000Z</time>
      </trkpt>
      <trkpt lat="47.48975" lon="6.70259">
        <ele>440</ele>
        <time>2015-11-15T10:18:34.000Z</time>
      </trkpt>
      <trkpt lat="47.48973" lon="6.70249">
        <ele>440</ele>
        <time>2015-11-15T10:18:35.000Z</time>
      </trkpt>
      <trkpt lat="47.48973" lon="6.70239">
        <ele>440</ele>
        <time>2015-11-15T10:18:36.000Z</time>
      </trkpt>
      <trkpt lat="47.48972" lon="6.70231">
        <ele>439</ele>
        <time>2015-11-15T10:18:37.000Z</time>
      </trkpt>
      <trkpt lat="47.48972" lon="6.70225">
        <ele>439</ele>
        <time>2015-11-15T10:18:38.000Z</time>
      </trkpt>
      <trkpt lat="47.4897" lon="6.70216">
        <ele>439</ele>
        <time>2015-11-15T10:18:39.000Z</time>
      </trkpt>
      <trkpt lat="47.4897" lon="6.70208">
        <ele>439</ele>
        <time>2015-11-15T10:18:40.000Z</time>
      </trkpt>
      <trkpt lat="47.48969" lon="6.70201">
        <ele>439</ele>
        <time>2015-11-15T10:18:41.000Z</time>
      </trkpt>
      <trkpt lat="47.48966" lon="6.70193">
        <ele>439</ele>
        <time>2015-11-15T10:18:42.000Z</time>
      </trkpt>
      <trkpt lat="47.48965" lon="6.70184">
        <ele>438</ele>
        <time>2015-11-15T10:18:43.000Z</time>
      </trkpt>
      <trkpt lat="47.48963" lon="6.70174">
        <ele>438</ele>
        <time>2015-11-15T10:18:44.000Z</time>
      </trkpt>
      <trkpt lat="47.48961" lon="6.70166">
        <ele>436</ele>
        <time>2015-11-15T10:18:45.000Z</time>
      </trkpt>
      <trkpt lat="47.4896" lon="6.70156">
        <ele>435</ele>
        <time>2015-11-15T10:18:46.000Z</time>
      </trkpt>
      <trkpt lat="47.48958" lon="6.70146">
        <ele>435</ele>
        <time>2015-11-15T10:18:47.000Z</time>
      </trkpt>
      <trkpt lat="47.48956" lon="6.70137">
        <ele>434</ele>
        <time>2015-11-15T10:18:48.000Z</time>
      </trkpt>
      <trkpt lat="47.48954" lon="6.70129">
        <ele>434</ele>
        <time>2015-11-15T10:18:49.000Z</time>
      </trkpt>
      <trkpt lat="47.48952" lon="6.70118">
        <ele>433</ele>
        <time>2015-11-15T10:18:50.000Z</time>
      </trkpt>
      <trkpt lat="47.48949" lon="6.70107">
        <ele>433</ele>
        <time>2015-11-15T10:18:51.000Z</time>
      </trkpt>
      <trkpt lat="47.48947" lon="6.70098">
        <ele>432</ele>
        <time>2015-11-15T10:18:52.000Z</time>
      </trkpt>
      <trkpt lat="47.48945" lon="6.70089">
        <ele>432</ele>
        <time>2015-11-15T10:18:53.000Z</time>
      </trkpt>
      <trkpt lat="47.48941" lon="6.70082">
        <ele>428</ele>
        <time>2015-11-15T10:18:54.000Z</time>
      </trkpt>
      <trkpt lat="47.48938" lon="6.70074">
        <ele>428</ele>
        <time>2015-11-15T10:18:55.000Z</time>
      </trkpt>
      <trkpt lat="47.48934" lon="6.70069">
        <ele>428</ele>
        <time>2015-11-15T10:18:56.000Z</time>
      </trkpt>
      <trkpt lat="47.48928" lon="6.70061">
        <ele>428</ele>
        <time>2015-11-15T10:18:57.000Z</time>
      </trkpt>
      <trkpt lat="47.48923" lon="6.70054">
        <ele>427</ele>
        <time>2015-11-15T10:18:58.000Z</time>
      </trkpt>
      <trkpt lat="47.48917" lon="6.70046">
        <ele>427</ele>
        <time>2015-11-15T10:18:59.000Z</time>
      </trkpt>
      <trkpt lat="47.48913" lon="6.70035">
        <ele>424</ele>
        <time>2015-11-15T10:19:00.000Z</time>
      </trkpt>
      <trkpt lat="47.48908" lon="6.70028">
        <ele>424</ele>
        <time>2015-11-15T10:19:01.000Z</time>
      </trkpt>
      <trkpt lat="47.48904" lon="6.70024">
        <ele>424</ele>
        <time>2015-11-15T10:19:02.000Z</time>
      </trkpt>
      <trkpt lat="47.48902" lon="6.70017">
        <ele>424</ele>
        <time>2015-11-15T10:19:03.000Z</time>
      </trkpt>
      <trkpt lat="47.48901" lon="6.70012">
        <ele>424</ele>
        <time>2015-11-15T10:19:04.000Z</time>
      </trkpt>
      <trkpt lat="47.48899" lon="6.70009">
        <ele>424</ele>
        <time>2015-11-15T10:19:05.000Z</time>
      </trkpt>
      <trkpt lat="47.48897" lon="6.70003">
        <ele>424</ele>
        <time>2015-11-15T10:19:06.000Z</time>
      </trkpt>
      <trkpt lat="47.48895" lon="6.69998">
        <ele>422</ele>
        <time>2015-11-15T10:19:07.000Z</time>
      </trkpt>
      <trkpt lat="47.48893" lon="6.69992">
        <ele>422</ele>
        <time>2015-11-15T10:19:08.000Z</time>
      </trkpt>
      <trkpt lat="47.4889" lon="6.69986">
        <ele>421</ele>
        <time>2015-11-15T10:19:09.000Z</time>
      </trkpt>
      <trkpt lat="47.48887" lon="6.69978">
        <ele>421</ele>
        <time>2015-11-15T10:19:10.000Z</time>
      </trkpt>
      <trkpt lat="47.48883" lon="6.6997">
        <ele>421</ele>
        <time>2015-11-15T10:19:11.000Z</time>
      </trkpt>
      <trkpt lat="47.48878" lon="6.69963">
        <ele>421</ele>
        <time>2015-11-15T10:19:12.000Z</time>
      </trkpt>
      <trkpt lat="47.48872" lon="6.69954">
        <ele>420</ele>
        <time>2015-11-15T10:19:13.000Z</time>
      </trkpt>
      <trkpt lat="47.48865" lon="6.69945">
        <ele>420</ele>
        <time>2015-11-15T10:19:14.000Z</time>
      </trkpt>
      <trkpt lat="47.48859" lon="6.69936">
        <ele>420</ele>
        <time>2015-11-15T10:19:15.000Z</time>
      </trkpt>
      <trkpt lat="47.48854" lon="6.69926">
        <ele>419</ele>
        <time>2015-11-15T10:19:16.000Z</time>
      </trkpt>
      <trkpt lat="47.48847" lon="6.69916">
        <ele>416</ele>
        <time>2015-11-15T10:19:17.000Z</time>
      </trkpt>
      <trkpt lat="47.4884" lon="6.69906">
        <ele>416</ele>
        <time>2015-11-15T10:19:18.000Z</time>
      </trkpt>
      <trkpt lat="47.48834" lon="6.69892">
        <ele>415</ele>
        <time>2015-11-15T10:19:19.000Z</time>
      </trkpt>
      <trkpt lat="47.48828" lon="6.6988">
        <ele>411</ele>
        <time>2015-11-15T10:19:20.000Z</time>
      </trkpt>
      <trkpt lat="47.48822" lon="6.69868">
        <ele>410</ele>
        <time>2015-11-15T10:19:21.000Z</time>
      </trkpt>
      <trkpt lat="47.48815" lon="6.69856">
        <ele>409</ele>
        <time>2015-11-15T10:19:22.000Z</time>
      </trkpt>
      <trkpt lat="47.48808" lon="6.69846">
        <ele>409</ele>
        <time>2015-11-15T10:19:23.000Z</time>
      </trkpt>
      <trkpt lat="47.48802" lon="6.69836">
        <ele>409</ele>
        <time>2015-11-15T10:19:24.000Z</time>
      </trkpt>
      <trkpt lat="47.48795" lon="6.69826">
        <ele>404</ele>
        <time>2015-11-15T10:19:25.000Z</time>
      </trkpt>
      <trkpt lat="47.48787" lon="6.69817">
        <ele>404</ele>
        <time>2015-11-15T10:19:26.000Z</time>
      </trkpt>
      <trkpt lat="47.4878" lon="6.69806">
        <ele>404</ele>
        <time>2015-11-15T10:19:27.000Z</time>
      </trkpt>
      <trkpt lat="47.48772" lon="6.69798">
        <ele>403</ele>
        <time>2015-11-15T10:19:28.000Z</time>
      </trkpt>
      <trkpt lat="47.48765" lon="6.69788">
        <ele>403</ele>
        <time>2015-11-15T10:19:29.000Z</time>
      </trkpt>
      <trkpt lat="47.48757" lon="6.69777">
        <ele>402</ele>
        <time>2015-11-15T10:19:30.000Z</time>
      </trkpt>
      <trkpt lat="47.4875" lon="6.69767">
        <ele>402</ele>
        <time>2015-11-15T10:19:31.000Z</time>
      </trkpt>
      <trkpt lat="47.48745" lon="6.69757">
        <ele>400</ele>
        <time>2015-11-15T10:19:32.000Z</time>
      </trkpt>
      <trkpt lat="47.48739" lon="6.69747">
        <ele>399</ele>
        <time>2015-11-15T10:19:33.000Z</time>
      </trkpt>
      <trkpt lat="47.48734" lon="6.69737">
        <ele>398</ele>
        <time>2015-11-15T10:19:34.000Z</time>
      </trkpt>
      <trkpt lat="47.4873" lon="6.69728">
        <ele>397</ele>
        <time>2015-11-15T10:19:35.000Z</time>
      </trkpt>
      <trkpt lat="47.48725" lon="6.69719">
        <ele>397</ele>
        <time>2015-11-15T10:19:36.000Z</time>
      </trkpt>
      <trkpt lat="47.4872" lon="6.69712">
        <ele>396</ele>
        <time>2015-11-15T10:19:37.000Z</time>
      </trkpt>
      <trkpt lat="47.48715" lon="6.69703">
        <ele>396</ele>
        <time>2015-11-15T10:19:38.000Z</time>
      </trkpt>
      <trkpt lat="47.48709" lon="6.69693">
        <ele>396</ele>
        <time>2015-11-15T10:19:39.000Z</time>
      </trkpt>
      <trkpt lat="47.48704" lon="6.69683">
        <ele>396</ele>
        <time>2015-11-15T10:19:40.000Z</time>
      </trkpt>
      <trkpt lat="47.48698" lon="6.69673">
        <ele>395</ele>
        <time>2015-11-15T10:19:41.000Z</time>
      </trkpt>
      <trkpt lat="47.48693" lon="6.69664">
        <ele>392</ele>
        <time>2015-11-15T10:19:42.000Z</time>
      </trkpt>
      <trkpt lat="47.48684" lon="6.69655">
        <ele>392</ele>
        <time>2015-11-15T10:19:43.000Z</time>
      </trkpt>
      <trkpt lat="47.48675" lon="6.69645">
        <ele>392</ele>
        <time>2015-11-15T10:19:44.000Z</time>
      </trkpt>
      <trkpt lat="47.48668" lon="6.69635">
        <ele>391</ele>
        <time>2015-11-15T10:19:45.000Z</time>
      </trkpt>
      <trkpt lat="47.48662" lon="6.69621">
        <ele>390</ele>
        <time>2015-11-15T10:19:46.000Z</time>
      </trkpt>
      <trkpt lat="47.48654" lon="6.6961">
        <ele>389</ele>
        <time>2015-11-15T10:19:47.000Z</time>
      </trkpt>
      <trkpt lat="47.48648" lon="6.69597">
        <ele>389</ele>
        <time>2015-11-15T10:19:48.000Z</time>
      </trkpt>
      <trkpt lat="47.4864" lon="6.69587">
        <ele>389</ele>
        <time>2015-11-15T10:19:49.000Z</time>
      </trkpt>
      <trkpt lat="47.48633" lon="6.69577">
        <ele>386</ele>
        <time>2015-11-15T10:19:50.000Z</time>
      </trkpt>
      <trkpt lat="47.48626" lon="6.69568">
        <ele>385</ele>
        <time>2015-11-15T10:19:51.000Z</time>
      </trkpt>
      <trkpt lat="47.48619" lon="6.69558">
        <ele>385</ele>
        <time>2015-11-15T10:19:52.000Z</time>
      </trkpt>
      <trkpt lat="47.48613" lon="6.69548">
        <ele>385</ele>
        <time>2015-11-15T10:19:53.000Z</time>
      </trkpt>
      <trkpt lat="47.48607" lon="6.69537">
        <ele>384</ele>
        <time>2015-11-15T10:19:54.000Z</time>
      </trkpt>
      <trkpt lat="47.48601" lon="6.69528">
        <ele>384</ele>
        <time>2015-11-15T10:19:55.000Z</time>
      </trkpt>
      <trkpt lat="47.48595" lon="6.69519">
        <ele>383</ele>
        <time>2015-11-15T10:19:56.000Z</time>
      </trkpt>
      <trkpt lat="47.48586" lon="6.6951">
        <ele>383</ele>
        <time>2015-11-15T10:19:57.000Z</time>
      </trkpt>
      <trkpt lat="47.4858" lon="6.69502">
        <ele>382</ele>
        <time>2015-11-15T10:19:58.000Z</time>
      </trkpt>
      <trkpt lat="47.48573" lon="6.69494">
        <ele>381</ele>
        <time>2015-11-15T10:19:59.000Z</time>
      </trkpt>
      <trkpt lat="47.48566" lon="6.69487">
        <ele>380</ele>
        <time>2015-11-15T10:20:00.000Z</time>
      </trkpt>
      <trkpt lat="47.48561" lon="6.6948">
        <ele>380</ele>
        <time>2015-11-15T10:20:01.000Z</time>
      </trkpt>
      <trkpt lat="47.48556" lon="6.69471">
        <ele>380</ele>
        <time>2015-11-15T10:20:02.000Z</time>
      </trkpt>
      <trkpt lat="47.4855" lon="6.69461">
        <ele>379</ele>
        <time>2015-11-15T10:20:03.000Z</time>
      </trkpt>
      <trkpt lat="47.48544" lon="6.69453">
        <ele>379</ele>
        <time>2015-11-15T10:20:04.000Z</time>
      </trkpt>
      <trkpt lat="47.48537" lon="6.69446">
        <ele>379</ele>
        <time>2015-11-15T10:20:05.000Z</time>
      </trkpt>
      <trkpt lat="47.48529" lon="6.69438">
        <ele>379</ele>
        <time>2015-11-15T10:20:06.000Z</time>
      </trkpt>
      <trkpt lat="47.48521" lon="6.69428">
        <ele>378</ele>
        <time>2015-11-15T10:20:07.000Z</time>
      </trkpt>
      <trkpt lat="47.48514" lon="6.69418">
        <ele>378</ele>
        <time>2015-11-15T10:20:08.000Z</time>
      </trkpt>
      <trkpt lat="47.48507" lon="6.6941">
        <ele>376</ele>
        <time>2015-11-15T10:20:09.000Z</time>
      </trkpt>
      <trkpt lat="47.485" lon="6.69398">
        <ele>375</ele>
        <time>2015-11-15T10:20:10.000Z</time>
      </trkpt>
      <trkpt lat="47.48494" lon="6.69388">
        <ele>374</ele>
        <time>2015-11-15T10:20:11.000Z</time>
      </trkpt>
      <trkpt lat="47.48487" lon="6.69378">
        <ele>374</ele>
        <time>2015-11-15T10:20:12.000Z</time>
      </trkpt>
      <trkpt lat="47.4848" lon="6.69369">
        <ele>374</ele>
        <time>2015-11-15T10:20:13.000Z</time>
      </trkpt>
      <trkpt lat="47.48474" lon="6.69359">
        <ele>373</ele>
        <time>2015-11-15T10:20:14.000Z</time>
      </trkpt>
      <trkpt lat="47.48466" lon="6.69346">
        <ele>373</ele>
        <time>2015-11-15T10:20:15.000Z</time>
      </trkpt>
      <trkpt lat="47.48457" lon="6.69337">
        <ele>373</ele>
        <time>2015-11-15T10:20:16.000Z</time>
      </trkpt>
      <trkpt lat="47.48449" lon="6.69328">
        <ele>371</ele>
        <time>2015-11-15T10:20:17.000Z</time>
      </trkpt>
      <trkpt lat="47.48442" lon="6.6932">
        <ele>371</ele>
        <time>2015-11-15T10:20:18.000Z</time>
      </trkpt>
      <trkpt lat="47.48435" lon="6.69311">
        <ele>371</ele>
        <time>2015-11-15T10:20:19.000Z</time>
      </trkpt>
      <trkpt lat="47.48428" lon="6.69303">
        <ele>370</ele>
        <time>2015-11-15T10:20:20.000Z</time>
      </trkpt>
      <trkpt lat="47.48422" lon="6.69297">
        <ele>370</ele>
        <time>2015-11-15T10:20:21.000Z</time>
      </trkpt>
      <trkpt lat="47.48415" lon="6.69288">
        <ele>370</ele>
        <time>2015-11-15T10:20:22.000Z</time>
      </trkpt>
      <trkpt lat="47.48409" lon="6.69278">
        <ele>370</ele>
        <time>2015-11-15T10:20:23.000Z</time>
      </trkpt>
      <trkpt lat="47.48404" lon="6.69272">
        <ele>370</ele>
        <time>2015-11-15T10:20:24.000Z</time>
      </trkpt>
      <trkpt lat="47.48398" lon="6.69268">
        <ele>370</ele>
        <time>2015-11-15T10:20:25.000Z</time>
      </trkpt>
      <trkpt lat="47.48392" lon="6.69263">
        <ele>370</ele>
        <time>2015-11-15T10:20:26.000Z</time>
      </trkpt>
      <trkpt lat="47.48384" lon="6.6926">
        <ele>370</ele>
        <time>2015-11-15T10:20:27.000Z</time>
      </trkpt>
      <trkpt lat="47.48378" lon="6.69256">
        <ele>370</ele>
        <time>2015-11-15T10:20:28.000Z</time>
      </trkpt>
      <trkpt lat="47.4837" lon="6.69252">
        <ele>369</ele>
        <time>2015-11-15T10:20:29.000Z</time>
      </trkpt>
      <trkpt lat="47.48364" lon="6.6925">
        <ele>369</ele>
        <time>2015-11-15T10:20:30.000Z</time>
      </trkpt>
      <trkpt lat="47.48357" lon="6.69245">
        <ele>368</ele>
        <time>2015-11-15T10:20:31.000Z</time>
      </trkpt>
      <trkpt lat="47.4835" lon="6.69241">
        <ele>368</ele>
        <time>2015-11-15T10:20:32.000Z</time>
      </trkpt>
      <trkpt lat="47.48343" lon="6.69237">
        <ele>368</ele>
        <time>2015-11-15T10:20:33.000Z</time>
      </trkpt>
      <trkpt lat="47.48337" lon="6.69232">
        <ele>368</ele>
        <time>2015-11-15T10:20:34.000Z</time>
      </trkpt>
      <trkpt lat="47.4833" lon="6.69231">
        <ele>364</ele>
        <time>2015-11-15T10:20:35.000Z</time>
      </trkpt>
      <trkpt lat="47.48322" lon="6.69232">
        <ele>364</ele>
        <time>2015-11-15T10:20:36.000Z</time>
      </trkpt>
      <trkpt lat="47.48316" lon="6.69232">
        <ele>363</ele>
        <time>2015-11-15T10:20:37.000Z</time>
      </trkpt>
      <trkpt lat="47.4831" lon="6.69236">
        <ele>363</ele>
        <time>2015-11-15T10:20:38.000Z</time>
      </trkpt>
      <trkpt lat="47.48304" lon="6.69238">
        <ele>362</ele>
        <time>2015-11-15T10:20:39.000Z</time>
      </trkpt>
      <trkpt lat="47.48301" lon="6.69242">
        <ele>362</ele>
        <time>2015-11-15T10:20:40.000Z</time>
      </trkpt>
      <trkpt lat="47.48295" lon="6.69248">
        <ele>362</ele>
        <time>2015-11-15T10:20:41.000Z</time>
      </trkpt>
      <trkpt lat="47.48288" lon="6.69252">
        <ele>363</ele>
        <time>2015-11-15T10:20:42.000Z</time>
      </trkpt>
      <trkpt lat="47.4828" lon="6.69249">
        <ele>360</ele>
        <time>2015-11-15T10:20:43.000Z</time>
      </trkpt>
      <trkpt lat="47.48274" lon="6.69243">
        <ele>359</ele>
        <time>2015-11-15T10:20:44.000Z</time>
      </trkpt>
      <trkpt lat="47.48267" lon="6.69241">
        <ele>359</ele>
        <time>2015-11-15T10:20:45.000Z</time>
      </trkpt>
      <trkpt lat="47.48261" lon="6.6924">
        <ele>358</ele>
        <time>2015-11-15T10:20:46.000Z</time>
      </trkpt>
      <trkpt lat="47.48255" lon="6.69233">
        <ele>358</ele>
        <time>2015-11-15T10:20:47.000Z</time>
      </trkpt>
      <trkpt lat="47.48251" lon="6.69224">
        <ele>359</ele>
        <time>2015-11-15T10:20:48.000Z</time>
      </trkpt>
      <trkpt lat="47.48248" lon="6.69215">
        <ele>354</ele>
        <time>2015-11-15T10:20:49.000Z</time>
      </trkpt>
      <trkpt lat="47.48244" lon="6.69206">
        <ele>354</ele>
        <time>2015-11-15T10:20:50.000Z</time>
      </trkpt>
      <trkpt lat="47.48241" lon="6.69197">
        <ele>354</ele>
        <time>2015-11-15T10:20:51.000Z</time>
      </trkpt>
      <trkpt lat="47.48238" lon="6.69188">
        <ele>354</ele>
        <time>2015-11-15T10:20:52.000Z</time>
      </trkpt>
      <trkpt lat="47.48234" lon="6.69179">
        <ele>354</ele>
        <time>2015-11-15T10:20:53.000Z</time>
      </trkpt>
      <trkpt lat="47.48231" lon="6.69171">
        <ele>354</ele>
        <time>2015-11-15T10:20:54.000Z</time>
      </trkpt>
      <trkpt lat="47.48228" lon="6.69163">
        <ele>354</ele>
        <time>2015-11-15T10:20:55.000Z</time>
      </trkpt>
      <trkpt lat="47.48225" lon="6.69156">
        <ele>354</ele>
        <time>2015-11-15T10:20:56.000Z</time>
      </trkpt>
      <trkpt lat="47.48222" lon="6.69149">
        <ele>354</ele>
        <time>2015-11-15T10:20:57.000Z</time>
      </trkpt>
      <trkpt lat="47.48219" lon="6.69142">
        <ele>354</ele>
        <time>2015-11-15T10:20:58.000Z</time>
      </trkpt>
      <trkpt lat="47.48215" lon="6.69135">
        <ele>354</ele>
        <time>2015-11-15T10:20:59.000Z</time>
      </trkpt>
      <trkpt lat="47.48212" lon="6.69128">
        <ele>354</ele>
        <time>2015-11-15T10:21:00.000Z</time>
      </trkpt>
      <trkpt lat="47.48209" lon="6.69121">
        <ele>354</ele>
        <time>2015-11-15T10:21:01.000Z</time>
      </trkpt>
      <trkpt lat="47.48208" lon="6.69114">
        <ele>354</ele>
        <time>2015-11-15T10:21:02.000Z</time>
      </trkpt>
      <trkpt lat="47.48206" lon="6.69109">
        <ele>354</ele>
        <time>2015-11-15T10:21:03.000Z</time>
      </trkpt>
      <trkpt lat="47.48208" lon="6.69106">
        <ele>354</ele>
        <time>2015-11-15T10:21:04.000Z</time>
      </trkpt>
      <trkpt lat="47.48209" lon="6.69102">
        <ele>354</ele>
        <time>2015-11-15T10:21:05.000Z</time>
      </trkpt>
      <trkpt lat="47.48209" lon="6.69099">
        <ele>354</ele>
        <time>2015-11-15T10:21:06.000Z</time>
      </trkpt>
      <trkpt lat="47.48211" lon="6.69094">
        <ele>354</ele>
        <time>2015-11-15T10:21:11.000Z</time>
      </trkpt>
      <trkpt lat="47.48211" lon="6.69093">
        <ele>354</ele>
        <time>2015-11-15T10:21:12.000Z</time>
      </trkpt>
      <trkpt lat="47.48212" lon="6.69087">
        <ele>354</ele>
        <time>2015-11-15T10:21:14.000Z</time>
      </trkpt>
      <trkpt lat="47.48213" lon="6.69084">
        <ele>354</ele>
        <time>2015-11-15T10:21:15.000Z</time>
      </trkpt>
      <trkpt lat="47.48214" lon="6.6908">
        <ele>355</ele>
        <time>2015-11-15T10:21:16.000Z</time>
      </trkpt>
      <trkpt lat="47.48215" lon="6.69075">
        <ele>355</ele>
        <time>2015-11-15T10:21:17.000Z</time>
      </trkpt>
      <trkpt lat="47.48217" lon="6.69071">
        <ele>355</ele>
        <time>2015-11-15T10:21:18.000Z</time>
      </trkpt>
      <trkpt lat="47.48219" lon="6.69066">
        <ele>355</ele>
        <time>2015-11-15T10:21:19.000Z</time>
      </trkpt>
      <trkpt lat="47.48222" lon="6.69062">
        <ele>355</ele>
        <time>2015-11-15T10:21:20.000Z</time>
      </trkpt>
      <trkpt lat="47.48224" lon="6.69059">
        <ele>355</ele>
        <time>2015-11-15T10:21:21.000Z</time>
      </trkpt>
      <trkpt lat="47.48227" lon="6.69056">
        <ele>355</ele>
        <time>2015-11-15T10:21:22.000Z</time>
      </trkpt>
      <trkpt lat="47.4823" lon="6.69053">
        <ele>355</ele>
        <time>2015-11-15T10:21:23.000Z</time>
      </trkpt>
      <trkpt lat="47.48233" lon="6.6905">
        <ele>355</ele>
        <time>2015-11-15T10:21:24.000Z</time>
      </trkpt>
      <trkpt lat="47.48236" lon="6.69046">
        <ele>355</ele>
        <time>2015-11-15T10:21:25.000Z</time>
      </trkpt>
      <trkpt lat="47.48239" lon="6.69042">
        <ele>355</ele>
        <time>2015-11-15T10:21:26.000Z</time>
      </trkpt>
      <trkpt lat="47.48242" lon="6.69038">
        <ele>355</ele>
        <time>2015-11-15T10:21:27.000Z</time>
      </trkpt>
      <trkpt lat="47.48245" lon="6.69034">
        <ele>355</ele>
        <time>2015-11-15T10:21:28.000Z</time>
      </trkpt>
      <trkpt lat="47.48248" lon="6.6903">
        <ele>355</ele>
        <time>2015-11-15T10:21:29.000Z</time>
      </trkpt>
      <trkpt lat="47.4825" lon="6.69026">
        <ele>356</ele>
        <time>2015-11-15T10:21:30.000Z</time>
      </trkpt>
      <trkpt lat="47.48252" lon="6.69023">
        <ele>357</ele>
        <time>2015-11-15T10:21:31.000Z</time>
      </trkpt>
      <trkpt lat="47.48254" lon="6.6902">
        <ele>357</ele>
        <time>2015-11-15T10:21:32.000Z</time>
      </trkpt>
      <trkpt lat="47.48257" lon="6.69018">
        <ele>357</ele>
        <time>2015-11-15T10:21:33.000Z</time>
      </trkpt>
      <trkpt lat="47.48261" lon="6.69016">
        <ele>357</ele>
        <time>2015-11-15T10:21:34.000Z</time>
      </trkpt>
      <trkpt lat="47.48265" lon="6.69015">
        <ele>357</ele>
        <time>2015-11-15T10:21:35.000Z</time>
      </trkpt>
      <trkpt lat="47.48269" lon="6.69013">
        <ele>357</ele>
        <time>2015-11-15T10:21:36.000Z</time>
      </trkpt>
      <trkpt lat="47.48273" lon="6.69012">
        <ele>357</ele>
        <time>2015-11-15T10:21:37.000Z</time>
      </trkpt>
      <trkpt lat="47.48277" lon="6.69012">
        <ele>357</ele>
        <time>2015-11-15T10:21:38.000Z</time>
      </trkpt>
      <trkpt lat="47.48281" lon="6.69012">
        <ele>357</ele>
        <time>2015-11-15T10:21:39.000Z</time>
      </trkpt>
      <trkpt lat="47.48285" lon="6.69012">
        <ele>357</ele>
        <time>2015-11-15T10:21:40.000Z</time>
      </trkpt>
      <trkpt lat="47.48289" lon="6.69012">
        <ele>357</ele>
        <time>2015-11-15T10:21:41.000Z</time>
      </trkpt>
      <trkpt lat="47.48294" lon="6.69013">
        <ele>357</ele>
        <time>2015-11-15T10:21:42.000Z</time>
      </trkpt>
      <trkpt lat="47.48298" lon="6.69013">
        <ele>357</ele>
        <time>2015-11-15T10:21:43.000Z</time>
      </trkpt>
      <trkpt lat="47.48302" lon="6.69014">
        <ele>357</ele>
        <time>2015-11-15T10:21:44.000Z</time>
      </trkpt>
      <trkpt lat="47.48306" lon="6.69014">
        <ele>357</ele>
        <time>2015-11-15T10:21:45.000Z</time>
      </trkpt>
      <trkpt lat="47.4831" lon="6.69015">
        <ele>357</ele>
        <time>2015-11-15T10:21:46.000Z</time>
      </trkpt>
      <trkpt lat="47.48315" lon="6.69016">
        <ele>357</ele>
        <time>2015-11-15T10:21:47.000Z</time>
      </trkpt>
      <trkpt lat="47.48319" lon="6.69016">
        <ele>357</ele>
        <time>2015-11-15T10:21:48.000Z</time>
      </trkpt>
      <trkpt lat="47.48324" lon="6.69017">
        <ele>357</ele>
        <time>2015-11-15T10:21:49.000Z</time>
      </trkpt>
      <trkpt lat="47.48328" lon="6.69018">
        <ele>357</ele>
        <time>2015-11-15T10:21:50.000Z</time>
      </trkpt>
      <trkpt lat="47.48333" lon="6.69019">
        <ele>357</ele>
        <time>2015-11-15T10:21:51.000Z</time>
      </trkpt>
      <trkpt lat="47.48337" lon="6.6902">
        <ele>359</ele>
        <time>2015-11-15T10:21:52.000Z</time>
      </trkpt>
      <trkpt lat="47.48341" lon="6.6902">
        <ele>359</ele>
        <time>2015-11-15T10:21:53.000Z</time>
      </trkpt>
      <trkpt lat="47.48346" lon="6.69021">
        <ele>359</ele>
        <time>2015-11-15T10:21:54.000Z</time>
      </trkpt>
      <trkpt lat="47.4835" lon="6.69022">
        <ele>359</ele>
        <time>2015-11-15T10:21:55.000Z</time>
      </trkpt>
      <trkpt lat="47.48355" lon="6.69022">
        <ele>360</ele>
        <time>2015-11-15T10:21:56.000Z</time>
      </trkpt>
      <trkpt lat="47.48359" lon="6.69022">
        <ele>360</ele>
        <time>2015-11-15T10:21:57.000Z</time>
      </trkpt>
      <trkpt lat="47.48363" lon="6.69022">
        <ele>360</ele>
        <time>2015-11-15T10:21:58.000Z</time>
      </trkpt>
      <trkpt lat="47.48368" lon="6.6902">
        <ele>360</ele>
        <time>2015-11-15T10:21:59.000Z</time>
      </trkpt>
      <trkpt lat="47.48372" lon="6.69018">
        <ele>360</ele>
        <time>2015-11-15T10:22:00.000Z</time>
      </trkpt>
      <trkpt lat="47.48376" lon="6.69015">
        <ele>361</ele>
        <time>2015-11-15T10:22:01.000Z</time>
      </trkpt>
      <trkpt lat="47.4838" lon="6.69011">
        <ele>361</ele>
        <time>2015-11-15T10:22:02.000Z</time>
      </trkpt>
      <trkpt lat="47.48383" lon="6.69007">
        <ele>361</ele>
        <time>2015-11-15T10:22:03.000Z</time>
      </trkpt>
      <trkpt lat="47.48386" lon="6.69002">
        <ele>361</ele>
        <time>2015-11-15T10:22:04.000Z</time>
      </trkpt>
      <trkpt lat="47.48388" lon="6.68996">
        <ele>356</ele>
        <time>2015-11-15T10:22:05.000Z</time>
      </trkpt>
      <trkpt lat="47.48391" lon="6.6899">
        <ele>356</ele>
        <time>2015-11-15T10:22:06.000Z</time>
      </trkpt>
      <trkpt lat="47.48393" lon="6.68984">
        <ele>356</ele>
        <time>2015-11-15T10:22:07.000Z</time>
      </trkpt>
      <trkpt lat="47.48395" lon="6.68975">
        <ele>356</ele>
        <time>2015-11-15T10:22:08.000Z</time>
      </trkpt>
      <trkpt lat="47.48397" lon="6.68969">
        <ele>355</ele>
        <time>2015-11-15T10:22:09.000Z</time>
      </trkpt>
      <trkpt lat="47.48399" lon="6.68964">
        <ele>355</ele>
        <time>2015-11-15T10:22:10.000Z</time>
      </trkpt>
      <trkpt lat="47.48402" lon="6.68958">
        <ele>355</ele>
        <time>2015-11-15T10:22:11.000Z</time>
      </trkpt>
      <trkpt lat="47.48403" lon="6.68951">
        <ele>354</ele>
        <time>2015-11-15T10:22:12.000Z</time>
      </trkpt>
      <trkpt lat="47.48406" lon="6.68945">
        <ele>354</ele>
        <time>2015-11-15T10:22:13.000Z</time>
      </trkpt>
      <trkpt lat="47.48408" lon="6.68939">
        <ele>354</ele>
        <time>2015-11-15T10:22:14.000Z</time>
      </trkpt>
      <trkpt lat="47.48411" lon="6.68933">
        <ele>353</ele>
        <time>2015-11-15T10:22:15.000Z</time>
      </trkpt>
      <trkpt lat="47.48414" lon="6.68927">
        <ele>353</ele>
        <time>2015-11-15T10:22:16.000Z</time>
      </trkpt>
      <trkpt lat="47.48416" lon="6.68921">
        <ele>352</ele>
        <time>2015-11-15T10:22:17.000Z</time>
      </trkpt>
      <trkpt lat="47.48418" lon="6.68914">
        <ele>352</ele>
        <time>2015-11-15T10:22:18.000Z</time>
      </trkpt>
      <trkpt lat="47.48421" lon="6.68909">
        <ele>352</ele>
        <time>2015-11-15T10:22:19.000Z</time>
      </trkpt>
      <trkpt lat="47.48424" lon="6.68902">
        <ele>351</ele>
        <time>2015-11-15T10:22:20.000Z</time>
      </trkpt>
      <trkpt lat="47.48426" lon="6.68895">
        <ele>351</ele>
        <time>2015-11-15T10:22:21.000Z</time>
      </trkpt>
      <trkpt lat="47.48428" lon="6.68888">
        <ele>351</ele>
        <time>2015-11-15T10:22:22.000Z</time>
      </trkpt>
      <trkpt lat="47.48431" lon="6.68882">
        <ele>351</ele>
        <time>2015-11-15T10:22:23.000Z</time>
      </trkpt>
      <trkpt lat="47.48433" lon="6.68874">
        <ele>351</ele>
        <time>2015-11-15T10:22:24.000Z</time>
      </trkpt>
      <trkpt lat="47.48436" lon="6.68865">
        <ele>350</ele>
        <time>2015-11-15T10:22:25.000Z</time>
      </trkpt>
      <trkpt lat="47.48438" lon="6.68858">
        <ele>350</ele>
        <time>2015-11-15T10:22:26.000Z</time>
      </trkpt>
      <trkpt lat="47.48441" lon="6.6885">
        <ele>350</ele>
        <time>2015-11-15T10:22:27.059Z</time>
      </trkpt>
      <trkpt lat="47.48444" lon="6.68841">
        <ele>350</ele>
        <time>2015-11-15T10:22:28.000Z</time>
      </trkpt>
      <trkpt lat="47.48446" lon="6.6883">
        <ele>348</ele>
        <time>2015-11-15T10:22:29.000Z</time>
      </trkpt>
      <trkpt lat="47.48447" lon="6.6882">
        <ele>348</ele>
        <time>2015-11-15T10:22:30.000Z</time>
      </trkpt>
      <trkpt lat="47.48449" lon="6.6881">
        <ele>348</ele>
        <time>2015-11-15T10:22:31.000Z</time>
      </trkpt>
      <trkpt lat="47.48451" lon="6.68801">
        <ele>347</ele>
        <time>2015-11-15T10:22:32.000Z</time>
      </trkpt>
      <trkpt lat="47.48454" lon="6.68789">
        <ele>347</ele>
        <time>2015-11-15T10:22:33.000Z</time>
      </trkpt>
      <trkpt lat="47.48456" lon="6.68781">
        <ele>347</ele>
        <time>2015-11-15T10:22:34.000Z</time>
      </trkpt>
      <trkpt lat="47.48458" lon="6.68774">
        <ele>346</ele>
        <time>2015-11-15T10:22:35.000Z</time>
      </trkpt>
      <trkpt lat="47.48461" lon="6.68768">
        <ele>346</ele>
        <time>2015-11-15T10:22:36.000Z</time>
      </trkpt>
      <trkpt lat="47.48465" lon="6.68764">
        <ele>346</ele>
        <time>2015-11-15T10:22:37.000Z</time>
      </trkpt>
      <trkpt lat="47.4847" lon="6.68759">
        <ele>346</ele>
        <time>2015-11-15T10:22:38.000Z</time>
      </trkpt>
      <trkpt lat="47.48474" lon="6.68755">
        <ele>346</ele>
        <time>2015-11-15T10:22:39.000Z</time>
      </trkpt>
      <trkpt lat="47.48478" lon="6.68751">
        <ele>346</ele>
        <time>2015-11-15T10:22:40.000Z</time>
      </trkpt>
      <trkpt lat="47.48481" lon="6.68744">
        <ele>343</ele>
        <time>2015-11-15T10:22:41.000Z</time>
      </trkpt>
      <trkpt lat="47.48485" lon="6.68737">
        <ele>343</ele>
        <time>2015-11-15T10:22:42.000Z</time>
      </trkpt>
      <trkpt lat="47.48488" lon="6.68732">
        <ele>342</ele>
        <time>2015-11-15T10:22:43.000Z</time>
      </trkpt>
      <trkpt lat="47.4849" lon="6.68727">
        <ele>342</ele>
        <time>2015-11-15T10:22:44.000Z</time>
      </trkpt>
      <trkpt lat="47.48494" lon="6.68719">
        <ele>342</ele>
        <time>2015-11-15T10:22:45.000Z</time>
      </trkpt>
      <trkpt lat="47.48496" lon="6.68715">
        <ele>342</ele>
        <time>2015-11-15T10:22:46.000Z</time>
      </trkpt>
      <trkpt lat="47.48497" lon="6.68711">
        <ele>341</ele>
        <time>2015-11-15T10:22:47.000Z</time>
      </trkpt>
      <trkpt lat="47.48497" lon="6.68706">
        <ele>341</ele>
        <time>2015-11-15T10:22:49.000Z</time>
      </trkpt>
      <trkpt lat="47.48498" lon="6.68703">
        <ele>341</ele>
        <time>2015-11-15T10:22:50.000Z</time>
      </trkpt>
      <trkpt lat="47.485" lon="6.68699">
        <ele>341</ele>
        <time>2015-11-15T10:22:51.000Z</time>
      </trkpt>
      <trkpt lat="47.485" lon="6.68696">
        <ele>341</ele>
        <time>2015-11-15T10:22:52.000Z</time>
      </trkpt>
      <trkpt lat="47.48502" lon="6.68693">
        <ele>341</ele>
        <time>2015-11-15T10:22:53.000Z</time>
      </trkpt>
      <trkpt lat="47.48506" lon="6.6869">
        <ele>341</ele>
        <time>2015-11-15T10:22:54.000Z</time>
      </trkpt>
      <trkpt lat="47.48523" lon="6.68684">
        <ele>341</ele>
        <time>2015-11-15T10:22:55.000Z</time>
      </trkpt>
      <trkpt lat="47.48531" lon="6.68683">
        <ele>341</ele>
        <time>2015-11-15T10:22:56.000Z</time>
      </trkpt>
      <trkpt lat="47.48538" lon="6.68682">
        <ele>341</ele>
        <time>2015-11-15T10:22:57.000Z</time>
      </trkpt>
      <trkpt lat="47.48542" lon="6.68682">
        <ele>342</ele>
        <time>2015-11-15T10:22:58.000Z</time>
      </trkpt>
      <trkpt lat="47.48547" lon="6.68682">
        <ele>342</ele>
        <time>2015-11-15T10:22:59.000Z</time>
      </trkpt>
      <trkpt lat="47.4855" lon="6.68682">
        <ele>342</ele>
        <time>2015-11-15T10:23:00.000Z</time>
      </trkpt>
      <trkpt lat="47.48553" lon="6.6868">
        <ele>342</ele>
        <time>2015-11-15T10:23:01.000Z</time>
      </trkpt>
      <trkpt lat="47.48556" lon="6.68678">
        <ele>342</ele>
        <time>2015-11-15T10:23:02.000Z</time>
      </trkpt>
      <trkpt lat="47.48558" lon="6.68676">
        <ele>342</ele>
        <time>2015-11-15T10:23:03.000Z</time>
      </trkpt>
      <trkpt lat="47.4856" lon="6.68673">
        <ele>342</ele>
        <time>2015-11-15T10:23:04.000Z</time>
      </trkpt>
      <trkpt lat="47.48561" lon="6.6867">
        <ele>342</ele>
        <time>2015-11-15T10:23:05.000Z</time>
      </trkpt>
      <trkpt lat="47.48563" lon="6.68668">
        <ele>342</ele>
        <time>2015-11-15T10:23:06.000Z</time>
      </trkpt>
      <trkpt lat="47.48565" lon="6.68663">
        <ele>342</ele>
        <time>2015-11-15T10:23:08.000Z</time>
      </trkpt>
      <trkpt lat="47.48566" lon="6.6866">
        <ele>342</ele>
        <time>2015-11-15T10:23:09.000Z</time>
      </trkpt>
      <trkpt lat="47.48568" lon="6.68655">
        <ele>343</ele>
        <time>2015-11-15T10:23:11.000Z</time>
      </trkpt>
      <trkpt lat="47.48569" lon="6.68652">
        <ele>343</ele>
        <time>2015-11-15T10:23:12.000Z</time>
      </trkpt>
      <trkpt lat="47.48571" lon="6.68648">
        <ele>343</ele>
        <time>2015-11-15T10:23:14.000Z</time>
      </trkpt>
      <trkpt lat="47.48571" lon="6.68646">
        <ele>343</ele>
        <time>2015-11-15T10:23:15.000Z</time>
      </trkpt>
      <trkpt lat="47.48573" lon="6.68642">
        <ele>343</ele>
        <time>2015-11-15T10:23:17.000Z</time>
      </trkpt>
      <trkpt lat="47.48574" lon="6.6864">
        <ele>343</ele>
        <time>2015-11-15T10:23:18.000Z</time>
      </trkpt>
      <trkpt lat="47.48576" lon="6.68636">
        <ele>343</ele>
        <time>2015-11-15T10:23:20.000Z</time>
      </trkpt>
      <trkpt lat="47.48577" lon="6.68635">
        <ele>343</ele>
        <time>2015-11-15T10:23:21.000Z</time>
      </trkpt>
      <trkpt lat="47.48579" lon="6.6863">
        <ele>343</ele>
        <time>2015-11-15T10:23:24.000Z</time>
      </trkpt>
      <trkpt lat="47.4858" lon="6.68628">
        <ele>343</ele>
        <time>2015-11-15T10:23:25.000Z</time>
      </trkpt>
      <trkpt lat="47.48582" lon="6.68624">
        <ele>343</ele>
        <time>2015-11-15T10:23:28.000Z</time>
      </trkpt>
      <trkpt lat="47.48583" lon="6.68623">
        <ele>343</ele>
        <time>2015-11-15T10:23:29.000Z</time>
      </trkpt>
      <trkpt lat="47.48586" lon="6.68618">
        <ele>346</ele>
        <time>2015-11-15T10:23:33.000Z</time>
      </trkpt>
      <trkpt lat="47.48586" lon="6.68616">
        <ele>346</ele>
        <time>2015-11-15T10:23:34.000Z</time>
      </trkpt>
      <trkpt lat="47.48587" lon="6.68611">
        <ele>346</ele>
        <time>2015-11-15T10:23:37.000Z</time>
      </trkpt>
      <trkpt lat="47.48587" lon="6.68609">
        <ele>346</ele>
        <time>2015-11-15T10:23:38.000Z</time>
      </trkpt>
      <trkpt lat="47.48588" lon="6.68604">
        <ele>346</ele>
        <time>2015-11-15T10:23:41.000Z</time>
      </trkpt>
      <trkpt lat="47.48588" lon="6.68602">
        <ele>346</ele>
        <time>2015-11-15T10:23:42.000Z</time>
      </trkpt>
      <trkpt lat="47.48587" lon="6.68597">
        <ele>346</ele>
        <time>2015-11-15T10:23:45.000Z</time>
      </trkpt>
      <trkpt lat="47.48587" lon="6.68595">
        <ele>346</ele>
        <time>2015-11-15T10:23:46.000Z</time>
      </trkpt>
      <trkpt lat="47.48584" lon="6.6859">
        <ele>346</ele>
        <time>2015-11-15T10:23:49.000Z</time>
      </trkpt>
      <trkpt lat="47.48583" lon="6.68589">
        <ele>345</ele>
        <time>2015-11-15T10:23:50.000Z</time>
      </trkpt>
      <trkpt lat="47.48582" lon="6.68583">
        <ele>346</ele>
        <time>2015-11-15T10:23:53.000Z</time>
      </trkpt>
      <trkpt lat="47.48581" lon="6.68581">
        <ele>346</ele>
        <time>2015-11-15T10:23:54.000Z</time>
      </trkpt>
      <trkpt lat="47.48581" lon="6.68575">
        <ele>346</ele>
        <time>2015-11-15T10:23:57.000Z</time>
      </trkpt>
      <trkpt lat="47.48581" lon="6.68573">
        <ele>346</ele>
        <time>2015-11-15T10:23:58.000Z</time>
      </trkpt>
      <trkpt lat="47.48581" lon="6.68566">
        <ele>346</ele>
        <time>2015-11-15T10:24:01.000Z</time>
      </trkpt>
      <trkpt lat="47.48581" lon="6.68565">
        <ele>346</ele>
        <time>2015-11-15T10:24:02.000Z</time>
      </trkpt>
      <trkpt lat="47.4858" lon="6.68559">
        <ele>347</ele>
        <time>2015-11-15T10:24:05.000Z</time>
      </trkpt>
      <trkpt lat="47.48579" lon="6.68558">
        <ele>347</ele>
        <time>2015-11-15T10:24:06.000Z</time>
      </trkpt>
      <trkpt lat="47.48577" lon="6.68552">
        <ele>347</ele>
        <time>2015-11-15T10:24:09.000Z</time>
      </trkpt>
      <trkpt lat="47.48576" lon="6.6855">
        <ele>347</ele>
        <time>2015-11-15T10:24:10.000Z</time>
      </trkpt>
      <trkpt lat="47.48574" lon="6.68545">
        <ele>347</ele>
        <time>2015-11-15T10:24:12.000Z</time>
      </trkpt>
      <trkpt lat="47.48573" lon="6.68542">
        <ele>347</ele>
        <time>2015-11-15T10:24:13.000Z</time>
      </trkpt>
      <trkpt lat="47.48573" lon="6.68536">
        <ele>347</ele>
        <time>2015-11-15T10:24:15.000Z</time>
      </trkpt>
      <trkpt lat="47.48573" lon="6.68533">
        <ele>347</ele>
        <time>2015-11-15T10:24:16.000Z</time>
      </trkpt>
      <trkpt lat="47.48572" lon="6.68526">
        <ele>347</ele>
        <time>2015-11-15T10:24:18.000Z</time>
      </trkpt>
      <trkpt lat="47.48572" lon="6.68523">
        <ele>348</ele>
        <time>2015-11-15T10:24:19.000Z</time>
      </trkpt>
      <trkpt lat="47.48573" lon="6.6852">
        <ele>348</ele>
        <time>2015-11-15T10:24:20.000Z</time>
      </trkpt>
      <trkpt lat="47.48574" lon="6.68516">
        <ele>348</ele>
        <time>2015-11-15T10:24:21.000Z</time>
      </trkpt>
      <trkpt lat="47.48575" lon="6.68513">
        <ele>348</ele>
        <time>2015-11-15T10:24:22.000Z</time>
      </trkpt>
      <trkpt lat="47.48577" lon="6.6851">
        <ele>348</ele>
        <time>2015-11-15T10:24:23.000Z</time>
      </trkpt>
      <trkpt lat="47.48579" lon="6.68507">
        <ele>348</ele>
        <time>2015-11-15T10:24:24.000Z</time>
      </trkpt>
      <trkpt lat="47.48581" lon="6.68504">
        <ele>349</ele>
        <time>2015-11-15T10:24:25.000Z</time>
      </trkpt>
      <trkpt lat="47.48583" lon="6.68502">
        <ele>349</ele>
        <time>2015-11-15T10:24:26.000Z</time>
      </trkpt>
      <trkpt lat="47.48585" lon="6.68499">
        <ele>349</ele>
        <time>2015-11-15T10:24:27.000Z</time>
      </trkpt>
      <trkpt lat="47.48587" lon="6.68496">
        <ele>349</ele>
        <time>2015-11-15T10:24:28.000Z</time>
      </trkpt>
      <trkpt lat="47.48588" lon="6.68493">
        <ele>349</ele>
        <time>2015-11-15T10:24:29.000Z</time>
      </trkpt>
      <trkpt lat="47.48589" lon="6.68489">
        <ele>349</ele>
        <time>2015-11-15T10:24:30.000Z</time>
      </trkpt>
      <trkpt lat="47.4859" lon="6.68484">
        <ele>348</ele>
        <time>2015-11-15T10:24:31.000Z</time>
      </trkpt>
      <trkpt lat="47.4859" lon="6.68479">
        <ele>348</ele>
        <time>2015-11-15T10:24:32.000Z</time>
      </trkpt>
      <trkpt lat="47.48591" lon="6.68475">
        <ele>348</ele>
        <time>2015-11-15T10:24:33.000Z</time>
      </trkpt>
      <trkpt lat="47.48592" lon="6.68471">
        <ele>348</ele>
        <time>2015-11-15T10:24:34.000Z</time>
      </trkpt>
      <trkpt lat="47.48592" lon="6.68466">
        <ele>348</ele>
        <time>2015-11-15T10:24:35.000Z</time>
      </trkpt>
      <trkpt lat="47.48593" lon="6.68462">
        <ele>348</ele>
        <time>2015-11-15T10:24:36.000Z</time>
      </trkpt>
      <trkpt lat="47.48594" lon="6.68458">
        <ele>348</ele>
        <time>2015-11-15T10:24:37.000Z</time>
      </trkpt>
      <trkpt lat="47.48595" lon="6.68454">
        <ele>348</ele>
        <time>2015-11-15T10:24:38.000Z</time>
      </trkpt>
      <trkpt lat="47.48595" lon="6.6845">
        <ele>348</ele>
        <time>2015-11-15T10:24:39.000Z</time>
      </trkpt>
      <trkpt lat="47.48596" lon="6.68446">
        <ele>348</ele>
        <time>2015-11-15T10:24:40.000Z</time>
      </trkpt>
      <trkpt lat="47.48596" lon="6.68442">
        <ele>347</ele>
        <time>2015-11-15T10:24:41.000Z</time>
      </trkpt>
      <trkpt lat="47.48597" lon="6.68438">
        <ele>347</ele>
        <time>2015-11-15T10:24:42.000Z</time>
      </trkpt>
      <trkpt lat="47.48597" lon="6.68434">
        <ele>347</ele>
        <time>2015-11-15T10:24:43.000Z</time>
      </trkpt>
      <trkpt lat="47.48598" lon="6.68431">
        <ele>347</ele>
        <time>2015-11-15T10:24:44.000Z</time>
      </trkpt>
      <trkpt lat="47.48599" lon="6.68427">
        <ele>347</ele>
        <time>2015-11-15T10:24:45.000Z</time>
      </trkpt>
      <trkpt lat="47.486" lon="6.68424">
        <ele>347</ele>
        <time>2015-11-15T10:24:46.000Z</time>
      </trkpt>
      <trkpt lat="47.48602" lon="6.68421">
        <ele>347</ele>
        <time>2015-11-15T10:24:47.000Z</time>
      </trkpt>
      <trkpt lat="47.48603" lon="6.68418">
        <ele>347</ele>
        <time>2015-11-15T10:24:48.000Z</time>
      </trkpt>
      <trkpt lat="47.48604" lon="6.68414">
        <ele>346</ele>
        <time>2015-11-15T10:24:49.000Z</time>
      </trkpt>
      <trkpt lat="47.48605" lon="6.68411">
        <ele>346</ele>
        <time>2015-11-15T10:24:50.000Z</time>
      </trkpt>
      <trkpt lat="47.48606" lon="6.68407">
        <ele>346</ele>
        <time>2015-11-15T10:24:51.000Z</time>
      </trkpt>
      <trkpt lat="47.48607" lon="6.68403">
        <ele>347</ele>
        <time>2015-11-15T10:24:52.000Z</time>
      </trkpt>
      <trkpt lat="47.48608" lon="6.684">
        <ele>347</ele>
        <time>2015-11-15T10:24:53.000Z</time>
      </trkpt>
      <trkpt lat="47.4861" lon="6.68396">
        <ele>347</ele>
        <time>2015-11-15T10:24:54.000Z</time>
      </trkpt>
      <trkpt lat="47.48611" lon="6.68392">
        <ele>347</ele>
        <time>2015-11-15T10:24:55.000Z</time>
      </trkpt>
      <trkpt lat="47.48612" lon="6.68388">
        <ele>347</ele>
        <time>2015-11-15T10:24:56.000Z</time>
      </trkpt>
      <trkpt lat="47.48613" lon="6.68385">
        <ele>347</ele>
        <time>2015-11-15T10:24:57.000Z</time>
      </trkpt>
      <trkpt lat="47.48613" lon="6.68381">
        <ele>347</ele>
        <time>2015-11-15T10:24:58.000Z</time>
      </trkpt>
      <trkpt lat="47.48614" lon="6.68378">
        <ele>347</ele>
        <time>2015-11-15T10:24:59.000Z</time>
      </trkpt>
      <trkpt lat="47.48614" lon="6.68374">
        <ele>347</ele>
        <time>2015-11-15T10:25:00.000Z</time>
      </trkpt>
      <trkpt lat="47.48615" lon="6.6837">
        <ele>347</ele>
        <time>2015-11-15T10:25:01.000Z</time>
      </trkpt>
      <trkpt lat="47.48616" lon="6.68366">
        <ele>347</ele>
        <time>2015-11-15T10:25:02.000Z</time>
      </trkpt>
      <trkpt lat="47.48618" lon="6.68363">
        <ele>347</ele>
        <time>2015-11-15T10:25:03.000Z</time>
      </trkpt>
      <trkpt lat="47.48619" lon="6.68359">
        <ele>347</ele>
        <time>2015-11-15T10:25:04.000Z</time>
      </trkpt>
      <trkpt lat="47.4862" lon="6.68355">
        <ele>347</ele>
        <time>2015-11-15T10:25:05.000Z</time>
      </trkpt>
      <trkpt lat="47.48622" lon="6.68351">
        <ele>347</ele>
        <time>2015-11-15T10:25:06.000Z</time>
      </trkpt>
      <trkpt lat="47.48623" lon="6.68347">
        <ele>347</ele>
        <time>2015-11-15T10:25:07.000Z</time>
      </trkpt>
      <trkpt lat="47.48625" lon="6.68343">
        <ele>347</ele>
        <time>2015-11-15T10:25:08.000Z</time>
      </trkpt>
      <trkpt lat="47.48626" lon="6.68339">
        <ele>347</ele>
        <time>2015-11-15T10:25:09.000Z</time>
      </trkpt>
      <trkpt lat="47.48628" lon="6.68335">
        <ele>347</ele>
        <time>2015-11-15T10:25:10.000Z</time>
      </trkpt>
      <trkpt lat="47.4863" lon="6.68331">
        <ele>348</ele>
        <time>2015-11-15T10:25:11.000Z</time>
      </trkpt>
      <trkpt lat="47.48633" lon="6.68328">
        <ele>348</ele>
        <time>2015-11-15T10:25:12.000Z</time>
      </trkpt>
      <trkpt lat="47.48635" lon="6.68326">
        <ele>348</ele>
        <time>2015-11-15T10:25:13.000Z</time>
      </trkpt>
      <trkpt lat="47.48639" lon="6.68325">
        <ele>348</ele>
        <time>2015-11-15T10:25:14.000Z</time>
      </trkpt>
      <trkpt lat="47.48642" lon="6.68325">
        <ele>349</ele>
        <time>2015-11-15T10:25:15.000Z</time>
      </trkpt>
      <trkpt lat="47.48644" lon="6.68326">
        <ele>349</ele>
        <time>2015-11-15T10:25:16.000Z</time>
      </trkpt>
      <trkpt lat="47.48647" lon="6.68329">
        <ele>349</ele>
        <time>2015-11-15T10:25:17.000Z</time>
      </trkpt>
      <trkpt lat="47.48649" lon="6.68332">
        <ele>349</ele>
        <time>2015-11-15T10:25:18.000Z</time>
      </trkpt>
      <trkpt lat="47.48651" lon="6.68336">
        <ele>348</ele>
        <time>2015-11-15T10:25:19.000Z</time>
      </trkpt>
      <trkpt lat="47.48653" lon="6.6834">
        <ele>348</ele>
        <time>2015-11-15T10:25:20.000Z</time>
      </trkpt>
      <trkpt lat="47.48655" lon="6.68344">
        <ele>348</ele>
        <time>2015-11-15T10:25:21.000Z</time>
      </trkpt>
      <trkpt lat="47.48657" lon="6.68348">
        <ele>348</ele>
        <time>2015-11-15T10:25:22.000Z</time>
      </trkpt>
      <trkpt lat="47.48658" lon="6.68351">
        <ele>348</ele>
        <time>2015-11-15T10:25:23.000Z</time>
      </trkpt>
      <trkpt lat="47.4866" lon="6.68353">
        <ele>348</ele>
        <time>2015-11-15T10:25:24.000Z</time>
      </trkpt>
      <trkpt lat="47.48662" lon="6.68356">
        <ele>348</ele>
        <time>2015-11-15T10:25:25.000Z</time>
      </trkpt>
      <trkpt lat="47.48664" lon="6.68358">
        <ele>348</ele>
        <time>2015-11-15T10:25:26.000Z</time>
      </trkpt>
      <trkpt lat="47.48666" lon="6.68361">
        <ele>348</ele>
        <time>2015-11-15T10:25:27.000Z</time>
      </trkpt>
      <trkpt lat="47.48668" lon="6.68363">
        <ele>350</ele>
        <time>2015-11-15T10:25:28.000Z</time>
      </trkpt>
      <trkpt lat="47.4867" lon="6.68366">
        <ele>350</ele>
        <time>2015-11-15T10:25:29.000Z</time>
      </trkpt>
      <trkpt lat="47.48672" lon="6.68368">
        <ele>350</ele>
        <time>2015-11-15T10:25:30.000Z</time>
      </trkpt>
      <trkpt lat="47.48674" lon="6.6837">
        <ele>350</ele>
        <time>2015-11-15T10:25:31.000Z</time>
      </trkpt>
      <trkpt lat="47.48676" lon="6.68372">
        <ele>350</ele>
        <time>2015-11-15T10:25:32.000Z</time>
      </trkpt>
      <trkpt lat="47.48678" lon="6.68372">
        <ele>350</ele>
        <time>2015-11-15T10:25:33.000Z</time>
      </trkpt>
      <trkpt lat="47.48682" lon="6.68371">
        <ele>350</ele>
        <time>2015-11-15T10:25:35.000Z</time>
      </trkpt>
      <trkpt lat="47.48684" lon="6.68369">
        <ele>350</ele>
        <time>2015-11-15T10:25:36.000Z</time>
      </trkpt>
      <trkpt lat="47.48686" lon="6.68367">
        <ele>350</ele>
        <time>2015-11-15T10:25:37.000Z</time>
      </trkpt>
      <trkpt lat="47.48688" lon="6.68365">
        <ele>350</ele>
        <time>2015-11-15T10:25:38.000Z</time>
      </trkpt>
      <trkpt lat="47.4869" lon="6.68363">
        <ele>350</ele>
        <time>2015-11-15T10:25:39.000Z</time>
      </trkpt>
      <trkpt lat="47.48692" lon="6.68362">
        <ele>350</ele>
        <time>2015-11-15T10:25:40.000Z</time>
      </trkpt>
      <trkpt lat="47.48694" lon="6.6836">
        <ele>350</ele>
        <time>2015-11-15T10:25:41.000Z</time>
      </trkpt>
      <trkpt lat="47.48696" lon="6.68359">
        <ele>351</ele>
        <time>2015-11-15T10:25:42.000Z</time>
      </trkpt>
      <trkpt lat="47.487" lon="6.68356">
        <ele>351</ele>
        <time>2015-11-15T10:25:44.000Z</time>
      </trkpt>
      <trkpt lat="47.48702" lon="6.68354">
        <ele>351</ele>
        <time>2015-11-15T10:25:45.000Z</time>
      </trkpt>
      <trkpt lat="47.48705" lon="6.68351">
        <ele>351</ele>
        <time>2015-11-15T10:25:47.000Z</time>
      </trkpt>
      <trkpt lat="47.48706" lon="6.68349">
        <ele>351</ele>
        <time>2015-11-15T10:25:48.000Z</time>
      </trkpt>
      <trkpt lat="47.48709" lon="6.68346">
        <ele>351</ele>
        <time>2015-11-15T10:25:50.000Z</time>
      </trkpt>
      <trkpt lat="47.4871" lon="6.68344">
        <ele>351</ele>
        <time>2015-11-15T10:25:51.000Z</time>
      </trkpt>
      <trkpt lat="47.48713" lon="6.6834">
        <ele>351</ele>
        <time>2015-11-15T10:25:53.000Z</time>
      </trkpt>
      <trkpt lat="47.48715" lon="6.68339">
        <ele>351</ele>
        <time>2015-11-15T10:25:54.000Z</time>
      </trkpt>
      <trkpt lat="47.48719" lon="6.68337">
        <ele>352</ele>
        <time>2015-11-15T10:25:56.000Z</time>
      </trkpt>
      <trkpt lat="47.48721" lon="6.68336">
        <ele>352</ele>
        <time>2015-11-15T10:25:57.000Z</time>
      </trkpt>
      <trkpt lat="47.48725" lon="6.68334">
        <ele>352</ele>
        <time>2015-11-15T10:25:59.000Z</time>
      </trkpt>
      <trkpt lat="47.48727" lon="6.68333">
        <ele>352</ele>
        <time>2015-11-15T10:26:00.000Z</time>
      </trkpt>
      <trkpt lat="47.4873" lon="6.68332">
        <ele>353</ele>
        <time>2015-11-15T10:26:02.000Z</time>
      </trkpt>
      <trkpt lat="47.48732" lon="6.68331">
        <ele>353</ele>
        <time>2015-11-15T10:26:03.000Z</time>
      </trkpt>
      <trkpt lat="47.48735" lon="6.6833">
        <ele>354</ele>
        <time>2015-11-15T10:26:05.000Z</time>
      </trkpt>
      <trkpt lat="47.48737" lon="6.68329">
        <ele>354</ele>
        <time>2015-11-15T10:26:06.000Z</time>
      </trkpt>
      <trkpt lat="47.48741" lon="6.68328">
        <ele>354</ele>
        <time>2015-11-15T10:26:08.000Z</time>
      </trkpt>
      <trkpt lat="47.48743" lon="6.68328">
        <ele>354</ele>
        <time>2015-11-15T10:26:09.000Z</time>
      </trkpt>
      <trkpt lat="47.48747" lon="6.68327">
        <ele>354</ele>
        <time>2015-11-15T10:26:11.000Z</time>
      </trkpt>
      <trkpt lat="47.48749" lon="6.68327">
        <ele>354</ele>
        <time>2015-11-15T10:26:12.000Z</time>
      </trkpt>
      <trkpt lat="47.48752" lon="6.68327">
        <ele>354</ele>
        <time>2015-11-15T10:26:13.000Z</time>
      </trkpt>
      <trkpt lat="47.48754" lon="6.68327">
        <ele>355</ele>
        <time>2015-11-15T10:26:14.000Z</time>
      </trkpt>
      <trkpt lat="47.48757" lon="6.68327">
        <ele>355</ele>
        <time>2015-11-15T10:26:15.000Z</time>
      </trkpt>
      <trkpt lat="47.4876" lon="6.68327">
        <ele>355</ele>
        <time>2015-11-15T10:26:16.000Z</time>
      </trkpt>
      <trkpt lat="47.48762" lon="6.68326">
        <ele>355</ele>
        <time>2015-11-15T10:26:17.000Z</time>
      </trkpt>
      <trkpt lat="47.48765" lon="6.68326">
        <ele>355</ele>
        <time>2015-11-15T10:26:18.000Z</time>
      </trkpt>
      <trkpt lat="47.48768" lon="6.68326">
        <ele>355</ele>
        <time>2015-11-15T10:26:19.000Z</time>
      </trkpt>
      <trkpt lat="47.48771" lon="6.68326">
        <ele>355</ele>
        <time>2015-11-15T10:26:20.000Z</time>
      </trkpt>
      <trkpt lat="47.48774" lon="6.68326">
        <ele>355</ele>
        <time>2015-11-15T10:26:21.000Z</time>
      </trkpt>
      <trkpt lat="47.48777" lon="6.68326">
        <ele>355</ele>
        <time>2015-11-15T10:26:22.000Z</time>
      </trkpt>
      <trkpt lat="47.4878" lon="6.68325">
        <ele>355</ele>
        <time>2015-11-15T10:26:23.000Z</time>
      </trkpt>
      <trkpt lat="47.48782" lon="6.68325">
        <ele>355</ele>
        <time>2015-11-15T10:26:24.000Z</time>
      </trkpt>
      <trkpt lat="47.48785" lon="6.68323">
        <ele>355</ele>
        <time>2015-11-15T10:26:25.000Z</time>
      </trkpt>
      <trkpt lat="47.48788" lon="6.68322">
        <ele>355</ele>
        <time>2015-11-15T10:26:26.000Z</time>
      </trkpt>
      <trkpt lat="47.4879" lon="6.6832">
        <ele>355</ele>
        <time>2015-11-15T10:26:27.000Z</time>
      </trkpt>
      <trkpt lat="47.48792" lon="6.68317">
        <ele>355</ele>
        <time>2015-11-15T10:26:28.000Z</time>
      </trkpt>
      <trkpt lat="47.48794" lon="6.68315">
        <ele>355</ele>
        <time>2015-11-15T10:26:29.000Z</time>
      </trkpt>
      <trkpt lat="47.48796" lon="6.68313">
        <ele>356</ele>
        <time>2015-11-15T10:26:30.000Z</time>
      </trkpt>
      <trkpt lat="47.48799" lon="6.68311">
        <ele>356</ele>
        <time>2015-11-15T10:26:31.000Z</time>
      </trkpt>
      <trkpt lat="47.48801" lon="6.68309">
        <ele>356</ele>
        <time>2015-11-15T10:26:32.000Z</time>
      </trkpt>
      <trkpt lat="47.48804" lon="6.68306">
        <ele>356</ele>
        <time>2015-11-15T10:26:33.000Z</time>
      </trkpt>
      <trkpt lat="47.48807" lon="6.68303">
        <ele>356</ele>
        <time>2015-11-15T10:26:34.000Z</time>
      </trkpt>
      <trkpt lat="47.48809" lon="6.683">
        <ele>356</ele>
        <time>2015-11-15T10:26:35.000Z</time>
      </trkpt>
      <trkpt lat="47.48812" lon="6.68298">
        <ele>356</ele>
        <time>2015-11-15T10:26:36.000Z</time>
      </trkpt>
      <trkpt lat="47.48814" lon="6.68295">
        <ele>356</ele>
        <time>2015-11-15T10:26:37.000Z</time>
      </trkpt>
      <trkpt lat="47.48816" lon="6.68292">
        <ele>356</ele>
        <time>2015-11-15T10:26:38.000Z</time>
      </trkpt>
      <trkpt lat="47.48818" lon="6.68289">
        <ele>356</ele>
        <time>2015-11-15T10:26:39.000Z</time>
      </trkpt>
      <trkpt lat="47.4882" lon="6.68285">
        <ele>356</ele>
        <time>2015-11-15T10:26:40.000Z</time>
      </trkpt>
      <trkpt lat="47.48821" lon="6.68281">
        <ele>356</ele>
        <time>2015-11-15T10:26:41.000Z</time>
      </trkpt>
      <trkpt lat="47.48823" lon="6.68277">
        <ele>357</ele>
        <time>2015-11-15T10:26:42.000Z</time>
      </trkpt>
      <trkpt lat="47.48824" lon="6.68273">
        <ele>357</ele>
        <time>2015-11-15T10:26:43.000Z</time>
      </trkpt>
      <trkpt lat="47.48825" lon="6.68269">
        <ele>357</ele>
        <time>2015-11-15T10:26:44.000Z</time>
      </trkpt>
      <trkpt lat="47.48826" lon="6.68266">
        <ele>357</ele>
        <time>2015-11-15T10:26:45.000Z</time>
      </trkpt>
      <trkpt lat="47.48827" lon="6.68262">
        <ele>357</ele>
        <time>2015-11-15T10:26:46.000Z</time>
      </trkpt>
      <trkpt lat="47.48828" lon="6.68258">
        <ele>357</ele>
        <time>2015-11-15T10:26:47.000Z</time>
      </trkpt>
      <trkpt lat="47.4883" lon="6.68254">
        <ele>358</ele>
        <time>2015-11-15T10:26:48.000Z</time>
      </trkpt>
      <trkpt lat="47.48831" lon="6.68251">
        <ele>358</ele>
        <time>2015-11-15T10:26:49.000Z</time>
      </trkpt>
      <trkpt lat="47.48832" lon="6.68247">
        <ele>358</ele>
        <time>2015-11-15T10:26:50.000Z</time>
      </trkpt>
      <trkpt lat="47.48834" lon="6.68244">
        <ele>358</ele>
        <time>2015-11-15T10:26:51.000Z</time>
      </trkpt>
      <trkpt lat="47.48835" lon="6.6824">
        <ele>358</ele>
        <time>2015-11-15T10:26:52.000Z</time>
      </trkpt>
      <trkpt lat="47.48837" lon="6.68237">
        <ele>359</ele>
        <time>2015-11-15T10:26:53.000Z</time>
      </trkpt>
      <trkpt lat="47.48838" lon="6.68233">
        <ele>359</ele>
        <time>2015-11-15T10:26:54.000Z</time>
      </trkpt>
      <trkpt lat="47.48839" lon="6.6823">
        <ele>359</ele>
        <time>2015-11-15T10:26:55.000Z</time>
      </trkpt>
      <trkpt lat="47.48841" lon="6.68226">
        <ele>359</ele>
        <time>2015-11-15T10:26:56.000Z</time>
      </trkpt>
      <trkpt lat="47.48842" lon="6.68223">
        <ele>359</ele>
        <time>2015-11-15T10:26:57.000Z</time>
      </trkpt>
      <trkpt lat="47.48844" lon="6.6822">
        <ele>359</ele>
        <time>2015-11-15T10:26:58.000Z</time>
      </trkpt>
      <trkpt lat="47.48845" lon="6.68217">
        <ele>359</ele>
        <time>2015-11-15T10:26:59.000Z</time>
      </trkpt>
      <trkpt lat="47.48846" lon="6.68214">
        <ele>359</ele>
        <time>2015-11-15T10:27:00.000Z</time>
      </trkpt>
      <trkpt lat="47.48849" lon="6.6821">
        <ele>359</ele>
        <time>2015-11-15T10:27:02.000Z</time>
      </trkpt>
      <trkpt lat="47.48851" lon="6.68208">
        <ele>359</ele>
        <time>2015-11-15T10:27:03.000Z</time>
      </trkpt>
      <trkpt lat="47.48854" lon="6.68204">
        <ele>359</ele>
        <time>2015-11-15T10:27:05.000Z</time>
      </trkpt>
      <trkpt lat="47.48855" lon="6.68202">
        <ele>359</ele>
        <time>2015-11-15T10:27:06.000Z</time>
      </trkpt>
      <trkpt lat="47.48857" lon="6.68197">
        <ele>359</ele>
        <time>2015-11-15T10:27:08.000Z</time>
      </trkpt>
      <trkpt lat="47.48859" lon="6.68195">
        <ele>360</ele>
        <time>2015-11-15T10:27:09.000Z</time>
      </trkpt>
      <trkpt lat="47.48861" lon="6.68189">
        <ele>360</ele>
        <time>2015-11-15T10:27:11.000Z</time>
      </trkpt>
      <trkpt lat="47.48863" lon="6.68187">
        <ele>360</ele>
        <time>2015-11-15T10:27:12.000Z</time>
      </trkpt>
      <trkpt lat="47.48864" lon="6.68184">
        <ele>360</ele>
        <time>2015-11-15T10:27:13.000Z</time>
      </trkpt>
      <trkpt lat="47.48865" lon="6.68181">
        <ele>360</ele>
        <time>2015-11-15T10:27:14.000Z</time>
      </trkpt>
      <trkpt lat="47.48867" lon="6.68178">
        <ele>360</ele>
        <time>2015-11-15T10:27:15.000Z</time>
      </trkpt>
      <trkpt lat="47.48868" lon="6.68175">
        <ele>360</ele>
        <time>2015-11-15T10:27:16.000Z</time>
      </trkpt>
      <trkpt lat="47.4887" lon="6.68172">
        <ele>360</ele>
        <time>2015-11-15T10:27:17.000Z</time>
      </trkpt>
      <trkpt lat="47.48871" lon="6.68169">
        <ele>360</ele>
        <time>2015-11-15T10:27:18.000Z</time>
      </trkpt>
      <trkpt lat="47.48873" lon="6.68166">
        <ele>362</ele>
        <time>2015-11-15T10:27:19.000Z</time>
      </trkpt>
      <trkpt lat="47.48874" lon="6.68162">
        <ele>362</ele>
        <time>2015-11-15T10:27:20.000Z</time>
      </trkpt>
      <trkpt lat="47.48876" lon="6.68159">
        <ele>362</ele>
        <time>2015-11-15T10:27:21.000Z</time>
      </trkpt>
      <trkpt lat="47.48877" lon="6.68155">
        <ele>362</ele>
        <time>2015-11-15T10:27:22.000Z</time>
      </trkpt>
      <trkpt lat="47.48879" lon="6.68152">
        <ele>362</ele>
        <time>2015-11-15T10:27:23.000Z</time>
      </trkpt>
      <trkpt lat="47.48881" lon="6.68148">
        <ele>362</ele>
        <time>2015-11-15T10:27:24.000Z</time>
      </trkpt>
      <trkpt lat="47.48883" lon="6.68144">
        <ele>362</ele>
        <time>2015-11-15T10:27:25.000Z</time>
      </trkpt>
      <trkpt lat="47.48886" lon="6.68139">
        <ele>362</ele>
        <time>2015-11-15T10:27:26.000Z</time>
      </trkpt>
      <trkpt lat="47.48888" lon="6.68135">
        <ele>362</ele>
        <time>2015-11-15T10:27:27.000Z</time>
      </trkpt>
      <trkpt lat="47.4889" lon="6.6813">
        <ele>362</ele>
        <time>2015-11-15T10:27:28.000Z</time>
      </trkpt>
      <trkpt lat="47.48892" lon="6.68126">
        <ele>362</ele>
        <time>2015-11-15T10:27:29.000Z</time>
      </trkpt>
      <trkpt lat="47.48895" lon="6.68121">
        <ele>362</ele>
        <time>2015-11-15T10:27:30.000Z</time>
      </trkpt>
      <trkpt lat="47.48897" lon="6.68116">
        <ele>362</ele>
        <time>2015-11-15T10:27:31.000Z</time>
      </trkpt>
      <trkpt lat="47.48899" lon="6.68111">
        <ele>362</ele>
        <time>2015-11-15T10:27:32.000Z</time>
      </trkpt>
      <trkpt lat="47.48902" lon="6.68105">
        <ele>362</ele>
        <time>2015-11-15T10:27:33.000Z</time>
      </trkpt>
      <trkpt lat="47.48906" lon="6.68099">
        <ele>362</ele>
        <time>2015-11-15T10:27:34.000Z</time>
      </trkpt>
      <trkpt lat="47.48909" lon="6.68093">
        <ele>362</ele>
        <time>2015-11-15T10:27:35.000Z</time>
      </trkpt>
      <trkpt lat="47.48911" lon="6.68087">
        <ele>362</ele>
        <time>2015-11-15T10:27:36.000Z</time>
      </trkpt>
      <trkpt lat="47.48914" lon="6.68081">
        <ele>363</ele>
        <time>2015-11-15T10:27:37.000Z</time>
      </trkpt>
      <trkpt lat="47.48917" lon="6.68074">
        <ele>361</ele>
        <time>2015-11-15T10:27:38.000Z</time>
      </trkpt>
      <trkpt lat="47.4892" lon="6.68067">
        <ele>361</ele>
        <time>2015-11-15T10:27:39.000Z</time>
      </trkpt>
      <trkpt lat="47.48923" lon="6.68061">
        <ele>361</ele>
        <time>2015-11-15T10:27:40.000Z</time>
      </trkpt>
      <trkpt lat="47.48926" lon="6.68054">
        <ele>361</ele>
        <time>2015-11-15T10:27:41.000Z</time>
      </trkpt>
      <trkpt lat="47.48929" lon="6.68048">
        <ele>361</ele>
        <time>2015-11-15T10:27:42.000Z</time>
      </trkpt>
      <trkpt lat="47.48931" lon="6.68041">
        <ele>361</ele>
        <time>2015-11-15T10:27:43.000Z</time>
      </trkpt>
      <trkpt lat="47.48934" lon="6.68035">
        <ele>361</ele>
        <time>2015-11-15T10:27:44.000Z</time>
      </trkpt>
      <trkpt lat="47.48937" lon="6.6803">
        <ele>361</ele>
        <time>2015-11-15T10:27:45.000Z</time>
      </trkpt>
      <trkpt lat="47.4894" lon="6.68024">
        <ele>361</ele>
        <time>2015-11-15T10:27:46.000Z</time>
      </trkpt>
      <trkpt lat="47.48942" lon="6.68018">
        <ele>361</ele>
        <time>2015-11-15T10:27:47.000Z</time>
      </trkpt>
      <trkpt lat="47.48944" lon="6.68013">
        <ele>361</ele>
        <time>2015-11-15T10:27:48.000Z</time>
      </trkpt>
      <trkpt lat="47.48947" lon="6.68008">
        <ele>361</ele>
        <time>2015-11-15T10:27:49.000Z</time>
      </trkpt>
      <trkpt lat="47.48949" lon="6.68003">
        <ele>361</ele>
        <time>2015-11-15T10:27:50.000Z</time>
      </trkpt>
      <trkpt lat="47.48951" lon="6.67998">
        <ele>362</ele>
        <time>2015-11-15T10:27:51.000Z</time>
      </trkpt>
      <trkpt lat="47.48954" lon="6.67993">
        <ele>362</ele>
        <time>2015-11-15T10:27:52.000Z</time>
      </trkpt>
      <trkpt lat="47.48956" lon="6.67988">
        <ele>362</ele>
        <time>2015-11-15T10:27:53.000Z</time>
      </trkpt>
      <trkpt lat="47.48959" lon="6.67983">
        <ele>362</ele>
        <time>2015-11-15T10:27:54.000Z</time>
      </trkpt>
      <trkpt lat="47.48962" lon="6.67978">
        <ele>362</ele>
        <time>2015-11-15T10:27:55.000Z</time>
      </trkpt>
      <trkpt lat="47.48965" lon="6.67972">
        <ele>362</ele>
        <time>2015-11-15T10:27:56.000Z</time>
      </trkpt>
      <trkpt lat="47.48968" lon="6.67966">
        <ele>362</ele>
        <time>2015-11-15T10:27:57.000Z</time>
      </trkpt>
      <trkpt lat="47.48972" lon="6.67959">
        <ele>362</ele>
        <time>2015-11-15T10:27:58.000Z</time>
      </trkpt>
      <trkpt lat="47.48976" lon="6.67953">
        <ele>361</ele>
        <time>2015-11-15T10:27:59.000Z</time>
      </trkpt>
      <trkpt lat="47.4898" lon="6.67946">
        <ele>361</ele>
        <time>2015-11-15T10:28:00.000Z</time>
      </trkpt>
      <trkpt lat="47.48985" lon="6.67939">
        <ele>361</ele>
        <time>2015-11-15T10:28:01.000Z</time>
      </trkpt>
      <trkpt lat="47.48989" lon="6.67931">
        <ele>360</ele>
        <time>2015-11-15T10:28:02.000Z</time>
      </trkpt>
      <trkpt lat="47.48993" lon="6.67924">
        <ele>360</ele>
        <time>2015-11-15T10:28:03.000Z</time>
      </trkpt>
      <trkpt lat="47.48997" lon="6.67918">
        <ele>359</ele>
        <time>2015-11-15T10:28:04.000Z</time>
      </trkpt>
      <trkpt lat="47.49001" lon="6.67911">
        <ele>358</ele>
        <time>2015-11-15T10:28:05.000Z</time>
      </trkpt>
      <trkpt lat="47.49005" lon="6.67905">
        <ele>357</ele>
        <time>2015-11-15T10:28:06.000Z</time>
      </trkpt>
      <trkpt lat="47.49009" lon="6.67899">
        <ele>357</ele>
        <time>2015-11-15T10:28:07.000Z</time>
      </trkpt>
      <trkpt lat="47.49012" lon="6.67893">
        <ele>357</ele>
        <time>2015-11-15T10:28:08.000Z</time>
      </trkpt>
      <trkpt lat="47.49016" lon="6.67887">
        <ele>357</ele>
        <time>2015-11-15T10:28:09.000Z</time>
      </trkpt>
      <trkpt lat="47.49019" lon="6.6788">
        <ele>357</ele>
        <time>2015-11-15T10:28:10.000Z</time>
      </trkpt>
      <trkpt lat="47.49023" lon="6.67874">
        <ele>357</ele>
        <time>2015-11-15T10:28:11.000Z</time>
      </trkpt>
      <trkpt lat="47.49027" lon="6.67868">
        <ele>357</ele>
        <time>2015-11-15T10:28:12.000Z</time>
      </trkpt>
      <trkpt lat="47.4903" lon="6.67862">
        <ele>357</ele>
        <time>2015-11-15T10:28:13.000Z</time>
      </trkpt>
      <trkpt lat="47.49034" lon="6.67856">
        <ele>356</ele>
        <time>2015-11-15T10:28:14.000Z</time>
      </trkpt>
      <trkpt lat="47.49038" lon="6.67849">
        <ele>356</ele>
        <time>2015-11-15T10:28:15.000Z</time>
      </trkpt>
      <trkpt lat="47.4904" lon="6.67842">
        <ele>356</ele>
        <time>2015-11-15T10:28:16.000Z</time>
      </trkpt>
      <trkpt lat="47.49044" lon="6.67835">
        <ele>356</ele>
        <time>2015-11-15T10:28:17.000Z</time>
      </trkpt>
      <trkpt lat="47.49047" lon="6.67829">
        <ele>358</ele>
        <time>2015-11-15T10:28:18.000Z</time>
      </trkpt>
      <trkpt lat="47.49051" lon="6.67822">
        <ele>358</ele>
        <time>2015-11-15T10:28:19.000Z</time>
      </trkpt>
      <trkpt lat="47.49055" lon="6.67815">
        <ele>358</ele>
        <time>2015-11-15T10:28:20.000Z</time>
      </trkpt>
      <trkpt lat="47.49058" lon="6.67808">
        <ele>358</ele>
        <time>2015-11-15T10:28:21.000Z</time>
      </trkpt>
      <trkpt lat="47.49062" lon="6.678">
        <ele>358</ele>
        <time>2015-11-15T10:28:22.000Z</time>
      </trkpt>
      <trkpt lat="47.49065" lon="6.67794">
        <ele>358</ele>
        <time>2015-11-15T10:28:23.000Z</time>
      </trkpt>
      <trkpt lat="47.49068" lon="6.67787">
        <ele>358</ele>
        <time>2015-11-15T10:28:24.000Z</time>
      </trkpt>
      <trkpt lat="47.49071" lon="6.67782">
        <ele>358</ele>
        <time>2015-11-15T10:28:25.000Z</time>
      </trkpt>
      <trkpt lat="47.49074" lon="6.67776">
        <ele>358</ele>
        <time>2015-11-15T10:28:26.000Z</time>
      </trkpt>
      <trkpt lat="47.49076" lon="6.67771">
        <ele>358</ele>
        <time>2015-11-15T10:28:27.000Z</time>
      </trkpt>
      <trkpt lat="47.49078" lon="6.67766">
        <ele>358</ele>
        <time>2015-11-15T10:28:28.000Z</time>
      </trkpt>
      <trkpt lat="47.49081" lon="6.67762">
        <ele>358</ele>
        <time>2015-11-15T10:28:29.000Z</time>
      </trkpt>
      <trkpt lat="47.49082" lon="6.67758">
        <ele>358</ele>
        <time>2015-11-15T10:28:30.000Z</time>
      </trkpt>
      <trkpt lat="47.49085" lon="6.67755">
        <ele>356</ele>
        <time>2015-11-15T10:28:31.000Z</time>
      </trkpt>
      <trkpt lat="47.49087" lon="6.67751">
        <ele>356</ele>
        <time>2015-11-15T10:28:32.000Z</time>
      </trkpt>
      <trkpt lat="47.49089" lon="6.67747">
        <ele>357</ele>
        <time>2015-11-15T10:28:33.000Z</time>
      </trkpt>
      <trkpt lat="47.49091" lon="6.67744">
        <ele>357</ele>
        <time>2015-11-15T10:28:34.000Z</time>
      </trkpt>
      <trkpt lat="47.49093" lon="6.67739">
        <ele>357</ele>
        <time>2015-11-15T10:28:35.000Z</time>
      </trkpt>
      <trkpt lat="47.49095" lon="6.67736">
        <ele>357</ele>
        <time>2015-11-15T10:28:36.000Z</time>
      </trkpt>
      <trkpt lat="47.49097" lon="6.67732">
        <ele>358</ele>
        <time>2015-11-15T10:28:37.000Z</time>
      </trkpt>
      <trkpt lat="47.49098" lon="6.67728">
        <ele>358</ele>
        <time>2015-11-15T10:28:38.000Z</time>
      </trkpt>
      <trkpt lat="47.491" lon="6.67724">
        <ele>358</ele>
        <time>2015-11-15T10:28:39.000Z</time>
      </trkpt>
      <trkpt lat="47.491" lon="6.67719">
        <ele>358</ele>
        <time>2015-11-15T10:28:40.000Z</time>
      </trkpt>
      <trkpt lat="47.49101" lon="6.67715">
        <ele>358</ele>
        <time>2015-11-15T10:28:41.000Z</time>
      </trkpt>
      <trkpt lat="47.49101" lon="6.6771">
        <ele>358</ele>
        <time>2015-11-15T10:28:42.000Z</time>
      </trkpt>
      <trkpt lat="47.49101" lon="6.67705">
        <ele>358</ele>
        <time>2015-11-15T10:28:43.000Z</time>
      </trkpt>
      <trkpt lat="47.49101" lon="6.677">
        <ele>359</ele>
        <time>2015-11-15T10:28:44.000Z</time>
      </trkpt>
      <trkpt lat="47.49101" lon="6.67696">
        <ele>359</ele>
        <time>2015-11-15T10:28:45.000Z</time>
      </trkpt>
      <trkpt lat="47.49101" lon="6.67691">
        <ele>359</ele>
        <time>2015-11-15T10:28:46.000Z</time>
      </trkpt>
      <trkpt lat="47.49102" lon="6.67686">
        <ele>359</ele>
        <time>2015-11-15T10:28:47.000Z</time>
      </trkpt>
      <trkpt lat="47.49102" lon="6.67681">
        <ele>359</ele>
        <time>2015-11-15T10:28:48.000Z</time>
      </trkpt>
      <trkpt lat="47.49102" lon="6.67676">
        <ele>360</ele>
        <time>2015-11-15T10:28:49.000Z</time>
      </trkpt>
      <trkpt lat="47.49102" lon="6.67672">
        <ele>360</ele>
        <time>2015-11-15T10:28:50.000Z</time>
      </trkpt>
      <trkpt lat="47.49102" lon="6.67667">
        <ele>360</ele>
        <time>2015-11-15T10:28:51.000Z</time>
      </trkpt>
      <trkpt lat="47.49102" lon="6.67663">
        <ele>361</ele>
        <time>2015-11-15T10:28:52.000Z</time>
      </trkpt>
      <trkpt lat="47.49102" lon="6.67658">
        <ele>361</ele>
        <time>2015-11-15T10:28:53.000Z</time>
      </trkpt>
      <trkpt lat="47.49102" lon="6.67653">
        <ele>361</ele>
        <time>2015-11-15T10:28:54.000Z</time>
      </trkpt>
      <trkpt lat="47.49102" lon="6.67649">
        <ele>361</ele>
        <time>2015-11-15T10:28:55.000Z</time>
      </trkpt>
      <trkpt lat="47.49102" lon="6.67644">
        <ele>361</ele>
        <time>2015-11-15T10:28:56.000Z</time>
      </trkpt>
      <trkpt lat="47.49102" lon="6.67639">
        <ele>361</ele>
        <time>2015-11-15T10:28:57.000Z</time>
      </trkpt>
      <trkpt lat="47.49102" lon="6.67633">
        <ele>361</ele>
        <time>2015-11-15T10:28:58.000Z</time>
      </trkpt>
      <trkpt lat="47.49103" lon="6.67628">
        <ele>361</ele>
        <time>2015-11-15T10:28:59.000Z</time>
      </trkpt>
      <trkpt lat="47.49103" lon="6.67623">
        <ele>361</ele>
        <time>2015-11-15T10:29:00.000Z</time>
      </trkpt>
      <trkpt lat="47.49103" lon="6.67617">
        <ele>361</ele>
        <time>2015-11-15T10:29:01.000Z</time>
      </trkpt>
      <trkpt lat="47.49102" lon="6.67612">
        <ele>361</ele>
        <time>2015-11-15T10:29:02.000Z</time>
      </trkpt>
      <trkpt lat="47.49102" lon="6.67607">
        <ele>361</ele>
        <time>2015-11-15T10:29:03.000Z</time>
      </trkpt>
      <trkpt lat="47.491" lon="6.67602">
        <ele>362</ele>
        <time>2015-11-15T10:29:04.000Z</time>
      </trkpt>
      <trkpt lat="47.49099" lon="6.67597">
        <ele>362</ele>
        <time>2015-11-15T10:29:05.000Z</time>
      </trkpt>
      <trkpt lat="47.49098" lon="6.67592">
        <ele>362</ele>
        <time>2015-11-15T10:29:06.000Z</time>
      </trkpt>
      <trkpt lat="47.49097" lon="6.67587">
        <ele>362</ele>
        <time>2015-11-15T10:29:07.000Z</time>
      </trkpt>
      <trkpt lat="47.49096" lon="6.67582">
        <ele>362</ele>
        <time>2015-11-15T10:29:08.000Z</time>
      </trkpt>
      <trkpt lat="47.49096" lon="6.67577">
        <ele>362</ele>
        <time>2015-11-15T10:29:09.000Z</time>
      </trkpt>
      <trkpt lat="47.49096" lon="6.67571">
        <ele>362</ele>
        <time>2015-11-15T10:29:10.000Z</time>
      </trkpt>
      <trkpt lat="47.49096" lon="6.67566">
        <ele>361</ele>
        <time>2015-11-15T10:29:11.000Z</time>
      </trkpt>
      <trkpt lat="47.49097" lon="6.6756">
        <ele>361</ele>
        <time>2015-11-15T10:29:12.000Z</time>
      </trkpt>
      <trkpt lat="47.49098" lon="6.67552">
        <ele>361</ele>
        <time>2015-11-15T10:29:13.000Z</time>
      </trkpt>
      <trkpt lat="47.49098" lon="6.67545">
        <ele>361</ele>
        <time>2015-11-15T10:29:14.000Z</time>
      </trkpt>
      <trkpt lat="47.49097" lon="6.67538">
        <ele>361</ele>
        <time>2015-11-15T10:29:15.000Z</time>
      </trkpt>
      <trkpt lat="47.49095" lon="6.67531">
        <ele>361</ele>
        <time>2015-11-15T10:29:16.000Z</time>
      </trkpt>
      <trkpt lat="47.49092" lon="6.67524">
        <ele>360</ele>
        <time>2015-11-15T10:29:17.000Z</time>
      </trkpt>
      <trkpt lat="47.49089" lon="6.67518">
        <ele>360</ele>
        <time>2015-11-15T10:29:18.000Z</time>
      </trkpt>
      <trkpt lat="47.49084" lon="6.67513">
        <ele>360</ele>
        <time>2015-11-15T10:29:19.000Z</time>
      </trkpt>
      <trkpt lat="47.4908" lon="6.67509">
        <ele>361</ele>
        <time>2015-11-15T10:29:20.000Z</time>
      </trkpt>
      <trkpt lat="47.49075" lon="6.67505">
        <ele>361</ele>
        <time>2015-11-15T10:29:21.000Z</time>
      </trkpt>
      <trkpt lat="47.4907" lon="6.67501">
        <ele>361</ele>
        <time>2015-11-15T10:29:22.000Z</time>
      </trkpt>
      <trkpt lat="47.49065" lon="6.67496">
        <ele>360</ele>
        <time>2015-11-15T10:29:23.000Z</time>
      </trkpt>
      <trkpt lat="47.4906" lon="6.67491">
        <ele>360</ele>
        <time>2015-11-15T10:29:24.000Z</time>
      </trkpt>
      <trkpt lat="47.49055" lon="6.67485">
        <ele>360</ele>
        <time>2015-11-15T10:29:25.000Z</time>
      </trkpt>
      <trkpt lat="47.49054" lon="6.67474">
        <ele>359</ele>
        <time>2015-11-15T10:29:26.000Z</time>
      </trkpt>
      <trkpt lat="47.49053" lon="6.67463">
        <ele>359</ele>
        <time>2015-11-15T10:29:27.000Z</time>
      </trkpt>
      <trkpt lat="47.49054" lon="6.67453">
        <ele>359</ele>
        <time>2015-11-15T10:29:28.000Z</time>
      </trkpt>
      <trkpt lat="47.49056" lon="6.67443">
        <ele>358</ele>
        <time>2015-11-15T10:29:29.000Z</time>
      </trkpt>
      <trkpt lat="47.49057" lon="6.67433">
        <ele>358</ele>
        <time>2015-11-15T10:29:30.000Z</time>
      </trkpt>
      <trkpt lat="47.49059" lon="6.67423">
        <ele>358</ele>
        <time>2015-11-15T10:29:31.000Z</time>
      </trkpt>
      <trkpt lat="47.49061" lon="6.67414">
        <ele>356</ele>
        <time>2015-11-15T10:29:32.000Z</time>
      </trkpt>
      <trkpt lat="47.49063" lon="6.67405">
        <ele>356</ele>
        <time>2015-11-15T10:29:33.000Z</time>
      </trkpt>
      <trkpt lat="47.49065" lon="6.67397">
        <ele>356</ele>
        <time>2015-11-15T10:29:34.000Z</time>
      </trkpt>
      <trkpt lat="47.49067" lon="6.67389">
        <ele>356</ele>
        <time>2015-11-15T10:29:35.000Z</time>
      </trkpt>
      <trkpt lat="47.49068" lon="6.67382">
        <ele>356</ele>
        <time>2015-11-15T10:29:36.000Z</time>
      </trkpt>
      <trkpt lat="47.4907" lon="6.67374">
        <ele>356</ele>
        <time>2015-11-15T10:29:37.000Z</time>
      </trkpt>
      <trkpt lat="47.49072" lon="6.67367">
        <ele>355</ele>
        <time>2015-11-15T10:29:38.000Z</time>
      </trkpt>
      <trkpt lat="47.49074" lon="6.6736">
        <ele>355</ele>
        <time>2015-11-15T10:29:39.000Z</time>
      </trkpt>
      <trkpt lat="47.49076" lon="6.67353">
        <ele>355</ele>
        <time>2015-11-15T10:29:40.000Z</time>
      </trkpt>
      <trkpt lat="47.49077" lon="6.67346">
        <ele>355</ele>
        <time>2015-11-15T10:29:41.000Z</time>
      </trkpt>
      <trkpt lat="47.49079" lon="6.6734">
        <ele>354</ele>
        <time>2015-11-15T10:29:42.000Z</time>
      </trkpt>
      <trkpt lat="47.4908" lon="6.67334">
        <ele>354</ele>
        <time>2015-11-15T10:29:43.000Z</time>
      </trkpt>
      <trkpt lat="47.49081" lon="6.67329">
        <ele>354</ele>
        <time>2015-11-15T10:29:44.000Z</time>
      </trkpt>
      <trkpt lat="47.49082" lon="6.67323">
        <ele>355</ele>
        <time>2015-11-15T10:29:45.000Z</time>
      </trkpt>
      <trkpt lat="47.49084" lon="6.67318">
        <ele>355</ele>
        <time>2015-11-15T10:29:46.001Z</time>
      </trkpt>
      <trkpt lat="47.49084" lon="6.67312">
        <ele>355</ele>
        <time>2015-11-15T10:29:47.000Z</time>
      </trkpt>
      <trkpt lat="47.49085" lon="6.67308">
        <ele>356</ele>
        <time>2015-11-15T10:29:48.000Z</time>
      </trkpt>
      <trkpt lat="47.49086" lon="6.67303">
        <ele>356</ele>
        <time>2015-11-15T10:29:49.000Z</time>
      </trkpt>
      <trkpt lat="47.49086" lon="6.67299">
        <ele>356</ele>
        <time>2015-11-15T10:29:50.000Z</time>
      </trkpt>
      <trkpt lat="47.49087" lon="6.67295">
        <ele>356</ele>
        <time>2015-11-15T10:29:51.000Z</time>
      </trkpt>
      <trkpt lat="47.49088" lon="6.6729">
        <ele>356</ele>
        <time>2015-11-15T10:29:52.000Z</time>
      </trkpt>
      <trkpt lat="47.49089" lon="6.67286">
        <ele>356</ele>
        <time>2015-11-15T10:29:53.000Z</time>
      </trkpt>
      <trkpt lat="47.4909" lon="6.67282">
        <ele>356</ele>
        <time>2015-11-15T10:29:54.000Z</time>
      </trkpt>
      <trkpt lat="47.49092" lon="6.67277">
        <ele>356</ele>
        <time>2015-11-15T10:29:55.000Z</time>
      </trkpt>
      <trkpt lat="47.49093" lon="6.67273">
        <ele>356</ele>
        <time>2015-11-15T10:29:56.000Z</time>
      </trkpt>
      <trkpt lat="47.49094" lon="6.67268">
        <ele>356</ele>
        <time>2015-11-15T10:29:57.000Z</time>
      </trkpt>
      <trkpt lat="47.49096" lon="6.67264">
        <ele>356</ele>
        <time>2015-11-15T10:29:58.000Z</time>
      </trkpt>
      <trkpt lat="47.49097" lon="6.67259">
        <ele>356</ele>
        <time>2015-11-15T10:29:59.000Z</time>
      </trkpt>
      <trkpt lat="47.49099" lon="6.67255">
        <ele>356</ele>
        <time>2015-11-15T10:30:00.000Z</time>
      </trkpt>
      <trkpt lat="47.491" lon="6.6725">
        <ele>358</ele>
        <time>2015-11-15T10:30:01.000Z</time>
      </trkpt>
      <trkpt lat="47.49102" lon="6.67245">
        <ele>358</ele>
        <time>2015-11-15T10:30:02.000Z</time>
      </trkpt>
      <trkpt lat="47.49103" lon="6.67241">
        <ele>358</ele>
        <time>2015-11-15T10:30:03.000Z</time>
      </trkpt>
      <trkpt lat="47.49105" lon="6.67236">
        <ele>358</ele>
        <time>2015-11-15T10:30:04.000Z</time>
      </trkpt>
      <trkpt lat="47.49106" lon="6.67232">
        <ele>358</ele>
        <time>2015-11-15T10:30:05.000Z</time>
      </trkpt>
      <trkpt lat="47.49107" lon="6.67228">
        <ele>359</ele>
        <time>2015-11-15T10:30:06.000Z</time>
      </trkpt>
      <trkpt lat="47.49108" lon="6.67223">
        <ele>359</ele>
        <time>2015-11-15T10:30:07.000Z</time>
      </trkpt>
      <trkpt lat="47.49109" lon="6.67219">
        <ele>359</ele>
        <time>2015-11-15T10:30:08.000Z</time>
      </trkpt>
      <trkpt lat="47.4911" lon="6.67215">
        <ele>359</ele>
        <time>2015-11-15T10:30:09.000Z</time>
      </trkpt>
      <trkpt lat="47.49111" lon="6.67211">
        <ele>359</ele>
        <time>2015-11-15T10:30:10.000Z</time>
      </trkpt>
      <trkpt lat="47.49111" lon="6.67208">
        <ele>359</ele>
        <time>2015-11-15T10:30:11.000Z</time>
      </trkpt>
      <trkpt lat="47.49112" lon="6.67203">
        <ele>359</ele>
        <time>2015-11-15T10:30:12.000Z</time>
      </trkpt>
      <trkpt lat="47.49112" lon="6.67199">
        <ele>360</ele>
        <time>2015-11-15T10:30:13.000Z</time>
      </trkpt>
      <trkpt lat="47.49112" lon="6.67195">
        <ele>360</ele>
        <time>2015-11-15T10:30:14.000Z</time>
      </trkpt>
      <trkpt lat="47.49111" lon="6.67191">
        <ele>360</ele>
        <time>2015-11-15T10:30:15.000Z</time>
      </trkpt>
      <trkpt lat="47.49111" lon="6.67186">
        <ele>360</ele>
        <time>2015-11-15T10:30:16.000Z</time>
      </trkpt>
      <trkpt lat="47.49111" lon="6.67182">
        <ele>360</ele>
        <time>2015-11-15T10:30:17.000Z</time>
      </trkpt>
      <trkpt lat="47.49111" lon="6.67178">
        <ele>360</ele>
        <time>2015-11-15T10:30:18.000Z</time>
      </trkpt>
      <trkpt lat="47.4911" lon="6.67174">
        <ele>360</ele>
        <time>2015-11-15T10:30:19.000Z</time>
      </trkpt>
      <trkpt lat="47.4911" lon="6.6717">
        <ele>360</ele>
        <time>2015-11-15T10:30:20.000Z</time>
      </trkpt>
      <trkpt lat="47.4911" lon="6.67166">
        <ele>363</ele>
        <time>2015-11-15T10:30:21.000Z</time>
      </trkpt>
      <trkpt lat="47.4911" lon="6.67162">
        <ele>363</ele>
        <time>2015-11-15T10:30:22.000Z</time>
      </trkpt>
      <trkpt lat="47.4911" lon="6.67158">
        <ele>363</ele>
        <time>2015-11-15T10:30:23.000Z</time>
      </trkpt>
      <trkpt lat="47.4911" lon="6.67154">
        <ele>363</ele>
        <time>2015-11-15T10:30:23.999Z</time>
      </trkpt>
      <trkpt lat="47.4911" lon="6.6715">
        <ele>363</ele>
        <time>2015-11-15T10:30:25.000Z</time>
      </trkpt>
      <trkpt lat="47.4911" lon="6.67147">
        <ele>363</ele>
        <time>2015-11-15T10:30:26.000Z</time>
      </trkpt>
      <trkpt lat="47.4911" lon="6.67143">
        <ele>363</ele>
        <time>2015-11-15T10:30:27.000Z</time>
      </trkpt>
      <trkpt lat="47.4911" lon="6.67139">
        <ele>363</ele>
        <time>2015-11-15T10:30:28.000Z</time>
      </trkpt>
      <trkpt lat="47.4911" lon="6.67136">
        <ele>363</ele>
        <time>2015-11-15T10:30:29.000Z</time>
      </trkpt>
      <trkpt lat="47.49109" lon="6.67132">
        <ele>364</ele>
        <time>2015-11-15T10:30:30.000Z</time>
      </trkpt>
      <trkpt lat="47.49109" lon="6.67129">
        <ele>364</ele>
        <time>2015-11-15T10:30:31.000Z</time>
      </trkpt>
      <trkpt lat="47.49109" lon="6.67125">
        <ele>364</ele>
        <time>2015-11-15T10:30:31.999Z</time>
      </trkpt>
      <trkpt lat="47.49109" lon="6.67121">
        <ele>364</ele>
        <time>2015-11-15T10:30:33.000Z</time>
      </trkpt>
      <trkpt lat="47.49109" lon="6.67118">
        <ele>364</ele>
        <time>2015-11-15T10:30:34.000Z</time>
      </trkpt>
      <trkpt lat="47.49108" lon="6.67114">
        <ele>364</ele>
        <time>2015-11-15T10:30:35.000Z</time>
      </trkpt>
      <trkpt lat="47.49109" lon="6.67108">
        <ele>364</ele>
        <time>2015-11-15T10:30:37.000Z</time>
      </trkpt>
      <trkpt lat="47.49109" lon="6.67104">
        <ele>365</ele>
        <time>2015-11-15T10:30:38.000Z</time>
      </trkpt>
      <trkpt lat="47.49109" lon="6.67098">
        <ele>365</ele>
        <time>2015-11-15T10:30:40.000Z</time>
      </trkpt>
      <trkpt lat="47.49109" lon="6.67094">
        <ele>365</ele>
        <time>2015-11-15T10:30:41.000Z</time>
      </trkpt>
      <trkpt lat="47.49109" lon="6.67091">
        <ele>365</ele>
        <time>2015-11-15T10:30:42.000Z</time>
      </trkpt>
      <trkpt lat="47.49109" lon="6.67088">
        <ele>365</ele>
        <time>2015-11-15T10:30:43.000Z</time>
      </trkpt>
      <trkpt lat="47.49109" lon="6.67081">
        <ele>368</ele>
        <time>2015-11-15T10:30:45.000Z</time>
      </trkpt>
      <trkpt lat="47.49109" lon="6.67078">
        <ele>368</ele>
        <time>2015-11-15T10:30:46.000Z</time>
      </trkpt>
      <trkpt lat="47.49109" lon="6.67072">
        <ele>368</ele>
        <time>2015-11-15T10:30:48.000Z</time>
      </trkpt>
      <trkpt lat="47.49109" lon="6.67068">
        <ele>368</ele>
        <time>2015-11-15T10:30:49.000Z</time>
      </trkpt>
      <trkpt lat="47.49109" lon="6.67065">
        <ele>368</ele>
        <time>2015-11-15T10:30:50.000Z</time>
      </trkpt>
      <trkpt lat="47.49108" lon="6.67061">
        <ele>368</ele>
        <time>2015-11-15T10:30:51.000Z</time>
      </trkpt>
      <trkpt lat="47.49108" lon="6.67058">
        <ele>368</ele>
        <time>2015-11-15T10:30:52.000Z</time>
      </trkpt>
      <trkpt lat="47.49107" lon="6.67055">
        <ele>368</ele>
        <time>2015-11-15T10:30:53.000Z</time>
      </trkpt>
      <trkpt lat="47.49106" lon="6.67051">
        <ele>369</ele>
        <time>2015-11-15T10:30:54.000Z</time>
      </trkpt>
      <trkpt lat="47.49106" lon="6.67048">
        <ele>369</ele>
        <time>2015-11-15T10:30:55.000Z</time>
      </trkpt>
      <trkpt lat="47.49105" lon="6.67045">
        <ele>369</ele>
        <time>2015-11-15T10:30:56.000Z</time>
      </trkpt>
      <trkpt lat="47.49104" lon="6.67041">
        <ele>369</ele>
        <time>2015-11-15T10:30:57.000Z</time>
      </trkpt>
      <trkpt lat="47.49103" lon="6.67038">
        <ele>369</ele>
        <time>2015-11-15T10:30:58.000Z</time>
      </trkpt>
      <trkpt lat="47.49102" lon="6.67035">
        <ele>369</ele>
        <time>2015-11-15T10:30:59.000Z</time>
      </trkpt>
      <trkpt lat="47.49101" lon="6.67032">
        <ele>369</ele>
        <time>2015-11-15T10:31:00.000Z</time>
      </trkpt>
      <trkpt lat="47.491" lon="6.67028">
        <ele>370</ele>
        <time>2015-11-15T10:31:01.000Z</time>
      </trkpt>
      <trkpt lat="47.49099" lon="6.67025">
        <ele>370</ele>
        <time>2015-11-15T10:31:02.000Z</time>
      </trkpt>
      <trkpt lat="47.49098" lon="6.67022">
        <ele>370</ele>
        <time>2015-11-15T10:31:03.000Z</time>
      </trkpt>
      <trkpt lat="47.49097" lon="6.67019">
        <ele>370</ele>
        <time>2015-11-15T10:31:04.000Z</time>
      </trkpt>
      <trkpt lat="47.49096" lon="6.67016">
        <ele>370</ele>
        <time>2015-11-15T10:31:05.000Z</time>
      </trkpt>
      <trkpt lat="47.49095" lon="6.67012">
        <ele>370</ele>
        <time>2015-11-15T10:31:06.000Z</time>
      </trkpt>
      <trkpt lat="47.49095" lon="6.67009">
        <ele>371</ele>
        <time>2015-11-15T10:31:07.000Z</time>
      </trkpt>
      <trkpt lat="47.49094" lon="6.67006">
        <ele>371</ele>
        <time>2015-11-15T10:31:08.000Z</time>
      </trkpt>
      <trkpt lat="47.49094" lon="6.67003">
        <ele>371</ele>
        <time>2015-11-15T10:31:09.000Z</time>
      </trkpt>
      <trkpt lat="47.49093" lon="6.66999">
        <ele>373</ele>
        <time>2015-11-15T10:31:10.000Z</time>
      </trkpt>
      <trkpt lat="47.49093" lon="6.66996">
        <ele>373</ele>
        <time>2015-11-15T10:31:11.000Z</time>
      </trkpt>
      <trkpt lat="47.49092" lon="6.66993">
        <ele>373</ele>
        <time>2015-11-15T10:31:12.000Z</time>
      </trkpt>
      <trkpt lat="47.49092" lon="6.66989">
        <ele>373</ele>
        <time>2015-11-15T10:31:13.000Z</time>
      </trkpt>
      <trkpt lat="47.49091" lon="6.66986">
        <ele>373</ele>
        <time>2015-11-15T10:31:14.000Z</time>
      </trkpt>
      <trkpt lat="47.4909" lon="6.66983">
        <ele>373</ele>
        <time>2015-11-15T10:31:15.000Z</time>
      </trkpt>
      <trkpt lat="47.4909" lon="6.66979">
        <ele>373</ele>
        <time>2015-11-15T10:31:16.000Z</time>
      </trkpt>
      <trkpt lat="47.49089" lon="6.66976">
        <ele>373</ele>
        <time>2015-11-15T10:31:17.000Z</time>
      </trkpt>
      <trkpt lat="47.49088" lon="6.66972">
        <ele>374</ele>
        <time>2015-11-15T10:31:18.000Z</time>
      </trkpt>
      <trkpt lat="47.49088" lon="6.66969">
        <ele>374</ele>
        <time>2015-11-15T10:31:19.000Z</time>
      </trkpt>
      <trkpt lat="47.49087" lon="6.66965">
        <ele>374</ele>
        <time>2015-11-15T10:31:20.000Z</time>
      </trkpt>
      <trkpt lat="47.49087" lon="6.66962">
        <ele>374</ele>
        <time>2015-11-15T10:31:21.000Z</time>
      </trkpt>
      <trkpt lat="47.49086" lon="6.66958">
        <ele>374</ele>
        <time>2015-11-15T10:31:22.000Z</time>
      </trkpt>
      <trkpt lat="47.49085" lon="6.66955">
        <ele>374</ele>
        <time>2015-11-15T10:31:23.000Z</time>
      </trkpt>
      <trkpt lat="47.49083" lon="6.6695">
        <ele>376</ele>
        <time>2015-11-15T10:31:25.000Z</time>
      </trkpt>
      <trkpt lat="47.49081" lon="6.66949">
        <ele>376</ele>
        <time>2015-11-15T10:31:26.000Z</time>
      </trkpt>
      <trkpt lat="47.49078" lon="6.66945">
        <ele>376</ele>
        <time>2015-11-15T10:31:28.000Z</time>
      </trkpt>
      <trkpt lat="47.49077" lon="6.66942">
        <ele>376</ele>
        <time>2015-11-15T10:31:29.000Z</time>
      </trkpt>
      <trkpt lat="47.49074" lon="6.66937">
        <ele>376</ele>
        <time>2015-11-15T10:31:31.000Z</time>
      </trkpt>
      <trkpt lat="47.49072" lon="6.66935">
        <ele>376</ele>
        <time>2015-11-15T10:31:32.000Z</time>
      </trkpt>
      <trkpt lat="47.4907" lon="6.66933">
        <ele>376</ele>
        <time>2015-11-15T10:31:33.000Z</time>
      </trkpt>
      <trkpt lat="47.49068" lon="6.66931">
        <ele>377</ele>
        <time>2015-11-15T10:31:34.000Z</time>
      </trkpt>
      <trkpt lat="47.49066" lon="6.66929">
        <ele>377</ele>
        <time>2015-11-15T10:31:35.000Z</time>
      </trkpt>
      <trkpt lat="47.49065" lon="6.66927">
        <ele>377</ele>
        <time>2015-11-15T10:31:36.000Z</time>
      </trkpt>
      <trkpt lat="47.49061" lon="6.66923">
        <ele>377</ele>
        <time>2015-11-15T10:31:38.000Z</time>
      </trkpt>
      <trkpt lat="47.49059" lon="6.66921">
        <ele>377</ele>
        <time>2015-11-15T10:31:39.000Z</time>
      </trkpt>
      <trkpt lat="47.49056" lon="6.66917">
        <ele>377</ele>
        <time>2015-11-15T10:31:41.000Z</time>
      </trkpt>
      <trkpt lat="47.49055" lon="6.66915">
        <ele>379</ele>
        <time>2015-11-15T10:31:42.000Z</time>
      </trkpt>
      <trkpt lat="47.49052" lon="6.66911">
        <ele>380</ele>
        <time>2015-11-15T10:31:44.000Z</time>
      </trkpt>
      <trkpt lat="47.4905" lon="6.66909">
        <ele>380</ele>
        <time>2015-11-15T10:31:45.000Z</time>
      </trkpt>
      <trkpt lat="47.49047" lon="6.66905">
        <ele>380</ele>
        <time>2015-11-15T10:31:47.000Z</time>
      </trkpt>
      <trkpt lat="47.49046" lon="6.66904">
        <ele>380</ele>
        <time>2015-11-15T10:31:48.000Z</time>
      </trkpt>
      <trkpt lat="47.49043" lon="6.66899">
        <ele>380</ele>
        <time>2015-11-15T10:31:50.000Z</time>
      </trkpt>
      <trkpt lat="47.49041" lon="6.66897">
        <ele>380</ele>
        <time>2015-11-15T10:31:51.000Z</time>
      </trkpt>
      <trkpt lat="47.4904" lon="6.66894">
        <ele>380</ele>
        <time>2015-11-15T10:31:52.000Z</time>
      </trkpt>
      <trkpt lat="47.49038" lon="6.66892">
        <ele>380</ele>
        <time>2015-11-15T10:31:53.000Z</time>
      </trkpt>
      <trkpt lat="47.49035" lon="6.66887">
        <ele>380</ele>
        <time>2015-11-15T10:31:55.000Z</time>
      </trkpt>
      <trkpt lat="47.49034" lon="6.66885">
        <ele>380</ele>
        <time>2015-11-15T10:31:56.000Z</time>
      </trkpt>
      <trkpt lat="47.49034" lon="6.66878">
        <ele>381</ele>
        <time>2015-11-15T10:31:58.000Z</time>
      </trkpt>
      <trkpt lat="47.49035" lon="6.66876">
        <ele>381</ele>
        <time>2015-11-15T10:31:59.000Z</time>
      </trkpt>
      <trkpt lat="47.49037" lon="6.66873">
        <ele>381</ele>
        <time>2015-11-15T10:32:00.000Z</time>
      </trkpt>
      <trkpt lat="47.49039" lon="6.66872">
        <ele>381</ele>
        <time>2015-11-15T10:32:01.000Z</time>
      </trkpt>
      <trkpt lat="47.49041" lon="6.66871">
        <ele>381</ele>
        <time>2015-11-15T10:32:02.000Z</time>
      </trkpt>
      <trkpt lat="47.49044" lon="6.6687">
        <ele>381</ele>
        <time>2015-11-15T10:32:03.000Z</time>
      </trkpt>
      <trkpt lat="47.49046" lon="6.6687">
        <ele>381</ele>
        <time>2015-11-15T10:32:04.000Z</time>
      </trkpt>
      <trkpt lat="47.49048" lon="6.66869">
        <ele>381</ele>
        <time>2015-11-15T10:32:05.000Z</time>
      </trkpt>
      <trkpt lat="47.4905" lon="6.66867">
        <ele>381</ele>
        <time>2015-11-15T10:32:06.000Z</time>
      </trkpt>
      <trkpt lat="47.49052" lon="6.66866">
        <ele>381</ele>
        <time>2015-11-15T10:32:07.000Z</time>
      </trkpt>
      <trkpt lat="47.49056" lon="6.66864">
        <ele>381</ele>
        <time>2015-11-15T10:32:09.000Z</time>
      </trkpt>
      <trkpt lat="47.49058" lon="6.66863">
        <ele>381</ele>
        <time>2015-11-15T10:32:10.000Z</time>
      </trkpt>
      <trkpt lat="47.49062" lon="6.66861">
        <ele>382</ele>
        <time>2015-11-15T10:32:12.000Z</time>
      </trkpt>
      <trkpt lat="47.49064" lon="6.66859">
        <ele>382</ele>
        <time>2015-11-15T10:32:13.000Z</time>
      </trkpt>
      <trkpt lat="47.49068" lon="6.66856">
        <ele>382</ele>
        <time>2015-11-15T10:32:15.000Z</time>
      </trkpt>
      <trkpt lat="47.49069" lon="6.66855">
        <ele>382</ele>
        <time>2015-11-15T10:32:16.000Z</time>
      </trkpt>
      <trkpt lat="47.49073" lon="6.66852">
        <ele>382</ele>
        <time>2015-11-15T10:32:18.000Z</time>
      </trkpt>
      <trkpt lat="47.49075" lon="6.66851">
        <ele>383</ele>
        <time>2015-11-15T10:32:19.000Z</time>
      </trkpt>
      <trkpt lat="47.49078" lon="6.66848">
        <ele>383</ele>
        <time>2015-11-15T10:32:21.000Z</time>
      </trkpt>
      <trkpt lat="47.4908" lon="6.66847">
        <ele>383</ele>
        <time>2015-11-15T10:32:22.000Z</time>
      </trkpt>
      <trkpt lat="47.49084" lon="6.66844">
        <ele>384</ele>
        <time>2015-11-15T10:32:24.000Z</time>
      </trkpt>
      <trkpt lat="47.49086" lon="6.66843">
        <ele>384</ele>
        <time>2015-11-15T10:32:25.000Z</time>
      </trkpt>
      <trkpt lat="47.49089" lon="6.66839">
        <ele>384</ele>
        <time>2015-11-15T10:32:27.000Z</time>
      </trkpt>
      <trkpt lat="47.49091" lon="6.66838">
        <ele>384</ele>
        <time>2015-11-15T10:32:28.000Z</time>
      </trkpt>
      <trkpt lat="47.49094" lon="6.66835">
        <ele>384</ele>
        <time>2015-11-15T10:32:30.000Z</time>
      </trkpt>
      <trkpt lat="47.49096" lon="6.66833">
        <ele>384</ele>
        <time>2015-11-15T10:32:31.000Z</time>
      </trkpt>
      <trkpt lat="47.49099" lon="6.6683">
        <ele>387</ele>
        <time>2015-11-15T10:32:33.000Z</time>
      </trkpt>
      <trkpt lat="47.49101" lon="6.66829">
        <ele>387</ele>
        <time>2015-11-15T10:32:34.000Z</time>
      </trkpt>
      <trkpt lat="47.49104" lon="6.66825">
        <ele>387</ele>
        <time>2015-11-15T10:32:36.000Z</time>
      </trkpt>
      <trkpt lat="47.49106" lon="6.66823">
        <ele>388</ele>
        <time>2015-11-15T10:32:37.000Z</time>
      </trkpt>
      <trkpt lat="47.49109" lon="6.66819">
        <ele>388</ele>
        <time>2015-11-15T10:32:39.000Z</time>
      </trkpt>
      <trkpt lat="47.49111" lon="6.66817">
        <ele>388</ele>
        <time>2015-11-15T10:32:40.000Z</time>
      </trkpt>
      <trkpt lat="47.49114" lon="6.66813">
        <ele>388</ele>
        <time>2015-11-15T10:32:42.000Z</time>
      </trkpt>
      <trkpt lat="47.49116" lon="6.66811">
        <ele>388</ele>
        <time>2015-11-15T10:32:43.000Z</time>
      </trkpt>
      <trkpt lat="47.49119" lon="6.66807">
        <ele>389</ele>
        <time>2015-11-15T10:32:45.000Z</time>
      </trkpt>
      <trkpt lat="47.49121" lon="6.66804">
        <ele>389</ele>
        <time>2015-11-15T10:32:46.000Z</time>
      </trkpt>
      <trkpt lat="47.49124" lon="6.66801">
        <ele>389</ele>
        <time>2015-11-15T10:32:48.000Z</time>
      </trkpt>
      <trkpt lat="47.49126" lon="6.66799">
        <ele>389</ele>
        <time>2015-11-15T10:32:49.000Z</time>
      </trkpt>
      <trkpt lat="47.49128" lon="6.66797">
        <ele>389</ele>
        <time>2015-11-15T10:32:50.000Z</time>
      </trkpt>
      <trkpt lat="47.4913" lon="6.66796">
        <ele>389</ele>
        <time>2015-11-15T10:32:51.000Z</time>
      </trkpt>
      <trkpt lat="47.49132" lon="6.66794">
        <ele>389</ele>
        <time>2015-11-15T10:32:52.000Z</time>
      </trkpt>
      <trkpt lat="47.49135" lon="6.66793">
        <ele>390</ele>
        <time>2015-11-15T10:32:53.000Z</time>
      </trkpt>
      <trkpt lat="47.49137" lon="6.66792">
        <ele>390</ele>
        <time>2015-11-15T10:32:54.000Z</time>
      </trkpt>
      <trkpt lat="47.4914" lon="6.6679">
        <ele>390</ele>
        <time>2015-11-15T10:32:55.000Z</time>
      </trkpt>
      <trkpt lat="47.49142" lon="6.66789">
        <ele>390</ele>
        <time>2015-11-15T10:32:56.000Z</time>
      </trkpt>
      <trkpt lat="47.49144" lon="6.66788">
        <ele>390</ele>
        <time>2015-11-15T10:32:57.000Z</time>
      </trkpt>
      <trkpt lat="47.49146" lon="6.66787">
        <ele>390</ele>
        <time>2015-11-15T10:32:58.000Z</time>
      </trkpt>
      <trkpt lat="47.49149" lon="6.66786">
        <ele>390</ele>
        <time>2015-11-15T10:32:59.000Z</time>
      </trkpt>
      <trkpt lat="47.49151" lon="6.66785">
        <ele>390</ele>
        <time>2015-11-15T10:33:00.000Z</time>
      </trkpt>
      <trkpt lat="47.49153" lon="6.66784">
        <ele>390</ele>
        <time>2015-11-15T10:33:01.000Z</time>
      </trkpt>
      <trkpt lat="47.49155" lon="6.66783">
        <ele>390</ele>
        <time>2015-11-15T10:33:02.000Z</time>
      </trkpt>
      <trkpt lat="47.49158" lon="6.66782">
        <ele>391</ele>
        <time>2015-11-15T10:33:03.000Z</time>
      </trkpt>
      <trkpt lat="47.49161" lon="6.66781">
        <ele>391</ele>
        <time>2015-11-15T10:33:04.000Z</time>
      </trkpt>
      <trkpt lat="47.49163" lon="6.66779">
        <ele>391</ele>
        <time>2015-11-15T10:33:05.000Z</time>
      </trkpt>
      <trkpt lat="47.49166" lon="6.66778">
        <ele>391</ele>
        <time>2015-11-15T10:33:06.000Z</time>
      </trkpt>
      <trkpt lat="47.49169" lon="6.66777">
        <ele>392</ele>
        <time>2015-11-15T10:33:07.000Z</time>
      </trkpt>
      <trkpt lat="47.49172" lon="6.66776">
        <ele>392</ele>
        <time>2015-11-15T10:33:08.000Z</time>
      </trkpt>
      <trkpt lat="47.49174" lon="6.66775">
        <ele>392</ele>
        <time>2015-11-15T10:33:09.000Z</time>
      </trkpt>
      <trkpt lat="47.49177" lon="6.66774">
        <ele>392</ele>
        <time>2015-11-15T10:33:10.000Z</time>
      </trkpt>
      <trkpt lat="47.49179" lon="6.66772">
        <ele>392</ele>
        <time>2015-11-15T10:33:11.000Z</time>
      </trkpt>
      <trkpt lat="47.49182" lon="6.66771">
        <ele>392</ele>
        <time>2015-11-15T10:33:12.000Z</time>
      </trkpt>
      <trkpt lat="47.49185" lon="6.6677">
        <ele>392</ele>
        <time>2015-11-15T10:33:13.000Z</time>
      </trkpt>
      <trkpt lat="47.49187" lon="6.66769">
        <ele>392</ele>
        <time>2015-11-15T10:33:14.000Z</time>
      </trkpt>
      <trkpt lat="47.4919" lon="6.66768">
        <ele>392</ele>
        <time>2015-11-15T10:33:15.000Z</time>
      </trkpt>
      <trkpt lat="47.49193" lon="6.66767">
        <ele>392</ele>
        <time>2015-11-15T10:33:16.000Z</time>
      </trkpt>
      <trkpt lat="47.49195" lon="6.66766">
        <ele>392</ele>
        <time>2015-11-15T10:33:17.000Z</time>
      </trkpt>
      <trkpt lat="47.49198" lon="6.66765">
        <ele>392</ele>
        <time>2015-11-15T10:33:18.000Z</time>
      </trkpt>
      <trkpt lat="47.492" lon="6.66763">
        <ele>392</ele>
        <time>2015-11-15T10:33:19.000Z</time>
      </trkpt>
      <trkpt lat="47.49203" lon="6.66762">
        <ele>392</ele>
        <time>2015-11-15T10:33:20.000Z</time>
      </trkpt>
      <trkpt lat="47.49206" lon="6.66761">
        <ele>392</ele>
        <time>2015-11-15T10:33:21.000Z</time>
      </trkpt>
      <trkpt lat="47.49208" lon="6.6676">
        <ele>392</ele>
        <time>2015-11-15T10:33:22.000Z</time>
      </trkpt>
      <trkpt lat="47.49211" lon="6.66759">
        <ele>392</ele>
        <time>2015-11-15T10:33:23.000Z</time>
      </trkpt>
      <trkpt lat="47.49214" lon="6.66758">
        <ele>392</ele>
        <time>2015-11-15T10:33:24.000Z</time>
      </trkpt>
      <trkpt lat="47.49216" lon="6.66757">
        <ele>392</ele>
        <time>2015-11-15T10:33:25.000Z</time>
      </trkpt>
      <trkpt lat="47.49219" lon="6.66755">
        <ele>392</ele>
        <time>2015-11-15T10:33:26.000Z</time>
      </trkpt>
      <trkpt lat="47.49221" lon="6.66754">
        <ele>392</ele>
        <time>2015-11-15T10:33:27.000Z</time>
      </trkpt>
      <trkpt lat="47.49223" lon="6.66752">
        <ele>392</ele>
        <time>2015-11-15T10:33:28.000Z</time>
      </trkpt>
      <trkpt lat="47.49226" lon="6.66751">
        <ele>392</ele>
        <time>2015-11-15T10:33:29.000Z</time>
      </trkpt>
      <trkpt lat="47.49228" lon="6.66749">
        <ele>397</ele>
        <time>2015-11-15T10:33:30.000Z</time>
      </trkpt>
      <trkpt lat="47.4923" lon="6.66748">
        <ele>397</ele>
        <time>2015-11-15T10:33:31.000Z</time>
      </trkpt>
      <trkpt lat="47.49233" lon="6.66746">
        <ele>397</ele>
        <time>2015-11-15T10:33:32.000Z</time>
      </trkpt>
      <trkpt lat="47.49235" lon="6.66745">
        <ele>397</ele>
        <time>2015-11-15T10:33:33.000Z</time>
      </trkpt>
      <trkpt lat="47.49237" lon="6.66743">
        <ele>397</ele>
        <time>2015-11-15T10:33:34.000Z</time>
      </trkpt>
      <trkpt lat="47.4924" lon="6.66742">
        <ele>397</ele>
        <time>2015-11-15T10:33:35.000Z</time>
      </trkpt>
      <trkpt lat="47.49242" lon="6.66741">
        <ele>397</ele>
        <time>2015-11-15T10:33:36.000Z</time>
      </trkpt>
      <trkpt lat="47.49244" lon="6.6674">
        <ele>397</ele>
        <time>2015-11-15T10:33:37.000Z</time>
      </trkpt>
      <trkpt lat="47.49247" lon="6.66739">
        <ele>397</ele>
        <time>2015-11-15T10:33:38.000Z</time>
      </trkpt>
      <trkpt lat="47.49249" lon="6.66737">
        <ele>397</ele>
        <time>2015-11-15T10:33:39.000Z</time>
      </trkpt>
      <trkpt lat="47.49251" lon="6.66736">
        <ele>397</ele>
        <time>2015-11-15T10:33:40.000Z</time>
      </trkpt>
      <trkpt lat="47.49253" lon="6.66734">
        <ele>397</ele>
        <time>2015-11-15T10:33:41.000Z</time>
      </trkpt>
      <trkpt lat="47.49255" lon="6.66733">
        <ele>397</ele>
        <time>2015-11-15T10:33:42.000Z</time>
      </trkpt>
      <trkpt lat="47.49258" lon="6.66732">
        <ele>398</ele>
        <time>2015-11-15T10:33:43.000Z</time>
      </trkpt>
      <trkpt lat="47.4926" lon="6.66731">
        <ele>398</ele>
        <time>2015-11-15T10:33:44.000Z</time>
      </trkpt>
      <trkpt lat="47.49262" lon="6.6673">
        <ele>398</ele>
        <time>2015-11-15T10:33:45.000Z</time>
      </trkpt>
      <trkpt lat="47.49265" lon="6.66729">
        <ele>398</ele>
        <time>2015-11-15T10:33:46.000Z</time>
      </trkpt>
      <trkpt lat="47.49267" lon="6.66728">
        <ele>398</ele>
        <time>2015-11-15T10:33:47.000Z</time>
      </trkpt>
      <trkpt lat="47.4927" lon="6.66727">
        <ele>398</ele>
        <time>2015-11-15T10:33:48.000Z</time>
      </trkpt>
      <trkpt lat="47.49272" lon="6.66726">
        <ele>399</ele>
        <time>2015-11-15T10:33:49.000Z</time>
      </trkpt>
      <trkpt lat="47.49275" lon="6.66725">
        <ele>399</ele>
        <time>2015-11-15T10:33:50.000Z</time>
      </trkpt>
      <trkpt lat="47.49277" lon="6.66724">
        <ele>399</ele>
        <time>2015-11-15T10:33:51.000Z</time>
      </trkpt>
      <trkpt lat="47.4928" lon="6.66723">
        <ele>399</ele>
        <time>2015-11-15T10:33:52.000Z</time>
      </trkpt>
      <trkpt lat="47.49282" lon="6.66723">
        <ele>399</ele>
        <time>2015-11-15T10:33:53.000Z</time>
      </trkpt>
      <trkpt lat="47.49285" lon="6.66722">
        <ele>399</ele>
        <time>2015-11-15T10:33:54.000Z</time>
      </trkpt>
      <trkpt lat="47.49288" lon="6.66721">
        <ele>399</ele>
        <time>2015-11-15T10:33:55.000Z</time>
      </trkpt>
      <trkpt lat="47.4929" lon="6.66721">
        <ele>399</ele>
        <time>2015-11-15T10:33:56.000Z</time>
      </trkpt>
      <trkpt lat="47.49293" lon="6.66719">
        <ele>399</ele>
        <time>2015-11-15T10:33:57.000Z</time>
      </trkpt>
      <trkpt lat="47.49295" lon="6.66718">
        <ele>399</ele>
        <time>2015-11-15T10:33:58.000Z</time>
      </trkpt>
      <trkpt lat="47.49298" lon="6.66717">
        <ele>399</ele>
        <time>2015-11-15T10:33:59.000Z</time>
      </trkpt>
      <trkpt lat="47.493" lon="6.66715">
        <ele>399</ele>
        <time>2015-11-15T10:34:00.000Z</time>
      </trkpt>
      <trkpt lat="47.49303" lon="6.66714">
        <ele>399</ele>
        <time>2015-11-15T10:34:01.000Z</time>
      </trkpt>
      <trkpt lat="47.49306" lon="6.66713">
        <ele>399</ele>
        <time>2015-11-15T10:34:02.000Z</time>
      </trkpt>
      <trkpt lat="47.49309" lon="6.66712">
        <ele>400</ele>
        <time>2015-11-15T10:34:03.000Z</time>
      </trkpt>
      <trkpt lat="47.49312" lon="6.66711">
        <ele>400</ele>
        <time>2015-11-15T10:34:04.000Z</time>
      </trkpt>
      <trkpt lat="47.49315" lon="6.6671">
        <ele>400</ele>
        <time>2015-11-15T10:34:05.000Z</time>
      </trkpt>
      <trkpt lat="47.49318" lon="6.6671">
        <ele>400</ele>
        <time>2015-11-15T10:34:06.000Z</time>
      </trkpt>
      <trkpt lat="47.49321" lon="6.66709">
        <ele>400</ele>
        <time>2015-11-15T10:34:07.000Z</time>
      </trkpt>
      <trkpt lat="47.49323" lon="6.66708">
        <ele>400</ele>
        <time>2015-11-15T10:34:08.000Z</time>
      </trkpt>
      <trkpt lat="47.49326" lon="6.66706">
        <ele>400</ele>
        <time>2015-11-15T10:34:09.000Z</time>
      </trkpt>
      <trkpt lat="47.49328" lon="6.66705">
        <ele>400</ele>
        <time>2015-11-15T10:34:10.000Z</time>
      </trkpt>
      <trkpt lat="47.49331" lon="6.66704">
        <ele>400</ele>
        <time>2015-11-15T10:34:11.000Z</time>
      </trkpt>
      <trkpt lat="47.49333" lon="6.66703">
        <ele>400</ele>
        <time>2015-11-15T10:34:12.000Z</time>
      </trkpt>
      <trkpt lat="47.49335" lon="6.66701">
        <ele>399</ele>
        <time>2015-11-15T10:34:13.000Z</time>
      </trkpt>
      <trkpt lat="47.49337" lon="6.667">
        <ele>399</ele>
        <time>2015-11-15T10:34:13.998Z</time>
      </trkpt>
      <trkpt lat="47.4934" lon="6.66697">
        <ele>399</ele>
        <time>2015-11-15T10:34:15.000Z</time>
      </trkpt>
      <trkpt lat="47.49342" lon="6.66694">
        <ele>400</ele>
        <time>2015-11-15T10:34:16.000Z</time>
      </trkpt>
      <trkpt lat="47.49344" lon="6.66692">
        <ele>400</ele>
        <time>2015-11-15T10:34:17.000Z</time>
      </trkpt>
      <trkpt lat="47.49346" lon="6.6669">
        <ele>400</ele>
        <time>2015-11-15T10:34:18.000Z</time>
      </trkpt>
      <trkpt lat="47.49349" lon="6.66688">
        <ele>400</ele>
        <time>2015-11-15T10:34:19.000Z</time>
      </trkpt>
      <trkpt lat="47.49351" lon="6.66687">
        <ele>400</ele>
        <time>2015-11-15T10:34:20.000Z</time>
      </trkpt>
      <trkpt lat="47.49354" lon="6.66686">
        <ele>400</ele>
        <time>2015-11-15T10:34:21.000Z</time>
      </trkpt>
      <trkpt lat="47.49357" lon="6.66685">
        <ele>400</ele>
        <time>2015-11-15T10:34:22.000Z</time>
      </trkpt>
      <trkpt lat="47.49359" lon="6.66683">
        <ele>399</ele>
        <time>2015-11-15T10:34:23.000Z</time>
      </trkpt>
      <trkpt lat="47.49362" lon="6.66681">
        <ele>399</ele>
        <time>2015-11-15T10:34:24.000Z</time>
      </trkpt>
      <trkpt lat="47.49365" lon="6.66679">
        <ele>399</ele>
        <time>2015-11-15T10:34:25.000Z</time>
      </trkpt>
      <trkpt lat="47.49369" lon="6.66675">
        <ele>399</ele>
        <time>2015-11-15T10:34:26.000Z</time>
      </trkpt>
      <trkpt lat="47.49372" lon="6.66671">
        <ele>399</ele>
        <time>2015-11-15T10:34:27.000Z</time>
      </trkpt>
      <trkpt lat="47.49377" lon="6.66664">
        <ele>403</ele>
        <time>2015-11-15T10:34:28.000Z</time>
      </trkpt>
      <trkpt lat="47.4938" lon="6.6666">
        <ele>403</ele>
        <time>2015-11-15T10:34:29.000Z</time>
      </trkpt>
      <trkpt lat="47.49384" lon="6.66656">
        <ele>403</ele>
        <time>2015-11-15T10:34:30.000Z</time>
      </trkpt>
      <trkpt lat="47.49387" lon="6.66651">
        <ele>403</ele>
        <time>2015-11-15T10:34:31.000Z</time>
      </trkpt>
      <trkpt lat="47.49391" lon="6.66648">
        <ele>403</ele>
        <time>2015-11-15T10:34:32.000Z</time>
      </trkpt>
      <trkpt lat="47.49394" lon="6.66644">
        <ele>403</ele>
        <time>2015-11-15T10:34:33.000Z</time>
      </trkpt>
      <trkpt lat="47.49398" lon="6.6664">
        <ele>403</ele>
        <time>2015-11-15T10:34:34.000Z</time>
      </trkpt>
      <trkpt lat="47.49401" lon="6.66637">
        <ele>403</ele>
        <time>2015-11-15T10:34:35.000Z</time>
      </trkpt>
      <trkpt lat="47.49405" lon="6.66632">
        <ele>403</ele>
        <time>2015-11-15T10:34:36.000Z</time>
      </trkpt>
      <trkpt lat="47.49409" lon="6.66628">
        <ele>403</ele>
        <time>2015-11-15T10:34:37.000Z</time>
      </trkpt>
      <trkpt lat="47.49413" lon="6.66624">
        <ele>404</ele>
        <time>2015-11-15T10:34:38.000Z</time>
      </trkpt>
      <trkpt lat="47.49418" lon="6.66619">
        <ele>401</ele>
        <time>2015-11-15T10:34:39.000Z</time>
      </trkpt>
      <trkpt lat="47.49422" lon="6.66615">
        <ele>401</ele>
        <time>2015-11-15T10:34:40.000Z</time>
      </trkpt>
      <trkpt lat="47.49426" lon="6.66611">
        <ele>401</ele>
        <time>2015-11-15T10:34:41.000Z</time>
      </trkpt>
      <trkpt lat="47.4943" lon="6.66608">
        <ele>401</ele>
        <time>2015-11-15T10:34:42.000Z</time>
      </trkpt>
      <trkpt lat="47.49434" lon="6.66604">
        <ele>401</ele>
        <time>2015-11-15T10:34:43.000Z</time>
      </trkpt>
      <trkpt lat="47.49438" lon="6.66602">
        <ele>401</ele>
        <time>2015-11-15T10:34:44.000Z</time>
      </trkpt>
      <trkpt lat="47.49441" lon="6.66599">
        <ele>401</ele>
        <time>2015-11-15T10:34:45.000Z</time>
      </trkpt>
      <trkpt lat="47.49445" lon="6.66596">
        <ele>401</ele>
        <time>2015-11-15T10:34:46.000Z</time>
      </trkpt>
      <trkpt lat="47.49449" lon="6.66594">
        <ele>401</ele>
        <time>2015-11-15T10:34:47.000Z</time>
      </trkpt>
      <trkpt lat="47.49453" lon="6.66592">
        <ele>401</ele>
        <time>2015-11-15T10:34:48.000Z</time>
      </trkpt>
      <trkpt lat="47.49457" lon="6.6659">
        <ele>401</ele>
        <time>2015-11-15T10:34:49.000Z</time>
      </trkpt>
      <trkpt lat="47.49461" lon="6.66588">
        <ele>401</ele>
        <time>2015-11-15T10:34:50.000Z</time>
      </trkpt>
      <trkpt lat="47.49465" lon="6.66586">
        <ele>401</ele>
        <time>2015-11-15T10:34:51.000Z</time>
      </trkpt>
      <trkpt lat="47.49469" lon="6.66584">
        <ele>401</ele>
        <time>2015-11-15T10:34:52.000Z</time>
      </trkpt>
      <trkpt lat="47.49473" lon="6.66583">
        <ele>405</ele>
        <time>2015-11-15T10:34:53.000Z</time>
      </trkpt>
      <trkpt lat="47.49476" lon="6.66582">
        <ele>405</ele>
        <time>2015-11-15T10:34:54.000Z</time>
      </trkpt>
      <trkpt lat="47.4948" lon="6.66581">
        <ele>404</ele>
        <time>2015-11-15T10:34:55.000Z</time>
      </trkpt>
      <trkpt lat="47.49484" lon="6.6658">
        <ele>404</ele>
        <time>2015-11-15T10:34:56.000Z</time>
      </trkpt>
      <trkpt lat="47.49488" lon="6.66579">
        <ele>404</ele>
        <time>2015-11-15T10:34:57.000Z</time>
      </trkpt>
      <trkpt lat="47.49492" lon="6.66578">
        <ele>403</ele>
        <time>2015-11-15T10:34:58.000Z</time>
      </trkpt>
      <trkpt lat="47.49496" lon="6.66578">
        <ele>403</ele>
        <time>2015-11-15T10:34:59.000Z</time>
      </trkpt>
      <trkpt lat="47.495" lon="6.66577">
        <ele>402</ele>
        <time>2015-11-15T10:35:00.000Z</time>
      </trkpt>
      <trkpt lat="47.49504" lon="6.66577">
        <ele>402</ele>
        <time>2015-11-15T10:35:01.000Z</time>
      </trkpt>
      <trkpt lat="47.49508" lon="6.66577">
        <ele>402</ele>
        <time>2015-11-15T10:35:02.000Z</time>
      </trkpt>
      <trkpt lat="47.49512" lon="6.66577">
        <ele>402</ele>
        <time>2015-11-15T10:35:03.000Z</time>
      </trkpt>
      <trkpt lat="47.49516" lon="6.66577">
        <ele>402</ele>
        <time>2015-11-15T10:35:04.000Z</time>
      </trkpt>
      <trkpt lat="47.4952" lon="6.66577">
        <ele>402</ele>
        <time>2015-11-15T10:35:05.000Z</time>
      </trkpt>
      <trkpt lat="47.49523" lon="6.66577">
        <ele>403</ele>
        <time>2015-11-15T10:35:06.000Z</time>
      </trkpt>
      <trkpt lat="47.49527" lon="6.66577">
        <ele>403</ele>
        <time>2015-11-15T10:35:07.000Z</time>
      </trkpt>
      <trkpt lat="47.49532" lon="6.66577">
        <ele>403</ele>
        <time>2015-11-15T10:35:08.000Z</time>
      </trkpt>
      <trkpt lat="47.49537" lon="6.66577">
        <ele>403</ele>
        <time>2015-11-15T10:35:09.000Z</time>
      </trkpt>
      <trkpt lat="47.49542" lon="6.66577">
        <ele>402</ele>
        <time>2015-11-15T10:35:10.000Z</time>
      </trkpt>
      <trkpt lat="47.49547" lon="6.66576">
        <ele>402</ele>
        <time>2015-11-15T10:35:11.000Z</time>
      </trkpt>
      <trkpt lat="47.49552" lon="6.66576">
        <ele>402</ele>
        <time>2015-11-15T10:35:12.000Z</time>
      </trkpt>
      <trkpt lat="47.49558" lon="6.66576">
        <ele>402</ele>
        <time>2015-11-15T10:35:13.000Z</time>
      </trkpt>
      <trkpt lat="47.49563" lon="6.66575">
        <ele>401</ele>
        <time>2015-11-15T10:35:14.000Z</time>
      </trkpt>
      <trkpt lat="47.49568" lon="6.66575">
        <ele>401</ele>
        <time>2015-11-15T10:35:15.000Z</time>
      </trkpt>
      <trkpt lat="47.49573" lon="6.66573">
        <ele>401</ele>
        <time>2015-11-15T10:35:16.000Z</time>
      </trkpt>
      <trkpt lat="47.49579" lon="6.66573">
        <ele>400</ele>
        <time>2015-11-15T10:35:17.000Z</time>
      </trkpt>
      <trkpt lat="47.49584" lon="6.66573">
        <ele>399</ele>
        <time>2015-11-15T10:35:18.000Z</time>
      </trkpt>
      <trkpt lat="47.49589" lon="6.66572">
        <ele>399</ele>
        <time>2015-11-15T10:35:19.000Z</time>
      </trkpt>
      <trkpt lat="47.49595" lon="6.66572">
        <ele>399</ele>
        <time>2015-11-15T10:35:20.000Z</time>
      </trkpt>
      <trkpt lat="47.496" lon="6.66571">
        <ele>399</ele>
        <time>2015-11-15T10:35:21.000Z</time>
      </trkpt>
      <trkpt lat="47.49605" lon="6.6657">
        <ele>399</ele>
        <time>2015-11-15T10:35:22.000Z</time>
      </trkpt>
      <trkpt lat="47.4961" lon="6.66569">
        <ele>399</ele>
        <time>2015-11-15T10:35:23.000Z</time>
      </trkpt>
      <trkpt lat="47.49615" lon="6.66566">
        <ele>399</ele>
        <time>2015-11-15T10:35:24.000Z</time>
      </trkpt>
      <trkpt lat="47.4962" lon="6.66564">
        <ele>399</ele>
        <time>2015-11-15T10:35:25.000Z</time>
      </trkpt>
      <trkpt lat="47.49625" lon="6.66562">
        <ele>399</ele>
        <time>2015-11-15T10:35:26.000Z</time>
      </trkpt>
      <trkpt lat="47.49631" lon="6.66561">
        <ele>399</ele>
        <time>2015-11-15T10:35:27.000Z</time>
      </trkpt>
      <trkpt lat="47.49637" lon="6.66559">
        <ele>398</ele>
        <time>2015-11-15T10:35:28.000Z</time>
      </trkpt>
      <trkpt lat="47.49642" lon="6.66558">
        <ele>398</ele>
        <time>2015-11-15T10:35:29.000Z</time>
      </trkpt>
      <trkpt lat="47.49648" lon="6.66556">
        <ele>398</ele>
        <time>2015-11-15T10:35:30.000Z</time>
      </trkpt>
      <trkpt lat="47.49653" lon="6.66555">
        <ele>398</ele>
        <time>2015-11-15T10:35:31.000Z</time>
      </trkpt>
      <trkpt lat="47.49658" lon="6.66553">
        <ele>398</ele>
        <time>2015-11-15T10:35:32.000Z</time>
      </trkpt>
      <trkpt lat="47.49663" lon="6.6655">
        <ele>398</ele>
        <time>2015-11-15T10:35:33.000Z</time>
      </trkpt>
      <trkpt lat="47.49669" lon="6.66548">
        <ele>395</ele>
        <time>2015-11-15T10:35:34.000Z</time>
      </trkpt>
      <trkpt lat="47.49674" lon="6.66547">
        <ele>395</ele>
        <time>2015-11-15T10:35:35.000Z</time>
      </trkpt>
      <trkpt lat="47.4968" lon="6.66546">
        <ele>395</ele>
        <time>2015-11-15T10:35:36.000Z</time>
      </trkpt>
      <trkpt lat="47.49685" lon="6.66543">
        <ele>395</ele>
        <time>2015-11-15T10:35:37.000Z</time>
      </trkpt>
      <trkpt lat="47.4969" lon="6.6654">
        <ele>395</ele>
        <time>2015-11-15T10:35:38.000Z</time>
      </trkpt>
      <trkpt lat="47.49697" lon="6.66538">
        <ele>395</ele>
        <time>2015-11-15T10:35:39.000Z</time>
      </trkpt>
      <trkpt lat="47.49703" lon="6.66536">
        <ele>395</ele>
        <time>2015-11-15T10:35:40.000Z</time>
      </trkpt>
      <trkpt lat="47.49715" lon="6.66534">
        <ele>394</ele>
        <time>2015-11-15T10:35:42.000Z</time>
      </trkpt>
      <trkpt lat="47.49722" lon="6.66533">
        <ele>394</ele>
        <time>2015-11-15T10:35:43.000Z</time>
      </trkpt>
      <trkpt lat="47.49728" lon="6.66532">
        <ele>394</ele>
        <time>2015-11-15T10:35:44.000Z</time>
      </trkpt>
      <trkpt lat="47.49735" lon="6.6653">
        <ele>394</ele>
        <time>2015-11-15T10:35:45.000Z</time>
      </trkpt>
      <trkpt lat="47.49741" lon="6.66529">
        <ele>394</ele>
        <time>2015-11-15T10:35:46.000Z</time>
      </trkpt>
      <trkpt lat="47.49748" lon="6.66526">
        <ele>394</ele>
        <time>2015-11-15T10:35:47.000Z</time>
      </trkpt>
      <trkpt lat="47.49755" lon="6.66524">
        <ele>392</ele>
        <time>2015-11-15T10:35:48.000Z</time>
      </trkpt>
      <trkpt lat="47.49762" lon="6.66521">
        <ele>392</ele>
        <time>2015-11-15T10:35:49.000Z</time>
      </trkpt>
      <trkpt lat="47.49768" lon="6.66519">
        <ele>392</ele>
        <time>2015-11-15T10:35:50.000Z</time>
      </trkpt>
      <trkpt lat="47.49775" lon="6.66518">
        <ele>391</ele>
        <time>2015-11-15T10:35:51.000Z</time>
      </trkpt>
      <trkpt lat="47.49782" lon="6.66516">
        <ele>391</ele>
        <time>2015-11-15T10:35:52.000Z</time>
      </trkpt>
      <trkpt lat="47.49788" lon="6.66514">
        <ele>391</ele>
        <time>2015-11-15T10:35:53.000Z</time>
      </trkpt>
      <trkpt lat="47.49795" lon="6.66512">
        <ele>391</ele>
        <time>2015-11-15T10:35:54.000Z</time>
      </trkpt>
      <trkpt lat="47.49802" lon="6.66508">
        <ele>391</ele>
        <time>2015-11-15T10:35:55.000Z</time>
      </trkpt>
      <trkpt lat="47.4981" lon="6.66504">
        <ele>391</ele>
        <time>2015-11-15T10:35:56.000Z</time>
      </trkpt>
      <trkpt lat="47.49817" lon="6.66502">
        <ele>391</ele>
        <time>2015-11-15T10:35:57.000Z</time>
      </trkpt>
      <trkpt lat="47.49825" lon="6.66501">
        <ele>391</ele>
        <time>2015-11-15T10:35:58.000Z</time>
      </trkpt>
      <trkpt lat="47.49832" lon="6.665">
        <ele>391</ele>
        <time>2015-11-15T10:35:59.000Z</time>
      </trkpt>
      <trkpt lat="47.49839" lon="6.66498">
        <ele>390</ele>
        <time>2015-11-15T10:36:00.000Z</time>
      </trkpt>
      <trkpt lat="47.49846" lon="6.66497">
        <ele>390</ele>
        <time>2015-11-15T10:36:01.000Z</time>
      </trkpt>
      <trkpt lat="47.49851" lon="6.66494">
        <ele>389</ele>
        <time>2015-11-15T10:36:02.000Z</time>
      </trkpt>
      <trkpt lat="47.49856" lon="6.66492">
        <ele>389</ele>
        <time>2015-11-15T10:36:03.000Z</time>
      </trkpt>
      <trkpt lat="47.4986" lon="6.66491">
        <ele>388</ele>
        <time>2015-11-15T10:36:04.000Z</time>
      </trkpt>
      <trkpt lat="47.49865" lon="6.66489">
        <ele>388</ele>
        <time>2015-11-15T10:36:05.000Z</time>
      </trkpt>
      <trkpt lat="47.49867" lon="6.66488">
        <ele>388</ele>
        <time>2015-11-15T10:36:06.000Z</time>
      </trkpt>
      <trkpt lat="47.49871" lon="6.66486">
        <ele>387</ele>
        <time>2015-11-15T10:36:10.000Z</time>
      </trkpt>
      <trkpt lat="47.49872" lon="6.66485">
        <ele>387</ele>
        <time>2015-11-15T10:36:11.000Z</time>
      </trkpt>
      <trkpt lat="47.49868" lon="6.66485">
        <ele>388</ele>
        <time>2015-11-15T10:36:41.000Z</time>
      </trkpt>
      <trkpt lat="47.49867" lon="6.66485">
        <ele>388</ele>
        <time>2015-11-15T10:36:42.000Z</time>
      </trkpt>
      <trkpt lat="47.49863" lon="6.66484">
        <ele>388</ele>
        <time>2015-11-15T10:36:45.000Z</time>
      </trkpt>
      <trkpt lat="47.49862" lon="6.66484">
        <ele>388</ele>
        <time>2015-11-15T10:36:46.000Z</time>
      </trkpt>
      <trkpt lat="47.49866" lon="6.6648">
        <ele>388</ele>
        <time>2015-11-15T10:39:10.000Z</time>
      </trkpt>
      <trkpt lat="47.49866" lon="6.6648">
        <ele>388</ele>
        <time>2015-11-15T10:39:11.001Z</time>
      </trkpt>
      <trkpt lat="47.49862" lon="6.66479">
        <ele>388</ele>
        <time>2015-11-15T10:39:45.000Z</time>
      </trkpt>
      <trkpt lat="47.49862" lon="6.66479">
        <ele>388</ele>
        <time>2015-11-15T10:39:45.999Z</time>
      </trkpt>
      <trkpt lat="47.49864" lon="6.66483">
        <ele>388</ele>
        <time>2015-11-15T10:40:31.000Z</time>
      </trkpt>
      <trkpt lat="47.49864" lon="6.66485">
        <ele>388</ele>
        <time>2015-11-15T10:40:32.000Z</time>
      </trkpt>
      <trkpt lat="47.49865" lon="6.66486">
        <ele>388</ele>
        <time>2015-11-15T10:40:46.000Z</time>
      </trkpt>
    </trkseg>
  </trk>
</gpx>